<?xml version='1.0' encoding='UTF-8'?><gpx version="1.1" creator="JPX - https://github.com/jenetics/jpx" xmlns="http://www.topografix.com/GPX/1/1"><trk><trkseg><trkpt lat="45.027325901065616" lon="6.860267657779579"><ele>1537.0000000000002</ele><time>2026-05-02T06:59:39.999Z</time></trkpt><trkpt lat="45.0272629501141" lon="6.860335859384068"><ele>1537.0</ele><time>2026-05-02T06:59:42.999Z</time></trkpt><trkpt lat="45.02731436310777" lon="6.860397070197915"><ele>1537.0</ele><time>2026-05-02T06:59:45.999Z</time></trkpt><trkpt lat="45.02732778857494" lon="6.860274107133247"><ele>1537.0</ele><time>2026-05-02T06:59:49.999Z</time></trkpt><trkpt lat="45.02734785449584" lon="6.860135448074682"><ele>1537.0000000000002</ele><time>2026-05-02T06:59:52.999Z</time></trkpt><trkpt lat="45.02735885882643" lon="6.860045105703113"><ele>1537.0</ele><time>2026-05-02T06:59:54.999Z</time></trkpt><trkpt lat="45.02730856237828" lon="6.859948542855791"><ele>1534.6666666666667</ele><time>2026-05-02T06:59:57.999Z</time></trkpt><trkpt lat="45.027293916540366" lon="6.85985925455182"><ele>1532.3333333333335</ele><time>2026-05-02T06:59:59.999Z</time></trkpt><trkpt lat="45.02728429465965" lon="6.859731493733491"><ele>1530.0</ele><time>2026-05-02T07:00:02.999Z</time></trkpt><trkpt lat="45.02733678145754" lon="6.85964299556847"><ele>1527.6666666666667</ele><time>2026-05-02T07:00:05.999Z</time></trkpt><trkpt lat="45.027420513759864" lon="6.859601741574777"><ele>1525.3333333333335</ele><time>2026-05-02T07:00:08.999Z</time></trkpt><trkpt lat="45.02748010417534" lon="6.859557622946201"><ele>1523.0</ele><time>2026-05-02T07:00:10.999Z</time></trkpt><trkpt lat="45.02755467194078" lon="6.859480757291769"><ele>1519.6000000000001</ele><time>2026-05-02T07:00:13.999Z</time></trkpt><trkpt lat="45.02761111333084" lon="6.859428228560129"><ele>1516.2</ele><time>2026-05-02T07:00:15.999Z</time></trkpt><trkpt lat="45.02769898069029" lon="6.859345243779939"><ele>1512.8</ele><time>2026-05-02T07:00:17.999Z</time></trkpt><trkpt lat="45.027812449670705" lon="6.859266673839245"><ele>1509.4</ele><time>2026-05-02T07:00:19.999Z</time></trkpt><trkpt lat="45.02791026363381" lon="6.859218743890986"><ele>1506.0</ele><time>2026-05-02T07:00:21.999Z</time></trkpt><trkpt lat="45.02798989202647" lon="6.859204525962624"><ele>1506.0</ele><time>2026-05-02T07:00:23.999Z</time></trkpt><trkpt lat="45.02807910008488" lon="6.859207412563914"><ele>1506.0</ele><time>2026-05-02T07:00:25.999Z</time></trkpt><trkpt lat="45.02815896809127" lon="6.8592311143499645"><ele>1506.0</ele><time>2026-05-02T07:00:27.999Z</time></trkpt><trkpt lat="45.02824942194674" lon="6.859240979938968"><ele>1506.0</ele><time>2026-05-02T07:00:29.999Z</time></trkpt><trkpt lat="45.0283370862631" lon="6.859261653221149"><ele>1506.0</ele><time>2026-05-02T07:00:31.999Z</time></trkpt><trkpt lat="45.02842414507663" lon="6.859280170405392"><ele>1506.0</ele><time>2026-05-02T07:00:33.998Z</time></trkpt><trkpt lat="45.028515464571846" lon="6.8593061955373225"><ele>1505.6</ele><time>2026-05-02T07:00:35.999Z</time></trkpt><trkpt lat="45.02860099674652" lon="6.859302947616605"><ele>1505.1999999999998</ele><time>2026-05-02T07:00:37.999Z</time></trkpt><trkpt lat="45.028705590618195" lon="6.859269503374018"><ele>1504.8000000000002</ele><time>2026-05-02T07:00:39.999Z</time></trkpt><trkpt lat="45.02880622111707" lon="6.859234051851136"><ele>1504.4</ele><time>2026-05-02T07:00:41.999Z</time></trkpt><trkpt lat="45.0288974053076" lon="6.859205190908469"><ele>1504.0</ele><time>2026-05-02T07:00:43.999Z</time></trkpt><trkpt lat="45.02898725521671" lon="6.859193505441787"><ele>1503.6666666666665</ele><time>2026-05-02T07:00:45.999Z</time></trkpt><trkpt lat="45.02905759238327" lon="6.859178829072156"><ele>1503.3333333333333</ele><time>2026-05-02T07:00:47.999Z</time></trkpt><trkpt lat="45.029123210992225" lon="6.8591775703853255"><ele>1503.0</ele><time>2026-05-02T07:00:50.999Z</time></trkpt><trkpt lat="45.02922379022818" lon="6.859172392666885"><ele>1502.6666666666667</ele><time>2026-05-02T07:00:54Z</time></trkpt><trkpt lat="45.0292971523191" lon="6.859195785160425"><ele>1502.3333333333335</ele><time>2026-05-02T07:00:56Z</time></trkpt><trkpt lat="45.02939264239522" lon="6.859208889617599"><ele>1502.0</ele><time>2026-05-02T07:00:58Z</time></trkpt><trkpt lat="45.029488259954306" lon="6.859248148393449"><ele>1501.0</ele><time>2026-05-02T07:01:00Z</time></trkpt><trkpt lat="45.029580208168454" lon="6.859268622413595"><ele>1500.0</ele><time>2026-05-02T07:01:02Z</time></trkpt><trkpt lat="45.029661647581364" lon="6.859278112805934"><ele>1499.0</ele><time>2026-05-02T07:01:04Z</time></trkpt><trkpt lat="45.029745816216234" lon="6.859275671147283"><ele>1498.0</ele><time>2026-05-02T07:01:06Z</time></trkpt><trkpt lat="45.02981653798529" lon="6.85928587335991"><ele>1497.0</ele><time>2026-05-02T07:01:08Z</time></trkpt><trkpt lat="45.02988156087423" lon="6.859271805350862"><ele>1496.0</ele><time>2026-05-02T07:01:09.999Z</time></trkpt><trkpt lat="45.029886746088486" lon="6.859095236467713"><ele>1494.8</ele><time>2026-05-02T07:01:10.999Z</time></trkpt><trkpt lat="45.02986833857754" lon="6.85893295155135"><ele>1493.6</ele><time>2026-05-02T07:01:12.999Z</time></trkpt><trkpt lat="45.02983290896879" lon="6.858767353017529"><ele>1492.4</ele><time>2026-05-02T07:01:14.999Z</time></trkpt><trkpt lat="45.0298065370603" lon="6.858685260419609"><ele>1491.2</ele><time>2026-05-02T07:01:15.999Z</time></trkpt><trkpt lat="45.02976538862196" lon="6.858566345940087"><ele>1490.0</ele><time>2026-05-02T07:01:17.999Z</time></trkpt><trkpt lat="45.029743939676635" lon="6.858472101052319"><ele>1490.2</ele><time>2026-05-02T07:01:19.999Z</time></trkpt><trkpt lat="45.02971869006531" lon="6.858371453423785"><ele>1490.4</ele><time>2026-05-02T07:01:22.999Z</time></trkpt><trkpt lat="45.02960100813188" lon="6.858395262724985"><ele>1490.6</ele><time>2026-05-02T07:01:23.999Z</time></trkpt><trkpt lat="45.029598953153446" lon="6.858298085005897"><ele>1490.8</ele><time>2026-05-02T07:01:43.999Z</time></trkpt><trkpt lat="45.029663465054625" lon="6.858168315517212"><ele>1491.0</ele><time>2026-05-02T07:01:45.999Z</time></trkpt><trkpt lat="45.02962447802918" lon="6.858027985544096"><ele>1491.0</ele><time>2026-05-02T07:01:47.999Z</time></trkpt><trkpt lat="45.02959686148278" lon="6.857926081212688"><ele>1491.0</ele><time>2026-05-02T07:01:48.999Z</time></trkpt><trkpt lat="45.02955708400191" lon="6.857784686556996"><ele>1491.0</ele><time>2026-05-02T07:01:50.999Z</time></trkpt><trkpt lat="45.02951993656689" lon="6.8576550145528845"><ele>1491.0</ele><time>2026-05-02T07:01:52.999Z</time></trkpt><trkpt lat="45.0294841097183" lon="6.85751509462803"><ele>1491.0</ele><time>2026-05-02T07:01:54.999Z</time></trkpt><trkpt lat="45.02945973600397" lon="6.857430631435367"><ele>1490.1666666666667</ele><time>2026-05-02T07:01:55.999Z</time></trkpt><trkpt lat="45.02943250667515" lon="6.857343223275677"><ele>1489.3333333333333</ele><time>2026-05-02T07:01:56.999Z</time></trkpt><trkpt lat="45.02940001965993" lon="6.857244505281591"><ele>1488.5</ele><time>2026-05-02T07:01:57.999Z</time></trkpt><trkpt lat="45.02936009425727" lon="6.857129438546223"><ele>1487.6666666666665</ele><time>2026-05-02T07:01:58.999Z</time></trkpt><trkpt lat="45.029314359625445" lon="6.857001954265431"><ele>1486.8333333333333</ele><time>2026-05-02T07:01:59.999Z</time></trkpt><trkpt lat="45.02926451476633" lon="6.856858551466396"><ele>1486.0</ele><time>2026-05-02T07:02:00.999Z</time></trkpt><trkpt lat="45.029219666526295" lon="6.856700762569291"><ele>1488.0</ele><time>2026-05-02T07:02:01.999Z</time></trkpt><trkpt lat="45.029176232210844" lon="6.856542980185505"><ele>1490.0</ele><time>2026-05-02T07:02:02.999Z</time></trkpt><trkpt lat="45.02913342383446" lon="6.856384003447813"><ele>1492.0</ele><time>2026-05-02T07:02:03.999Z</time></trkpt><trkpt lat="45.02908716354705" lon="6.856223289426672"><ele>1494.0</ele><time>2026-05-02T07:02:04.999Z</time></trkpt><trkpt lat="45.029042145186246" lon="6.8560641456682845"><ele>1492.4</ele><time>2026-05-02T07:02:05.999Z</time></trkpt><trkpt lat="45.02900280439727" lon="6.855912519518524"><ele>1490.8000000000002</ele><time>2026-05-02T07:02:06.999Z</time></trkpt><trkpt lat="45.02896432392193" lon="6.855774127181789"><ele>1489.1999999999998</ele><time>2026-05-02T07:02:07.999Z</time></trkpt><trkpt lat="45.02892002002992" lon="6.8556641048570395"><ele>1487.6</ele><time>2026-05-02T07:02:08.999Z</time></trkpt><trkpt lat="45.02886864648982" lon="6.855552320941434"><ele>1486.0</ele><time>2026-05-02T07:02:09.999Z</time></trkpt><trkpt lat="45.02879903780608" lon="6.8554428491469634"><ele>1486.0</ele><time>2026-05-02T07:02:10.999Z</time></trkpt><trkpt lat="45.0287058002069" lon="6.855342015854822"><ele>1486.0</ele><time>2026-05-02T07:02:11.999Z</time></trkpt><trkpt lat="45.02858837920239" lon="6.855257097214916"><ele>1486.0</ele><time>2026-05-02T07:02:12.999Z</time></trkpt><trkpt lat="45.028482646846825" lon="6.855166659281468"><ele>1486.0</ele><time>2026-05-02T07:02:13.999Z</time></trkpt><trkpt lat="45.02838823871864" lon="6.855055512790517"><ele>1486.0</ele><time>2026-05-02T07:02:14.999Z</time></trkpt><trkpt lat="45.028303914067195" lon="6.854934766749081"><ele>1486.0</ele><time>2026-05-02T07:02:15.999Z</time></trkpt><trkpt lat="45.0282303636216" lon="6.854807257234312"><ele>1486.0</ele><time>2026-05-02T07:02:16.999Z</time></trkpt><trkpt lat="45.028198934170526" lon="6.854653796012223"><ele>1486.0</ele><time>2026-05-02T07:02:17.999Z</time></trkpt><trkpt lat="45.02817351779398" lon="6.854503464876229"><ele>1486.0</ele><time>2026-05-02T07:02:18.999Z</time></trkpt><trkpt lat="45.02817338215008" lon="6.854354482658053"><ele>1486.0</ele><time>2026-05-02T07:02:19.999Z</time></trkpt><trkpt lat="45.02817890386106" lon="6.854212608617359"><ele>1486.0</ele><time>2026-05-02T07:02:20.999Z</time></trkpt><trkpt lat="45.028188863329554" lon="6.854053758939671"><ele>1486.0</ele><time>2026-05-02T07:02:21.999Z</time></trkpt><trkpt lat="45.02819796064057" lon="6.853898988082498"><ele>1486.0</ele><time>2026-05-02T07:02:22.999Z</time></trkpt><trkpt lat="45.02818539861767" lon="6.853741503931746"><ele>1483.6</ele><time>2026-05-02T07:02:23.999Z</time></trkpt><trkpt lat="45.028156943268016" lon="6.8535887703682805"><ele>1481.1999999999998</ele><time>2026-05-02T07:02:24.999Z</time></trkpt><trkpt lat="45.02809645572438" lon="6.853442116736153"><ele>1478.8000000000002</ele><time>2026-05-02T07:02:25.999Z</time></trkpt><trkpt lat="45.02802110206382" lon="6.85334379694468"><ele>1476.4</ele><time>2026-05-02T07:02:26.999Z</time></trkpt><trkpt lat="45.02795923285236" lon="6.853239496005498"><ele>1474.0</ele><time>2026-05-02T07:02:28.999Z</time></trkpt><trkpt lat="45.027815543202735" lon="6.853367641159696"><ele>1471.6666666666665</ele><time>2026-05-02T07:02:30.999Z</time></trkpt><trkpt lat="45.02773369982555" lon="6.853397712331203"><ele>1469.3333333333333</ele><time>2026-05-02T07:02:34.999Z</time></trkpt><trkpt lat="45.02766655849111" lon="6.85337039918322"><ele>1467.0</ele><time>2026-05-02T07:02:44Z</time></trkpt><trkpt lat="45.0277552466989" lon="6.853415124238475"><ele>1464.6666666666667</ele><time>2026-05-02T07:02:49Z</time></trkpt><trkpt lat="45.02782731485577" lon="6.853411756589073"><ele>1462.3333333333335</ele><time>2026-05-02T07:02:50Z</time></trkpt><trkpt lat="45.02790782580388" lon="6.853361858812349"><ele>1460.0</ele><time>2026-05-02T07:02:52Z</time></trkpt><trkpt lat="45.027924055231225" lon="6.853237226463413"><ele>1460.0</ele><time>2026-05-02T07:02:54Z</time></trkpt><trkpt lat="45.027916081008335" lon="6.853139479402693"><ele>1460.0</ele><time>2026-05-02T07:02:57Z</time></trkpt><trkpt lat="45.027851376611885" lon="6.853098043246233"><ele>1460.0</ele><time>2026-05-02T07:04:06.999Z</time></trkpt><trkpt lat="45.02777514480162" lon="6.8530251270617395"><ele>1460.0</ele><time>2026-05-02T07:04:08.999Z</time></trkpt><trkpt lat="45.02769085165569" lon="6.852949344515719"><ele>1460.0</ele><time>2026-05-02T07:04:10.999Z</time></trkpt><trkpt lat="45.027599148580556" lon="6.852855353688966"><ele>1460.0</ele><time>2026-05-02T07:04:12.999Z</time></trkpt><trkpt lat="45.027505352478926" lon="6.852753145443177"><ele>1460.4</ele><time>2026-05-02T07:04:14.999Z</time></trkpt><trkpt lat="45.02743443477024" lon="6.852633339348064"><ele>1460.8</ele><time>2026-05-02T07:04:16.999Z</time></trkpt><trkpt lat="45.02735776370547" lon="6.852515714110791"><ele>1461.1999999999998</ele><time>2026-05-02T07:04:18.999Z</time></trkpt><trkpt lat="45.02727043578578" lon="6.852369414431264"><ele>1461.6</ele><time>2026-05-02T07:04:20.999Z</time></trkpt><trkpt lat="45.02721924755551" lon="6.85228678407821"><ele>1462.0</ele><time>2026-05-02T07:04:21.999Z</time></trkpt><trkpt lat="45.027165541001175" lon="6.852207833730747"><ele>1459.6666666666665</ele><time>2026-05-02T07:04:22.999Z</time></trkpt><trkpt lat="45.0271065212305" lon="6.852146357004684"><ele>1457.3333333333333</ele><time>2026-05-02T07:04:23.999Z</time></trkpt><trkpt lat="45.02703957743837" lon="6.852115013538344"><ele>1455.0</ele><time>2026-05-02T07:04:24.999Z</time></trkpt><trkpt lat="45.026957259385156" lon="6.852110438813278"><ele>1452.6666666666667</ele><time>2026-05-02T07:04:25.999Z</time></trkpt><trkpt lat="45.02687543553478" lon="6.852105446154663"><ele>1450.3333333333335</ele><time>2026-05-02T07:04:26.999Z</time></trkpt><trkpt lat="45.02678542364853" lon="6.852080305239851"><ele>1448.0</ele><time>2026-05-02T07:04:27.999Z</time></trkpt><trkpt lat="45.02669590547117" lon="6.852017813080257"><ele>1447.0</ele><time>2026-05-02T07:04:28.999Z</time></trkpt><trkpt lat="45.026621540848375" lon="6.85191975360053"><ele>1446.0</ele><time>2026-05-02T07:04:29.999Z</time></trkpt><trkpt lat="45.02655771120478" lon="6.851803344918263"><ele>1445.0</ele><time>2026-05-02T07:04:30.999Z</time></trkpt><trkpt lat="45.02650377750474" lon="6.851677937203963"><ele>1444.0</ele><time>2026-05-02T07:04:31.999Z</time></trkpt><trkpt lat="45.026462281031044" lon="6.851539667545004"><ele>1443.0</ele><time>2026-05-02T07:04:32.999Z</time></trkpt><trkpt lat="45.0264213181115" lon="6.8513884039349735"><ele>1443.0</ele><time>2026-05-02T07:04:33.999Z</time></trkpt><trkpt lat="45.026383191831926" lon="6.851223199872043"><ele>1443.0</ele><time>2026-05-02T07:04:34.999Z</time></trkpt><trkpt lat="45.02634852266989" lon="6.851062723839772"><ele>1443.0</ele><time>2026-05-02T07:04:35.999Z</time></trkpt><trkpt lat="45.026319323399385" lon="6.850908840946163"><ele>1443.0</ele><time>2026-05-02T07:04:36.999Z</time></trkpt><trkpt lat="45.02627901138516" lon="6.850757573156963"><ele>1440.5</ele><time>2026-05-02T07:04:37.999Z</time></trkpt><trkpt lat="45.02622291589751" lon="6.8506205868149435"><ele>1438.0</ele><time>2026-05-02T07:04:38.999Z</time></trkpt><trkpt lat="45.02615808961584" lon="6.850494421337109"><ele>1435.5</ele><time>2026-05-02T07:04:39.999Z</time></trkpt><trkpt lat="45.0260849398361" lon="6.8503711863259875"><ele>1433.0</ele><time>2026-05-02T07:04:40.999Z</time></trkpt><trkpt lat="45.02600179596197" lon="6.850255739043443"><ele>1433.0</ele><time>2026-05-02T07:04:41.999Z</time></trkpt><trkpt lat="45.025916061339935" lon="6.8501349927053745"><ele>1433.0</ele><time>2026-05-02T07:04:42.999Z</time></trkpt><trkpt lat="45.02584219098827" lon="6.849993585124561"><ele>1433.0</ele><time>2026-05-02T07:04:43.999Z</time></trkpt><trkpt lat="45.025781219376334" lon="6.849829699015534"><ele>1433.0</ele><time>2026-05-02T07:04:44.999Z</time></trkpt><trkpt lat="45.02572918846195" lon="6.849661289492688"><ele>1431.2</ele><time>2026-05-02T07:04:45.999Z</time></trkpt><trkpt lat="45.02569018291861" lon="6.8495039608048245"><ele>1429.4</ele><time>2026-05-02T07:04:46.999Z</time></trkpt><trkpt lat="45.02564165641486" lon="6.849364873408909"><ele>1427.6000000000001</ele><time>2026-05-02T07:04:48Z</time></trkpt><trkpt lat="45.02556577362624" lon="6.849252565763373"><ele>1425.8000000000002</ele><time>2026-05-02T07:04:49Z</time></trkpt><trkpt lat="45.025470557148836" lon="6.849181616423033"><ele>1424.0</ele><time>2026-05-02T07:04:50Z</time></trkpt><trkpt lat="45.025355246891415" lon="6.8491340486900185"><ele>1420.5</ele><time>2026-05-02T07:04:51Z</time></trkpt><trkpt lat="45.02523970046142" lon="6.849071306614706"><ele>1417.0</ele><time>2026-05-02T07:04:52Z</time></trkpt><trkpt lat="45.025139649015756" lon="6.848971478187493"><ele>1413.5</ele><time>2026-05-02T07:04:53Z</time></trkpt><trkpt lat="45.02504444676689" lon="6.848850268597354"><ele>1410.0</ele><time>2026-05-02T07:04:54Z</time></trkpt><trkpt lat="45.02493407149138" lon="6.848767731501986"><ele>1410.0</ele><time>2026-05-02T07:04:55Z</time></trkpt><trkpt lat="45.024813281806594" lon="6.848718849336563"><ele>1410.0</ele><time>2026-05-02T07:04:56Z</time></trkpt><trkpt lat="45.02469607141641" lon="6.848675422728198"><ele>1410.0</ele><time>2026-05-02T07:04:57Z</time></trkpt><trkpt lat="45.02458207656505" lon="6.848638469660443"><ele>1410.0</ele><time>2026-05-02T07:04:58Z</time></trkpt><trkpt lat="45.02447614757909" lon="6.848598821603448"><ele>1410.0</ele><time>2026-05-02T07:04:59Z</time></trkpt><trkpt lat="45.024378121791024" lon="6.848562786219699"><ele>1410.0</ele><time>2026-05-02T07:05:00Z</time></trkpt><trkpt lat="45.02428977999834" lon="6.8485332351900325"><ele>1410.0</ele><time>2026-05-02T07:05:01Z</time></trkpt><trkpt lat="45.0242240652957" lon="6.848475492705176"><ele>1410.0</ele><time>2026-05-02T07:05:02Z</time></trkpt><trkpt lat="45.02419323551016" lon="6.8483712108818"><ele>1410.0</ele><time>2026-05-02T07:05:03Z</time></trkpt><trkpt lat="45.024176589610455" lon="6.848274664617551"><ele>1410.0</ele><time>2026-05-02T07:05:04Z</time></trkpt><trkpt lat="45.02425978955767" lon="6.848175265997223"><ele>1407.2</ele><time>2026-05-02T07:05:05Z</time></trkpt><trkpt lat="45.024347006000085" lon="6.848144564372021"><ele>1404.4</ele><time>2026-05-02T07:05:06Z</time></trkpt><trkpt lat="45.02444992478955" lon="6.8481316284821165"><ele>1401.6</ele><time>2026-05-02T07:05:07Z</time></trkpt><trkpt lat="45.02456152961868" lon="6.848105629960636"><ele>1398.8</ele><time>2026-05-02T07:05:08Z</time></trkpt><trkpt lat="45.024672990431206" lon="6.848070374036471"><ele>1396.0</ele><time>2026-05-02T07:05:09Z</time></trkpt><trkpt lat="45.024763512865135" lon="6.8479999508369875"><ele>1396.0</ele><time>2026-05-02T07:05:10Z</time></trkpt><trkpt lat="45.0248221797643" lon="6.847878424476887"><ele>1396.0</ele><time>2026-05-02T07:05:11Z</time></trkpt><trkpt lat="45.02484392851305" lon="6.847744687784433"><ele>1396.0</ele><time>2026-05-02T07:05:12Z</time></trkpt><trkpt lat="45.02483246701806" lon="6.847607264189629"><ele>1396.0</ele><time>2026-05-02T07:05:13Z</time></trkpt><trkpt lat="45.02482087327212" lon="6.847459511814799"><ele>1396.0</ele><time>2026-05-02T07:05:14Z</time></trkpt><trkpt lat="45.02481036754191" lon="6.847300886994099"><ele>1393.8</ele><time>2026-05-02T07:05:15Z</time></trkpt><trkpt lat="45.02476394347401" lon="6.8471531935090155"><ele>1391.6</ele><time>2026-05-02T07:05:16Z</time></trkpt><trkpt lat="45.02468724577342" lon="6.847020961072283"><ele>1389.4</ele><time>2026-05-02T07:05:17Z</time></trkpt><trkpt lat="45.02462200307047" lon="6.846941882108871"><ele>1387.2</ele><time>2026-05-02T07:05:18Z</time></trkpt><trkpt lat="45.024559970575964" lon="6.846903134484564"><ele>1385.0</ele><time>2026-05-02T07:05:19Z</time></trkpt><trkpt lat="45.024498640466476" lon="6.846880155414366"><ele>1385.0</ele><time>2026-05-02T07:05:20Z</time></trkpt><trkpt lat="45.02442291242534" lon="6.846819734683865"><ele>1385.0</ele><time>2026-05-02T07:05:21Z</time></trkpt><trkpt lat="45.024328202442135" lon="6.846797820349124"><ele>1385.0</ele><time>2026-05-02T07:05:22Z</time></trkpt><trkpt lat="45.0242184771219" lon="6.846796036709534"><ele>1385.0</ele><time>2026-05-02T07:05:23Z</time></trkpt><trkpt lat="45.02410397802882" lon="6.846777424936048"><ele>1385.0</ele><time>2026-05-02T07:05:24Z</time></trkpt><trkpt lat="45.024008339921096" lon="6.846758252879553"><ele>1383.1666666666667</ele><time>2026-05-02T07:05:25Z</time></trkpt><trkpt lat="45.023934203717324" lon="6.8467121600073515"><ele>1381.3333333333335</ele><time>2026-05-02T07:05:26Z</time></trkpt><trkpt lat="45.02389264358768" lon="6.846630914416163"><ele>1379.5</ele><time>2026-05-02T07:05:27Z</time></trkpt><trkpt lat="45.023889896656236" lon="6.846524968313972"><ele>1377.6666666666667</ele><time>2026-05-02T07:05:28Z</time></trkpt><trkpt lat="45.023935298151166" lon="6.8464090873426215"><ele>1375.8333333333333</ele><time>2026-05-02T07:05:29Z</time></trkpt><trkpt lat="45.024002762801835" lon="6.846312596212995"><ele>1374.0</ele><time>2026-05-02T07:05:30Z</time></trkpt><trkpt lat="45.0240882904666" lon="6.846266629997878"><ele>1374.0</ele><time>2026-05-02T07:05:31Z</time></trkpt><trkpt lat="45.02419515988315" lon="6.846256341880537"><ele>1374.0</ele><time>2026-05-02T07:05:32Z</time></trkpt><trkpt lat="45.024308208251355" lon="6.84625267267223"><ele>1374.0</ele><time>2026-05-02T07:05:33Z</time></trkpt><trkpt lat="45.024428009045494" lon="6.8462406061775125"><ele>1374.0</ele><time>2026-05-02T07:05:34Z</time></trkpt><trkpt lat="45.02454480032461" lon="6.846233071854509"><ele>1374.0</ele><time>2026-05-02T07:05:35Z</time></trkpt><trkpt lat="45.024648887457424" lon="6.846235953191288"><ele>1374.0</ele><time>2026-05-02T07:05:36Z</time></trkpt><trkpt lat="45.024733730265446" lon="6.846227749180983"><ele>1374.0</ele><time>2026-05-02T07:05:37Z</time></trkpt><trkpt lat="45.024797640289584" lon="6.846197381534025"><ele>1374.0</ele><time>2026-05-02T07:05:38Z</time></trkpt><trkpt lat="45.02482538006162" lon="6.84603503807975"><ele>1374.0</ele><time>2026-05-02T07:05:40Z</time></trkpt><trkpt lat="45.0247745923629" lon="6.845955233614481"><ele>1371.4</ele><time>2026-05-02T07:05:41Z</time></trkpt><trkpt lat="45.0246875259782" lon="6.8458967117959"><ele>1368.8000000000002</ele><time>2026-05-02T07:05:42Z</time></trkpt><trkpt lat="45.0245986780003" lon="6.8458476110000115"><ele>1366.1999999999998</ele><time>2026-05-02T07:05:43Z</time></trkpt><trkpt lat="45.02453121540748" lon="6.845783469886117"><ele>1363.6</ele><time>2026-05-02T07:05:44Z</time></trkpt><trkpt lat="45.02449932159591" lon="6.845699743477151"><ele>1361.0</ele><time>2026-05-02T07:05:45Z</time></trkpt><trkpt lat="45.02457885656672" lon="6.845548833921608"><ele>1361.0</ele><time>2026-05-02T07:05:47Z</time></trkpt><trkpt lat="45.024679058301295" lon="6.845539908807713"><ele>1361.0</ele><time>2026-05-02T07:05:48Z</time></trkpt><trkpt lat="45.0247782944482" lon="6.845547031782517"><ele>1361.0</ele><time>2026-05-02T07:05:49Z</time></trkpt><trkpt lat="45.024891366248546" lon="6.845519570437331"><ele>1361.0</ele><time>2026-05-02T07:05:50Z</time></trkpt><trkpt lat="45.025005364584395" lon="6.845494701517556"><ele>1361.0</ele><time>2026-05-02T07:05:51Z</time></trkpt><trkpt lat="45.02510892012601" lon="6.84544354223841"><ele>1360.1999999999998</ele><time>2026-05-02T07:05:52Z</time></trkpt><trkpt lat="45.02518855551144" lon="6.845332625431675"><ele>1359.3999999999999</ele><time>2026-05-02T07:05:53Z</time></trkpt><trkpt lat="45.02524818529765" lon="6.845182311354161"><ele>1358.6</ele><time>2026-05-02T07:05:54Z</time></trkpt><trkpt lat="45.02529408187725" lon="6.845035013047611"><ele>1357.8</ele><time>2026-05-02T07:05:54.999Z</time></trkpt><trkpt lat="45.02530213789228" lon="6.844895779307276"><ele>1357.0</ele><time>2026-05-02T07:05:55.999Z</time></trkpt><trkpt lat="45.02526201310415" lon="6.844741819350708"><ele>1355.25</ele><time>2026-05-02T07:05:56.999Z</time></trkpt><trkpt lat="45.025183424276" lon="6.844593368942293"><ele>1353.5</ele><time>2026-05-02T07:05:57.999Z</time></trkpt><trkpt lat="45.0251044840946" lon="6.844436386096294"><ele>1351.75</ele><time>2026-05-02T07:05:58.999Z</time></trkpt><trkpt lat="45.025036869240765" lon="6.844274043469253"><ele>1350.0</ele><time>2026-05-02T07:05:59.999Z</time></trkpt><trkpt lat="45.02498240483017" lon="6.844115498631749"><ele>1347.0</ele><time>2026-05-02T07:06:00.999Z</time></trkpt><trkpt lat="45.02493498130565" lon="6.843971152009173"><ele>1344.0</ele><time>2026-05-02T07:06:01.999Z</time></trkpt><trkpt lat="45.02486799827946" lon="6.843842392149333"><ele>1341.0</ele><time>2026-05-02T07:06:02.999Z</time></trkpt><trkpt lat="45.02476179371911" lon="6.843735518322219"><ele>1338.0</ele><time>2026-05-02T07:06:03.999Z</time></trkpt><trkpt lat="45.024646400564336" lon="6.843643945186708"><ele>1338.0</ele><time>2026-05-02T07:06:04.999Z</time></trkpt><trkpt lat="45.02451847127806" lon="6.843583933620124"><ele>1338.0</ele><time>2026-05-02T07:06:05.999Z</time></trkpt><trkpt lat="45.0243885201582" lon="6.843546086327729"><ele>1338.0</ele><time>2026-05-02T07:06:06.999Z</time></trkpt><trkpt lat="45.024264849775825" lon="6.843515450601835"><ele>1338.0</ele><time>2026-05-02T07:06:07.999Z</time></trkpt><trkpt lat="45.02414303324917" lon="6.843488145035906"><ele>1336.25</ele><time>2026-05-02T07:06:08.999Z</time></trkpt><trkpt lat="45.024021765334254" lon="6.84347428821209"><ele>1334.5</ele><time>2026-05-02T07:06:09.999Z</time></trkpt><trkpt lat="45.02390365818083" lon="6.843478507350198"><ele>1332.75</ele><time>2026-05-02T07:06:10.999Z</time></trkpt><trkpt lat="45.02378783200079" lon="6.843510322847133"><ele>1331.0</ele><time>2026-05-02T07:06:11.999Z</time></trkpt><trkpt lat="45.023665964164955" lon="6.843536343743955"><ele>1331.0</ele><time>2026-05-02T07:06:12.999Z</time></trkpt><trkpt lat="45.02354582719701" lon="6.843562636369365"><ele>1331.0</ele><time>2026-05-02T07:06:13.999Z</time></trkpt><trkpt lat="45.02342917633665" lon="6.843591405282261"><ele>1331.0</ele><time>2026-05-02T07:06:14.999Z</time></trkpt><trkpt lat="45.02332021589075" lon="6.843629094924505"><ele>1331.0</ele><time>2026-05-02T07:06:15.999Z</time></trkpt><trkpt lat="45.0232152385344" lon="6.84367560612911"><ele>1331.3333333333335</ele><time>2026-05-02T07:06:16.999Z</time></trkpt><trkpt lat="45.023134813884276" lon="6.843759995977505"><ele>1331.6666666666667</ele><time>2026-05-02T07:06:17.999Z</time></trkpt><trkpt lat="45.02308292716815" lon="6.843825574265707"><ele>1332.0</ele><time>2026-05-02T07:06:18.999Z</time></trkpt><trkpt lat="45.02301079159548" lon="6.843803041176783"><ele>1332.3333333333333</ele><time>2026-05-02T07:06:19.999Z</time></trkpt><trkpt lat="45.02295306124199" lon="6.843727935762278"><ele>1332.6666666666665</ele><time>2026-05-02T07:06:20.999Z</time></trkpt><trkpt lat="45.02293584657046" lon="6.843611537374445"><ele>1333.0</ele><time>2026-05-02T07:06:21.999Z</time></trkpt><trkpt lat="45.02295594111035" lon="6.843477983896036"><ele>1328.0</ele><time>2026-05-02T07:06:22.999Z</time></trkpt><trkpt lat="45.02298131098007" lon="6.843321724977051"><ele>1323.0</ele><time>2026-05-02T07:06:23.999Z</time></trkpt><trkpt lat="45.022995302926766" lon="6.8431338387930785"><ele>1318.0</ele><time>2026-05-02T07:06:24.999Z</time></trkpt><trkpt lat="45.022996216780996" lon="6.8429348430788535"><ele>1313.0</ele><time>2026-05-02T07:06:25.999Z</time></trkpt><trkpt lat="45.022995952752844" lon="6.842738189998896"><ele>1308.25</ele><time>2026-05-02T07:06:26.999Z</time></trkpt><trkpt lat="45.02300001397802" lon="6.842551624177297"><ele>1303.5</ele><time>2026-05-02T07:06:27.999Z</time></trkpt><trkpt lat="45.02302150958251" lon="6.842389966266213"><ele>1298.75</ele><time>2026-05-02T07:06:28.999Z</time></trkpt><trkpt lat="45.02307404961388" lon="6.842239759028923"><ele>1294.0</ele><time>2026-05-02T07:06:29.999Z</time></trkpt><trkpt lat="45.02315596344271" lon="6.842107810196161"><ele>1294.0</ele><time>2026-05-02T07:06:30.999Z</time></trkpt><trkpt lat="45.023256966964205" lon="6.841993157902874"><ele>1294.0</ele><time>2026-05-02T07:06:31.999Z</time></trkpt><trkpt lat="45.02337287656367" lon="6.84188370012568"><ele>1294.0</ele><time>2026-05-02T07:06:32.999Z</time></trkpt><trkpt lat="45.023500259569836" lon="6.841778854349824"><ele>1294.0</ele><time>2026-05-02T07:06:33.999Z</time></trkpt><trkpt lat="45.02364124852834" lon="6.841690335645044"><ele>1294.0</ele><time>2026-05-02T07:06:34.999Z</time></trkpt><trkpt lat="45.02380643899431" lon="6.841639467635947"><ele>1294.0</ele><time>2026-05-02T07:06:35.999Z</time></trkpt><trkpt lat="45.023976565239934" lon="6.841596354357381"><ele>1294.0</ele><time>2026-05-02T07:06:36.999Z</time></trkpt><trkpt lat="45.024140855893364" lon="6.841526628949691"><ele>1295.0</ele><time>2026-05-02T07:06:37.999Z</time></trkpt><trkpt lat="45.024290774132055" lon="6.841439490338046"><ele>1296.0</ele><time>2026-05-02T07:06:38.999Z</time></trkpt><trkpt lat="45.02443686278475" lon="6.841358700914333"><ele>1297.0</ele><time>2026-05-02T07:06:39.999Z</time></trkpt><trkpt lat="45.02458508560835" lon="6.841303771080067"><ele>1297.0</ele><time>2026-05-02T07:06:40.999Z</time></trkpt><trkpt lat="45.02473282023639" lon="6.8412779654155"><ele>1297.0</ele><time>2026-05-02T07:06:41.999Z</time></trkpt><trkpt lat="45.02487909046043" lon="6.841241268993386"><ele>1297.0</ele><time>2026-05-02T07:06:42.999Z</time></trkpt><trkpt lat="45.02502146970244" lon="6.841144412156538"><ele>1298.6666666666665</ele><time>2026-05-02T07:06:43.999Z</time></trkpt><trkpt lat="45.025165554428746" lon="6.841002021334906"><ele>1300.3333333333333</ele><time>2026-05-02T07:06:44.999Z</time></trkpt><trkpt lat="45.02531860335971" lon="6.8408460889789815"><ele>1302.0</ele><time>2026-05-02T07:06:45.999Z</time></trkpt><trkpt lat="45.025476808977366" lon="6.840714061067515"><ele>1296.6666666666667</ele><time>2026-05-02T07:06:46.999Z</time></trkpt><trkpt lat="45.025629240403894" lon="6.8406002747045696"><ele>1291.3333333333335</ele><time>2026-05-02T07:06:47.999Z</time></trkpt><trkpt lat="45.02577525813692" lon="6.8404983690027"><ele>1286.0</ele><time>2026-05-02T07:06:48.999Z</time></trkpt><trkpt lat="45.025916807604204" lon="6.840398082343783"><ele>1286.0</ele><time>2026-05-02T07:06:49.999Z</time></trkpt><trkpt lat="45.02605773397405" lon="6.84030534634057"><ele>1286.0</ele><time>2026-05-02T07:06:50.999Z</time></trkpt><trkpt lat="45.0262070478554" lon="6.840232600821049"><ele>1286.0</ele><time>2026-05-02T07:06:51.999Z</time></trkpt><trkpt lat="45.026356792113575" lon="6.840164742009522"><ele>1278.6666666666667</ele><time>2026-05-02T07:06:52.999Z</time></trkpt><trkpt lat="45.026507091026744" lon="6.8401005572075375"><ele>1271.3333333333333</ele><time>2026-05-02T07:06:54Z</time></trkpt><trkpt lat="45.02665805160608" lon="6.840053924330937"><ele>1264.0</ele><time>2026-05-02T07:06:55Z</time></trkpt><trkpt lat="45.026800495422776" lon="6.840026875483046"><ele>1264.0</ele><time>2026-05-02T07:06:56Z</time></trkpt><trkpt lat="45.0269236084254" lon="6.840000878480376"><ele>1264.0</ele><time>2026-05-02T07:06:57Z</time></trkpt><trkpt lat="45.02702607555161" lon="6.839972648414205"><ele>1264.0</ele><time>2026-05-02T07:06:58Z</time></trkpt><trkpt lat="45.02710537127192" lon="6.839921054227117"><ele>1264.0</ele><time>2026-05-02T07:06:59Z</time></trkpt><trkpt lat="45.02716677532222" lon="6.839826132474886"><ele>1264.0</ele><time>2026-05-02T07:07:00Z</time></trkpt><trkpt lat="45.02717507018558" lon="6.839705511738565"><ele>1264.0</ele><time>2026-05-02T07:07:01Z</time></trkpt><trkpt lat="45.02713585157102" lon="6.839605749152513"><ele>1264.0</ele><time>2026-05-02T07:07:02Z</time></trkpt><trkpt lat="45.0270577484062" lon="6.839528635408594"><ele>1264.0</ele><time>2026-05-02T07:07:03Z</time></trkpt><trkpt lat="45.026949547724136" lon="6.839485042154519"><ele>1264.0</ele><time>2026-05-02T07:07:04Z</time></trkpt><trkpt lat="45.0268225132821" lon="6.839446893145109"><ele>1264.0</ele><time>2026-05-02T07:07:05Z</time></trkpt><trkpt lat="45.02668407863098" lon="6.83939013116543"><ele>1262.3333333333333</ele><time>2026-05-02T07:07:06Z</time></trkpt><trkpt lat="45.026536455652135" lon="6.839339989370377"><ele>1260.6666666666667</ele><time>2026-05-02T07:07:07Z</time></trkpt><trkpt lat="45.02638943064308" lon="6.839333961999581"><ele>1259.0</ele><time>2026-05-02T07:07:08Z</time></trkpt><trkpt lat="45.02623395322736" lon="6.839385401611693"><ele>1259.0</ele><time>2026-05-02T07:07:09Z</time></trkpt><trkpt lat="45.02606779055182" lon="6.83946963225188"><ele>1259.0</ele><time>2026-05-02T07:07:10Z</time></trkpt><trkpt lat="45.0258972051165" lon="6.8394743772748186"><ele>1259.0</ele><time>2026-05-02T07:07:11Z</time></trkpt><trkpt lat="45.025722467713784" lon="6.839445330009664"><ele>1257.6666666666667</ele><time>2026-05-02T07:07:12Z</time></trkpt><trkpt lat="45.0255590299728" lon="6.839482777957935"><ele>1256.3333333333333</ele><time>2026-05-02T07:07:13Z</time></trkpt><trkpt lat="45.02542192992045" lon="6.839564540836664"><ele>1255.0</ele><time>2026-05-02T07:07:14Z</time></trkpt><trkpt lat="45.02528110572599" lon="6.839588626882919"><ele>1255.0</ele><time>2026-05-02T07:07:15Z</time></trkpt><trkpt lat="45.02514824517013" lon="6.839512398321845"><ele>1255.0</ele><time>2026-05-02T07:07:16Z</time></trkpt><trkpt lat="45.025032414535275" lon="6.839376731196963"><ele>1255.0</ele><time>2026-05-02T07:07:17Z</time></trkpt><trkpt lat="45.02490379139194" lon="6.839215470014591"><ele>1248.3333333333333</ele><time>2026-05-02T07:07:18Z</time></trkpt><trkpt lat="45.02473464977326" lon="6.839100268679847"><ele>1241.6666666666667</ele><time>2026-05-02T07:07:19Z</time></trkpt><trkpt lat="45.02457080664708" lon="6.839003829353226"><ele>1235.0</ele><time>2026-05-02T07:07:20Z</time></trkpt><trkpt lat="45.024420172801" lon="6.838917335697701"><ele>1235.0</ele><time>2026-05-02T07:07:21Z</time></trkpt><trkpt lat="45.02427230370189" lon="6.83883296596394"><ele>1235.0</ele><time>2026-05-02T07:07:22Z</time></trkpt><trkpt lat="45.0241285068735" lon="6.83877004679531"><ele>1235.0</ele><time>2026-05-02T07:07:23Z</time></trkpt><trkpt lat="45.02398652897568" lon="6.838715758713091"><ele>1234.5</ele><time>2026-05-02T07:07:24Z</time></trkpt><trkpt lat="45.023849482827345" lon="6.8386692039998325"><ele>1234.0</ele><time>2026-05-02T07:07:25Z</time></trkpt><trkpt lat="45.02371283118134" lon="6.838631766045002"><ele>1233.5</ele><time>2026-05-02T07:07:26Z</time></trkpt><trkpt lat="45.02356408203068" lon="6.83862597827679"><ele>1233.0</ele><time>2026-05-02T07:07:27Z</time></trkpt><trkpt lat="45.02340465410172" lon="6.838639690166644"><ele>1231.0</ele><time>2026-05-02T07:07:28Z</time></trkpt><trkpt lat="45.02324754857406" lon="6.838632560787436"><ele>1229.0</ele><time>2026-05-02T07:07:29Z</time></trkpt><trkpt lat="45.02308851474138" lon="6.838630557651642"><ele>1227.0</ele><time>2026-05-02T07:07:30Z</time></trkpt><trkpt lat="45.02294710928002" lon="6.838636281912623"><ele>1227.0</ele><time>2026-05-02T07:07:31Z</time></trkpt><trkpt lat="45.022820234398566" lon="6.8386505397893735"><ele>1227.0</ele><time>2026-05-02T07:07:32Z</time></trkpt><trkpt lat="45.0227164899417" lon="6.8386587280301665"><ele>1227.0</ele><time>2026-05-02T07:07:33Z</time></trkpt><trkpt lat="45.022636270985736" lon="6.838647253816503"><ele>1227.0</ele><time>2026-05-02T07:07:34Z</time></trkpt><trkpt lat="45.02256098285356" lon="6.838619445310897"><ele>1227.0</ele><time>2026-05-02T07:07:35Z</time></trkpt><trkpt lat="45.022505386262594" lon="6.838544553221194"><ele>1224.8333333333333</ele><time>2026-05-02T07:07:36Z</time></trkpt><trkpt lat="45.022477002739386" lon="6.838427417253687"><ele>1222.6666666666667</ele><time>2026-05-02T07:07:37Z</time></trkpt><trkpt lat="45.022466376870064" lon="6.838296249663262"><ele>1220.5</ele><time>2026-05-02T07:07:38Z</time></trkpt><trkpt lat="45.02245791304759" lon="6.838178059465523"><ele>1218.3333333333335</ele><time>2026-05-02T07:07:39Z</time></trkpt><trkpt lat="45.0224418820445" lon="6.838070123381413"><ele>1216.1666666666667</ele><time>2026-05-02T07:07:40Z</time></trkpt><trkpt lat="45.02245262250992" lon="6.8379645019236825"><ele>1214.0</ele><time>2026-05-02T07:07:41Z</time></trkpt><trkpt lat="45.022495420789724" lon="6.837864842160708"><ele>1214.0</ele><time>2026-05-02T07:07:42Z</time></trkpt><trkpt lat="45.02256112951395" lon="6.837770751891459"><ele>1214.0</ele><time>2026-05-02T07:07:43Z</time></trkpt><trkpt lat="45.02263186508387" lon="6.837665374840531"><ele>1214.0</ele><time>2026-05-02T07:07:44Z</time></trkpt><trkpt lat="45.02269458026297" lon="6.837539091517398"><ele>1214.0</ele><time>2026-05-02T07:07:45Z</time></trkpt><trkpt lat="45.022764866756305" lon="6.837399033763893"><ele>1214.0</ele><time>2026-05-02T07:07:46Z</time></trkpt><trkpt lat="45.02283341159241" lon="6.8372416516738665"><ele>1213.25</ele><time>2026-05-02T07:07:47Z</time></trkpt><trkpt lat="45.0229007257716" lon="6.837066286050163"><ele>1212.5</ele><time>2026-05-02T07:07:48Z</time></trkpt><trkpt lat="45.02296718874981" lon="6.836878857880665"><ele>1211.75</ele><time>2026-05-02T07:07:49Z</time></trkpt><trkpt lat="45.02303609554021" lon="6.836700886030481"><ele>1211.0</ele><time>2026-05-02T07:07:50Z</time></trkpt><trkpt lat="45.02310086301071" lon="6.836523257119977"><ele>1210.25</ele><time>2026-05-02T07:07:51Z</time></trkpt><trkpt lat="45.02316605384603" lon="6.836347413776655"><ele>1209.5</ele><time>2026-05-02T07:07:52Z</time></trkpt><trkpt lat="45.02323731210672" lon="6.836181677479816"><ele>1208.75</ele><time>2026-05-02T07:07:53Z</time></trkpt><trkpt lat="45.02331273418641" lon="6.836024547951813"><ele>1208.0</ele><time>2026-05-02T07:07:54Z</time></trkpt><trkpt lat="45.02339217059612" lon="6.835868626376295"><ele>1205.75</ele><time>2026-05-02T07:07:55Z</time></trkpt><trkpt lat="45.023471804551164" lon="6.835708061905507"><ele>1203.5</ele><time>2026-05-02T07:07:56Z</time></trkpt><trkpt lat="45.023551260318854" lon="6.8355469661520685"><ele>1201.25</ele><time>2026-05-02T07:07:57Z</time></trkpt><trkpt lat="45.02363780142585" lon="6.835388713885898"><ele>1199.0</ele><time>2026-05-02T07:07:58Z</time></trkpt><trkpt lat="45.023739346556866" lon="6.835251049201635"><ele>1196.6666666666667</ele><time>2026-05-02T07:07:59Z</time></trkpt><trkpt lat="45.023857127339774" lon="6.835126047781181"><ele>1194.3333333333333</ele><time>2026-05-02T07:08:00Z</time></trkpt><trkpt lat="45.02398922705965" lon="6.835023936330406"><ele>1192.0</ele><time>2026-05-02T07:08:01Z</time></trkpt><trkpt lat="45.02413007735171" lon="6.834941717670321"><ele>1190.0</ele><time>2026-05-02T07:08:02Z</time></trkpt><trkpt lat="45.02427554521083" lon="6.834878035957726"><ele>1188.0</ele><time>2026-05-02T07:08:03Z</time></trkpt><trkpt lat="45.02441873849418" lon="6.834819272355167"><ele>1186.0</ele><time>2026-05-02T07:08:04Z</time></trkpt><trkpt lat="45.02455522302628" lon="6.834764164368647"><ele>1184.0</ele><time>2026-05-02T07:08:05Z</time></trkpt><trkpt lat="45.02470034457156" lon="6.8347222129445955"><ele>1184.0</ele><time>2026-05-02T07:08:06Z</time></trkpt><trkpt lat="45.0248362370831" lon="6.8346707341709605"><ele>1184.0</ele><time>2026-05-02T07:08:07Z</time></trkpt><trkpt lat="45.024959685359406" lon="6.834619375859828"><ele>1184.0</ele><time>2026-05-02T07:08:08Z</time></trkpt><trkpt lat="45.02506357532085" lon="6.834585713412206"><ele>1184.0</ele><time>2026-05-02T07:08:09Z</time></trkpt><trkpt lat="45.02515277680581" lon="6.834594582356538"><ele>1182.2</ele><time>2026-05-02T07:08:10Z</time></trkpt><trkpt lat="45.02522477542532" lon="6.834676630891428"><ele>1180.4</ele><time>2026-05-02T07:08:11Z</time></trkpt><trkpt lat="45.02525263182306" lon="6.8348118557732676"><ele>1178.6</ele><time>2026-05-02T07:08:12Z</time></trkpt><trkpt lat="45.02520424332971" lon="6.834962735888395"><ele>1176.8</ele><time>2026-05-02T07:08:13Z</time></trkpt><trkpt lat="45.02518579917458" lon="6.835137407742342"><ele>1175.0</ele><time>2026-05-02T07:08:14Z</time></trkpt><trkpt lat="45.02516614416518" lon="6.835308511039133"><ele>1175.0</ele><time>2026-05-02T07:08:15Z</time></trkpt><trkpt lat="45.02519438405054" lon="6.835468335681291"><ele>1175.0</ele><time>2026-05-02T07:08:16Z</time></trkpt><trkpt lat="45.025274153722435" lon="6.835605011195536"><ele>1175.0</ele><time>2026-05-02T07:08:17Z</time></trkpt><trkpt lat="45.02538874065176" lon="6.835711309930213"><ele>1175.0</ele><time>2026-05-02T07:08:18Z</time></trkpt><trkpt lat="45.02554121403622" lon="6.835795386920835"><ele>1175.0</ele><time>2026-05-02T07:08:19Z</time></trkpt><trkpt lat="45.025663429856856" lon="6.835878055603986"><ele>1175.0</ele><time>2026-05-02T07:08:20Z</time></trkpt><trkpt lat="45.02576844473082" lon="6.835926374681244"><ele>1175.0</ele><time>2026-05-02T07:08:21Z</time></trkpt><trkpt lat="45.02586705797717" lon="6.835928160976015"><ele>1175.0</ele><time>2026-05-02T07:08:21.999Z</time></trkpt><trkpt lat="45.02597815593119" lon="6.835880662208661"><ele>1173.25</ele><time>2026-05-02T07:08:22.999Z</time></trkpt><trkpt lat="45.02608392882085" lon="6.835761255132222"><ele>1171.5</ele><time>2026-05-02T07:08:23.999Z</time></trkpt><trkpt lat="45.02619022742182" lon="6.835603612557827"><ele>1169.75</ele><time>2026-05-02T07:08:24.999Z</time></trkpt><trkpt lat="45.026308672647744" lon="6.835456594207835"><ele>1168.0</ele><time>2026-05-02T07:08:25.999Z</time></trkpt><trkpt lat="45.026436321115106" lon="6.835311817520984"><ele>1168.0</ele><time>2026-05-02T07:08:26.999Z</time></trkpt><trkpt lat="45.0265806117434" lon="6.835192520604519"><ele>1168.0</ele><time>2026-05-02T07:08:27.999Z</time></trkpt><trkpt lat="45.0267439271644" lon="6.83510218211284"><ele>1168.0</ele><time>2026-05-02T07:08:28.999Z</time></trkpt><trkpt lat="45.026922833762114" lon="6.835033571228105"><ele>1161.6666666666665</ele><time>2026-05-02T07:08:29.999Z</time></trkpt><trkpt lat="45.02710589324499" lon="6.834966231190998"><ele>1155.3333333333333</ele><time>2026-05-02T07:08:30.999Z</time></trkpt><trkpt lat="45.027288430054966" lon="6.834899207784902"><ele>1149.0</ele><time>2026-05-02T07:08:31.999Z</time></trkpt><trkpt lat="45.027463448271334" lon="6.834830481733204"><ele>1149.0</ele><time>2026-05-02T07:08:32.999Z</time></trkpt><trkpt lat="45.02762795299532" lon="6.834761023624843"><ele>1149.0</ele><time>2026-05-02T07:08:33.999Z</time></trkpt><trkpt lat="45.02778372886168" lon="6.834700383921136"><ele>1149.0</ele><time>2026-05-02T07:08:34.999Z</time></trkpt><trkpt lat="45.02792725474882" lon="6.834646781263151"><ele>1149.0</ele><time>2026-05-02T07:08:35.999Z</time></trkpt><trkpt lat="45.0280490736551" lon="6.834606725194458"><ele>1149.0</ele><time>2026-05-02T07:08:36.999Z</time></trkpt><trkpt lat="45.02814527142864" lon="6.83457751741018"><ele>1149.0</ele><time>2026-05-02T07:08:37.999Z</time></trkpt><trkpt lat="45.02820752480649" lon="6.834534242039135"><ele>1149.0</ele><time>2026-05-02T07:08:38.999Z</time></trkpt><trkpt lat="45.02823329410674" lon="6.834441212154182"><ele>1149.0</ele><time>2026-05-02T07:08:39.999Z</time></trkpt><trkpt lat="45.02821977191508" lon="6.834352251501764"><ele>1149.0</ele><time>2026-05-02T07:08:40.999Z</time></trkpt><trkpt lat="45.0281672458874" lon="6.834295474631173"><ele>1145.8</ele><time>2026-05-02T07:08:41.999Z</time></trkpt><trkpt lat="45.02807840015742" lon="6.834267555872563"><ele>1142.6000000000001</ele><time>2026-05-02T07:08:42.999Z</time></trkpt><trkpt lat="45.02798365168209" lon="6.834281870402618"><ele>1139.4</ele><time>2026-05-02T07:08:43.999Z</time></trkpt><trkpt lat="45.02788993725229" lon="6.834294625244686"><ele>1136.2</ele><time>2026-05-02T07:08:44.999Z</time></trkpt><trkpt lat="45.02779508477552" lon="6.834296510072224"><ele>1133.0</ele><time>2026-05-02T07:08:45.999Z</time></trkpt><trkpt lat="45.027704047725386" lon="6.834292844934336"><ele>1133.0</ele><time>2026-05-02T07:08:46.999Z</time></trkpt><trkpt lat="45.027620863347664" lon="6.834290083241414"><ele>1133.0</ele><time>2026-05-02T07:08:47.999Z</time></trkpt><trkpt lat="45.02754511234271" lon="6.834289454509232"><ele>1133.0</ele><time>2026-05-02T07:08:48.999Z</time></trkpt><trkpt lat="45.02747955061256" lon="6.834279591926783"><ele>1133.0</ele><time>2026-05-02T07:08:49.999Z</time></trkpt><trkpt lat="45.02739002422648" lon="6.834274045891836"><ele>1133.0</ele><time>2026-05-02T07:08:51.999Z</time></trkpt><trkpt lat="45.027408610227376" lon="6.834099551183994"><ele>1133.0</ele><time>2026-05-02T07:08:52.999Z</time></trkpt><trkpt lat="45.02746649968951" lon="6.834035725510688"><ele>1133.0</ele><time>2026-05-02T07:08:53.999Z</time></trkpt><trkpt lat="45.027558140758835" lon="6.834004187038275"><ele>1133.0</ele><time>2026-05-02T07:08:54.999Z</time></trkpt><trkpt lat="45.02765881268094" lon="6.833952789638034"><ele>1133.0</ele><time>2026-05-02T07:08:55.999Z</time></trkpt><trkpt lat="45.02775218235227" lon="6.833835525795714"><ele>1133.0</ele><time>2026-05-02T07:08:56.999Z</time></trkpt><trkpt lat="45.027825318920314" lon="6.833656457501542"><ele>1130.3333333333335</ele><time>2026-05-02T07:08:57.999Z</time></trkpt><trkpt lat="45.02787542435014" lon="6.833441822276558"><ele>1127.6666666666667</ele><time>2026-05-02T07:08:58.999Z</time></trkpt><trkpt lat="45.02791181510043" lon="6.833224228168866"><ele>1125.0</ele><time>2026-05-02T07:09:00.001Z</time></trkpt><trkpt lat="45.027952894679075" lon="6.8330095405493845"><ele>1125.0</ele><time>2026-05-02T07:09:01.001Z</time></trkpt><trkpt lat="45.02798289854047" lon="6.832816314474277"><ele>1125.0</ele><time>2026-05-02T07:09:02.001Z</time></trkpt><trkpt lat="45.02799995653038" lon="6.832643402266789"><ele>1125.0</ele><time>2026-05-02T07:09:03.001Z</time></trkpt><trkpt lat="45.028014234889724" lon="6.832492059322081"><ele>1125.0</ele><time>2026-05-02T07:09:04.001Z</time></trkpt><trkpt lat="45.02802652086845" lon="6.832355907248598"><ele>1123.6</ele><time>2026-05-02T07:09:05.001Z</time></trkpt><trkpt lat="45.02803622778369" lon="6.832243825129843"><ele>1122.2</ele><time>2026-05-02T07:09:06.001Z</time></trkpt><trkpt lat="45.028042863041044" lon="6.832094389582047"><ele>1120.8</ele><time>2026-05-02T07:09:08.001Z</time></trkpt><trkpt lat="45.028157144065894" lon="6.832012272829849"><ele>1119.4</ele><time>2026-05-02T07:09:11.001Z</time></trkpt><trkpt lat="45.02822310699062" lon="6.832036741554901"><ele>1118.0</ele><time>2026-05-02T07:09:12Z</time></trkpt><trkpt lat="45.02829506409481" lon="6.832060913043627"><ele>1117.142857142857</ele><time>2026-05-02T07:09:13Z</time></trkpt><trkpt lat="45.02836724003111" lon="6.832070592485083"><ele>1116.2857142857144</ele><time>2026-05-02T07:09:14Z</time></trkpt><trkpt lat="45.02844258461009" lon="6.832079638338455"><ele>1115.4285714285716</ele><time>2026-05-02T07:09:15Z</time></trkpt><trkpt lat="45.02852128097722" lon="6.832084166431021"><ele>1114.5714285714287</ele><time>2026-05-02T07:09:16Z</time></trkpt><trkpt lat="45.02859719407817" lon="6.83209185096483"><ele>1113.7142857142858</ele><time>2026-05-02T07:09:17Z</time></trkpt><trkpt lat="45.028661323855644" lon="6.832099791322106"><ele>1112.857142857143</ele><time>2026-05-02T07:09:18Z</time></trkpt><trkpt lat="45.02872871123545" lon="6.832116874980952"><ele>1112.0</ele><time>2026-05-02T07:09:19Z</time></trkpt><trkpt lat="45.02879805679542" lon="6.8321107999812485"><ele>1112.0</ele><time>2026-05-02T07:09:20Z</time></trkpt><trkpt lat="45.02886002227297" lon="6.832129206912969"><ele>1112.0</ele><time>2026-05-02T07:09:21Z</time></trkpt><trkpt lat="45.0289313512417" lon="6.83217655958404"><ele>1112.0</ele><time>2026-05-02T07:09:22Z</time></trkpt><trkpt lat="45.02899971028426" lon="6.832204055712559"><ele>1112.0</ele><time>2026-05-02T07:09:23Z</time></trkpt><trkpt lat="45.02906982358492" lon="6.832219856255732"><ele>1112.0</ele><time>2026-05-02T07:09:24Z</time></trkpt><trkpt lat="45.029122791008476" lon="6.832286181489515"><ele>1112.0</ele><time>2026-05-02T07:09:25Z</time></trkpt><trkpt lat="45.029186560579724" lon="6.832332388348939"><ele>1112.0</ele><time>2026-05-02T07:09:26Z</time></trkpt><trkpt lat="45.02925056662069" lon="6.832406717058327"><ele>1111.5</ele><time>2026-05-02T07:09:27Z</time></trkpt><trkpt lat="45.029298729976745" lon="6.832480388307872"><ele>1111.0</ele><time>2026-05-02T07:09:28Z</time></trkpt><trkpt lat="45.029344974469325" lon="6.832558435891139"><ele>1110.5</ele><time>2026-05-02T07:09:29Z</time></trkpt><trkpt lat="45.02938609991291" lon="6.8326426976041486"><ele>1110.0</ele><time>2026-05-02T07:09:30Z</time></trkpt><trkpt lat="45.02943578674049" lon="6.832733146674579"><ele>1109.5</ele><time>2026-05-02T07:09:31Z</time></trkpt><trkpt lat="45.02948073658277" lon="6.832832590422649"><ele>1109.0</ele><time>2026-05-02T07:09:32Z</time></trkpt><trkpt lat="45.02951859947771" lon="6.832948867478684"><ele>1109.0</ele><time>2026-05-02T07:09:33Z</time></trkpt><trkpt lat="45.02956916428473" lon="6.833031799447826"><ele>1109.0</ele><time>2026-05-02T07:09:34Z</time></trkpt><trkpt lat="45.0296190494833" lon="6.833112430099129"><ele>1109.0</ele><time>2026-05-02T07:09:35Z</time></trkpt><trkpt lat="45.02966948214442" lon="6.833193084583091"><ele>1109.0</ele><time>2026-05-02T07:09:36Z</time></trkpt><trkpt lat="45.029728209737904" lon="6.833267466627587"><ele>1109.0</ele><time>2026-05-02T07:09:37Z</time></trkpt><trkpt lat="45.029791833905875" lon="6.833321696169251"><ele>1109.0</ele><time>2026-05-02T07:09:38Z</time></trkpt><trkpt lat="45.02985753140924" lon="6.8333741940900445"><ele>1108.9999999999998</ele><time>2026-05-02T07:09:39Z</time></trkpt><trkpt lat="45.029933907613795" lon="6.833401819418875"><ele>1109.0</ele><time>2026-05-02T07:09:40Z</time></trkpt><trkpt lat="45.03000718833968" lon="6.833412450424829"><ele>1109.0</ele><time>2026-05-02T07:09:41Z</time></trkpt><trkpt lat="45.03008174524279" lon="6.8333931996028285"><ele>1109.0</ele><time>2026-05-02T07:09:42Z</time></trkpt><trkpt lat="45.03013932617855" lon="6.833341177054589"><ele>1109.0</ele><time>2026-05-02T07:09:43Z</time></trkpt><trkpt lat="45.03017650454446" lon="6.833256849434313"><ele>1108.9999999999998</ele><time>2026-05-02T07:09:44Z</time></trkpt><trkpt lat="45.03019878235833" lon="6.833146570489916"><ele>1109.0</ele><time>2026-05-02T07:09:45Z</time></trkpt><trkpt lat="45.03021508568736" lon="6.833016578899914"><ele>1107.0</ele><time>2026-05-02T07:09:46Z</time></trkpt><trkpt lat="45.03025587268924" lon="6.832864468242519"><ele>1105.0</ele><time>2026-05-02T07:09:47Z</time></trkpt><trkpt lat="45.030301107864375" lon="6.832712477401832"><ele>1103.0</ele><time>2026-05-02T07:09:48Z</time></trkpt><trkpt lat="45.03033154355535" lon="6.832547992673716"><ele>1101.0</ele><time>2026-05-02T07:09:49Z</time></trkpt><trkpt lat="45.03037974901738" lon="6.832384811464052"><ele>1099.75</ele><time>2026-05-02T07:09:50Z</time></trkpt><trkpt lat="45.03042062983698" lon="6.832220343036147"><ele>1098.5</ele><time>2026-05-02T07:09:51Z</time></trkpt><trkpt lat="45.03046313435221" lon="6.832058258578562"><ele>1097.25</ele><time>2026-05-02T07:09:52Z</time></trkpt><trkpt lat="45.03050323083098" lon="6.831907579492059"><ele>1096.0</ele><time>2026-05-02T07:09:53Z</time></trkpt><trkpt lat="45.030537043671586" lon="6.831773353036574"><ele>1095.0</ele><time>2026-05-02T07:09:54Z</time></trkpt><trkpt lat="45.03056720967871" lon="6.831652368370818"><ele>1094.0</ele><time>2026-05-02T07:09:55Z</time></trkpt><trkpt lat="45.030592060042736" lon="6.831551246888573"><ele>1093.0</ele><time>2026-05-02T07:09:56Z</time></trkpt><trkpt lat="45.03062361354692" lon="6.831406447076711"><ele>1092.0</ele><time>2026-05-02T07:09:58Z</time></trkpt><trkpt lat="45.03079668139688" lon="6.831455233858543"><ele>1090.6666666666667</ele><time>2026-05-02T07:10:01Z</time></trkpt><trkpt lat="45.03085373167753" lon="6.831528029791561"><ele>1089.3333333333333</ele><time>2026-05-02T07:10:02Z</time></trkpt><trkpt lat="45.03091303106748" lon="6.831592916704527"><ele>1088.0</ele><time>2026-05-02T07:10:03Z</time></trkpt><trkpt lat="45.03098071564548" lon="6.831660545470688"><ele>1086.6666666666665</ele><time>2026-05-02T07:10:04Z</time></trkpt><trkpt lat="45.03105182742695" lon="6.831731774949186"><ele>1085.3333333333333</ele><time>2026-05-02T07:10:05Z</time></trkpt><trkpt lat="45.03112296212569" lon="6.8318029660593"><ele>1084.0</ele><time>2026-05-02T07:10:06Z</time></trkpt><trkpt lat="45.03118557619664" lon="6.831871831561401"><ele>1083.857142857143</ele><time>2026-05-02T07:10:07Z</time></trkpt><trkpt lat="45.03124409132701" lon="6.831937060358337"><ele>1083.7142857142858</ele><time>2026-05-02T07:10:08Z</time></trkpt><trkpt lat="45.031302509120195" lon="6.8319881803336"><ele>1083.5714285714287</ele><time>2026-05-02T07:10:09Z</time></trkpt><trkpt lat="45.0313571082881" lon="6.8320377680822135"><ele>1083.4285714285716</ele><time>2026-05-02T07:10:10Z</time></trkpt><trkpt lat="45.03141181241841" lon="6.83208866582948"><ele>1083.2857142857144</ele><time>2026-05-02T07:10:11Z</time></trkpt><trkpt lat="45.03146898815846" lon="6.8321508727517"><ele>1083.142857142857</ele><time>2026-05-02T07:10:12Z</time></trkpt><trkpt lat="45.031529322515766" lon="6.832217959287693"><ele>1083.0</ele><time>2026-05-02T07:10:13Z</time></trkpt><trkpt lat="45.03159594389091" lon="6.832287527260166"><ele>1083.0</ele><time>2026-05-02T07:10:14Z</time></trkpt><trkpt lat="45.03165437766898" lon="6.832355010656856"><ele>1083.0</ele><time>2026-05-02T07:10:15Z</time></trkpt><trkpt lat="45.031758790020774" lon="6.832449787786569"><ele>1083.0</ele><time>2026-05-02T07:10:17Z</time></trkpt><trkpt lat="45.03181712919976" lon="6.832504801061981"><ele>1083.0</ele><time>2026-05-02T07:10:18Z</time></trkpt><trkpt lat="45.031879053324545" lon="6.832569808116348"><ele>1083.0</ele><time>2026-05-02T07:10:19Z</time></trkpt><trkpt lat="45.03197215399383" lon="6.832665471728622"><ele>1083.0</ele><time>2026-05-02T07:10:21Z</time></trkpt><trkpt lat="45.03202261177682" lon="6.832731332326754"><ele>1083.0</ele><time>2026-05-02T07:10:22Z</time></trkpt><trkpt lat="45.03207264082743" lon="6.832792376545858"><ele>1083.0</ele><time>2026-05-02T07:10:23Z</time></trkpt><trkpt lat="45.03212698305919" lon="6.8328591711454"><ele>1083.0</ele><time>2026-05-02T07:10:24Z</time></trkpt><trkpt lat="45.03218282309615" lon="6.832913831594582"><ele>1083.0</ele><time>2026-05-02T07:10:25Z</time></trkpt><trkpt lat="45.03224060071226" lon="6.832965341926307"><ele>1083.0</ele><time>2026-05-02T07:10:26Z</time></trkpt><trkpt lat="45.032308984194096" lon="6.832992015374794"><ele>1083.0</ele><time>2026-05-02T07:10:27Z</time></trkpt><trkpt lat="45.032375838425175" lon="6.833018119731164"><ele>1083.0</ele><time>2026-05-02T07:10:28Z</time></trkpt><trkpt lat="45.032455986869785" lon="6.8330447573194135"><ele>1083.0</ele><time>2026-05-02T07:10:29Z</time></trkpt><trkpt lat="45.03252973565693" lon="6.833073887816082"><ele>1083.0</ele><time>2026-05-02T07:10:29.999Z</time></trkpt><trkpt lat="45.032600186302815" lon="6.833113248728125"><ele>1083.0</ele><time>2026-05-02T07:10:30.999Z</time></trkpt><trkpt lat="45.03267236953725" lon="6.833144841705609"><ele>1083.0</ele><time>2026-05-02T07:10:31.999Z</time></trkpt><trkpt lat="45.03273859658551" lon="6.833177811971324"><ele>1083.0</ele><time>2026-05-02T07:10:32.999Z</time></trkpt><trkpt lat="45.03284913336345" lon="6.833224487931114"><ele>1082.6</ele><time>2026-05-02T07:10:34.999Z</time></trkpt><trkpt lat="45.03290986383865" lon="6.833262952686318"><ele>1082.1999999999998</ele><time>2026-05-02T07:10:35.999Z</time></trkpt><trkpt lat="45.033022364195034" lon="6.833340369420548"><ele>1081.8</ele><time>2026-05-02T07:10:37.999Z</time></trkpt><trkpt lat="45.03312680815327" lon="6.833432699707683"><ele>1081.3999999999999</ele><time>2026-05-02T07:10:39.999Z</time></trkpt><trkpt lat="45.033221354455" lon="6.833539730076475"><ele>1081.0</ele><time>2026-05-02T07:10:41.999Z</time></trkpt><trkpt lat="45.033298511724134" lon="6.833639181471979"><ele>1080.6666666666665</ele><time>2026-05-02T07:10:43.999Z</time></trkpt><trkpt lat="45.033377348202386" lon="6.833752883580494"><ele>1080.3333333333333</ele><time>2026-05-02T07:10:45.999Z</time></trkpt><trkpt lat="45.033428351011615" lon="6.833820430960456"><ele>1080.0</ele><time>2026-05-02T07:10:46.999Z</time></trkpt><trkpt lat="45.03348283869327" lon="6.833891820341016"><ele>1079.6666666666667</ele><time>2026-05-02T07:10:47.999Z</time></trkpt><trkpt lat="45.03354249927757" lon="6.833973042521319"><ele>1079.3333333333335</ele><time>2026-05-02T07:10:48.999Z</time></trkpt><trkpt lat="45.03360466179527" lon="6.834056231284609"><ele>1079.0</ele><time>2026-05-02T07:10:49.999Z</time></trkpt><trkpt lat="45.033665827840785" lon="6.834132854011912"><ele>1079.0</ele><time>2026-05-02T07:10:50.999Z</time></trkpt><trkpt lat="45.033717749238875" lon="6.834213103589598"><ele>1079.0</ele><time>2026-05-02T07:10:51.999Z</time></trkpt><trkpt lat="45.03377070867709" lon="6.834281301507484"><ele>1079.0</ele><time>2026-05-02T07:10:52.999Z</time></trkpt><trkpt lat="45.03381253186098" lon="6.834358785889408"><ele>1079.0</ele><time>2026-05-02T07:10:53.999Z</time></trkpt><trkpt lat="45.03386997735039" lon="6.834439526160843"><ele>1079.0</ele><time>2026-05-02T07:10:54.999Z</time></trkpt><trkpt lat="45.03392431344687" lon="6.8345208690288475"><ele>1079.0</ele><time>2026-05-02T07:10:55.999Z</time></trkpt><trkpt lat="45.03397409182751" lon="6.834590852410968"><ele>1079.0</ele><time>2026-05-02T07:10:56.999Z</time></trkpt><trkpt lat="45.034025274559696" lon="6.834663652408387"><ele>1079.0</ele><time>2026-05-02T07:10:57.999Z</time></trkpt><trkpt lat="45.03407162565225" lon="6.8347288826454315"><ele>1079.0</ele><time>2026-05-02T07:10:58.999Z</time></trkpt><trkpt lat="45.03411720684386" lon="6.834796069826673"><ele>1079.0</ele><time>2026-05-02T07:10:59.999Z</time></trkpt><trkpt lat="45.03416462406148" lon="6.8348570356831235"><ele>1079.0</ele><time>2026-05-02T07:11:00.999Z</time></trkpt><trkpt lat="45.03425754168348" lon="6.8349905245641205"><ele>1079.0</ele><time>2026-05-02T07:11:02.999Z</time></trkpt><trkpt lat="45.03432409760199" lon="6.835080218978734"><ele>1079.0</ele><time>2026-05-02T07:11:03.999Z</time></trkpt><trkpt lat="45.034385726243414" lon="6.83517633339173"><ele>1079.0</ele><time>2026-05-02T07:11:04.999Z</time></trkpt><trkpt lat="45.03444405041046" lon="6.8352708202854435"><ele>1079.0</ele><time>2026-05-02T07:11:06.001Z</time></trkpt><trkpt lat="45.034501665482594" lon="6.835359772531281"><ele>1079.0</ele><time>2026-05-02T07:11:07.001Z</time></trkpt><trkpt lat="45.03455654917594" lon="6.835443098619594"><ele>1079.0</ele><time>2026-05-02T07:11:08.001Z</time></trkpt><trkpt lat="45.034610933831146" lon="6.835517073851871"><ele>1079.0</ele><time>2026-05-02T07:11:09.001Z</time></trkpt><trkpt lat="45.03466714994149" lon="6.835591020034173"><ele>1079.0</ele><time>2026-05-02T07:11:10.001Z</time></trkpt><trkpt lat="45.03472405353722" lon="6.835667578678569"><ele>1079.0</ele><time>2026-05-02T07:11:11.001Z</time></trkpt><trkpt lat="45.03477905661579" lon="6.835747732476759"><ele>1079.0</ele><time>2026-05-02T07:11:12.001Z</time></trkpt><trkpt lat="45.03483425338486" lon="6.835830437652493"><ele>1079.0</ele><time>2026-05-02T07:11:13.001Z</time></trkpt><trkpt lat="45.03488874349921" lon="6.835909526346938"><ele>1079.0</ele><time>2026-05-02T07:11:14.001Z</time></trkpt><trkpt lat="45.03494375544631" lon="6.835988069216082"><ele>1079.0</ele><time>2026-05-02T07:11:15.001Z</time></trkpt><trkpt lat="45.03499725728398" lon="6.836069721115183"><ele>1079.0</ele><time>2026-05-02T07:11:16.001Z</time></trkpt><trkpt lat="45.035056085139985" lon="6.836158094227182"><ele>1078.25</ele><time>2026-05-02T07:11:17.001Z</time></trkpt><trkpt lat="45.0351200639523" lon="6.836257102105487"><ele>1077.5</ele><time>2026-05-02T07:11:18.001Z</time></trkpt><trkpt lat="45.03519262857211" lon="6.836374391060131"><ele>1076.75</ele><time>2026-05-02T07:11:19.001Z</time></trkpt><trkpt lat="45.03527533166484" lon="6.83649535659332"><ele>1076.0</ele><time>2026-05-02T07:11:20Z</time></trkpt><trkpt lat="45.03536533232334" lon="6.836621205667563"><ele>1076.0</ele><time>2026-05-02T07:11:21Z</time></trkpt><trkpt lat="45.0354609358471" lon="6.836743252019631"><ele>1076.0</ele><time>2026-05-02T07:11:22Z</time></trkpt><trkpt lat="45.03555678105065" lon="6.836858006932161"><ele>1076.0</ele><time>2026-05-02T07:11:23Z</time></trkpt><trkpt lat="45.03565492967667" lon="6.836974366710883"><ele>1076.0</ele><time>2026-05-02T07:11:24Z</time></trkpt><trkpt lat="45.03576647647661" lon="6.837088270990507"><ele>1077.0</ele><time>2026-05-02T07:11:25Z</time></trkpt><trkpt lat="45.03588474754205" lon="6.837201637043187"><ele>1078.0</ele><time>2026-05-02T07:11:26Z</time></trkpt><trkpt lat="45.03600628350337" lon="6.8373239806117665"><ele>1079.0</ele><time>2026-05-02T07:11:27Z</time></trkpt><trkpt lat="45.03614346457708" lon="6.83746427714385"><ele>1079.0</ele><time>2026-05-02T07:11:28Z</time></trkpt><trkpt lat="45.03627453445327" lon="6.837607110907209"><ele>1079.0</ele><time>2026-05-02T07:11:29Z</time></trkpt><trkpt lat="45.03640553698751" lon="6.8377294237611554"><ele>1079.0</ele><time>2026-05-02T07:11:30Z</time></trkpt><trkpt lat="45.03654039801532" lon="6.837855859678567"><ele>1079.0</ele><time>2026-05-02T07:11:31Z</time></trkpt><trkpt lat="45.0366735801357" lon="6.8379889655626"><ele>1079.0</ele><time>2026-05-02T07:11:32Z</time></trkpt><trkpt lat="45.036805295664756" lon="6.838124131310636"><ele>1079.0</ele><time>2026-05-02T07:11:33Z</time></trkpt><trkpt lat="45.036940724740376" lon="6.838259268464731"><ele>1079.0</ele><time>2026-05-02T07:11:34Z</time></trkpt><trkpt lat="45.037075422008385" lon="6.83839165045296"><ele>1079.0</ele><time>2026-05-02T07:11:35Z</time></trkpt><trkpt lat="45.03721874654751" lon="6.83853869622482"><ele>1079.0</ele><time>2026-05-02T07:11:36Z</time></trkpt><trkpt lat="45.03736140855159" lon="6.838682826927834"><ele>1078.0</ele><time>2026-05-02T07:11:37Z</time></trkpt><trkpt lat="45.03750809507398" lon="6.838819477256762"><ele>1077.0</ele><time>2026-05-02T07:11:38Z</time></trkpt><trkpt lat="45.03765497750642" lon="6.8389572530688945"><ele>1076.0</ele><time>2026-05-02T07:11:39Z</time></trkpt><trkpt lat="45.0378023536958" lon="6.839096449387394"><ele>1076.0</ele><time>2026-05-02T07:11:40Z</time></trkpt><trkpt lat="45.03794947643913" lon="6.839236891450024"><ele>1076.0</ele><time>2026-05-02T07:11:41Z</time></trkpt><trkpt lat="45.03809417239002" lon="6.839379667600384"><ele>1076.0</ele><time>2026-05-02T07:11:42Z</time></trkpt><trkpt lat="45.03823537256121" lon="6.839521710210428"><ele>1074.3333333333335</ele><time>2026-05-02T07:11:43Z</time></trkpt><trkpt lat="45.03837553790531" lon="6.839666191905111"><ele>1072.6666666666667</ele><time>2026-05-02T07:11:44Z</time></trkpt><trkpt lat="45.03851782580365" lon="6.839814465734845"><ele>1071.0</ele><time>2026-05-02T07:11:45Z</time></trkpt><trkpt lat="45.03866047043381" lon="6.839959944352978"><ele>1071.0</ele><time>2026-05-02T07:11:46Z</time></trkpt><trkpt lat="45.038807256538135" lon="6.840109864082079"><ele>1071.0</ele><time>2026-05-02T07:11:47Z</time></trkpt><trkpt lat="45.0389576553358" lon="6.840259450615648"><ele>1071.0</ele><time>2026-05-02T07:11:48Z</time></trkpt><trkpt lat="45.039107587839645" lon="6.84041046816251"><ele>1068.3333333333333</ele><time>2026-05-02T07:11:49Z</time></trkpt><trkpt lat="45.039254531026394" lon="6.840557747272547"><ele>1065.6666666666665</ele><time>2026-05-02T07:11:50Z</time></trkpt><trkpt lat="45.03939169175169" lon="6.840698407686185"><ele>1063.0</ele><time>2026-05-02T07:11:51Z</time></trkpt><trkpt lat="45.03953186174874" lon="6.840838479659299"><ele>1063.6666666666665</ele><time>2026-05-02T07:11:52Z</time></trkpt><trkpt lat="45.03967353562739" lon="6.8409906268583045"><ele>1064.3333333333333</ele><time>2026-05-02T07:11:53Z</time></trkpt><trkpt lat="45.03981758639803" lon="6.8411480878356565"><ele>1065.0</ele><time>2026-05-02T07:11:54Z</time></trkpt><trkpt lat="45.03995021103929" lon="6.841296228113239"><ele>1064.0</ele><time>2026-05-02T07:11:55Z</time></trkpt><trkpt lat="45.04007845192846" lon="6.841437118090581"><ele>1063.0</ele><time>2026-05-02T07:11:56Z</time></trkpt><trkpt lat="45.040201211704776" lon="6.84157474840487"><ele>1062.0</ele><time>2026-05-02T07:11:57Z</time></trkpt><trkpt lat="45.04032289256065" lon="6.841710120619128"><ele>1063.0</ele><time>2026-05-02T07:11:58Z</time></trkpt><trkpt lat="45.040446437921204" lon="6.841850066573049"><ele>1064.0</ele><time>2026-05-02T07:11:59Z</time></trkpt><trkpt lat="45.040567986780815" lon="6.841995544974144"><ele>1065.0</ele><time>2026-05-02T07:12:00Z</time></trkpt><trkpt lat="45.040697594066394" lon="6.8421464886081225"><ele>1063.3333333333333</ele><time>2026-05-02T07:12:01Z</time></trkpt><trkpt lat="45.04082953419269" lon="6.842295647032688"><ele>1061.6666666666665</ele><time>2026-05-02T07:12:02Z</time></trkpt><trkpt lat="45.04095514036085" lon="6.842442460000849"><ele>1060.0</ele><time>2026-05-02T07:12:03Z</time></trkpt><trkpt lat="45.04107414730311" lon="6.842581707000223"><ele>1059.5</ele><time>2026-05-02T07:12:04Z</time></trkpt><trkpt lat="45.041181580907065" lon="6.842712560881401"><ele>1059.0</ele><time>2026-05-02T07:12:05Z</time></trkpt><trkpt lat="45.041277853115716" lon="6.842827876841142"><ele>1058.5</ele><time>2026-05-02T07:12:06Z</time></trkpt><trkpt lat="45.04135815029805" lon="6.842927809507096"><ele>1058.0</ele><time>2026-05-02T07:12:07Z</time></trkpt><trkpt lat="45.04142200032095" lon="6.843019624732833"><ele>1058.0</ele><time>2026-05-02T07:12:08Z</time></trkpt><trkpt lat="45.04146386956471" lon="6.843113634955224"><ele>1058.0</ele><time>2026-05-02T07:12:09Z</time></trkpt><trkpt lat="45.041492793858794" lon="6.843218398332566"><ele>1058.0</ele><time>2026-05-02T07:12:10Z</time></trkpt><trkpt lat="45.041523905374" lon="6.843327821983944"><ele>1058.0</ele><time>2026-05-02T07:12:11Z</time></trkpt><trkpt lat="45.04157778932272" lon="6.8434153962079485"><ele>1058.0</ele><time>2026-05-02T07:12:12Z</time></trkpt><trkpt lat="45.04165555204315" lon="6.843458139252593"><ele>1058.0</ele><time>2026-05-02T07:12:13Z</time></trkpt><trkpt lat="45.0417282450277" lon="6.843481620197796"><ele>1057.7142857142858</ele><time>2026-05-02T07:12:14Z</time></trkpt><trkpt lat="45.041795039253024" lon="6.843504650177979"><ele>1057.4285714285713</ele><time>2026-05-02T07:12:15Z</time></trkpt><trkpt lat="45.041858818828665" lon="6.84354917512797"><ele>1057.142857142857</ele><time>2026-05-02T07:12:16Z</time></trkpt><trkpt lat="45.04191451003122" lon="6.8436045376515455"><ele>1056.857142857143</ele><time>2026-05-02T07:12:17Z</time></trkpt><trkpt lat="45.04196568091891" lon="6.843663371389723"><ele>1056.5714285714287</ele><time>2026-05-02T07:12:18Z</time></trkpt><trkpt lat="45.04202378936532" lon="6.843730170294545"><ele>1056.2857142857142</ele><time>2026-05-02T07:12:19Z</time></trkpt><trkpt lat="45.04208914971964" lon="6.8438060005413055"><ele>1056.0</ele><time>2026-05-02T07:12:20Z</time></trkpt><trkpt lat="45.04216234438715" lon="6.843884991521303"><ele>1056.0</ele><time>2026-05-02T07:12:21Z</time></trkpt><trkpt lat="45.04224260192554" lon="6.843976008590225"><ele>1056.0</ele><time>2026-05-02T07:12:22Z</time></trkpt><trkpt lat="45.04233385106987" lon="6.8440787049001"><ele>1056.0</ele><time>2026-05-02T07:12:23Z</time></trkpt><trkpt lat="45.0424320333498" lon="6.844186173523744"><ele>1056.0</ele><time>2026-05-02T07:12:24Z</time></trkpt><trkpt lat="45.04253111307194" lon="6.844299059224357"><ele>1055.3333333333333</ele><time>2026-05-02T07:12:25Z</time></trkpt><trkpt lat="45.04265454213229" lon="6.844430528224693"><ele>1054.6666666666665</ele><time>2026-05-02T07:12:25.999Z</time></trkpt><trkpt lat="45.042777635583775" lon="6.844561523627649"><ele>1054.0</ele><time>2026-05-02T07:12:26.999Z</time></trkpt><trkpt lat="45.04289135720494" lon="6.8446953494461855"><ele>1054.0</ele><time>2026-05-02T07:12:27.999Z</time></trkpt><trkpt lat="45.04299113469381" lon="6.844835566818028"><ele>1054.0</ele><time>2026-05-02T07:12:28.999Z</time></trkpt><trkpt lat="45.043096877550646" lon="6.844963419902914"><ele>1054.0</ele><time>2026-05-02T07:12:29.999Z</time></trkpt><trkpt lat="45.043194698697846" lon="6.845078518915104"><ele>1054.0</ele><time>2026-05-02T07:12:30.999Z</time></trkpt><trkpt lat="45.0432900621157" lon="6.845190019996286"><ele>1053.75</ele><time>2026-05-02T07:12:31.999Z</time></trkpt><trkpt lat="45.043378572478275" lon="6.845298276070598"><ele>1053.5</ele><time>2026-05-02T07:12:32.999Z</time></trkpt><trkpt lat="45.043469995046856" lon="6.845404341523479"><ele>1053.25</ele><time>2026-05-02T07:12:33.999Z</time></trkpt><trkpt lat="45.0435580161451" lon="6.845511746293958"><ele>1053.0</ele><time>2026-05-02T07:12:34.999Z</time></trkpt><trkpt lat="45.04365531502178" lon="6.845626685032401"><ele>1053.0</ele><time>2026-05-02T07:12:35.999Z</time></trkpt><trkpt lat="45.04376358023282" lon="6.845750169102629"><ele>1053.0</ele><time>2026-05-02T07:12:36.999Z</time></trkpt><trkpt lat="45.04386468301424" lon="6.845862350858161"><ele>1053.0</ele><time>2026-05-02T07:12:37.999Z</time></trkpt><trkpt lat="45.04395650293002" lon="6.845974184391751"><ele>1053.0</ele><time>2026-05-02T07:12:38.999Z</time></trkpt><trkpt lat="45.04405070357073" lon="6.84609004502954"><ele>1052.5</ele><time>2026-05-02T07:12:39.999Z</time></trkpt><trkpt lat="45.04414086969542" lon="6.846198745056137"><ele>1052.0</ele><time>2026-05-02T07:12:40.999Z</time></trkpt><trkpt lat="45.04423038210539" lon="6.846305536435634"><ele>1051.5</ele><time>2026-05-02T07:12:41.999Z</time></trkpt><trkpt lat="45.04432476503311" lon="6.8464142684909595"><ele>1051.0</ele><time>2026-05-02T07:12:42.999Z</time></trkpt><trkpt lat="45.04440851704144" lon="6.846540626440302"><ele>1051.0</ele><time>2026-05-02T07:12:43.999Z</time></trkpt><trkpt lat="45.04450326756325" lon="6.846647547845203"><ele>1051.0</ele><time>2026-05-02T07:12:44.999Z</time></trkpt><trkpt lat="45.04459968818302" lon="6.846760791625097"><ele>1051.0</ele><time>2026-05-02T07:12:45.999Z</time></trkpt><trkpt lat="45.04469104486138" lon="6.846876524295271"><ele>1051.0</ele><time>2026-05-02T07:12:46.999Z</time></trkpt><trkpt lat="45.04478624389547" lon="6.8469897565873445"><ele>1050.75</ele><time>2026-05-02T07:12:47.999Z</time></trkpt><trkpt lat="45.04487874810287" lon="6.847103384071201"><ele>1050.5</ele><time>2026-05-02T07:12:48.999Z</time></trkpt><trkpt lat="45.04497245024536" lon="6.847214416878321"><ele>1050.25</ele><time>2026-05-02T07:12:49.999Z</time></trkpt><trkpt lat="45.045068114956074" lon="6.8473343778182825"><ele>1050.0</ele><time>2026-05-02T07:12:50.999Z</time></trkpt><trkpt lat="45.045164773880984" lon="6.847455667087534"><ele>1049.75</ele><time>2026-05-02T07:12:51.999Z</time></trkpt><trkpt lat="45.04526749822212" lon="6.847584268503025"><ele>1049.5</ele><time>2026-05-02T07:12:52.999Z</time></trkpt><trkpt lat="45.04537483928752" lon="6.847717255329167"><ele>1049.25</ele><time>2026-05-02T07:12:53.999Z</time></trkpt><trkpt lat="45.0454778975294" lon="6.847846133872345"><ele>1049.0</ele><time>2026-05-02T07:12:54.999Z</time></trkpt><trkpt lat="45.045592341527566" lon="6.847973195585687"><ele>1049.0</ele><time>2026-05-02T07:12:55.999Z</time></trkpt><trkpt lat="45.04571400174288" lon="6.848109069532795"><ele>1049.0</ele><time>2026-05-02T07:12:56.999Z</time></trkpt><trkpt lat="45.04583491921833" lon="6.848250427694876"><ele>1049.0</ele><time>2026-05-02T07:12:57.999Z</time></trkpt><trkpt lat="45.04595529707015" lon="6.84839487019134"><ele>1049.3333333333335</ele><time>2026-05-02T07:12:58.999Z</time></trkpt><trkpt lat="45.04608214159088" lon="6.848544211727107"><ele>1049.6666666666667</ele><time>2026-05-02T07:12:59.999Z</time></trkpt><trkpt lat="45.04621619341799" lon="6.848702221245351"><ele>1050.0</ele><time>2026-05-02T07:13:00.999Z</time></trkpt><trkpt lat="45.04635661197419" lon="6.8488693544587225"><ele>1050.0</ele><time>2026-05-02T07:13:01.999Z</time></trkpt><trkpt lat="45.046501313847415" lon="6.849046601817891"><ele>1050.0</ele><time>2026-05-02T07:13:02.999Z</time></trkpt><trkpt lat="45.04664649251578" lon="6.849215017215317"><ele>1050.0</ele><time>2026-05-02T07:13:03.999Z</time></trkpt><trkpt lat="45.046790833892985" lon="6.849385242840007"><ele>1049.3333333333333</ele><time>2026-05-02T07:13:04.999Z</time></trkpt><trkpt lat="45.046927785526734" lon="6.849554597714146"><ele>1048.6666666666665</ele><time>2026-05-02T07:13:05.999Z</time></trkpt><trkpt lat="45.047065578497374" lon="6.84971953568136"><ele>1048.0</ele><time>2026-05-02T07:13:06.999Z</time></trkpt><trkpt lat="45.04721469434297" lon="6.8498963603063086"><ele>1048.0</ele><time>2026-05-02T07:13:07.999Z</time></trkpt><trkpt lat="45.04736178382306" lon="6.850074803476015"><ele>1048.0</ele><time>2026-05-02T07:13:08.999Z</time></trkpt><trkpt lat="45.047510810447164" lon="6.850256414248128"><ele>1048.0</ele><time>2026-05-02T07:13:09.999Z</time></trkpt><trkpt lat="45.04766294564951" lon="6.850442553848135"><ele>1047.6666666666665</ele><time>2026-05-02T07:13:10.999Z</time></trkpt><trkpt lat="45.0478177693151" lon="6.850629580382097"><ele>1047.3333333333333</ele><time>2026-05-02T07:13:12.001Z</time></trkpt><trkpt lat="45.047969571113995" lon="6.850816919866392"><ele>1047.0</ele><time>2026-05-02T07:13:13.001Z</time></trkpt><trkpt lat="45.048123653116434" lon="6.85099687974176"><ele>1047.0</ele><time>2026-05-02T07:13:14Z</time></trkpt><trkpt lat="45.0482731891601" lon="6.85117803241748"><ele>1047.0</ele><time>2026-05-02T07:13:15.001Z</time></trkpt><trkpt lat="45.04842626571262" lon="6.8513502816132865"><ele>1047.0</ele><time>2026-05-02T07:13:16.001Z</time></trkpt><trkpt lat="45.04857575152569" lon="6.851519176434144"><ele>1047.0</ele><time>2026-05-02T07:13:17Z</time></trkpt><trkpt lat="45.048733685114485" lon="6.851685395097263"><ele>1047.0</ele><time>2026-05-02T07:13:18Z</time></trkpt><trkpt lat="45.048896214645374" lon="6.851846489398245"><ele>1047.0</ele><time>2026-05-02T07:13:19Z</time></trkpt><trkpt lat="45.04906901912106" lon="6.852011760299386"><ele>1046.0</ele><time>2026-05-02T07:13:20Z</time></trkpt><trkpt lat="45.04924226356725" lon="6.852185933222432"><ele>1045.0</ele><time>2026-05-02T07:13:21Z</time></trkpt><trkpt lat="45.04941230861211" lon="6.852352486508598"><ele>1044.0</ele><time>2026-05-02T07:13:22Z</time></trkpt><trkpt lat="45.0495754883059" lon="6.852511769108459"><ele>1044.0</ele><time>2026-05-02T07:13:23Z</time></trkpt><trkpt lat="45.049734999150864" lon="6.852669664660106"><ele>1044.0</ele><time>2026-05-02T07:13:24Z</time></trkpt><trkpt lat="45.049891441153726" lon="6.852821235274421"><ele>1044.0</ele><time>2026-05-02T07:13:25Z</time></trkpt><trkpt lat="45.050053223111256" lon="6.852966644125037"><ele>1044.0</ele><time>2026-05-02T07:13:26Z</time></trkpt><trkpt lat="45.05020345642914" lon="6.853112081478348"><ele>1044.0</ele><time>2026-05-02T07:13:27Z</time></trkpt><trkpt lat="45.050348033521466" lon="6.85324198925906"><ele>1044.0</ele><time>2026-05-02T07:13:28Z</time></trkpt><trkpt lat="45.05047829748525" lon="6.8533587814132355"><ele>1044.3333333333333</ele><time>2026-05-02T07:13:29Z</time></trkpt><trkpt lat="45.05061136181962" lon="6.853482690773255"><ele>1044.6666666666665</ele><time>2026-05-02T07:13:30Z</time></trkpt><trkpt lat="45.05074980122096" lon="6.853618511198306"><ele>1045.0</ele><time>2026-05-02T07:13:31Z</time></trkpt><trkpt lat="45.05088043712316" lon="6.8537360417771485"><ele>1044.0</ele><time>2026-05-02T07:13:32Z</time></trkpt><trkpt lat="45.05101897351122" lon="6.853852005092193"><ele>1043.0</ele><time>2026-05-02T07:13:33Z</time></trkpt><trkpt lat="45.051155289659285" lon="6.853957784499168"><ele>1042.0</ele><time>2026-05-02T07:13:34Z</time></trkpt><trkpt lat="45.051298158538025" lon="6.854065039273803"><ele>1042.0</ele><time>2026-05-02T07:13:35Z</time></trkpt><trkpt lat="45.05143851847513" lon="6.854172994739828"><ele>1042.0</ele><time>2026-05-02T07:13:36Z</time></trkpt><trkpt lat="45.05157970250138" lon="6.854274623427981"><ele>1042.0</ele><time>2026-05-02T07:13:37Z</time></trkpt><trkpt lat="45.05171716255737" lon="6.8543639324680266"><ele>1042.25</ele><time>2026-05-02T07:13:38Z</time></trkpt><trkpt lat="45.051857714383765" lon="6.85445455708067"><ele>1042.5</ele><time>2026-05-02T07:13:39Z</time></trkpt><trkpt lat="45.05199163839493" lon="6.854542627142886"><ele>1042.75</ele><time>2026-05-02T07:13:40Z</time></trkpt><trkpt lat="45.052125434400004" lon="6.854622474769261"><ele>1043.0</ele><time>2026-05-02T07:13:41Z</time></trkpt><trkpt lat="45.05224767647726" lon="6.854696403977955"><ele>1043.0</ele><time>2026-05-02T07:13:42Z</time></trkpt><trkpt lat="45.05235072927768" lon="6.854768116039532"><ele>1043.0</ele><time>2026-05-02T07:13:43Z</time></trkpt><trkpt lat="45.052446337092505" lon="6.854828673539871"><ele>1043.0</ele><time>2026-05-02T07:13:44Z</time></trkpt><trkpt lat="45.052537634580744" lon="6.854896008036056"><ele>1043.0</ele><time>2026-05-02T07:13:45Z</time></trkpt><trkpt lat="45.0526230773827" lon="6.854981766611662"><ele>1043.0</ele><time>2026-05-02T07:13:46Z</time></trkpt><trkpt lat="45.05270098628467" lon="6.8550850612338445"><ele>1042.2</ele><time>2026-05-02T07:13:47Z</time></trkpt><trkpt lat="45.052767399500745" lon="6.855192466117306"><ele>1041.4</ele><time>2026-05-02T07:13:48Z</time></trkpt><trkpt lat="45.052838851808" lon="6.855285197328593"><ele>1040.6000000000001</ele><time>2026-05-02T07:13:49Z</time></trkpt><trkpt lat="45.05291382359258" lon="6.855370192980755"><ele>1039.8</ele><time>2026-05-02T07:13:50Z</time></trkpt><trkpt lat="45.05299196920523" lon="6.855438086087927"><ele>1039.0</ele><time>2026-05-02T07:13:51Z</time></trkpt><trkpt lat="45.0530743352007" lon="6.8554921294263504"><ele>1039.0</ele><time>2026-05-02T07:13:52Z</time></trkpt><trkpt lat="45.05316783580694" lon="6.855540894280534"><ele>1039.0</ele><time>2026-05-02T07:13:53Z</time></trkpt><trkpt lat="45.05326076853609" lon="6.855583328142849"><ele>1039.0</ele><time>2026-05-02T07:13:54Z</time></trkpt><trkpt lat="45.05335673136816" lon="6.855658215174182"><ele>1039.0</ele><time>2026-05-02T07:13:55Z</time></trkpt><trkpt lat="45.05344697002389" lon="6.85577884458438"><ele>1039.0</ele><time>2026-05-02T07:13:56Z</time></trkpt><trkpt lat="45.05353800897102" lon="6.855924767858553"><ele>1039.6666666666665</ele><time>2026-05-02T07:13:57Z</time></trkpt><trkpt lat="45.053632811076696" lon="6.856079278694041"><ele>1040.3333333333333</ele><time>2026-05-02T07:13:58Z</time></trkpt><trkpt lat="45.053732388516245" lon="6.856248057765271"><ele>1041.0</ele><time>2026-05-02T07:13:59Z</time></trkpt><trkpt lat="45.05382768115004" lon="6.856424325438808"><ele>1041.0</ele><time>2026-05-02T07:14:00Z</time></trkpt><trkpt lat="45.05391120583618" lon="6.856600052965817"><ele>1041.0</ele><time>2026-05-02T07:14:01Z</time></trkpt><trkpt lat="45.05400002376121" lon="6.856776345614335"><ele>1041.0</ele><time>2026-05-02T07:14:02Z</time></trkpt><trkpt lat="45.05408970721808" lon="6.856971192726924"><ele>1041.6666666666667</ele><time>2026-05-02T07:14:03Z</time></trkpt><trkpt lat="45.05418413894479" lon="6.857168885968498"><ele>1042.3333333333335</ele><time>2026-05-02T07:14:04Z</time></trkpt><trkpt lat="45.05427857463114" lon="6.857367268892866"><ele>1043.0</ele><time>2026-05-02T07:14:05Z</time></trkpt><trkpt lat="45.05437167548398" lon="6.8575667260397"><ele>1041.6666666666667</ele><time>2026-05-02T07:14:06Z</time></trkpt><trkpt lat="45.05446575298044" lon="6.8577634519828505"><ele>1040.3333333333333</ele><time>2026-05-02T07:14:07Z</time></trkpt><trkpt lat="45.054560116682936" lon="6.857956540763252"><ele>1039.0</ele><time>2026-05-02T07:14:08Z</time></trkpt><trkpt lat="45.05465404859516" lon="6.858146071889412"><ele>1039.0</ele><time>2026-05-02T07:14:09Z</time></trkpt><trkpt lat="45.05473901915472" lon="6.858323643110085"><ele>1039.0</ele><time>2026-05-02T07:14:10Z</time></trkpt><trkpt lat="45.05481965653536" lon="6.85849231815558"><ele>1039.0</ele><time>2026-05-02T07:14:11Z</time></trkpt><trkpt lat="45.054896381965186" lon="6.858663162302656"><ele>1039.0</ele><time>2026-05-02T07:14:12Z</time></trkpt><trkpt lat="45.05497520286448" lon="6.858836681828808"><ele>1039.6666666666665</ele><time>2026-05-02T07:14:13Z</time></trkpt><trkpt lat="45.05506384640816" lon="6.859021009154229"><ele>1040.3333333333333</ele><time>2026-05-02T07:14:14Z</time></trkpt><trkpt lat="45.05515846409163" lon="6.859212431510049"><ele>1041.0</ele><time>2026-05-02T07:14:15Z</time></trkpt><trkpt lat="45.05525418724266" lon="6.859412634857053"><ele>1039.3333333333333</ele><time>2026-05-02T07:14:16Z</time></trkpt><trkpt lat="45.05535085770202" lon="6.859618254631185"><ele>1037.6666666666665</ele><time>2026-05-02T07:14:17Z</time></trkpt><trkpt lat="45.0554542120536" lon="6.8598305157063475"><ele>1036.0</ele><time>2026-05-02T07:14:18Z</time></trkpt><trkpt lat="45.055563705859626" lon="6.860047947213455"><ele>1035.6666666666665</ele><time>2026-05-02T07:14:19Z</time></trkpt><trkpt lat="45.05567507589723" lon="6.86027436529003"><ele>1035.3333333333333</ele><time>2026-05-02T07:14:20Z</time></trkpt><trkpt lat="45.05579022528871" lon="6.860499267661299"><ele>1035.0</ele><time>2026-05-02T07:14:21Z</time></trkpt><trkpt lat="45.05591060848131" lon="6.860710017486107"><ele>1035.0</ele><time>2026-05-02T07:14:21.999Z</time></trkpt><trkpt lat="45.056037809386396" lon="6.860917091607774"><ele>1035.0</ele><time>2026-05-02T07:14:22.999Z</time></trkpt><trkpt lat="45.05617905072379" lon="6.8611216658861265"><ele>1035.0</ele><time>2026-05-02T07:14:23.999Z</time></trkpt><trkpt lat="45.05631766535126" lon="6.861335645573947"><ele>1034.0</ele><time>2026-05-02T07:14:24.999Z</time></trkpt><trkpt lat="45.05645670759831" lon="6.861548269551902"><ele>1033.0</ele><time>2026-05-02T07:14:25.999Z</time></trkpt><trkpt lat="45.056591169845554" lon="6.8617550927884645"><ele>1032.0</ele><time>2026-05-02T07:14:26.999Z</time></trkpt><trkpt lat="45.056735906928935" lon="6.861964218539812"><ele>1031.6666666666667</ele><time>2026-05-02T07:14:27.999Z</time></trkpt><trkpt lat="45.05688183418446" lon="6.862173062519048"><ele>1031.3333333333335</ele><time>2026-05-02T07:14:28.999Z</time></trkpt><trkpt lat="45.05702603147031" lon="6.8623799514356145"><ele>1031.0</ele><time>2026-05-02T07:14:29.999Z</time></trkpt><trkpt lat="45.05716526721722" lon="6.862583224250138"><ele>1030.3333333333335</ele><time>2026-05-02T07:14:30.999Z</time></trkpt><trkpt lat="45.05730111235249" lon="6.862772324049367"><ele>1029.6666666666667</ele><time>2026-05-02T07:14:31.999Z</time></trkpt><trkpt lat="45.05742782804523" lon="6.862957013896698"><ele>1029.0</ele><time>2026-05-02T07:14:32.999Z</time></trkpt><trkpt lat="45.05753664907975" lon="6.8631256847132684"><ele>1029.0</ele><time>2026-05-02T07:14:33.999Z</time></trkpt><trkpt lat="45.05765456220033" lon="6.863311466545622"><ele>1029.0</ele><time>2026-05-02T07:14:34.999Z</time></trkpt><trkpt lat="45.057766019511334" lon="6.863503431762447"><ele>1029.0</ele><time>2026-05-02T07:14:35.999Z</time></trkpt><trkpt lat="45.05786888992446" lon="6.863711494355682"><ele>1029.6666666666667</ele><time>2026-05-02T07:14:36.999Z</time></trkpt><trkpt lat="45.05796247589914" lon="6.863924160829359"><ele>1030.3333333333335</ele><time>2026-05-02T07:14:37.999Z</time></trkpt><trkpt lat="45.05804362723538" lon="6.864144095026353"><ele>1031.0</ele><time>2026-05-02T07:14:38.999Z</time></trkpt><trkpt lat="45.05816635977305" lon="6.864324258221665"><ele>1031.0</ele><time>2026-05-02T07:14:39.999Z</time></trkpt><trkpt lat="45.058282236084146" lon="6.86451660069632"><ele>1031.0</ele><time>2026-05-02T07:14:40.999Z</time></trkpt><trkpt lat="45.05839795489873" lon="6.8647143032644475"><ele>1031.0</ele><time>2026-05-02T07:14:41.999Z</time></trkpt><trkpt lat="45.05852354909865" lon="6.864905388960165"><ele>1031.0</ele><time>2026-05-02T07:14:42.999Z</time></trkpt><trkpt lat="45.058651401461816" lon="6.865108363461638"><ele>1031.0</ele><time>2026-05-02T07:14:43.999Z</time></trkpt><trkpt lat="45.05878506547511" lon="6.865310761634333"><ele>1031.0</ele><time>2026-05-02T07:14:44.999Z</time></trkpt><trkpt lat="45.05892916494995" lon="6.865504020667419"><ele>1031.0</ele><time>2026-05-02T07:14:45.999Z</time></trkpt><trkpt lat="45.05908251577868" lon="6.865693951313975"><ele>1031.0</ele><time>2026-05-02T07:14:46.999Z</time></trkpt><trkpt lat="45.059237459950275" lon="6.86587805742582"><ele>1031.0</ele><time>2026-05-02T07:14:47.999Z</time></trkpt><trkpt lat="45.059392803667706" lon="6.866055569007511"><ele>1029.6666666666667</ele><time>2026-05-02T07:14:48.999Z</time></trkpt><trkpt lat="45.05952131912122" lon="6.866240725222154"><ele>1028.3333333333333</ele><time>2026-05-02T07:14:49.999Z</time></trkpt><trkpt lat="45.059652638248984" lon="6.8663991119845615"><ele>1027.0</ele><time>2026-05-02T07:14:50.999Z</time></trkpt><trkpt lat="45.059784162516536" lon="6.866536238827025"><ele>1027.0</ele><time>2026-05-02T07:14:51.999Z</time></trkpt><trkpt lat="45.059900964538244" lon="6.8666737239682405"><ele>1027.0</ele><time>2026-05-02T07:14:52.999Z</time></trkpt><trkpt lat="45.060024473620906" lon="6.866797574357926"><ele>1027.0</ele><time>2026-05-02T07:14:53.999Z</time></trkpt><trkpt lat="45.0601412343852" lon="6.866940542826084"><ele>1027.0</ele><time>2026-05-02T07:14:54.999Z</time></trkpt><trkpt lat="45.06027651130074" lon="6.867038299734125"><ele>1027.0</ele><time>2026-05-02T07:14:55.999Z</time></trkpt><trkpt lat="45.060410634274334" lon="6.867179581967521"><ele>1027.0</ele><time>2026-05-02T07:14:56.999Z</time></trkpt><trkpt lat="45.06056165983555" lon="6.867308213202289"><ele>1027.0</ele><time>2026-05-02T07:14:57.999Z</time></trkpt><trkpt lat="45.06072280656701" lon="6.8674454650341"><ele>1027.0</ele><time>2026-05-02T07:14:58.999Z</time></trkpt><trkpt lat="45.06089483221211" lon="6.867592254032975"><ele>1027.0</ele><time>2026-05-02T07:14:59.999Z</time></trkpt><trkpt lat="45.06107205612281" lon="6.867745608990734"><ele>1026.6666666666665</ele><time>2026-05-02T07:15:00.999Z</time></trkpt><trkpt lat="45.06125637136528" lon="6.867901896929869"><ele>1026.3333333333333</ele><time>2026-05-02T07:15:01.999Z</time></trkpt><trkpt lat="45.06143045997683" lon="6.868061375451241"><ele>1026.0</ele><time>2026-05-02T07:15:02.999Z</time></trkpt><trkpt lat="45.06158964927631" lon="6.868223172552669"><ele>1025.6666666666667</ele><time>2026-05-02T07:15:03.999Z</time></trkpt><trkpt lat="45.06173844397925" lon="6.868369805259635"><ele>1025.3333333333335</ele><time>2026-05-02T07:15:04.999Z</time></trkpt><trkpt lat="45.06187903679999" lon="6.868506399786007"><ele>1025.0</ele><time>2026-05-02T07:15:05.999Z</time></trkpt><trkpt lat="45.0620148940976" lon="6.868644701113719"><ele>1025.0</ele><time>2026-05-02T07:15:06.999Z</time></trkpt><trkpt lat="45.06215381687954" lon="6.8687853561498144"><ele>1025.0</ele><time>2026-05-02T07:15:07.999Z</time></trkpt><trkpt lat="45.06229360372753" lon="6.8689287677747375"><ele>1025.0</ele><time>2026-05-02T07:15:08.999Z</time></trkpt><trkpt lat="45.06243009241248" lon="6.869072154219576"><ele>1025.0</ele><time>2026-05-02T07:15:09.999Z</time></trkpt><trkpt lat="45.062564342230786" lon="6.869210800304685"><ele>1025.0</ele><time>2026-05-02T07:15:10.999Z</time></trkpt><trkpt lat="45.062686761307845" lon="6.869336654714161"><ele>1025.0</ele><time>2026-05-02T07:15:11.999Z</time></trkpt><trkpt lat="45.062792005774625" lon="6.869442842982436"><ele>1025.0</ele><time>2026-05-02T07:15:12.999Z</time></trkpt><trkpt lat="45.062894257511516" lon="6.869541972272039"><ele>1025.0</ele><time>2026-05-02T07:15:13.999Z</time></trkpt><trkpt lat="45.06298629668619" lon="6.869617419055505"><ele>1025.0</ele><time>2026-05-02T07:15:14.999Z</time></trkpt><trkpt lat="45.06307832025906" lon="6.869716786670499"><ele>1025.0</ele><time>2026-05-02T07:15:15.999Z</time></trkpt><trkpt lat="45.063167338198475" lon="6.869805503684535"><ele>1025.0</ele><time>2026-05-02T07:15:16.999Z</time></trkpt><trkpt lat="45.063245577653056" lon="6.8699283382981235"><ele>1025.0</ele><time>2026-05-02T07:15:18Z</time></trkpt><trkpt lat="45.06333227551427" lon="6.870050326834555"><ele>1025.0</ele><time>2026-05-02T07:15:19Z</time></trkpt><trkpt lat="45.06343317375882" lon="6.870191690011106"><ele>1025.0</ele><time>2026-05-02T07:15:20Z</time></trkpt><trkpt lat="45.06352363173761" lon="6.870364397598462"><ele>1025.0</ele><time>2026-05-02T07:15:21Z</time></trkpt><trkpt lat="45.063607919522504" lon="6.870556164623116"><ele>1025.0</ele><time>2026-05-02T07:15:22Z</time></trkpt><trkpt lat="45.06369101989701" lon="6.8707657863242915"><ele>1025.0</ele><time>2026-05-02T07:15:23Z</time></trkpt><trkpt lat="45.06377315226188" lon="6.87099135199985"><ele>1025.0</ele><time>2026-05-02T07:15:24Z</time></trkpt><trkpt lat="45.06384620643552" lon="6.871223860801014"><ele>1025.0</ele><time>2026-05-02T07:15:25Z</time></trkpt><trkpt lat="45.063912009507824" lon="6.871434247543957"><ele>1025.0</ele><time>2026-05-02T07:15:26Z</time></trkpt><trkpt lat="45.06397461914684" lon="6.871625501200253"><ele>1025.0</ele><time>2026-05-02T07:15:27Z</time></trkpt><trkpt lat="45.0640433046091" lon="6.871806132115118"><ele>1025.0</ele><time>2026-05-02T07:15:28Z</time></trkpt><trkpt lat="45.06411288173915" lon="6.872002666075128"><ele>1025.0</ele><time>2026-05-02T07:15:29Z</time></trkpt><trkpt lat="45.0641963495149" lon="6.8721970438512345"><ele>1025.0</ele><time>2026-05-02T07:15:30Z</time></trkpt><trkpt lat="45.06428526040925" lon="6.8723668630159835"><ele>1025.0</ele><time>2026-05-02T07:15:31Z</time></trkpt><trkpt lat="45.06437415584213" lon="6.872539652508528"><ele>1025.0</ele><time>2026-05-02T07:15:32Z</time></trkpt><trkpt lat="45.06447079578473" lon="6.872720708809243"><ele>1025.0</ele><time>2026-05-02T07:15:33Z</time></trkpt><trkpt lat="45.06457234148802" lon="6.872903797985354"><ele>1025.0</ele><time>2026-05-02T07:15:34Z</time></trkpt><trkpt lat="45.06467850970441" lon="6.873102433600319"><ele>1025.0</ele><time>2026-05-02T07:15:35Z</time></trkpt><trkpt lat="45.06479751713188" lon="6.873310032298977"><ele>1025.0</ele><time>2026-05-02T07:15:36Z</time></trkpt><trkpt lat="45.064915386478276" lon="6.873508635185596"><ele>1025.3333333333335</ele><time>2026-05-02T07:15:37Z</time></trkpt><trkpt lat="45.06503036534147" lon="6.8736943047748325"><ele>1025.6666666666667</ele><time>2026-05-02T07:15:38Z</time></trkpt><trkpt lat="45.06513990713568" lon="6.873874281198831"><ele>1026.0</ele><time>2026-05-02T07:15:39Z</time></trkpt><trkpt lat="45.06524458954467" lon="6.8740520512296355"><ele>1026.0</ele><time>2026-05-02T07:15:40Z</time></trkpt><trkpt lat="45.065362342337" lon="6.874222808571148"><ele>1026.0</ele><time>2026-05-02T07:15:41Z</time></trkpt><trkpt lat="45.06549601092525" lon="6.874387564869278"><ele>1026.0</ele><time>2026-05-02T07:15:42Z</time></trkpt><trkpt lat="45.06562320444576" lon="6.8745551766941055"><ele>1026.0</ele><time>2026-05-02T07:15:43Z</time></trkpt><trkpt lat="45.06575501264324" lon="6.87472353682257"><ele>1026.0</ele><time>2026-05-02T07:15:44Z</time></trkpt><trkpt lat="45.06588996740756" lon="6.874885469024764"><ele>1026.0</ele><time>2026-05-02T07:15:45Z</time></trkpt><trkpt lat="45.066022921881505" lon="6.87504377032273"><ele>1026.6666666666667</ele><time>2026-05-02T07:15:46Z</time></trkpt><trkpt lat="45.06615716953255" lon="6.875207655693926"><ele>1027.3333333333335</ele><time>2026-05-02T07:15:47Z</time></trkpt><trkpt lat="45.066287659097945" lon="6.875380913516873"><ele>1028.0</ele><time>2026-05-02T07:15:48Z</time></trkpt><trkpt lat="45.066420261132315" lon="6.875548316929932"><ele>1028.0</ele><time>2026-05-02T07:15:49Z</time></trkpt><trkpt lat="45.06655140642237" lon="6.875709306253293"><ele>1028.0</ele><time>2026-05-02T07:15:50Z</time></trkpt><trkpt lat="45.06667634167118" lon="6.875864317669754"><ele>1028.0</ele><time>2026-05-02T07:15:51Z</time></trkpt><trkpt lat="45.06679830657755" lon="6.87602583608973"><ele>1028.0</ele><time>2026-05-02T07:15:52Z</time></trkpt><trkpt lat="45.06692547558536" lon="6.876187564276332"><ele>1028.0</ele><time>2026-05-02T07:15:53Z</time></trkpt><trkpt lat="45.06705934188138" lon="6.876352989940516"><ele>1028.0</ele><time>2026-05-02T07:15:54Z</time></trkpt><trkpt lat="45.067188498351484" lon="6.876518629730743"><ele>1028.0</ele><time>2026-05-02T07:15:55Z</time></trkpt><trkpt lat="45.067318807793605" lon="6.87668075110934"><ele>1028.0</ele><time>2026-05-02T07:15:56Z</time></trkpt><trkpt lat="45.06744605350634" lon="6.87682483321398"><ele>1028.0</ele><time>2026-05-02T07:15:57Z</time></trkpt><trkpt lat="45.06755114552022" lon="6.876942099985132"><ele>1027.5</ele><time>2026-05-02T07:15:58Z</time></trkpt><trkpt lat="45.067649252467916" lon="6.87705426261704"><ele>1027.0</ele><time>2026-05-02T07:15:59Z</time></trkpt><trkpt lat="45.06774620282963" lon="6.877176762475447"><ele>1026.5</ele><time>2026-05-02T07:16:00Z</time></trkpt><trkpt lat="45.067843964421755" lon="6.877302148201692"><ele>1026.0</ele><time>2026-05-02T07:16:01Z</time></trkpt><trkpt lat="45.06794718993989" lon="6.877422718973575"><ele>1026.0</ele><time>2026-05-02T07:16:02Z</time></trkpt><trkpt lat="45.068056718472256" lon="6.877561457766727"><ele>1026.0</ele><time>2026-05-02T07:16:03Z</time></trkpt><trkpt lat="45.06816283948543" lon="6.877675983961417"><ele>1026.0</ele><time>2026-05-02T07:16:04Z</time></trkpt><trkpt lat="45.068266779069084" lon="6.8777940643557125"><ele>1026.0</ele><time>2026-05-02T07:16:05Z</time></trkpt><trkpt lat="45.06837460361492" lon="6.877911954072114"><ele>1027.25</ele><time>2026-05-02T07:16:06Z</time></trkpt><trkpt lat="45.06848963722635" lon="6.878040888585731"><ele>1028.5</ele><time>2026-05-02T07:16:07Z</time></trkpt><trkpt lat="45.068600231084275" lon="6.878167723968551"><ele>1029.75</ele><time>2026-05-02T07:16:08Z</time></trkpt><trkpt lat="45.06870533166922" lon="6.8783014961280555"><ele>1031.0</ele><time>2026-05-02T07:16:09Z</time></trkpt><trkpt lat="45.068792720952295" lon="6.878442738078212"><ele>1031.0</ele><time>2026-05-02T07:16:10Z</time></trkpt><trkpt lat="45.0688764573064" lon="6.878604666660633"><ele>1031.0</ele><time>2026-05-02T07:16:11Z</time></trkpt><trkpt lat="45.068953455928366" lon="6.878761731806601"><ele>1031.0</ele><time>2026-05-02T07:16:12Z</time></trkpt><trkpt lat="45.06902931359884" lon="6.87892125678746"><ele>1031.0</ele><time>2026-05-02T07:16:13Z</time></trkpt><trkpt lat="45.06909481624307" lon="6.879087812606457"><ele>1032.5</ele><time>2026-05-02T07:16:14Z</time></trkpt><trkpt lat="45.06915298801199" lon="6.879260304437056"><ele>1034.0</ele><time>2026-05-02T07:16:15Z</time></trkpt><trkpt lat="45.069200047708385" lon="6.879445595600398"><ele>1035.5</ele><time>2026-05-02T07:16:16Z</time></trkpt><trkpt lat="45.069237603944075" lon="6.8796313918604834"><ele>1037.0</ele><time>2026-05-02T07:16:17Z</time></trkpt><trkpt lat="45.06928004776078" lon="6.879824430459495"><ele>1037.0</ele><time>2026-05-02T07:16:18Z</time></trkpt><trkpt lat="45.069331624563276" lon="6.880019560687148"><ele>1037.0</ele><time>2026-05-02T07:16:19Z</time></trkpt><trkpt lat="45.069383705192344" lon="6.88022427558203"><ele>1037.0</ele><time>2026-05-02T07:16:19.999Z</time></trkpt><trkpt lat="45.06943403122494" lon="6.880433844902777"><ele>1036.3333333333335</ele><time>2026-05-02T07:16:20.999Z</time></trkpt><trkpt lat="45.06949180076303" lon="6.880647104751456"><ele>1035.6666666666667</ele><time>2026-05-02T07:16:21.999Z</time></trkpt><trkpt lat="45.06955014424411" lon="6.880861827406252"><ele>1035.0</ele><time>2026-05-02T07:16:22.999Z</time></trkpt><trkpt lat="45.06960481393433" lon="6.881077275478059"><ele>1032.6666666666667</ele><time>2026-05-02T07:16:23.999Z</time></trkpt><trkpt lat="45.06963922616264" lon="6.881308180604912"><ele>1030.3333333333335</ele><time>2026-05-02T07:16:24.999Z</time></trkpt><trkpt lat="45.06971173359343" lon="6.881521051022323"><ele>1028.0</ele><time>2026-05-02T07:16:25.999Z</time></trkpt><trkpt lat="45.06976695012402" lon="6.881738942988182"><ele>1025.6666666666667</ele><time>2026-05-02T07:16:26.999Z</time></trkpt><trkpt lat="45.069830439118405" lon="6.881961678540795"><ele>1023.3333333333333</ele><time>2026-05-02T07:16:27.999Z</time></trkpt><trkpt lat="45.069910894717246" lon="6.882181287530265"><ele>1021.0</ele><time>2026-05-02T07:16:28.999Z</time></trkpt><trkpt lat="45.07000685641755" lon="6.882380962015436"><ele>1022.0</ele><time>2026-05-02T07:16:29.999Z</time></trkpt><trkpt lat="45.070102977176234" lon="6.882577522237999"><ele>1023.0</ele><time>2026-05-02T07:16:30.999Z</time></trkpt><trkpt lat="45.070194768680885" lon="6.882769595913804"><ele>1024.0</ele><time>2026-05-02T07:16:31.999Z</time></trkpt><trkpt lat="45.07028025132677" lon="6.882951931654033"><ele>1024.0</ele><time>2026-05-02T07:16:32.999Z</time></trkpt><trkpt lat="45.070356525396114" lon="6.883127048494713"><ele>1024.0</ele><time>2026-05-02T07:16:33.999Z</time></trkpt><trkpt lat="45.0704344803292" lon="6.8832979682417745"><ele>1024.0</ele><time>2026-05-02T07:16:34.999Z</time></trkpt><trkpt lat="45.070511207560735" lon="6.8834619105451145"><ele>1024.0</ele><time>2026-05-02T07:16:35.999Z</time></trkpt><trkpt lat="45.07059276246839" lon="6.883622627281502"><ele>1024.5</ele><time>2026-05-02T07:16:36.999Z</time></trkpt><trkpt lat="45.07067077103315" lon="6.883777996154546"><ele>1025.0</ele><time>2026-05-02T07:16:37.999Z</time></trkpt><trkpt lat="45.070773284181435" lon="6.8839136663276905"><ele>1025.5</ele><time>2026-05-02T07:16:38.999Z</time></trkpt><trkpt lat="45.07088734689105" lon="6.884033486171919"><ele>1026.0</ele><time>2026-05-02T07:16:39.999Z</time></trkpt><trkpt lat="45.07101393928098" lon="6.884139524802779"><ele>1026.0</ele><time>2026-05-02T07:16:40.999Z</time></trkpt><trkpt lat="45.0711471585895" lon="6.884234225056499"><ele>1026.0</ele><time>2026-05-02T07:16:41.999Z</time></trkpt><trkpt lat="45.07128185431226" lon="6.8843085698450865"><ele>1026.0</ele><time>2026-05-02T07:16:42.999Z</time></trkpt><trkpt lat="45.07142519648393" lon="6.88436170380631"><ele>1026.0</ele><time>2026-05-02T07:16:43.999Z</time></trkpt><trkpt lat="45.07157798037423" lon="6.884420742444853"><ele>1023.25</ele><time>2026-05-02T07:16:44.999Z</time></trkpt><trkpt lat="45.071722263489576" lon="6.884475570224449"><ele>1020.5</ele><time>2026-05-02T07:16:45.999Z</time></trkpt><trkpt lat="45.071864367715925" lon="6.88453046215781"><ele>1017.75</ele><time>2026-05-02T07:16:46.999Z</time></trkpt><trkpt lat="45.0720087970919" lon="6.884580132816731"><ele>1015.0</ele><time>2026-05-02T07:16:47.999Z</time></trkpt><trkpt lat="45.07212531540699" lon="6.884611168339451"><ele>1015.0</ele><time>2026-05-02T07:16:48.999Z</time></trkpt><trkpt lat="45.07218141678594" lon="6.884659334938909"><ele>1015.0</ele><time>2026-05-02T07:17:09.999Z</time></trkpt><trkpt lat="45.07226481518711" lon="6.884710905523869"><ele>1015.0</ele><time>2026-05-02T07:17:11.999Z</time></trkpt><trkpt lat="45.07232760436334" lon="6.884733709707224"><ele>1015.0</ele><time>2026-05-02T07:17:12.999Z</time></trkpt><trkpt lat="45.07240114796958" lon="6.884752627194912"><ele>1015.0</ele><time>2026-05-02T07:17:13.999Z</time></trkpt><trkpt lat="45.072475202755975" lon="6.884773901210291"><ele>1015.0</ele><time>2026-05-02T07:17:14.999Z</time></trkpt><trkpt lat="45.07254361625446" lon="6.884796536753503"><ele>1015.0</ele><time>2026-05-02T07:17:15.999Z</time></trkpt><trkpt lat="45.072618883228046" lon="6.884824190008373"><ele>1015.9999999999999</ele><time>2026-05-02T07:17:16.999Z</time></trkpt><trkpt lat="45.07269432775199" lon="6.8848557343320005"><ele>1017.0</ele><time>2026-05-02T07:17:17.999Z</time></trkpt><trkpt lat="45.072772047107144" lon="6.884884554431668"><ele>1018.0</ele><time>2026-05-02T07:17:18.999Z</time></trkpt><trkpt lat="45.07285565913215" lon="6.884919397245156"><ele>1019.0</ele><time>2026-05-02T07:17:19.999Z</time></trkpt><trkpt lat="45.07293816886185" lon="6.8849548796779825"><ele>1019.9999999999999</ele><time>2026-05-02T07:17:20.999Z</time></trkpt><trkpt lat="45.07302683560517" lon="6.884987775013714"><ele>1021.0</ele><time>2026-05-02T07:17:21.999Z</time></trkpt><trkpt lat="45.0731194782613" lon="6.8850226174990095"><ele>1021.0</ele><time>2026-05-02T07:17:22.999Z</time></trkpt><trkpt lat="45.07321680274876" lon="6.885061816923195"><ele>1020.9999999999999</ele><time>2026-05-02T07:17:24Z</time></trkpt><trkpt lat="45.07332387977377" lon="6.885102695557757"><ele>1020.9999999999999</ele><time>2026-05-02T07:17:25Z</time></trkpt><trkpt lat="45.07342845495343" lon="6.885145208813189"><ele>1021.0</ele><time>2026-05-02T07:17:26Z</time></trkpt><trkpt lat="45.07353271830397" lon="6.885186464252063"><ele>1021.0</ele><time>2026-05-02T07:17:27Z</time></trkpt><trkpt lat="45.07363329676787" lon="6.885229536473596"><ele>1019.25</ele><time>2026-05-02T07:17:28Z</time></trkpt><trkpt lat="45.07373280228171" lon="6.8852883258306505"><ele>1017.5</ele><time>2026-05-02T07:17:29Z</time></trkpt><trkpt lat="45.073831360941334" lon="6.885358428308986"><ele>1015.75</ele><time>2026-05-02T07:17:30Z</time></trkpt><trkpt lat="45.07393163304949" lon="6.885441361030547"><ele>1014.0</ele><time>2026-05-02T07:17:31Z</time></trkpt><trkpt lat="45.07403042571389" lon="6.885532632614975"><ele>1012.5</ele><time>2026-05-02T07:17:32Z</time></trkpt><trkpt lat="45.07412759421208" lon="6.885633463955579"><ele>1011.0</ele><time>2026-05-02T07:17:33Z</time></trkpt><trkpt lat="45.074222858944246" lon="6.88574389922171"><ele>1009.5</ele><time>2026-05-02T07:17:34Z</time></trkpt><trkpt lat="45.07431374177828" lon="6.885857383974553"><ele>1008.0</ele><time>2026-05-02T07:17:35Z</time></trkpt><trkpt lat="45.07439372679331" lon="6.885979473189956"><ele>1008.0</ele><time>2026-05-02T07:17:36Z</time></trkpt><trkpt lat="45.07446688459229" lon="6.886114255024184"><ele>1008.0</ele><time>2026-05-02T07:17:37Z</time></trkpt><trkpt lat="45.07455033044478" lon="6.886233587496067"><ele>1008.0</ele><time>2026-05-02T07:17:38Z</time></trkpt><trkpt lat="45.07462932808627" lon="6.886354209775639"><ele>1008.0</ele><time>2026-05-02T07:17:39Z</time></trkpt><trkpt lat="45.07470487687538" lon="6.886478437283198"><ele>1008.0</ele><time>2026-05-02T07:17:40Z</time></trkpt><trkpt lat="45.074773611350494" lon="6.886619621514795"><ele>1008.0</ele><time>2026-05-02T07:17:41Z</time></trkpt><trkpt lat="45.074836869938416" lon="6.88675493372425"><ele>1008.0</ele><time>2026-05-02T07:17:42Z</time></trkpt><trkpt lat="45.07489798941051" lon="6.886893793044462"><ele>1008.0</ele><time>2026-05-02T07:17:43Z</time></trkpt><trkpt lat="45.074978043395724" lon="6.887020073906982"><ele>1009.5</ele><time>2026-05-02T07:17:44Z</time></trkpt><trkpt lat="45.07506110655907" lon="6.887142572265814"><ele>1011.0</ele><time>2026-05-02T07:17:45Z</time></trkpt><trkpt lat="45.07515716445414" lon="6.887262659313254"><ele>1012.5</ele><time>2026-05-02T07:17:46Z</time></trkpt><trkpt lat="45.0752718475428" lon="6.887367109540372"><ele>1014.0</ele><time>2026-05-02T07:17:47Z</time></trkpt><trkpt lat="45.07538952402083" lon="6.88749032870366"><ele>1010.6666666666667</ele><time>2026-05-02T07:17:48Z</time></trkpt><trkpt lat="45.07550663644474" lon="6.887634164973136"><ele>1007.3333333333334</ele><time>2026-05-02T07:17:49Z</time></trkpt><trkpt lat="45.07561323347668" lon="6.887804492606116"><ele>1004.0</ele><time>2026-05-02T07:17:50Z</time></trkpt><trkpt lat="45.07570795702207" lon="6.8880021489814265"><ele>1006.0</ele><time>2026-05-02T07:17:51Z</time></trkpt><trkpt lat="45.075793354637725" lon="6.888194566078916"><ele>1008.0</ele><time>2026-05-02T07:17:52Z</time></trkpt><trkpt lat="45.07587142974127" lon="6.888400229085145"><ele>1010.0</ele><time>2026-05-02T07:17:53Z</time></trkpt><trkpt lat="45.07596269478587" lon="6.888611696265119"><ele>1010.0</ele><time>2026-05-02T07:17:54Z</time></trkpt><trkpt lat="45.07607989499705" lon="6.888787666456565"><ele>1010.0</ele><time>2026-05-02T07:17:55Z</time></trkpt><trkpt lat="45.076196786725355" lon="6.888942445178918"><ele>1010.0</ele><time>2026-05-02T07:17:56Z</time></trkpt><trkpt lat="45.076309976337264" lon="6.889096660980235"><ele>1009.0</ele><time>2026-05-02T07:17:57Z</time></trkpt><trkpt lat="45.076413089726515" lon="6.889262410988728"><ele>1008.0</ele><time>2026-05-02T07:17:58Z</time></trkpt><trkpt lat="45.07651340702092" lon="6.889428310079085"><ele>1007.0</ele><time>2026-05-02T07:17:59Z</time></trkpt><trkpt lat="45.076606758038366" lon="6.8895823411144885"><ele>1006.5</ele><time>2026-05-02T07:18:00Z</time></trkpt><trkpt lat="45.07669329794263" lon="6.889722216253441"><ele>1006.0</ele><time>2026-05-02T07:18:01Z</time></trkpt><trkpt lat="45.07677308149113" lon="6.889855410198897"><ele>1005.5</ele><time>2026-05-02T07:18:02Z</time></trkpt><trkpt lat="45.07684877120049" lon="6.889984457318813"><ele>1005.0</ele><time>2026-05-02T07:18:03Z</time></trkpt><trkpt lat="45.076918689877914" lon="6.890118879767714"><ele>1005.0</ele><time>2026-05-02T07:18:04Z</time></trkpt><trkpt lat="45.07697736534206" lon="6.890262823365111"><ele>1005.0</ele><time>2026-05-02T07:18:05Z</time></trkpt><trkpt lat="45.077026131333255" lon="6.890414361897333"><ele>1005.0</ele><time>2026-05-02T07:18:06Z</time></trkpt><trkpt lat="45.07707453702756" lon="6.890573241546756"><ele>1005.0</ele><time>2026-05-02T07:18:07Z</time></trkpt><trkpt lat="45.07713509061564" lon="6.890728572333519"><ele>1005.0</ele><time>2026-05-02T07:18:08Z</time></trkpt><trkpt lat="45.07720501428794" lon="6.890876090028286"><ele>1005.0</ele><time>2026-05-02T07:18:09Z</time></trkpt><trkpt lat="45.077279967122536" lon="6.891020654748905"><ele>1005.0</ele><time>2026-05-02T07:18:10Z</time></trkpt><trkpt lat="45.07735615680831" lon="6.891148544264797"><ele>1005.0</ele><time>2026-05-02T07:18:11Z</time></trkpt><trkpt lat="45.07741885739569" lon="6.891258913007024"><ele>1005.5</ele><time>2026-05-02T07:18:12Z</time></trkpt><trkpt lat="45.0774713700944" lon="6.891349893997343"><ele>1006.0</ele><time>2026-05-02T07:18:13Z</time></trkpt><trkpt lat="45.077511776507365" lon="6.891428560160046"><ele>1006.5</ele><time>2026-05-02T07:18:14Z</time></trkpt><trkpt lat="45.07755090795432" lon="6.891498747185736"><ele>1007.0</ele><time>2026-05-02T07:18:15Z</time></trkpt><trkpt lat="45.07761452400672" lon="6.89160054387051"><ele>1007.5</ele><time>2026-05-02T07:18:16.999Z</time></trkpt><trkpt lat="45.07769008871311" lon="6.8916926698876715"><ele>1008.0</ele><time>2026-05-02T07:18:18.999Z</time></trkpt><trkpt lat="45.07776651297853" lon="6.891838979445046"><ele>1008.0</ele><time>2026-05-02T07:18:20.999Z</time></trkpt><trkpt lat="45.07781665280375" lon="6.891937705190424"><ele>1008.0</ele><time>2026-05-02T07:18:21.999Z</time></trkpt><trkpt lat="45.07787662550694" lon="6.8920535478992475"><ele>1008.0</ele><time>2026-05-02T07:18:22.999Z</time></trkpt><trkpt lat="45.077933015976576" lon="6.8921734865903534"><ele>1008.0</ele><time>2026-05-02T07:18:23.999Z</time></trkpt><trkpt lat="45.077979936237845" lon="6.892289857165963"><ele>1008.0</ele><time>2026-05-02T07:18:24.999Z</time></trkpt><trkpt lat="45.078030874770946" lon="6.89241059662419"><ele>1008.0</ele><time>2026-05-02T07:18:25.999Z</time></trkpt><trkpt lat="45.07808813168427" lon="6.892534278080025"><ele>1008.0</ele><time>2026-05-02T07:18:26.999Z</time></trkpt><trkpt lat="45.07815590448" lon="6.892659550351892"><ele>1008.0</ele><time>2026-05-02T07:18:27.999Z</time></trkpt><trkpt lat="45.07822674950543" lon="6.892795957377218"><ele>1008.0</ele><time>2026-05-02T07:18:28.999Z</time></trkpt><trkpt lat="45.07830459987966" lon="6.892939253655429"><ele>1009.5</ele><time>2026-05-02T07:18:29.999Z</time></trkpt><trkpt lat="45.07838155471128" lon="6.89310440300494"><ele>1011.0</ele><time>2026-05-02T07:18:30.999Z</time></trkpt><trkpt lat="45.07846896419486" lon="6.893278801724825"><ele>1012.5</ele><time>2026-05-02T07:18:31.999Z</time></trkpt><trkpt lat="45.078548383766645" lon="6.89345367956011"><ele>1014.0</ele><time>2026-05-02T07:18:32.999Z</time></trkpt><trkpt lat="45.0786282901333" lon="6.893631382714453"><ele>1014.0</ele><time>2026-05-02T07:18:33.999Z</time></trkpt><trkpt lat="45.07870980706336" lon="6.893806103705364"><ele>1014.0</ele><time>2026-05-02T07:18:34.999Z</time></trkpt><trkpt lat="45.07879508183231" lon="6.893991603742853"><ele>1014.0</ele><time>2026-05-02T07:18:35.999Z</time></trkpt><trkpt lat="45.07888286083922" lon="6.894177053234324"><ele>1012.3333333333333</ele><time>2026-05-02T07:18:36.999Z</time></trkpt><trkpt lat="45.078974230246516" lon="6.894362259952971"><ele>1010.6666666666666</ele><time>2026-05-02T07:18:37.999Z</time></trkpt><trkpt lat="45.07906754649905" lon="6.894543365952214"><ele>1009.0</ele><time>2026-05-02T07:18:38.999Z</time></trkpt><trkpt lat="45.079146943512775" lon="6.89471189096393"><ele>1014.5</ele><time>2026-05-02T07:18:39.999Z</time></trkpt><trkpt lat="45.07922503720156" lon="6.894887098013725"><ele>1020.0</ele><time>2026-05-02T07:18:40.999Z</time></trkpt><trkpt lat="45.07928494458504" lon="6.895088823451752"><ele>1025.5</ele><time>2026-05-02T07:18:41.999Z</time></trkpt><trkpt lat="45.07932890620631" lon="6.895281767877604"><ele>1031.0</ele><time>2026-05-02T07:18:42.999Z</time></trkpt><trkpt lat="45.07931945603141" lon="6.895483486550964"><ele>1031.0</ele><time>2026-05-02T07:18:43.999Z</time></trkpt><trkpt lat="45.07930011258232" lon="6.895674584204516"><ele>1031.0</ele><time>2026-05-02T07:18:44.999Z</time></trkpt><trkpt lat="45.079261777383216" lon="6.895892435239677"><ele>1031.0</ele><time>2026-05-02T07:18:45.999Z</time></trkpt><trkpt lat="45.0792246734274" lon="6.8961015981276965"><ele>1031.0</ele><time>2026-05-02T07:18:46.999Z</time></trkpt><trkpt lat="45.07919392915703" lon="6.8963241508787725"><ele>1029.0</ele><time>2026-05-02T07:18:47.999Z</time></trkpt><trkpt lat="45.079181467403714" lon="6.896559790196337"><ele>1027.0</ele><time>2026-05-02T07:18:48.999Z</time></trkpt><trkpt lat="45.07919012373133" lon="6.89679479149253"><ele>1025.0</ele><time>2026-05-02T07:18:49.999Z</time></trkpt><trkpt lat="45.079203166213745" lon="6.897021767115242"><ele>1025.0</ele><time>2026-05-02T07:18:50.999Z</time></trkpt><trkpt lat="45.079215597633016" lon="6.8972298670105285"><ele>1025.0</ele><time>2026-05-02T07:18:51.999Z</time></trkpt><trkpt lat="45.079236713317854" lon="6.897431440084206"><ele>1025.0</ele><time>2026-05-02T07:18:52.999Z</time></trkpt><trkpt lat="45.07928930009601" lon="6.897641415840781"><ele>1025.0</ele><time>2026-05-02T07:18:53.999Z</time></trkpt><trkpt lat="45.07936253196928" lon="6.89783328391618"><ele>1024.75</ele><time>2026-05-02T07:18:54.999Z</time></trkpt><trkpt lat="45.07943073423444" lon="6.898015840085741"><ele>1024.5</ele><time>2026-05-02T07:18:55.999Z</time></trkpt><trkpt lat="45.079470727189175" lon="6.898198461360697"><ele>1024.25</ele><time>2026-05-02T07:18:56.999Z</time></trkpt><trkpt lat="45.07946901431172" lon="6.8984066858483"><ele>1024.0</ele><time>2026-05-02T07:18:57.999Z</time></trkpt><trkpt lat="45.07943256133154" lon="6.898600545205958"><ele>1025.0</ele><time>2026-05-02T07:18:58.999Z</time></trkpt><trkpt lat="45.079361917307914" lon="6.8987834792918035"><ele>1026.0</ele><time>2026-05-02T07:18:59.999Z</time></trkpt><trkpt lat="45.079291808677475" lon="6.898959517833314"><ele>1027.0</ele><time>2026-05-02T07:19:00.999Z</time></trkpt><trkpt lat="45.07921368682901" lon="6.899143867044061"><ele>1028.0</ele><time>2026-05-02T07:19:01.999Z</time></trkpt><trkpt lat="45.0791342822724" lon="6.899321893216744"><ele>1022.3333333333334</ele><time>2026-05-02T07:19:02.999Z</time></trkpt><trkpt lat="45.07905093367536" lon="6.8995000916386715"><ele>1016.6666666666667</ele><time>2026-05-02T07:19:03.999Z</time></trkpt><trkpt lat="45.07895750106319" lon="6.899687913818808"><ele>1011.0</ele><time>2026-05-02T07:19:04.999Z</time></trkpt><trkpt lat="45.078868576911894" lon="6.899865846954875"><ele>1011.0</ele><time>2026-05-02T07:19:05.999Z</time></trkpt><trkpt lat="45.0787888363993" lon="6.900042568211913"><ele>1011.0</ele><time>2026-05-02T07:19:06.999Z</time></trkpt><trkpt lat="45.078716623594275" lon="6.90023409739048"><ele>1011.0</ele><time>2026-05-02T07:19:07.999Z</time></trkpt><trkpt lat="45.07866179444398" lon="6.90044070913372"><ele>1011.3333333333333</ele><time>2026-05-02T07:19:08.999Z</time></trkpt><trkpt lat="45.07864834833543" lon="6.900663435756859"><ele>1011.6666666666666</ele><time>2026-05-02T07:19:09.999Z</time></trkpt><trkpt lat="45.07864405018949" lon="6.900900248906393"><ele>1012.0</ele><time>2026-05-02T07:19:10.999Z</time></trkpt><trkpt lat="45.078663944324006" lon="6.901122908301008"><ele>1012.0</ele><time>2026-05-02T07:19:11.999Z</time></trkpt><trkpt lat="45.07867761086432" lon="6.901361743102795"><ele>1012.0</ele><time>2026-05-02T07:19:12.999Z</time></trkpt><trkpt lat="45.0786974911366" lon="6.901603016285967"><ele>1012.0</ele><time>2026-05-02T07:19:13.999Z</time></trkpt><trkpt lat="45.07871042940344" lon="6.901829984075176"><ele>1011.5</ele><time>2026-05-02T07:19:14.999Z</time></trkpt><trkpt lat="45.078753255131474" lon="6.902037648503633"><ele>1011.0</ele><time>2026-05-02T07:19:15.999Z</time></trkpt><trkpt lat="45.07882553806366" lon="6.902215637987578"><ele>1010.5</ele><time>2026-05-02T07:19:16.999Z</time></trkpt><trkpt lat="45.078922405279556" lon="6.902366167630295"><ele>1010.0</ele><time>2026-05-02T07:19:17.999Z</time></trkpt><trkpt lat="45.079045470672376" lon="6.902501797203984"><ele>1015.6666666666667</ele><time>2026-05-02T07:19:18.999Z</time></trkpt><trkpt lat="45.079184471031326" lon="6.902634305888291"><ele>1021.3333333333333</ele><time>2026-05-02T07:19:19.999Z</time></trkpt><trkpt lat="45.079320010817746" lon="6.90277359633237"><ele>1027.0</ele><time>2026-05-02T07:19:20.999Z</time></trkpt><trkpt lat="45.07943653699717" lon="6.9029235618836084"><ele>1027.0</ele><time>2026-05-02T07:19:21.999Z</time></trkpt><trkpt lat="45.07953590164064" lon="6.903091811106322"><ele>1027.0</ele><time>2026-05-02T07:19:22.999Z</time></trkpt><trkpt lat="45.07962820323657" lon="6.9032642542808444"><ele>1027.0</ele><time>2026-05-02T07:19:23.999Z</time></trkpt><trkpt lat="45.07971687847617" lon="6.903433644993458"><ele>1028.25</ele><time>2026-05-02T07:19:24.999Z</time></trkpt><trkpt lat="45.07980496274419" lon="6.903582450319903"><ele>1029.5</ele><time>2026-05-02T07:19:25.999Z</time></trkpt><trkpt lat="45.07988543342106" lon="6.9037245794960205"><ele>1030.75</ele><time>2026-05-02T07:19:26.999Z</time></trkpt><trkpt lat="45.07997001607189" lon="6.9038357788554645"><ele>1032.0</ele><time>2026-05-02T07:19:27.999Z</time></trkpt><trkpt lat="45.08006235444854" lon="6.903898124738694"><ele>1032.0</ele><time>2026-05-02T07:19:28.999Z</time></trkpt><trkpt lat="45.08015408174437" lon="6.903887169812168"><ele>1032.0</ele><time>2026-05-02T07:19:30Z</time></trkpt><trkpt lat="45.080227129378386" lon="6.903824400057332"><ele>1032.0</ele><time>2026-05-02T07:19:31Z</time></trkpt><trkpt lat="45.08026813015719" lon="6.903717621320136"><ele>1032.0</ele><time>2026-05-02T07:19:32Z</time></trkpt><trkpt lat="45.08027007430933" lon="6.90358707638006"><ele>1032.0</ele><time>2026-05-02T07:19:33Z</time></trkpt><trkpt lat="45.080234894915904" lon="6.903447874805983"><ele>1030.75</ele><time>2026-05-02T07:19:34Z</time></trkpt><trkpt lat="45.08016780303277" lon="6.9033195815201145"><ele>1029.5</ele><time>2026-05-02T07:19:35Z</time></trkpt><trkpt lat="45.08007785529966" lon="6.903168559549176"><ele>1028.25</ele><time>2026-05-02T07:19:36Z</time></trkpt><trkpt lat="45.07998484696034" lon="6.90300674910997"><ele>1027.0</ele><time>2026-05-02T07:19:37Z</time></trkpt><trkpt lat="45.07989672153042" lon="6.90284422329801"><ele>1027.0</ele><time>2026-05-02T07:19:38Z</time></trkpt><trkpt lat="45.07981163462241" lon="6.902697915157121"><ele>1027.0</ele><time>2026-05-02T07:19:39Z</time></trkpt><trkpt lat="45.07973401652262" lon="6.902556479728135"><ele>1027.0</ele><time>2026-05-02T07:19:40Z</time></trkpt><trkpt lat="45.079644726309866" lon="6.902418092974099"><ele>1027.0</ele><time>2026-05-02T07:19:41Z</time></trkpt><trkpt lat="45.07956988786938" lon="6.902270038291905"><ele>1028.75</ele><time>2026-05-02T07:19:42Z</time></trkpt><trkpt lat="45.07949092052726" lon="6.902139463660111"><ele>1030.5</ele><time>2026-05-02T07:19:43Z</time></trkpt><trkpt lat="45.079403695559726" lon="6.901998631494496"><ele>1032.25</ele><time>2026-05-02T07:19:44Z</time></trkpt><trkpt lat="45.079328860672994" lon="6.901863997652834"><ele>1034.0</ele><time>2026-05-02T07:19:45Z</time></trkpt><trkpt lat="45.07926452392513" lon="6.901726653210786"><ele>1036.2</ele><time>2026-05-02T07:19:46Z</time></trkpt><trkpt lat="45.07922865673548" lon="6.901576266484052"><ele>1038.4</ele><time>2026-05-02T07:19:47Z</time></trkpt><trkpt lat="45.07921649928296" lon="6.901434405397941"><ele>1040.6</ele><time>2026-05-02T07:19:48Z</time></trkpt><trkpt lat="45.079221956688606" lon="6.9012952421667535"><ele>1042.8</ele><time>2026-05-02T07:19:49Z</time></trkpt><trkpt lat="45.07924934256719" lon="6.901180693859065"><ele>1045.0</ele><time>2026-05-02T07:19:50Z</time></trkpt><trkpt lat="45.07930561986054" lon="6.901112240744838"><ele>1045.0</ele><time>2026-05-02T07:19:51Z</time></trkpt><trkpt lat="45.07937891682018" lon="6.901100904844865"><ele>1045.0</ele><time>2026-05-02T07:19:52Z</time></trkpt><trkpt lat="45.079449098854866" lon="6.901145765208227"><ele>1045.0</ele><time>2026-05-02T07:19:53Z</time></trkpt><trkpt lat="45.07950919924263" lon="6.90121838734476"><ele>1045.0</ele><time>2026-05-02T07:19:54Z</time></trkpt><trkpt lat="45.07952755229178" lon="6.901331735822703"><ele>1045.0</ele><time>2026-05-02T07:19:55Z</time></trkpt><trkpt lat="45.07956290455819" lon="6.901452002093582"><ele>1045.0</ele><time>2026-05-02T07:19:56Z</time></trkpt><trkpt lat="45.07958754663478" lon="6.901600865134535"><ele>1042.25</ele><time>2026-05-02T07:19:57Z</time></trkpt><trkpt lat="45.079618817446466" lon="6.901759174571573"><ele>1039.5</ele><time>2026-05-02T07:19:58Z</time></trkpt><trkpt lat="45.079689473909895" lon="6.901915674350116"><ele>1036.75</ele><time>2026-05-02T07:19:59Z</time></trkpt><trkpt lat="45.07981517548821" lon="6.902077619988703"><ele>1034.0</ele><time>2026-05-02T07:20:00Z</time></trkpt><trkpt lat="45.079963506029145" lon="6.902268314479733"><ele>1036.6666666666667</ele><time>2026-05-02T07:20:01Z</time></trkpt><trkpt lat="45.08015762183985" lon="6.902423852400828"><ele>1039.3333333333333</ele><time>2026-05-02T07:20:02Z</time></trkpt><trkpt lat="45.08032631598043" lon="6.902597875009783"><ele>1042.0</ele><time>2026-05-02T07:20:03Z</time></trkpt><trkpt lat="45.08048157676274" lon="6.9027351257801834"><ele>1042.0</ele><time>2026-05-02T07:20:04Z</time></trkpt><trkpt lat="45.080600887878255" lon="6.902884368954059"><ele>1042.0</ele><time>2026-05-02T07:20:05Z</time></trkpt><trkpt lat="45.08070733279445" lon="6.903020851851059"><ele>1042.0</ele><time>2026-05-02T07:20:06Z</time></trkpt><trkpt lat="45.080809519381056" lon="6.903150395333195"><ele>1042.0</ele><time>2026-05-02T07:20:07Z</time></trkpt><trkpt lat="45.08095442581152" lon="6.9033090017833"><ele>1043.75</ele><time>2026-05-02T07:20:08Z</time></trkpt><trkpt lat="45.081065668412464" lon="6.9034922209455525"><ele>1045.5</ele><time>2026-05-02T07:20:09Z</time></trkpt><trkpt lat="45.081164388655736" lon="6.903652478777113"><ele>1047.25</ele><time>2026-05-02T07:20:10Z</time></trkpt><trkpt lat="45.08125163459801" lon="6.903783813825982"><ele>1049.0</ele><time>2026-05-02T07:20:11Z</time></trkpt><trkpt lat="45.08133401595978" lon="6.903883909160563"><ele>1049.0</ele><time>2026-05-02T07:20:12Z</time></trkpt><trkpt lat="45.08143110447549" lon="6.903952332459211"><ele>1049.0</ele><time>2026-05-02T07:20:13Z</time></trkpt><trkpt lat="45.081556847202116" lon="6.904012209606598"><ele>1049.0</ele><time>2026-05-02T07:20:14Z</time></trkpt><trkpt lat="45.08174475357216" lon="6.903951999613379"><ele>1049.0</ele><time>2026-05-02T07:20:15Z</time></trkpt><trkpt lat="45.08190300985571" lon="6.9038895765453185"><ele>1053.5</ele><time>2026-05-02T07:20:16Z</time></trkpt><trkpt lat="45.082042040470704" lon="6.903847284166492"><ele>1058.0</ele><time>2026-05-02T07:20:17Z</time></trkpt><trkpt lat="45.082190509999144" lon="6.903809207600982"><ele>1062.5</ele><time>2026-05-02T07:20:18Z</time></trkpt><trkpt lat="45.082312683427745" lon="6.903821775745835"><ele>1067.0</ele><time>2026-05-02T07:20:19Z</time></trkpt><trkpt lat="45.082403588708594" lon="6.9038458190158485"><ele>1070.2</ele><time>2026-05-02T07:20:20Z</time></trkpt><trkpt lat="45.08246487644319" lon="6.903866700465226"><ele>1073.4</ele><time>2026-05-02T07:20:20.999Z</time></trkpt><trkpt lat="45.082561436559864" lon="6.903930985364328"><ele>1076.6</ele><time>2026-05-02T07:20:22.999Z</time></trkpt><trkpt lat="45.082678887169486" lon="6.9038704921710385"><ele>1079.8</ele><time>2026-05-02T07:20:24.999Z</time></trkpt><trkpt lat="45.08277575233002" lon="6.9039497562870915"><ele>1083.0</ele><time>2026-05-02T07:20:26.999Z</time></trkpt><trkpt lat="45.082851008962336" lon="6.904001916536432"><ele>1083.0</ele><time>2026-05-02T07:20:27.999Z</time></trkpt><trkpt lat="45.082937363787586" lon="6.904057283704712"><ele>1083.0</ele><time>2026-05-02T07:20:28.999Z</time></trkpt><trkpt lat="45.0830273567736" lon="6.9040975133987725"><ele>1083.0</ele><time>2026-05-02T07:20:29.999Z</time></trkpt><trkpt lat="45.08312635947894" lon="6.904133435740846"><ele>1083.0</ele><time>2026-05-02T07:20:30.999Z</time></trkpt><trkpt lat="45.08322340335696" lon="6.9041543009988455"><ele>1083.0</ele><time>2026-05-02T07:20:31.999Z</time></trkpt><trkpt lat="45.08331180105202" lon="6.9041783641238705"><ele>1082.2</ele><time>2026-05-02T07:20:32.999Z</time></trkpt><trkpt lat="45.08341166542041" lon="6.904199110465226"><ele>1081.4</ele><time>2026-05-02T07:20:33.999Z</time></trkpt><trkpt lat="45.083502633106654" lon="6.90425312490018"><ele>1080.6000000000001</ele><time>2026-05-02T07:20:34.999Z</time></trkpt><trkpt lat="45.083594947522336" lon="6.904290502549132"><ele>1079.8</ele><time>2026-05-02T07:20:35.999Z</time></trkpt><trkpt lat="45.08368205740044" lon="6.904369221188677"><ele>1079.0</ele><time>2026-05-02T07:20:36.999Z</time></trkpt><trkpt lat="45.08376879403901" lon="6.904468563220977"><ele>1079.0</ele><time>2026-05-02T07:20:37.999Z</time></trkpt><trkpt lat="45.08384193395861" lon="6.904598041134454"><ele>1079.0</ele><time>2026-05-02T07:20:38.999Z</time></trkpt><trkpt lat="45.0838954809029" lon="6.904732357615743"><ele>1079.0</ele><time>2026-05-02T07:20:39.999Z</time></trkpt><trkpt lat="45.08394442254258" lon="6.904870576972415"><ele>1079.0</ele><time>2026-05-02T07:20:40.999Z</time></trkpt><trkpt lat="45.083994358666615" lon="6.904990254066453"><ele>1079.0</ele><time>2026-05-02T07:20:41.999Z</time></trkpt><trkpt lat="45.08404683745124" lon="6.905092986164281"><ele>1081.5</ele><time>2026-05-02T07:20:42.999Z</time></trkpt><trkpt lat="45.08411016454152" lon="6.905186279304835"><ele>1084.0</ele><time>2026-05-02T07:20:43.999Z</time></trkpt><trkpt lat="45.08418149417267" lon="6.905271875085083"><ele>1086.5</ele><time>2026-05-02T07:20:44.999Z</time></trkpt><trkpt lat="45.08423059125598" lon="6.905342648961581"><ele>1089.0</ele><time>2026-05-02T07:20:45.999Z</time></trkpt><trkpt lat="45.08433481979029" lon="6.905409922832854"><ele>1091.5</ele><time>2026-05-02T07:20:47.999Z</time></trkpt><trkpt lat="45.08438572959623" lon="6.905325334021841"><ele>1094.0</ele><time>2026-05-02T07:20:49.999Z</time></trkpt><trkpt lat="45.084371380685624" lon="6.905209020928496"><ele>1094.0</ele><time>2026-05-02T07:20:51.999Z</time></trkpt><trkpt lat="45.08426623774791" lon="6.905084295473694"><ele>1094.0</ele><time>2026-05-02T07:20:53.999Z</time></trkpt><trkpt lat="45.08421668780157" lon="6.905018290945415"><ele>1094.0</ele><time>2026-05-02T07:20:54.999Z</time></trkpt><trkpt lat="45.084194752655726" lon="6.904885043613805"><ele>1094.0</ele><time>2026-05-02T07:20:56.999Z</time></trkpt><trkpt lat="45.08417280526742" lon="6.904777283548754"><ele>1094.0</ele><time>2026-05-02T07:25:01.999Z</time></trkpt><trkpt lat="45.08416002035007" lon="6.904666967952783"><ele>1096.8</ele><time>2026-05-02T07:25:03.999Z</time></trkpt><trkpt lat="45.08415072644428" lon="6.9045306732525535"><ele>1099.6000000000001</ele><time>2026-05-02T07:25:05.999Z</time></trkpt><trkpt lat="45.08413633105955" lon="6.90443822509524"><ele>1102.4</ele><time>2026-05-02T07:25:10.999Z</time></trkpt><trkpt lat="45.08415196532412" lon="6.904553541531586"><ele>1105.2</ele><time>2026-05-02T07:25:22.999Z</time></trkpt><trkpt lat="45.08416113613309" lon="6.904679294357024"><ele>1108.0</ele><time>2026-05-02T07:25:24.999Z</time></trkpt><trkpt lat="45.084169484119066" lon="6.904847138855834"><ele>1108.0</ele><time>2026-05-02T07:25:26.999Z</time></trkpt><trkpt lat="45.08419541703644" lon="6.90494661260327"><ele>1108.0</ele><time>2026-05-02T07:25:27.999Z</time></trkpt><trkpt lat="45.08423472256076" lon="6.905029295319529"><ele>1108.0</ele><time>2026-05-02T07:25:28.999Z</time></trkpt><trkpt lat="45.0842158355029" lon="6.905308198656998"><ele>1108.0</ele><time>2026-05-02T07:25:29.999Z</time></trkpt><trkpt lat="45.08426248802389" lon="6.905382582992375"><ele>1108.0</ele><time>2026-05-02T07:25:30.999Z</time></trkpt><trkpt lat="45.08431463716817" lon="6.9054351955906546"><ele>1108.0</ele><time>2026-05-02T07:25:32.999Z</time></trkpt><trkpt lat="45.08439432632752" lon="6.905262761059678"><ele>1108.0</ele><time>2026-05-02T07:25:33.999Z</time></trkpt><trkpt lat="45.08435006350412" lon="6.905177144116445"><ele>1108.0</ele><time>2026-05-02T07:25:34.999Z</time></trkpt><trkpt lat="45.08428540035408" lon="6.905091429513648"><ele>1108.0</ele><time>2026-05-02T07:25:35.999Z</time></trkpt><trkpt lat="45.084233284793875" lon="6.905012313341947"><ele>1108.0</ele><time>2026-05-02T07:25:36.999Z</time></trkpt><trkpt lat="45.084169498075305" lon="6.904891926549873"><ele>1108.0</ele><time>2026-05-02T07:25:37.999Z</time></trkpt><trkpt lat="45.0841749393916" lon="6.9047979602112415"><ele>1108.0</ele><time>2026-05-02T07:25:38.999Z</time></trkpt><trkpt lat="45.08415496694935" lon="6.9046404778360815"><ele>1108.0</ele><time>2026-05-02T07:25:39.999Z</time></trkpt><trkpt lat="45.08415024666916" lon="6.904490850061562"><ele>1108.0</ele><time>2026-05-02T07:25:40.999Z</time></trkpt><trkpt lat="45.084122457508" lon="6.9042721222957555"><ele>1108.0</ele><time>2026-05-02T07:25:41.999Z</time></trkpt><trkpt lat="45.084020513284024" lon="6.903915838869896"><ele>1105.5</ele><time>2026-05-02T07:25:42.999Z</time></trkpt><trkpt lat="45.08392539181073" lon="6.903757798749275"><ele>1103.0</ele><time>2026-05-02T07:25:43.999Z</time></trkpt><trkpt lat="45.08386946507452" lon="6.903687432349389"><ele>1100.5</ele><time>2026-05-02T07:25:44.999Z</time></trkpt><trkpt lat="45.08379161941178" lon="6.903590066728901"><ele>1098.0</ele><time>2026-05-02T07:25:45.999Z</time></trkpt><trkpt lat="45.08315052543739" lon="6.904132153768083"><ele>1095.0</ele><time>2026-05-02T07:25:46.999Z</time></trkpt><trkpt lat="45.08304683340825" lon="6.904106161553726"><ele>1092.0</ele><time>2026-05-02T07:25:48Z</time></trkpt><trkpt lat="45.08294932810847" lon="6.904076263737773"><ele>1089.0</ele><time>2026-05-02T07:25:49Z</time></trkpt><trkpt lat="45.082871144598705" lon="6.904019404314788"><ele>1086.0</ele><time>2026-05-02T07:25:50Z</time></trkpt><trkpt lat="45.08280322176282" lon="6.903976065052873"><ele>1083.0</ele><time>2026-05-02T07:25:51Z</time></trkpt><trkpt lat="45.08271844458802" lon="6.9038966019352"><ele>1083.0</ele><time>2026-05-02T07:25:52Z</time></trkpt><trkpt lat="45.082656922754666" lon="6.903853035779856"><ele>1083.0</ele><time>2026-05-02T07:25:53Z</time></trkpt><trkpt lat="45.082590991256446" lon="6.903825701900822"><ele>1083.0</ele><time>2026-05-02T07:25:55Z</time></trkpt><trkpt lat="45.082511959536916" lon="6.9038147662745235"><ele>1083.0</ele><time>2026-05-02T07:26:23Z</time></trkpt><trkpt lat="45.08239711730446" lon="6.903775366171468"><ele>1083.0</ele><time>2026-05-02T07:26:25Z</time></trkpt><trkpt lat="45.08231786921727" lon="6.903729314851506"><ele>1083.0</ele><time>2026-05-02T07:26:26Z</time></trkpt><trkpt lat="45.082216197193475" lon="6.9037274592796"><ele>1079.0</ele><time>2026-05-02T07:26:27Z</time></trkpt><trkpt lat="45.08210495792016" lon="6.903738328061782"><ele>1075.0</ele><time>2026-05-02T07:26:28Z</time></trkpt><trkpt lat="45.08199757966148" lon="6.903758526300275"><ele>1071.0</ele><time>2026-05-02T07:26:29Z</time></trkpt><trkpt lat="45.0818838172725" lon="6.903790579056947"><ele>1067.0</ele><time>2026-05-02T07:26:30Z</time></trkpt><trkpt lat="45.08177010453108" lon="6.903823562606359"><ele>1067.0</ele><time>2026-05-02T07:26:31Z</time></trkpt><trkpt lat="45.081665772331824" lon="6.903867919728693"><ele>1067.0</ele><time>2026-05-02T07:26:32Z</time></trkpt><trkpt lat="45.081557785115116" lon="6.903859783456515"><ele>1067.0</ele><time>2026-05-02T07:26:33Z</time></trkpt><trkpt lat="45.0814532092553" lon="6.903821575351842"><ele>1067.0</ele><time>2026-05-02T07:26:34Z</time></trkpt><trkpt lat="45.0813652928402" lon="6.903725892065299"><ele>1067.0</ele><time>2026-05-02T07:26:34.999Z</time></trkpt><trkpt lat="45.0812747660524" lon="6.903626805866227"><ele>1067.0</ele><time>2026-05-02T07:26:35.999Z</time></trkpt><trkpt lat="45.08119044599455" lon="6.903493231639675"><ele>1067.0</ele><time>2026-05-02T07:26:36.999Z</time></trkpt><trkpt lat="45.08110625629938" lon="6.903354390589312"><ele>1067.0</ele><time>2026-05-02T07:26:37.999Z</time></trkpt><trkpt lat="45.08102041092436" lon="6.903217121677562"><ele>1067.0</ele><time>2026-05-02T07:26:38.999Z</time></trkpt><trkpt lat="45.080941600389046" lon="6.903075423323078"><ele>1067.0</ele><time>2026-05-02T07:26:39.999Z</time></trkpt><trkpt lat="45.080835519971906" lon="6.902960172520085"><ele>1067.0</ele><time>2026-05-02T07:26:40.999Z</time></trkpt><trkpt lat="45.080716535758" lon="6.902875302128838"><ele>1067.0</ele><time>2026-05-02T07:26:41.999Z</time></trkpt><trkpt lat="45.08061217904037" lon="6.902761307186763"><ele>1067.0</ele><time>2026-05-02T07:26:42.999Z</time></trkpt><trkpt lat="45.08049222132819" lon="6.9026719538496915"><ele>1064.25</ele><time>2026-05-02T07:26:43.999Z</time></trkpt><trkpt lat="45.080377994017425" lon="6.902573378449508"><ele>1061.5</ele><time>2026-05-02T07:26:44.999Z</time></trkpt><trkpt lat="45.080266077157354" lon="6.90248257705659"><ele>1058.75</ele><time>2026-05-02T07:26:45.999Z</time></trkpt><trkpt lat="45.080156951895525" lon="6.902389168921194"><ele>1056.0</ele><time>2026-05-02T07:26:46.999Z</time></trkpt><trkpt lat="45.08005576904111" lon="6.902295493646338"><ele>1056.0</ele><time>2026-05-02T07:26:47.999Z</time></trkpt><trkpt lat="45.07996313711427" lon="6.902202403701388"><ele>1056.0</ele><time>2026-05-02T07:26:48.999Z</time></trkpt><trkpt lat="45.07986635502359" lon="6.902114302748677"><ele>1056.0</ele><time>2026-05-02T07:26:49.999Z</time></trkpt><trkpt lat="45.0797844245437" lon="6.902009679216438"><ele>1056.0</ele><time>2026-05-02T07:26:50.999Z</time></trkpt><trkpt lat="45.07971662826546" lon="6.901880803877425"><ele>1053.8</ele><time>2026-05-02T07:26:51.999Z</time></trkpt><trkpt lat="45.079660172084814" lon="6.901748653607828"><ele>1051.6</ele><time>2026-05-02T07:26:52.999Z</time></trkpt><trkpt lat="45.079618235421286" lon="6.901618413234184"><ele>1049.4</ele><time>2026-05-02T07:26:53.999Z</time></trkpt><trkpt lat="45.079589847971434" lon="6.901490308198448"><ele>1047.2</ele><time>2026-05-02T07:26:54.999Z</time></trkpt><trkpt lat="45.07957736773415" lon="6.901363391224951"><ele>1045.0</ele><time>2026-05-02T07:26:55.999Z</time></trkpt><trkpt lat="45.07955638804674" lon="6.901245158269809"><ele>1045.0</ele><time>2026-05-02T07:26:56.999Z</time></trkpt><trkpt lat="45.0795219672288" lon="6.901153131076604"><ele>1045.0</ele><time>2026-05-02T07:26:57.999Z</time></trkpt><trkpt lat="45.07946904268224" lon="6.901079538060092"><ele>1045.0</ele><time>2026-05-02T07:26:58.999Z</time></trkpt><trkpt lat="45.07940177604584" lon="6.901051503742505"><ele>1045.0</ele><time>2026-05-02T07:26:59.999Z</time></trkpt><trkpt lat="45.079326331890336" lon="6.901041334495965"><ele>1045.0</ele><time>2026-05-02T07:27:00.999Z</time></trkpt><trkpt lat="45.07925140902497" lon="6.901077077140606"><ele>1045.0</ele><time>2026-05-02T07:27:01.999Z</time></trkpt><trkpt lat="45.07919266005751" lon="6.901156078700775"><ele>1045.0</ele><time>2026-05-02T07:27:02.999Z</time></trkpt><trkpt lat="45.079171956413255" lon="6.901266434345016"><ele>1045.0</ele><time>2026-05-02T07:27:03.999Z</time></trkpt><trkpt lat="45.079155656093086" lon="6.901384789939882"><ele>1045.0</ele><time>2026-05-02T07:27:04.999Z</time></trkpt><trkpt lat="45.07916775244135" lon="6.901514824850401"><ele>1045.0</ele><time>2026-05-02T07:27:05.999Z</time></trkpt><trkpt lat="45.07919485277179" lon="6.901643616301475"><ele>1045.0</ele><time>2026-05-02T07:27:06.999Z</time></trkpt><trkpt lat="45.07924031446847" lon="6.901777525365154"><ele>1042.25</ele><time>2026-05-02T07:27:07.999Z</time></trkpt><trkpt lat="45.079311534289516" lon="6.9018958831648165"><ele>1039.5</ele><time>2026-05-02T07:27:08.999Z</time></trkpt><trkpt lat="45.0793839986473" lon="6.902031144384536"><ele>1036.75</ele><time>2026-05-02T07:27:09.999Z</time></trkpt><trkpt lat="45.079456626405225" lon="6.902170554968224"><ele>1034.0</ele><time>2026-05-02T07:27:10.999Z</time></trkpt><trkpt lat="45.079544259397935" lon="6.902311412889295"><ele>1034.0</ele><time>2026-05-02T07:27:11.999Z</time></trkpt><trkpt lat="45.079632366256305" lon="6.9024671955974"><ele>1034.0</ele><time>2026-05-02T07:27:12.999Z</time></trkpt><trkpt lat="45.07972030124175" lon="6.902620792039951"><ele>1034.0</ele><time>2026-05-02T07:27:13.999Z</time></trkpt><trkpt lat="45.079806362509316" lon="6.90277742272176"><ele>1034.0</ele><time>2026-05-02T07:27:14.999Z</time></trkpt><trkpt lat="45.079888717030194" lon="6.902928493183525"><ele>1033.5</ele><time>2026-05-02T07:27:15.999Z</time></trkpt><trkpt lat="45.0799677726259" lon="6.9030694295796335"><ele>1033.0</ele><time>2026-05-02T07:27:16.999Z</time></trkpt><trkpt lat="45.080047887318884" lon="6.903206701593688"><ele>1032.5</ele><time>2026-05-02T07:27:17.999Z</time></trkpt><trkpt lat="45.08012987749599" lon="6.903331871013368"><ele>1032.0</ele><time>2026-05-02T07:27:18.999Z</time></trkpt><trkpt lat="45.08019039850637" lon="6.903452827557647"><ele>1032.0</ele><time>2026-05-02T07:27:19.999Z</time></trkpt><trkpt lat="45.08021760558853" lon="6.903560270158373"><ele>1032.0</ele><time>2026-05-02T07:27:20.999Z</time></trkpt><trkpt lat="45.08020210836714" lon="6.90366808919996"><ele>1032.0</ele><time>2026-05-02T07:27:21.999Z</time></trkpt><trkpt lat="45.080142925017846" lon="6.903750793225494"><ele>1032.0</ele><time>2026-05-02T07:27:22.999Z</time></trkpt><trkpt lat="45.0800616827408" lon="6.903774516142709"><ele>1032.0</ele><time>2026-05-02T07:27:23.999Z</time></trkpt><trkpt lat="45.07997571125854" lon="6.903718879961613"><ele>1032.0</ele><time>2026-05-02T07:27:24.999Z</time></trkpt><trkpt lat="45.07989677904711" lon="6.903601974561858"><ele>1030.3333333333333</ele><time>2026-05-02T07:27:25.999Z</time></trkpt><trkpt lat="45.07980518754778" lon="6.903451668143266"><ele>1028.6666666666665</ele><time>2026-05-02T07:27:26.999Z</time></trkpt><trkpt lat="45.079700881646836" lon="6.903288506991291"><ele>1027.0</ele><time>2026-05-02T07:27:27.999Z</time></trkpt><trkpt lat="45.07959337154636" lon="6.903121070898748"><ele>1027.0</ele><time>2026-05-02T07:27:28.999Z</time></trkpt><trkpt lat="45.07948143692792" lon="6.9029419982831755"><ele>1027.0</ele><time>2026-05-02T07:27:29.999Z</time></trkpt><trkpt lat="45.0793579891841" lon="6.902763245290699"><ele>1027.0</ele><time>2026-05-02T07:27:30.999Z</time></trkpt><trkpt lat="45.07922208520292" lon="6.902601928225637"><ele>1021.3333333333333</ele><time>2026-05-02T07:27:31.999Z</time></trkpt><trkpt lat="45.07907343294353" lon="6.902475398925824"><ele>1015.6666666666667</ele><time>2026-05-02T07:27:32.999Z</time></trkpt><trkpt lat="45.07894475781177" lon="6.902358575953883"><ele>1010.0</ele><time>2026-05-02T07:27:33.999Z</time></trkpt><trkpt lat="45.078843145817984" lon="6.902214809624334"><ele>1010.0</ele><time>2026-05-02T07:27:34.999Z</time></trkpt><trkpt lat="45.07877300451543" lon="6.902049807879497"><ele>1010.0</ele><time>2026-05-02T07:27:35.999Z</time></trkpt><trkpt lat="45.078736489427314" lon="6.9018682369396425"><ele>1010.0</ele><time>2026-05-02T07:27:36.999Z</time></trkpt><trkpt lat="45.07872362319473" lon="6.901661373245847"><ele>1010.0</ele><time>2026-05-02T07:27:37.999Z</time></trkpt><trkpt lat="45.0786997368385" lon="6.901443925489323"><ele>1010.6666666666667</ele><time>2026-05-02T07:27:38.999Z</time></trkpt><trkpt lat="45.07867913505756" lon="6.901213614286123"><ele>1011.3333333333333</ele><time>2026-05-02T07:27:39.999Z</time></trkpt><trkpt lat="45.07866023154601" lon="6.9009754830634975"><ele>1012.0</ele><time>2026-05-02T07:27:40.999Z</time></trkpt><trkpt lat="45.078651155974335" lon="6.900747915893595"><ele>1011.6666666666666</ele><time>2026-05-02T07:27:41.999Z</time></trkpt><trkpt lat="45.07867377975853" lon="6.900524830908883"><ele>1011.3333333333333</ele><time>2026-05-02T07:27:42.999Z</time></trkpt><trkpt lat="45.07872461340336" lon="6.90030033298387"><ele>1011.0</ele><time>2026-05-02T07:27:43.999Z</time></trkpt><trkpt lat="45.0788057813022" lon="6.90006340217687"><ele>1011.0</ele><time>2026-05-02T07:27:44.999Z</time></trkpt><trkpt lat="45.078926571746905" lon="6.899830940633297"><ele>1011.0</ele><time>2026-05-02T07:27:45.999Z</time></trkpt><trkpt lat="45.079043665293085" lon="6.899597392986257"><ele>1011.0</ele><time>2026-05-02T07:27:46.999Z</time></trkpt><trkpt lat="45.07914703356151" lon="6.899347383944649"><ele>1016.6666666666667</ele><time>2026-05-02T07:27:47.999Z</time></trkpt><trkpt lat="45.079261646206" lon="6.899102308134878"><ele>1022.3333333333334</ele><time>2026-05-02T07:27:48.999Z</time></trkpt><trkpt lat="45.079351261408256" lon="6.898887872257826"><ele>1028.0</ele><time>2026-05-02T07:27:49.999Z</time></trkpt><trkpt lat="45.079419963964554" lon="6.898692709385255"><ele>1028.0</ele><time>2026-05-02T07:27:50.999Z</time></trkpt><trkpt lat="45.079486312105495" lon="6.8985251487110615"><ele>1028.0</ele><time>2026-05-02T07:27:51.999Z</time></trkpt><trkpt lat="45.07949173676385" lon="6.8983271280036"><ele>1028.0</ele><time>2026-05-02T07:27:52.999Z</time></trkpt><trkpt lat="45.079494110288756" lon="6.8981234268556415"><ele>1028.0</ele><time>2026-05-02T07:27:54Z</time></trkpt><trkpt lat="45.07942395271435" lon="6.897929373772019"><ele>1027.0</ele><time>2026-05-02T07:27:55Z</time></trkpt><trkpt lat="45.079353477368144" lon="6.897724195261497"><ele>1026.0</ele><time>2026-05-02T07:27:56Z</time></trkpt><trkpt lat="45.079270268043196" lon="6.897508928397306"><ele>1025.0</ele><time>2026-05-02T07:27:57Z</time></trkpt><trkpt lat="45.07925102608686" lon="6.8972560142150305"><ele>1025.0</ele><time>2026-05-02T07:27:58Z</time></trkpt><trkpt lat="45.07923234572704" lon="6.896951015702318"><ele>1025.0</ele><time>2026-05-02T07:27:59Z</time></trkpt><trkpt lat="45.079217152547585" lon="6.896654199153642"><ele>1025.0</ele><time>2026-05-02T07:28:00Z</time></trkpt><trkpt lat="45.07922106014123" lon="6.896387163934044"><ele>1024.6666666666667</ele><time>2026-05-02T07:28:01Z</time></trkpt><trkpt lat="45.079255540611115" lon="6.896122371842723"><ele>1024.3333333333333</ele><time>2026-05-02T07:28:02Z</time></trkpt><trkpt lat="45.079287627673715" lon="6.895851235633967"><ele>1024.0</ele><time>2026-05-02T07:28:03Z</time></trkpt><trkpt lat="45.07933294456947" lon="6.895617513135276"><ele>1025.75</ele><time>2026-05-02T07:28:04Z</time></trkpt><trkpt lat="45.07936047744916" lon="6.895416229518445"><ele>1027.5</ele><time>2026-05-02T07:28:05Z</time></trkpt><trkpt lat="45.07933621317869" lon="6.895217614211187"><ele>1029.25</ele><time>2026-05-02T07:28:06Z</time></trkpt><trkpt lat="45.07927974927942" lon="6.895012574145256"><ele>1031.0</ele><time>2026-05-02T07:28:07Z</time></trkpt><trkpt lat="45.07920557124082" lon="6.894801781507142"><ele>1031.3333333333335</ele><time>2026-05-02T07:28:08Z</time></trkpt><trkpt lat="45.07911343755698" lon="6.894591974806855"><ele>1031.6666666666667</ele><time>2026-05-02T07:28:09Z</time></trkpt><trkpt lat="45.07901529011784" lon="6.89438801440905"><ele>1032.0</ele><time>2026-05-02T07:28:10Z</time></trkpt><trkpt lat="45.078911706573386" lon="6.894177729151757"><ele>1026.0</ele><time>2026-05-02T07:28:11Z</time></trkpt><trkpt lat="45.07882198335358" lon="6.893969437305467"><ele>1020.0</ele><time>2026-05-02T07:28:12Z</time></trkpt><trkpt lat="45.07872768471371" lon="6.893759027828322"><ele>1014.0</ele><time>2026-05-02T07:28:13Z</time></trkpt><trkpt lat="45.078624921604835" lon="6.893540267362714"><ele>1018.6666666666667</ele><time>2026-05-02T07:28:14Z</time></trkpt><trkpt lat="45.07852832028031" lon="6.893301117655751"><ele>1023.3333333333334</ele><time>2026-05-02T07:28:15Z</time></trkpt><trkpt lat="45.07841435952467" lon="6.893078691710805"><ele>1028.0</ele><time>2026-05-02T07:28:16Z</time></trkpt><trkpt lat="45.07829071192712" lon="6.892874350782132"><ele>1021.3333333333334</ele><time>2026-05-02T07:28:17Z</time></trkpt><trkpt lat="45.078183113193894" lon="6.892651468106565"><ele>1014.6666666666667</ele><time>2026-05-02T07:28:18Z</time></trkpt><trkpt lat="45.07807612595484" lon="6.892417056703505"><ele>1008.0</ele><time>2026-05-02T07:28:19Z</time></trkpt><trkpt lat="45.07797289016461" lon="6.892169776339094"><ele>1008.0</ele><time>2026-05-02T07:28:20Z</time></trkpt><trkpt lat="45.0778728718298" lon="6.891917677404035"><ele>1008.0</ele><time>2026-05-02T07:28:21Z</time></trkpt><trkpt lat="45.07774623756894" lon="6.891684922514385"><ele>1008.0</ele><time>2026-05-02T07:28:22Z</time></trkpt><trkpt lat="45.07761152777979" lon="6.891469799162026"><ele>1007.0</ele><time>2026-05-02T07:28:23Z</time></trkpt><trkpt lat="45.077468248429525" lon="6.8912837329098915"><ele>1006.0</ele><time>2026-05-02T07:28:24Z</time></trkpt><trkpt lat="45.07734437403445" lon="6.8910807342656"><ele>1005.0</ele><time>2026-05-02T07:28:25Z</time></trkpt><trkpt lat="45.07722735120896" lon="6.890857253819348"><ele>1005.0</ele><time>2026-05-02T07:28:26Z</time></trkpt><trkpt lat="45.0771177646285" lon="6.890607599803353"><ele>1005.0</ele><time>2026-05-02T07:28:27Z</time></trkpt><trkpt lat="45.07702265096507" lon="6.890338625784584"><ele>1005.0</ele><time>2026-05-02T07:28:28Z</time></trkpt><trkpt lat="45.07692908007823" lon="6.890087795310756"><ele>1005.6666666666667</ele><time>2026-05-02T07:28:29Z</time></trkpt><trkpt lat="45.076818986281125" lon="6.889862866054472"><ele>1006.3333333333334</ele><time>2026-05-02T07:28:30Z</time></trkpt><trkpt lat="45.076696603989774" lon="6.8896623308984895"><ele>1007.0</ele><time>2026-05-02T07:28:31Z</time></trkpt><trkpt lat="45.07657638158038" lon="6.889473872787411"><ele>1007.0</ele><time>2026-05-02T07:28:32Z</time></trkpt><trkpt lat="45.07646996059147" lon="6.889295924125747"><ele>1007.0</ele><time>2026-05-02T07:28:33Z</time></trkpt><trkpt lat="45.07636415612767" lon="6.8891371638075265"><ele>1007.0</ele><time>2026-05-02T07:28:34Z</time></trkpt><trkpt lat="45.07625788135174" lon="6.888982567453456"><ele>1008.0</ele><time>2026-05-02T07:28:35Z</time></trkpt><trkpt lat="45.07614684852576" lon="6.888827951587645"><ele>1009.0</ele><time>2026-05-02T07:28:36Z</time></trkpt><trkpt lat="45.076033763770155" lon="6.888684407774443"><ele>1010.0</ele><time>2026-05-02T07:28:36.999Z</time></trkpt><trkpt lat="45.075935357053744" lon="6.88851808004073"><ele>1008.5</ele><time>2026-05-02T07:28:37.999Z</time></trkpt><trkpt lat="45.075869885934665" lon="6.888324046115756"><ele>1007.0</ele><time>2026-05-02T07:28:38.999Z</time></trkpt><trkpt lat="45.07579753584675" lon="6.888142089758468"><ele>1005.5</ele><time>2026-05-02T07:28:39.999Z</time></trkpt><trkpt lat="45.075716373230236" lon="6.887969961613527"><ele>1004.0</ele><time>2026-05-02T07:28:40.999Z</time></trkpt><trkpt lat="45.075637054383336" lon="6.887807536591939"><ele>1004.0</ele><time>2026-05-02T07:28:41.999Z</time></trkpt><trkpt lat="45.075549274491735" lon="6.887642694706137"><ele>1004.0</ele><time>2026-05-02T07:28:42.999Z</time></trkpt><trkpt lat="45.075439790737235" lon="6.887497146260387"><ele>1004.0</ele><time>2026-05-02T07:28:43.999Z</time></trkpt><trkpt lat="45.075320836923765" lon="6.887367232214449"><ele>1004.0</ele><time>2026-05-02T07:28:44.999Z</time></trkpt><trkpt lat="45.07519983166811" lon="6.8872630024757955"><ele>1004.75</ele><time>2026-05-02T07:28:45.999Z</time></trkpt><trkpt lat="45.07507965723173" lon="6.887137699447351"><ele>1005.5</ele><time>2026-05-02T07:28:46.999Z</time></trkpt><trkpt lat="45.07498055168703" lon="6.886982481650335"><ele>1006.25</ele><time>2026-05-02T07:28:47.999Z</time></trkpt><trkpt lat="45.07489392651694" lon="6.886817908228673"><ele>1007.0</ele><time>2026-05-02T07:28:48.999Z</time></trkpt><trkpt lat="45.07481714830288" lon="6.886641913313043"><ele>1007.3333333333334</ele><time>2026-05-02T07:28:49.999Z</time></trkpt><trkpt lat="45.074721477070625" lon="6.886482343230684"><ele>1007.6666666666667</ele><time>2026-05-02T07:28:50.999Z</time></trkpt><trkpt lat="45.074624599191274" lon="6.886314358298943"><ele>1008.0</ele><time>2026-05-02T07:28:51.999Z</time></trkpt><trkpt lat="45.074518938576865" lon="6.886150876620615"><ele>1008.0</ele><time>2026-05-02T07:28:52.999Z</time></trkpt><trkpt lat="45.07441513152219" lon="6.88599072161708"><ele>1008.0</ele><time>2026-05-02T07:28:53.999Z</time></trkpt><trkpt lat="45.074319205124795" lon="6.885845942251043"><ele>1008.0</ele><time>2026-05-02T07:28:54.999Z</time></trkpt><trkpt lat="45.07423028345593" lon="6.885723836443328"><ele>1008.0</ele><time>2026-05-02T07:28:55.999Z</time></trkpt><trkpt lat="45.07414641152231" lon="6.8856253363293005"><ele>1009.2</ele><time>2026-05-02T07:28:56.999Z</time></trkpt><trkpt lat="45.07406746938624" lon="6.88551867521029"><ele>1010.4</ele><time>2026-05-02T07:28:57.999Z</time></trkpt><trkpt lat="45.073976882574115" lon="6.885435659156552"><ele>1011.6000000000001</ele><time>2026-05-02T07:28:58.999Z</time></trkpt><trkpt lat="45.07387103739437" lon="6.885374578573538"><ele>1012.8000000000001</ele><time>2026-05-02T07:28:59.999Z</time></trkpt><trkpt lat="45.073772153292595" lon="6.885305644729455"><ele>1014.0</ele><time>2026-05-02T07:29:00.999Z</time></trkpt><trkpt lat="45.07366839933235" lon="6.88524361833311"><ele>1014.0</ele><time>2026-05-02T07:29:01.999Z</time></trkpt><trkpt lat="45.07355935583704" lon="6.8851871063215855"><ele>1014.0</ele><time>2026-05-02T07:29:02.999Z</time></trkpt><trkpt lat="45.07344670142863" lon="6.885138759679909"><ele>1014.0</ele><time>2026-05-02T07:29:03.999Z</time></trkpt><trkpt lat="45.07333156190039" lon="6.885061939519217"><ele>1014.0</ele><time>2026-05-02T07:29:04.999Z</time></trkpt><trkpt lat="45.07321349588629" lon="6.885017266291657"><ele>1015.75</ele><time>2026-05-02T07:29:05.999Z</time></trkpt><trkpt lat="45.073093807199854" lon="6.884968303882301"><ele>1017.5</ele><time>2026-05-02T07:29:06.999Z</time></trkpt><trkpt lat="45.072963627205304" lon="6.884939970946522"><ele>1019.25</ele><time>2026-05-02T07:29:07.999Z</time></trkpt><trkpt lat="45.07283541168695" lon="6.884886108714057"><ele>1021.0</ele><time>2026-05-02T07:29:08.999Z</time></trkpt><trkpt lat="45.07270764728818" lon="6.884834018566306"><ele>1021.0</ele><time>2026-05-02T07:29:09.999Z</time></trkpt><trkpt lat="45.07258143124239" lon="6.884786471749343"><ele>1021.0</ele><time>2026-05-02T07:29:10.999Z</time></trkpt><trkpt lat="45.07245199405165" lon="6.884735058401567"><ele>1021.0</ele><time>2026-05-02T07:29:11.999Z</time></trkpt><trkpt lat="45.072321896431575" lon="6.884682881977265"><ele>1021.0</ele><time>2026-05-02T07:29:12.999Z</time></trkpt><trkpt lat="45.07219177144716" lon="6.884632455571182"><ele>1019.5</ele><time>2026-05-02T07:29:13.999Z</time></trkpt><trkpt lat="45.072065313787064" lon="6.8845829141188215"><ele>1018.0</ele><time>2026-05-02T07:29:14.999Z</time></trkpt><trkpt lat="45.07193931195314" lon="6.8845189336870565"><ele>1016.5</ele><time>2026-05-02T07:29:15.999Z</time></trkpt><trkpt lat="45.0718091097666" lon="6.884464360043533"><ele>1015.0</ele><time>2026-05-02T07:29:16.999Z</time></trkpt><trkpt lat="45.07167679497658" lon="6.884410195338159"><ele>1014.75</ele><time>2026-05-02T07:29:17.999Z</time></trkpt><trkpt lat="45.071541174136435" lon="6.884360589451345"><ele>1014.5</ele><time>2026-05-02T07:29:18.999Z</time></trkpt><trkpt lat="45.07140422974455" lon="6.884308817647428"><ele>1014.25</ele><time>2026-05-02T07:29:19.999Z</time></trkpt><trkpt lat="45.071280248358036" lon="6.884251364561462"><ele>1014.0</ele><time>2026-05-02T07:29:20.999Z</time></trkpt><trkpt lat="45.07115051818366" lon="6.8841802118890385"><ele>1014.25</ele><time>2026-05-02T07:29:21.999Z</time></trkpt><trkpt lat="45.07102930383442" lon="6.884098186893401"><ele>1014.5</ele><time>2026-05-02T07:29:22.999Z</time></trkpt><trkpt lat="45.07091199835395" lon="6.883996234095838"><ele>1014.75</ele><time>2026-05-02T07:29:23.999Z</time></trkpt><trkpt lat="45.07080154266981" lon="6.883880858656523"><ele>1015.0</ele><time>2026-05-02T07:29:24.999Z</time></trkpt><trkpt lat="45.07070263525055" lon="6.883739622936887"><ele>1015.0</ele><time>2026-05-02T07:29:25.999Z</time></trkpt><trkpt lat="45.07060747290124" lon="6.883579106628296"><ele>1015.0</ele><time>2026-05-02T07:29:26.999Z</time></trkpt><trkpt lat="45.070510608500136" lon="6.883393967081913"><ele>1015.0</ele><time>2026-05-02T07:29:27.999Z</time></trkpt><trkpt lat="45.070411165633764" lon="6.883200181192834"><ele>1018.0</ele><time>2026-05-02T07:29:28.999Z</time></trkpt><trkpt lat="45.07030330665214" lon="6.882979633947299"><ele>1021.0</ele><time>2026-05-02T07:29:29.999Z</time></trkpt><trkpt lat="45.07019192225229" lon="6.882747246918046"><ele>1024.0</ele><time>2026-05-02T07:29:30.999Z</time></trkpt><trkpt lat="45.070088026783026" lon="6.88251682743541"><ele>1023.0</ele><time>2026-05-02T07:29:31.999Z</time></trkpt><trkpt lat="45.06998147057666" lon="6.882297480524162"><ele>1022.0</ele><time>2026-05-02T07:29:32.999Z</time></trkpt><trkpt lat="45.06988512203351" lon="6.882067645041159"><ele>1021.0</ele><time>2026-05-02T07:29:33.999Z</time></trkpt><trkpt lat="45.06980377158264" lon="6.8818165706523615"><ele>1023.3333333333333</ele><time>2026-05-02T07:29:34.999Z</time></trkpt><trkpt lat="45.069733692939025" lon="6.881556286624568"><ele>1025.6666666666667</ele><time>2026-05-02T07:29:35.999Z</time></trkpt><trkpt lat="45.06966848917262" lon="6.881297414049401"><ele>1028.0</ele><time>2026-05-02T07:29:36.999Z</time></trkpt><trkpt lat="45.06960739057884" lon="6.88104539636626"><ele>1030.3333333333335</ele><time>2026-05-02T07:29:37.999Z</time></trkpt><trkpt lat="45.06954476712921" lon="6.880797838964244"><ele>1032.6666666666667</ele><time>2026-05-02T07:29:38.999Z</time></trkpt><trkpt lat="45.069478492811875" lon="6.880562899731153"><ele>1035.0</ele><time>2026-05-02T07:29:39.999Z</time></trkpt><trkpt lat="45.069414451246615" lon="6.880309938725864"><ele>1035.6666666666667</ele><time>2026-05-02T07:29:40.999Z</time></trkpt><trkpt lat="45.069352583802036" lon="6.880054888131125"><ele>1036.3333333333335</ele><time>2026-05-02T07:29:41.999Z</time></trkpt><trkpt lat="45.06928327948526" lon="6.879793220869589"><ele>1037.0</ele><time>2026-05-02T07:29:42.999Z</time></trkpt><trkpt lat="45.06921449986043" lon="6.879532312986951"><ele>1037.0</ele><time>2026-05-02T07:29:43.999Z</time></trkpt><trkpt lat="45.06914740247705" lon="6.879275621438781"><ele>1037.0</ele><time>2026-05-02T07:29:44.999Z</time></trkpt><trkpt lat="45.06907437797325" lon="6.879024956216598"><ele>1037.0</ele><time>2026-05-02T07:29:45.999Z</time></trkpt><trkpt lat="45.06898118246849" lon="6.8787798700942915"><ele>1035.3333333333335</ele><time>2026-05-02T07:29:46.999Z</time></trkpt><trkpt lat="45.06886700703416" lon="6.878547408042552"><ele>1033.6666666666667</ele><time>2026-05-02T07:29:47.999Z</time></trkpt><trkpt lat="45.068737976802836" lon="6.878333573277551"><ele>1032.0</ele><time>2026-05-02T07:29:48.999Z</time></trkpt><trkpt lat="45.068591959575436" lon="6.878133892642328"><ele>1032.0</ele><time>2026-05-02T07:29:49.999Z</time></trkpt><trkpt lat="45.06843265792733" lon="6.877920917398611"><ele>1032.0</ele><time>2026-05-02T07:29:50.999Z</time></trkpt><trkpt lat="45.068243291100465" lon="6.877700381937612"><ele>1029.0</ele><time>2026-05-02T07:29:51.999Z</time></trkpt><trkpt lat="45.06803540841427" lon="6.877460563300496"><ele>1026.0</ele><time>2026-05-02T07:29:52.999Z</time></trkpt><trkpt lat="45.06781340858747" lon="6.877204737030065"><ele>1026.0</ele><time>2026-05-02T07:29:53.999Z</time></trkpt><trkpt lat="45.067604165980114" lon="6.876963656701689"><ele>1026.0</ele><time>2026-05-02T07:29:54.999Z</time></trkpt><trkpt lat="45.06740606837654" lon="6.876733885034428"><ele>1027.0</ele><time>2026-05-02T07:29:55.999Z</time></trkpt><trkpt lat="45.06721445082127" lon="6.876504169128163"><ele>1028.0</ele><time>2026-05-02T07:29:56.999Z</time></trkpt><trkpt lat="45.06702900126657" lon="6.876271210520481"><ele>1028.0</ele><time>2026-05-02T07:29:57.999Z</time></trkpt><trkpt lat="45.06684374026476" lon="6.876036183068129"><ele>1028.0</ele><time>2026-05-02T07:29:58.999Z</time></trkpt><trkpt lat="45.06665154489383" lon="6.87579235846683"><ele>1028.0</ele><time>2026-05-02T07:30:00Z</time></trkpt><trkpt lat="45.06645807555274" lon="6.875546917724075"><ele>1028.0</ele><time>2026-05-02T07:30:01Z</time></trkpt><trkpt lat="45.0662523245358" lon="6.875298854060358"><ele>1027.5</ele><time>2026-05-02T07:30:02Z</time></trkpt><trkpt lat="45.06604477653269" lon="6.875038308806078"><ele>1027.0</ele><time>2026-05-02T07:30:03Z</time></trkpt><trkpt lat="45.06585715086309" lon="6.874809009699821"><ele>1026.6666666666665</ele><time>2026-05-02T07:30:04Z</time></trkpt><trkpt lat="45.06568770609731" lon="6.874598971706593"><ele>1026.3333333333333</ele><time>2026-05-02T07:30:05Z</time></trkpt><trkpt lat="45.065525226816966" lon="6.8743949625692276"><ele>1026.0</ele><time>2026-05-02T07:30:06Z</time></trkpt><trkpt lat="45.0653582209868" lon="6.874189920229162"><ele>1026.0</ele><time>2026-05-02T07:30:07Z</time></trkpt><trkpt lat="45.06520285602653" lon="6.873940241062371"><ele>1026.0</ele><time>2026-05-02T07:30:08Z</time></trkpt><trkpt lat="45.06504665571321" lon="6.873681171732922"><ele>1026.0</ele><time>2026-05-02T07:30:09Z</time></trkpt><trkpt lat="45.06488664487563" lon="6.873406273136387"><ele>1026.0</ele><time>2026-05-02T07:30:10Z</time></trkpt><trkpt lat="45.06471611397721" lon="6.87313602015799"><ele>1026.0</ele><time>2026-05-02T07:30:11Z</time></trkpt><trkpt lat="45.06456231214131" lon="6.872862929428161"><ele>1026.0</ele><time>2026-05-02T07:30:12Z</time></trkpt><trkpt lat="45.06441678446066" lon="6.872616607142328"><ele>1026.0</ele><time>2026-05-02T07:30:13Z</time></trkpt><trkpt lat="45.064305268857844" lon="6.872360678383193"><ele>1026.0</ele><time>2026-05-02T07:30:14Z</time></trkpt><trkpt lat="45.064189931454855" lon="6.872109301616732"><ele>1026.0</ele><time>2026-05-02T07:30:15Z</time></trkpt><trkpt lat="45.06407759112056" lon="6.871828124890911"><ele>1025.5</ele><time>2026-05-02T07:30:16Z</time></trkpt><trkpt lat="45.063966998033045" lon="6.871522901866696"><ele>1025.0</ele><time>2026-05-02T07:30:17Z</time></trkpt><trkpt lat="45.0638644163517" lon="6.871212410923924"><ele>1025.0</ele><time>2026-05-02T07:30:18Z</time></trkpt><trkpt lat="45.06375910956268" lon="6.870939797636776"><ele>1025.0</ele><time>2026-05-02T07:30:19Z</time></trkpt><trkpt lat="45.06367214120089" lon="6.870677117606031"><ele>1025.0</ele><time>2026-05-02T07:30:20Z</time></trkpt><trkpt lat="45.063584831785924" lon="6.870443710952066"><ele>1025.0</ele><time>2026-05-02T07:30:21Z</time></trkpt><trkpt lat="45.063488332235956" lon="6.870228821288885"><ele>1025.0</ele><time>2026-05-02T07:30:22Z</time></trkpt><trkpt lat="45.063380510364475" lon="6.870026380657099"><ele>1025.0</ele><time>2026-05-02T07:30:23Z</time></trkpt><trkpt lat="45.06325537926134" lon="6.869881864856477"><ele>1025.0</ele><time>2026-05-02T07:30:24Z</time></trkpt><trkpt lat="45.06312335433656" lon="6.869724021637548"><ele>1025.0</ele><time>2026-05-02T07:30:25Z</time></trkpt><trkpt lat="45.062991635917165" lon="6.869574552707113"><ele>1025.0</ele><time>2026-05-02T07:30:26Z</time></trkpt><trkpt lat="45.06285365589898" lon="6.869460110305084"><ele>1025.0</ele><time>2026-05-02T07:30:27Z</time></trkpt><trkpt lat="45.062726942852876" lon="6.8693106607647625"><ele>1025.0</ele><time>2026-05-02T07:30:28Z</time></trkpt><trkpt lat="45.06259682477669" lon="6.869175853082689"><ele>1025.0</ele><time>2026-05-02T07:30:29Z</time></trkpt><trkpt lat="45.062469628297194" lon="6.8690446011399064"><ele>1025.0</ele><time>2026-05-02T07:30:30Z</time></trkpt><trkpt lat="45.062345986294" lon="6.868918102459287"><ele>1025.0</ele><time>2026-05-02T07:30:31Z</time></trkpt><trkpt lat="45.062224311536475" lon="6.868793616375769"><ele>1025.0</ele><time>2026-05-02T07:30:32Z</time></trkpt><trkpt lat="45.062112298027955" lon="6.86867901478668"><ele>1025.0</ele><time>2026-05-02T07:30:33Z</time></trkpt><trkpt lat="45.06200646097068" lon="6.868568911812265"><ele>1025.0</ele><time>2026-05-02T07:30:34Z</time></trkpt><trkpt lat="45.06190561444115" lon="6.86846972395242"><ele>1025.0</ele><time>2026-05-02T07:30:35Z</time></trkpt><trkpt lat="45.06179092905078" lon="6.868366310146227"><ele>1025.0</ele><time>2026-05-02T07:30:36Z</time></trkpt><trkpt lat="45.0616773162992" lon="6.868249258683036"><ele>1025.0</ele><time>2026-05-02T07:30:37Z</time></trkpt><trkpt lat="45.061558849850805" lon="6.868140825931414"><ele>1025.25</ele><time>2026-05-02T07:30:38Z</time></trkpt><trkpt lat="45.06143879417923" lon="6.868027616482596"><ele>1025.5</ele><time>2026-05-02T07:30:39Z</time></trkpt><trkpt lat="45.061315999734965" lon="6.867919898827887"><ele>1025.75</ele><time>2026-05-02T07:30:40Z</time></trkpt><trkpt lat="45.061192990936945" lon="6.867809098714878"><ele>1026.0</ele><time>2026-05-02T07:30:41Z</time></trkpt><trkpt lat="45.06106803895073" lon="6.867698255906375"><ele>1025.75</ele><time>2026-05-02T07:30:42Z</time></trkpt><trkpt lat="45.06093909298081" lon="6.867591872203485"><ele>1025.5</ele><time>2026-05-02T07:30:43Z</time></trkpt><trkpt lat="45.06081172870517" lon="6.867486424564557"><ele>1025.25</ele><time>2026-05-02T07:30:44Z</time></trkpt><trkpt lat="45.06069931538487" lon="6.867370594473418"><ele>1025.0</ele><time>2026-05-02T07:30:45Z</time></trkpt><trkpt lat="45.06058028311631" lon="6.8672692124599735"><ele>1025.5</ele><time>2026-05-02T07:30:46Z</time></trkpt><trkpt lat="45.06045252824787" lon="6.867184571554326"><ele>1026.0</ele><time>2026-05-02T07:30:47Z</time></trkpt><trkpt lat="45.060338534527745" lon="6.8670581543493014"><ele>1026.5</ele><time>2026-05-02T07:30:48Z</time></trkpt><trkpt lat="45.06020464342635" lon="6.8669412376622105"><ele>1027.0</ele><time>2026-05-02T07:30:49Z</time></trkpt><trkpt lat="45.060071621492675" lon="6.866824850643766"><ele>1027.0</ele><time>2026-05-02T07:30:50Z</time></trkpt><trkpt lat="45.05993168962644" lon="6.8666904021850295"><ele>1027.0</ele><time>2026-05-02T07:30:51Z</time></trkpt><trkpt lat="45.0598127756384" lon="6.866529487427288"><ele>1027.0</ele><time>2026-05-02T07:30:52Z</time></trkpt><trkpt lat="45.059681064367176" lon="6.866384993383729"><ele>1027.0</ele><time>2026-05-02T07:30:53Z</time></trkpt><trkpt lat="45.05954519526951" lon="6.866227009518443"><ele>1027.0</ele><time>2026-05-02T07:30:54Z</time></trkpt><trkpt lat="45.05941314805225" lon="6.866058719847342"><ele>1027.0</ele><time>2026-05-02T07:30:55Z</time></trkpt><trkpt lat="45.059268550435995" lon="6.865890850487443"><ele>1027.0</ele><time>2026-05-02T07:30:56Z</time></trkpt><trkpt lat="45.05913708227247" lon="6.865731095778469"><ele>1027.0</ele><time>2026-05-02T07:30:57Z</time></trkpt><trkpt lat="45.05901696715349" lon="6.865580587285493"><ele>1027.0</ele><time>2026-05-02T07:30:57.999Z</time></trkpt><trkpt lat="45.05890230499932" lon="6.865425358185681"><ele>1028.3333333333333</ele><time>2026-05-02T07:30:58.999Z</time></trkpt><trkpt lat="45.058781775482494" lon="6.865276275513832"><ele>1029.6666666666667</ele><time>2026-05-02T07:30:59.999Z</time></trkpt><trkpt lat="45.058668476094056" lon="6.865103128506197"><ele>1031.0</ele><time>2026-05-02T07:31:00.999Z</time></trkpt><trkpt lat="45.05855410511382" lon="6.8649268056036385"><ele>1031.0</ele><time>2026-05-02T07:31:01.999Z</time></trkpt><trkpt lat="45.0584480109812" lon="6.864746645077215"><ele>1031.0</ele><time>2026-05-02T07:31:02.999Z</time></trkpt><trkpt lat="45.05833956620798" lon="6.864565341360778"><ele>1031.0</ele><time>2026-05-02T07:31:03.999Z</time></trkpt><trkpt lat="45.058232209637254" lon="6.864399472058667"><ele>1031.25</ele><time>2026-05-02T07:31:04.999Z</time></trkpt><trkpt lat="45.05814102096136" lon="6.864242565842557"><ele>1031.5</ele><time>2026-05-02T07:31:05.999Z</time></trkpt><trkpt lat="45.05805548226859" lon="6.864084610253717"><ele>1031.75</ele><time>2026-05-02T07:31:06.999Z</time></trkpt><trkpt lat="45.05796730378358" lon="6.8638992503583784"><ele>1032.0</ele><time>2026-05-02T07:31:07.999Z</time></trkpt><trkpt lat="45.05789254631523" lon="6.8637063885534895"><ele>1032.0</ele><time>2026-05-02T07:31:08.999Z</time></trkpt><trkpt lat="45.0578066334462" lon="6.86351559164197"><ele>1032.0</ele><time>2026-05-02T07:31:09.999Z</time></trkpt><trkpt lat="45.05769757726778" lon="6.863300999934114"><ele>1032.0</ele><time>2026-05-02T07:31:10.999Z</time></trkpt><trkpt lat="45.05757733178349" lon="6.863113391897421"><ele>1032.6666666666667</ele><time>2026-05-02T07:31:11.999Z</time></trkpt><trkpt lat="45.05744927154249" lon="6.862937671238608"><ele>1033.3333333333335</ele><time>2026-05-02T07:31:12.999Z</time></trkpt><trkpt lat="45.05733319392735" lon="6.862787422619769"><ele>1034.0</ele><time>2026-05-02T07:31:13.999Z</time></trkpt><trkpt lat="45.05723140364405" lon="6.8626361533748135"><ele>1033.0</ele><time>2026-05-02T07:31:14.999Z</time></trkpt><trkpt lat="45.057112072728664" lon="6.862467398039414"><ele>1032.0</ele><time>2026-05-02T07:31:15.999Z</time></trkpt><trkpt lat="45.05698902419292" lon="6.862294916124659"><ele>1031.0</ele><time>2026-05-02T07:31:16.999Z</time></trkpt><trkpt lat="45.05687097247243" lon="6.8621114501277996"><ele>1031.0</ele><time>2026-05-02T07:31:17.999Z</time></trkpt><trkpt lat="45.05676296045931" lon="6.86195900383753"><ele>1031.0</ele><time>2026-05-02T07:31:18.999Z</time></trkpt><trkpt lat="45.056664296375565" lon="6.8618066570291"><ele>1031.0</ele><time>2026-05-02T07:31:19.999Z</time></trkpt><trkpt lat="45.056566653740035" lon="6.861655164230343"><ele>1031.0</ele><time>2026-05-02T07:31:20.999Z</time></trkpt><trkpt lat="45.05646521101128" lon="6.861503505875839"><ele>1031.3333333333335</ele><time>2026-05-02T07:31:21.999Z</time></trkpt><trkpt lat="45.05635439507603" lon="6.861350777328865"><ele>1031.6666666666667</ele><time>2026-05-02T07:31:22.999Z</time></trkpt><trkpt lat="45.05625275799793" lon="6.861193242833739"><ele>1032.0</ele><time>2026-05-02T07:31:23.999Z</time></trkpt><trkpt lat="45.056152279938075" lon="6.8610416187892325"><ele>1033.0</ele><time>2026-05-02T07:31:24.999Z</time></trkpt><trkpt lat="45.0560530008723" lon="6.86084563462491"><ele>1034.0</ele><time>2026-05-02T07:31:25.999Z</time></trkpt><trkpt lat="45.05594036510057" lon="6.860679003053225"><ele>1035.0</ele><time>2026-05-02T07:31:26.999Z</time></trkpt><trkpt lat="45.05583844528145" lon="6.860514408676207"><ele>1035.0</ele><time>2026-05-02T07:31:27.999Z</time></trkpt><trkpt lat="45.05574432200017" lon="6.86035553364717"><ele>1035.0</ele><time>2026-05-02T07:31:28.999Z</time></trkpt><trkpt lat="45.055657582121846" lon="6.860164224024051"><ele>1035.0</ele><time>2026-05-02T07:31:29.999Z</time></trkpt><trkpt lat="45.055560907422354" lon="6.859979791569152"><ele>1035.3333333333333</ele><time>2026-05-02T07:31:30.999Z</time></trkpt><trkpt lat="45.055466863481925" lon="6.859784282006356"><ele>1035.6666666666665</ele><time>2026-05-02T07:31:31.999Z</time></trkpt><trkpt lat="45.05536897526178" lon="6.859595484624008"><ele>1036.0</ele><time>2026-05-02T07:31:32.999Z</time></trkpt><trkpt lat="45.05527182305266" lon="6.859398141408689"><ele>1037.6666666666665</ele><time>2026-05-02T07:31:33.999Z</time></trkpt><trkpt lat="45.05517808177981" lon="6.859199662143787"><ele>1039.3333333333333</ele><time>2026-05-02T07:31:34.999Z</time></trkpt><trkpt lat="45.05508818586514" lon="6.859007846217184"><ele>1041.0</ele><time>2026-05-02T07:31:35.999Z</time></trkpt><trkpt lat="45.055001837621596" lon="6.85881718784016"><ele>1040.5</ele><time>2026-05-02T07:31:36.999Z</time></trkpt><trkpt lat="45.05492175669971" lon="6.8586491948021875"><ele>1040.0</ele><time>2026-05-02T07:31:37.999Z</time></trkpt><trkpt lat="45.05484150729908" lon="6.858500422614908"><ele>1039.5</ele><time>2026-05-02T07:31:38.999Z</time></trkpt><trkpt lat="45.05476436893855" lon="6.8583377417833065"><ele>1039.0</ele><time>2026-05-02T07:31:39.999Z</time></trkpt><trkpt lat="45.05469131176636" lon="6.858179043196029"><ele>1039.0</ele><time>2026-05-02T07:31:40.999Z</time></trkpt><trkpt lat="45.05462048464337" lon="6.85801295477907"><ele>1039.0</ele><time>2026-05-02T07:31:41.999Z</time></trkpt><trkpt lat="45.05454842806835" lon="6.857859163775373"><ele>1039.0</ele><time>2026-05-02T07:31:42.999Z</time></trkpt><trkpt lat="45.05446962969825" lon="6.8577081196363485"><ele>1039.0</ele><time>2026-05-02T07:31:43.999Z</time></trkpt><trkpt lat="45.05439273877807" lon="6.8575450968136575"><ele>1038.25</ele><time>2026-05-02T07:31:44.999Z</time></trkpt><trkpt lat="45.05430933120457" lon="6.85738154304522"><ele>1037.5</ele><time>2026-05-02T07:31:45.999Z</time></trkpt><trkpt lat="45.05422434333284" lon="6.857203193005126"><ele>1036.75</ele><time>2026-05-02T07:31:46.999Z</time></trkpt><trkpt lat="45.05414018850732" lon="6.8570262045273855"><ele>1036.0</ele><time>2026-05-02T07:31:47.999Z</time></trkpt><trkpt lat="45.05405504936607" lon="6.85684882035973"><ele>1037.25</ele><time>2026-05-02T07:31:48.999Z</time></trkpt><trkpt lat="45.05397074384711" lon="6.8566765447612665"><ele>1038.5</ele><time>2026-05-02T07:31:49.999Z</time></trkpt><trkpt lat="45.05388853935174" lon="6.8565062768607365"><ele>1039.75</ele><time>2026-05-02T07:31:50.999Z</time></trkpt><trkpt lat="45.053808310864824" lon="6.856345713662753"><ele>1041.0</ele><time>2026-05-02T07:31:51.999Z</time></trkpt><trkpt lat="45.05373164064371" lon="6.856189380138023"><ele>1041.0</ele><time>2026-05-02T07:31:52.999Z</time></trkpt><trkpt lat="45.05364436038638" lon="6.8560447559318884"><ele>1041.0</ele><time>2026-05-02T07:31:53.999Z</time></trkpt><trkpt lat="45.05355839517559" lon="6.8559102975293875"><ele>1041.0</ele><time>2026-05-02T07:31:54.999Z</time></trkpt><trkpt lat="45.0534793852821" lon="6.855768599741042"><ele>1041.0</ele><time>2026-05-02T07:31:55.999Z</time></trkpt><trkpt lat="45.05339357333936" lon="6.855647096155534"><ele>1040.6</ele><time>2026-05-02T07:31:56.999Z</time></trkpt><trkpt lat="45.05331312996692" lon="6.8555358482593185"><ele>1040.1999999999998</ele><time>2026-05-02T07:31:57.999Z</time></trkpt><trkpt lat="45.05324717546572" lon="6.855426417164821"><ele>1039.8000000000002</ele><time>2026-05-02T07:31:58.999Z</time></trkpt><trkpt lat="45.053174885501676" lon="6.8553315175474925"><ele>1039.4</ele><time>2026-05-02T07:31:59.999Z</time></trkpt><trkpt lat="45.053102634001746" lon="6.855239403569415"><ele>1039.0</ele><time>2026-05-02T07:32:00.999Z</time></trkpt><trkpt lat="45.05303413006589" lon="6.855150592327359"><ele>1040.5</ele><time>2026-05-02T07:32:01.999Z</time></trkpt><trkpt lat="45.05297110618977" lon="6.855049513687058"><ele>1042.0</ele><time>2026-05-02T07:32:02.999Z</time></trkpt><trkpt lat="45.052895398031424" lon="6.85494983967994"><ele>1043.5</ele><time>2026-05-02T07:32:03.999Z</time></trkpt><trkpt lat="45.052732434573414" lon="6.854962407766319"><ele>1045.0</ele><time>2026-05-02T07:32:04.999Z</time></trkpt><trkpt lat="45.05259218657117" lon="6.8548851977830445"><ele>1044.3333333333333</ele><time>2026-05-02T07:32:06Z</time></trkpt><trkpt lat="45.0524484162962" lon="6.854796312549917"><ele>1043.6666666666667</ele><time>2026-05-02T07:32:07Z</time></trkpt><trkpt lat="45.05229680122881" lon="6.854698779742749"><ele>1043.0</ele><time>2026-05-02T07:32:08Z</time></trkpt><trkpt lat="45.05215384421511" lon="6.854600581106775"><ele>1043.0</ele><time>2026-05-02T07:32:09Z</time></trkpt><trkpt lat="45.05199927766341" lon="6.854502799113631"><ele>1043.0</ele><time>2026-05-02T07:32:10Z</time></trkpt><trkpt lat="45.05184104772033" lon="6.854397548189947"><ele>1043.0</ele><time>2026-05-02T07:32:11Z</time></trkpt><trkpt lat="45.05169095520481" lon="6.854293947779531"><ele>1042.6666666666667</ele><time>2026-05-02T07:32:12Z</time></trkpt><trkpt lat="45.051535899676104" lon="6.854194549284285"><ele>1042.3333333333333</ele><time>2026-05-02T07:32:13Z</time></trkpt><trkpt lat="45.05138095412307" lon="6.8540918554246435"><ele>1042.0</ele><time>2026-05-02T07:32:14Z</time></trkpt><trkpt lat="45.051234450474986" lon="6.853984652358643"><ele>1042.0</ele><time>2026-05-02T07:32:15Z</time></trkpt><trkpt lat="45.051084285004976" lon="6.853865886767552"><ele>1042.0</ele><time>2026-05-02T07:32:16Z</time></trkpt><trkpt lat="45.05092757324835" lon="6.853741521027826"><ele>1042.0</ele><time>2026-05-02T07:32:17Z</time></trkpt><trkpt lat="45.050762826330455" lon="6.853596950062917"><ele>1042.6666666666665</ele><time>2026-05-02T07:32:18Z</time></trkpt><trkpt lat="45.05059441348629" lon="6.853446891408913"><ele>1043.3333333333333</ele><time>2026-05-02T07:32:19Z</time></trkpt><trkpt lat="45.05043154913578" lon="6.853262579780573"><ele>1044.0</ele><time>2026-05-02T07:32:20Z</time></trkpt><trkpt lat="45.05025564115428" lon="6.853093115230287"><ele>1044.0</ele><time>2026-05-02T07:32:21Z</time></trkpt><trkpt lat="45.050083332508216" lon="6.852929711681165"><ele>1044.0</ele><time>2026-05-02T07:32:22Z</time></trkpt><trkpt lat="45.049919395499934" lon="6.852773164223869"><ele>1044.0</ele><time>2026-05-02T07:32:23Z</time></trkpt><trkpt lat="45.04975232701574" lon="6.852614400698318"><ele>1044.0</ele><time>2026-05-02T07:32:24Z</time></trkpt><trkpt lat="45.049574045125986" lon="6.85247123684602"><ele>1044.0</ele><time>2026-05-02T07:32:25Z</time></trkpt><trkpt lat="45.04940247815812" lon="6.85230471041112"><ele>1044.0</ele><time>2026-05-02T07:32:26Z</time></trkpt><trkpt lat="45.0492298442287" lon="6.8521391967888965"><ele>1044.6666666666667</ele><time>2026-05-02T07:32:27Z</time></trkpt><trkpt lat="45.04906354499434" lon="6.851958434993938"><ele>1045.3333333333335</ele><time>2026-05-02T07:32:28Z</time></trkpt><trkpt lat="45.048890841922265" lon="6.851792125418206"><ele>1046.0</ele><time>2026-05-02T07:32:29Z</time></trkpt><trkpt lat="45.04872359844471" lon="6.851622316727231"><ele>1046.0</ele><time>2026-05-02T07:32:30Z</time></trkpt><trkpt lat="45.048560352653716" lon="6.8514432377464125"><ele>1046.0</ele><time>2026-05-02T07:32:31Z</time></trkpt><trkpt lat="45.04838937087832" lon="6.851272884856283"><ele>1046.0</ele><time>2026-05-02T07:32:32Z</time></trkpt><trkpt lat="45.048234032411834" lon="6.851080569918446"><ele>1046.3333333333335</ele><time>2026-05-02T07:32:33Z</time></trkpt><trkpt lat="45.04808448859359" lon="6.850889823867911"><ele>1046.6666666666667</ele><time>2026-05-02T07:32:34Z</time></trkpt><trkpt lat="45.047940542205865" lon="6.85071939948358"><ele>1047.0</ele><time>2026-05-02T07:32:35Z</time></trkpt><trkpt lat="45.047791237794435" lon="6.850544900926288"><ele>1047.0</ele><time>2026-05-02T07:32:36Z</time></trkpt><trkpt lat="45.04763810749095" lon="6.8503643735009705"><ele>1047.0</ele><time>2026-05-02T07:32:37Z</time></trkpt><trkpt lat="45.047488209531195" lon="6.850180850456099"><ele>1047.0</ele><time>2026-05-02T07:32:38Z</time></trkpt><trkpt lat="45.047347241232586" lon="6.849993856407095"><ele>1047.3333333333333</ele><time>2026-05-02T07:32:39Z</time></trkpt><trkpt lat="45.047199028439955" lon="6.849819868711232"><ele>1047.6666666666665</ele><time>2026-05-02T07:32:40Z</time></trkpt><trkpt lat="45.04705653644865" lon="6.84964782956455"><ele>1048.0</ele><time>2026-05-02T07:32:41Z</time></trkpt><trkpt lat="45.04690926874054" lon="6.849475805888747"><ele>1048.0</ele><time>2026-05-02T07:32:42Z</time></trkpt><trkpt lat="45.0467553439208" lon="6.8493016500310375"><ele>1048.0</ele><time>2026-05-02T07:32:43Z</time></trkpt><trkpt lat="45.04659979370809" lon="6.8491114238570905"><ele>1048.0</ele><time>2026-05-02T07:32:44Z</time></trkpt><trkpt lat="45.046442462838435" lon="6.848932252118834"><ele>1048.6666666666665</ele><time>2026-05-02T07:32:45Z</time></trkpt><trkpt lat="45.04628652894488" lon="6.848758200948273"><ele>1049.3333333333333</ele><time>2026-05-02T07:32:46Z</time></trkpt><trkpt lat="45.04615310114578" lon="6.848570002437605"><ele>1050.0</ele><time>2026-05-02T07:32:47Z</time></trkpt><trkpt lat="45.04601598671207" lon="6.848405333631517"><ele>1050.0</ele><time>2026-05-02T07:32:48Z</time></trkpt><trkpt lat="45.04587088466878" lon="6.848257123363036"><ele>1050.0</ele><time>2026-05-02T07:32:49Z</time></trkpt><trkpt lat="45.045738319995216" lon="6.848086546253785"><ele>1050.0</ele><time>2026-05-02T07:32:50Z</time></trkpt><trkpt lat="45.04558846075909" lon="6.847908465409943"><ele>1049.6666666666667</ele><time>2026-05-02T07:32:51Z</time></trkpt><trkpt lat="45.04544920580432" lon="6.847738681688084"><ele>1049.3333333333335</ele><time>2026-05-02T07:32:52Z</time></trkpt><trkpt lat="45.04531511614797" lon="6.847565170405922"><ele>1049.0</ele><time>2026-05-02T07:32:53Z</time></trkpt><trkpt lat="45.045167816263834" lon="6.847386477817973"><ele>1049.0</ele><time>2026-05-02T07:32:54Z</time></trkpt><trkpt lat="45.04501554494326" lon="6.84721596893352"><ele>1049.0</ele><time>2026-05-02T07:32:55Z</time></trkpt><trkpt lat="45.04486979256305" lon="6.847049664012688"><ele>1049.0</ele><time>2026-05-02T07:32:56Z</time></trkpt><trkpt lat="45.044749810452736" lon="6.846889179430128"><ele>1049.6666666666667</ele><time>2026-05-02T07:32:57Z</time></trkpt><trkpt lat="45.044615959346714" lon="6.846734100882575"><ele>1050.3333333333333</ele><time>2026-05-02T07:32:58Z</time></trkpt><trkpt lat="45.044477585664914" lon="6.846576339577192"><ele>1051.0</ele><time>2026-05-02T07:32:59Z</time></trkpt><trkpt lat="45.04433425604203" lon="6.846410310456224"><ele>1051.0</ele><time>2026-05-02T07:33:00Z</time></trkpt><trkpt lat="45.0441869514562" lon="6.8462360346321525"><ele>1051.0</ele><time>2026-05-02T07:33:01Z</time></trkpt><trkpt lat="45.04403878584674" lon="6.846059038844483"><ele>1051.0</ele><time>2026-05-02T07:33:02Z</time></trkpt><trkpt lat="45.04390249791737" lon="6.845866934146095"><ele>1051.6666666666665</ele><time>2026-05-02T07:33:03Z</time></trkpt><trkpt lat="45.04374896442405" lon="6.845713292538208"><ele>1052.3333333333333</ele><time>2026-05-02T07:33:04Z</time></trkpt><trkpt lat="45.04362028381976" lon="6.845529091578828"><ele>1053.0</ele><time>2026-05-02T07:33:05Z</time></trkpt><trkpt lat="45.04348587409441" lon="6.8453681876123555"><ele>1053.0</ele><time>2026-05-02T07:33:06Z</time></trkpt><trkpt lat="45.043347498595146" lon="6.845231829626522"><ele>1053.0</ele><time>2026-05-02T07:33:06.999Z</time></trkpt><trkpt lat="45.04323008168079" lon="6.845092867646977"><ele>1053.0</ele><time>2026-05-02T07:33:07.999Z</time></trkpt><trkpt lat="45.04312119369471" lon="6.844963776850934"><ele>1053.25</ele><time>2026-05-02T07:33:08.999Z</time></trkpt><trkpt lat="45.04302233717513" lon="6.844815344017439"><ele>1053.5</ele><time>2026-05-02T07:33:09.999Z</time></trkpt><trkpt lat="45.042896321139274" lon="6.844694849007626"><ele>1053.75</ele><time>2026-05-02T07:33:10.999Z</time></trkpt><trkpt lat="45.04278056611368" lon="6.8445556733296495"><ele>1054.0</ele><time>2026-05-02T07:33:11.999Z</time></trkpt><trkpt lat="45.04267790314551" lon="6.844403539339126"><ele>1054.0</ele><time>2026-05-02T07:33:12.999Z</time></trkpt><trkpt lat="45.04258128505463" lon="6.844312838629791"><ele>1054.0</ele><time>2026-05-02T07:33:13.999Z</time></trkpt><trkpt lat="45.042495535312504" lon="6.844184119528327"><ele>1054.0</ele><time>2026-05-02T07:33:14.999Z</time></trkpt><trkpt lat="45.042409941783724" lon="6.844080968896765"><ele>1054.0</ele><time>2026-05-02T07:33:15.999Z</time></trkpt><trkpt lat="45.04232665072829" lon="6.843980579411169"><ele>1054.4</ele><time>2026-05-02T07:33:16.999Z</time></trkpt><trkpt lat="45.04224597431271" lon="6.843883341218047"><ele>1054.8000000000002</ele><time>2026-05-02T07:33:17.999Z</time></trkpt><trkpt lat="45.0421550471925" lon="6.843794837053752"><ele>1055.1999999999998</ele><time>2026-05-02T07:33:18.999Z</time></trkpt><trkpt lat="45.04208486618307" lon="6.843694662342383"><ele>1055.6</ele><time>2026-05-02T07:33:19.999Z</time></trkpt><trkpt lat="45.04202237697811" lon="6.843609522930608"><ele>1056.0</ele><time>2026-05-02T07:33:20.999Z</time></trkpt><trkpt lat="45.041965030618385" lon="6.8435361455867785"><ele>1056.0</ele><time>2026-05-02T07:33:21.999Z</time></trkpt><trkpt lat="45.04190926345516" lon="6.843469316545982"><ele>1056.0</ele><time>2026-05-02T07:33:22.999Z</time></trkpt><trkpt lat="45.04186044990948" lon="6.84338462625927"><ele>1056.0</ele><time>2026-05-02T07:33:23.999Z</time></trkpt><trkpt lat="45.041827574023664" lon="6.843292776088371"><ele>1056.0</ele><time>2026-05-02T07:33:24.999Z</time></trkpt><trkpt lat="45.041802898036565" lon="6.843192305070341"><ele>1056.0</ele><time>2026-05-02T07:33:25.999Z</time></trkpt><trkpt lat="45.041769277666326" lon="6.843088022976439"><ele>1056.0</ele><time>2026-05-02T07:33:26.999Z</time></trkpt><trkpt lat="45.0417123856279" lon="6.842997873539562"><ele>1056.5</ele><time>2026-05-02T07:33:27.999Z</time></trkpt><trkpt lat="45.041616899526254" lon="6.842952521906357"><ele>1057.0</ele><time>2026-05-02T07:33:28.999Z</time></trkpt><trkpt lat="45.04150477808255" lon="6.842935722567261"><ele>1057.5</ele><time>2026-05-02T07:33:29.999Z</time></trkpt><trkpt lat="45.04139754882154" lon="6.842874168476457"><ele>1058.0</ele><time>2026-05-02T07:33:30.999Z</time></trkpt><trkpt lat="45.04128575864288" lon="6.842758041831325"><ele>1058.6666666666667</ele><time>2026-05-02T07:33:31.999Z</time></trkpt><trkpt lat="45.041175853465994" lon="6.842605702188492"><ele>1059.3333333333333</ele><time>2026-05-02T07:33:32.999Z</time></trkpt><trkpt lat="45.04103050091402" lon="6.842436144335607"><ele>1060.0</ele><time>2026-05-02T07:33:33.999Z</time></trkpt><trkpt lat="45.0408647562124" lon="6.842243984631951"><ele>1060.6666666666665</ele><time>2026-05-02T07:33:34.999Z</time></trkpt><trkpt lat="45.040698899412725" lon="6.842077005213677"><ele>1061.3333333333333</ele><time>2026-05-02T07:33:35.999Z</time></trkpt><trkpt lat="45.04056308253116" lon="6.841917093084886"><ele>1062.0</ele><time>2026-05-02T07:33:36.999Z</time></trkpt><trkpt lat="45.04044349419944" lon="6.841775458595051"><ele>1062.0</ele><time>2026-05-02T07:33:37.999Z</time></trkpt><trkpt lat="45.040331374661775" lon="6.841641569578042"><ele>1062.0</ele><time>2026-05-02T07:33:38.999Z</time></trkpt><trkpt lat="45.040222179853956" lon="6.841517323296732"><ele>1062.0</ele><time>2026-05-02T07:33:39.999Z</time></trkpt><trkpt lat="45.040112956304064" lon="6.841402289850366"><ele>1062.0</ele><time>2026-05-02T07:33:40.999Z</time></trkpt><trkpt lat="45.039997504068076" lon="6.841277953855426"><ele>1062.3333333333333</ele><time>2026-05-02T07:33:41.999Z</time></trkpt><trkpt lat="45.03988242115182" lon="6.8411394102657335"><ele>1062.6666666666665</ele><time>2026-05-02T07:33:42.999Z</time></trkpt><trkpt lat="45.03975820681387" lon="6.841021518724878"><ele>1063.0</ele><time>2026-05-02T07:33:43.999Z</time></trkpt><trkpt lat="45.03962516080344" lon="6.840895122100506"><ele>1063.0</ele><time>2026-05-02T07:33:44.999Z</time></trkpt><trkpt lat="45.039474260180945" lon="6.840716117603643"><ele>1063.0</ele><time>2026-05-02T07:33:45.999Z</time></trkpt><trkpt lat="45.039291498112924" lon="6.840532124310278"><ele>1063.0</ele><time>2026-05-02T07:33:46.999Z</time></trkpt><trkpt lat="45.03909437091978" lon="6.840331580777583"><ele>1065.6666666666665</ele><time>2026-05-02T07:33:47.999Z</time></trkpt><trkpt lat="45.038912069493016" lon="6.840146043157311"><ele>1068.3333333333333</ele><time>2026-05-02T07:33:48.999Z</time></trkpt><trkpt lat="45.03873517173644" lon="6.839984283186471"><ele>1071.0</ele><time>2026-05-02T07:33:49.999Z</time></trkpt><trkpt lat="45.03856514860907" lon="6.839811122502072"><ele>1071.0</ele><time>2026-05-02T07:33:50.999Z</time></trkpt><trkpt lat="45.03839394213825" lon="6.839630602532337"><ele>1071.0</ele><time>2026-05-02T07:33:51.999Z</time></trkpt><trkpt lat="45.03823254722837" lon="6.8394648238168125"><ele>1071.0</ele><time>2026-05-02T07:33:52.999Z</time></trkpt><trkpt lat="45.03808546757092" lon="6.839314378092659"><ele>1072.6666666666667</ele><time>2026-05-02T07:33:53.999Z</time></trkpt><trkpt lat="45.037951876926975" lon="6.839175791406797"><ele>1074.3333333333335</ele><time>2026-05-02T07:33:54.999Z</time></trkpt><trkpt lat="45.03782160137517" lon="6.839048666956138"><ele>1076.0</ele><time>2026-05-02T07:33:55.999Z</time></trkpt><trkpt lat="45.03768958989994" lon="6.838923453946552"><ele>1076.0</ele><time>2026-05-02T07:33:56.999Z</time></trkpt><trkpt lat="45.03755524361796" lon="6.838802106498528"><ele>1076.0</ele><time>2026-05-02T07:33:57.999Z</time></trkpt><trkpt lat="45.03742706384188" lon="6.838680552034216"><ele>1076.0</ele><time>2026-05-02T07:33:58.999Z</time></trkpt><trkpt lat="45.037299201212164" lon="6.838558983535631"><ele>1076.75</ele><time>2026-05-02T07:33:59.999Z</time></trkpt><trkpt lat="45.03717545417853" lon="6.83844062943881"><ele>1077.5</ele><time>2026-05-02T07:34:00.999Z</time></trkpt><trkpt lat="45.03705665210692" lon="6.8383216419704045"><ele>1078.25</ele><time>2026-05-02T07:34:01.999Z</time></trkpt><trkpt lat="45.036938234510565" lon="6.838202630721265"><ele>1079.0</ele><time>2026-05-02T07:34:02.999Z</time></trkpt><trkpt lat="45.036824161584356" lon="6.838084898252302"><ele>1079.0</ele><time>2026-05-02T07:34:03.999Z</time></trkpt><trkpt lat="45.03670826565277" lon="6.837975625949071"><ele>1079.0</ele><time>2026-05-02T07:34:04.999Z</time></trkpt><trkpt lat="45.03659317248654" lon="6.83786140307689"><ele>1079.0</ele><time>2026-05-02T07:34:05.999Z</time></trkpt><trkpt lat="45.036478879156014" lon="6.837746294106847"><ele>1079.0</ele><time>2026-05-02T07:34:06.999Z</time></trkpt><trkpt lat="45.03636322408137" lon="6.83762995751949"><ele>1079.0</ele><time>2026-05-02T07:34:07.999Z</time></trkpt><trkpt lat="45.03624508895718" lon="6.837516408923277"><ele>1079.0</ele><time>2026-05-02T07:34:08.999Z</time></trkpt><trkpt lat="45.03612704200503" lon="6.837401979579376"><ele>1079.0</ele><time>2026-05-02T07:34:09.999Z</time></trkpt><trkpt lat="45.036010937593815" lon="6.837283145917874"><ele>1079.0</ele><time>2026-05-02T07:34:10.999Z</time></trkpt><trkpt lat="45.0358951507696" lon="6.837167715460368"><ele>1078.25</ele><time>2026-05-02T07:34:12Z</time></trkpt><trkpt lat="45.03578021238186" lon="6.837052857041578"><ele>1077.5</ele><time>2026-05-02T07:34:13Z</time></trkpt><trkpt lat="45.035668552914956" lon="6.836929641159621"><ele>1076.75</ele><time>2026-05-02T07:34:14Z</time></trkpt><trkpt lat="45.035559302806284" lon="6.83680135722072"><ele>1076.0</ele><time>2026-05-02T07:34:15Z</time></trkpt><trkpt lat="45.035452613861494" lon="6.836664909554129"><ele>1076.0</ele><time>2026-05-02T07:34:16Z</time></trkpt><trkpt lat="45.035351871835346" lon="6.8365237033443975"><ele>1076.0</ele><time>2026-05-02T07:34:17Z</time></trkpt><trkpt lat="45.035256032948034" lon="6.836388290298804"><ele>1076.0</ele><time>2026-05-02T07:34:18Z</time></trkpt><trkpt lat="45.03516650174103" lon="6.836259420316266"><ele>1076.0</ele><time>2026-05-02T07:34:19Z</time></trkpt><trkpt lat="45.035078171420814" lon="6.836130025906245"><ele>1076.0</ele><time>2026-05-02T07:34:20Z</time></trkpt><trkpt lat="45.03499158090854" lon="6.836005493591348"><ele>1076.0</ele><time>2026-05-02T07:34:21Z</time></trkpt><trkpt lat="45.034904998906164" lon="6.835885385281966"><ele>1076.0</ele><time>2026-05-02T07:34:22Z</time></trkpt><trkpt lat="45.03482512053335" lon="6.835770274578779"><ele>1076.0</ele><time>2026-05-02T07:34:23Z</time></trkpt><trkpt lat="45.034740458791305" lon="6.835650429684034"><ele>1076.6</ele><time>2026-05-02T07:34:24Z</time></trkpt><trkpt lat="45.03465650478681" lon="6.83553152713094"><ele>1077.1999999999998</ele><time>2026-05-02T07:34:25Z</time></trkpt><trkpt lat="45.03457712307119" lon="6.83542452594604"><ele>1077.8000000000002</ele><time>2026-05-02T07:34:26Z</time></trkpt><trkpt lat="45.0345080469575" lon="6.835327821498507"><ele>1078.4</ele><time>2026-05-02T07:34:27Z</time></trkpt><trkpt lat="45.03444524860921" lon="6.835233377327131"><ele>1079.0</ele><time>2026-05-02T07:34:28Z</time></trkpt><trkpt lat="45.03438141909539" lon="6.835140911263965"><ele>1078.6666666666667</ele><time>2026-05-02T07:34:29Z</time></trkpt><trkpt lat="45.03433590597692" lon="6.835074899794134"><ele>1078.3333333333335</ele><time>2026-05-02T07:34:30Z</time></trkpt><trkpt lat="45.034275234361594" lon="6.834992179362154"><ele>1078.0</ele><time>2026-05-02T07:34:32Z</time></trkpt><trkpt lat="45.03419345229976" lon="6.834944811485696"><ele>1077.6666666666667</ele><time>2026-05-02T07:34:35Z</time></trkpt><trkpt lat="45.034117483665234" lon="6.834976972834919"><ele>1077.3333333333333</ele><time>2026-05-02T07:34:37Z</time></trkpt><trkpt lat="45.03411353527648" lon="6.835071603929355"><ele>1077.0</ele><time>2026-05-02T07:34:40Z</time></trkpt><trkpt lat="45.03407757652076" lon="6.834842929454328"><ele>1077.0</ele><time>2026-05-02T07:34:43Z</time></trkpt><trkpt lat="45.03399496229228" lon="6.834961790554234"><ele>1077.0</ele><time>2026-05-02T07:34:44Z</time></trkpt><trkpt lat="45.03392074048421" lon="6.834994300022287"><ele>1077.0</ele><time>2026-05-02T07:39:11Z</time></trkpt><trkpt lat="45.033936789740345" lon="6.834866876008846"><ele>1077.0</ele><time>2026-05-02T07:39:15Z</time></trkpt><trkpt lat="45.03386430958645" lon="6.834866004051705"><ele>1077.0</ele><time>2026-05-02T07:39:36.999Z</time></trkpt><trkpt lat="45.03392703172201" lon="6.834938131144033"><ele>1077.0</ele><time>2026-05-02T07:39:39.999Z</time></trkpt><trkpt lat="45.033996996200806" lon="6.835027018479545"><ele>1077.0</ele><time>2026-05-02T07:39:41.999Z</time></trkpt><trkpt lat="45.034085443759125" lon="6.835069856491238"><ele>1077.0</ele><time>2026-05-02T07:39:43.999Z</time></trkpt><trkpt lat="45.03416464940627" lon="6.835010386146672"><ele>1077.0</ele><time>2026-05-02T07:39:46.999Z</time></trkpt><trkpt lat="45.034274042368736" lon="6.835022611247244"><ele>1077.0</ele><time>2026-05-02T07:39:48.999Z</time></trkpt><trkpt lat="45.03432732290484" lon="6.8350922631251665"><ele>1077.0</ele><time>2026-05-02T07:39:49.999Z</time></trkpt><trkpt lat="45.034382319107515" lon="6.835181284098302"><ele>1077.0</ele><time>2026-05-02T07:39:50.999Z</time></trkpt><trkpt lat="45.0344392086705" lon="6.835267736127642"><ele>1077.4</ele><time>2026-05-02T07:39:51.999Z</time></trkpt><trkpt lat="45.03450483337405" lon="6.8353615449294685"><ele>1077.8000000000002</ele><time>2026-05-02T07:39:52.999Z</time></trkpt><trkpt lat="45.03458091597099" lon="6.83547567645526"><ele>1078.2</ele><time>2026-05-02T07:39:53.999Z</time></trkpt><trkpt lat="45.03466503946688" lon="6.835598697928827"><ele>1078.6000000000001</ele><time>2026-05-02T07:39:54.999Z</time></trkpt><trkpt lat="45.03475270495184" lon="6.835718886077381"><ele>1079.0</ele><time>2026-05-02T07:39:55.999Z</time></trkpt><trkpt lat="45.03484067379259" lon="6.835845666757165"><ele>1079.0</ele><time>2026-05-02T07:39:56.999Z</time></trkpt><trkpt lat="45.034924568973274" lon="6.835965182322208"><ele>1079.0</ele><time>2026-05-02T07:39:57.999Z</time></trkpt><trkpt lat="45.035004813121155" lon="6.836079294303931"><ele>1079.0</ele><time>2026-05-02T07:39:58.999Z</time></trkpt><trkpt lat="45.03508537095321" lon="6.83619521078958"><ele>1079.0</ele><time>2026-05-02T07:39:59.999Z</time></trkpt><trkpt lat="45.0351687436549" lon="6.8363130691888365"><ele>1078.25</ele><time>2026-05-02T07:40:00.999Z</time></trkpt><trkpt lat="45.03525864284239" lon="6.836438426832244"><ele>1077.5</ele><time>2026-05-02T07:40:01.999Z</time></trkpt><trkpt lat="45.03534321386235" lon="6.8365571415624995"><ele>1076.75</ele><time>2026-05-02T07:40:02.999Z</time></trkpt><trkpt lat="45.035427759490595" lon="6.836673862092707"><ele>1076.0</ele><time>2026-05-02T07:40:03.999Z</time></trkpt><trkpt lat="45.0355092544261" lon="6.836797134822513"><ele>1076.75</ele><time>2026-05-02T07:40:04.999Z</time></trkpt><trkpt lat="45.03559613446583" lon="6.836901599798862"><ele>1077.5</ele><time>2026-05-02T07:40:05.999Z</time></trkpt><trkpt lat="45.03568374584052" lon="6.837005032294878"><ele>1078.25</ele><time>2026-05-02T07:40:06.999Z</time></trkpt><trkpt lat="45.03577960849565" lon="6.837104615295226"><ele>1079.0</ele><time>2026-05-02T07:40:07.999Z</time></trkpt><trkpt lat="45.035884426802724" lon="6.837204817249315"><ele>1079.0</ele><time>2026-05-02T07:40:08.999Z</time></trkpt><trkpt lat="45.03599533973666" lon="6.837313544294735"><ele>1079.0</ele><time>2026-05-02T07:40:09.999Z</time></trkpt><trkpt lat="45.03609827091475" lon="6.837418466665525"><ele>1079.0</ele><time>2026-05-02T07:40:10.999Z</time></trkpt><trkpt lat="45.03620331640189" lon="6.837526317847996"><ele>1079.0</ele><time>2026-05-02T07:40:11.999Z</time></trkpt><trkpt lat="45.03630759205388" lon="6.83763141567929"><ele>1079.0</ele><time>2026-05-02T07:40:12.999Z</time></trkpt><trkpt lat="45.03641143665694" lon="6.837732569564259"><ele>1079.0</ele><time>2026-05-02T07:40:13.999Z</time></trkpt><trkpt lat="45.036609275798845" lon="6.8379258510415735"><ele>1079.0</ele><time>2026-05-02T07:40:15.999Z</time></trkpt><trkpt lat="45.03670824707905" lon="6.838023213365656"><ele>1079.0</ele><time>2026-05-02T07:40:16.999Z</time></trkpt><trkpt lat="45.03680666242917" lon="6.838125873093359"><ele>1079.0</ele><time>2026-05-02T07:40:17.999Z</time></trkpt><trkpt lat="45.03691078634898" lon="6.838222500049762"><ele>1079.0</ele><time>2026-05-02T07:40:18.999Z</time></trkpt><trkpt lat="45.03701256331874" lon="6.8383252709997535"><ele>1079.0</ele><time>2026-05-02T07:40:19.999Z</time></trkpt><trkpt lat="45.0371268578057" lon="6.838439076341696"><ele>1078.0</ele><time>2026-05-02T07:40:20.999Z</time></trkpt><trkpt lat="45.03724599784627" lon="6.838556234377317"><ele>1077.0</ele><time>2026-05-02T07:40:21.999Z</time></trkpt><trkpt lat="45.03737331662547" lon="6.83867161722058"><ele>1076.0</ele><time>2026-05-02T07:40:22.999Z</time></trkpt><trkpt lat="45.0375031994114" lon="6.838796154095604"><ele>1076.0</ele><time>2026-05-02T07:40:23.999Z</time></trkpt><trkpt lat="45.037633391464176" lon="6.838926380661864"><ele>1076.0</ele><time>2026-05-02T07:40:24.999Z</time></trkpt><trkpt lat="45.037765344069314" lon="6.839056186154616"><ele>1076.0</ele><time>2026-05-02T07:40:25.999Z</time></trkpt><trkpt lat="45.03789189780993" lon="6.839185377644999"><ele>1081.0</ele><time>2026-05-02T07:40:26.999Z</time></trkpt><trkpt lat="45.038025082430664" lon="6.8393163572147735"><ele>1086.0</ele><time>2026-05-02T07:40:27.999Z</time></trkpt><trkpt lat="45.03815267973566" lon="6.839446294439327"><ele>1091.0</ele><time>2026-05-02T07:40:28.999Z</time></trkpt><trkpt lat="45.03828080833292" lon="6.839579867035544"><ele>1084.3333333333335</ele><time>2026-05-02T07:40:30Z</time></trkpt><trkpt lat="45.03841130294903" lon="6.839713032691186"><ele>1077.6666666666667</ele><time>2026-05-02T07:40:31Z</time></trkpt><trkpt lat="45.03854315268779" lon="6.839846260622704"><ele>1071.0</ele><time>2026-05-02T07:40:32Z</time></trkpt><trkpt lat="45.03867343943795" lon="6.839980589198533"><ele>1071.0</ele><time>2026-05-02T07:40:33Z</time></trkpt><trkpt lat="45.03880702780194" lon="6.840111702129087"><ele>1071.0</ele><time>2026-05-02T07:40:34Z</time></trkpt><trkpt lat="45.03894684336534" lon="6.8402447071467325"><ele>1071.0</ele><time>2026-05-02T07:40:35Z</time></trkpt><trkpt lat="45.0390882778299" lon="6.840382976549418"><ele>1069.0</ele><time>2026-05-02T07:40:36Z</time></trkpt><trkpt lat="45.039214910007814" lon="6.8405121926207375"><ele>1067.0</ele><time>2026-05-02T07:40:37Z</time></trkpt><trkpt lat="45.03932562195901" lon="6.840622907952024"><ele>1065.0</ele><time>2026-05-02T07:40:38Z</time></trkpt><trkpt lat="45.039433607980705" lon="6.840729404723192"><ele>1063.0</ele><time>2026-05-02T07:40:39Z</time></trkpt><trkpt lat="45.03954892044851" lon="6.840837981802172"><ele>1063.0</ele><time>2026-05-02T07:40:40Z</time></trkpt><trkpt lat="45.0396654999275" lon="6.840962905373347"><ele>1063.0</ele><time>2026-05-02T07:40:41Z</time></trkpt><trkpt lat="45.03978783798492" lon="6.841101609496764"><ele>1063.0</ele><time>2026-05-02T07:40:42Z</time></trkpt><trkpt lat="45.039921181110955" lon="6.841249732252666"><ele>1062.6666666666665</ele><time>2026-05-02T07:40:43Z</time></trkpt><trkpt lat="45.04005741202664" lon="6.841406631401634"><ele>1062.3333333333333</ele><time>2026-05-02T07:40:44Z</time></trkpt><trkpt lat="45.040203886806566" lon="6.841577199265121"><ele>1062.0</ele><time>2026-05-02T07:40:45Z</time></trkpt><trkpt lat="45.04034952846774" lon="6.84174936912237"><ele>1063.0</ele><time>2026-05-02T07:40:46Z</time></trkpt><trkpt lat="45.040500270503465" lon="6.841918523301887"><ele>1064.0</ele><time>2026-05-02T07:40:47Z</time></trkpt><trkpt lat="45.04064076481739" lon="6.842076443050668"><ele>1065.0</ele><time>2026-05-02T07:40:48Z</time></trkpt><trkpt lat="45.040770126940274" lon="6.842220304848641"><ele>1063.75</ele><time>2026-05-02T07:40:49Z</time></trkpt><trkpt lat="45.04088275205661" lon="6.842351479238615"><ele>1062.5</ele><time>2026-05-02T07:40:50Z</time></trkpt><trkpt lat="45.04098787784524" lon="6.842477523004227"><ele>1061.25</ele><time>2026-05-02T07:40:51Z</time></trkpt><trkpt lat="45.04108421425844" lon="6.842594562763542"><ele>1060.0</ele><time>2026-05-02T07:40:52Z</time></trkpt><trkpt lat="45.0411612789668" lon="6.842697758252556"><ele>1059.6666666666665</ele><time>2026-05-02T07:40:53Z</time></trkpt><trkpt lat="45.04123011332412" lon="6.84277956758134"><ele>1059.3333333333333</ele><time>2026-05-02T07:40:54Z</time></trkpt><trkpt lat="45.041294187529985" lon="6.842857524125832"><ele>1059.0</ele><time>2026-05-02T07:40:55Z</time></trkpt><trkpt lat="45.041351631633894" lon="6.842929751766762"><ele>1058.6666666666667</ele><time>2026-05-02T07:40:56Z</time></trkpt><trkpt lat="45.04140152428275" lon="6.842997495399694"><ele>1058.3333333333335</ele><time>2026-05-02T07:40:57Z</time></trkpt><trkpt lat="45.04144244050892" lon="6.843072697398509"><ele>1058.0</ele><time>2026-05-02T07:40:58Z</time></trkpt><trkpt lat="45.04147209372737" lon="6.843154151413913"><ele>1058.0</ele><time>2026-05-02T07:40:59Z</time></trkpt><trkpt lat="45.041521075455435" lon="6.843317810858225"><ele>1058.0</ele><time>2026-05-02T07:41:01Z</time></trkpt><trkpt lat="45.04160713591111" lon="6.843430558929493"><ele>1058.0</ele><time>2026-05-02T07:41:03Z</time></trkpt><trkpt lat="45.041728289616366" lon="6.843466499996398"><ele>1058.0</ele><time>2026-05-02T07:41:05Z</time></trkpt><trkpt lat="45.041803684275806" lon="6.843489388454151"><ele>1058.0</ele><time>2026-05-02T07:41:06Z</time></trkpt><trkpt lat="45.04188967658365" lon="6.843555445503999"><ele>1057.5</ele><time>2026-05-02T07:41:07Z</time></trkpt><trkpt lat="45.04198393291629" lon="6.8436586588173"><ele>1057.0</ele><time>2026-05-02T07:41:08Z</time></trkpt><trkpt lat="45.04208826571447" lon="6.843781999103039"><ele>1056.5</ele><time>2026-05-02T07:41:09Z</time></trkpt><trkpt lat="45.0422066664394" lon="6.843917544270879"><ele>1056.0</ele><time>2026-05-02T07:41:10Z</time></trkpt><trkpt lat="45.042330274271336" lon="6.8440585147435735"><ele>1056.0</ele><time>2026-05-02T07:41:11Z</time></trkpt><trkpt lat="45.04244983580767" lon="6.844196718926668"><ele>1056.0</ele><time>2026-05-02T07:41:12Z</time></trkpt><trkpt lat="45.0425768678175" lon="6.844348511208109"><ele>1056.0</ele><time>2026-05-02T07:41:13Z</time></trkpt><trkpt lat="45.042705103421746" lon="6.844505101958059"><ele>1055.3333333333333</ele><time>2026-05-02T07:41:14Z</time></trkpt><trkpt lat="45.042839998338174" lon="6.844664431846365"><ele>1054.6666666666665</ele><time>2026-05-02T07:41:15Z</time></trkpt><trkpt lat="45.042977076878955" lon="6.844825181865754"><ele>1054.0</ele><time>2026-05-02T07:41:16Z</time></trkpt><trkpt lat="45.04311474729193" lon="6.844989049950632"><ele>1054.3333333333333</ele><time>2026-05-02T07:41:17Z</time></trkpt><trkpt lat="45.043253850535315" lon="6.845155323077644"><ele>1054.6666666666667</ele><time>2026-05-02T07:41:18Z</time></trkpt><trkpt lat="45.04338836178699" lon="6.845320993560292"><ele>1055.0</ele><time>2026-05-02T07:41:19Z</time></trkpt><trkpt lat="45.04353056996051" lon="6.845487113452256"><ele>1054.3333333333335</ele><time>2026-05-02T07:41:19.999Z</time></trkpt><trkpt lat="45.043670246842545" lon="6.845653983126525"><ele>1053.6666666666667</ele><time>2026-05-02T07:41:20.999Z</time></trkpt><trkpt lat="45.04381250197898" lon="6.845823835602802"><ele>1053.0</ele><time>2026-05-02T07:41:21.999Z</time></trkpt><trkpt lat="45.04395200119498" lon="6.845990123086276"><ele>1052.3333333333333</ele><time>2026-05-02T07:41:22.999Z</time></trkpt><trkpt lat="45.04409210810863" lon="6.84615904365626"><ele>1051.6666666666665</ele><time>2026-05-02T07:41:23.999Z</time></trkpt><trkpt lat="45.04423254229901" lon="6.846330924864863"><ele>1051.0</ele><time>2026-05-02T07:41:24.999Z</time></trkpt><trkpt lat="45.04437256863346" lon="6.846503302324458"><ele>1051.0</ele><time>2026-05-02T07:41:25.999Z</time></trkpt><trkpt lat="45.044515502754884" lon="6.846673261212978"><ele>1051.0</ele><time>2026-05-02T07:41:26.999Z</time></trkpt><trkpt lat="45.04465659738308" lon="6.846841534992574"><ele>1051.0</ele><time>2026-05-02T07:41:27.999Z</time></trkpt><trkpt lat="45.04479390679775" lon="6.847010127103365"><ele>1050.6666666666665</ele><time>2026-05-02T07:41:28.999Z</time></trkpt><trkpt lat="45.04493016485729" lon="6.847176138172699"><ele>1050.3333333333333</ele><time>2026-05-02T07:41:29.999Z</time></trkpt><trkpt lat="45.045063691079086" lon="6.84733822288919"><ele>1050.0</ele><time>2026-05-02T07:41:30.999Z</time></trkpt><trkpt lat="45.04519929677403" lon="6.847500089010391"><ele>1049.6666666666667</ele><time>2026-05-02T07:41:31.999Z</time></trkpt><trkpt lat="45.04533280669081" lon="6.84766101838272"><ele>1049.3333333333335</ele><time>2026-05-02T07:41:32.999Z</time></trkpt><trkpt lat="45.04546369539469" lon="6.847821874955442"><ele>1049.0</ele><time>2026-05-02T07:41:33.999Z</time></trkpt><trkpt lat="45.04559289546183" lon="6.8479819327522415"><ele>1049.0</ele><time>2026-05-02T07:41:34.999Z</time></trkpt><trkpt lat="45.04572293678453" lon="6.848137509220012"><ele>1049.0</ele><time>2026-05-02T07:41:35.999Z</time></trkpt><trkpt lat="45.045856663815535" lon="6.848289192352063"><ele>1049.0</ele><time>2026-05-02T07:41:36.999Z</time></trkpt><trkpt lat="45.045992405569535" lon="6.848447650615266"><ele>1049.3333333333335</ele><time>2026-05-02T07:41:37.999Z</time></trkpt><trkpt lat="45.046126816104575" lon="6.8486088581704925"><ele>1049.6666666666667</ele><time>2026-05-02T07:41:38.999Z</time></trkpt><trkpt lat="45.04626124918269" lon="6.848773954382887"><ele>1050.0</ele><time>2026-05-02T07:41:39.999Z</time></trkpt><trkpt lat="45.046399931393914" lon="6.848939768794499"><ele>1050.0</ele><time>2026-05-02T07:41:40.999Z</time></trkpt><trkpt lat="45.04653585411782" lon="6.849101592321939"><ele>1050.0</ele><time>2026-05-02T07:41:41.999Z</time></trkpt><trkpt lat="45.04667421164591" lon="6.849261976445144"><ele>1050.0</ele><time>2026-05-02T07:41:42.999Z</time></trkpt><trkpt lat="45.04681169551485" lon="6.849425241960361"><ele>1049.3333333333333</ele><time>2026-05-02T07:41:43.999Z</time></trkpt><trkpt lat="45.046948908825904" lon="6.849588046984641"><ele>1048.6666666666665</ele><time>2026-05-02T07:41:44.999Z</time></trkpt><trkpt lat="45.04708424209692" lon="6.849752868124058"><ele>1048.0</ele><time>2026-05-02T07:41:45.999Z</time></trkpt><trkpt lat="45.0472198341701" lon="6.849918472951717"><ele>1048.0</ele><time>2026-05-02T07:41:46.999Z</time></trkpt><trkpt lat="45.04735427200645" lon="6.8500744662309145"><ele>1048.0</ele><time>2026-05-02T07:41:47.999Z</time></trkpt><trkpt lat="45.04748584601074" lon="6.850235366533323"><ele>1048.0</ele><time>2026-05-02T07:41:48.999Z</time></trkpt><trkpt lat="45.04761384619862" lon="6.850394850506271"><ele>1047.6666666666665</ele><time>2026-05-02T07:41:49.999Z</time></trkpt><trkpt lat="45.04774939846013" lon="6.850550844484907"><ele>1047.3333333333333</ele><time>2026-05-02T07:41:50.999Z</time></trkpt><trkpt lat="45.04787505202051" lon="6.8507087827079225"><ele>1047.0</ele><time>2026-05-02T07:41:51.999Z</time></trkpt><trkpt lat="45.04799431754298" lon="6.850869282806052"><ele>1047.0</ele><time>2026-05-02T07:41:52.999Z</time></trkpt><trkpt lat="45.048114107236024" lon="6.8510243728247175"><ele>1047.0</ele><time>2026-05-02T07:41:53.999Z</time></trkpt><trkpt lat="45.048238863281156" lon="6.85117412609684"><ele>1047.0</ele><time>2026-05-02T07:41:54.999Z</time></trkpt><trkpt lat="45.04836554350714" lon="6.851316024278045"><ele>1047.0</ele><time>2026-05-02T07:41:55.999Z</time></trkpt><trkpt lat="45.0484956165577" lon="6.851468981907635"><ele>1047.0</ele><time>2026-05-02T07:41:56.999Z</time></trkpt><trkpt lat="45.04863079597391" lon="6.851614137233876"><ele>1047.0</ele><time>2026-05-02T07:41:57.999Z</time></trkpt><trkpt lat="45.04880003604285" lon="6.851765004517562"><ele>1046.6666666666667</ele><time>2026-05-02T07:41:58.999Z</time></trkpt><trkpt lat="45.048949239589675" lon="6.851915498453774"><ele>1046.3333333333335</ele><time>2026-05-02T07:41:59.999Z</time></trkpt><trkpt lat="45.049109610971286" lon="6.852073371111967"><ele>1046.0</ele><time>2026-05-02T07:42:00.999Z</time></trkpt><trkpt lat="45.049276336948935" lon="6.852231300914353"><ele>1046.3333333333335</ele><time>2026-05-02T07:42:01.999Z</time></trkpt><trkpt lat="45.049447816248716" lon="6.852391014536676"><ele>1046.6666666666667</ele><time>2026-05-02T07:42:02.999Z</time></trkpt><trkpt lat="45.04962096797918" lon="6.85255306783601"><ele>1047.0</ele><time>2026-05-02T07:42:03.999Z</time></trkpt><trkpt lat="45.049788895708915" lon="6.852711787169744"><ele>1047.0</ele><time>2026-05-02T07:42:04.999Z</time></trkpt><trkpt lat="45.049954411913745" lon="6.8528710728475"><ele>1047.0</ele><time>2026-05-02T07:42:05.999Z</time></trkpt><trkpt lat="45.05012802355836" lon="6.853039110019154"><ele>1047.0</ele><time>2026-05-02T07:42:06.999Z</time></trkpt><trkpt lat="45.050303421932846" lon="6.853205454280318"><ele>1046.3333333333333</ele><time>2026-05-02T07:42:07.999Z</time></trkpt><trkpt lat="45.050460388827" lon="6.853351666220376"><ele>1045.6666666666665</ele><time>2026-05-02T07:42:08.999Z</time></trkpt><trkpt lat="45.05061945675943" lon="6.853495945287422"><ele>1045.0</ele><time>2026-05-02T07:42:09.999Z</time></trkpt><trkpt lat="45.05078744154504" lon="6.853648505457112"><ele>1044.0</ele><time>2026-05-02T07:42:10.999Z</time></trkpt><trkpt lat="45.05095951005121" lon="6.853803973041394"><ele>1043.0</ele><time>2026-05-02T07:42:11.999Z</time></trkpt><trkpt lat="45.05113647582481" lon="6.853950500970435"><ele>1042.0</ele><time>2026-05-02T07:42:12.999Z</time></trkpt><trkpt lat="45.05131116856865" lon="6.85407321954611"><ele>1042.0</ele><time>2026-05-02T07:42:13.999Z</time></trkpt><trkpt lat="45.05148606329611" lon="6.854192572166088"><ele>1042.0</ele><time>2026-05-02T07:42:14.999Z</time></trkpt><trkpt lat="45.051649113909384" lon="6.854304920321756"><ele>1042.0</ele><time>2026-05-02T07:42:15.999Z</time></trkpt><trkpt lat="45.05181017694598" lon="6.854413257355427"><ele>1042.3333333333333</ele><time>2026-05-02T07:42:16.999Z</time></trkpt><trkpt lat="45.05198010990994" lon="6.8545216918902785"><ele>1042.6666666666667</ele><time>2026-05-02T07:42:17.999Z</time></trkpt><trkpt lat="45.05214489291031" lon="6.854625966047767"><ele>1043.0</ele><time>2026-05-02T07:42:18.999Z</time></trkpt><trkpt lat="45.05230087747065" lon="6.8547238621550095"><ele>1043.0</ele><time>2026-05-02T07:42:19.999Z</time></trkpt><trkpt lat="45.05244546464378" lon="6.85482240016571"><ele>1043.0</ele><time>2026-05-02T07:42:20.999Z</time></trkpt><trkpt lat="45.0525871936963" lon="6.854939154055101"><ele>1043.0</ele><time>2026-05-02T07:42:21.999Z</time></trkpt><trkpt lat="45.052718033225204" lon="6.855090871290866"><ele>1042.0</ele><time>2026-05-02T07:42:22.999Z</time></trkpt><trkpt lat="45.052823785718495" lon="6.8552451504226575"><ele>1041.0</ele><time>2026-05-02T07:42:23.999Z</time></trkpt><trkpt lat="45.05292482304263" lon="6.855373000788297"><ele>1040.0</ele><time>2026-05-02T07:42:24.999Z</time></trkpt><trkpt lat="45.053032999699994" lon="6.85545933687918"><ele>1039.0</ele><time>2026-05-02T07:42:25.999Z</time></trkpt><trkpt lat="45.053137339681946" lon="6.855509033083853"><ele>1039.0</ele><time>2026-05-02T07:42:26.999Z</time></trkpt><trkpt lat="45.05323537605346" lon="6.85555743528836"><ele>1039.0</ele><time>2026-05-02T07:42:27.999Z</time></trkpt><trkpt lat="45.05332613063392" lon="6.8556309850785215"><ele>1039.0</ele><time>2026-05-02T07:42:28.999Z</time></trkpt><trkpt lat="45.05341383622793" lon="6.855735816895085"><ele>1039.0</ele><time>2026-05-02T07:42:29.999Z</time></trkpt><trkpt lat="45.053500792353425" lon="6.855865025924627"><ele>1039.0</ele><time>2026-05-02T07:42:30.999Z</time></trkpt><trkpt lat="45.053596957582926" lon="6.85602221437076"><ele>1039.6666666666665</ele><time>2026-05-02T07:42:31.999Z</time></trkpt><trkpt lat="45.053696355873655" lon="6.856194901774186"><ele>1040.3333333333333</ele><time>2026-05-02T07:42:32.999Z</time></trkpt><trkpt lat="45.05380171132835" lon="6.856385069752788"><ele>1041.0</ele><time>2026-05-02T07:42:33.999Z</time></trkpt><trkpt lat="45.05390631285375" lon="6.856592840515972"><ele>1041.6666666666667</ele><time>2026-05-02T07:42:34.998Z</time></trkpt><trkpt lat="45.054012789809995" lon="6.856813346816306"><ele>1042.3333333333335</ele><time>2026-05-02T07:42:36Z</time></trkpt><trkpt lat="45.05412503487125" lon="6.857049158613337"><ele>1043.0</ele><time>2026-05-02T07:42:37Z</time></trkpt><trkpt lat="45.05423926957885" lon="6.857290067685369"><ele>1043.0</ele><time>2026-05-02T07:42:38Z</time></trkpt><trkpt lat="45.05435431708749" lon="6.85753526199119"><ele>1043.0</ele><time>2026-05-02T07:42:39Z</time></trkpt><trkpt lat="45.05447537360701" lon="6.85778614438464"><ele>1043.0</ele><time>2026-05-02T07:42:40Z</time></trkpt><trkpt lat="45.05459155911056" lon="6.858028653523278"><ele>1041.6666666666667</ele><time>2026-05-02T07:42:41Z</time></trkpt><trkpt lat="45.0547062965797" lon="6.858265277767213"><ele>1040.3333333333333</ele><time>2026-05-02T07:42:42Z</time></trkpt><trkpt lat="45.05481629978707" lon="6.858501065296525"><ele>1039.0</ele><time>2026-05-02T07:42:43Z</time></trkpt><trkpt lat="45.05492493377551" lon="6.858730257865349"><ele>1039.6666666666665</ele><time>2026-05-02T07:42:44Z</time></trkpt><trkpt lat="45.05503309604996" lon="6.858951786929372"><ele>1040.3333333333333</ele><time>2026-05-02T07:42:45Z</time></trkpt><trkpt lat="45.055138741200864" lon="6.859170577656612"><ele>1041.0</ele><time>2026-05-02T07:42:46Z</time></trkpt><trkpt lat="45.055236530833625" lon="6.859386247293784"><ele>1039.3333333333333</ele><time>2026-05-02T07:42:47Z</time></trkpt><trkpt lat="45.055333524852685" lon="6.859591797246115"><ele>1037.6666666666665</ele><time>2026-05-02T07:42:48Z</time></trkpt><trkpt lat="45.05543453918552" lon="6.859785352791132"><ele>1036.0</ele><time>2026-05-02T07:42:49Z</time></trkpt><trkpt lat="45.055530742644194" lon="6.859988421132351"><ele>1035.6666666666665</ele><time>2026-05-02T07:42:50Z</time></trkpt><trkpt lat="45.05563278688811" lon="6.860199723188159"><ele>1035.3333333333333</ele><time>2026-05-02T07:42:51Z</time></trkpt><trkpt lat="45.055744052267336" lon="6.860416472289411"><ele>1035.0</ele><time>2026-05-02T07:42:52Z</time></trkpt><trkpt lat="45.05586640655563" lon="6.860638739015854"><ele>1035.0</ele><time>2026-05-02T07:42:53Z</time></trkpt><trkpt lat="45.0560041433805" lon="6.860867491234542"><ele>1035.0</ele><time>2026-05-02T07:42:54Z</time></trkpt><trkpt lat="45.056150067765884" lon="6.861090431366063"><ele>1035.0</ele><time>2026-05-02T07:42:55Z</time></trkpt><trkpt lat="45.056295815789916" lon="6.861313951502055"><ele>1034.0</ele><time>2026-05-02T07:42:56Z</time></trkpt><trkpt lat="45.056438717139265" lon="6.861540587936176"><ele>1033.0</ele><time>2026-05-02T07:42:57Z</time></trkpt><trkpt lat="45.05659023588254" lon="6.86177253194149"><ele>1032.0</ele><time>2026-05-02T07:42:58Z</time></trkpt><trkpt lat="45.05676492489222" lon="6.86201917183793"><ele>1031.5</ele><time>2026-05-02T07:42:59Z</time></trkpt><trkpt lat="45.0569457551198" lon="6.862276126159742"><ele>1031.0</ele><time>2026-05-02T07:43:00Z</time></trkpt><trkpt lat="45.05713090332976" lon="6.86253919265358"><ele>1030.0</ele><time>2026-05-02T07:43:01Z</time></trkpt><trkpt lat="45.05731592880054" lon="6.862805439762468"><ele>1029.0</ele><time>2026-05-02T07:43:02Z</time></trkpt><trkpt lat="45.05748355521006" lon="6.863053237259312"><ele>1029.0</ele><time>2026-05-02T07:43:03Z</time></trkpt><trkpt lat="45.057643823198305" lon="6.863302129885907"><ele>1029.0</ele><time>2026-05-02T07:43:04Z</time></trkpt><trkpt lat="45.05779897459951" lon="6.86357606321424"><ele>1030.5</ele><time>2026-05-02T07:43:05Z</time></trkpt><trkpt lat="45.057929242361844" lon="6.863878828178086"><ele>1032.0</ele><time>2026-05-02T07:43:06Z</time></trkpt><trkpt lat="45.0580793434167" lon="6.864191578712962"><ele>1031.5</ele><time>2026-05-02T07:43:07Z</time></trkpt><trkpt lat="45.05826046847298" lon="6.864503157380657"><ele>1031.0</ele><time>2026-05-02T07:43:08Z</time></trkpt><trkpt lat="45.05845831526975" lon="6.864812868032201"><ele>1031.0</ele><time>2026-05-02T07:43:09Z</time></trkpt><trkpt lat="45.058649212642756" lon="6.8651107011936325"><ele>1031.0</ele><time>2026-05-02T07:43:10Z</time></trkpt><trkpt lat="45.05884843251293" lon="6.865399238419229"><ele>1031.0</ele><time>2026-05-02T07:43:11Z</time></trkpt><trkpt lat="45.05906180692547" lon="6.8656818429440145"><ele>1031.0</ele><time>2026-05-02T07:43:12Z</time></trkpt><trkpt lat="45.05928027049025" lon="6.865947961272782"><ele>1029.0</ele><time>2026-05-02T07:43:13Z</time></trkpt><trkpt lat="45.05949283992416" lon="6.866194265285642"><ele>1027.0</ele><time>2026-05-02T07:43:14Z</time></trkpt><trkpt lat="45.05969566108707" lon="6.866442607631181"><ele>1027.0</ele><time>2026-05-02T07:43:15Z</time></trkpt><trkpt lat="45.059899152796504" lon="6.866678968351258"><ele>1027.0</ele><time>2026-05-02T07:43:16Z</time></trkpt><trkpt lat="45.06010105090444" lon="6.866904072300292"><ele>1027.0</ele><time>2026-05-02T07:43:17Z</time></trkpt><trkpt lat="45.060326379563946" lon="6.867109038090662"><ele>1027.0</ele><time>2026-05-02T07:43:18Z</time></trkpt><trkpt lat="45.060563034143584" lon="6.86730228740486"><ele>1026.5</ele><time>2026-05-02T07:43:19Z</time></trkpt><trkpt lat="45.060789611460144" lon="6.867492576137385"><ele>1026.0</ele><time>2026-05-02T07:43:20Z</time></trkpt><trkpt lat="45.06100640450982" lon="6.8676832079453085"><ele>1026.0</ele><time>2026-05-02T07:43:20.999Z</time></trkpt><trkpt lat="45.06121725188374" lon="6.867872906755926"><ele>1026.0</ele><time>2026-05-02T07:43:21.999Z</time></trkpt><trkpt lat="45.061427534461" lon="6.868065034550373"><ele>1025.5</ele><time>2026-05-02T07:43:22.999Z</time></trkpt><trkpt lat="45.06162854497478" lon="6.868256024034753"><ele>1025.0</ele><time>2026-05-02T07:43:23.999Z</time></trkpt><trkpt lat="45.06181977381546" lon="6.868447508587281"><ele>1025.0</ele><time>2026-05-02T07:43:24.999Z</time></trkpt><trkpt lat="45.062007523283725" lon="6.868638838389096"><ele>1025.0</ele><time>2026-05-02T07:43:25.999Z</time></trkpt><trkpt lat="45.062187786685165" lon="6.868822272988694"><ele>1025.0</ele><time>2026-05-02T07:43:26.999Z</time></trkpt><trkpt lat="45.06236565805982" lon="6.869005261233021"><ele>1025.0</ele><time>2026-05-02T07:43:27.999Z</time></trkpt><trkpt lat="45.06254095809451" lon="6.869187674029237"><ele>1025.0</ele><time>2026-05-02T07:43:28.999Z</time></trkpt><trkpt lat="45.06271723662132" lon="6.869370311712203"><ele>1025.0</ele><time>2026-05-02T07:43:29.999Z</time></trkpt><trkpt lat="45.062893218654715" lon="6.869544283198612"><ele>1025.0</ele><time>2026-05-02T07:43:30.999Z</time></trkpt><trkpt lat="45.06306213998877" lon="6.869718966231813"><ele>1025.0</ele><time>2026-05-02T07:43:31.999Z</time></trkpt><trkpt lat="45.063216501867736" lon="6.869898723457678"><ele>1025.0</ele><time>2026-05-02T07:43:32.999Z</time></trkpt><trkpt lat="45.06335995169124" lon="6.870097189698172"><ele>1025.0</ele><time>2026-05-02T07:43:33.999Z</time></trkpt><trkpt lat="45.06349406340355" lon="6.870334168984631"><ele>1025.0</ele><time>2026-05-02T07:43:34.999Z</time></trkpt><trkpt lat="45.06361674997999" lon="6.87059060725298"><ele>1025.0</ele><time>2026-05-02T07:43:35.999Z</time></trkpt><trkpt lat="45.06371928251351" lon="6.8708725815305804"><ele>1025.0</ele><time>2026-05-02T07:43:36.999Z</time></trkpt><trkpt lat="45.06380216843452" lon="6.871176815281739"><ele>1025.0</ele><time>2026-05-02T07:43:37.999Z</time></trkpt><trkpt lat="45.06389125010162" lon="6.8714683389931555"><ele>1025.0</ele><time>2026-05-02T07:43:38.999Z</time></trkpt><trkpt lat="45.063978996820616" lon="6.871726496033678"><ele>1025.0</ele><time>2026-05-02T07:43:39.999Z</time></trkpt><trkpt lat="45.06406586022527" lon="6.871955455457159"><ele>1025.0</ele><time>2026-05-02T07:43:40.999Z</time></trkpt><trkpt lat="45.06415636768325" lon="6.872159398286467"><ele>1025.0</ele><time>2026-05-02T07:43:41.999Z</time></trkpt><trkpt lat="45.064265725112385" lon="6.872372563816803"><ele>1025.0</ele><time>2026-05-02T07:43:42.999Z</time></trkpt><trkpt lat="45.06437231752565" lon="6.872584897078258"><ele>1025.3333333333335</ele><time>2026-05-02T07:43:43.999Z</time></trkpt><trkpt lat="45.06448202517479" lon="6.87278616047797"><ele>1025.6666666666667</ele><time>2026-05-02T07:43:44.999Z</time></trkpt><trkpt lat="45.0646005843047" lon="6.872991101550094"><ele>1026.0</ele><time>2026-05-02T07:43:45.999Z</time></trkpt><trkpt lat="45.06471859028313" lon="6.873199389376258"><ele>1026.0</ele><time>2026-05-02T07:43:46.999Z</time></trkpt><trkpt lat="45.064833794855154" lon="6.8734052160255725"><ele>1026.0</ele><time>2026-05-02T07:43:47.999Z</time></trkpt><trkpt lat="45.064948366058985" lon="6.873603189498127"><ele>1026.0</ele><time>2026-05-02T07:43:48.999Z</time></trkpt><trkpt lat="45.065065420117335" lon="6.8737974770045405"><ele>1026.0</ele><time>2026-05-02T07:43:49.999Z</time></trkpt><trkpt lat="45.06518487657851" lon="6.873990212510396"><ele>1026.0</ele><time>2026-05-02T07:43:50.999Z</time></trkpt><trkpt lat="45.06531558363035" lon="6.874179775510544"><ele>1026.0</ele><time>2026-05-02T07:43:51.999Z</time></trkpt><trkpt lat="45.065455846856146" lon="6.874363099924978"><ele>1026.0</ele><time>2026-05-02T07:43:52.999Z</time></trkpt><trkpt lat="45.06560475330519" lon="6.874545208194465"><ele>1026.0</ele><time>2026-05-02T07:43:53.999Z</time></trkpt><trkpt lat="45.06575497612706" lon="6.874731847892893"><ele>1026.0</ele><time>2026-05-02T07:43:54.999Z</time></trkpt><trkpt lat="45.06590880389374" lon="6.874926616280193"><ele>1026.6666666666667</ele><time>2026-05-02T07:43:55.999Z</time></trkpt><trkpt lat="45.066063231066245" lon="6.875118393415811"><ele>1027.3333333333335</ele><time>2026-05-02T07:43:56.999Z</time></trkpt><trkpt lat="45.066219219254066" lon="6.875309350622684"><ele>1028.0</ele><time>2026-05-02T07:43:57.999Z</time></trkpt><trkpt lat="45.06636719212669" lon="6.875491977660563"><ele>1028.0</ele><time>2026-05-02T07:43:58.999Z</time></trkpt><trkpt lat="45.06650163129633" lon="6.875658509805674"><ele>1028.0</ele><time>2026-05-02T07:43:59.999Z</time></trkpt><trkpt lat="45.066619311126686" lon="6.875808706683978"><ele>1028.0</ele><time>2026-05-02T07:44:00.999Z</time></trkpt><trkpt lat="45.066731566680026" lon="6.875954748526422"><ele>1028.0</ele><time>2026-05-02T07:44:01.999Z</time></trkpt><trkpt lat="45.06684175997671" lon="6.876100493544623"><ele>1028.0</ele><time>2026-05-02T07:44:02.999Z</time></trkpt><trkpt lat="45.06695726508533" lon="6.876249353306233"><ele>1028.0</ele><time>2026-05-02T07:44:03.999Z</time></trkpt><trkpt lat="45.06707020769263" lon="6.876395207932258"><ele>1028.0</ele><time>2026-05-02T07:44:04.999Z</time></trkpt><trkpt lat="45.06719073435853" lon="6.876542177064451"><ele>1028.0</ele><time>2026-05-02T07:44:05.999Z</time></trkpt><trkpt lat="45.06730450544699" lon="6.876678923640778"><ele>1028.0</ele><time>2026-05-02T07:44:06.999Z</time></trkpt><trkpt lat="45.06742108104711" lon="6.876810095809008"><ele>1027.5</ele><time>2026-05-02T07:44:07.999Z</time></trkpt><trkpt lat="45.067529119471445" lon="6.876941663996455"><ele>1027.0</ele><time>2026-05-02T07:44:08.999Z</time></trkpt><trkpt lat="45.067636160454974" lon="6.87705786618687"><ele>1026.5</ele><time>2026-05-02T07:44:09.999Z</time></trkpt><trkpt lat="45.06774965980359" lon="6.877172084432009"><ele>1026.0</ele><time>2026-05-02T07:44:10.999Z</time></trkpt><trkpt lat="45.067850450906015" lon="6.877289400053525"><ele>1026.0</ele><time>2026-05-02T07:44:11.999Z</time></trkpt><trkpt lat="45.06795647253446" lon="6.877409476068096"><ele>1026.0</ele><time>2026-05-02T07:44:12.999Z</time></trkpt><trkpt lat="45.06808143063058" lon="6.877544943630271"><ele>1026.0</ele><time>2026-05-02T07:44:13.999Z</time></trkpt><trkpt lat="45.06819082006543" lon="6.877683872139235"><ele>1026.0</ele><time>2026-05-02T07:44:14.999Z</time></trkpt><trkpt lat="45.068327710933545" lon="6.877832134145856"><ele>1028.0</ele><time>2026-05-02T07:44:15.999Z</time></trkpt><trkpt lat="45.06849358813394" lon="6.878055145799312"><ele>1030.0</ele><time>2026-05-02T07:44:16.999Z</time></trkpt><trkpt lat="45.06863124446547" lon="6.878231741356589"><ele>1032.0</ele><time>2026-05-02T07:44:17.999Z</time></trkpt><trkpt lat="45.06873068483261" lon="6.878394936497372"><ele>1031.75</ele><time>2026-05-02T07:44:18.999Z</time></trkpt><trkpt lat="45.06881455854376" lon="6.87853726973683"><ele>1031.5</ele><time>2026-05-02T07:44:19.999Z</time></trkpt><trkpt lat="45.06888871323716" lon="6.87867250212236"><ele>1031.25</ele><time>2026-05-02T07:44:20.999Z</time></trkpt><trkpt lat="45.06894858741315" lon="6.878798015586012"><ele>1031.0</ele><time>2026-05-02T07:44:21.999Z</time></trkpt><trkpt lat="45.06900266728667" lon="6.878923839072093"><ele>1031.0</ele><time>2026-05-02T07:44:22.999Z</time></trkpt><trkpt lat="45.06904861421591" lon="6.879051289191585"><ele>1031.0</ele><time>2026-05-02T07:44:23.999Z</time></trkpt><trkpt lat="45.06909045774031" lon="6.879189540476064"><ele>1031.0</ele><time>2026-05-02T07:44:24.999Z</time></trkpt><trkpt lat="45.06912694719967" lon="6.879330610594966"><ele>1031.0</ele><time>2026-05-02T07:44:25.999Z</time></trkpt><trkpt lat="45.06916617326083" lon="6.879479577694377"><ele>1031.0</ele><time>2026-05-02T07:44:26.999Z</time></trkpt><trkpt lat="45.06920806203479" lon="6.879642637803903"><ele>1032.0</ele><time>2026-05-02T07:44:27.999Z</time></trkpt><trkpt lat="45.06925902577967" lon="6.879816629614312"><ele>1033.0</ele><time>2026-05-02T07:44:28.999Z</time></trkpt><trkpt lat="45.069308142560146" lon="6.87999119616903"><ele>1034.0</ele><time>2026-05-02T07:44:29.999Z</time></trkpt><trkpt lat="45.06934592346667" lon="6.880162709627771"><ele>1035.0</ele><time>2026-05-02T07:44:30.999Z</time></trkpt><trkpt lat="45.06939438846669" lon="6.880348028033692"><ele>1035.0</ele><time>2026-05-02T07:44:31.999Z</time></trkpt><trkpt lat="45.06944520779303" lon="6.880539815276551"><ele>1035.0</ele><time>2026-05-02T07:44:32.999Z</time></trkpt><trkpt lat="45.06949765425258" lon="6.880725281075606"><ele>1035.0</ele><time>2026-05-02T07:44:33.999Z</time></trkpt><trkpt lat="45.069542995365474" lon="6.880907679567073"><ele>1035.0</ele><time>2026-05-02T07:44:34.999Z</time></trkpt><trkpt lat="45.069580331846005" lon="6.881073417025244"><ele>1033.25</ele><time>2026-05-02T07:44:35.999Z</time></trkpt><trkpt lat="45.06962189894883" lon="6.881242474443635"><ele>1031.5</ele><time>2026-05-02T07:44:36.999Z</time></trkpt><trkpt lat="45.06966593461545" lon="6.881408665877652"><ele>1029.75</ele><time>2026-05-02T07:44:37.999Z</time></trkpt><trkpt lat="45.06970573063661" lon="6.881591422744173"><ele>1028.0</ele><time>2026-05-02T07:44:38.999Z</time></trkpt><trkpt lat="45.069749917877274" lon="6.881754172861222"><ele>1026.25</ele><time>2026-05-02T07:44:39.999Z</time></trkpt><trkpt lat="45.069799554795495" lon="6.881909693306576"><ele>1024.5</ele><time>2026-05-02T07:44:40.998Z</time></trkpt><trkpt lat="45.06985577054419" lon="6.882076931426148"><ele>1022.75</ele><time>2026-05-02T07:44:42Z</time></trkpt><trkpt lat="45.06992626630203" lon="6.882241371446299"><ele>1021.0</ele><time>2026-05-02T07:44:43Z</time></trkpt><trkpt lat="45.07000509370567" lon="6.882407529877964"><ele>1021.75</ele><time>2026-05-02T07:44:44Z</time></trkpt><trkpt lat="45.070088668802285" lon="6.882577835120618"><ele>1022.5</ele><time>2026-05-02T07:44:45Z</time></trkpt><trkpt lat="45.07016763721013" lon="6.882743809402744"><ele>1023.25</ele><time>2026-05-02T07:44:46Z</time></trkpt><trkpt lat="45.070245221388554" lon="6.882916847409073"><ele>1024.0</ele><time>2026-05-02T07:44:47Z</time></trkpt><trkpt lat="45.07032261678813" lon="6.883088369729869"><ele>1024.0</ele><time>2026-05-02T07:44:48Z</time></trkpt><trkpt lat="45.07039820119248" lon="6.88324949512659"><ele>1024.0</ele><time>2026-05-02T07:44:49Z</time></trkpt><trkpt lat="45.07047103548004" lon="6.88340496719666"><ele>1024.0</ele><time>2026-05-02T07:44:50Z</time></trkpt><trkpt lat="45.07054281295649" lon="6.883546970861084"><ele>1024.0</ele><time>2026-05-02T07:44:51Z</time></trkpt><trkpt lat="45.070621511354325" lon="6.883691436742056"><ele>1024.5</ele><time>2026-05-02T07:44:52Z</time></trkpt><trkpt lat="45.070708179136595" lon="6.88383128451184"><ele>1025.0</ele><time>2026-05-02T07:44:53Z</time></trkpt><trkpt lat="45.07080774512302" lon="6.883951119107392"><ele>1025.5</ele><time>2026-05-02T07:44:54Z</time></trkpt><trkpt lat="45.07089859254587" lon="6.884042881232486"><ele>1026.0</ele><time>2026-05-02T07:44:55Z</time></trkpt><trkpt lat="45.07100155153103" lon="6.884129703766553"><ele>1026.0</ele><time>2026-05-02T07:44:56Z</time></trkpt><trkpt lat="45.071107078629844" lon="6.88420207538101"><ele>1026.0</ele><time>2026-05-02T07:44:57Z</time></trkpt><trkpt lat="45.07122608177163" lon="6.884270881066809"><ele>1026.0</ele><time>2026-05-02T07:44:58Z</time></trkpt><trkpt lat="45.07135073453292" lon="6.88433893021369"><ele>1026.0</ele><time>2026-05-02T07:44:59Z</time></trkpt><trkpt lat="45.07147692194223" lon="6.884393219256449"><ele>1023.25</ele><time>2026-05-02T07:45:00Z</time></trkpt><trkpt lat="45.07159995419031" lon="6.884433746641257"><ele>1020.5</ele><time>2026-05-02T07:45:01Z</time></trkpt><trkpt lat="45.07171170696807" lon="6.884476782994296"><ele>1017.75</ele><time>2026-05-02T07:45:02Z</time></trkpt><trkpt lat="45.071820524202984" lon="6.884521356319489"><ele>1015.0</ele><time>2026-05-02T07:45:03Z</time></trkpt><trkpt lat="45.07192652672782" lon="6.884571893644566"><ele>1015.0</ele><time>2026-05-02T07:45:04Z</time></trkpt><trkpt lat="45.072031585742835" lon="6.884607627260236"><ele>1015.0</ele><time>2026-05-02T07:45:05Z</time></trkpt><trkpt lat="45.07213725802272" lon="6.884641768270316"><ele>1015.0</ele><time>2026-05-02T07:45:06Z</time></trkpt><trkpt lat="45.07223842530218" lon="6.8846819098020235"><ele>1015.0</ele><time>2026-05-02T07:45:07Z</time></trkpt><trkpt lat="45.07234280810936" lon="6.884726270919008"><ele>1015.0</ele><time>2026-05-02T07:45:08Z</time></trkpt><trkpt lat="45.0724501690322" lon="6.884769394517584"><ele>1016.2</ele><time>2026-05-02T07:45:09Z</time></trkpt><trkpt lat="45.07255742447857" lon="6.884812489528485"><ele>1017.4</ele><time>2026-05-02T07:45:10Z</time></trkpt><trkpt lat="45.072669827471245" lon="6.884857639535118"><ele>1018.5999999999999</ele><time>2026-05-02T07:45:11Z</time></trkpt><trkpt lat="45.07277391280196" lon="6.884903673693061"><ele>1019.8</ele><time>2026-05-02T07:45:12Z</time></trkpt><trkpt lat="45.07287444317595" lon="6.8849441918832595"><ele>1021.0</ele><time>2026-05-02T07:45:13Z</time></trkpt><trkpt lat="45.07297060017496" lon="6.884980482819394"><ele>1021.0</ele><time>2026-05-02T07:45:14Z</time></trkpt><trkpt lat="45.07306420214798" lon="6.88501637063186"><ele>1020.9999999999999</ele><time>2026-05-02T07:45:15Z</time></trkpt><trkpt lat="45.073156879245005" lon="6.885054983716763"><ele>1020.9999999999999</ele><time>2026-05-02T07:45:16Z</time></trkpt><trkpt lat="45.07325270280984" lon="6.885093642057126"><ele>1021.0</ele><time>2026-05-02T07:45:17Z</time></trkpt><trkpt lat="45.073352515432454" lon="6.885133670279345"><ele>1021.0</ele><time>2026-05-02T07:45:18Z</time></trkpt><trkpt lat="45.073459330063926" lon="6.88517872694874"><ele>1019.25</ele><time>2026-05-02T07:45:19Z</time></trkpt><trkpt lat="45.07356962900934" lon="6.885227420030823"><ele>1017.5</ele><time>2026-05-02T07:45:20Z</time></trkpt><trkpt lat="45.0736827307063" lon="6.885286907742987"><ele>1015.75</ele><time>2026-05-02T07:45:21Z</time></trkpt><trkpt lat="45.07379705784475" lon="6.885364431533761"><ele>1014.0</ele><time>2026-05-02T07:45:22Z</time></trkpt><trkpt lat="45.07390921088203" lon="6.885454422885878"><ele>1014.0</ele><time>2026-05-02T07:45:23Z</time></trkpt><trkpt lat="45.074025047116464" lon="6.885551935065424"><ele>1014.0</ele><time>2026-05-02T07:45:24Z</time></trkpt><trkpt lat="45.07413521958459" lon="6.885656537822329"><ele>1014.0</ele><time>2026-05-02T07:45:25Z</time></trkpt><trkpt lat="45.07424893718424" lon="6.885789352994455"><ele>1014.0</ele><time>2026-05-02T07:45:26Z</time></trkpt><trkpt lat="45.074364449470416" lon="6.88595754837122"><ele>1012.0</ele><time>2026-05-02T07:45:27Z</time></trkpt><trkpt lat="45.07448099872175" lon="6.886124378302363"><ele>1010.0</ele><time>2026-05-02T07:45:28Z</time></trkpt><trkpt lat="45.0745955696907" lon="6.886303424139123"><ele>1008.0</ele><time>2026-05-02T07:45:29Z</time></trkpt><trkpt lat="45.074686617575225" lon="6.886457317150323"><ele>1008.0</ele><time>2026-05-02T07:45:29.999Z</time></trkpt><trkpt lat="45.074767112478916" lon="6.886611833786502"><ele>1008.0</ele><time>2026-05-02T07:45:30.999Z</time></trkpt><trkpt lat="45.07484355390441" lon="6.886762740858392"><ele>1008.0</ele><time>2026-05-02T07:45:31.999Z</time></trkpt><trkpt lat="45.074914632123026" lon="6.886910652381401"><ele>1008.0</ele><time>2026-05-02T07:45:32.999Z</time></trkpt><trkpt lat="45.074995003858106" lon="6.887049686230516"><ele>1009.5</ele><time>2026-05-02T07:45:33.999Z</time></trkpt><trkpt lat="45.075080813977145" lon="6.887172289761031"><ele>1011.0</ele><time>2026-05-02T07:45:34.999Z</time></trkpt><trkpt lat="45.07517613693048" lon="6.887270222568102"><ele>1012.5</ele><time>2026-05-02T07:45:35.999Z</time></trkpt><trkpt lat="45.07527931751994" lon="6.887359497472915"><ele>1014.0</ele><time>2026-05-02T07:45:36.999Z</time></trkpt><trkpt lat="45.075378873105144" lon="6.887461729677862"><ele>1014.0</ele><time>2026-05-02T07:45:37.999Z</time></trkpt><trkpt lat="45.07546609877138" lon="6.887586254966576"><ele>1014.0</ele><time>2026-05-02T07:45:38.999Z</time></trkpt><trkpt lat="45.07555610855068" lon="6.887722034176221"><ele>1014.0</ele><time>2026-05-02T07:45:39.999Z</time></trkpt><trkpt lat="45.07564486253544" lon="6.887883230355388"><ele>1014.0</ele><time>2026-05-02T07:45:40.999Z</time></trkpt><trkpt lat="45.0757359835411" lon="6.8880614925940895"><ele>1012.6666666666667</ele><time>2026-05-02T07:45:41.999Z</time></trkpt><trkpt lat="45.075827327811055" lon="6.888263318744896"><ele>1011.3333333333334</ele><time>2026-05-02T07:45:42.999Z</time></trkpt><trkpt lat="45.07590942415576" lon="6.888485854213776"><ele>1010.0</ele><time>2026-05-02T07:45:43.999Z</time></trkpt><trkpt lat="45.07600369323277" lon="6.888703701372068"><ele>1010.0</ele><time>2026-05-02T07:45:44.999Z</time></trkpt><trkpt lat="45.0761301303145" lon="6.888894121513727"><ele>1010.0</ele><time>2026-05-02T07:45:45.999Z</time></trkpt><trkpt lat="45.07626665946662" lon="6.88907387901211"><ele>1010.0</ele><time>2026-05-02T07:45:46.999Z</time></trkpt><trkpt lat="45.07639843787069" lon="6.88927607670958"><ele>1009.0</ele><time>2026-05-02T07:45:47.999Z</time></trkpt><trkpt lat="45.0765208061744" lon="6.8894756942752515"><ele>1008.0</ele><time>2026-05-02T07:45:48.999Z</time></trkpt><trkpt lat="45.07664063118842" lon="6.889667940713657"><ele>1007.0</ele><time>2026-05-02T07:45:49.999Z</time></trkpt><trkpt lat="45.07675696901358" lon="6.889865741616146"><ele>1006.3333333333334</ele><time>2026-05-02T07:45:50.999Z</time></trkpt><trkpt lat="45.07686782105385" lon="6.890064364227622"><ele>1005.6666666666667</ele><time>2026-05-02T07:45:51.999Z</time></trkpt><trkpt lat="45.07696489557503" lon="6.890300804835499"><ele>1005.0</ele><time>2026-05-02T07:45:52.999Z</time></trkpt><trkpt lat="45.07704714471683" lon="6.890564669915828"><ele>1005.0</ele><time>2026-05-02T07:45:53.999Z</time></trkpt><trkpt lat="45.07715766838911" lon="6.890831835836678"><ele>1005.0</ele><time>2026-05-02T07:45:54.999Z</time></trkpt><trkpt lat="45.077311918349324" lon="6.891089350109326"><ele>1011.5</ele><time>2026-05-02T07:45:55.999Z</time></trkpt><trkpt lat="45.07747906837242" lon="6.891345476368115"><ele>1018.0</ele><time>2026-05-02T07:45:56.999Z</time></trkpt><trkpt lat="45.077644531578365" lon="6.891607677226687"><ele>1013.0</ele><time>2026-05-02T07:45:57.999Z</time></trkpt><trkpt lat="45.07779985003474" lon="6.891893328116521"><ele>1008.0</ele><time>2026-05-02T07:45:58.999Z</time></trkpt><trkpt lat="45.077939808672646" lon="6.892206174559813"><ele>1008.0</ele><time>2026-05-02T07:45:59.999Z</time></trkpt><trkpt lat="45.078072057404846" lon="6.8925189895880825"><ele>1008.0</ele><time>2026-05-02T07:46:00.999Z</time></trkpt><trkpt lat="45.078217678652514" lon="6.892811646360035"><ele>1018.0</ele><time>2026-05-02T07:46:01.999Z</time></trkpt><trkpt lat="45.07836710511146" lon="6.893071681088332"><ele>1028.0</ele><time>2026-05-02T07:46:02.999Z</time></trkpt><trkpt lat="45.07849216197223" lon="6.893334567292682"><ele>1023.3333333333334</ele><time>2026-05-02T07:46:03.999Z</time></trkpt><trkpt lat="45.078600815787816" lon="6.893580024221115"><ele>1018.6666666666667</ele><time>2026-05-02T07:46:04.999Z</time></trkpt><trkpt lat="45.078701808719245" lon="6.893800976363169"><ele>1014.0</ele><time>2026-05-02T07:46:05.999Z</time></trkpt><trkpt lat="45.078796680359055" lon="6.894005759678937"><ele>1014.0</ele><time>2026-05-02T07:46:06.999Z</time></trkpt><trkpt lat="45.07889328162202" lon="6.894208494321033"><ele>1014.0</ele><time>2026-05-02T07:46:07.999Z</time></trkpt><trkpt lat="45.078987820374124" lon="6.89440865579478"><ele>1014.0</ele><time>2026-05-02T07:46:08.999Z</time></trkpt><trkpt lat="45.07908049021479" lon="6.894605493408082"><ele>1019.6666666666667</ele><time>2026-05-02T07:46:09.999Z</time></trkpt><trkpt lat="45.07916918828399" lon="6.894798663682022"><ele>1025.3333333333335</ele><time>2026-05-02T07:46:10.999Z</time></trkpt><trkpt lat="45.079246301710604" lon="6.8949814765597734"><ele>1031.0</ele><time>2026-05-02T07:46:11.999Z</time></trkpt><trkpt lat="45.079301230783365" lon="6.895191280735177"><ele>1031.0</ele><time>2026-05-02T07:46:12.999Z</time></trkpt><trkpt lat="45.079315058383365" lon="6.895432423444492"><ele>1031.0</ele><time>2026-05-02T07:46:13.999Z</time></trkpt><trkpt lat="45.07930287579015" lon="6.89569196444925"><ele>1031.0</ele><time>2026-05-02T07:46:14.999Z</time></trkpt><trkpt lat="45.079263203336886" lon="6.895951653254326"><ele>1028.6666666666667</ele><time>2026-05-02T07:46:15.999Z</time></trkpt><trkpt lat="45.0792167528415" lon="6.896201559886479"><ele>1026.3333333333333</ele><time>2026-05-02T07:46:16.999Z</time></trkpt><trkpt lat="45.07918339134182" lon="6.896453127178983"><ele>1024.0</ele><time>2026-05-02T07:46:17.999Z</time></trkpt><trkpt lat="45.07918114955741" lon="6.896713033910111"><ele>1024.3333333333333</ele><time>2026-05-02T07:46:18.999Z</time></trkpt><trkpt lat="45.07919376637559" lon="6.896963556606038"><ele>1024.6666666666667</ele><time>2026-05-02T07:46:19.999Z</time></trkpt><trkpt lat="45.079211790524695" lon="6.8971961238931145"><ele>1025.0</ele><time>2026-05-02T07:46:20.999Z</time></trkpt><trkpt lat="45.07923036831897" lon="6.897404380429086"><ele>1024.75</ele><time>2026-05-02T07:46:21.999Z</time></trkpt><trkpt lat="45.079269748952186" lon="6.897600436331036"><ele>1024.5</ele><time>2026-05-02T07:46:22.999Z</time></trkpt><trkpt lat="45.07933852616215" lon="6.897778173756846"><ele>1024.25</ele><time>2026-05-02T07:46:23.999Z</time></trkpt><trkpt lat="45.07940586601401" lon="6.897946655293263"><ele>1024.0</ele><time>2026-05-02T07:46:24.999Z</time></trkpt><trkpt lat="45.07945412214102" lon="6.898116952155153"><ele>1024.0</ele><time>2026-05-02T07:46:25.999Z</time></trkpt><trkpt lat="45.079477868091914" lon="6.8983039908244015"><ele>1024.0</ele><time>2026-05-02T07:46:26.999Z</time></trkpt><trkpt lat="45.079456945229026" lon="6.898496564673398"><ele>1024.0</ele><time>2026-05-02T07:46:27.999Z</time></trkpt><trkpt lat="45.07940420945643" lon="6.89867811823853"><ele>1024.0</ele><time>2026-05-02T07:46:28.999Z</time></trkpt><trkpt lat="45.0793345590225" lon="6.898854395375582"><ele>1025.3333333333333</ele><time>2026-05-02T07:46:29.999Z</time></trkpt><trkpt lat="45.07927131504973" lon="6.899048455629379"><ele>1026.6666666666667</ele><time>2026-05-02T07:46:30.999Z</time></trkpt><trkpt lat="45.079191973503114" lon="6.899231980372921"><ele>1028.0</ele><time>2026-05-02T07:46:31.999Z</time></trkpt><trkpt lat="45.079105979714186" lon="6.899417578047097"><ele>1024.75</ele><time>2026-05-02T07:46:32.999Z</time></trkpt><trkpt lat="45.0790185556536" lon="6.899603181389354"><ele>1021.5</ele><time>2026-05-02T07:46:33.999Z</time></trkpt><trkpt lat="45.07893202830602" lon="6.8997718640425285"><ele>1018.25</ele><time>2026-05-02T07:46:34.999Z</time></trkpt><trkpt lat="45.078851060873205" lon="6.899940522682959"><ele>1015.0</ele><time>2026-05-02T07:46:35.999Z</time></trkpt><trkpt lat="45.078779658962276" lon="6.900107651394741"><ele>1015.0</ele><time>2026-05-02T07:46:36.999Z</time></trkpt><trkpt lat="45.07871947383524" lon="6.900276719818084"><ele>1015.0</ele><time>2026-05-02T07:46:37.999Z</time></trkpt><trkpt lat="45.07867311569792" lon="6.900466780566373"><ele>1015.0</ele><time>2026-05-02T07:46:38.999Z</time></trkpt><trkpt lat="45.07864600222457" lon="6.900657282910462"><ele>1015.0</ele><time>2026-05-02T07:46:39.999Z</time></trkpt><trkpt lat="45.07864328936018" lon="6.900857530118084"><ele>1014.0</ele><time>2026-05-02T07:46:40.999Z</time></trkpt><trkpt lat="45.07865977035862" lon="6.9010726512537"><ele>1013.0</ele><time>2026-05-02T07:46:41.999Z</time></trkpt><trkpt lat="45.078681228199905" lon="6.901301270210279"><ele>1012.0</ele><time>2026-05-02T07:46:42.999Z</time></trkpt><trkpt lat="45.07869993961878" lon="6.901529920720803"><ele>1011.5</ele><time>2026-05-02T07:46:43.999Z</time></trkpt><trkpt lat="45.07871577554616" lon="6.901748753859954"><ele>1011.0</ele><time>2026-05-02T07:46:44.999Z</time></trkpt><trkpt lat="45.078742971854524" lon="6.90195634045161"><ele>1010.5</ele><time>2026-05-02T07:46:45.999Z</time></trkpt><trkpt lat="45.078793650218344" lon="6.9021417503837945"><ele>1010.0</ele><time>2026-05-02T07:46:46.999Z</time></trkpt><trkpt lat="45.078878452526716" lon="6.902305525802331"><ele>1010.0</ele><time>2026-05-02T07:46:48Z</time></trkpt><trkpt lat="45.07900178193611" lon="6.90245993719015"><ele>1010.0</ele><time>2026-05-02T07:46:49Z</time></trkpt><trkpt lat="45.0791459577809" lon="6.902604590733907"><ele>1010.0</ele><time>2026-05-02T07:46:50Z</time></trkpt><trkpt lat="45.079299233600636" lon="6.902752966243047"><ele>1015.6666666666667</ele><time>2026-05-02T07:46:51Z</time></trkpt><trkpt lat="45.07944986812606" lon="6.902944859891063"><ele>1021.3333333333333</ele><time>2026-05-02T07:46:52Z</time></trkpt><trkpt lat="45.07958486264442" lon="6.903180086715449"><ele>1027.0</ele><time>2026-05-02T07:46:53Z</time></trkpt><trkpt lat="45.07969906860154" lon="6.90339238304373"><ele>1028.25</ele><time>2026-05-02T07:46:54Z</time></trkpt><trkpt lat="45.07980199419598" lon="6.903578251889979"><ele>1029.5</ele><time>2026-05-02T07:46:55Z</time></trkpt><trkpt lat="45.0798903120649" lon="6.90373175385864"><ele>1030.75</ele><time>2026-05-02T07:46:56Z</time></trkpt><trkpt lat="45.079979449828286" lon="6.903845117837461"><ele>1032.0</ele><time>2026-05-02T07:46:57Z</time></trkpt><trkpt lat="45.08007706423158" lon="6.903904666954673"><ele>1032.0</ele><time>2026-05-02T07:46:58Z</time></trkpt><trkpt lat="45.08017484166415" lon="6.903896062482538"><ele>1032.0</ele><time>2026-05-02T07:46:59Z</time></trkpt><trkpt lat="45.08024557820151" lon="6.903805081785959"><ele>1032.0</ele><time>2026-05-02T07:47:00Z</time></trkpt><trkpt lat="45.08026955452911" lon="6.903696458360184"><ele>1032.0</ele><time>2026-05-02T07:47:01Z</time></trkpt><trkpt lat="45.08026199962888" lon="6.903573720097439"><ele>1032.0</ele><time>2026-05-02T07:47:02Z</time></trkpt><trkpt lat="45.08022274698761" lon="6.903453637677262"><ele>1030.3333333333333</ele><time>2026-05-02T07:47:03Z</time></trkpt><trkpt lat="45.08014006093375" lon="6.903316066056753"><ele>1028.6666666666665</ele><time>2026-05-02T07:47:04Z</time></trkpt><trkpt lat="45.08004057784012" lon="6.903126780481672"><ele>1027.0</ele><time>2026-05-02T07:47:05Z</time></trkpt><trkpt lat="45.07992916010766" lon="6.902926976832179"><ele>1027.0</ele><time>2026-05-02T07:47:06Z</time></trkpt><trkpt lat="45.079791938164746" lon="6.902683907442065"><ele>1027.0</ele><time>2026-05-02T07:47:07Z</time></trkpt><trkpt lat="45.079645159193525" lon="6.902423909046952"><ele>1029.3333333333333</ele><time>2026-05-02T07:47:08Z</time></trkpt><trkpt lat="45.07952096957294" lon="6.902214032556305"><ele>1031.6666666666667</ele><time>2026-05-02T07:47:09Z</time></trkpt><trkpt lat="45.079432716810196" lon="6.902013308123828"><ele>1034.0</ele><time>2026-05-02T07:47:10Z</time></trkpt><trkpt lat="45.079362966383336" lon="6.9018385686353465"><ele>1036.75</ele><time>2026-05-02T07:47:11Z</time></trkpt><trkpt lat="45.07931095604769" lon="6.90164008501117"><ele>1039.5</ele><time>2026-05-02T07:47:12Z</time></trkpt><trkpt lat="45.079268152594054" lon="6.901449883844922"><ele>1042.25</ele><time>2026-05-02T07:47:13Z</time></trkpt><trkpt lat="45.07927855466957" lon="6.901238776081045"><ele>1045.0</ele><time>2026-05-02T07:47:14Z</time></trkpt><trkpt lat="45.07935878635559" lon="6.901043845386518"><ele>1045.0</ele><time>2026-05-02T07:47:15Z</time></trkpt><trkpt lat="45.07927834334618" lon="6.901083855205155"><ele>1045.0</ele><time>2026-05-02T07:47:16Z</time></trkpt><trkpt lat="45.07935834046237" lon="6.901065126072145"><ele>1045.0</ele><time>2026-05-02T07:47:17Z</time></trkpt><trkpt lat="45.079443106507796" lon="6.901116684356941"><ele>1045.0</ele><time>2026-05-02T07:47:18Z</time></trkpt><trkpt lat="45.079514885637394" lon="6.90125200863387"><ele>1045.0</ele><time>2026-05-02T07:47:19Z</time></trkpt><trkpt lat="45.07955990973279" lon="6.901462067098297"><ele>1045.0</ele><time>2026-05-02T07:47:20Z</time></trkpt><trkpt lat="45.0795958211071" lon="6.9017059800277245"><ele>1045.0</ele><time>2026-05-02T07:47:21Z</time></trkpt><trkpt lat="45.079679402082284" lon="6.901939415624907"><ele>1045.0</ele><time>2026-05-02T07:47:22Z</time></trkpt><trkpt lat="45.07982634289193" lon="6.902170860367748"><ele>1050.5</ele><time>2026-05-02T07:47:23Z</time></trkpt><trkpt lat="45.08002698841073" lon="6.902373140809553"><ele>1056.0</ele><time>2026-05-02T07:47:24Z</time></trkpt><trkpt lat="45.08027077358854" lon="6.902559744660636"><ele>1049.0</ele><time>2026-05-02T07:47:25Z</time></trkpt><trkpt lat="45.08048710986007" lon="6.90272565807775"><ele>1042.0</ele><time>2026-05-02T07:47:26Z</time></trkpt><trkpt lat="45.08067510347605" lon="6.902878412543487"><ele>1050.3333333333333</ele><time>2026-05-02T07:47:27Z</time></trkpt><trkpt lat="45.08083898093013" lon="6.903024688293194"><ele>1058.6666666666667</ele><time>2026-05-02T07:47:28Z</time></trkpt><trkpt lat="45.08098828432807" lon="6.90317748869834"><ele>1067.0</ele><time>2026-05-02T07:47:29Z</time></trkpt><trkpt lat="45.081095263704846" lon="6.903378509884623"><ele>1061.0</ele><time>2026-05-02T07:47:30Z</time></trkpt><trkpt lat="45.08120752247411" lon="6.903561923719695"><ele>1055.0</ele><time>2026-05-02T07:47:31Z</time></trkpt><trkpt lat="45.08132101324559" lon="6.90370822051362"><ele>1049.0</ele><time>2026-05-02T07:47:32Z</time></trkpt><trkpt lat="45.08142247197093" lon="6.90385280063495"><ele>1049.0</ele><time>2026-05-02T07:47:33Z</time></trkpt><trkpt lat="45.08154265499777" lon="6.903951552015782"><ele>1049.0</ele><time>2026-05-02T07:47:34Z</time></trkpt><trkpt lat="45.08167424683302" lon="6.903973851325679"><ele>1049.0</ele><time>2026-05-02T07:47:35Z</time></trkpt><trkpt lat="45.08180951204863" lon="6.903952705674265"><ele>1049.0</ele><time>2026-05-02T07:47:36Z</time></trkpt><trkpt lat="45.081946235106535" lon="6.903917428469698"><ele>1053.5</ele><time>2026-05-02T07:47:37Z</time></trkpt><trkpt lat="45.08207300015022" lon="6.903862996416703"><ele>1058.0</ele><time>2026-05-02T07:47:38Z</time></trkpt><trkpt lat="45.08219782679057" lon="6.903832566077144"><ele>1062.5</ele><time>2026-05-02T07:47:39Z</time></trkpt><trkpt lat="45.08231167649494" lon="6.903818178598789"><ele>1067.0</ele><time>2026-05-02T07:47:40Z</time></trkpt><trkpt lat="45.0824062468859" lon="6.903819191853546"><ele>1070.2</ele><time>2026-05-02T07:47:41Z</time></trkpt><trkpt lat="45.0824731173554" lon="6.903828182823874"><ele>1073.4</ele><time>2026-05-02T07:47:41.999Z</time></trkpt><trkpt lat="45.08253170978463" lon="6.9039007006052895"><ele>1076.6</ele><time>2026-05-02T07:47:42.999Z</time></trkpt><trkpt lat="45.08258799002413" lon="6.903953605397012"><ele>1079.8</ele><time>2026-05-02T07:47:43.999Z</time></trkpt><trkpt lat="45.08271006068302" lon="6.903896624285196"><ele>1083.0</ele><time>2026-05-02T07:47:44.999Z</time></trkpt><trkpt lat="45.08281404980429" lon="6.903981942269204"><ele>1083.0</ele><time>2026-05-02T07:47:45.999Z</time></trkpt><trkpt lat="45.08293161117297" lon="6.904081288362698"><ele>1083.0</ele><time>2026-05-02T07:47:46.999Z</time></trkpt><trkpt lat="45.083078479708036" lon="6.904152051790506"><ele>1083.0</ele><time>2026-05-02T07:47:47.999Z</time></trkpt><trkpt lat="45.083279846805716" lon="6.904187735597974"><ele>1081.6666666666667</ele><time>2026-05-02T07:47:48.999Z</time></trkpt><trkpt lat="45.08347183687748" lon="6.904234572001411"><ele>1080.3333333333335</ele><time>2026-05-02T07:47:49.999Z</time></trkpt><trkpt lat="45.083621443356996" lon="6.9043065708147235"><ele>1079.0</ele><time>2026-05-02T07:47:50.999Z</time></trkpt><trkpt lat="45.08374050841206" lon="6.904427615507557"><ele>1079.0</ele><time>2026-05-02T07:47:51.999Z</time></trkpt><trkpt lat="45.08382238408598" lon="6.90455007493744"><ele>1079.0</ele><time>2026-05-02T07:47:52.999Z</time></trkpt><trkpt lat="45.08388231191813" lon="6.904703024868881"><ele>1079.0</ele><time>2026-05-02T07:47:53.999Z</time></trkpt><trkpt lat="45.08392941934438" lon="6.904857480824107"><ele>1079.0</ele><time>2026-05-02T07:47:54.999Z</time></trkpt><trkpt lat="45.083986441293135" lon="6.905013090161598"><ele>1082.0</ele><time>2026-05-02T07:47:55.999Z</time></trkpt><trkpt lat="45.084058093328174" lon="6.90514651900826"><ele>1085.0</ele><time>2026-05-02T07:47:56.999Z</time></trkpt><trkpt lat="45.08414326471291" lon="6.90525322711364"><ele>1088.0</ele><time>2026-05-02T07:47:57.999Z</time></trkpt><trkpt lat="45.08421567566441" lon="6.905347280297362"><ele>1091.0</ele><time>2026-05-02T07:47:58.999Z</time></trkpt><trkpt lat="45.084274332985466" lon="6.905418310171159"><ele>1094.0</ele><time>2026-05-02T07:47:59.999Z</time></trkpt><trkpt lat="45.08433838169445" lon="6.905444980434883"><ele>1094.0</ele><time>2026-05-02T07:48:00.999Z</time></trkpt><trkpt lat="45.084394879713386" lon="6.905401388523813"><ele>1094.0</ele><time>2026-05-02T07:48:01.999Z</time></trkpt><trkpt lat="45.08440723023885" lon="6.905307963783431"><ele>1094.0</ele><time>2026-05-02T07:48:02.999Z</time></trkpt><trkpt lat="45.08437688710065" lon="6.905209398458604"><ele>1094.0</ele><time>2026-05-02T07:48:03.999Z</time></trkpt><trkpt lat="45.08429493874251" lon="6.905118523450516"><ele>1094.0</ele><time>2026-05-02T07:48:04.999Z</time></trkpt><trkpt lat="45.0842114183673" lon="6.904980030158761"><ele>1094.0</ele><time>2026-05-02T07:48:05.999Z</time></trkpt><trkpt lat="45.084178725071155" lon="6.904840030492786"><ele>1095.0</ele><time>2026-05-02T07:48:06.999Z</time></trkpt><trkpt lat="45.08415882143995" lon="6.904653723509759"><ele>1096.0</ele><time>2026-05-02T07:48:07.999Z</time></trkpt><trkpt lat="45.08414557394325" lon="6.90444599205638"><ele>1097.0</ele><time>2026-05-02T07:48:08.999Z</time></trkpt><trkpt lat="45.08411316197226" lon="6.904226966580856"><ele>1098.0</ele><time>2026-05-02T07:48:09.999Z</time></trkpt><trkpt lat="45.084064746918585" lon="6.904031978875626"><ele>1098.0</ele><time>2026-05-02T07:48:10.999Z</time></trkpt><trkpt lat="45.08400341745176" lon="6.903880624485215"><ele>1098.0</ele><time>2026-05-02T07:48:11.999Z</time></trkpt><trkpt lat="45.083938968691385" lon="6.903780080744296"><ele>1098.0</ele><time>2026-05-02T07:48:12.999Z</time></trkpt><trkpt lat="45.08390003855553" lon="6.90370874904317"><ele>1098.0</ele><time>2026-05-02T07:48:13.999Z</time></trkpt><trkpt lat="45.083912061961826" lon="6.903608705671868"><ele>1098.0</ele><time>2026-05-02T07:48:15.999Z</time></trkpt><trkpt lat="45.0839857662616" lon="6.903603707253575"><ele>1098.0</ele><time>2026-05-02T07:48:16.999Z</time></trkpt><trkpt lat="45.08406689647854" lon="6.903719288916464"><ele>1099.6666666666667</ele><time>2026-05-02T07:48:17.999Z</time></trkpt><trkpt lat="45.084121102726655" lon="6.903833543049788"><ele>1101.3333333333333</ele><time>2026-05-02T07:48:18.999Z</time></trkpt><trkpt lat="45.08420122791185" lon="6.9039121638827625"><ele>1103.0</ele><time>2026-05-02T07:48:19.999Z</time></trkpt><trkpt lat="45.08424376002586" lon="6.9040193074620895"><ele>1104.6666666666665</ele><time>2026-05-02T07:48:20.999Z</time></trkpt><trkpt lat="45.084304800318776" lon="6.904096199846686"><ele>1106.3333333333333</ele><time>2026-05-02T07:48:21.999Z</time></trkpt><trkpt lat="45.084362128505624" lon="6.904175549467148"><ele>1108.0</ele><time>2026-05-02T07:48:22.999Z</time></trkpt><trkpt lat="45.08442852495454" lon="6.904260977620602"><ele>1108.0</ele><time>2026-05-02T07:48:23.999Z</time></trkpt><trkpt lat="45.0845056736409" lon="6.904349133572711"><ele>1108.0</ele><time>2026-05-02T07:48:24.999Z</time></trkpt><trkpt lat="45.08458532288179" lon="6.904424902241065"><ele>1108.0</ele><time>2026-05-02T07:48:25.999Z</time></trkpt><trkpt lat="45.084662267795856" lon="6.904513669419642"><ele>1108.0</ele><time>2026-05-02T07:48:26.999Z</time></trkpt><trkpt lat="45.08473821528675" lon="6.904594531339485"><ele>1108.0</ele><time>2026-05-02T07:48:27.999Z</time></trkpt><trkpt lat="45.0848108354914" lon="6.904667860266902"><ele>1108.0</ele><time>2026-05-02T07:48:28.999Z</time></trkpt><trkpt lat="45.08487759351916" lon="6.904731773225196"><ele>1108.0</ele><time>2026-05-02T07:48:29.999Z</time></trkpt><trkpt lat="45.08494043574044" lon="6.904797904334607"><ele>1108.0</ele><time>2026-05-02T07:48:30.999Z</time></trkpt><trkpt lat="45.0850071357209" lon="6.904846876284987"><ele>1108.0</ele><time>2026-05-02T07:48:31.999Z</time></trkpt><trkpt lat="45.085084298097385" lon="6.90488492229534"><ele>1108.0</ele><time>2026-05-02T07:48:32.999Z</time></trkpt><trkpt lat="45.08516511880507" lon="6.9049128392243535"><ele>1108.0</ele><time>2026-05-02T07:48:33.999Z</time></trkpt><trkpt lat="45.085242252627644" lon="6.904943719909014"><ele>1113.2</ele><time>2026-05-02T07:48:34.999Z</time></trkpt><trkpt lat="45.085303831096084" lon="6.904967007078462"><ele>1118.4</ele><time>2026-05-02T07:48:35.999Z</time></trkpt><trkpt lat="45.0853951578439" lon="6.905027152130834"><ele>1123.6000000000001</ele><time>2026-05-02T07:48:37.999Z</time></trkpt><trkpt lat="45.085489081153206" lon="6.9049990365496505"><ele>1128.8</ele><time>2026-05-02T07:48:39.999Z</time></trkpt><trkpt lat="45.08548219688895" lon="6.904822585912478"><ele>1134.0</ele><time>2026-05-02T07:48:41.999Z</time></trkpt><trkpt lat="45.08544208433065" lon="6.904710125991172"><ele>1134.0</ele><time>2026-05-02T07:48:42.999Z</time></trkpt><trkpt lat="45.085396215359175" lon="6.904609167580293"><ele>1134.0</ele><time>2026-05-02T07:48:43.999Z</time></trkpt><trkpt lat="45.08534792513542" lon="6.904493879928545"><ele>1134.0</ele><time>2026-05-02T07:48:44.999Z</time></trkpt><trkpt lat="45.08528865255796" lon="6.904335794150502"><ele>1134.0</ele><time>2026-05-02T07:48:45.999Z</time></trkpt><trkpt lat="45.08520325301986" lon="6.904108025202204"><ele>1129.6666666666667</ele><time>2026-05-02T07:48:46.999Z</time></trkpt><trkpt lat="45.08511251670109" lon="6.903894615898419"><ele>1125.3333333333335</ele><time>2026-05-02T07:48:47.999Z</time></trkpt><trkpt lat="45.08502360201471" lon="6.903674965684378"><ele>1121.0</ele><time>2026-05-02T07:48:48.999Z</time></trkpt><trkpt lat="45.08492323746485" lon="6.903483400018152"><ele>1129.0</ele><time>2026-05-02T07:48:49.999Z</time></trkpt><trkpt lat="45.084818328901164" lon="6.9033336661373434"><ele>1137.0</ele><time>2026-05-02T07:48:50.999Z</time></trkpt><trkpt lat="45.084729740355264" lon="6.903222193788029"><ele>1145.0</ele><time>2026-05-02T07:48:51.999Z</time></trkpt><trkpt lat="45.08461979002639" lon="6.903128265658021"><ele>1153.0</ele><time>2026-05-02T07:48:52.999Z</time></trkpt><trkpt lat="45.084497333152356" lon="6.903069953677259"><ele>1153.0</ele><time>2026-05-02T07:48:54Z</time></trkpt><trkpt lat="45.08436548587991" lon="6.903029576806307"><ele>1153.0</ele><time>2026-05-02T07:48:55Z</time></trkpt><trkpt lat="45.08425096107864" lon="6.9029559336314605"><ele>1153.0</ele><time>2026-05-02T07:48:56Z</time></trkpt><trkpt lat="45.08413554375042" lon="6.902858054464692"><ele>1153.0</ele><time>2026-05-02T07:48:57Z</time></trkpt><trkpt lat="45.084005001633365" lon="6.902760937269354"><ele>1154.25</ele><time>2026-05-02T07:48:58Z</time></trkpt><trkpt lat="45.0838787483835" lon="6.902658904438323"><ele>1155.5</ele><time>2026-05-02T07:48:59Z</time></trkpt><trkpt lat="45.08376865459852" lon="6.902552189844938"><ele>1156.75</ele><time>2026-05-02T07:49:00Z</time></trkpt><trkpt lat="45.08367296503928" lon="6.90242829182532"><ele>1158.0</ele><time>2026-05-02T07:49:01Z</time></trkpt><trkpt lat="45.08359317937368" lon="6.90233526098597"><ele>1158.0</ele><time>2026-05-02T07:49:02Z</time></trkpt><trkpt lat="45.083552304703346" lon="6.902217575126392"><ele>1158.0</ele><time>2026-05-02T07:49:03Z</time></trkpt><trkpt lat="45.08352813907626" lon="6.9020915781899"><ele>1158.0</ele><time>2026-05-02T07:49:04Z</time></trkpt><trkpt lat="45.0835187305565" lon="6.901953251317745"><ele>1158.0</ele><time>2026-05-02T07:49:05Z</time></trkpt><trkpt lat="45.083531844202774" lon="6.901822642334636"><ele>1158.0</ele><time>2026-05-02T07:49:06Z</time></trkpt><trkpt lat="45.08358966096355" lon="6.90171416719261"><ele>1160.25</ele><time>2026-05-02T07:49:07Z</time></trkpt><trkpt lat="45.0836913222094" lon="6.9016440523405445"><ele>1162.5</ele><time>2026-05-02T07:49:08Z</time></trkpt><trkpt lat="45.08381434003612" lon="6.9016293473012755"><ele>1164.75</ele><time>2026-05-02T07:49:09Z</time></trkpt><trkpt lat="45.083942523402065" lon="6.901592646974782"><ele>1167.0</ele><time>2026-05-02T07:49:10Z</time></trkpt><trkpt lat="45.08404229002548" lon="6.901566619129298"><ele>1167.0</ele><time>2026-05-02T07:49:11Z</time></trkpt><trkpt lat="45.084109768479145" lon="6.901509879872454"><ele>1167.0</ele><time>2026-05-02T07:49:12Z</time></trkpt><trkpt lat="45.0841436562575" lon="6.9013828130721375"><ele>1167.0</ele><time>2026-05-02T07:49:13Z</time></trkpt><trkpt lat="45.08414643475338" lon="6.901240972379587"><ele>1167.0</ele><time>2026-05-02T07:49:14Z</time></trkpt><trkpt lat="45.08409430036886" lon="6.901082896243655"><ele>1167.0</ele><time>2026-05-02T07:49:15Z</time></trkpt><trkpt lat="45.08399351250287" lon="6.900948101383938"><ele>1169.0</ele><time>2026-05-02T07:49:16Z</time></trkpt><trkpt lat="45.08388173972649" lon="6.900836548034889"><ele>1171.0</ele><time>2026-05-02T07:49:17Z</time></trkpt><trkpt lat="45.08378148180749" lon="6.900724636844684"><ele>1173.0</ele><time>2026-05-02T07:49:18Z</time></trkpt><trkpt lat="45.083700264385705" lon="6.9005959023055095"><ele>1175.0</ele><time>2026-05-02T07:49:19Z</time></trkpt><trkpt lat="45.083614116410246" lon="6.900479478446618"><ele>1175.0</ele><time>2026-05-02T07:49:20Z</time></trkpt><trkpt lat="45.08352788960971" lon="6.900353619842073"><ele>1175.0</ele><time>2026-05-02T07:49:21Z</time></trkpt><trkpt lat="45.08345721972929" lon="6.900238240511517"><ele>1175.0</ele><time>2026-05-02T07:49:22Z</time></trkpt><trkpt lat="45.08340860282891" lon="6.900131691521437"><ele>1175.0</ele><time>2026-05-02T07:49:23Z</time></trkpt><trkpt lat="45.08339254853813" lon="6.900009607164579"><ele>1175.0</ele><time>2026-05-02T07:49:24Z</time></trkpt><trkpt lat="45.083362995557586" lon="6.89991211256784"><ele>1175.6666666666667</ele><time>2026-05-02T07:49:25Z</time></trkpt><trkpt lat="45.08335560626603" lon="6.89978086237909"><ele>1176.3333333333335</ele><time>2026-05-02T07:49:26Z</time></trkpt><trkpt lat="45.08333628580972" lon="6.899659472818102"><ele>1177.0</ele><time>2026-05-02T07:49:27Z</time></trkpt><trkpt lat="45.08332683017575" lon="6.899536630876892"><ele>1177.6666666666667</ele><time>2026-05-02T07:49:28Z</time></trkpt><trkpt lat="45.083314024293536" lon="6.899421176957015"><ele>1178.3333333333333</ele><time>2026-05-02T07:49:29Z</time></trkpt><trkpt lat="45.08328802490207" lon="6.899309897257414"><ele>1179.0</ele><time>2026-05-02T07:49:30Z</time></trkpt><trkpt lat="45.083247174666" lon="6.899199485307366"><ele>1179.0</ele><time>2026-05-02T07:49:31Z</time></trkpt><trkpt lat="45.08318594856558" lon="6.899110400491512"><ele>1179.0</ele><time>2026-05-02T07:49:32Z</time></trkpt><trkpt lat="45.08313302532816" lon="6.899012243178347"><ele>1179.0</ele><time>2026-05-02T07:49:33Z</time></trkpt><trkpt lat="45.083077956988745" lon="6.898916000671089"><ele>1179.0</ele><time>2026-05-02T07:49:34Z</time></trkpt><trkpt lat="45.083024332483745" lon="6.898815703253468"><ele>1179.0</ele><time>2026-05-02T07:49:35Z</time></trkpt><trkpt lat="45.082983589623154" lon="6.898712421240649"><ele>1179.0</ele><time>2026-05-02T07:49:36Z</time></trkpt><trkpt lat="45.082980720375936" lon="6.898601368102057"><ele>1179.0</ele><time>2026-05-02T07:49:37Z</time></trkpt><trkpt lat="45.08299074860366" lon="6.898465858004788"><ele>1179.0</ele><time>2026-05-02T07:49:38Z</time></trkpt><trkpt lat="45.08299394047185" lon="6.89829828210526"><ele>1179.0</ele><time>2026-05-02T07:49:39Z</time></trkpt><trkpt lat="45.082965099245726" lon="6.89813343039704"><ele>1179.0</ele><time>2026-05-02T07:49:40Z</time></trkpt><trkpt lat="45.08292432139934" lon="6.897963144113074"><ele>1179.25</ele><time>2026-05-02T07:49:41Z</time></trkpt><trkpt lat="45.082848534031754" lon="6.89779180975389"><ele>1179.5</ele><time>2026-05-02T07:49:42Z</time></trkpt><trkpt lat="45.08278735671023" lon="6.897639402286905"><ele>1179.75</ele><time>2026-05-02T07:49:43Z</time></trkpt><trkpt lat="45.08271182228007" lon="6.897521168136398"><ele>1180.0</ele><time>2026-05-02T07:49:44Z</time></trkpt><trkpt lat="45.082622931542375" lon="6.8974230373935415"><ele>1176.75</ele><time>2026-05-02T07:49:45Z</time></trkpt><trkpt lat="45.08252879943828" lon="6.897365531673018"><ele>1173.5</ele><time>2026-05-02T07:49:46Z</time></trkpt><trkpt lat="45.08241865951513" lon="6.897287593892962"><ele>1170.25</ele><time>2026-05-02T07:49:47Z</time></trkpt><trkpt lat="45.08232371960972" lon="6.897152406605156"><ele>1167.0</ele><time>2026-05-02T07:49:48Z</time></trkpt><trkpt lat="45.08222577598306" lon="6.897003166268391"><ele>1167.0</ele><time>2026-05-02T07:49:49Z</time></trkpt><trkpt lat="45.08213156011137" lon="6.896867286579686"><ele>1167.0</ele><time>2026-05-02T07:49:50Z</time></trkpt><trkpt lat="45.082037049842576" lon="6.896746551546201"><ele>1167.0</ele><time>2026-05-02T07:49:51Z</time></trkpt><trkpt lat="45.081959344673855" lon="6.896630789512695"><ele>1167.0</ele><time>2026-05-02T07:49:52Z</time></trkpt><trkpt lat="45.08189465583074" lon="6.8965102800598"><ele>1171.2</ele><time>2026-05-02T07:49:52.999Z</time></trkpt><trkpt lat="45.08184641763372" lon="6.896393196384293"><ele>1175.4</ele><time>2026-05-02T07:49:53.999Z</time></trkpt><trkpt lat="45.08180617392821" lon="6.896292360612635"><ele>1179.6</ele><time>2026-05-02T07:49:54.999Z</time></trkpt><trkpt lat="45.08180095967077" lon="6.896195004014134"><ele>1183.8</ele><time>2026-05-02T07:49:55.999Z</time></trkpt><trkpt lat="45.081851823508956" lon="6.896080923228843"><ele>1188.0</ele><time>2026-05-02T07:49:56.999Z</time></trkpt><trkpt lat="45.081932863424036" lon="6.895966609493432"><ele>1189.5</ele><time>2026-05-02T07:49:57.999Z</time></trkpt><trkpt lat="45.08205297104268" lon="6.895914677923999"><ele>1191.0</ele><time>2026-05-02T07:49:58.999Z</time></trkpt><trkpt lat="45.08214138742232" lon="6.895830187285719"><ele>1192.5</ele><time>2026-05-02T07:49:59.999Z</time></trkpt><trkpt lat="45.0822020753143" lon="6.895716755484469"><ele>1194.0</ele><time>2026-05-02T07:50:00.999Z</time></trkpt><trkpt lat="45.082225518941414" lon="6.895550350518499"><ele>1194.0</ele><time>2026-05-02T07:50:01.999Z</time></trkpt><trkpt lat="45.08222689891098" lon="6.89534021087194"><ele>1194.0</ele><time>2026-05-02T07:50:02.999Z</time></trkpt><trkpt lat="45.082236224320376" lon="6.895118917248932"><ele>1194.0</ele><time>2026-05-02T07:50:03.999Z</time></trkpt><trkpt lat="45.08224851714959" lon="6.894888771671802"><ele>1193.3333333333333</ele><time>2026-05-02T07:50:04.999Z</time></trkpt><trkpt lat="45.08226111873003" lon="6.894678792240209"><ele>1192.6666666666665</ele><time>2026-05-02T07:50:05.999Z</time></trkpt><trkpt lat="45.08225952137045" lon="6.8944654380206725"><ele>1192.0</ele><time>2026-05-02T07:50:06.999Z</time></trkpt><trkpt lat="45.0822198276866" lon="6.894241825607011"><ele>1194.6666666666665</ele><time>2026-05-02T07:50:07.999Z</time></trkpt><trkpt lat="45.08216690565516" lon="6.894012032867635"><ele>1197.3333333333333</ele><time>2026-05-02T07:50:08.999Z</time></trkpt><trkpt lat="45.08208033973846" lon="6.893772115993334"><ele>1200.0</ele><time>2026-05-02T07:50:09.999Z</time></trkpt><trkpt lat="45.08201019676901" lon="6.89355148502109"><ele>1206.75</ele><time>2026-05-02T07:50:10.999Z</time></trkpt><trkpt lat="45.08193450772771" lon="6.893359328618734"><ele>1213.5</ele><time>2026-05-02T07:50:11.999Z</time></trkpt><trkpt lat="45.08184995969805" lon="6.893201546764131"><ele>1220.25</ele><time>2026-05-02T07:50:12.999Z</time></trkpt><trkpt lat="45.0817711274546" lon="6.893060593532614"><ele>1227.0</ele><time>2026-05-02T07:50:13.999Z</time></trkpt><trkpt lat="45.08170206380835" lon="6.892925927807404"><ele>1227.0</ele><time>2026-05-02T07:50:14.999Z</time></trkpt><trkpt lat="45.08164734890829" lon="6.892780259647556"><ele>1227.0</ele><time>2026-05-02T07:50:15.999Z</time></trkpt><trkpt lat="45.08160392160125" lon="6.892642939677208"><ele>1227.0</ele><time>2026-05-02T07:50:16.999Z</time></trkpt><trkpt lat="45.0815708916539" lon="6.892508411764127"><ele>1227.0</ele><time>2026-05-02T07:50:17.999Z</time></trkpt><trkpt lat="45.08157081311794" lon="6.89236507444129"><ele>1227.0</ele><time>2026-05-02T07:50:18.999Z</time></trkpt><trkpt lat="45.08158915920284" lon="6.892227947838633"><ele>1224.2</ele><time>2026-05-02T07:50:19.999Z</time></trkpt><trkpt lat="45.081597324226934" lon="6.89209469379643"><ele>1221.4</ele><time>2026-05-02T07:50:20.999Z</time></trkpt><trkpt lat="45.081591601886096" lon="6.891948468513115"><ele>1218.6</ele><time>2026-05-02T07:50:21.999Z</time></trkpt><trkpt lat="45.081573758494606" lon="6.891786297453627"><ele>1215.8</ele><time>2026-05-02T07:50:22.999Z</time></trkpt><trkpt lat="45.081546698759865" lon="6.891610241650265"><ele>1213.0</ele><time>2026-05-02T07:50:23.999Z</time></trkpt><trkpt lat="45.08151323946411" lon="6.891427022978274"><ele>1213.0</ele><time>2026-05-02T07:50:24.999Z</time></trkpt><trkpt lat="45.08148445788528" lon="6.89123086222003"><ele>1213.0</ele><time>2026-05-02T07:50:25.999Z</time></trkpt><trkpt lat="45.08144387186199" lon="6.89102724120975"><ele>1213.0</ele><time>2026-05-02T07:50:26.999Z</time></trkpt><trkpt lat="45.08140885304725" lon="6.8908187676642445"><ele>1213.0</ele><time>2026-05-02T07:50:27.999Z</time></trkpt><trkpt lat="45.0813841330284" lon="6.890625914505002"><ele>1216.5</ele><time>2026-05-02T07:50:28.999Z</time></trkpt><trkpt lat="45.08135627435802" lon="6.890447975712999"><ele>1220.0</ele><time>2026-05-02T07:50:29.999Z</time></trkpt><trkpt lat="45.08132265576823" lon="6.890265429968826"><ele>1223.5</ele><time>2026-05-02T07:50:30.999Z</time></trkpt><trkpt lat="45.08129264053335" lon="6.8900760344800185"><ele>1227.0</ele><time>2026-05-02T07:50:31.999Z</time></trkpt><trkpt lat="45.081280146324275" lon="6.889888119576886"><ele>1230.25</ele><time>2026-05-02T07:50:32.999Z</time></trkpt><trkpt lat="45.081265772082006" lon="6.889715407338177"><ele>1233.5</ele><time>2026-05-02T07:50:33.999Z</time></trkpt><trkpt lat="45.08125027611375" lon="6.889558063104223"><ele>1236.75</ele><time>2026-05-02T07:50:34.999Z</time></trkpt><trkpt lat="45.08122147555175" lon="6.8894085802639875"><ele>1240.0</ele><time>2026-05-02T07:50:35.999Z</time></trkpt><trkpt lat="45.08119511158586" lon="6.889264064182113"><ele>1242.0</ele><time>2026-05-02T07:50:36.999Z</time></trkpt><trkpt lat="45.08117731762251" lon="6.889145843210307"><ele>1244.0</ele><time>2026-05-02T07:50:37.999Z</time></trkpt><trkpt lat="45.081173420946875" lon="6.889046085815943"><ele>1246.0</ele><time>2026-05-02T07:50:38.999Z</time></trkpt><trkpt lat="45.08115660300673" lon="6.888883445333915"><ele>1248.0</ele><time>2026-05-02T07:50:40.999Z</time></trkpt><trkpt lat="45.08115673858893" lon="6.8887412829287715"><ele>1250.0</ele><time>2026-05-02T07:50:42.999Z</time></trkpt><trkpt lat="45.0811857770896" lon="6.8885846061400615"><ele>1250.0</ele><time>2026-05-02T07:50:44.999Z</time></trkpt><trkpt lat="45.081208949700624" lon="6.888500834603341"><ele>1250.0</ele><time>2026-05-02T07:50:45.999Z</time></trkpt><trkpt lat="45.081231424288006" lon="6.888410959188821"><ele>1250.0</ele><time>2026-05-02T07:50:46.999Z</time></trkpt><trkpt lat="45.081252785502464" lon="6.888312507101794"><ele>1250.0</ele><time>2026-05-02T07:50:47.999Z</time></trkpt><trkpt lat="45.08124845627062" lon="6.8881970540508854"><ele>1250.0</ele><time>2026-05-02T07:50:48.999Z</time></trkpt><trkpt lat="45.081224096947714" lon="6.888077496813477"><ele>1250.0</ele><time>2026-05-02T07:50:49.999Z</time></trkpt><trkpt lat="45.081200334085786" lon="6.887951088671454"><ele>1253.8</ele><time>2026-05-02T07:50:50.999Z</time></trkpt><trkpt lat="45.08115338168183" lon="6.8878236293476105"><ele>1257.6</ele><time>2026-05-02T07:50:51.999Z</time></trkpt><trkpt lat="45.08107642260652" lon="6.887703712463462"><ele>1261.4</ele><time>2026-05-02T07:50:52.999Z</time></trkpt><trkpt lat="45.081002983163785" lon="6.88761706639975"><ele>1265.2</ele><time>2026-05-02T07:50:53.999Z</time></trkpt><trkpt lat="45.08096139983757" lon="6.887519938574632"><ele>1269.0</ele><time>2026-05-02T07:50:54.999Z</time></trkpt><trkpt lat="45.08091891082399" lon="6.887430328341928"><ele>1268.8</ele><time>2026-05-02T07:50:55.999Z</time></trkpt><trkpt lat="45.08088160441908" lon="6.8873071202251115"><ele>1268.6000000000001</ele><time>2026-05-02T07:50:56.999Z</time></trkpt><trkpt lat="45.08084432792871" lon="6.887159105844471"><ele>1268.4</ele><time>2026-05-02T07:50:57.999Z</time></trkpt><trkpt lat="45.080807362476506" lon="6.887003366200745"><ele>1268.2</ele><time>2026-05-02T07:50:58.999Z</time></trkpt><trkpt lat="45.080759485497325" lon="6.886860435513798"><ele>1268.0</ele><time>2026-05-02T07:51:00Z</time></trkpt><trkpt lat="45.08070948662172" lon="6.886729361859321"><ele>1268.0</ele><time>2026-05-02T07:51:01Z</time></trkpt><trkpt lat="45.08069208918482" lon="6.8865930048455395"><ele>1268.0</ele><time>2026-05-02T07:51:02Z</time></trkpt><trkpt lat="45.08068924665292" lon="6.8864410568630285"><ele>1268.0</ele><time>2026-05-02T07:51:03Z</time></trkpt><trkpt lat="45.08068995454097" lon="6.886280903836942"><ele>1268.0</ele><time>2026-05-02T07:51:04Z</time></trkpt><trkpt lat="45.080690243620545" lon="6.88611560813189"><ele>1268.0</ele><time>2026-05-02T07:51:05Z</time></trkpt><trkpt lat="45.08067454509712" lon="6.885957158142836"><ele>1270.4</ele><time>2026-05-02T07:51:06Z</time></trkpt><trkpt lat="45.08065476187409" lon="6.8858042603927165"><ele>1272.8</ele><time>2026-05-02T07:51:07Z</time></trkpt><trkpt lat="45.08062587554077" lon="6.885646782808143"><ele>1275.2</ele><time>2026-05-02T07:51:08Z</time></trkpt><trkpt lat="45.08057954516562" lon="6.88551437017998"><ele>1277.6</ele><time>2026-05-02T07:51:09Z</time></trkpt><trkpt lat="45.08051522487482" lon="6.885380290972027"><ele>1280.0</ele><time>2026-05-02T07:51:10Z</time></trkpt><trkpt lat="45.08046048782055" lon="6.88527589938926"><ele>1280.0</ele><time>2026-05-02T07:51:11Z</time></trkpt><trkpt lat="45.08037886741031" lon="6.885128041171999"><ele>1280.0</ele><time>2026-05-02T07:51:13Z</time></trkpt><trkpt lat="45.08035138899405" lon="6.885029753836093"><ele>1280.0</ele><time>2026-05-02T07:51:14Z</time></trkpt><trkpt lat="45.080306112397324" lon="6.884870092993218"><ele>1280.0</ele><time>2026-05-02T07:51:15Z</time></trkpt><trkpt lat="45.08026993397938" lon="6.884709183699656"><ele>1280.0</ele><time>2026-05-02T07:51:16Z</time></trkpt><trkpt lat="45.08023855742923" lon="6.884549329918439"><ele>1283.6</ele><time>2026-05-02T07:51:17Z</time></trkpt><trkpt lat="45.080165080148774" lon="6.884435373222876"><ele>1287.2</ele><time>2026-05-02T07:51:18Z</time></trkpt><trkpt lat="45.08011287141272" lon="6.884319530403302"><ele>1290.8000000000002</ele><time>2026-05-02T07:51:19Z</time></trkpt><trkpt lat="45.08007489816266" lon="6.884203352581958"><ele>1294.4</ele><time>2026-05-02T07:51:20Z</time></trkpt><trkpt lat="45.080058887673346" lon="6.884088736026941"><ele>1298.0</ele><time>2026-05-02T07:51:21Z</time></trkpt><trkpt lat="45.08006933357452" lon="6.883989643031981"><ele>1301.0</ele><time>2026-05-02T07:51:22Z</time></trkpt><trkpt lat="45.080104777674414" lon="6.8838753261517365"><ele>1304.0</ele><time>2026-05-02T07:51:24Z</time></trkpt><trkpt lat="45.08010690219497" lon="6.8837469240835825"><ele>1307.0</ele><time>2026-05-02T07:51:27Z</time></trkpt><trkpt lat="45.080078748171715" lon="6.883633431426313"><ele>1310.0</ele><time>2026-05-02T07:52:39.999Z</time></trkpt><trkpt lat="45.08003161139279" lon="6.88347852517853"><ele>1313.0</ele><time>2026-05-02T07:52:41.999Z</time></trkpt><trkpt lat="45.07996800330911" lon="6.8833475617155715"><ele>1310.8000000000002</ele><time>2026-05-02T07:52:43.999Z</time></trkpt><trkpt lat="45.079921844225225" lon="6.883281974023469"><ele>1308.6</ele><time>2026-05-02T07:52:44.999Z</time></trkpt><trkpt lat="45.07982996277825" lon="6.8831682649266135"><ele>1306.4</ele><time>2026-05-02T07:52:46.999Z</time></trkpt><trkpt lat="45.07974321265599" lon="6.883079788624064"><ele>1304.1999999999998</ele><time>2026-05-02T07:52:48.999Z</time></trkpt><trkpt lat="45.07967262342826" lon="6.883001304160643"><ele>1302.0</ele><time>2026-05-02T07:52:50.999Z</time></trkpt><trkpt lat="45.07959935657213" lon="6.882895064364001"><ele>1302.0</ele><time>2026-05-02T07:52:52.999Z</time></trkpt><trkpt lat="45.07951159619433" lon="6.882776725759085"><ele>1302.0</ele><time>2026-05-02T07:52:54.999Z</time></trkpt><trkpt lat="45.07947120118013" lon="6.882698876660363"><ele>1302.0</ele><time>2026-05-02T07:52:55.999Z</time></trkpt><trkpt lat="45.07942292932268" lon="6.8825898033968445"><ele>1302.0</ele><time>2026-05-02T07:52:56.999Z</time></trkpt><trkpt lat="45.079360458346564" lon="6.882508755079069"><ele>1302.0</ele><time>2026-05-02T07:52:57.999Z</time></trkpt><trkpt lat="45.07928709464836" lon="6.882435876681971"><ele>1303.8</ele><time>2026-05-02T07:52:58.999Z</time></trkpt><trkpt lat="45.079205956201136" lon="6.8823953898372014"><ele>1305.6</ele><time>2026-05-02T07:52:59.999Z</time></trkpt><trkpt lat="45.07911496503755" lon="6.882274223616825"><ele>1307.3999999999999</ele><time>2026-05-02T07:53:00.999Z</time></trkpt><trkpt lat="45.07905033027652" lon="6.882162598129471"><ele>1309.1999999999998</ele><time>2026-05-02T07:53:01.999Z</time></trkpt><trkpt lat="45.078978197448464" lon="6.882054942563332"><ele>1311.0</ele><time>2026-05-02T07:53:02.999Z</time></trkpt><trkpt lat="45.078906514008885" lon="6.8819513960073175"><ele>1311.0</ele><time>2026-05-02T07:53:03.999Z</time></trkpt><trkpt lat="45.07883065603055" lon="6.881852747567822"><ele>1311.0</ele><time>2026-05-02T07:53:04.999Z</time></trkpt><trkpt lat="45.07874878089138" lon="6.8817513268855"><ele>1311.0</ele><time>2026-05-02T07:53:06Z</time></trkpt><trkpt lat="45.07867798395311" lon="6.8816371782258745"><ele>1311.0</ele><time>2026-05-02T07:53:07Z</time></trkpt><trkpt lat="45.07860055729772" lon="6.881538816945936"><ele>1311.0</ele><time>2026-05-02T07:53:08Z</time></trkpt><trkpt lat="45.07853109733926" lon="6.881455655626368"><ele>1311.4</ele><time>2026-05-02T07:53:09Z</time></trkpt><trkpt lat="45.07846113615132" lon="6.881394321671204"><ele>1311.8</ele><time>2026-05-02T07:53:10Z</time></trkpt><trkpt lat="45.07837572515868" lon="6.881367164484949"><ele>1312.2</ele><time>2026-05-02T07:53:11Z</time></trkpt><trkpt lat="45.07824925134345" lon="6.881320381927693"><ele>1312.6000000000001</ele><time>2026-05-02T07:53:13Z</time></trkpt><trkpt lat="45.07817342766407" lon="6.8812799321513225"><ele>1313.0</ele><time>2026-05-02T07:53:14Z</time></trkpt><trkpt lat="45.078111672558336" lon="6.881212816973714"><ele>1313.0</ele><time>2026-05-02T07:53:15Z</time></trkpt><trkpt lat="45.07807117956754" lon="6.881134692381143"><ele>1313.0</ele><time>2026-05-02T07:53:16Z</time></trkpt><trkpt lat="45.07804516097867" lon="6.881045413049041"><ele>1313.0</ele><time>2026-05-02T07:53:17Z</time></trkpt><trkpt lat="45.07802721733529" lon="6.880942194274536"><ele>1313.0</ele><time>2026-05-02T07:53:18Z</time></trkpt><trkpt lat="45.07800862003977" lon="6.880826320379058"><ele>1313.0</ele><time>2026-05-02T07:53:19Z</time></trkpt><trkpt lat="45.07797376401711" lon="6.880701176733101"><ele>1313.0</ele><time>2026-05-02T07:53:20Z</time></trkpt><trkpt lat="45.077939113950556" lon="6.880579160289729"><ele>1315.4285714285716</ele><time>2026-05-02T07:53:21Z</time></trkpt><trkpt lat="45.07792666204872" lon="6.880468303342042"><ele>1317.857142857143</ele><time>2026-05-02T07:53:22Z</time></trkpt><trkpt lat="45.077925602218166" lon="6.8803748746148425"><ele>1320.2857142857142</ele><time>2026-05-02T07:53:23Z</time></trkpt><trkpt lat="45.07795702200489" lon="6.880293687672629"><ele>1322.7142857142858</ele><time>2026-05-02T07:53:24Z</time></trkpt><trkpt lat="45.07798550847806" lon="6.880195204941431"><ele>1325.142857142857</ele><time>2026-05-02T07:53:25Z</time></trkpt><trkpt lat="45.07801163539497" lon="6.880082567187145"><ele>1327.5714285714287</ele><time>2026-05-02T07:53:26Z</time></trkpt><trkpt lat="45.07804007155986" lon="6.879979846743399"><ele>1330.0</ele><time>2026-05-02T07:53:27Z</time></trkpt><trkpt lat="45.078060556727685" lon="6.879839253861088"><ele>1331.5</ele><time>2026-05-02T07:53:28Z</time></trkpt><trkpt lat="45.07807973229076" lon="6.879722211793226"><ele>1333.0</ele><time>2026-05-02T07:53:29Z</time></trkpt><trkpt lat="45.07810141346299" lon="6.879609854001703"><ele>1334.5</ele><time>2026-05-02T07:53:30Z</time></trkpt><trkpt lat="45.078129887832084" lon="6.879494144574539"><ele>1336.0</ele><time>2026-05-02T07:53:31Z</time></trkpt><trkpt lat="45.0781461912622" lon="6.879376763791702"><ele>1337.5</ele><time>2026-05-02T07:53:32Z</time></trkpt><trkpt lat="45.078166767859166" lon="6.879259038918561"><ele>1339.0</ele><time>2026-05-02T07:53:33Z</time></trkpt><trkpt lat="45.07819629534678" lon="6.879149714259423"><ele>1339.0</ele><time>2026-05-02T07:53:34Z</time></trkpt><trkpt lat="45.07821529185589" lon="6.879047649768732"><ele>1339.0</ele><time>2026-05-02T07:53:35Z</time></trkpt><trkpt lat="45.07822505050545" lon="6.878943965734958"><ele>1339.0</ele><time>2026-05-02T07:53:36Z</time></trkpt><trkpt lat="45.07818682266209" lon="6.878800597422961"><ele>1339.0</ele><time>2026-05-02T07:53:38Z</time></trkpt><trkpt lat="45.07812180072143" lon="6.878754559371711"><ele>1339.0</ele><time>2026-05-02T07:53:39Z</time></trkpt><trkpt lat="45.078049387993886" lon="6.878589577720963"><ele>1339.0</ele><time>2026-05-02T07:53:41Z</time></trkpt><trkpt lat="45.078009126056294" lon="6.878489700097355"><ele>1339.0</ele><time>2026-05-02T07:53:42Z</time></trkpt><trkpt lat="45.077966904694044" lon="6.878362275292189"><ele>1339.0</ele><time>2026-05-02T07:53:44Z</time></trkpt><trkpt lat="45.07796437934716" lon="6.8782698443485675"><ele>1339.0</ele><time>2026-05-02T07:53:46Z</time></trkpt><trkpt lat="45.078029166234664" lon="6.87820946257508"><ele>1339.0</ele><time>2026-05-02T07:53:48Z</time></trkpt><trkpt lat="45.078098869830264" lon="6.878291629198981"><ele>1339.0</ele><time>2026-05-02T07:53:50Z</time></trkpt><trkpt lat="45.078070852874134" lon="6.878405176611282"><ele>1339.0</ele><time>2026-05-02T07:53:51.999Z</time></trkpt><trkpt lat="45.07809804251867" lon="6.8785596528116635"><ele>1339.0</ele><time>2026-05-02T07:53:53.999Z</time></trkpt><trkpt lat="45.07821042726796" lon="6.8786513032122265"><ele>1339.0</ele><time>2026-05-02T07:53:55.999Z</time></trkpt><trkpt lat="45.07827833536838" lon="6.878672289761125"><ele>1339.0</ele><time>2026-05-02T07:53:56.999Z</time></trkpt><trkpt lat="45.078351712682355" lon="6.878672590847435"><ele>1339.0</ele><time>2026-05-02T07:53:57.999Z</time></trkpt><trkpt lat="45.07842091114229" lon="6.878696909353195"><ele>1345.0</ele><time>2026-05-02T07:53:58.999Z</time></trkpt><trkpt lat="45.07847686161425" lon="6.878750671670992"><ele>1351.0</ele><time>2026-05-02T07:53:59.999Z</time></trkpt><trkpt lat="45.07851853713986" lon="6.878823894462512"><ele>1357.0</ele><time>2026-05-02T07:54:00.999Z</time></trkpt><trkpt lat="45.07854367653011" lon="6.87891346879295"><ele>1363.0</ele><time>2026-05-02T07:54:01.999Z</time></trkpt><trkpt lat="45.07854836309214" lon="6.879010190767655"><ele>1369.0</ele><time>2026-05-02T07:54:02.999Z</time></trkpt><trkpt lat="45.07851688190724" lon="6.879092812363619"><ele>1375.0</ele><time>2026-05-02T07:54:03.999Z</time></trkpt><trkpt lat="45.07850398766686" lon="6.879207078039664"><ele>1381.0</ele><time>2026-05-02T07:54:04.999Z</time></trkpt><trkpt lat="45.0785124377927" lon="6.879299848481864"><ele>1381.0</ele><time>2026-05-02T07:54:05.999Z</time></trkpt><trkpt lat="45.07851097204581" lon="6.879391847384273"><ele>1381.0</ele><time>2026-05-02T07:54:06.999Z</time></trkpt><trkpt lat="45.078535337024036" lon="6.87948830748384"><ele>1381.0</ele><time>2026-05-02T07:54:07.999Z</time></trkpt><trkpt lat="45.07858694597885" lon="6.879581579180306"><ele>1381.0</ele><time>2026-05-02T07:54:08.999Z</time></trkpt><trkpt lat="45.07864291855572" lon="6.879651702886205"><ele>1381.0</ele><time>2026-05-02T07:54:09.999Z</time></trkpt><trkpt lat="45.07870471676951" lon="6.87972089462214"><ele>1381.0</ele><time>2026-05-02T07:54:10.999Z</time></trkpt><trkpt lat="45.07877139477593" lon="6.879767765647727"><ele>1381.0</ele><time>2026-05-02T07:54:11.999Z</time></trkpt><trkpt lat="45.078838230588474" lon="6.879797266229276"><ele>1381.0</ele><time>2026-05-02T07:54:12.999Z</time></trkpt><trkpt lat="45.0789071046342" lon="6.879808649205827"><ele>1381.0</ele><time>2026-05-02T07:54:13.999Z</time></trkpt><trkpt lat="45.07899073733268" lon="6.879801177948511"><ele>1381.0</ele><time>2026-05-02T07:54:14.999Z</time></trkpt><trkpt lat="45.079061568741146" lon="6.879783272787435"><ele>1381.0</ele><time>2026-05-02T07:54:15.999Z</time></trkpt><trkpt lat="45.079122156629964" lon="6.879751814253186"><ele>1381.0</ele><time>2026-05-02T07:54:16.999Z</time></trkpt><trkpt lat="45.079188360686274" lon="6.879706687087398"><ele>1381.0</ele><time>2026-05-02T07:54:17.999Z</time></trkpt><trkpt lat="45.07925648291247" lon="6.879675855182555"><ele>1381.0</ele><time>2026-05-02T07:54:18.999Z</time></trkpt><trkpt lat="45.07932178126104" lon="6.879679028861649"><ele>1382.8333333333333</ele><time>2026-05-02T07:54:19.999Z</time></trkpt><trkpt lat="45.07939198145197" lon="6.879694928023688"><ele>1384.6666666666665</ele><time>2026-05-02T07:54:20.999Z</time></trkpt><trkpt lat="45.07946057804915" lon="6.879747787075011"><ele>1386.5</ele><time>2026-05-02T07:54:21.999Z</time></trkpt><trkpt lat="45.079534380268285" lon="6.87979495509502"><ele>1388.3333333333333</ele><time>2026-05-02T07:54:22.999Z</time></trkpt><trkpt lat="45.07961577876368" lon="6.879829245743765"><ele>1390.1666666666667</ele><time>2026-05-02T07:54:23.999Z</time></trkpt><trkpt lat="45.079677213047084" lon="6.879881181794198"><ele>1392.0</ele><time>2026-05-02T07:54:24.999Z</time></trkpt><trkpt lat="45.07974542040579" lon="6.879929273941023"><ele>1392.0</ele><time>2026-05-02T07:54:25.999Z</time></trkpt><trkpt lat="45.07981475131502" lon="6.879964007461524"><ele>1392.0</ele><time>2026-05-02T07:54:26.999Z</time></trkpt><trkpt lat="45.079878390849245" lon="6.880002777140123"><ele>1392.0</ele><time>2026-05-02T07:54:27.999Z</time></trkpt><trkpt lat="45.07993180714582" lon="6.880080141903455"><ele>1392.0</ele><time>2026-05-02T07:54:28.999Z</time></trkpt><trkpt lat="45.07995235944722" lon="6.880178328386208"><ele>1392.0</ele><time>2026-05-02T07:54:29.999Z</time></trkpt><trkpt lat="45.08002634500235" lon="6.880288277188197"><ele>1392.0</ele><time>2026-05-02T07:54:31.999Z</time></trkpt><trkpt lat="45.08008555408019" lon="6.880348612301285"><ele>1393.3999999999999</ele><time>2026-05-02T07:54:33.999Z</time></trkpt><trkpt lat="45.0801449093979" lon="6.880272759250464"><ele>1394.8</ele><time>2026-05-02T07:54:35.999Z</time></trkpt><trkpt lat="45.08015200659273" lon="6.880158102298048"><ele>1396.2</ele><time>2026-05-02T07:54:37.999Z</time></trkpt><trkpt lat="45.080057451794055" lon="6.880030095334476"><ele>1397.6</ele><time>2026-05-02T07:54:39.999Z</time></trkpt><trkpt lat="45.08000041059075" lon="6.87994010119384"><ele>1399.0</ele><time>2026-05-02T07:54:40.999Z</time></trkpt><trkpt lat="45.079933604139775" lon="6.87984352602314"><ele>1397.8333333333333</ele><time>2026-05-02T07:54:41.999Z</time></trkpt><trkpt lat="45.07987363831039" lon="6.8797534660486965"><ele>1396.6666666666665</ele><time>2026-05-02T07:54:42.999Z</time></trkpt><trkpt lat="45.07980958118519" lon="6.879672403283433"><ele>1395.5</ele><time>2026-05-02T07:54:43.999Z</time></trkpt><trkpt lat="45.07971426458998" lon="6.879633647316581"><ele>1394.3333333333333</ele><time>2026-05-02T07:54:44.999Z</time></trkpt><trkpt lat="45.07964716154741" lon="6.879544655554364"><ele>1393.1666666666667</ele><time>2026-05-02T07:54:45.999Z</time></trkpt><trkpt lat="45.07959734410468" lon="6.879478606235286"><ele>1392.0</ele><time>2026-05-02T07:54:46.999Z</time></trkpt><trkpt lat="45.07951444564885" lon="6.879340633702583"><ele>1392.0</ele><time>2026-05-02T07:54:48.999Z</time></trkpt><trkpt lat="45.079463333381874" lon="6.879285353216342"><ele>1392.0</ele><time>2026-05-02T07:54:49.999Z</time></trkpt><trkpt lat="45.07940971849488" lon="6.879218637299085"><ele>1392.0</ele><time>2026-05-02T07:54:50.999Z</time></trkpt><trkpt lat="45.07936176648161" lon="6.879156257717891"><ele>1392.0</ele><time>2026-05-02T07:54:51.999Z</time></trkpt><trkpt lat="45.079328589147586" lon="6.8790610052393895"><ele>1392.0</ele><time>2026-05-02T07:54:52.999Z</time></trkpt><trkpt lat="45.07926532727947" lon="6.87891434689968"><ele>1392.0</ele><time>2026-05-02T07:54:54.999Z</time></trkpt><trkpt lat="45.07927168504539" lon="6.878822495701495"><ele>1395.3333333333333</ele><time>2026-05-02T07:54:55.999Z</time></trkpt><trkpt lat="45.07929299405594" lon="6.878735252796352"><ele>1398.6666666666667</ele><time>2026-05-02T07:54:56.999Z</time></trkpt><trkpt lat="45.07933345999735" lon="6.87865196158523"><ele>1402.0</ele><time>2026-05-02T07:54:57.999Z</time></trkpt><trkpt lat="45.07934808389562" lon="6.878485938751511"><ele>1405.3333333333335</ele><time>2026-05-02T07:54:59.999Z</time></trkpt><trkpt lat="45.07931537827063" lon="6.87838452857097"><ele>1408.6666666666667</ele><time>2026-05-02T07:55:00.999Z</time></trkpt><trkpt lat="45.07926847819917" lon="6.8783019775623755"><ele>1412.0</ele><time>2026-05-02T07:55:01.999Z</time></trkpt><trkpt lat="45.07921038504907" lon="6.878231843608914"><ele>1414.0</ele><time>2026-05-02T07:55:02.999Z</time></trkpt><trkpt lat="45.07915903722808" lon="6.878153512841014"><ele>1416.0</ele><time>2026-05-02T07:55:03.999Z</time></trkpt><trkpt lat="45.079084782537166" lon="6.878038518284272"><ele>1418.0</ele><time>2026-05-02T07:55:05.999Z</time></trkpt><trkpt lat="45.079040654891216" lon="6.877875226716142"><ele>1420.0</ele><time>2026-05-02T07:55:07.999Z</time></trkpt><trkpt lat="45.07904154107239" lon="6.877776218237607"><ele>1422.0</ele><time>2026-05-02T07:55:08.999Z</time></trkpt><trkpt lat="45.07904295464705" lon="6.87767764459271"><ele>1424.0</ele><time>2026-05-02T07:55:09.999Z</time></trkpt><trkpt lat="45.07905043631048" lon="6.877582635572243"><ele>1425.4285714285713</ele><time>2026-05-02T07:55:10.999Z</time></trkpt><trkpt lat="45.07905247938926" lon="6.8774788755346785"><ele>1426.857142857143</ele><time>2026-05-02T07:55:12Z</time></trkpt><trkpt lat="45.07908237983763" lon="6.877391323217183"><ele>1428.2857142857142</ele><time>2026-05-02T07:55:13Z</time></trkpt><trkpt lat="45.079118227071724" lon="6.877307227066598"><ele>1429.7142857142858</ele><time>2026-05-02T07:55:14Z</time></trkpt><trkpt lat="45.079163537480525" lon="6.877238523887831"><ele>1431.142857142857</ele><time>2026-05-02T07:55:15Z</time></trkpt><trkpt lat="45.079206643231366" lon="6.877155161838101"><ele>1432.5714285714284</ele><time>2026-05-02T07:55:16Z</time></trkpt><trkpt lat="45.07923824010042" lon="6.877073734137006"><ele>1434.0</ele><time>2026-05-02T07:55:17Z</time></trkpt><trkpt lat="45.079262388613294" lon="6.876975166215744"><ele>1434.0</ele><time>2026-05-02T07:55:18Z</time></trkpt><trkpt lat="45.07926252134829" lon="6.876871014846154"><ele>1434.0</ele><time>2026-05-02T07:55:19Z</time></trkpt><trkpt lat="45.079230008612" lon="6.876769052784142"><ele>1434.0</ele><time>2026-05-02T07:55:20Z</time></trkpt><trkpt lat="45.07920014135106" lon="6.876665024872489"><ele>1434.0</ele><time>2026-05-02T07:55:21Z</time></trkpt><trkpt lat="45.0791861727331" lon="6.876564607231378"><ele>1434.0</ele><time>2026-05-02T07:55:22Z</time></trkpt><trkpt lat="45.079206920803855" lon="6.876465242170847"><ele>1434.0</ele><time>2026-05-02T07:55:23Z</time></trkpt><trkpt lat="45.079217956975825" lon="6.876343682039342"><ele>1433.8333333333333</ele><time>2026-05-02T07:55:24Z</time></trkpt><trkpt lat="45.07924630139555" lon="6.876246482306331"><ele>1433.6666666666667</ele><time>2026-05-02T07:55:25Z</time></trkpt><trkpt lat="45.079251589268374" lon="6.876143565106267"><ele>1433.5</ele><time>2026-05-02T07:55:26Z</time></trkpt><trkpt lat="45.07924771093421" lon="6.87603847298342"><ele>1433.3333333333335</ele><time>2026-05-02T07:55:27Z</time></trkpt><trkpt lat="45.07922978483853" lon="6.875930127565546"><ele>1433.1666666666667</ele><time>2026-05-02T07:55:28Z</time></trkpt><trkpt lat="45.07919899459325" lon="6.875820404087408"><ele>1433.0</ele><time>2026-05-02T07:55:29Z</time></trkpt><trkpt lat="45.07916055609405" lon="6.875709615627069"><ele>1432.3333333333335</ele><time>2026-05-02T07:55:30Z</time></trkpt><trkpt lat="45.07912209281895" lon="6.875606495789868"><ele>1431.6666666666667</ele><time>2026-05-02T07:55:31Z</time></trkpt><trkpt lat="45.07910037658361" lon="6.875515830576741"><ele>1431.0</ele><time>2026-05-02T07:55:32Z</time></trkpt><trkpt lat="45.07912714300868" lon="6.875402863657003"><ele>1430.3333333333333</ele><time>2026-05-02T07:55:34Z</time></trkpt><trkpt lat="45.079241675559174" lon="6.875328378636254"><ele>1429.6666666666665</ele><time>2026-05-02T07:55:36Z</time></trkpt><trkpt lat="45.07930285393479" lon="6.875288059746202"><ele>1429.0</ele><time>2026-05-02T07:55:37Z</time></trkpt><trkpt lat="45.07937640175606" lon="6.875134146519254"><ele>1429.1666666666665</ele><time>2026-05-02T07:55:39Z</time></trkpt><trkpt lat="45.07938862690433" lon="6.875028129145166"><ele>1429.3333333333333</ele><time>2026-05-02T07:55:40Z</time></trkpt><trkpt lat="45.079372249897546" lon="6.874930433920886"><ele>1429.5</ele><time>2026-05-02T07:55:41Z</time></trkpt><trkpt lat="45.079335677858076" lon="6.87484776290582"><ele>1429.6666666666667</ele><time>2026-05-02T07:55:42Z</time></trkpt><trkpt lat="45.07928624682821" lon="6.8747786578732"><ele>1429.8333333333335</ele><time>2026-05-02T07:55:43Z</time></trkpt><trkpt lat="45.07926302351544" lon="6.874650571265206"><ele>1430.0</ele><time>2026-05-02T07:55:45Z</time></trkpt><trkpt lat="45.07931923503307" lon="6.8744964601667045"><ele>1430.0</ele><time>2026-05-02T07:55:47Z</time></trkpt><trkpt lat="45.07939267144988" lon="6.874423425225626"><ele>1430.0</ele><time>2026-05-02T07:55:48Z</time></trkpt><trkpt lat="45.07941941316167" lon="6.874327219285626"><ele>1430.0</ele><time>2026-05-02T07:55:49Z</time></trkpt><trkpt lat="45.079467475337566" lon="6.874227074936884"><ele>1430.0</ele><time>2026-05-02T07:55:50Z</time></trkpt><trkpt lat="45.07946000195217" lon="6.874107609683465"><ele>1430.0</ele><time>2026-05-02T07:55:51Z</time></trkpt><trkpt lat="45.07945731668691" lon="6.873994995733566"><ele>1430.0</ele><time>2026-05-02T07:55:52Z</time></trkpt><trkpt lat="45.0794552340746" lon="6.873895634678818"><ele>1430.5</ele><time>2026-05-02T07:55:53Z</time></trkpt><trkpt lat="45.079501261591695" lon="6.873749325070968"><ele>1431.0</ele><time>2026-05-02T07:55:55Z</time></trkpt><trkpt lat="45.079610638520585" lon="6.873713483579994"><ele>1431.5</ele><time>2026-05-02T07:55:56.999Z</time></trkpt><trkpt lat="45.07967910448318" lon="6.873689799762509"><ele>1432.0</ele><time>2026-05-02T07:55:57.999Z</time></trkpt><trkpt lat="45.07975659326858" lon="6.873658649865923"><ele>1432.5</ele><time>2026-05-02T07:55:58.999Z</time></trkpt><trkpt lat="45.079824592389315" lon="6.8736265248852355"><ele>1433.0</ele><time>2026-05-02T07:55:59.999Z</time></trkpt><trkpt lat="45.079889523802635" lon="6.873529578763273"><ele>1434.1666666666667</ele><time>2026-05-02T07:56:01.999Z</time></trkpt><trkpt lat="45.079876844373864" lon="6.873400379166432"><ele>1435.3333333333335</ele><time>2026-05-02T07:56:03.999Z</time></trkpt><trkpt lat="45.07979890111852" lon="6.873256739881977"><ele>1436.5</ele><time>2026-05-02T07:56:05.999Z</time></trkpt><trkpt lat="45.07972752562009" lon="6.873246703243341"><ele>1437.6666666666667</ele><time>2026-05-02T07:56:06.999Z</time></trkpt><trkpt lat="45.07964301274532" lon="6.873216181521701"><ele>1438.8333333333333</ele><time>2026-05-02T07:56:08.999Z</time></trkpt><trkpt lat="45.07957732885587" lon="6.873183895312743"><ele>1440.0</ele><time>2026-05-02T07:56:09.999Z</time></trkpt><trkpt lat="45.079477616366724" lon="6.87318846813807"><ele>1440.0</ele><time>2026-05-02T07:56:11.999Z</time></trkpt><trkpt lat="45.07935744134298" lon="6.873110714553239"><ele>1440.0</ele><time>2026-05-02T07:56:13.999Z</time></trkpt><trkpt lat="45.079294696947336" lon="6.873079909288256"><ele>1440.0</ele><time>2026-05-02T07:56:14.999Z</time></trkpt><trkpt lat="45.0792319422056" lon="6.87303474258569"><ele>1440.0</ele><time>2026-05-02T07:56:15.999Z</time></trkpt><trkpt lat="45.07917418876013" lon="6.8729849982631075"><ele>1440.0</ele><time>2026-05-02T07:56:16.999Z</time></trkpt><trkpt lat="45.0791066830994" lon="6.872915690415742"><ele>1440.0</ele><time>2026-05-02T07:56:17.999Z</time></trkpt><trkpt lat="45.079090957503006" lon="6.872789746517232"><ele>1439.4</ele><time>2026-05-02T07:56:18.999Z</time></trkpt><trkpt lat="45.07905893838731" lon="6.872697454010483"><ele>1438.8</ele><time>2026-05-02T07:56:19.999Z</time></trkpt><trkpt lat="45.07902106573854" lon="6.872592122883707"><ele>1438.1999999999998</ele><time>2026-05-02T07:56:20.999Z</time></trkpt><trkpt lat="45.078943108779114" lon="6.872428719543353"><ele>1437.6</ele><time>2026-05-02T07:56:22.999Z</time></trkpt><trkpt lat="45.07889001688082" lon="6.872342160471492"><ele>1437.0</ele><time>2026-05-02T07:56:23.999Z</time></trkpt><trkpt lat="45.07882498078664" lon="6.872289083727549"><ele>1438.6666666666667</ele><time>2026-05-02T07:56:24.999Z</time></trkpt><trkpt lat="45.078802905260986" lon="6.872184664643002"><ele>1440.3333333333333</ele><time>2026-05-02T07:56:26.999Z</time></trkpt><trkpt lat="45.07885734506522" lon="6.872122177197557"><ele>1442.0</ele><time>2026-05-02T07:56:27.999Z</time></trkpt><trkpt lat="45.078852984139466" lon="6.8719816045775755"><ele>1443.6666666666665</ele><time>2026-05-02T07:56:29.999Z</time></trkpt><trkpt lat="45.07879516455136" lon="6.871852011965395"><ele>1445.3333333333333</ele><time>2026-05-02T07:56:31.999Z</time></trkpt><trkpt lat="45.078742237666326" lon="6.871800446722183"><ele>1447.0</ele><time>2026-05-02T07:56:32.999Z</time></trkpt><trkpt lat="45.07866318470572" lon="6.871683538833496"><ele>1448.6666666666665</ele><time>2026-05-02T07:56:34.999Z</time></trkpt><trkpt lat="45.07859475588771" lon="6.871632637449475"><ele>1450.3333333333333</ele><time>2026-05-02T07:56:35.999Z</time></trkpt><trkpt lat="45.078541606098185" lon="6.871551883371012"><ele>1452.0</ele><time>2026-05-02T07:56:36.999Z</time></trkpt><trkpt lat="45.078480026896514" lon="6.8714826417641985"><ele>1453.6666666666667</ele><time>2026-05-02T07:56:37.999Z</time></trkpt><trkpt lat="45.0784115324957" lon="6.871428240996939"><ele>1455.3333333333335</ele><time>2026-05-02T07:56:38.999Z</time></trkpt><trkpt lat="45.07834531912059" lon="6.871345218637604"><ele>1457.0</ele><time>2026-05-02T07:56:39.999Z</time></trkpt><trkpt lat="45.078280272706024" lon="6.87128833804903"><ele>1454.8333333333335</ele><time>2026-05-02T07:56:40.999Z</time></trkpt><trkpt lat="45.07819114192101" lon="6.871160378775581"><ele>1452.6666666666667</ele><time>2026-05-02T07:56:42.999Z</time></trkpt><trkpt lat="45.07816661559887" lon="6.871070344162463"><ele>1450.5</ele><time>2026-05-02T07:56:43.999Z</time></trkpt><trkpt lat="45.07813963383764" lon="6.870968764998258"><ele>1448.3333333333333</ele><time>2026-05-02T07:56:44.999Z</time></trkpt><trkpt lat="45.07811304096726" lon="6.870861469261532"><ele>1446.1666666666665</ele><time>2026-05-02T07:56:45.999Z</time></trkpt><trkpt lat="45.07810704126116" lon="6.87074873232694"><ele>1444.0</ele><time>2026-05-02T07:56:46.999Z</time></trkpt><trkpt lat="45.078087019877266" lon="6.870658463323037"><ele>1444.0</ele><time>2026-05-02T07:56:47.999Z</time></trkpt><trkpt lat="45.078067468932275" lon="6.870570014755833"><ele>1444.0</ele><time>2026-05-02T07:56:48.999Z</time></trkpt><trkpt lat="45.0780229029545" lon="6.870497631121319"><ele>1444.0</ele><time>2026-05-02T07:56:49.999Z</time></trkpt><trkpt lat="45.07797023053627" lon="6.8704360447096064"><ele>1444.0</ele><time>2026-05-02T07:56:50.999Z</time></trkpt><trkpt lat="45.077910521498616" lon="6.870382255398448"><ele>1444.0</ele><time>2026-05-02T07:56:51.999Z</time></trkpt><trkpt lat="45.077844200531466" lon="6.870305775223236"><ele>1444.0</ele><time>2026-05-02T07:56:52.999Z</time></trkpt><trkpt lat="45.07780220812759" lon="6.87022954732181"><ele>1444.0</ele><time>2026-05-02T07:56:53.999Z</time></trkpt><trkpt lat="45.07776024222176" lon="6.87014395192527"><ele>1448.3333333333333</ele><time>2026-05-02T07:56:54.999Z</time></trkpt><trkpt lat="45.077719903099364" lon="6.87004862257266"><ele>1452.6666666666665</ele><time>2026-05-02T07:56:55.999Z</time></trkpt><trkpt lat="45.07768766486163" lon="6.869954804493208"><ele>1457.0</ele><time>2026-05-02T07:56:56.999Z</time></trkpt><trkpt lat="45.07765747036226" lon="6.869854243592697"><ele>1461.3333333333333</ele><time>2026-05-02T07:56:57.999Z</time></trkpt><trkpt lat="45.077631729092694" lon="6.869755415014897"><ele>1465.6666666666667</ele><time>2026-05-02T07:56:58.999Z</time></trkpt><trkpt lat="45.077608908418334" lon="6.869640933634709"><ele>1470.0</ele><time>2026-05-02T07:56:59.999Z</time></trkpt><trkpt lat="45.077585501350825" lon="6.869525578141948"><ele>1470.0</ele><time>2026-05-02T07:57:00.999Z</time></trkpt><trkpt lat="45.077566412881154" lon="6.869421856571207"><ele>1470.0</ele><time>2026-05-02T07:57:01.999Z</time></trkpt><trkpt lat="45.07755045396399" lon="6.869309689276574"><ele>1470.0</ele><time>2026-05-02T07:57:02.999Z</time></trkpt><trkpt lat="45.07753143512026" lon="6.86921032185207"><ele>1470.0</ele><time>2026-05-02T07:57:03.999Z</time></trkpt><trkpt lat="45.07750706047161" lon="6.869112298663099"><ele>1470.0</ele><time>2026-05-02T07:57:04.999Z</time></trkpt><trkpt lat="45.07747675588113" lon="6.869013928513496"><ele>1470.0</ele><time>2026-05-02T07:57:05.999Z</time></trkpt><trkpt lat="45.07743010487633" lon="6.868918253334012"><ele>1469.0</ele><time>2026-05-02T07:57:06.999Z</time></trkpt><trkpt lat="45.07739990126021" lon="6.868823809477308"><ele>1468.0</ele><time>2026-05-02T07:57:07.999Z</time></trkpt><trkpt lat="45.077381625214876" lon="6.868738285819721"><ele>1467.0</ele><time>2026-05-02T07:57:08.999Z</time></trkpt><trkpt lat="45.07737844105374" lon="6.868635489312135"><ele>1466.0</ele><time>2026-05-02T07:57:09.999Z</time></trkpt><trkpt lat="45.07737664532025" lon="6.86853869049266"><ele>1465.0</ele><time>2026-05-02T07:57:10.999Z</time></trkpt><trkpt lat="45.07737225804886" lon="6.868435167878777"><ele>1464.0</ele><time>2026-05-02T07:57:11.999Z</time></trkpt><trkpt lat="45.077365553466485" lon="6.86832247084927"><ele>1463.0</ele><time>2026-05-02T07:57:12.999Z</time></trkpt><trkpt lat="45.07735138241416" lon="6.868201774421727"><ele>1463.0</ele><time>2026-05-02T07:57:13.999Z</time></trkpt><trkpt lat="45.077334099392495" lon="6.868090077764358"><ele>1463.0</ele><time>2026-05-02T07:57:14.999Z</time></trkpt><trkpt lat="45.07730509582398" lon="6.867967803068492"><ele>1463.0</ele><time>2026-05-02T07:57:15.999Z</time></trkpt><trkpt lat="45.07726835155452" lon="6.867862143575844"><ele>1463.0</ele><time>2026-05-02T07:57:16.999Z</time></trkpt><trkpt lat="45.07722162009994" lon="6.867776051680131"><ele>1463.0</ele><time>2026-05-02T07:57:18Z</time></trkpt><trkpt lat="45.07717365606465" lon="6.867696085830916"><ele>1463.0</ele><time>2026-05-02T07:57:19Z</time></trkpt><trkpt lat="45.077095208438344" lon="6.867670404654072"><ele>1463.0</ele><time>2026-05-02T07:57:20Z</time></trkpt><trkpt lat="45.077038160659455" lon="6.867615789289552"><ele>1463.0</ele><time>2026-05-02T07:57:21Z</time></trkpt><trkpt lat="45.07697091817691" lon="6.867554599242513"><ele>1463.0</ele><time>2026-05-02T07:57:22Z</time></trkpt><trkpt lat="45.07692353570193" lon="6.86748206480464"><ele>1463.0</ele><time>2026-05-02T07:57:23Z</time></trkpt><trkpt lat="45.076891073570444" lon="6.867387568329104"><ele>1463.0</ele><time>2026-05-02T07:57:24Z</time></trkpt><trkpt lat="45.076863187218116" lon="6.867279312705087"><ele>1463.0</ele><time>2026-05-02T07:57:25Z</time></trkpt><trkpt lat="45.07684827859474" lon="6.867173281357421"><ele>1466.8333333333335</ele><time>2026-05-02T07:57:26Z</time></trkpt><trkpt lat="45.07683331413474" lon="6.8670613191121435"><ele>1470.6666666666667</ele><time>2026-05-02T07:57:27Z</time></trkpt><trkpt lat="45.07681022660774" lon="6.866955653208613"><ele>1474.5</ele><time>2026-05-02T07:57:28Z</time></trkpt><trkpt lat="45.07680695221159" lon="6.866838516767647"><ele>1478.3333333333333</ele><time>2026-05-02T07:57:29Z</time></trkpt><trkpt lat="45.07679101067242" lon="6.866728828637089"><ele>1482.1666666666665</ele><time>2026-05-02T07:57:30Z</time></trkpt><trkpt lat="45.0767650736676" lon="6.866631824037311"><ele>1486.0</ele><time>2026-05-02T07:57:31Z</time></trkpt><trkpt lat="45.076733600933984" lon="6.866521525754825"><ele>1491.8</ele><time>2026-05-02T07:57:32Z</time></trkpt><trkpt lat="45.07669155373997" lon="6.866427455394363"><ele>1497.6</ele><time>2026-05-02T07:57:33Z</time></trkpt><trkpt lat="45.07662433889332" lon="6.866313147237437"><ele>1503.4</ele><time>2026-05-02T07:57:35Z</time></trkpt><trkpt lat="45.07665989447987" lon="6.866214831874091"><ele>1509.2</ele><time>2026-05-02T07:57:38Z</time></trkpt><trkpt lat="45.07677475006666" lon="6.866265403237653"><ele>1515.0</ele><time>2026-05-02T07:57:40Z</time></trkpt><trkpt lat="45.076744140540185" lon="6.866412337410973"><ele>1515.0</ele><time>2026-05-02T07:57:41Z</time></trkpt><trkpt lat="45.07678478773622" lon="6.866516636795957"><ele>1515.0</ele><time>2026-05-02T07:57:42Z</time></trkpt><trkpt lat="45.07683544991753" lon="6.866616338194441"><ele>1515.0</ele><time>2026-05-02T07:57:43Z</time></trkpt><trkpt lat="45.076863033020565" lon="6.866733183638294"><ele>1515.0</ele><time>2026-05-02T07:57:44Z</time></trkpt><trkpt lat="45.07690799639956" lon="6.866835987881948"><ele>1515.0</ele><time>2026-05-02T07:57:45Z</time></trkpt><trkpt lat="45.07695426301231" lon="6.866938576073854"><ele>1515.0</ele><time>2026-05-02T07:57:46Z</time></trkpt><trkpt lat="45.076997274353914" lon="6.867034093863467"><ele>1510.8571428571427</ele><time>2026-05-02T07:57:47Z</time></trkpt><trkpt lat="45.07702791660527" lon="6.8671328142642105"><ele>1506.7142857142858</ele><time>2026-05-02T07:57:48Z</time></trkpt><trkpt lat="45.07706238161259" lon="6.867220348233919"><ele>1502.5714285714284</ele><time>2026-05-02T07:57:49Z</time></trkpt><trkpt lat="45.07710546352323" lon="6.867301439906578"><ele>1498.4285714285713</ele><time>2026-05-02T07:57:50Z</time></trkpt><trkpt lat="45.077166406337625" lon="6.8673629302639885"><ele>1494.2857142857142</ele><time>2026-05-02T07:57:51Z</time></trkpt><trkpt lat="45.077243005560966" lon="6.867380946972979"><ele>1490.142857142857</ele><time>2026-05-02T07:57:52Z</time></trkpt><trkpt lat="45.07731061898491" lon="6.867401151867387"><ele>1486.0</ele><time>2026-05-02T07:57:53Z</time></trkpt><trkpt lat="45.077380458825644" lon="6.867444706687691"><ele>1490.1666666666665</ele><time>2026-05-02T07:57:54Z</time></trkpt><trkpt lat="45.077443139747366" lon="6.867457640394131"><ele>1494.3333333333333</ele><time>2026-05-02T07:57:55Z</time></trkpt><trkpt lat="45.077536238964825" lon="6.867477238266558"><ele>1498.5</ele><time>2026-05-02T07:57:56Z</time></trkpt><trkpt lat="45.077642922601854" lon="6.867559718004192"><ele>1502.6666666666667</ele><time>2026-05-02T07:57:58Z</time></trkpt><trkpt lat="45.0776751941194" lon="6.867657265938517"><ele>1506.8333333333335</ele><time>2026-05-02T07:57:59Z</time></trkpt><trkpt lat="45.07768463461914" lon="6.867758473272722"><ele>1511.0</ele><time>2026-05-02T07:58:00Z</time></trkpt><trkpt lat="45.07770526757854" lon="6.867862178958831"><ele>1511.0</ele><time>2026-05-02T07:58:01Z</time></trkpt><trkpt lat="45.07772955714531" lon="6.868040757193446"><ele>1511.0</ele><time>2026-05-02T07:58:03Z</time></trkpt><trkpt lat="45.0777573763636" lon="6.868145581904532"><ele>1511.0</ele><time>2026-05-02T07:58:04Z</time></trkpt><trkpt lat="45.07779833936412" lon="6.868242722155927"><ele>1511.0</ele><time>2026-05-02T07:58:05Z</time></trkpt><trkpt lat="45.07780843382623" lon="6.86835213333359"><ele>1511.0</ele><time>2026-05-02T07:58:06Z</time></trkpt><trkpt lat="45.077846491290586" lon="6.868454411118474"><ele>1511.0</ele><time>2026-05-02T07:58:07Z</time></trkpt><trkpt lat="45.077898704298285" lon="6.86854351996242"><ele>1508.0</ele><time>2026-05-02T07:58:08Z</time></trkpt><trkpt lat="45.077945222370936" lon="6.868625090220466"><ele>1505.0</ele><time>2026-05-02T07:58:09Z</time></trkpt><trkpt lat="45.078032625274204" lon="6.868726079082479"><ele>1502.0</ele><time>2026-05-02T07:58:11Z</time></trkpt><trkpt lat="45.0781064660662" lon="6.868855484522623"><ele>1499.0</ele><time>2026-05-02T07:58:13Z</time></trkpt><trkpt lat="45.078158364038586" lon="6.868918602066657"><ele>1496.0</ele><time>2026-05-02T07:58:14Z</time></trkpt><trkpt lat="45.0782207835149" lon="6.8689749457988025"><ele>1493.0</ele><time>2026-05-02T07:58:14.999Z</time></trkpt><trkpt lat="45.078286749056815" lon="6.869010417229378"><ele>1497.8000000000002</ele><time>2026-05-02T07:58:15.999Z</time></trkpt><trkpt lat="45.078411964263836" lon="6.869055512698663"><ele>1502.6</ele><time>2026-05-02T07:58:17.999Z</time></trkpt><trkpt lat="45.07851316677386" lon="6.869178321213931"><ele>1507.4</ele><time>2026-05-02T07:58:19.999Z</time></trkpt><trkpt lat="45.07856894958017" lon="6.869280996280835"><ele>1512.1999999999998</ele><time>2026-05-02T07:58:20.999Z</time></trkpt><trkpt lat="45.07860349923346" lon="6.8693902270880995"><ele>1517.0</ele><time>2026-05-02T07:58:21.999Z</time></trkpt><trkpt lat="45.07864587808766" lon="6.869493933116545"><ele>1517.0</ele><time>2026-05-02T07:58:23.999Z</time></trkpt><trkpt lat="45.07874152079559" lon="6.86949046117925"><ele>1517.0</ele><time>2026-05-02T07:58:26.999Z</time></trkpt><trkpt lat="45.07877849719586" lon="6.869381746130474"><ele>1517.0</ele><time>2026-05-02T07:58:28.999Z</time></trkpt><trkpt lat="45.07874142784508" lon="6.869247450912515"><ele>1517.0</ele><time>2026-05-02T07:58:30.999Z</time></trkpt><trkpt lat="45.07865155213539" lon="6.869189678994214"><ele>1517.0</ele><time>2026-05-02T07:58:31.999Z</time></trkpt><trkpt lat="45.078604391287115" lon="6.869091314152905"><ele>1521.3999999999999</ele><time>2026-05-02T07:58:32.999Z</time></trkpt><trkpt lat="45.078556420673664" lon="6.869010622764674"><ele>1525.8</ele><time>2026-05-02T07:58:33.999Z</time></trkpt><trkpt lat="45.0785162909945" lon="6.868941591257775"><ele>1530.2</ele><time>2026-05-02T07:58:34.999Z</time></trkpt><trkpt lat="45.078473497089746" lon="6.868867976692198"><ele>1534.6</ele><time>2026-05-02T07:58:35.999Z</time></trkpt><trkpt lat="45.0783974488719" lon="6.868731150685085"><ele>1539.0</ele><time>2026-05-02T07:58:37.999Z</time></trkpt><trkpt lat="45.078324716017804" lon="6.868589771400232"><ele>1539.0</ele><time>2026-05-02T07:58:39.999Z</time></trkpt><trkpt lat="45.078283179054374" lon="6.868494991991221"><ele>1539.0</ele><time>2026-05-02T07:58:40.999Z</time></trkpt><trkpt lat="45.07824779054159" lon="6.868395974058635"><ele>1539.0</ele><time>2026-05-02T07:58:41.999Z</time></trkpt><trkpt lat="45.078216317515775" lon="6.868304308284517"><ele>1539.0</ele><time>2026-05-02T07:58:42.999Z</time></trkpt><trkpt lat="45.07818618435968" lon="6.868216134622251"><ele>1539.0</ele><time>2026-05-02T07:58:43.999Z</time></trkpt><trkpt lat="45.07815425355661" lon="6.86811654506549"><ele>1539.0</ele><time>2026-05-02T07:58:44.999Z</time></trkpt><trkpt lat="45.078129948695434" lon="6.86802606167509"><ele>1539.0</ele><time>2026-05-02T07:58:45.999Z</time></trkpt><trkpt lat="45.078116408845446" lon="6.867924415985555"><ele>1539.2857142857142</ele><time>2026-05-02T07:58:46.999Z</time></trkpt><trkpt lat="45.078120710751506" lon="6.86782692384534"><ele>1539.5714285714284</ele><time>2026-05-02T07:58:47.999Z</time></trkpt><trkpt lat="45.07811047828986" lon="6.8677165929583515"><ele>1539.857142857143</ele><time>2026-05-02T07:58:48.999Z</time></trkpt><trkpt lat="45.07812632969943" lon="6.8676155669020025"><ele>1540.142857142857</ele><time>2026-05-02T07:58:49.999Z</time></trkpt><trkpt lat="45.078139399362236" lon="6.867514299070515"><ele>1540.4285714285716</ele><time>2026-05-02T07:58:50.999Z</time></trkpt><trkpt lat="45.078141537952185" lon="6.86742244147038"><ele>1540.7142857142858</ele><time>2026-05-02T07:58:51.999Z</time></trkpt><trkpt lat="45.078144376368485" lon="6.867316079318144"><ele>1541.0</ele><time>2026-05-02T07:58:52.999Z</time></trkpt><trkpt lat="45.0781336385852" lon="6.867139519023721"><ele>1541.0</ele><time>2026-05-02T07:58:54.999Z</time></trkpt><trkpt lat="45.078035253912724" lon="6.867004643167216"><ele>1541.0</ele><time>2026-05-02T07:58:56.999Z</time></trkpt><trkpt lat="45.07794618499743" lon="6.866909066940051"><ele>1541.0</ele><time>2026-05-02T07:58:58.999Z</time></trkpt><trkpt lat="45.07788351138166" lon="6.866849068679648"><ele>1541.0</ele><time>2026-05-02T07:58:59.999Z</time></trkpt><trkpt lat="45.07783195385501" lon="6.866774105435702"><ele>1541.0</ele><time>2026-05-02T07:59:00.999Z</time></trkpt><trkpt lat="45.077784613256725" lon="6.8666901009294445"><ele>1544.3333333333333</ele><time>2026-05-02T07:59:01.999Z</time></trkpt><trkpt lat="45.077750044857375" lon="6.866606557301688"><ele>1547.6666666666665</ele><time>2026-05-02T07:59:02.999Z</time></trkpt><trkpt lat="45.07771880422896" lon="6.866506258736023"><ele>1551.0</ele><time>2026-05-02T07:59:03.999Z</time></trkpt><trkpt lat="45.07768999074015" lon="6.8663741762472315"><ele>1554.3333333333335</ele><time>2026-05-02T07:59:04.999Z</time></trkpt><trkpt lat="45.077663932098595" lon="6.866260166896785"><ele>1557.6666666666667</ele><time>2026-05-02T07:59:05.999Z</time></trkpt><trkpt lat="45.07763946418913" lon="6.866153117177181"><ele>1561.0</ele><time>2026-05-02T07:59:06.999Z</time></trkpt><trkpt lat="45.07760087533182" lon="6.866058198611763"><ele>1565.1666666666667</ele><time>2026-05-02T07:59:07.999Z</time></trkpt><trkpt lat="45.07759114573449" lon="6.86593351403724"><ele>1569.3333333333335</ele><time>2026-05-02T07:59:08.999Z</time></trkpt><trkpt lat="45.07755892772417" lon="6.865830373675225"><ele>1573.5</ele><time>2026-05-02T07:59:09.999Z</time></trkpt><trkpt lat="45.07753350602936" lon="6.865726286464163"><ele>1577.6666666666665</ele><time>2026-05-02T07:59:10.999Z</time></trkpt><trkpt lat="45.0775125345831" lon="6.865627188978098"><ele>1581.8333333333333</ele><time>2026-05-02T07:59:11.999Z</time></trkpt><trkpt lat="45.07748164682542" lon="6.86554373392334"><ele>1586.0</ele><time>2026-05-02T07:59:12.999Z</time></trkpt><trkpt lat="45.077441135696056" lon="6.865457011588541"><ele>1577.1999999999998</ele><time>2026-05-02T07:59:13.999Z</time></trkpt><trkpt lat="45.07738586322457" lon="6.865337647162267"><ele>1568.3999999999999</ele><time>2026-05-02T07:59:14.999Z</time></trkpt><trkpt lat="45.07731029983096" lon="6.865210731726913"><ele>1559.6</ele><time>2026-05-02T07:59:15.999Z</time></trkpt><trkpt lat="45.07725417895997" lon="6.865107066832604"><ele>1550.8</ele><time>2026-05-02T07:59:16.999Z</time></trkpt><trkpt lat="45.07722953467543" lon="6.864995119224744"><ele>1542.0</ele><time>2026-05-02T07:59:17.999Z</time></trkpt><trkpt lat="45.077192379739955" lon="6.864884286118898"><ele>1542.0</ele><time>2026-05-02T07:59:18.999Z</time></trkpt><trkpt lat="45.077171827683564" lon="6.86473640873936"><ele>1542.0</ele><time>2026-05-02T07:59:19.999Z</time></trkpt><trkpt lat="45.07715619699631" lon="6.864600853507427"><ele>1542.0</ele><time>2026-05-02T07:59:20.999Z</time></trkpt><trkpt lat="45.07713722307199" lon="6.8644794529858855"><ele>1542.0</ele><time>2026-05-02T07:59:21.999Z</time></trkpt><trkpt lat="45.077133455696384" lon="6.864355115842361"><ele>1542.0</ele><time>2026-05-02T07:59:22.999Z</time></trkpt><trkpt lat="45.07713865037922" lon="6.864233558331665"><ele>1541.8</ele><time>2026-05-02T07:59:24Z</time></trkpt><trkpt lat="45.07714674127336" lon="6.864108767097586"><ele>1541.6</ele><time>2026-05-02T07:59:25Z</time></trkpt><trkpt lat="45.077149773484095" lon="6.863983622294568"><ele>1541.3999999999999</ele><time>2026-05-02T07:59:26Z</time></trkpt><trkpt lat="45.07717160877468" lon="6.8638415961526125"><ele>1541.1999999999998</ele><time>2026-05-02T07:59:27Z</time></trkpt><trkpt lat="45.0771692100183" lon="6.863708120442929"><ele>1541.0</ele><time>2026-05-02T07:59:28Z</time></trkpt><trkpt lat="45.077156996603776" lon="6.863583004036243"><ele>1540.9999999999998</ele><time>2026-05-02T07:59:29Z</time></trkpt><trkpt lat="45.077156801184465" lon="6.86345912528597"><ele>1541.0</ele><time>2026-05-02T07:59:30Z</time></trkpt><trkpt lat="45.07717717098671" lon="6.8633433207988315"><ele>1541.0</ele><time>2026-05-02T07:59:31Z</time></trkpt><trkpt lat="45.0772175241135" lon="6.86323251210053"><ele>1541.0</ele><time>2026-05-02T07:59:32Z</time></trkpt><trkpt lat="45.07723269171967" lon="6.863110521332806"><ele>1540.9999999999998</ele><time>2026-05-02T07:59:33Z</time></trkpt><trkpt lat="45.077265439093026" lon="6.862991911229951"><ele>1541.0</ele><time>2026-05-02T07:59:34Z</time></trkpt><trkpt lat="45.07729428596483" lon="6.8628892283907845"><ele>1540.8333333333333</ele><time>2026-05-02T07:59:35Z</time></trkpt><trkpt lat="45.07731311310762" lon="6.862804106011483"><ele>1540.6666666666665</ele><time>2026-05-02T07:59:36Z</time></trkpt><trkpt lat="45.077341268949084" lon="6.862709593108756"><ele>1540.5</ele><time>2026-05-02T07:59:37Z</time></trkpt><trkpt lat="45.07736849021048" lon="6.862610156104121"><ele>1540.3333333333335</ele><time>2026-05-02T07:59:38Z</time></trkpt><trkpt lat="45.07739204740407" lon="6.862494695767381"><ele>1540.1666666666667</ele><time>2026-05-02T07:59:39Z</time></trkpt><trkpt lat="45.07741177059981" lon="6.862379335090425"><ele>1540.0</ele><time>2026-05-02T07:59:40Z</time></trkpt><trkpt lat="45.07742425096072" lon="6.862250424774547"><ele>1549.5000000000002</ele><time>2026-05-02T07:59:41Z</time></trkpt><trkpt lat="45.07743936095859" lon="6.8621340228446375"><ele>1559.0</ele><time>2026-05-02T07:59:42Z</time></trkpt><trkpt lat="45.07749848514862" lon="6.862028280873687"><ele>1568.5</ele><time>2026-05-02T07:59:43Z</time></trkpt><trkpt lat="45.07756189094601" lon="6.861928826408312"><ele>1578.0</ele><time>2026-05-02T07:59:44Z</time></trkpt><trkpt lat="45.07761741246087" lon="6.86184979804846"><ele>1587.5000000000002</ele><time>2026-05-02T07:59:45Z</time></trkpt><trkpt lat="45.07768271520483" lon="6.8617629943846845"><ele>1597.0</ele><time>2026-05-02T07:59:46Z</time></trkpt><trkpt lat="45.07774062543707" lon="6.861649883785255"><ele>1597.0</ele><time>2026-05-02T07:59:47Z</time></trkpt><trkpt lat="45.07781030910134" lon="6.861549490066896"><ele>1597.0</ele><time>2026-05-02T07:59:48Z</time></trkpt><trkpt lat="45.07788288961227" lon="6.861450249428104"><ele>1597.0</ele><time>2026-05-02T07:59:49Z</time></trkpt><trkpt lat="45.07794708780222" lon="6.861362346119373"><ele>1597.0</ele><time>2026-05-02T07:59:50Z</time></trkpt><trkpt lat="45.077988620238116" lon="6.861259022274074"><ele>1597.0</ele><time>2026-05-02T07:59:51Z</time></trkpt><trkpt lat="45.07802470872125" lon="6.861148057170929"><ele>1597.0000000000002</ele><time>2026-05-02T07:59:52Z</time></trkpt><trkpt lat="45.07806450215509" lon="6.861045439614044"><ele>1597.0</ele><time>2026-05-02T07:59:53Z</time></trkpt><trkpt lat="45.07808448603392" lon="6.860958060090839"><ele>1597.0</ele><time>2026-05-02T07:59:54Z</time></trkpt><trkpt lat="45.078135911678466" lon="6.8608665278032905"><ele>1597.0</ele><time>2026-05-02T07:59:55Z</time></trkpt><trkpt lat="45.07817458839253" lon="6.860743507438455"><ele>1597.0000000000002</ele><time>2026-05-02T07:59:56Z</time></trkpt><trkpt lat="45.078214649672766" lon="6.860639443401243"><ele>1597.0</ele><time>2026-05-02T07:59:57Z</time></trkpt><trkpt lat="45.078271233535006" lon="6.86053887704364"><ele>1599.0</ele><time>2026-05-02T07:59:58Z</time></trkpt><trkpt lat="45.078306311650344" lon="6.8604532965316904"><ele>1601.0</ele><time>2026-05-02T07:59:59Z</time></trkpt><trkpt lat="45.0783796466069" lon="6.860340509262292"><ele>1603.0</ele><time>2026-05-02T08:00:01Z</time></trkpt><trkpt lat="45.07844736421144" lon="6.860265291404701"><ele>1605.0</ele><time>2026-05-02T08:00:03Z</time></trkpt><trkpt lat="45.078518426493936" lon="6.860120046900669"><ele>1607.0</ele><time>2026-05-02T08:00:05Z</time></trkpt><trkpt lat="45.07856041253963" lon="6.860031380929542"><ele>1607.0</ele><time>2026-05-02T08:00:06Z</time></trkpt><trkpt lat="45.07861137607635" lon="6.859931164190061"><ele>1607.0</ele><time>2026-05-02T08:00:07Z</time></trkpt><trkpt lat="45.07864890651834" lon="6.859823980171002"><ele>1607.0</ele><time>2026-05-02T08:00:08Z</time></trkpt><trkpt lat="45.07867997160264" lon="6.859723050020295"><ele>1607.0</ele><time>2026-05-02T08:00:09Z</time></trkpt><trkpt lat="45.078743139027736" lon="6.859603901694915"><ele>1607.0</ele><time>2026-05-02T08:00:11Z</time></trkpt><trkpt lat="45.07885994788746" lon="6.859540365741469"><ele>1606.9999999999998</ele><time>2026-05-02T08:00:13Z</time></trkpt><trkpt lat="45.07893382195681" lon="6.8595302887356615"><ele>1607.0</ele><time>2026-05-02T08:00:14Z</time></trkpt><trkpt lat="45.0789989473443" lon="6.859525664340005"><ele>1607.0</ele><time>2026-05-02T08:00:15Z</time></trkpt><trkpt lat="45.07910494551253" lon="6.859458879299777"><ele>1607.0</ele><time>2026-05-02T08:00:17Z</time></trkpt><trkpt lat="45.07916608107652" lon="6.8593794537069375"><ele>1606.9999999999998</ele><time>2026-05-02T08:00:18Z</time></trkpt><trkpt lat="45.07922017290548" lon="6.859286925905969"><ele>1607.0</ele><time>2026-05-02T08:00:19Z</time></trkpt><trkpt lat="45.079274277396244" lon="6.859188518967536"><ele>1614.3999999999999</ele><time>2026-05-02T08:00:20Z</time></trkpt><trkpt lat="45.07930295862602" lon="6.859073187532938"><ele>1621.8</ele><time>2026-05-02T08:00:21Z</time></trkpt><trkpt lat="45.0793246639096" lon="6.858983014953629"><ele>1629.2</ele><time>2026-05-02T08:00:22Z</time></trkpt><trkpt lat="45.079379547389436" lon="6.858820604602405"><ele>1636.6</ele><time>2026-05-02T08:00:24Z</time></trkpt><trkpt lat="45.07944529579028" lon="6.858689727054963"><ele>1644.0</ele><time>2026-05-02T08:00:26Z</time></trkpt><trkpt lat="45.079464846064774" lon="6.858596239471645"><ele>1644.0</ele><time>2026-05-02T08:00:28Z</time></trkpt><trkpt lat="45.07944284839205" lon="6.858473700941919"><ele>1644.0</ele><time>2026-05-02T08:00:29.999Z</time></trkpt><trkpt lat="45.07934339082715" lon="6.858356661785767"><ele>1644.0</ele><time>2026-05-02T08:04:40.999Z</time></trkpt><trkpt lat="45.07926148804451" lon="6.858364463378905"><ele>1644.0</ele><time>2026-05-02T08:04:41.999Z</time></trkpt><trkpt lat="45.079199643784406" lon="6.858393484950285"><ele>1644.0</ele><time>2026-05-02T08:04:42.999Z</time></trkpt><trkpt lat="45.07913324034837" lon="6.858454494279649"><ele>1644.0</ele><time>2026-05-02T08:04:43.999Z</time></trkpt><trkpt lat="45.07909550692761" lon="6.858535500417822"><ele>1637.0</ele><time>2026-05-02T08:04:44.999Z</time></trkpt><trkpt lat="45.07903914372702" lon="6.85859303089751"><ele>1630.0</ele><time>2026-05-02T08:04:45.999Z</time></trkpt><trkpt lat="45.0789955587563" lon="6.858670056994405"><ele>1623.0</ele><time>2026-05-02T08:04:46.999Z</time></trkpt><trkpt lat="45.078930214218374" lon="6.8587748956840136"><ele>1616.0</ele><time>2026-05-02T08:04:48.999Z</time></trkpt><trkpt lat="45.07884661531223" lon="6.858796617986386"><ele>1609.0</ele><time>2026-05-02T08:04:50.999Z</time></trkpt><trkpt lat="45.07874878273496" lon="6.85868128818779"><ele>1609.0000000000002</ele><time>2026-05-02T08:04:52.999Z</time></trkpt><trkpt lat="45.07870226577356" lon="6.85861109128064"><ele>1609.0</ele><time>2026-05-02T08:04:53.999Z</time></trkpt><trkpt lat="45.07863587263037" lon="6.858467759986288"><ele>1609.0</ele><time>2026-05-02T08:04:55.999Z</time></trkpt><trkpt lat="45.07860468886798" lon="6.858385680156966"><ele>1609.0</ele><time>2026-05-02T08:04:56.999Z</time></trkpt><trkpt lat="45.07856618237886" lon="6.858305886984699"><ele>1609.0000000000002</ele><time>2026-05-02T08:04:57.999Z</time></trkpt><trkpt lat="45.07851462123456" lon="6.858248642706541"><ele>1609.0</ele><time>2026-05-02T08:04:58.999Z</time></trkpt><trkpt lat="45.07840344439429" lon="6.8582182516267745"><ele>1618.0</ele><time>2026-05-02T08:05:00.999Z</time></trkpt><trkpt lat="45.07830263815149" lon="6.858263496239257"><ele>1627.0</ele><time>2026-05-02T08:05:02.999Z</time></trkpt><trkpt lat="45.078191839113046" lon="6.858250492290401"><ele>1636.0</ele><time>2026-05-02T08:05:04.999Z</time></trkpt><trkpt lat="45.07809642851549" lon="6.858212728361922"><ele>1645.0</ele><time>2026-05-02T08:05:06.999Z</time></trkpt><trkpt lat="45.07802261860067" lon="6.858189346694905"><ele>1654.0</ele><time>2026-05-02T08:05:07.999Z</time></trkpt><trkpt lat="45.07795467023262" lon="6.858196843974142"><ele>1658.6</ele><time>2026-05-02T08:05:08.999Z</time></trkpt><trkpt lat="45.07785310602049" lon="6.858161028504417"><ele>1663.2</ele><time>2026-05-02T08:05:10.999Z</time></trkpt><trkpt lat="45.07776117967497" lon="6.8581323303504504"><ele>1667.8</ele><time>2026-05-02T08:05:12.999Z</time></trkpt><trkpt lat="45.07767016668924" lon="6.85811269875703"><ele>1672.3999999999999</ele><time>2026-05-02T08:05:14.999Z</time></trkpt><trkpt lat="45.077593671096025" lon="6.85811633908587"><ele>1677.0</ele><time>2026-05-02T08:05:16.999Z</time></trkpt><trkpt lat="45.07751039820167" lon="6.858197707198619"><ele>1672.8333333333333</ele><time>2026-05-02T08:05:19.999Z</time></trkpt><trkpt lat="45.07741342707555" lon="6.858273707136057"><ele>1668.6666666666665</ele><time>2026-05-02T08:05:21.999Z</time></trkpt><trkpt lat="45.077334255241524" lon="6.858295958056947"><ele>1664.5</ele><time>2026-05-02T08:05:22.999Z</time></trkpt><trkpt lat="45.07727604868635" lon="6.858348807320596"><ele>1660.3333333333333</ele><time>2026-05-02T08:05:23.999Z</time></trkpt><trkpt lat="45.0771733617793" lon="6.8584381683868125"><ele>1656.1666666666665</ele><time>2026-05-02T08:05:25.999Z</time></trkpt><trkpt lat="45.077117485318105" lon="6.8584834275055"><ele>1652.0</ele><time>2026-05-02T08:05:26.999Z</time></trkpt><trkpt lat="45.07702065521823" lon="6.8585663810755175"><ele>1652.0</ele><time>2026-05-02T08:05:28.999Z</time></trkpt><trkpt lat="45.07695752869775" lon="6.8586109186624835"><ele>1652.0</ele><time>2026-05-02T08:05:29.999Z</time></trkpt><trkpt lat="45.07689457083246" lon="6.858652218856636"><ele>1652.0</ele><time>2026-05-02T08:05:30.999Z</time></trkpt><trkpt lat="45.076820744327144" lon="6.858713548172722"><ele>1652.0</ele><time>2026-05-02T08:05:31.999Z</time></trkpt><trkpt lat="45.0767699242478" lon="6.8587680030281"><ele>1652.0</ele><time>2026-05-02T08:05:32.999Z</time></trkpt><trkpt lat="45.07670744569646" lon="6.858833326444558"><ele>1652.0</ele><time>2026-05-02T08:05:33.999Z</time></trkpt><trkpt lat="45.07664584907418" lon="6.858893935799061"><ele>1652.0</ele><time>2026-05-02T08:05:34.999Z</time></trkpt><trkpt lat="45.076577994672384" lon="6.858945217715833"><ele>1649.6666666666665</ele><time>2026-05-02T08:05:35.999Z</time></trkpt><trkpt lat="45.07651664263168" lon="6.858977523595376"><ele>1647.3333333333333</ele><time>2026-05-02T08:05:36.999Z</time></trkpt><trkpt lat="45.076399891259584" lon="6.859052967629359"><ele>1645.0</ele><time>2026-05-02T08:05:38.999Z</time></trkpt><trkpt lat="45.07634164317275" lon="6.859100231321433"><ele>1642.6666666666665</ele><time>2026-05-02T08:05:39.999Z</time></trkpt><trkpt lat="45.07626753688848" lon="6.859152409814231"><ele>1640.3333333333333</ele><time>2026-05-02T08:05:40.999Z</time></trkpt><trkpt lat="45.0761868820725" lon="6.859219564789542"><ele>1638.0</ele><time>2026-05-02T08:05:41.999Z</time></trkpt><trkpt lat="45.07611271257393" lon="6.8593001148598995"><ele>1638.0</ele><time>2026-05-02T08:05:42.999Z</time></trkpt><trkpt lat="45.07604680235917" lon="6.859358304740449"><ele>1638.0</ele><time>2026-05-02T08:05:43.999Z</time></trkpt><trkpt lat="45.07597978369331" lon="6.859418200963217"><ele>1638.0</ele><time>2026-05-02T08:05:44.999Z</time></trkpt><trkpt lat="45.0759080278844" lon="6.859461454940865"><ele>1638.0</ele><time>2026-05-02T08:05:45.999Z</time></trkpt><trkpt lat="45.075837035372956" lon="6.859497998092683"><ele>1638.0</ele><time>2026-05-02T08:05:46.999Z</time></trkpt><trkpt lat="45.075768605296695" lon="6.859523355770534"><ele>1638.0</ele><time>2026-05-02T08:05:47.999Z</time></trkpt><trkpt lat="45.075706669420775" lon="6.859557571071477"><ele>1638.0</ele><time>2026-05-02T08:05:48.999Z</time></trkpt><trkpt lat="45.07563861833569" lon="6.859601127689591"><ele>1641.5</ele><time>2026-05-02T08:05:49.999Z</time></trkpt><trkpt lat="45.07557592878464" lon="6.859654437010649"><ele>1645.0</ele><time>2026-05-02T08:05:50.999Z</time></trkpt><trkpt lat="45.075510890434686" lon="6.859698304282344"><ele>1648.5</ele><time>2026-05-02T08:05:51.999Z</time></trkpt><trkpt lat="45.07544441049357" lon="6.859684338537568"><ele>1652.0</ele><time>2026-05-02T08:05:52.999Z</time></trkpt><trkpt lat="45.075340453627035" lon="6.859684824017616"><ele>1655.5</ele><time>2026-05-02T08:05:54.999Z</time></trkpt><trkpt lat="45.07522115984872" lon="6.859652134719295"><ele>1659.0</ele><time>2026-05-02T08:05:56.999Z</time></trkpt><trkpt lat="45.0751480816154" lon="6.859632565998352"><ele>1659.0</ele><time>2026-05-02T08:05:57.999Z</time></trkpt><trkpt lat="45.07507102025946" lon="6.859609910499938"><ele>1659.0</ele><time>2026-05-02T08:05:58.999Z</time></trkpt><trkpt lat="45.07500508821104" lon="6.859584965368565"><ele>1659.0</ele><time>2026-05-02T08:05:59.999Z</time></trkpt><trkpt lat="45.07493892155784" lon="6.859553370265711"><ele>1659.0</ele><time>2026-05-02T08:06:00.999Z</time></trkpt><trkpt lat="45.074878716374286" lon="6.859510750193878"><ele>1659.0</ele><time>2026-05-02T08:06:01.999Z</time></trkpt><trkpt lat="45.0748174840804" lon="6.85945753309824"><ele>1659.0</ele><time>2026-05-02T08:06:02.999Z</time></trkpt><trkpt lat="45.07475452670799" lon="6.859407534058163"><ele>1659.0</ele><time>2026-05-02T08:06:03.999Z</time></trkpt><trkpt lat="45.07468053430553" lon="6.859362084616444"><ele>1660.8000000000002</ele><time>2026-05-02T08:06:04.999Z</time></trkpt><trkpt lat="45.07461403908808" lon="6.859339404719649"><ele>1662.6000000000001</ele><time>2026-05-02T08:06:05.999Z</time></trkpt><trkpt lat="45.0745014617648" lon="6.859297559616766"><ele>1664.4</ele><time>2026-05-02T08:06:07.999Z</time></trkpt><trkpt lat="45.07438618385578" lon="6.859269211071452"><ele>1666.2</ele><time>2026-05-02T08:06:09.999Z</time></trkpt><trkpt lat="45.074266012341816" lon="6.859277895285533"><ele>1668.0</ele><time>2026-05-02T08:06:11.999Z</time></trkpt><trkpt lat="45.074203817034395" lon="6.859293815295881"><ele>1668.0</ele><time>2026-05-02T08:06:12.999Z</time></trkpt><trkpt lat="45.07413924129038" lon="6.8593278294511935"><ele>1668.0</ele><time>2026-05-02T08:06:13.999Z</time></trkpt><trkpt lat="45.07408791012985" lon="6.8593812057464545"><ele>1668.0</ele><time>2026-05-02T08:06:14.999Z</time></trkpt><trkpt lat="45.07402159942549" lon="6.859400247742479"><ele>1668.0</ele><time>2026-05-02T08:06:15.999Z</time></trkpt><trkpt lat="45.07395455353624" lon="6.859443538402954"><ele>1668.0</ele><time>2026-05-02T08:06:16.999Z</time></trkpt><trkpt lat="45.07388783011435" lon="6.859481719068046"><ele>1668.0</ele><time>2026-05-02T08:06:17.999Z</time></trkpt><trkpt lat="45.07381728283109" lon="6.859505698088907"><ele>1668.0</ele><time>2026-05-02T08:06:18.999Z</time></trkpt><trkpt lat="45.07374953013041" lon="6.859509067610623"><ele>1671.6000000000001</ele><time>2026-05-02T08:06:19.999Z</time></trkpt><trkpt lat="45.073637551642264" lon="6.859455127436371"><ele>1675.2</ele><time>2026-05-02T08:06:21.999Z</time></trkpt><trkpt lat="45.07352255819212" lon="6.859422078712884"><ele>1678.8</ele><time>2026-05-02T08:06:23.999Z</time></trkpt><trkpt lat="45.07340994524249" lon="6.859346501473387"><ele>1682.4</ele><time>2026-05-02T08:06:25.999Z</time></trkpt><trkpt lat="45.0733382975988" lon="6.859302740978403"><ele>1686.0</ele><time>2026-05-02T08:06:26.999Z</time></trkpt><trkpt lat="45.07327489237714" lon="6.859271955478274"><ele>1692.0</ele><time>2026-05-02T08:06:27.999Z</time></trkpt><trkpt lat="45.073211499557715" lon="6.859263514302677"><ele>1698.0</ele><time>2026-05-02T08:06:28.999Z</time></trkpt><trkpt lat="45.07310478388271" lon="6.859230957350113"><ele>1704.0</ele><time>2026-05-02T08:06:30.999Z</time></trkpt><trkpt lat="45.07304205482597" lon="6.859249792864974"><ele>1710.0</ele><time>2026-05-02T08:06:31.999Z</time></trkpt><trkpt lat="45.07292159342615" lon="6.859258749028778"><ele>1716.0</ele><time>2026-05-02T08:06:33.999Z</time></trkpt><trkpt lat="45.07284620820485" lon="6.859277552907386"><ele>1722.0</ele><time>2026-05-02T08:06:34.999Z</time></trkpt><trkpt lat="45.07276940663675" lon="6.859233777040587"><ele>1722.0</ele><time>2026-05-02T08:06:35.999Z</time></trkpt><trkpt lat="45.07270478284984" lon="6.859196885789304"><ele>1722.0</ele><time>2026-05-02T08:06:36.999Z</time></trkpt><trkpt lat="45.07261663207345" lon="6.859119135958015"><ele>1722.0</ele><time>2026-05-02T08:06:38.999Z</time></trkpt><trkpt lat="45.07253387326211" lon="6.859057643760432"><ele>1722.0</ele><time>2026-05-02T08:06:40.999Z</time></trkpt><trkpt lat="45.0724902793985" lon="6.8589829943032665"><ele>1722.0</ele><time>2026-05-02T08:06:41.999Z</time></trkpt><trkpt lat="45.07239668950964" lon="6.858894874974307"><ele>1722.0</ele><time>2026-05-02T08:06:43.999Z</time></trkpt><trkpt lat="45.07232717771943" lon="6.858835119959024"><ele>1717.8333333333333</ele><time>2026-05-02T08:06:44.999Z</time></trkpt><trkpt lat="45.07226432442699" lon="6.858786304177805"><ele>1713.6666666666665</ele><time>2026-05-02T08:06:45.999Z</time></trkpt><trkpt lat="45.07220068457264" lon="6.858752095999107"><ele>1709.5</ele><time>2026-05-02T08:06:46.999Z</time></trkpt><trkpt lat="45.072137771608254" lon="6.858737458836763"><ele>1705.3333333333333</ele><time>2026-05-02T08:06:47.999Z</time></trkpt><trkpt lat="45.072027295796325" lon="6.858675802552569"><ele>1701.1666666666665</ele><time>2026-05-02T08:06:49.999Z</time></trkpt><trkpt lat="45.071966978071416" lon="6.85864794306362"><ele>1697.0</ele><time>2026-05-02T08:06:50.999Z</time></trkpt><trkpt lat="45.07187257917609" lon="6.858580573351359"><ele>1697.0</ele><time>2026-05-02T08:06:52.999Z</time></trkpt><trkpt lat="45.07182916475765" lon="6.85845960897317"><ele>1697.0</ele><time>2026-05-02T08:06:54.999Z</time></trkpt><trkpt lat="45.07177750433978" lon="6.858340337105185"><ele>1697.0</ele><time>2026-05-02T08:06:56.999Z</time></trkpt><trkpt lat="45.07169586230788" lon="6.858211554894005"><ele>1697.0</ele><time>2026-05-02T08:06:58.999Z</time></trkpt><trkpt lat="45.071636164474754" lon="6.858162415265975"><ele>1697.0</ele><time>2026-05-02T08:06:59.999Z</time></trkpt><trkpt lat="45.071579983451414" lon="6.858098160464377"><ele>1694.0</ele><time>2026-05-02T08:07:00.999Z</time></trkpt><trkpt lat="45.07149480956092" lon="6.858000280408466"><ele>1691.0</ele><time>2026-05-02T08:07:02.999Z</time></trkpt><trkpt lat="45.071410329902996" lon="6.857881976410573"><ele>1688.0</ele><time>2026-05-02T08:07:04.999Z</time></trkpt><trkpt lat="45.07132919892899" lon="6.857765357014828"><ele>1685.0</ele><time>2026-05-02T08:07:06.999Z</time></trkpt><trkpt lat="45.07125698354515" lon="6.857648007715201"><ele>1691.0</ele><time>2026-05-02T08:07:08.999Z</time></trkpt><trkpt lat="45.071217329703195" lon="6.857571608454773"><ele>1697.0</ele><time>2026-05-02T08:07:09.999Z</time></trkpt><trkpt lat="45.07118138861809" lon="6.857497712267423"><ele>1703.0</ele><time>2026-05-02T08:07:10.999Z</time></trkpt><trkpt lat="45.07114798342336" lon="6.8574144747257355"><ele>1709.0</ele><time>2026-05-02T08:07:11.999Z</time></trkpt><trkpt lat="45.07112093130312" lon="6.857329596782554"><ele>1715.0</ele><time>2026-05-02T08:07:12.999Z</time></trkpt><trkpt lat="45.07110031785804" lon="6.857242970041861"><ele>1721.0</ele><time>2026-05-02T08:07:13.999Z</time></trkpt><trkpt lat="45.071093339254546" lon="6.8570832694758375"><ele>1727.0</ele><time>2026-05-02T08:07:15.999Z</time></trkpt><trkpt lat="45.071087978030214" lon="6.856922742269074"><ele>1729.8333333333333</ele><time>2026-05-02T08:07:17.999Z</time></trkpt><trkpt lat="45.07107399715255" lon="6.856771757304155"><ele>1732.6666666666665</ele><time>2026-05-02T08:07:19.999Z</time></trkpt><trkpt lat="45.071087711428206" lon="6.856679539244268"><ele>1735.5</ele><time>2026-05-02T08:07:20.999Z</time></trkpt><trkpt lat="45.071079770180376" lon="6.856587366954161"><ele>1738.3333333333335</ele><time>2026-05-02T08:07:21.999Z</time></trkpt><trkpt lat="45.071068157578345" lon="6.856472312449652"><ele>1741.1666666666667</ele><time>2026-05-02T08:07:22.999Z</time></trkpt><trkpt lat="45.071065288330765" lon="6.856342405036326"><ele>1744.0</ele><time>2026-05-02T08:07:23.999Z</time></trkpt><trkpt lat="45.07106072713731" lon="6.856225334622476"><ele>1744.0000000000002</ele><time>2026-05-02T08:07:24.999Z</time></trkpt><trkpt lat="45.071059683632406" lon="6.856102640470057"><ele>1744.0</ele><time>2026-05-02T08:07:25.999Z</time></trkpt><trkpt lat="45.07106127926284" lon="6.855986156170761"><ele>1744.0</ele><time>2026-05-02T08:07:26.999Z</time></trkpt><trkpt lat="45.071054650091114" lon="6.85587948134239"><ele>1744.0</ele><time>2026-05-02T08:07:27.999Z</time></trkpt><trkpt lat="45.071051593751676" lon="6.85576321694707"><ele>1744.0000000000002</ele><time>2026-05-02T08:07:28.999Z</time></trkpt><trkpt lat="45.07105325468671" lon="6.85563460647264"><ele>1744.0</ele><time>2026-05-02T08:07:29.999Z</time></trkpt><trkpt lat="45.071051537366266" lon="6.855517532611103"><ele>1745.8000000000002</ele><time>2026-05-02T08:07:30.999Z</time></trkpt><trkpt lat="45.071046606303184" lon="6.855392155754572"><ele>1747.6000000000001</ele><time>2026-05-02T08:07:31.999Z</time></trkpt><trkpt lat="45.071050246896014" lon="6.85527091621832"><ele>1749.4</ele><time>2026-05-02T08:07:32.999Z</time></trkpt><trkpt lat="45.0710493043898" lon="6.855148235289084"><ele>1751.2</ele><time>2026-05-02T08:07:33.999Z</time></trkpt><trkpt lat="45.071047892257816" lon="6.855018967531222"><ele>1753.0</ele><time>2026-05-02T08:07:34.999Z</time></trkpt><trkpt lat="45.071049790632365" lon="6.854879215653832"><ele>1754.5000000000002</ele><time>2026-05-02T08:07:35.999Z</time></trkpt><trkpt lat="45.07105495671513" lon="6.854737258009285"><ele>1756.0</ele><time>2026-05-02T08:07:36.999Z</time></trkpt><trkpt lat="45.07106481753404" lon="6.854621281142562"><ele>1757.5</ele><time>2026-05-02T08:07:37.999Z</time></trkpt><trkpt lat="45.0710644323942" lon="6.854499857389239"><ele>1759.0</ele><time>2026-05-02T08:07:38.999Z</time></trkpt><trkpt lat="45.07107674767704" lon="6.854410583533161"><ele>1760.5000000000002</ele><time>2026-05-02T08:07:39.999Z</time></trkpt><trkpt lat="45.07107983091071" lon="6.854303190420653"><ele>1762.0</ele><time>2026-05-02T08:07:40.999Z</time></trkpt><trkpt lat="45.07108930234302" lon="6.854207471330543"><ele>1762.0000000000002</ele><time>2026-05-02T08:07:41.999Z</time></trkpt><trkpt lat="45.071092735976926" lon="6.85411001438106"><ele>1762.0</ele><time>2026-05-02T08:07:42.999Z</time></trkpt><trkpt lat="45.07109383859589" lon="6.85399846067011"><ele>1762.0</ele><time>2026-05-02T08:07:43.999Z</time></trkpt><trkpt lat="45.07108692956991" lon="6.8538943677231"><ele>1762.0</ele><time>2026-05-02T08:07:44.999Z</time></trkpt><trkpt lat="45.07109716302694" lon="6.8537530517664695"><ele>1762.0000000000002</ele><time>2026-05-02T08:07:46.999Z</time></trkpt><trkpt lat="45.071104038207984" lon="6.853658241186364"><ele>1762.0</ele><time>2026-05-02T08:11:07Z</time></trkpt><trkpt lat="45.07113895919201" lon="6.853566657978705"><ele>1763.6</ele><time>2026-05-02T08:11:10Z</time></trkpt><trkpt lat="45.07113774795091" lon="6.853447073119371"><ele>1765.1999999999998</ele><time>2026-05-02T08:11:27.999Z</time></trkpt><trkpt lat="45.07112937376915" lon="6.853354850097038"><ele>1766.8</ele><time>2026-05-02T08:11:29.999Z</time></trkpt><trkpt lat="45.071116591570515" lon="6.853171791330588"><ele>1768.4</ele><time>2026-05-02T08:12:59Z</time></trkpt><trkpt lat="45.07106211068276" lon="6.85301863578269"><ele>1770.0</ele><time>2026-05-02T08:13:01Z</time></trkpt><trkpt lat="45.07103315637388" lon="6.852931479567954"><ele>1770.0</ele><time>2026-05-02T08:13:02Z</time></trkpt><trkpt lat="45.07101159171923" lon="6.852841474033686"><ele>1770.0</ele><time>2026-05-02T08:13:03Z</time></trkpt><trkpt lat="45.07100384095549" lon="6.85274268313196"><ele>1770.0</ele><time>2026-05-02T08:13:04Z</time></trkpt><trkpt lat="45.071006075570246" lon="6.852640764877557"><ele>1770.0</ele><time>2026-05-02T08:13:05Z</time></trkpt><trkpt lat="45.071014459234" lon="6.852539452915992"><ele>1770.0</ele><time>2026-05-02T08:13:06Z</time></trkpt><trkpt lat="45.07103015486825" lon="6.852433081274962"><ele>1770.0</ele><time>2026-05-02T08:13:07Z</time></trkpt><trkpt lat="45.071068504435516" lon="6.852328824960078"><ele>1770.0</ele><time>2026-05-02T08:13:08Z</time></trkpt><trkpt lat="45.07108453012359" lon="6.852222613087259"><ele>1771.6</ele><time>2026-05-02T08:13:09Z</time></trkpt><trkpt lat="45.07111659004412" lon="6.852119436596426"><ele>1773.2</ele><time>2026-05-02T08:13:10Z</time></trkpt><trkpt lat="45.07115930591746" lon="6.851956574363544"><ele>1774.8000000000002</ele><time>2026-05-02T08:13:12Z</time></trkpt><trkpt lat="45.071180199974435" lon="6.851845990479904"><ele>1776.4</ele><time>2026-05-02T08:13:13Z</time></trkpt><trkpt lat="45.07120365053236" lon="6.851710108408934"><ele>1778.0</ele><time>2026-05-02T08:13:14Z</time></trkpt><trkpt lat="45.07123425644771" lon="6.851594015272451"><ele>1777.9999999999998</ele><time>2026-05-02T08:13:15Z</time></trkpt><trkpt lat="45.07125728479599" lon="6.851486340367668"><ele>1778.0</ele><time>2026-05-02T08:13:16Z</time></trkpt><trkpt lat="45.07126739379776" lon="6.851374184677757"><ele>1778.0</ele><time>2026-05-02T08:13:17Z</time></trkpt><trkpt lat="45.07125813251837" lon="6.851250399488348"><ele>1778.0</ele><time>2026-05-02T08:13:18Z</time></trkpt><trkpt lat="45.071237794510104" lon="6.851129042815994"><ele>1777.9999999999998</ele><time>2026-05-02T08:13:19Z</time></trkpt><trkpt lat="45.07122092166713" lon="6.851038158940585"><ele>1778.0</ele><time>2026-05-02T08:13:20Z</time></trkpt><trkpt lat="45.07119058242473" lon="6.850905330150208"><ele>1778.0</ele><time>2026-05-02T08:13:22Z</time></trkpt><trkpt lat="45.071240819183814" lon="6.850814851906198"><ele>1778.0000000000002</ele><time>2026-05-02T08:13:24Z</time></trkpt><trkpt lat="45.07132090758976" lon="6.850916646356437"><ele>1778.0000000000002</ele><time>2026-05-02T08:13:27Z</time></trkpt><trkpt lat="45.07129069914151" lon="6.851020696591048"><ele>1778.0</ele><time>2026-05-02T08:13:28Z</time></trkpt><trkpt lat="45.07128465803334" lon="6.851133038124737"><ele>1778.0</ele><time>2026-05-02T08:13:29Z</time></trkpt><trkpt lat="45.071287744605804" lon="6.851289619005882"><ele>1778.0</ele><time>2026-05-02T08:13:30Z</time></trkpt><trkpt lat="45.07130839103957" lon="6.851445817224824"><ele>1778.0000000000002</ele><time>2026-05-02T08:13:31Z</time></trkpt><trkpt lat="45.071297179300316" lon="6.851593050002113"><ele>1778.0000000000002</ele><time>2026-05-02T08:13:32Z</time></trkpt><trkpt lat="45.07129122448773" lon="6.8517504992005005"><ele>1778.0</ele><time>2026-05-02T08:13:33Z</time></trkpt><trkpt lat="45.07128228087999" lon="6.851894372536668"><ele>1778.0</ele><time>2026-05-02T08:13:33.999Z</time></trkpt><trkpt lat="45.071266121403916" lon="6.852038238265221"><ele>1778.6000000000001</ele><time>2026-05-02T08:13:34.999Z</time></trkpt><trkpt lat="45.07125643594426" lon="6.852189278465542"><ele>1779.2000000000003</ele><time>2026-05-02T08:13:35.999Z</time></trkpt><trkpt lat="45.07125783868318" lon="6.852341537075544"><ele>1779.8</ele><time>2026-05-02T08:13:36.999Z</time></trkpt><trkpt lat="45.07126893115848" lon="6.8524828724960605"><ele>1780.4</ele><time>2026-05-02T08:13:37.999Z</time></trkpt><trkpt lat="45.071287041267325" lon="6.852603134566787"><ele>1781.0</ele><time>2026-05-02T08:13:38.999Z</time></trkpt><trkpt lat="45.071313813711626" lon="6.852707057243416"><ele>1779.1666666666665</ele><time>2026-05-02T08:13:39.999Z</time></trkpt><trkpt lat="45.07136158939411" lon="6.852810489439901"><ele>1777.3333333333333</ele><time>2026-05-02T08:13:40.999Z</time></trkpt><trkpt lat="45.071419043191895" lon="6.852890919794131"><ele>1775.5</ele><time>2026-05-02T08:13:41.999Z</time></trkpt><trkpt lat="45.071488645701734" lon="6.852978758463931"><ele>1773.6666666666665</ele><time>2026-05-02T08:13:42.999Z</time></trkpt><trkpt lat="45.07154096158276" lon="6.8530862840801"><ele>1771.8333333333333</ele><time>2026-05-02T08:13:43.999Z</time></trkpt><trkpt lat="45.071550289465755" lon="6.853200199458288"><ele>1770.0</ele><time>2026-05-02T08:13:44.999Z</time></trkpt><trkpt lat="45.071559028850665" lon="6.853319364876383"><ele>1770.0</ele><time>2026-05-02T08:13:45.999Z</time></trkpt><trkpt lat="45.07156830683079" lon="6.85343602610911"><ele>1770.0</ele><time>2026-05-02T08:13:46.999Z</time></trkpt><trkpt lat="45.07157493924542" lon="6.853538671008727"><ele>1770.0</ele><time>2026-05-02T08:13:47.999Z</time></trkpt><trkpt lat="45.07158514611934" lon="6.853647145886825"><ele>1770.0</ele><time>2026-05-02T08:13:48.999Z</time></trkpt><trkpt lat="45.07160299230205" lon="6.853784900183715"><ele>1770.0</ele><time>2026-05-02T08:13:49.999Z</time></trkpt><trkpt lat="45.07159440983382" lon="6.853955252197031"><ele>1785.75</ele><time>2026-05-02T08:13:50.999Z</time></trkpt><trkpt lat="45.07161440636747" lon="6.85410210953638"><ele>1801.5</ele><time>2026-05-02T08:13:51.999Z</time></trkpt><trkpt lat="45.07164293531188" lon="6.85425921914877"><ele>1817.25</ele><time>2026-05-02T08:13:52.999Z</time></trkpt><trkpt lat="45.07166805150596" lon="6.854433941716062"><ele>1833.0</ele><time>2026-05-02T08:13:53.999Z</time></trkpt><trkpt lat="45.071672336109415" lon="6.85459232677964"><ele>1833.0</ele><time>2026-05-02T08:13:54.999Z</time></trkpt><trkpt lat="45.07168942113641" lon="6.8547306504122805"><ele>1833.0</ele><time>2026-05-02T08:13:55.999Z</time></trkpt><trkpt lat="45.07170378873805" lon="6.854851270922601"><ele>1833.0</ele><time>2026-05-02T08:13:56.999Z</time></trkpt><trkpt lat="45.07171456542563" lon="6.854970788073367"><ele>1833.0</ele><time>2026-05-02T08:13:57.999Z</time></trkpt><trkpt lat="45.07173818124867" lon="6.85507461986125"><ele>1833.0</ele><time>2026-05-02T08:13:58.999Z</time></trkpt><trkpt lat="45.07177707929901" lon="6.855196985029781"><ele>1833.0</ele><time>2026-05-02T08:13:59.999Z</time></trkpt><trkpt lat="45.07181493969581" lon="6.855319039601271"><ele>1831.4</ele><time>2026-05-02T08:14:00.999Z</time></trkpt><trkpt lat="45.07185020581181" lon="6.855448916762598"><ele>1829.8000000000002</ele><time>2026-05-02T08:14:01.999Z</time></trkpt><trkpt lat="45.071865443144866" lon="6.855582756640598"><ele>1828.2</ele><time>2026-05-02T08:14:02.999Z</time></trkpt><trkpt lat="45.07190033264326" lon="6.855725386278209"><ele>1826.6</ele><time>2026-05-02T08:14:03.999Z</time></trkpt><trkpt lat="45.071944401019444" lon="6.855858783659554"><ele>1825.0</ele><time>2026-05-02T08:14:04.999Z</time></trkpt><trkpt lat="45.07199597243345" lon="6.855987441307014"><ele>1820.0</ele><time>2026-05-02T08:14:06Z</time></trkpt><trkpt lat="45.07204368436252" lon="6.856088419740355"><ele>1815.0</ele><time>2026-05-02T08:14:07Z</time></trkpt><trkpt lat="45.07210527631347" lon="6.856170540495646"><ele>1810.0</ele><time>2026-05-02T08:14:08Z</time></trkpt><trkpt lat="45.072178624944605" lon="6.856239396802762"><ele>1805.0</ele><time>2026-05-02T08:14:09Z</time></trkpt><trkpt lat="45.07227218493741" lon="6.856322791626559"><ele>1800.0</ele><time>2026-05-02T08:14:10Z</time></trkpt><trkpt lat="45.07235282821137" lon="6.8564146196061655"><ele>1800.0</ele><time>2026-05-02T08:14:11Z</time></trkpt><trkpt lat="45.07240274369257" lon="6.85649055696824"><ele>1800.0</ele><time>2026-05-02T08:14:12Z</time></trkpt><trkpt lat="45.07247196101098" lon="6.8565493640087825"><ele>1800.0</ele><time>2026-05-02T08:14:14Z</time></trkpt><trkpt lat="45.07255155371536" lon="6.856482388890222"><ele>1800.0</ele><time>2026-05-02T08:14:16Z</time></trkpt><trkpt lat="45.07254960981131" lon="6.856347041184954"><ele>1800.0</ele><time>2026-05-02T08:14:18Z</time></trkpt><trkpt lat="45.07245930405745" lon="6.8562224483452106"><ele>1800.0</ele><time>2026-05-02T08:14:20Z</time></trkpt><trkpt lat="45.072378161575294" lon="6.85619018769748"><ele>1800.0</ele><time>2026-05-02T08:14:21Z</time></trkpt><trkpt lat="45.072309221064664" lon="6.8561380311596745"><ele>1800.0</ele><time>2026-05-02T08:14:22Z</time></trkpt><trkpt lat="45.07226179178899" lon="6.856065727509911"><ele>1800.0</ele><time>2026-05-02T08:14:23Z</time></trkpt><trkpt lat="45.072210920488224" lon="6.855984575776957"><ele>1800.0</ele><time>2026-05-02T08:14:24Z</time></trkpt><trkpt lat="45.07216480976894" lon="6.855891461036782"><ele>1800.0</ele><time>2026-05-02T08:14:25Z</time></trkpt><trkpt lat="45.07212959828778" lon="6.855793607894387"><ele>1804.1666666666667</ele><time>2026-05-02T08:14:26Z</time></trkpt><trkpt lat="45.072102552314284" lon="6.8556760515259985"><ele>1808.3333333333335</ele><time>2026-05-02T08:14:27Z</time></trkpt><trkpt lat="45.07209165800113" lon="6.855553242565122"><ele>1812.5</ele><time>2026-05-02T08:14:28Z</time></trkpt><trkpt lat="45.072090219591104" lon="6.855428677972164"><ele>1816.6666666666667</ele><time>2026-05-02T08:14:29Z</time></trkpt><trkpt lat="45.07208478319543" lon="6.855311593312705"><ele>1820.8333333333335</ele><time>2026-05-02T08:14:30Z</time></trkpt><trkpt lat="45.07206321298529" lon="6.855197841379715"><ele>1825.0</ele><time>2026-05-02T08:14:31Z</time></trkpt><trkpt lat="45.07206859865684" lon="6.85507727318219"><ele>1826.3333333333335</ele><time>2026-05-02T08:14:32Z</time></trkpt><trkpt lat="45.072065455356196" lon="6.854959995383479"><ele>1827.6666666666667</ele><time>2026-05-02T08:14:33Z</time></trkpt><trkpt lat="45.072061166280605" lon="6.854826485744398"><ele>1829.0</ele><time>2026-05-02T08:14:34Z</time></trkpt><trkpt lat="45.072077312711855" lon="6.854720148066887"><ele>1830.3333333333335</ele><time>2026-05-02T08:14:35Z</time></trkpt><trkpt lat="45.07207920456374" lon="6.854597206864773"><ele>1831.6666666666667</ele><time>2026-05-02T08:14:36Z</time></trkpt><trkpt lat="45.07208539908687" lon="6.854466405115646"><ele>1833.0</ele><time>2026-05-02T08:14:37Z</time></trkpt><trkpt lat="45.07210652320469" lon="6.8543566158116755"><ele>1833.8333333333333</ele><time>2026-05-02T08:14:38Z</time></trkpt><trkpt lat="45.072134166780195" lon="6.854231297015003"><ele>1834.6666666666665</ele><time>2026-05-02T08:14:39Z</time></trkpt><trkpt lat="45.07215508374893" lon="6.854109329388113"><ele>1835.5</ele><time>2026-05-02T08:14:40Z</time></trkpt><trkpt lat="45.07216918722446" lon="6.853994781800601"><ele>1836.3333333333333</ele><time>2026-05-02T08:14:41Z</time></trkpt><trkpt lat="45.07217389714464" lon="6.853880295620874"><ele>1837.1666666666665</ele><time>2026-05-02T08:14:42Z</time></trkpt><trkpt lat="45.07217721206027" lon="6.853767632143664"><ele>1838.0</ele><time>2026-05-02T08:14:43Z</time></trkpt><trkpt lat="45.07218203644807" lon="6.8536606540897695"><ele>1838.25</ele><time>2026-05-02T08:14:44Z</time></trkpt><trkpt lat="45.07219401195126" lon="6.853423393995563"><ele>1838.5</ele><time>2026-05-02T08:14:46Z</time></trkpt><trkpt lat="45.072196371544294" lon="6.853281316031612"><ele>1838.75</ele><time>2026-05-02T08:14:47Z</time></trkpt><trkpt lat="45.0721840217592" lon="6.8531497259031955"><ele>1839.0</ele><time>2026-05-02T08:14:48Z</time></trkpt><trkpt lat="45.07219273348655" lon="6.8530195124373625"><ele>1839.0</ele><time>2026-05-02T08:14:49Z</time></trkpt><trkpt lat="45.072191581624836" lon="6.852907433599093"><ele>1839.0</ele><time>2026-05-02T08:14:50Z</time></trkpt><trkpt lat="45.072193225927485" lon="6.852784408468538"><ele>1839.0</ele><time>2026-05-02T08:14:51Z</time></trkpt><trkpt lat="45.07218186418399" lon="6.852660113080327"><ele>1839.0</ele><time>2026-05-02T08:14:52Z</time></trkpt><trkpt lat="45.07215693573074" lon="6.852537826388098"><ele>1839.0</ele><time>2026-05-02T08:14:53Z</time></trkpt><trkpt lat="45.072166498274804" lon="6.85241643793312"><ele>1839.0</ele><time>2026-05-02T08:14:54Z</time></trkpt><trkpt lat="45.07216533369068" lon="6.852297693300077"><ele>1839.6666666666667</ele><time>2026-05-02T08:14:55Z</time></trkpt><trkpt lat="45.07216548982795" lon="6.852181135686691"><ele>1840.3333333333335</ele><time>2026-05-02T08:14:56Z</time></trkpt><trkpt lat="45.072164226882705" lon="6.852070604865154"><ele>1841.0</ele><time>2026-05-02T08:14:57Z</time></trkpt><trkpt lat="45.07217694133925" lon="6.851964817138403"><ele>1841.6666666666667</ele><time>2026-05-02T08:14:58Z</time></trkpt><trkpt lat="45.072194758283366" lon="6.851841637855927"><ele>1842.3333333333335</ele><time>2026-05-02T08:14:59Z</time></trkpt><trkpt lat="45.07221663622523" lon="6.8517186809269575"><ele>1843.0</ele><time>2026-05-02T08:15:00Z</time></trkpt><trkpt lat="45.07224829556492" lon="6.85162395611144"><ele>1843.0000000000002</ele><time>2026-05-02T08:15:01Z</time></trkpt><trkpt lat="45.072273003889975" lon="6.8515237106857745"><ele>1843.0</ele><time>2026-05-02T08:15:02Z</time></trkpt><trkpt lat="45.072293993480024" lon="6.851435328474099"><ele>1843.0</ele><time>2026-05-02T08:15:03Z</time></trkpt><trkpt lat="45.0722951466258" lon="6.851314221638561"><ele>1843.0</ele><time>2026-05-02T08:15:04Z</time></trkpt><trkpt lat="45.07229178160096" lon="6.851209920649028"><ele>1843.0000000000002</ele><time>2026-05-02T08:15:05Z</time></trkpt><trkpt lat="45.07228155566202" lon="6.851092285431741"><ele>1843.0</ele><time>2026-05-02T08:15:06Z</time></trkpt><trkpt lat="45.072299436001174" lon="6.850988599282609"><ele>1843.8333333333335</ele><time>2026-05-02T08:15:07Z</time></trkpt><trkpt lat="45.072316967395466" lon="6.850882375023636"><ele>1844.6666666666667</ele><time>2026-05-02T08:15:08Z</time></trkpt><trkpt lat="45.07234731779583" lon="6.850783922210383"><ele>1845.5</ele><time>2026-05-02T08:15:09Z</time></trkpt><trkpt lat="45.07237306036901" lon="6.85068152021348"><ele>1846.3333333333335</ele><time>2026-05-02T08:15:10Z</time></trkpt><trkpt lat="45.07241286230643" lon="6.850576533256719"><ele>1847.1666666666667</ele><time>2026-05-02T08:15:11Z</time></trkpt><trkpt lat="45.07244648493628" lon="6.850486390595685"><ele>1848.0</ele><time>2026-05-02T08:15:12Z</time></trkpt><trkpt lat="45.07246553580014" lon="6.850396305626077"><ele>1850.3333333333333</ele><time>2026-05-02T08:15:13Z</time></trkpt><trkpt lat="45.07247801803997" lon="6.8502919513266995"><ele>1852.6666666666665</ele><time>2026-05-02T08:15:14Z</time></trkpt><trkpt lat="45.072468393322815" lon="6.850178107374854"><ele>1855.0</ele><time>2026-05-02T08:15:15Z</time></trkpt><trkpt lat="45.072452097175194" lon="6.850069805243194"><ele>1857.3333333333333</ele><time>2026-05-02T08:15:16Z</time></trkpt><trkpt lat="45.0724401642956" lon="6.849960412889762"><ele>1859.6666666666665</ele><time>2026-05-02T08:15:17Z</time></trkpt><trkpt lat="45.07243454234881" lon="6.849854203446405"><ele>1862.0</ele><time>2026-05-02T08:15:18Z</time></trkpt><trkpt lat="45.07242220791291" lon="6.849748234990056"><ele>1861.9999999999998</ele><time>2026-05-02T08:15:19Z</time></trkpt><trkpt lat="45.07243109463687" lon="6.849640391996741"><ele>1862.0</ele><time>2026-05-02T08:15:20Z</time></trkpt><trkpt lat="45.07243184171515" lon="6.849536146269925"><ele>1862.0</ele><time>2026-05-02T08:15:21Z</time></trkpt><trkpt lat="45.0724412098334" lon="6.84944291720791"><ele>1862.0</ele><time>2026-05-02T08:15:22Z</time></trkpt><trkpt lat="45.07246803268627" lon="6.849297086868831"><ele>1861.9999999999998</ele><time>2026-05-02T08:15:24Z</time></trkpt><trkpt lat="45.07250827666027" lon="6.84920355009592"><ele>1862.0</ele><time>2026-05-02T08:15:26Z</time></trkpt><trkpt lat="45.07253611477273" lon="6.849118844001414"><ele>1868.3999999999999</ele><time>2026-05-02T08:15:29Z</time></trkpt><trkpt lat="45.07254767161147" lon="6.8490080692789235"><ele>1874.7999999999997</ele><time>2026-05-02T08:15:32Z</time></trkpt><trkpt lat="45.07255756670769" lon="6.84891876486944"><ele>1881.2</ele><time>2026-05-02T08:15:35Z</time></trkpt><trkpt lat="45.072417822827056" lon="6.848787203834266"><ele>1887.6</ele><time>2026-05-02T08:16:26.999Z</time></trkpt><trkpt lat="45.072334275242426" lon="6.848824831828069"><ele>1894.0</ele><time>2026-05-02T08:16:48Z</time></trkpt><trkpt lat="45.07221846413865" lon="6.848788099364275"><ele>1894.0000000000002</ele><time>2026-05-02T08:16:50Z</time></trkpt><trkpt lat="45.07215370616286" lon="6.848790856126181"><ele>1894.0</ele><time>2026-05-02T08:16:51Z</time></trkpt><trkpt lat="45.07205725897209" lon="6.8487803385284245"><ele>1894.0</ele><time>2026-05-02T08:16:53Z</time></trkpt><trkpt lat="45.0719934788896" lon="6.84876026116918"><ele>1894.0</ele><time>2026-05-02T08:16:54Z</time></trkpt><trkpt lat="45.071865484484974" lon="6.848707253182365"><ele>1894.0000000000002</ele><time>2026-05-02T08:16:56Z</time></trkpt><trkpt lat="45.07179214281729" lon="6.8486721805427875"><ele>1894.0</ele><time>2026-05-02T08:16:57Z</time></trkpt><trkpt lat="45.07171158530011" lon="6.848629423020342"><ele>1894.0</ele><time>2026-05-02T08:16:58Z</time></trkpt><trkpt lat="45.07165210049041" lon="6.8485901220626015"><ele>1893.9999999999998</ele><time>2026-05-02T08:16:59Z</time></trkpt><trkpt lat="45.071590313975165" lon="6.84854309292813"><ele>1894.0</ele><time>2026-05-02T08:17:00Z</time></trkpt><trkpt lat="45.07153403385974" lon="6.848490517384438"><ele>1894.0</ele><time>2026-05-02T08:17:01Z</time></trkpt><trkpt lat="45.07147802322224" lon="6.84843079887652"><ele>1893.9999999999998</ele><time>2026-05-02T08:17:02Z</time></trkpt><trkpt lat="45.07141740318331" lon="6.848363485741145"><ele>1894.0</ele><time>2026-05-02T08:17:03Z</time></trkpt><trkpt lat="45.07135785409169" lon="6.848289190858424"><ele>1894.0</ele><time>2026-05-02T08:17:04Z</time></trkpt><trkpt lat="45.071303833063716" lon="6.84821532529079"><ele>1892.6666666666667</ele><time>2026-05-02T08:17:05Z</time></trkpt><trkpt lat="45.071251882840855" lon="6.8481361399896095"><ele>1891.3333333333335</ele><time>2026-05-02T08:17:06Z</time></trkpt><trkpt lat="45.07120815603996" lon="6.848061283846502"><ele>1890.0</ele><time>2026-05-02T08:17:07Z</time></trkpt><trkpt lat="45.07116417901192" lon="6.847982268214265"><ele>1888.6666666666665</ele><time>2026-05-02T08:17:08Z</time></trkpt><trkpt lat="45.07109833605837" lon="6.847818568733086"><ele>1887.3333333333333</ele><time>2026-05-02T08:17:10Z</time></trkpt><trkpt lat="45.0710685269015" lon="6.847730768994271"><ele>1886.0</ele><time>2026-05-02T08:17:11Z</time></trkpt><trkpt lat="45.07104038317033" lon="6.8476341024223535"><ele>1890.0</ele><time>2026-05-02T08:17:12Z</time></trkpt><trkpt lat="45.07102211908532" lon="6.847541756864869"><ele>1894.0000000000002</ele><time>2026-05-02T08:17:13Z</time></trkpt><trkpt lat="45.07100631788" lon="6.847451850954367"><ele>1898.0</ele><time>2026-05-02T08:17:14Z</time></trkpt><trkpt lat="45.07099553883047" lon="6.847356412579103"><ele>1902.0</ele><time>2026-05-02T08:17:15Z</time></trkpt><trkpt lat="45.07098371824588" lon="6.847249489683525"><ele>1906.0000000000002</ele><time>2026-05-02T08:17:16Z</time></trkpt><trkpt lat="45.070974551617155" lon="6.847141935580932"><ele>1910.0</ele><time>2026-05-02T08:17:17Z</time></trkpt><trkpt lat="45.07095870539701" lon="6.847029155925719"><ele>1914.0</ele><time>2026-05-02T08:17:18Z</time></trkpt><trkpt lat="45.07096843387242" lon="6.8468182687596375"><ele>1912.3333333333333</ele><time>2026-05-02T08:17:20Z</time></trkpt><trkpt lat="45.070954621969896" lon="6.8467128108437585"><ele>1910.6666666666665</ele><time>2026-05-02T08:17:21Z</time></trkpt><trkpt lat="45.070921188370406" lon="6.846607301152392"><ele>1909.0</ele><time>2026-05-02T08:17:22Z</time></trkpt><trkpt lat="45.070883276263196" lon="6.846527309438149"><ele>1907.3333333333333</ele><time>2026-05-02T08:17:23Z</time></trkpt><trkpt lat="45.07084571510802" lon="6.846453485551129"><ele>1905.6666666666665</ele><time>2026-05-02T08:17:24Z</time></trkpt><trkpt lat="45.07078081350252" lon="6.846408792289512"><ele>1904.0</ele><time>2026-05-02T08:17:25Z</time></trkpt><trkpt lat="45.070662170101194" lon="6.846293909345291"><ele>1904.0</ele><time>2026-05-02T08:17:27Z</time></trkpt><trkpt lat="45.070593299993774" lon="6.84621131590872"><ele>1904.0</ele><time>2026-05-02T08:17:28Z</time></trkpt><trkpt lat="45.07053469927031" lon="6.8461253138040385"><ele>1904.0</ele><time>2026-05-02T08:17:29Z</time></trkpt><trkpt lat="45.07049048538807" lon="6.8460536711877324"><ele>1904.0</ele><time>2026-05-02T08:17:30Z</time></trkpt><trkpt lat="45.07042310253395" lon="6.845913940509788"><ele>1904.0</ele><time>2026-05-02T08:17:32Z</time></trkpt><trkpt lat="45.07036647642755" lon="6.8457918834384515"><ele>1907.2</ele><time>2026-05-02T08:17:34Z</time></trkpt><trkpt lat="45.07028613094832" lon="6.84570259104397"><ele>1910.4</ele><time>2026-05-02T08:17:36Z</time></trkpt><trkpt lat="45.07017819251657" lon="6.845703613976491"><ele>1913.6</ele><time>2026-05-02T08:17:38Z</time></trkpt><trkpt lat="45.07007241710115" lon="6.845730708604162"><ele>1916.8</ele><time>2026-05-02T08:17:40Z</time></trkpt><trkpt lat="45.0699703010754" lon="6.84574836364835"><ele>1920.0</ele><time>2026-05-02T08:17:42Z</time></trkpt><trkpt lat="45.06988085822368" lon="6.845727906518224"><ele>1920.0</ele><time>2026-05-02T08:17:44Z</time></trkpt><trkpt lat="45.069776552948646" lon="6.845641272328266"><ele>1920.0</ele><time>2026-05-02T08:17:46Z</time></trkpt><trkpt lat="45.06975078486902" lon="6.845468399988915"><ele>1920.0</ele><time>2026-05-02T08:17:48Z</time></trkpt><trkpt lat="45.0697194384919" lon="6.845376678541843"><ele>1920.0</ele><time>2026-05-02T08:17:49Z</time></trkpt><trkpt lat="45.06967973160129" lon="6.84526200348487"><ele>1920.0</ele><time>2026-05-02T08:17:50Z</time></trkpt><trkpt lat="45.06964965351147" lon="6.845175500225543"><ele>1928.4</ele><time>2026-05-02T08:17:51Z</time></trkpt><trkpt lat="45.06959334602533" lon="6.845050056186171"><ele>1936.8</ele><time>2026-05-02T08:17:52.999Z</time></trkpt><trkpt lat="45.06952359807" lon="6.844994598076939"><ele>1945.1999999999998</ele><time>2026-05-02T08:17:53.999Z</time></trkpt><trkpt lat="45.06944800852074" lon="6.844966307716881"><ele>1953.6</ele><time>2026-05-02T08:17:54.999Z</time></trkpt><trkpt lat="45.06938523350737" lon="6.844928113737955"><ele>1962.0</ele><time>2026-05-02T08:17:55.999Z</time></trkpt><trkpt lat="45.0692729003615" lon="6.844852158283295"><ele>1962.0</ele><time>2026-05-02T08:17:57.999Z</time></trkpt><trkpt lat="45.069199388161266" lon="6.8447880730057875"><ele>1962.0</ele><time>2026-05-02T08:17:58.999Z</time></trkpt><trkpt lat="45.06913025288167" lon="6.844725361697986"><ele>1962.0</ele><time>2026-05-02T08:17:59.999Z</time></trkpt><trkpt lat="45.06905590420478" lon="6.844693293305962"><ele>1962.0</ele><time>2026-05-02T08:18:00.999Z</time></trkpt><trkpt lat="45.06898946120124" lon="6.8447000093749475"><ele>1962.0</ele><time>2026-05-02T08:18:01.999Z</time></trkpt><trkpt lat="45.06888338892099" lon="6.844669531039287"><ele>1962.0</ele><time>2026-05-02T08:18:03.999Z</time></trkpt><trkpt lat="45.0688146198515" lon="6.844591016983066"><ele>1965.6666666666667</ele><time>2026-05-02T08:18:05.999Z</time></trkpt><trkpt lat="45.06877068287565" lon="6.844507878767376"><ele>1969.3333333333335</ele><time>2026-05-02T08:18:06.999Z</time></trkpt><trkpt lat="45.06872438159585" lon="6.844429244907764"><ele>1973.0</ele><time>2026-05-02T08:18:07.999Z</time></trkpt><trkpt lat="45.06867791140407" lon="6.844350869854798"><ele>1976.6666666666667</ele><time>2026-05-02T08:18:08.999Z</time></trkpt><trkpt lat="45.06862308524228" lon="6.844259758191364"><ele>1980.3333333333335</ele><time>2026-05-02T08:18:09.999Z</time></trkpt><trkpt lat="45.06856594526738" lon="6.8441716578395875"><ele>1984.0</ele><time>2026-05-02T08:18:10.999Z</time></trkpt><trkpt lat="45.06851468531492" lon="6.844103727070327"><ele>1984.0000000000002</ele><time>2026-05-02T08:18:11.999Z</time></trkpt><trkpt lat="45.06845645513206" lon="6.844039636957299"><ele>1984.0</ele><time>2026-05-02T08:18:12.999Z</time></trkpt><trkpt lat="45.06840669433255" lon="6.843983013677845"><ele>1984.0</ele><time>2026-05-02T08:18:13.999Z</time></trkpt><trkpt lat="45.06835850171592" lon="6.843925517015842"><ele>1984.0</ele><time>2026-05-02T08:18:14.999Z</time></trkpt><trkpt lat="45.06830060675713" lon="6.843862369953129"><ele>1984.0000000000002</ele><time>2026-05-02T08:18:15.999Z</time></trkpt><trkpt lat="45.06823556727527" lon="6.843811667281559"><ele>1984.0</ele><time>2026-05-02T08:18:16.999Z</time></trkpt><trkpt lat="45.068119502632314" lon="6.843788453153743"><ele>1982.6666666666667</ele><time>2026-05-02T08:18:18.999Z</time></trkpt><trkpt lat="45.06799540163704" lon="6.843841589504802"><ele>1981.3333333333335</ele><time>2026-05-02T08:18:20.999Z</time></trkpt><trkpt lat="45.06793019597447" lon="6.8438596159214775"><ele>1980.0</ele><time>2026-05-02T08:18:21.999Z</time></trkpt><trkpt lat="45.06785975161176" lon="6.843868488174205"><ele>1978.6666666666665</ele><time>2026-05-02T08:18:22.999Z</time></trkpt><trkpt lat="45.06779554928178" lon="6.843861038865215"><ele>1977.3333333333333</ele><time>2026-05-02T08:18:23.999Z</time></trkpt><trkpt lat="45.067733129619114" lon="6.843845826451687"><ele>1976.0</ele><time>2026-05-02T08:18:24.999Z</time></trkpt><trkpt lat="45.06760864291073" lon="6.843807252669172"><ele>1976.0</ele><time>2026-05-02T08:18:26.999Z</time></trkpt><trkpt lat="45.06754220491523" lon="6.843784119356094"><ele>1976.0</ele><time>2026-05-02T08:18:27.999Z</time></trkpt><trkpt lat="45.06743872635793" lon="6.843746920610021"><ele>1976.0</ele><time>2026-05-02T08:18:29.999Z</time></trkpt><trkpt lat="45.067313663843734" lon="6.843721830276134"><ele>1976.0</ele><time>2026-05-02T08:18:31.999Z</time></trkpt><trkpt lat="45.06725592832999" lon="6.843675378693341"><ele>1976.0</ele><time>2026-05-02T08:18:32.999Z</time></trkpt><trkpt lat="45.06714953659359" lon="6.843618092831064"><ele>1982.1666666666665</ele><time>2026-05-02T08:18:34.999Z</time></trkpt><trkpt lat="45.06708521459559" lon="6.843644866410618"><ele>1988.3333333333333</ele><time>2026-05-02T08:18:37Z</time></trkpt><trkpt lat="45.06704081488176" lon="6.843720434551557"><ele>1994.5</ele><time>2026-05-02T08:18:40Z</time></trkpt><trkpt lat="45.0669868387742" lon="6.843805092125758"><ele>2000.6666666666665</ele><time>2026-05-02T08:18:43Z</time></trkpt><trkpt lat="45.066946699929794" lon="6.8438822631774"><ele>2006.8333333333333</ele><time>2026-05-02T08:18:45Z</time></trkpt><trkpt lat="45.066887586707914" lon="6.843983270234488"><ele>2013.0</ele><time>2026-05-02T08:18:47Z</time></trkpt><trkpt lat="45.06682208594521" lon="6.8440920114675325"><ele>2013.0</ele><time>2026-05-02T08:18:49Z</time></trkpt><trkpt lat="45.06677272210449" lon="6.844169332361804"><ele>2013.0</ele><time>2026-05-02T08:18:51Z</time></trkpt><trkpt lat="45.06673231967689" lon="6.844256634090451"><ele>2013.0</ele><time>2026-05-02T08:18:53Z</time></trkpt><trkpt lat="45.066689220271755" lon="6.844394149793333"><ele>2013.0</ele><time>2026-05-02T08:18:55Z</time></trkpt><trkpt lat="45.06665420300406" lon="6.844536022527074"><ele>2013.0</ele><time>2026-05-02T08:18:57Z</time></trkpt><trkpt lat="45.066578335979024" lon="6.844540458340688"><ele>2013.0</ele><time>2026-05-02T08:19:00Z</time></trkpt><trkpt lat="45.066550462584104" lon="6.844448951178743"><ele>2013.0</ele><time>2026-05-02T08:19:03Z</time></trkpt><trkpt lat="45.06661020731972" lon="6.84432940280783"><ele>2013.0000000000002</ele><time>2026-05-02T08:19:05Z</time></trkpt><trkpt lat="45.0666459371793" lon="6.844255112337699"><ele>2013.0000000000002</ele><time>2026-05-02T08:19:06Z</time></trkpt><trkpt lat="45.066727203832386" lon="6.84414579649259"><ele>2013.0</ele><time>2026-05-02T08:19:08Z</time></trkpt><trkpt lat="45.06677462214785" lon="6.844021351066699"><ele>2013.0</ele><time>2026-05-02T08:19:10Z</time></trkpt><trkpt lat="45.06683902399263" lon="6.843903492872711"><ele>2013.0</ele><time>2026-05-02T08:19:12Z</time></trkpt><trkpt lat="45.06683239995646" lon="6.843746554632721"><ele>2013.0000000000002</ele><time>2026-05-02T08:19:14Z</time></trkpt><trkpt lat="45.06680043218783" lon="6.843645940615177"><ele>2013.0000000000002</ele><time>2026-05-02T08:19:16Z</time></trkpt><trkpt lat="45.06680243401873" lon="6.843506360172053"><ele>2013.0</ele><time>2026-05-02T08:19:18Z</time></trkpt><trkpt lat="45.066798565766604" lon="6.843411458814736"><ele>2013.0</ele><time>2026-05-02T08:19:19Z</time></trkpt><trkpt lat="45.066810343662794" lon="6.843235946277879"><ele>2017.0</ele><time>2026-05-02T08:19:21Z</time></trkpt><trkpt lat="45.06682128163539" lon="6.8431472243941105"><ele>2021.0000000000002</ele><time>2026-05-02T08:19:22Z</time></trkpt><trkpt lat="45.066873569653815" lon="6.8430170336164045"><ele>2025.0000000000002</ele><time>2026-05-02T08:19:24Z</time></trkpt><trkpt lat="45.06693075501914" lon="6.842899003208935"><ele>2029.0</ele><time>2026-05-02T08:19:26Z</time></trkpt><trkpt lat="45.066983455862434" lon="6.842812055949904"><ele>2033.0</ele><time>2026-05-02T08:19:29Z</time></trkpt><trkpt lat="45.06701750202492" lon="6.842602791077091"><ele>2033.0</ele><time>2026-05-02T08:19:38Z</time></trkpt><trkpt lat="45.06688158984664" lon="6.842614680036672"><ele>2033.0000000000002</ele><time>2026-05-02T08:19:40Z</time></trkpt><trkpt lat="45.06682902065705" lon="6.8426962110459275"><ele>2033.0000000000002</ele><time>2026-05-02T08:19:41Z</time></trkpt><trkpt lat="45.066779684714966" lon="6.842768609354362"><ele>2033.0</ele><time>2026-05-02T08:19:42Z</time></trkpt><trkpt lat="45.06670926383601" lon="6.842881302036096"><ele>2033.0</ele><time>2026-05-02T08:19:44Z</time></trkpt><trkpt lat="45.06663775653722" lon="6.843017273851041"><ele>2035.8000000000002</ele><time>2026-05-02T08:19:46Z</time></trkpt><trkpt lat="45.06659464643191" lon="6.843128132634311"><ele>2038.6000000000001</ele><time>2026-05-02T08:19:48Z</time></trkpt><trkpt lat="45.06655306239385" lon="6.843255428103682"><ele>2041.3999999999999</ele><time>2026-05-02T08:20:34.999Z</time></trkpt><trkpt lat="45.06651491498767" lon="6.843416207154556"><ele>2044.1999999999998</ele><time>2026-05-02T08:20:36.999Z</time></trkpt><trkpt lat="45.066497448542655" lon="6.84351774683056"><ele>2047.0</ele><time>2026-05-02T08:20:37.999Z</time></trkpt><trkpt lat="45.066485023100284" lon="6.843620590102834"><ele>2047.0</ele><time>2026-05-02T08:20:38.999Z</time></trkpt><trkpt lat="45.06648345621476" lon="6.843752443389877"><ele>2046.9999999999998</ele><time>2026-05-02T08:20:39.999Z</time></trkpt><trkpt lat="45.06647763791758" lon="6.843846120325749"><ele>2046.9999999999998</ele><time>2026-05-02T08:20:40.999Z</time></trkpt><trkpt lat="45.06645399668838" lon="6.843998948719249"><ele>2047.0</ele><time>2026-05-02T08:20:43Z</time></trkpt><trkpt lat="45.066402747863805" lon="6.844073291452174"><ele>2047.0</ele><time>2026-05-02T08:20:45Z</time></trkpt><trkpt lat="45.06627656648371" lon="6.8441363296940265"><ele>2047.0</ele><time>2026-05-02T08:20:47Z</time></trkpt><trkpt lat="45.066209466095934" lon="6.844143590749199"><ele>2046.9999999999998</ele><time>2026-05-02T08:20:48Z</time></trkpt><trkpt lat="45.06608594437289" lon="6.844146416295349"><ele>2046.9999999999998</ele><time>2026-05-02T08:20:50Z</time></trkpt><trkpt lat="45.06602724671177" lon="6.844097385767387"><ele>2047.0</ele><time>2026-05-02T08:20:52Z</time></trkpt><trkpt lat="45.06606435535051" lon="6.844001230739054"><ele>2047.0</ele><time>2026-05-02T08:20:55Z</time></trkpt><trkpt lat="45.06621158274907" lon="6.844075509474635"><ele>2047.0000000000002</ele><time>2026-05-02T08:20:58Z</time></trkpt><trkpt lat="45.06628476096311" lon="6.844051183702758"><ele>2047.0</ele><time>2026-05-02T08:21:00Z</time></trkpt><trkpt lat="45.06634138828859" lon="6.8439291598890994"><ele>2047.0</ele><time>2026-05-02T08:21:01Z</time></trkpt><trkpt lat="45.06636183036537" lon="6.843816958900901"><ele>2047.0</ele><time>2026-05-02T08:21:02Z</time></trkpt><trkpt lat="45.066333936379806" lon="6.84370453476827"><ele>2047.0000000000002</ele><time>2026-05-02T08:21:03Z</time></trkpt><trkpt lat="45.066317550029254" lon="6.843564247959544"><ele>2047.0</ele><time>2026-05-02T08:21:04Z</time></trkpt><trkpt lat="45.066314500608165" lon="6.8434535249034685"><ele>2053.7999999999997</ele><time>2026-05-02T08:21:05Z</time></trkpt><trkpt lat="45.066320351398744" lon="6.8433048725400205"><ele>2060.6</ele><time>2026-05-02T08:21:07Z</time></trkpt><trkpt lat="45.06632511720587" lon="6.843148104387482"><ele>2067.3999999999996</ele><time>2026-05-02T08:21:09Z</time></trkpt><trkpt lat="45.06634217049758" lon="6.842975054329956"><ele>2074.2</ele><time>2026-05-02T08:21:11Z</time></trkpt><trkpt lat="45.06636069690294" lon="6.842858790832696"><ele>2081.0</ele><time>2026-05-02T08:21:12Z</time></trkpt><trkpt lat="45.06638957719687" lon="6.8427782841775"><ele>2081.0</ele><time>2026-05-02T08:21:13Z</time></trkpt><trkpt lat="45.06641002046645" lon="6.842652220374022"><ele>2081.0</ele><time>2026-05-02T08:21:14Z</time></trkpt><trkpt lat="45.06644835875636" lon="6.84250337414327"><ele>2081.0</ele><time>2026-05-02T08:21:16Z</time></trkpt><trkpt lat="45.06647449372344" lon="6.842417036156676"><ele>2081.0</ele><time>2026-05-02T08:21:17Z</time></trkpt><trkpt lat="45.066508656324224" lon="6.842315681227497"><ele>2081.0</ele><time>2026-05-02T08:21:18Z</time></trkpt><trkpt lat="45.0665867350621" lon="6.84211801915644"><ele>2079.1666666666665</ele><time>2026-05-02T08:21:20Z</time></trkpt><trkpt lat="45.06662901615769" lon="6.842031479988042"><ele>2077.333333333333</ele><time>2026-05-02T08:21:21Z</time></trkpt><trkpt lat="45.0667152291122" lon="6.84188310764666"><ele>2075.5</ele><time>2026-05-02T08:21:23Z</time></trkpt><trkpt lat="45.06673794436699" lon="6.841781156640513"><ele>2073.6666666666665</ele><time>2026-05-02T08:21:24Z</time></trkpt><trkpt lat="45.06678827209263" lon="6.841702318125603"><ele>2071.8333333333335</ele><time>2026-05-02T08:21:25Z</time></trkpt><trkpt lat="45.06683104571265" lon="6.841605736785026"><ele>2070.0</ele><time>2026-05-02T08:21:26Z</time></trkpt><trkpt lat="45.06684510035588" lon="6.84148625430387"><ele>2070.0</ele><time>2026-05-02T08:21:27Z</time></trkpt><trkpt lat="45.066862011168205" lon="6.841394537172468"><ele>2070.0</ele><time>2026-05-02T08:21:28Z</time></trkpt><trkpt lat="45.06688341562268" lon="6.841292368566548"><ele>2070.0</ele><time>2026-05-02T08:21:29Z</time></trkpt><trkpt lat="45.066919947083804" lon="6.84110716859052"><ele>2070.0</ele><time>2026-05-02T08:21:31Z</time></trkpt><trkpt lat="45.06693860408406" lon="6.84101538038909"><ele>2070.0</ele><time>2026-05-02T08:21:32Z</time></trkpt><trkpt lat="45.06696742509431" lon="6.840914450855554"><ele>2070.0</ele><time>2026-05-02T08:21:34Z</time></trkpt><trkpt lat="45.0669941602489" lon="6.840828879523914"><ele>2073.0</ele><time>2026-05-02T08:21:37Z</time></trkpt><trkpt lat="45.067028125442874" lon="6.840685976330709"><ele>2076.0</ele><time>2026-05-02T08:21:39Z</time></trkpt><trkpt lat="45.06707195308076" lon="6.840577079296296"><ele>2079.0</ele><time>2026-05-02T08:21:40Z</time></trkpt><trkpt lat="45.06710645795401" lon="6.840462115426039"><ele>2082.0</ele><time>2026-05-02T08:21:41Z</time></trkpt><trkpt lat="45.06714251984125" lon="6.840371908145492"><ele>2085.0</ele><time>2026-05-02T08:21:42Z</time></trkpt><trkpt lat="45.06717407401284" lon="6.840272591888904"><ele>2088.0</ele><time>2026-05-02T08:21:43Z</time></trkpt><trkpt lat="45.06720481106428" lon="6.84017641760655"><ele>2089.8333333333335</ele><time>2026-05-02T08:21:44Z</time></trkpt><trkpt lat="45.067246225493655" lon="6.840009747444697"><ele>2091.6666666666665</ele><time>2026-05-02T08:21:46Z</time></trkpt><trkpt lat="45.06727418154724" lon="6.839918685298317"><ele>2093.5</ele><time>2026-05-02T08:21:48Z</time></trkpt><trkpt lat="45.06731150240298" lon="6.839832228568015"><ele>2095.333333333333</ele><time>2026-05-02T08:21:51Z</time></trkpt><trkpt lat="45.067326339103104" lon="6.839743140194139"><ele>2097.1666666666665</ele><time>2026-05-02T08:21:54Z</time></trkpt><trkpt lat="45.06735452227878" lon="6.839644702732529"><ele>2099.0</ele><time>2026-05-02T08:21:56Z</time></trkpt><trkpt lat="45.06739093602487" lon="6.839545947800469"><ele>2099.0</ele><time>2026-05-02T08:21:58Z</time></trkpt><trkpt lat="45.0674344897192" lon="6.839425767658625"><ele>2099.0</ele><time>2026-05-02T08:21:59.999Z</time></trkpt><trkpt lat="45.06751332195938" lon="6.839301275763666"><ele>2099.0</ele><time>2026-05-02T08:22:01.999Z</time></trkpt><trkpt lat="45.06755581301563" lon="6.839229934623744"><ele>2099.0</ele><time>2026-05-02T08:22:02.999Z</time></trkpt><trkpt lat="45.06759862944655" lon="6.839163483993147"><ele>2099.0</ele><time>2026-05-02T08:22:03.999Z</time></trkpt><trkpt lat="45.06769376086141" lon="6.8390346199928995"><ele>2096.333333333333</ele><time>2026-05-02T08:22:05.999Z</time></trkpt><trkpt lat="45.067759325752185" lon="6.838994288297075"><ele>2093.6666666666665</ele><time>2026-05-02T08:22:06.999Z</time></trkpt><trkpt lat="45.0678232276614" lon="6.838964153068404"><ele>2091.0</ele><time>2026-05-02T08:22:07.999Z</time></trkpt><trkpt lat="45.06793917128444" lon="6.838934013131987"><ele>2088.3333333333335</ele><time>2026-05-02T08:22:10.999Z</time></trkpt><trkpt lat="45.06799385710024" lon="6.838789725411406"><ele>2085.666666666667</ele><time>2026-05-02T08:22:23.999Z</time></trkpt><trkpt lat="45.06798635161652" lon="6.838880749510136"><ele>2083.0</ele><time>2026-05-02T08:23:27Z</time></trkpt><trkpt lat="45.06792571722783" lon="6.838854974580342"><ele>2083.0</ele><time>2026-05-02T08:23:37Z</time></trkpt><trkpt lat="45.06786490970951" lon="6.838813019419587"><ele>2083.0</ele><time>2026-05-02T08:23:44Z</time></trkpt><trkpt lat="45.06787343942336" lon="6.838913406366248"><ele>2083.0</ele><time>2026-05-02T08:24:51.999Z</time></trkpt><trkpt lat="45.06794737027621" lon="6.838952978944434"><ele>2083.0</ele><time>2026-05-02T08:25:02Z</time></trkpt><trkpt lat="45.0679761474072" lon="6.839040766687695"><ele>2083.0</ele><time>2026-05-02T08:25:11Z</time></trkpt><trkpt lat="45.06793573445597" lon="6.839110542257899"><ele>2083.0</ele><time>2026-05-02T08:25:19Z</time></trkpt><trkpt lat="45.0679254729046" lon="6.839200926143271"><ele>2083.0</ele><time>2026-05-02T08:25:27Z</time></trkpt><trkpt lat="45.06803318708009" lon="6.839257402558733"><ele>2083.0</ele><time>2026-05-02T08:28:39.999Z</time></trkpt><trkpt lat="45.068006805542474" lon="6.839167883494354"><ele>2083.0</ele><time>2026-05-02T08:28:48.999Z</time></trkpt><trkpt lat="45.06800406847968" lon="6.839078118981646"><ele>2083.0</ele><time>2026-05-02T08:28:57.999Z</time></trkpt><trkpt lat="45.06797518697824" lon="6.838987854133203"><ele>2083.0</ele><time>2026-05-02T08:29:10Z</time></trkpt><trkpt lat="45.06796043926325" lon="6.83890099762647"><ele>2083.0</ele><time>2026-05-02T08:29:17Z</time></trkpt><trkpt lat="45.067982266525846" lon="6.838788397474292"><ele>2083.0</ele><time>2026-05-02T08:29:44Z</time></trkpt><trkpt lat="45.0680726998998" lon="6.838685140025337"><ele>2083.0</ele><time>2026-05-02T08:31:40Z</time></trkpt><trkpt lat="45.06816388031357" lon="6.838622889950972"><ele>2083.0</ele><time>2026-05-02T08:31:42Z</time></trkpt><trkpt lat="45.068238974187096" lon="6.838549776799422"><ele>2083.0</ele><time>2026-05-02T08:31:44Z</time></trkpt><trkpt lat="45.06830777756986" lon="6.83846615403682"><ele>2083.0</ele><time>2026-05-02T08:31:46Z</time></trkpt><trkpt lat="45.06839142681768" lon="6.838392523119115"><ele>2083.0</ele><time>2026-05-02T08:31:48Z</time></trkpt><trkpt lat="45.06849493481262" lon="6.838320422405499"><ele>2081.8333333333335</ele><time>2026-05-02T08:31:50Z</time></trkpt><trkpt lat="45.068557453724054" lon="6.838266490876747"><ele>2080.666666666667</ele><time>2026-05-02T08:31:51Z</time></trkpt><trkpt lat="45.06863336970649" lon="6.8382025810990905"><ele>2079.5</ele><time>2026-05-02T08:31:52Z</time></trkpt><trkpt lat="45.06871212567884" lon="6.838142301659968"><ele>2078.3333333333335</ele><time>2026-05-02T08:31:53Z</time></trkpt><trkpt lat="45.06878833252458" lon="6.8380802698291525"><ele>2077.1666666666665</ele><time>2026-05-02T08:31:54Z</time></trkpt><trkpt lat="45.068876018127085" lon="6.838045653809774"><ele>2076.0</ele><time>2026-05-02T08:31:55Z</time></trkpt><trkpt lat="45.06896878079362" lon="6.838034564528594"><ele>2076.0</ele><time>2026-05-02T08:31:56Z</time></trkpt><trkpt lat="45.06906399420935" lon="6.838024803887588"><ele>2076.0</ele><time>2026-05-02T08:31:57Z</time></trkpt><trkpt lat="45.069156964677624" lon="6.8379682762605025"><ele>2076.0</ele><time>2026-05-02T08:31:58Z</time></trkpt><trkpt lat="45.06923506839958" lon="6.8378870601426165"><ele>2076.0</ele><time>2026-05-02T08:31:59Z</time></trkpt><trkpt lat="45.06930663157552" lon="6.837795279830011"><ele>2076.0</ele><time>2026-05-02T08:32:00Z</time></trkpt><trkpt lat="45.06935909964643" lon="6.837728955135926"><ele>2077.3333333333335</ele><time>2026-05-02T08:32:01Z</time></trkpt><trkpt lat="45.069432860334246" lon="6.837625286879262"><ele>2078.6666666666665</ele><time>2026-05-02T08:32:03Z</time></trkpt><trkpt lat="45.06948737882769" lon="6.837573145569428"><ele>2080.0</ele><time>2026-05-02T08:32:04Z</time></trkpt><trkpt lat="45.06955700217344" lon="6.837541806318002"><ele>2081.333333333333</ele><time>2026-05-02T08:32:05Z</time></trkpt><trkpt lat="45.06962868476172" lon="6.837529369150694"><ele>2082.6666666666665</ele><time>2026-05-02T08:32:06Z</time></trkpt><trkpt lat="45.06974104624366" lon="6.837495008120382"><ele>2084.0</ele><time>2026-05-02T08:32:08Z</time></trkpt><trkpt lat="45.069778024772965" lon="6.837329189818951"><ele>2084.0</ele><time>2026-05-02T08:32:10Z</time></trkpt><trkpt lat="45.0697887205282" lon="6.837212414246354"><ele>2084.0</ele><time>2026-05-02T08:32:11Z</time></trkpt><trkpt lat="45.06981450245176" lon="6.837115062758276"><ele>2084.0</ele><time>2026-05-02T08:32:12Z</time></trkpt><trkpt lat="45.06985054737113" lon="6.837015158949944"><ele>2084.0</ele><time>2026-05-02T08:32:13Z</time></trkpt><trkpt lat="45.06989404330573" lon="6.836916239971761"><ele>2084.0</ele><time>2026-05-02T08:32:14Z</time></trkpt><trkpt lat="45.06995622989293" lon="6.836814404951955"><ele>2084.0</ele><time>2026-05-02T08:32:15Z</time></trkpt><trkpt lat="45.07000666651791" lon="6.836695636905691"><ele>2086.6666666666665</ele><time>2026-05-02T08:32:16Z</time></trkpt><trkpt lat="45.070069930490845" lon="6.836607165758797"><ele>2089.333333333333</ele><time>2026-05-02T08:32:17Z</time></trkpt><trkpt lat="45.07013446026" lon="6.8365169146513605"><ele>2092.0</ele><time>2026-05-02T08:32:18Z</time></trkpt><trkpt lat="45.07019990851277" lon="6.836430067348175"><ele>2094.6666666666665</ele><time>2026-05-02T08:32:19Z</time></trkpt><trkpt lat="45.070259188228896" lon="6.836346164506479"><ele>2097.3333333333335</ele><time>2026-05-02T08:32:19.999Z</time></trkpt><trkpt lat="45.070321590706925" lon="6.8362733490683185"><ele>2100.0</ele><time>2026-05-02T08:32:20.999Z</time></trkpt><trkpt lat="45.07037074013833" lon="6.836211073392621"><ele>2100.0</ele><time>2026-05-02T08:32:21.999Z</time></trkpt><trkpt lat="45.07044831044693" lon="6.836115659283186"><ele>2100.0</ele><time>2026-05-02T08:32:23.999Z</time></trkpt><trkpt lat="45.07052185311217" lon="6.836027740368673"><ele>2100.0</ele><time>2026-05-02T08:32:25.999Z</time></trkpt><trkpt lat="45.070596945337286" lon="6.835964597894804"><ele>2100.0</ele><time>2026-05-02T08:32:27.999Z</time></trkpt><trkpt lat="45.07066387042786" lon="6.835891532038614"><ele>2100.0</ele><time>2026-05-02T08:32:29.999Z</time></trkpt><trkpt lat="45.07072223965507" lon="6.835797753084089"><ele>2103.8333333333335</ele><time>2026-05-02T08:32:31.999Z</time></trkpt><trkpt lat="45.07075344096374" lon="6.835715827687216"><ele>2107.6666666666665</ele><time>2026-05-02T08:32:33.999Z</time></trkpt><trkpt lat="45.07078406013709" lon="6.835616769774574"><ele>2111.5</ele><time>2026-05-02T08:32:35.999Z</time></trkpt><trkpt lat="45.07085002256501" lon="6.835530145479107"><ele>2115.333333333333</ele><time>2026-05-02T08:32:37.999Z</time></trkpt><trkpt lat="45.07088584886979" lon="6.835442542867873"><ele>2119.1666666666665</ele><time>2026-05-02T08:32:39.999Z</time></trkpt><trkpt lat="45.070959231670116" lon="6.8353306929667355"><ele>2123.0</ele><time>2026-05-02T08:32:41.999Z</time></trkpt><trkpt lat="45.07101700307651" lon="6.835224821004784"><ele>2118.2000000000003</ele><time>2026-05-02T08:32:43.999Z</time></trkpt><trkpt lat="45.07106034884982" lon="6.835124747451394"><ele>2113.4</ele><time>2026-05-02T08:32:45.999Z</time></trkpt><trkpt lat="45.07112639821122" lon="6.835023112175089"><ele>2108.6000000000004</ele><time>2026-05-02T08:32:47.999Z</time></trkpt><trkpt lat="45.07119137022957" lon="6.834885230372334"><ele>2103.8</ele><time>2026-05-02T08:32:49.999Z</time></trkpt><trkpt lat="45.071220345095895" lon="6.834721147812665"><ele>2099.0</ele><time>2026-05-02T08:32:51.999Z</time></trkpt><trkpt lat="45.07124707249312" lon="6.834550151739418"><ele>2099.0</ele><time>2026-05-02T08:32:53.999Z</time></trkpt><trkpt lat="45.07126597635746" lon="6.834459592358812"><ele>2099.0</ele><time>2026-05-02T08:32:54.999Z</time></trkpt><trkpt lat="45.071298119473376" lon="6.83437502667837"><ele>2099.0</ele><time>2026-05-02T08:32:55.999Z</time></trkpt><trkpt lat="45.071357318038146" lon="6.834223311331958"><ele>2099.0</ele><time>2026-05-02T08:32:57.999Z</time></trkpt><trkpt lat="45.07143417432943" lon="6.8340877779445295"><ele>2099.0</ele><time>2026-05-02T08:32:59.999Z</time></trkpt><trkpt lat="45.07148643400742" lon="6.834033922790167"><ele>2099.0</ele><time>2026-05-02T08:33:00.999Z</time></trkpt><trkpt lat="45.071543351954986" lon="6.833992375615837"><ele>2103.1666666666665</ele><time>2026-05-02T08:33:01.999Z</time></trkpt><trkpt lat="45.071606088470574" lon="6.833950655774049"><ele>2107.333333333333</ele><time>2026-05-02T08:33:02.999Z</time></trkpt><trkpt lat="45.07166838669014" lon="6.833906131384323"><ele>2111.5</ele><time>2026-05-02T08:33:03.999Z</time></trkpt><trkpt lat="45.0717273173716" lon="6.83385730646616"><ele>2115.6666666666665</ele><time>2026-05-02T08:33:04.999Z</time></trkpt><trkpt lat="45.071787526033326" lon="6.8338135967280085"><ele>2119.8333333333335</ele><time>2026-05-02T08:33:05.999Z</time></trkpt><trkpt lat="45.0718984847544" lon="6.833742303741822"><ele>2124.0</ele><time>2026-05-02T08:33:07.999Z</time></trkpt><trkpt lat="45.071947865635806" lon="6.833674364053669"><ele>2124.0</ele><time>2026-05-02T08:33:08.999Z</time></trkpt><trkpt lat="45.071994214583825" lon="6.833601145129613"><ele>2124.0</ele><time>2026-05-02T08:33:09.999Z</time></trkpt><trkpt lat="45.07203546279979" lon="6.833526730410353"><ele>2124.0</ele><time>2026-05-02T08:33:10.999Z</time></trkpt><trkpt lat="45.07206997795339" lon="6.833440278580148"><ele>2124.0</ele><time>2026-05-02T08:33:11.999Z</time></trkpt><trkpt lat="45.072099560049665" lon="6.833354698118301"><ele>2124.0</ele><time>2026-05-02T08:33:12.999Z</time></trkpt><trkpt lat="45.072149103057406" lon="6.833183655468061"><ele>2124.0</ele><time>2026-05-02T08:33:14.999Z</time></trkpt><trkpt lat="45.07217827516891" lon="6.8330880178843705"><ele>2125.0</ele><time>2026-05-02T08:33:15.999Z</time></trkpt><trkpt lat="45.072206374290495" lon="6.832997361505769"><ele>2126.0</ele><time>2026-05-02T08:33:16.999Z</time></trkpt><trkpt lat="45.07223756993926" lon="6.83290615059229"><ele>2127.0</ele><time>2026-05-02T08:33:17.999Z</time></trkpt><trkpt lat="45.072276176414995" lon="6.832816526091299"><ele>2128.0</ele><time>2026-05-02T08:33:19Z</time></trkpt><trkpt lat="45.07231820676464" lon="6.832737658262113"><ele>2129.0</ele><time>2026-05-02T08:33:20Z</time></trkpt><trkpt lat="45.07236966177735" lon="6.832658021169319"><ele>2130.0</ele><time>2026-05-02T08:33:21Z</time></trkpt><trkpt lat="45.072416988417025" lon="6.832585111375261"><ele>2131.0</ele><time>2026-05-02T08:33:22Z</time></trkpt><trkpt lat="45.07245709028696" lon="6.832503497032115"><ele>2131.0</ele><time>2026-05-02T08:33:23Z</time></trkpt><trkpt lat="45.072487680626686" lon="6.832415439019406"><ele>2131.0</ele><time>2026-05-02T08:33:24Z</time></trkpt><trkpt lat="45.07252160661203" lon="6.83232907106623"><ele>2131.0</ele><time>2026-05-02T08:33:25Z</time></trkpt><trkpt lat="45.07258403731473" lon="6.832185021975254"><ele>2131.0</ele><time>2026-05-02T08:33:27Z</time></trkpt><trkpt lat="45.072569514185126" lon="6.832021706943076"><ele>2131.0</ele><time>2026-05-02T08:33:29Z</time></trkpt><trkpt lat="45.07256414725095" lon="6.831854229955704"><ele>2129.5</ele><time>2026-05-02T08:33:31Z</time></trkpt><trkpt lat="45.07259021245582" lon="6.831760622190349"><ele>2128.0</ele><time>2026-05-02T08:33:32Z</time></trkpt><trkpt lat="45.07262440442259" lon="6.831669856430527"><ele>2126.5</ele><time>2026-05-02T08:33:33Z</time></trkpt><trkpt lat="45.07265774440362" lon="6.831582160894616"><ele>2125.0</ele><time>2026-05-02T08:33:34Z</time></trkpt><trkpt lat="45.07269018813669" lon="6.831505334576619"><ele>2123.5</ele><time>2026-05-02T08:33:35Z</time></trkpt><trkpt lat="45.072739309075736" lon="6.831329096707591"><ele>2122.0</ele><time>2026-05-02T08:33:37Z</time></trkpt><trkpt lat="45.07274987106593" lon="6.831205908221628"><ele>2122.0</ele><time>2026-05-02T08:33:38Z</time></trkpt><trkpt lat="45.07276165253951" lon="6.8310914125068525"><ele>2122.0</ele><time>2026-05-02T08:33:39Z</time></trkpt><trkpt lat="45.07278596817881" lon="6.830994490613798"><ele>2122.0</ele><time>2026-05-02T08:33:40Z</time></trkpt><trkpt lat="45.07286292491549" lon="6.8308557447435465"><ele>2122.0</ele><time>2026-05-02T08:33:42Z</time></trkpt><trkpt lat="45.07291424749361" lon="6.830796429190209"><ele>2122.0</ele><time>2026-05-02T08:33:43Z</time></trkpt><trkpt lat="45.07296688127102" lon="6.830722145029317"><ele>2122.0</ele><time>2026-05-02T08:33:44Z</time></trkpt><trkpt lat="45.07301415819602" lon="6.830635458211364"><ele>2120.8333333333335</ele><time>2026-05-02T08:33:45Z</time></trkpt><trkpt lat="45.07305376065762" lon="6.830546040194854"><ele>2119.666666666667</ele><time>2026-05-02T08:33:46Z</time></trkpt><trkpt lat="45.073079605849976" lon="6.830446698914468"><ele>2118.5</ele><time>2026-05-02T08:33:47Z</time></trkpt><trkpt lat="45.07309474344895" lon="6.830356682183225"><ele>2117.3333333333335</ele><time>2026-05-02T08:33:48Z</time></trkpt><trkpt lat="45.07310237244227" lon="6.83023992106056"><ele>2116.1666666666665</ele><time>2026-05-02T08:33:50Z</time></trkpt><trkpt lat="45.07309513096517" lon="6.830141384880312"><ele>2115.0</ele><time>2026-05-02T08:33:52Z</time></trkpt><trkpt lat="45.07310284920552" lon="6.830000407865398"><ele>2113.0</ele><time>2026-05-02T08:33:54Z</time></trkpt><trkpt lat="45.073161137480554" lon="6.829849892720595"><ele>2111.0</ele><time>2026-05-02T08:33:56Z</time></trkpt><trkpt lat="45.07320787813129" lon="6.829778157396574"><ele>2109.0</ele><time>2026-05-02T08:33:57Z</time></trkpt><trkpt lat="45.07325042493885" lon="6.829699275790967"><ele>2107.0</ele><time>2026-05-02T08:33:58Z</time></trkpt><trkpt lat="45.0732654788481" lon="6.829601748609359"><ele>2105.0</ele><time>2026-05-02T08:33:59Z</time></trkpt><trkpt lat="45.0732740435634" lon="6.829498221907529"><ele>2103.0</ele><time>2026-05-02T08:34:00Z</time></trkpt><trkpt lat="45.073290986404885" lon="6.829404291441736"><ele>2108.8</ele><time>2026-05-02T08:34:01Z</time></trkpt><trkpt lat="45.073320596021304" lon="6.829325029471382"><ele>2114.6000000000004</ele><time>2026-05-02T08:34:02Z</time></trkpt><trkpt lat="45.07339441439658" lon="6.82923256283206"><ele>2120.3999999999996</ele><time>2026-05-02T08:34:04Z</time></trkpt><trkpt lat="45.07351909315656" lon="6.8291804044030675"><ele>2126.2</ele><time>2026-05-02T08:34:06Z</time></trkpt><trkpt lat="45.07364771949424" lon="6.829139734818591"><ele>2132.0</ele><time>2026-05-02T08:34:08Z</time></trkpt><trkpt lat="45.07372759861149" lon="6.829122136932738"><ele>2132.0</ele><time>2026-05-02T08:34:09Z</time></trkpt><trkpt lat="45.073798925670054" lon="6.829123300966895"><ele>2132.0</ele><time>2026-05-02T08:34:10Z</time></trkpt><trkpt lat="45.07386851655741" lon="6.829136019631167"><ele>2132.0</ele><time>2026-05-02T08:34:11Z</time></trkpt><trkpt lat="45.0739332632999" lon="6.829171018927939"><ele>2132.0</ele><time>2026-05-02T08:34:12Z</time></trkpt><trkpt lat="45.07404643664674" lon="6.829176881297851"><ele>2132.0</ele><time>2026-05-02T08:34:14Z</time></trkpt><trkpt lat="45.07409181882672" lon="6.8291145370974755"><ele>2132.0</ele><time>2026-05-02T08:34:15Z</time></trkpt><trkpt lat="45.074150423747135" lon="6.829008437164328"><ele>2132.6666666666665</ele><time>2026-05-02T08:34:16Z</time></trkpt><trkpt lat="45.07423112183404" lon="6.828886300759201"><ele>2133.333333333333</ele><time>2026-05-02T08:34:17Z</time></trkpt><trkpt lat="45.07430292725528" lon="6.828797270956563"><ele>2134.0</ele><time>2026-05-02T08:34:18Z</time></trkpt><trkpt lat="45.0743644448582" lon="6.828752265788997"><ele>2134.6666666666665</ele><time>2026-05-02T08:34:19Z</time></trkpt><trkpt lat="45.07442826414393" lon="6.828662059727665"><ele>2135.3333333333335</ele><time>2026-05-02T08:34:21Z</time></trkpt><trkpt lat="45.074460914460055" lon="6.8285681319044835"><ele>2136.0</ele><time>2026-05-02T08:34:22Z</time></trkpt><trkpt lat="45.07447589447996" lon="6.828466050365273"><ele>2136.0</ele><time>2026-05-02T08:34:23Z</time></trkpt><trkpt lat="45.07447695109457" lon="6.828370715900097"><ele>2136.0</ele><time>2026-05-02T08:34:24Z</time></trkpt><trkpt lat="45.07446709783527" lon="6.828278831543083"><ele>2136.0</ele><time>2026-05-02T08:34:25Z</time></trkpt><trkpt lat="45.07446689006844" lon="6.82813684177343"><ele>2136.0</ele><time>2026-05-02T08:34:26.999Z</time></trkpt><trkpt lat="45.07453797745002" lon="6.828049870103922"><ele>2136.0</ele><time>2026-05-02T08:34:28.999Z</time></trkpt><trkpt lat="45.074647391839044" lon="6.82797721712282"><ele>2136.0</ele><time>2026-05-02T08:34:30.999Z</time></trkpt><trkpt lat="45.07471030531981" lon="6.827947140357499"><ele>2136.0</ele><time>2026-05-02T08:34:31.999Z</time></trkpt><trkpt lat="45.07477127948771" lon="6.827922577901393"><ele>2136.0</ele><time>2026-05-02T08:34:32.999Z</time></trkpt><trkpt lat="45.0748653752293" lon="6.827894843057934"><ele>2136.0</ele><time>2026-05-02T08:34:34.999Z</time></trkpt><trkpt lat="45.074954979555834" lon="6.827805355162599"><ele>2136.0</ele><time>2026-05-02T08:34:36.999Z</time></trkpt><trkpt lat="45.07501887986138" lon="6.827656319129408"><ele>2136.0</ele><time>2026-05-02T08:34:38.999Z</time></trkpt><trkpt lat="45.075057837919175" lon="6.827567177567962"><ele>2138.6666666666665</ele><time>2026-05-02T08:34:39.999Z</time></trkpt><trkpt lat="45.075089353824715" lon="6.827475667752766"><ele>2141.3333333333335</ele><time>2026-05-02T08:34:40.999Z</time></trkpt><trkpt lat="45.075118463214174" lon="6.82738665254513"><ele>2144.0</ele><time>2026-05-02T08:34:41.999Z</time></trkpt><trkpt lat="45.075150673153175" lon="6.8273031743654675"><ele>2146.666666666667</ele><time>2026-05-02T08:34:42.999Z</time></trkpt><trkpt lat="45.0752255588104" lon="6.827173672343917"><ele>2149.3333333333335</ele><time>2026-05-02T08:34:44.999Z</time></trkpt><trkpt lat="45.0752607812725" lon="6.8270982339884565"><ele>2152.0</ele><time>2026-05-02T08:34:45.999Z</time></trkpt><trkpt lat="45.075292725776634" lon="6.827008244082637"><ele>2152.0</ele><time>2026-05-02T08:34:46.999Z</time></trkpt><trkpt lat="45.0753285456094" lon="6.826922463440104"><ele>2152.0</ele><time>2026-05-02T08:34:47.999Z</time></trkpt><trkpt lat="45.07537568809747" lon="6.826845743194683"><ele>2152.0</ele><time>2026-05-02T08:34:48.999Z</time></trkpt><trkpt lat="45.07542420197354" lon="6.826775371043863"><ele>2152.0</ele><time>2026-05-02T08:34:49.999Z</time></trkpt><trkpt lat="45.07553012602848" lon="6.826674391897095"><ele>2152.0</ele><time>2026-05-02T08:34:51.999Z</time></trkpt><trkpt lat="45.07558787307161" lon="6.826625673747993"><ele>2152.0</ele><time>2026-05-02T08:34:52.999Z</time></trkpt><trkpt lat="45.07564490093589" lon="6.826583791784473"><ele>2154.0</ele><time>2026-05-02T08:34:53.999Z</time></trkpt><trkpt lat="45.07574894167695" lon="6.8265022552656305"><ele>2156.0</ele><time>2026-05-02T08:34:55.999Z</time></trkpt><trkpt lat="45.07584438418616" lon="6.826415991252369"><ele>2158.0</ele><time>2026-05-02T08:34:57.999Z</time></trkpt><trkpt lat="45.07594269560103" lon="6.8263273698842974"><ele>2160.0</ele><time>2026-05-02T08:34:59.999Z</time></trkpt><trkpt lat="45.07600938108965" lon="6.826228714807929"><ele>2162.0</ele><time>2026-05-02T08:35:01.999Z</time></trkpt><trkpt lat="45.076060436562344" lon="6.826113296270215"><ele>2162.0</ele><time>2026-05-02T08:35:03.999Z</time></trkpt><trkpt lat="45.07610978014764" lon="6.82604945678802"><ele>2162.0</ele><time>2026-05-02T08:35:05.999Z</time></trkpt><trkpt lat="45.07619091787597" lon="6.826038190540002"><ele>2162.0</ele><time>2026-05-02T08:36:31Z</time></trkpt><trkpt lat="45.07628778443662" lon="6.82604971883072"><ele>2162.0</ele><time>2026-05-02T08:36:32.999Z</time></trkpt><trkpt lat="45.0763875015246" lon="6.826031499820406"><ele>2162.0</ele><time>2026-05-02T08:36:35.014Z</time></trkpt><trkpt lat="45.076474068694104" lon="6.8260123534556305"><ele>2162.0</ele><time>2026-05-02T08:36:37.015Z</time></trkpt><trkpt lat="45.076546154531805" lon="6.826003619522464"><ele>2187.0</ele><time>2026-05-02T08:36:38.019Z</time></trkpt><trkpt lat="45.07661136991183" lon="6.8259975743206835"><ele>2212.0</ele><time>2026-05-02T08:36:39.018Z</time></trkpt><trkpt lat="45.077100734361565" lon="6.825926436439818"><ele>2178.0</ele><time>2026-05-02T08:36:50.044Z</time></trkpt><trkpt lat="45.077373683494585" lon="6.821563029668128"><ele>2178.0</ele><time>2026-05-02T08:39:52.997Z</time></trkpt><trkpt lat="45.07724901704731" lon="6.821762903406179"><ele>2178.0</ele><time>2026-05-02T08:39:54.997Z</time></trkpt><trkpt lat="45.07720252480506" lon="6.821637474256748"><ele>2178.0</ele><time>2026-05-02T08:39:56.997Z</time></trkpt><trkpt lat="45.07721721289563" lon="6.821521925741816"><ele>2178.0</ele><time>2026-05-02T08:40:23Z</time></trkpt><trkpt lat="45.07722649919882" lon="6.821408364368232"><ele>2178.0</ele><time>2026-05-02T08:40:25Z</time></trkpt><trkpt lat="45.07726610202951" lon="6.821270208086757"><ele>2178.0</ele><time>2026-05-02T08:40:27Z</time></trkpt><trkpt lat="45.07727150703142" lon="6.821105441108397"><ele>2178.0</ele><time>2026-05-02T08:40:29Z</time></trkpt><trkpt lat="45.0772541073692" lon="6.82095123093079"><ele>2178.0</ele><time>2026-05-02T08:40:31Z</time></trkpt><trkpt lat="45.077258116969766" lon="6.820779116302096"><ele>2183.0</ele><time>2026-05-02T08:40:33Z</time></trkpt><trkpt lat="45.07723437628054" lon="6.820631695302945"><ele>2188.0</ele><time>2026-05-02T08:40:35Z</time></trkpt><trkpt lat="45.077213042820745" lon="6.820521794820961"><ele>2193.0</ele><time>2026-05-02T08:40:37Z</time></trkpt><trkpt lat="45.07718106752031" lon="6.820425748139536"><ele>2198.0</ele><time>2026-05-02T08:40:40Z</time></trkpt><trkpt lat="45.077112086113516" lon="6.820413507795834"><ele>2203.0</ele><time>2026-05-02T08:40:53Z</time></trkpt><trkpt lat="45.07704854291595" lon="6.820434075986986"><ele>2208.0</ele><time>2026-05-02T08:41:09.999Z</time></trkpt><trkpt lat="45.07698840301439" lon="6.820475045937932"><ele>2208.0</ele><time>2026-05-02T08:41:45.999Z</time></trkpt><trkpt lat="45.07691353314108" lon="6.820544301115325"><ele>2208.0</ele><time>2026-05-02T08:42:13Z</time></trkpt><trkpt lat="45.07687059270261" lon="6.82061101464731"><ele>2208.0</ele><time>2026-05-02T08:43:19.999Z</time></trkpt><trkpt lat="45.076824400575234" lon="6.820682401836231"><ele>2208.0</ele><time>2026-05-02T08:43:24.999Z</time></trkpt><trkpt lat="45.076775864801874" lon="6.820754382706326"><ele>2208.0</ele><time>2026-05-02T08:43:33.999Z</time></trkpt><trkpt lat="45.07671722939449" lon="6.820815160065238"><ele>2208.0</ele><time>2026-05-02T08:43:38.999Z</time></trkpt><trkpt lat="45.07664320066544" lon="6.820837634011072"><ele>2208.0</ele><time>2026-05-02T08:43:46.999Z</time></trkpt><trkpt lat="45.07656871816588" lon="6.820834877040031"><ele>2206.5714285714284</ele><time>2026-05-02T08:43:52.999Z</time></trkpt><trkpt lat="45.07649738382305" lon="6.820813484329144"><ele>2205.1428571428573</ele><time>2026-05-02T08:43:57.999Z</time></trkpt><trkpt lat="45.07643291889395" lon="6.820782628669098"><ele>2203.714285714286</ele><time>2026-05-02T08:44:03.999Z</time></trkpt><trkpt lat="45.076369584701034" lon="6.820758842717026"><ele>2202.285714285714</ele><time>2026-05-02T08:44:09.999Z</time></trkpt><trkpt lat="45.07636616080974" lon="6.82065642676384"><ele>2200.857142857143</ele><time>2026-05-02T08:44:19Z</time></trkpt><trkpt lat="45.07637817683562" lon="6.82055692872508"><ele>2199.4285714285716</ele><time>2026-05-02T08:44:24Z</time></trkpt><trkpt lat="45.07637742109723" lon="6.820459448081019"><ele>2198.0</ele><time>2026-05-02T08:44:33Z</time></trkpt><trkpt lat="45.076397811156426" lon="6.820373814789311"><ele>2198.0</ele><time>2026-05-02T08:44:40Z</time></trkpt><trkpt lat="45.07644368768831" lon="6.82029730761573"><ele>2198.0</ele><time>2026-05-02T08:45:04Z</time></trkpt><trkpt lat="45.07647190506594" lon="6.820215931789039"><ele>2198.0</ele><time>2026-05-02T08:45:26.999Z</time></trkpt><trkpt lat="45.07654205691878" lon="6.820198073948868"><ele>2198.0</ele><time>2026-05-02T08:45:47.999Z</time></trkpt><trkpt lat="45.076599338851004" lon="6.820263033203083"><ele>2198.0</ele><time>2026-05-02T08:45:53.999Z</time></trkpt><trkpt lat="45.07663791618386" lon="6.820346946297494"><ele>2198.0</ele><time>2026-05-02T08:46:00.999Z</time></trkpt><trkpt lat="45.076670036936704" lon="6.8204249762007105"><ele>2198.0</ele><time>2026-05-02T08:46:07.999Z</time></trkpt><trkpt lat="45.076605146819794" lon="6.8204401147479246"><ele>2198.0</ele><time>2026-05-02T08:46:44Z</time></trkpt><trkpt lat="45.07654058735208" lon="6.820391699021841"><ele>2198.0</ele><time>2026-05-02T08:46:57Z</time></trkpt><trkpt lat="45.07647341604124" lon="6.820371796367118"><ele>2198.0</ele><time>2026-05-02T08:49:21.999Z</time></trkpt><trkpt lat="45.076416652695876" lon="6.820323993609134"><ele>2198.0</ele><time>2026-05-02T08:49:27.999Z</time></trkpt><trkpt lat="45.07637599995042" lon="6.820236152141215"><ele>2198.0</ele><time>2026-05-02T08:49:36.999Z</time></trkpt><trkpt lat="45.07633246153224" lon="6.820154501584753"><ele>2198.0</ele><time>2026-05-02T08:49:42.999Z</time></trkpt><trkpt lat="45.07632600149659" lon="6.819931125398964"><ele>2198.0</ele><time>2026-05-02T08:50:31Z</time></trkpt><trkpt lat="45.07630916284126" lon="6.8198413402734195"><ele>2198.0</ele><time>2026-05-02T08:50:49Z</time></trkpt><trkpt lat="45.07626524265849" lon="6.81975275690021"><ele>2198.0</ele><time>2026-05-02T08:51:02Z</time></trkpt><trkpt lat="45.0762351642884" lon="6.819671722882592"><ele>2198.0</ele><time>2026-05-02T08:51:10Z</time></trkpt><trkpt lat="45.07619919700801" lon="6.8195969723710945"><ele>2198.0</ele><time>2026-05-02T08:51:46.999Z</time></trkpt><trkpt lat="45.07622763394319" lon="6.819512979535888"><ele>2198.0</ele><time>2026-05-02T08:51:54.999Z</time></trkpt><trkpt lat="45.07620209247997" lon="6.819597485568656"><ele>2198.0</ele><time>2026-05-02T08:52:06.999Z</time></trkpt><trkpt lat="45.07614828410685" lon="6.819654692685359"><ele>2198.0</ele><time>2026-05-02T08:52:15.999Z</time></trkpt><trkpt lat="45.076120270109605" lon="6.8197375215282"><ele>2198.0</ele><time>2026-05-02T08:52:35.999Z</time></trkpt><trkpt lat="45.07615335409173" lon="6.819660347472839"><ele>2198.0</ele><time>2026-05-02T08:53:00Z</time></trkpt><trkpt lat="45.07612788770904" lon="6.819750538926147"><ele>2198.0</ele><time>2026-05-02T08:53:19Z</time></trkpt><trkpt lat="45.076116081356446" lon="6.819849896273122"><ele>2198.0</ele><time>2026-05-02T08:53:26Z</time></trkpt><trkpt lat="45.0760995215089" lon="6.819946438339176"><ele>2198.0</ele><time>2026-05-02T08:53:53.999Z</time></trkpt><trkpt lat="45.07607945188032" lon="6.819861372365765"><ele>2198.0</ele><time>2026-05-02T08:54:09.999Z</time></trkpt><trkpt lat="45.076138736086904" lon="6.81980577566"><ele>2198.0</ele><time>2026-05-02T08:54:13.999Z</time></trkpt><trkpt lat="45.076174120564694" lon="6.8197274254623315"><ele>2198.0</ele><time>2026-05-02T08:54:22.999Z</time></trkpt><trkpt lat="45.076199719963356" lon="6.819637759062689"><ele>2198.0</ele><time>2026-05-02T08:54:29.999Z</time></trkpt><trkpt lat="45.07623812436231" lon="6.819555390137449"><ele>2198.0</ele><time>2026-05-02T08:54:44Z</time></trkpt><trkpt lat="45.076225168819256" lon="6.819654883686788"><ele>2198.0</ele><time>2026-05-02T08:55:17Z</time></trkpt><trkpt lat="45.07622735065569" lon="6.81974611295668"><ele>2198.0</ele><time>2026-05-02T08:55:24Z</time></trkpt><trkpt lat="45.07628967860759" lon="6.819760201025846"><ele>2198.0</ele><time>2026-05-02T08:55:33Z</time></trkpt><trkpt lat="45.076320322649124" lon="6.819845699455931"><ele>2198.0</ele><time>2026-05-02T08:55:39.999Z</time></trkpt><trkpt lat="45.07634275121305" lon="6.8199311111872385"><ele>2198.0</ele><time>2026-05-02T08:55:46.999Z</time></trkpt><trkpt lat="45.07635199591467" lon="6.820029880278284"><ele>2198.0</ele><time>2026-05-02T08:56:05.999Z</time></trkpt><trkpt lat="45.076319456229804" lon="6.820124847109295"><ele>2198.0</ele><time>2026-05-02T08:56:19.999Z</time></trkpt><trkpt lat="45.07636002514814" lon="6.820198167247199"><ele>2198.0</ele><time>2026-05-02T08:56:24.999Z</time></trkpt><trkpt lat="45.07639291444432" lon="6.820290849306924"><ele>2198.0</ele><time>2026-05-02T08:58:48.999Z</time></trkpt><trkpt lat="45.07640486980465" lon="6.8203899414380516"><ele>2198.0</ele><time>2026-05-02T08:58:55Z</time></trkpt><trkpt lat="45.07642821240113" lon="6.8204829182877535"><ele>2198.0</ele><time>2026-05-02T08:59:01Z</time></trkpt><trkpt lat="45.07644096322349" lon="6.820571939342061"><ele>2198.0</ele><time>2026-05-02T08:59:06Z</time></trkpt><trkpt lat="45.07644418219231" lon="6.820665052902653"><ele>2198.0</ele><time>2026-05-02T08:59:12Z</time></trkpt><trkpt lat="45.07644956259601" lon="6.8207561426412155"><ele>2198.0</ele><time>2026-05-02T08:59:18Z</time></trkpt><trkpt lat="45.07651575569046" lon="6.820787975040866"><ele>2198.0</ele><time>2026-05-02T08:59:25Z</time></trkpt><trkpt lat="45.076582888202445" lon="6.820803809775315"><ele>2198.0</ele><time>2026-05-02T08:59:31Z</time></trkpt><trkpt lat="45.07664673044311" lon="6.820785346871768"><ele>2198.0</ele><time>2026-05-02T08:59:36Z</time></trkpt><trkpt lat="45.076707642956194" lon="6.82073562313021"><ele>2199.4285714285716</ele><time>2026-05-02T08:59:42Z</time></trkpt><trkpt lat="45.07675140290667" lon="6.8206668212029795"><ele>2200.857142857143</ele><time>2026-05-02T08:59:46.999Z</time></trkpt><trkpt lat="45.076805738752824" lon="6.820617159829516"><ele>2202.285714285714</ele><time>2026-05-02T08:59:51.999Z</time></trkpt><trkpt lat="45.07685935891783" lon="6.82056214288072"><ele>2203.714285714286</ele><time>2026-05-02T08:59:56.999Z</time></trkpt><trkpt lat="45.0769160077062" lon="6.8205079004205995"><ele>2205.1428571428573</ele><time>2026-05-02T09:00:02.999Z</time></trkpt><trkpt lat="45.076957190648606" lon="6.820427795676333"><ele>2206.5714285714284</ele><time>2026-05-02T09:00:07.999Z</time></trkpt><trkpt lat="45.07701007324815" lon="6.82035477810298"><ele>2208.0</ele><time>2026-05-02T09:00:13.999Z</time></trkpt><trkpt lat="45.07707607735547" lon="6.820387589540688"><ele>2208.0</ele><time>2026-05-02T09:00:17.999Z</time></trkpt><trkpt lat="45.077040804219585" lon="6.820463604537853"><ele>2208.0</ele><time>2026-05-02T09:01:41Z</time></trkpt><trkpt lat="45.076979706163556" lon="6.82050610296804"><ele>2208.0</ele><time>2026-05-02T09:01:51.999Z</time></trkpt><trkpt lat="45.076910176518375" lon="6.820629437504419"><ele>2208.0</ele><time>2026-05-02T09:02:22.999Z</time></trkpt><trkpt lat="45.07679486305052" lon="6.82072621445876"><ele>2208.0</ele><time>2026-05-02T09:02:24.999Z</time></trkpt><trkpt lat="45.07671903511476" lon="6.820797207226713"><ele>2208.0</ele><time>2026-05-02T09:02:26.999Z</time></trkpt><trkpt lat="45.07662482774366" lon="6.820854155979921"><ele>2208.0</ele><time>2026-05-02T09:02:28.999Z</time></trkpt><trkpt lat="45.076531937984576" lon="6.820859295639639"><ele>2208.0</ele><time>2026-05-02T09:02:30.999Z</time></trkpt><trkpt lat="45.07644517412844" lon="6.8208436912642965"><ele>2208.0</ele><time>2026-05-02T09:02:32.999Z</time></trkpt><trkpt lat="45.07639605412219" lon="6.82074852928002"><ele>2208.0</ele><time>2026-05-02T09:02:35.999Z</time></trkpt><trkpt lat="45.07640044552595" lon="6.820616203616876"><ele>2206.3333333333335</ele><time>2026-05-02T09:02:37.999Z</time></trkpt><trkpt lat="45.076414732396415" lon="6.820470281370975"><ele>2204.6666666666665</ele><time>2026-05-02T09:02:39.999Z</time></trkpt><trkpt lat="45.07640884548561" lon="6.820371044165809"><ele>2203.0</ele><time>2026-05-02T09:02:41.999Z</time></trkpt><trkpt lat="45.07639254986707" lon="6.820280804197524"><ele>2201.333333333333</ele><time>2026-05-02T09:02:43.999Z</time></trkpt><trkpt lat="45.076367993104896" lon="6.820185602097679"><ele>2199.6666666666665</ele><time>2026-05-02T09:02:47.999Z</time></trkpt><trkpt lat="45.076328769033836" lon="6.820085168829092"><ele>2198.0</ele><time>2026-05-02T09:04:16.999Z</time></trkpt><trkpt lat="45.07633126208385" lon="6.819985335055415"><ele>2198.0</ele><time>2026-05-02T09:18:33Z</time></trkpt><trkpt lat="45.07635361917424" lon="6.820071897649559"><ele>2198.0</ele><time>2026-05-02T09:19:32.999Z</time></trkpt><trkpt lat="45.07637177968057" lon="6.820165964233336"><ele>2198.0</ele><time>2026-05-02T09:19:40.999Z</time></trkpt><trkpt lat="45.07632691485701" lon="6.820081866435528"><ele>2198.0</ele><time>2026-05-02T09:20:38Z</time></trkpt><trkpt lat="45.076334456617445" lon="6.819977411490398"><ele>2198.0</ele><time>2026-05-02T09:21:45.999Z</time></trkpt><trkpt lat="45.07634325741193" lon="6.819872549101984"><ele>2198.0</ele><time>2026-05-02T09:21:55.999Z</time></trkpt><trkpt lat="45.076367044225655" lon="6.8197396175477385"><ele>2198.0</ele><time>2026-05-02T09:22:03Z</time></trkpt><trkpt lat="45.07641227617674" lon="6.819823381727211"><ele>2198.0</ele><time>2026-05-02T09:22:36Z</time></trkpt><trkpt lat="45.07635467287726" lon="6.819895302595149"><ele>2198.0</ele><time>2026-05-02T09:22:45Z</time></trkpt><trkpt lat="45.07635370514236" lon="6.820005302713993"><ele>2198.0</ele><time>2026-05-02T09:22:50.999Z</time></trkpt><trkpt lat="45.07633313051092" lon="6.820092291983523"><ele>2198.0</ele><time>2026-05-02T09:23:04.999Z</time></trkpt><trkpt lat="45.076366461627444" lon="6.8201701229236384"><ele>2198.0</ele><time>2026-05-02T09:23:09.999Z</time></trkpt><trkpt lat="45.07632048777278" lon="6.820103156457653"><ele>2198.0</ele><time>2026-05-02T09:23:45.999Z</time></trkpt><trkpt lat="45.07634563396609" lon="6.819997216253369"><ele>2198.0</ele><time>2026-05-02T09:24:02.998Z</time></trkpt><trkpt lat="45.07636866211723" lon="6.819907218157687"><ele>2198.0</ele><time>2026-05-02T09:24:12Z</time></trkpt><trkpt lat="45.07636629796821" lon="6.819808117624748"><ele>2198.0</ele><time>2026-05-02T09:24:23Z</time></trkpt><trkpt lat="45.07637722903948" lon="6.819718008134397"><ele>2198.0</ele><time>2026-05-02T09:24:29Z</time></trkpt><trkpt lat="45.0764270343322" lon="6.819631174364615"><ele>2198.0</ele><time>2026-05-02T09:25:55.999Z</time></trkpt><trkpt lat="45.07650662741744" lon="6.819554138493704"><ele>2198.0</ele><time>2026-05-02T09:25:57.999Z</time></trkpt><trkpt lat="45.07657090803321" lon="6.819518844063614"><ele>2198.0</ele><time>2026-05-02T09:25:58.999Z</time></trkpt><trkpt lat="45.07663445539513" lon="6.819464473057879"><ele>2199.0</ele><time>2026-05-02T09:25:59.999Z</time></trkpt><trkpt lat="45.07667674372598" lon="6.819361769475397"><ele>2200.0</ele><time>2026-05-02T09:26:00.999Z</time></trkpt><trkpt lat="45.07667386159227" lon="6.819237008871532"><ele>2201.0</ele><time>2026-05-02T09:26:01.999Z</time></trkpt><trkpt lat="45.076663449362805" lon="6.8190934985028"><ele>2202.0</ele><time>2026-05-02T09:26:02.999Z</time></trkpt><trkpt lat="45.076650164912714" lon="6.818991845093233"><ele>2203.0</ele><time>2026-05-02T09:26:03.999Z</time></trkpt><trkpt lat="45.0766316443267" lon="6.818900647286931"><ele>2204.0</ele><time>2026-05-02T09:26:04.999Z</time></trkpt><trkpt lat="45.07660250055434" lon="6.818816470209225"><ele>2204.0</ele><time>2026-05-02T09:26:05.999Z</time></trkpt><trkpt lat="45.07655570591513" lon="6.818741660859911"><ele>2204.0</ele><time>2026-05-02T09:26:06.999Z</time></trkpt><trkpt lat="45.07650496869961" lon="6.8186692727831435"><ele>2204.0</ele><time>2026-05-02T09:26:07.998Z</time></trkpt><trkpt lat="45.07644827238319" lon="6.818593379246896"><ele>2204.0</ele><time>2026-05-02T09:26:08.998Z</time></trkpt><trkpt lat="45.076381131091296" lon="6.818522955706127"><ele>2204.0</ele><time>2026-05-02T09:26:09.998Z</time></trkpt><trkpt lat="45.07632352831099" lon="6.818469353919592"><ele>2204.0</ele><time>2026-05-02T09:26:10.998Z</time></trkpt><trkpt lat="45.07623664181404" lon="6.81840906358083"><ele>2208.1666666666665</ele><time>2026-05-02T09:26:13Z</time></trkpt><trkpt lat="45.07619088305367" lon="6.8183058647954375"><ele>2212.333333333333</ele><time>2026-05-02T09:26:16Z</time></trkpt><trkpt lat="45.0761592487864" lon="6.818226841942043"><ele>2216.5</ele><time>2026-05-02T09:26:19Z</time></trkpt><trkpt lat="45.0761423548714" lon="6.818130380692669"><ele>2220.6666666666665</ele><time>2026-05-02T09:26:24Z</time></trkpt><trkpt lat="45.076105968576805" lon="6.818017484780079"><ele>2224.8333333333335</ele><time>2026-05-02T09:26:26Z</time></trkpt><trkpt lat="45.07601706709052" lon="6.817974551198906"><ele>2229.0</ele><time>2026-05-02T09:26:29Z</time></trkpt><trkpt lat="45.07595253274333" lon="6.817973675455383"><ele>2229.0</ele><time>2026-05-02T09:26:31Z</time></trkpt><trkpt lat="45.07588630565632" lon="6.817989615943101"><ele>2229.0</ele><time>2026-05-02T09:26:33Z</time></trkpt><trkpt lat="45.07579167319542" lon="6.8180224791044415"><ele>2229.0</ele><time>2026-05-02T09:26:35Z</time></trkpt><trkpt lat="45.07569450281512" lon="6.8180701421549"><ele>2229.0</ele><time>2026-05-02T09:26:37Z</time></trkpt><trkpt lat="45.07562030714217" lon="6.8181116445388374"><ele>2229.0</ele><time>2026-05-02T09:26:39Z</time></trkpt><trkpt lat="45.07555282103208" lon="6.818142625327222"><ele>2229.0</ele><time>2026-05-02T09:26:41Z</time></trkpt><trkpt lat="45.07544632447022" lon="6.818139253248253"><ele>2226.5</ele><time>2026-05-02T09:26:43Z</time></trkpt><trkpt lat="45.075318945183824" lon="6.8181182009665156"><ele>2224.0</ele><time>2026-05-02T09:26:45Z</time></trkpt><trkpt lat="45.07522012018785" lon="6.818084211185791"><ele>2221.5</ele><time>2026-05-02T09:26:46Z</time></trkpt><trkpt lat="45.075103530022425" lon="6.818023997756853"><ele>2219.0</ele><time>2026-05-02T09:26:47Z</time></trkpt><trkpt lat="45.07499063904426" lon="6.817955026267846"><ele>2218.0</ele><time>2026-05-02T09:26:48Z</time></trkpt><trkpt lat="45.074895149848274" lon="6.8178923456416785"><ele>2217.0</ele><time>2026-05-02T09:26:49Z</time></trkpt><trkpt lat="45.07481159935315" lon="6.817850623973918"><ele>2216.0</ele><time>2026-05-02T09:26:50Z</time></trkpt><trkpt lat="45.07473690450273" lon="6.8178093360959275"><ele>2215.0</ele><time>2026-05-02T09:26:51Z</time></trkpt><trkpt lat="45.07465742261301" lon="6.8177811000544475"><ele>2214.0</ele><time>2026-05-02T09:26:52Z</time></trkpt><trkpt lat="45.07454210545715" lon="6.817762534121066"><ele>2214.0</ele><time>2026-05-02T09:26:53.999Z</time></trkpt><trkpt lat="45.074458879068125" lon="6.81774302418248"><ele>2214.0</ele><time>2026-05-02T09:26:55.999Z</time></trkpt><trkpt lat="45.074378130284344" lon="6.817716398325435"><ele>2214.0</ele><time>2026-05-02T09:26:57.999Z</time></trkpt><trkpt lat="45.07430352003498" lon="6.817724031171342"><ele>2214.0</ele><time>2026-05-02T09:26:59.999Z</time></trkpt><trkpt lat="45.07424250270532" lon="6.81776070531463"><ele>2214.0</ele><time>2026-05-02T09:27:02.999Z</time></trkpt><trkpt lat="45.07418526183042" lon="6.817822360329008"><ele>2214.0</ele><time>2026-05-02T09:27:17.999Z</time></trkpt><trkpt lat="45.074118294446585" lon="6.8178667620831295"><ele>2213.1666666666665</ele><time>2026-05-02T09:27:21.999Z</time></trkpt><trkpt lat="45.07405462809659" lon="6.8178720675753155"><ele>2212.3333333333335</ele><time>2026-05-02T09:27:29.999Z</time></trkpt><trkpt lat="45.07399027932021" lon="6.817879886170252"><ele>2211.5</ele><time>2026-05-02T09:27:32.999Z</time></trkpt><trkpt lat="45.07390524654282" lon="6.817894183850319"><ele>2210.666666666667</ele><time>2026-05-02T09:27:34.999Z</time></trkpt><trkpt lat="45.0738391984702" lon="6.817876505121396"><ele>2209.8333333333335</ele><time>2026-05-02T09:27:36.999Z</time></trkpt><trkpt lat="45.073741533855156" lon="6.817833730325572"><ele>2209.0</ele><time>2026-05-02T09:27:38.999Z</time></trkpt><trkpt lat="45.07365369520555" lon="6.817807282937449"><ele>2209.0</ele><time>2026-05-02T09:27:40.999Z</time></trkpt><trkpt lat="45.07357517215497" lon="6.81779944937946"><ele>2209.0</ele><time>2026-05-02T09:27:42.999Z</time></trkpt><trkpt lat="45.07351124670584" lon="6.81779709369627"><ele>2209.0</ele><time>2026-05-02T09:27:44.999Z</time></trkpt><trkpt lat="45.073445488493284" lon="6.81782048053518"><ele>2209.0</ele><time>2026-05-02T09:27:46.999Z</time></trkpt><trkpt lat="45.07337980473983" lon="6.81785287217485"><ele>2209.0</ele><time>2026-05-02T09:27:49.999Z</time></trkpt><trkpt lat="45.0733112772525" lon="6.817883153718047"><ele>2209.0</ele><time>2026-05-02T09:27:58.999Z</time></trkpt><trkpt lat="45.07324389699365" lon="6.817896415897148"><ele>2209.0</ele><time>2026-05-02T09:28:01.999Z</time></trkpt><trkpt lat="45.073155856539586" lon="6.817910084691785"><ele>2210.4285714285716</ele><time>2026-05-02T09:28:04.999Z</time></trkpt><trkpt lat="45.073071341418725" lon="6.817931387564806"><ele>2211.8571428571427</ele><time>2026-05-02T09:28:07.999Z</time></trkpt><trkpt lat="45.07299016833062" lon="6.817939788777614"><ele>2213.285714285714</ele><time>2026-05-02T09:28:10.998Z</time></trkpt><trkpt lat="45.07292423278431" lon="6.817940626688503"><ele>2214.714285714286</ele><time>2026-05-02T09:28:13.998Z</time></trkpt><trkpt lat="45.072858722623394" lon="6.817948356204603"><ele>2216.142857142857</ele><time>2026-05-02T09:28:21.999Z</time></trkpt><trkpt lat="45.072795795329974" lon="6.817955777897725"><ele>2217.5714285714284</ele><time>2026-05-02T09:28:24.999Z</time></trkpt><trkpt lat="45.07273120716924" lon="6.81795793182086"><ele>2219.0</ele><time>2026-05-02T10:08:06.999Z</time></trkpt><trkpt lat="45.072660101966754" lon="6.817997040583077"><ele>2219.0</ele><time>2026-05-02T10:08:11.999Z</time></trkpt><trkpt lat="45.072580364343935" lon="6.818022743782944"><ele>2219.0</ele><time>2026-05-02T10:08:18Z</time></trkpt><trkpt lat="45.072509074247485" lon="6.818061686394607"><ele>2219.0</ele><time>2026-05-02T10:08:21Z</time></trkpt><trkpt lat="45.07243128737889" lon="6.818114700351671"><ele>2219.0</ele><time>2026-05-02T10:09:13.999Z</time></trkpt><trkpt lat="45.07236619136886" lon="6.8181414264100875"><ele>2219.0</ele><time>2026-05-02T10:09:40.999Z</time></trkpt><trkpt lat="45.07230048579816" lon="6.818171311904566"><ele>2219.0</ele><time>2026-05-02T10:09:44.999Z</time></trkpt><trkpt lat="45.072237465038846" lon="6.8182015935378315"><ele>2219.0</ele><time>2026-05-02T10:09:47.999Z</time></trkpt><trkpt lat="45.07216645782718" lon="6.818224961667129"><ele>2221.1666666666665</ele><time>2026-05-02T10:09:54.999Z</time></trkpt><trkpt lat="45.072092258962286" lon="6.8182247940423055"><ele>2223.333333333333</ele><time>2026-05-02T10:09:56.999Z</time></trkpt><trkpt lat="45.07200657148529" lon="6.818238125535482"><ele>2225.5</ele><time>2026-05-02T10:09:59.999Z</time></trkpt><trkpt lat="45.071912142748644" lon="6.818255680490548"><ele>2227.6666666666665</ele><time>2026-05-02T10:10:02.999Z</time></trkpt><trkpt lat="45.07183610963686" lon="6.818334237332537"><ele>2229.8333333333335</ele><time>2026-05-02T10:10:05.999Z</time></trkpt><trkpt lat="45.071750219223524" lon="6.8183147959900445"><ele>2232.0</ele><time>2026-05-02T10:10:08.999Z</time></trkpt><trkpt lat="45.071679433201886" lon="6.818350514732997"><ele>2232.0</ele><time>2026-05-02T10:10:15.999Z</time></trkpt><trkpt lat="45.07161620585495" lon="6.818351239373767"><ele>2232.0</ele><time>2026-05-02T10:10:24Z</time></trkpt><trkpt lat="45.071535248856165" lon="6.818337095178735"><ele>2232.0</ele><time>2026-05-02T10:13:36.999Z</time></trkpt><trkpt lat="45.071451487257036" lon="6.81834726041057"><ele>2232.0</ele><time>2026-05-02T10:17:09Z</time></trkpt><trkpt lat="45.07138733254811" lon="6.818361795339486"><ele>2232.0</ele><time>2026-05-02T10:17:11Z</time></trkpt><trkpt lat="45.07130680156133" lon="6.818381027403295"><ele>2232.0</ele><time>2026-05-02T10:17:14Z</time></trkpt><trkpt lat="45.071219946859266" lon="6.818417726152419"><ele>2230.6</ele><time>2026-05-02T10:17:17Z</time></trkpt><trkpt lat="45.071140920655544" lon="6.818450675223523"><ele>2229.2</ele><time>2026-05-02T10:17:20Z</time></trkpt><trkpt lat="45.071081524082416" lon="6.818494008574633"><ele>2227.8</ele><time>2026-05-02T10:17:24Z</time></trkpt><trkpt lat="45.07096607531086" lon="6.8185075692483945"><ele>2226.4</ele><time>2026-05-02T10:17:28Z</time></trkpt><trkpt lat="45.07085223453001" lon="6.818479638311986"><ele>2225.0</ele><time>2026-05-02T10:17:30Z</time></trkpt><trkpt lat="45.07075400090749" lon="6.818466215183973"><ele>2221.0</ele><time>2026-05-02T10:17:31Z</time></trkpt><trkpt lat="45.070643170841855" lon="6.818440647669033"><ele>2217.0</ele><time>2026-05-02T10:17:33Z</time></trkpt><trkpt lat="45.07057519582" lon="6.818441148432242"><ele>2213.0</ele><time>2026-05-02T10:17:35Z</time></trkpt><trkpt lat="45.07055510922986" lon="6.818349745769528"><ele>2209.0</ele><time>2026-05-02T10:17:38.999Z</time></trkpt><trkpt lat="45.07062577342842" lon="6.818262142551728"><ele>2205.0</ele><time>2026-05-02T10:17:41.999Z</time></trkpt><trkpt lat="45.07068467906026" lon="6.81813419976524"><ele>2205.0</ele><time>2026-05-02T10:17:43.999Z</time></trkpt><trkpt lat="45.07072447466252" lon="6.8180638049880375"><ele>2205.0</ele><time>2026-05-02T10:17:44.999Z</time></trkpt><trkpt lat="45.070774084736314" lon="6.818003104751504"><ele>2205.0</ele><time>2026-05-02T10:17:45.999Z</time></trkpt><trkpt lat="45.07082631919143" lon="6.817941584559539"><ele>2205.0</ele><time>2026-05-02T10:17:46.999Z</time></trkpt><trkpt lat="45.0708713407793" lon="6.817874624480973"><ele>2205.0</ele><time>2026-05-02T10:17:47.999Z</time></trkpt><trkpt lat="45.07092412650807" lon="6.8178062998948485"><ele>2205.0</ele><time>2026-05-02T10:17:48.999Z</time></trkpt><trkpt lat="45.070977541617964" lon="6.817740517088134"><ele>2205.0</ele><time>2026-05-02T10:17:49.999Z</time></trkpt><trkpt lat="45.07103206003178" lon="6.817686142410905"><ele>2208.2</ele><time>2026-05-02T10:17:50.999Z</time></trkpt><trkpt lat="45.071128775297765" lon="6.817563630608935"><ele>2211.4</ele><time>2026-05-02T10:17:52.999Z</time></trkpt><trkpt lat="45.07120139431442" lon="6.817413864832275"><ele>2214.6</ele><time>2026-05-02T10:17:54.999Z</time></trkpt><trkpt lat="45.07123730917433" lon="6.817329285529558"><ele>2217.8</ele><time>2026-05-02T10:17:55.999Z</time></trkpt><trkpt lat="45.07127708225222" lon="6.817252545879831"><ele>2221.0</ele><time>2026-05-02T10:17:56.999Z</time></trkpt><trkpt lat="45.07131436815068" lon="6.81716625967141"><ele>2221.0</ele><time>2026-05-02T10:17:57.999Z</time></trkpt><trkpt lat="45.07136517096854" lon="6.816997863761324"><ele>2221.0</ele><time>2026-05-02T10:17:59.999Z</time></trkpt><trkpt lat="45.071391224385394" lon="6.8168958338530965"><ele>2221.0</ele><time>2026-05-02T10:18:00.999Z</time></trkpt><trkpt lat="45.0714230404685" lon="6.816791906212921"><ele>2221.0</ele><time>2026-05-02T10:18:01.999Z</time></trkpt><trkpt lat="45.07145680950654" lon="6.816690106784575"><ele>2221.0</ele><time>2026-05-02T10:18:02.999Z</time></trkpt><trkpt lat="45.071498910032425" lon="6.816593454424013"><ele>2221.0</ele><time>2026-05-02T10:18:03.999Z</time></trkpt><trkpt lat="45.07153354808684" lon="6.816510464779068"><ele>2219.0</ele><time>2026-05-02T10:18:04.999Z</time></trkpt><trkpt lat="45.071578895274556" lon="6.816430068124121"><ele>2217.0</ele><time>2026-05-02T10:18:05.999Z</time></trkpt><trkpt lat="45.07162142209161" lon="6.816350084319257"><ele>2215.0</ele><time>2026-05-02T10:18:06.999Z</time></trkpt><trkpt lat="45.071656178913116" lon="6.816268789678996"><ele>2213.0</ele><time>2026-05-02T10:18:07.999Z</time></trkpt><trkpt lat="45.07169199256619" lon="6.816189103976029"><ele>2211.0</ele><time>2026-05-02T10:18:08.999Z</time></trkpt><trkpt lat="45.071730859602894" lon="6.816104979304741"><ele>2209.0</ele><time>2026-05-02T10:18:09.999Z</time></trkpt><trkpt lat="45.07177481532323" lon="6.816014652352417"><ele>2207.0</ele><time>2026-05-02T10:18:10.999Z</time></trkpt><trkpt lat="45.07182039941449" lon="6.815937508078049"><ele>2212.833333333333</ele><time>2026-05-02T10:18:11.999Z</time></trkpt><trkpt lat="45.07186091217931" lon="6.815853410276497"><ele>2218.6666666666665</ele><time>2026-05-02T10:18:12.999Z</time></trkpt><trkpt lat="45.071907671922155" lon="6.815776854386169"><ele>2224.5</ele><time>2026-05-02T10:18:13.999Z</time></trkpt><trkpt lat="45.071981563337374" lon="6.815610088735767"><ele>2230.3333333333335</ele><time>2026-05-02T10:18:15.999Z</time></trkpt><trkpt lat="45.07201396583245" lon="6.815524829531466"><ele>2236.166666666667</ele><time>2026-05-02T10:18:16.999Z</time></trkpt><trkpt lat="45.072048174931204" lon="6.8154377483027435"><ele>2242.0</ele><time>2026-05-02T10:18:17.999Z</time></trkpt><trkpt lat="45.072085393060505" lon="6.815351693869426"><ele>2242.0</ele><time>2026-05-02T10:18:18.999Z</time></trkpt><trkpt lat="45.07212229054466" lon="6.815268557234591"><ele>2242.0</ele><time>2026-05-02T10:18:19.999Z</time></trkpt><trkpt lat="45.07215978985393" lon="6.815189408437156"><ele>2242.0</ele><time>2026-05-02T10:18:20.999Z</time></trkpt><trkpt lat="45.07219109126104" lon="6.815098981787987"><ele>2242.0</ele><time>2026-05-02T10:18:21.999Z</time></trkpt><trkpt lat="45.07222001392302" lon="6.815009770856494"><ele>2242.0</ele><time>2026-05-02T10:18:22.999Z</time></trkpt><trkpt lat="45.07225340002935" lon="6.814924942625651"><ele>2242.0</ele><time>2026-05-02T10:18:23.999Z</time></trkpt><trkpt lat="45.07229539537688" lon="6.814845933054482"><ele>2242.0</ele><time>2026-05-02T10:18:24.999Z</time></trkpt><trkpt lat="45.07233837329016" lon="6.814757736067071"><ele>2239.5</ele><time>2026-05-02T10:18:25.999Z</time></trkpt><trkpt lat="45.07237784670298" lon="6.814651386535808"><ele>2237.0</ele><time>2026-05-02T10:18:26.999Z</time></trkpt><trkpt lat="45.07239551286087" lon="6.814524345958529"><ele>2234.5</ele><time>2026-05-02T10:18:27.999Z</time></trkpt><trkpt lat="45.072424259789265" lon="6.81442906610172"><ele>2232.0</ele><time>2026-05-02T10:18:28.999Z</time></trkpt><trkpt lat="45.07245631707795" lon="6.8143371456376265"><ele>2229.5</ele><time>2026-05-02T10:18:29.999Z</time></trkpt><trkpt lat="45.07249859394325" lon="6.814241651995831"><ele>2227.0</ele><time>2026-05-02T10:18:30.999Z</time></trkpt><trkpt lat="45.07252607477226" lon="6.814130453942493"><ele>2233.3333333333335</ele><time>2026-05-02T10:18:31.999Z</time></trkpt><trkpt lat="45.07255121382837" lon="6.814021909613645"><ele>2239.666666666667</ele><time>2026-05-02T10:18:32.999Z</time></trkpt><trkpt lat="45.072588132714884" lon="6.813914693647078"><ele>2246.0</ele><time>2026-05-02T10:18:33.999Z</time></trkpt><trkpt lat="45.07262598041712" lon="6.813825552606453"><ele>2252.3333333333335</ele><time>2026-05-02T10:18:34.999Z</time></trkpt><trkpt lat="45.072646898182306" lon="6.8137332517653855"><ele>2258.6666666666665</ele><time>2026-05-02T10:18:35.999Z</time></trkpt><trkpt lat="45.072645260551134" lon="6.813621498975782"><ele>2265.0</ele><time>2026-05-02T10:18:36.999Z</time></trkpt><trkpt lat="45.07264720426586" lon="6.813525764001583"><ele>2265.0</ele><time>2026-05-02T10:18:37.999Z</time></trkpt><trkpt lat="45.072655060606664" lon="6.813433744480537"><ele>2265.0</ele><time>2026-05-02T10:18:38.999Z</time></trkpt><trkpt lat="45.072656059895294" lon="6.813335668701982"><ele>2265.0</ele><time>2026-05-02T10:18:39.999Z</time></trkpt><trkpt lat="45.07266744182338" lon="6.813234333540922"><ele>2265.0</ele><time>2026-05-02T10:18:40.999Z</time></trkpt><trkpt lat="45.07268320317299" lon="6.813144761125957"><ele>2265.0</ele><time>2026-05-02T10:18:41.999Z</time></trkpt><trkpt lat="45.07270383123655" lon="6.813050535280546"><ele>2265.0</ele><time>2026-05-02T10:18:43Z</time></trkpt><trkpt lat="45.07272985037954" lon="6.8129471051291715"><ele>2265.0</ele><time>2026-05-02T10:18:44Z</time></trkpt><trkpt lat="45.07275182412383" lon="6.812838809150744"><ele>2265.0</ele><time>2026-05-02T10:18:45Z</time></trkpt><trkpt lat="45.07277099954941" lon="6.812730251907519"><ele>2265.0</ele><time>2026-05-02T10:18:46Z</time></trkpt><trkpt lat="45.072794902328866" lon="6.812616339341759"><ele>2265.0</ele><time>2026-05-02T10:18:47Z</time></trkpt><trkpt lat="45.07282424194639" lon="6.812497208274705"><ele>2265.0</ele><time>2026-05-02T10:18:48Z</time></trkpt><trkpt lat="45.07285372248295" lon="6.812412024882796"><ele>2265.0</ele><time>2026-05-02T10:18:49Z</time></trkpt><trkpt lat="45.07289751439904" lon="6.812310617458939"><ele>2265.0</ele><time>2026-05-02T10:18:50Z</time></trkpt><trkpt lat="45.072929363917154" lon="6.812215589189922"><ele>2264.142857142857</ele><time>2026-05-02T10:18:51Z</time></trkpt><trkpt lat="45.07296821393916" lon="6.812119847590776"><ele>2263.285714285714</ele><time>2026-05-02T10:18:52Z</time></trkpt><trkpt lat="45.073014463805045" lon="6.812028075589502"><ele>2262.4285714285716</ele><time>2026-05-02T10:18:53Z</time></trkpt><trkpt lat="45.07305520818134" lon="6.811941153045578"><ele>2261.5714285714284</ele><time>2026-05-02T10:18:54Z</time></trkpt><trkpt lat="45.07310078439334" lon="6.81186228395454"><ele>2260.714285714286</ele><time>2026-05-02T10:18:55Z</time></trkpt><trkpt lat="45.07315188940855" lon="6.811800700411626"><ele>2259.8571428571427</ele><time>2026-05-02T10:18:56Z</time></trkpt><trkpt lat="45.073212872667796" lon="6.811741481910818"><ele>2259.0</ele><time>2026-05-02T10:18:57Z</time></trkpt><trkpt lat="45.07327611517985" lon="6.811670054463704"><ele>2263.714285714286</ele><time>2026-05-02T10:18:58Z</time></trkpt><trkpt lat="45.07333855292725" lon="6.811623166946674"><ele>2268.4285714285716</ele><time>2026-05-02T10:18:59Z</time></trkpt><trkpt lat="45.073392093785124" lon="6.8115529251371765"><ele>2273.1428571428573</ele><time>2026-05-02T10:19:00Z</time></trkpt><trkpt lat="45.073444337527135" lon="6.811490122624592"><ele>2277.857142857143</ele><time>2026-05-02T10:19:01Z</time></trkpt><trkpt lat="45.07350456695135" lon="6.811434400878302"><ele>2282.571428571429</ele><time>2026-05-02T10:19:02Z</time></trkpt><trkpt lat="45.07357146535765" lon="6.811379637974336"><ele>2287.285714285714</ele><time>2026-05-02T10:19:03Z</time></trkpt><trkpt lat="45.07363085713688" lon="6.811330677104039"><ele>2292.0</ele><time>2026-05-02T10:19:04Z</time></trkpt><trkpt lat="45.07369012942928" lon="6.8112853298038605"><ele>2292.0</ele><time>2026-05-02T10:19:05Z</time></trkpt><trkpt lat="45.0737897513493" lon="6.811185749789759"><ele>2292.0</ele><time>2026-05-02T10:19:07Z</time></trkpt><trkpt lat="45.07387481439636" lon="6.811096456836686"><ele>2292.0</ele><time>2026-05-02T10:19:09Z</time></trkpt><trkpt lat="45.073931138244184" lon="6.81094375954961"><ele>2292.0</ele><time>2026-05-02T10:19:11Z</time></trkpt><trkpt lat="45.07395699102553" lon="6.810852680039314"><ele>2292.0</ele><time>2026-05-02T10:19:12Z</time></trkpt><trkpt lat="45.074034603646425" lon="6.8107101947074264"><ele>2289.2</ele><time>2026-05-02T10:19:14Z</time></trkpt><trkpt lat="45.074018823148684" lon="6.810562998009033"><ele>2286.3999999999996</ele><time>2026-05-02T10:19:16Z</time></trkpt><trkpt lat="45.07396359822242" lon="6.810423910585512"><ele>2283.6000000000004</ele><time>2026-05-02T10:19:18Z</time></trkpt><trkpt lat="45.07402615629629" lon="6.810284637607062"><ele>2280.8</ele><time>2026-05-02T10:19:20Z</time></trkpt><trkpt lat="45.074068003126776" lon="6.810217521444149"><ele>2278.0</ele><time>2026-05-02T10:19:21Z</time></trkpt><trkpt lat="45.07414281027976" lon="6.810088407610112"><ele>2283.0</ele><time>2026-05-02T10:19:23Z</time></trkpt><trkpt lat="45.07420131955961" lon="6.810022392869679"><ele>2288.0</ele><time>2026-05-02T10:19:26Z</time></trkpt><trkpt lat="45.07423570473048" lon="6.810110624750645"><ele>2293.0</ele><time>2026-05-02T10:20:39.999Z</time></trkpt><trkpt lat="45.07420484536192" lon="6.810195809810014"><ele>2298.0</ele><time>2026-05-02T10:20:41.999Z</time></trkpt><trkpt lat="45.07417032242644" lon="6.810333019099304"><ele>2303.0</ele><time>2026-05-02T10:20:43.999Z</time></trkpt><trkpt lat="45.0742033738889" lon="6.810511737839872"><ele>2308.0</ele><time>2026-05-02T10:20:45.999Z</time></trkpt><trkpt lat="45.07423655089373" lon="6.81058855099349"><ele>2308.666666666667</ele><time>2026-05-02T10:20:46.999Z</time></trkpt><trkpt lat="45.0742159746662" lon="6.810772168337179"><ele>2309.3333333333335</ele><time>2026-05-02T10:20:49Z</time></trkpt><trkpt lat="45.07419196990741" lon="6.810863598421406"><ele>2310.0</ele><time>2026-05-02T10:20:50Z</time></trkpt><trkpt lat="45.07419847504789" lon="6.810955754816062"><ele>2310.6666666666665</ele><time>2026-05-02T10:20:51Z</time></trkpt><trkpt lat="45.07421369112146" lon="6.811061745635919"><ele>2311.333333333333</ele><time>2026-05-02T10:20:52Z</time></trkpt><trkpt lat="45.07419497813802" lon="6.811153143733903"><ele>2312.0</ele><time>2026-05-02T10:20:53Z</time></trkpt><trkpt lat="45.07415935535749" lon="6.811245921990219"><ele>2308.6666666666665</ele><time>2026-05-02T10:20:54Z</time></trkpt><trkpt lat="45.074128544372215" lon="6.811337051774777"><ele>2305.333333333333</ele><time>2026-05-02T10:20:55Z</time></trkpt><trkpt lat="45.07407269508639" lon="6.811415172884156"><ele>2302.0</ele><time>2026-05-02T10:20:56Z</time></trkpt><trkpt lat="45.074019466172814" lon="6.811484214942881"><ele>2298.6666666666665</ele><time>2026-05-02T10:20:57Z</time></trkpt><trkpt lat="45.073974813726366" lon="6.811549262664152"><ele>2295.3333333333335</ele><time>2026-05-02T10:20:58Z</time></trkpt><trkpt lat="45.07388110530858" lon="6.811690003479928"><ele>2292.0</ele><time>2026-05-02T10:21:00Z</time></trkpt><trkpt lat="45.07383317575764" lon="6.811774757915526"><ele>2294.1666666666665</ele><time>2026-05-02T10:21:01Z</time></trkpt><trkpt lat="45.07377874728947" lon="6.811832251337061"><ele>2296.3333333333335</ele><time>2026-05-02T10:21:02Z</time></trkpt><trkpt lat="45.07372296264686" lon="6.811916791796643"><ele>2298.5</ele><time>2026-05-02T10:21:03Z</time></trkpt><trkpt lat="45.073680811290956" lon="6.8119955681370765"><ele>2300.666666666667</ele><time>2026-05-02T10:21:04Z</time></trkpt><trkpt lat="45.07366374986296" lon="6.8121068702609815"><ele>2302.8333333333335</ele><time>2026-05-02T10:21:05Z</time></trkpt><trkpt lat="45.07363866517256" lon="6.812220306403328"><ele>2305.0</ele><time>2026-05-02T10:21:06Z</time></trkpt><trkpt lat="45.073629777552235" lon="6.812376368818885"><ele>2305.0</ele><time>2026-05-02T10:21:08Z</time></trkpt><trkpt lat="45.07358983042507" lon="6.812464837613741"><ele>2305.0</ele><time>2026-05-02T10:21:09Z</time></trkpt><trkpt lat="45.07356128685784" lon="6.812556258587552"><ele>2305.0</ele><time>2026-05-02T10:21:10Z</time></trkpt><trkpt lat="45.073531564541064" lon="6.812655359613204"><ele>2305.0</ele><time>2026-05-02T10:21:11Z</time></trkpt><trkpt lat="45.073522132536695" lon="6.812748269817805"><ele>2305.0</ele><time>2026-05-02T10:21:12Z</time></trkpt><trkpt lat="45.07352703402328" lon="6.81293584369929"><ele>2305.0</ele><time>2026-05-02T10:21:14Z</time></trkpt><trkpt lat="45.073528542866164" lon="6.813033241877319"><ele>2306.0</ele><time>2026-05-02T10:21:15Z</time></trkpt><trkpt lat="45.07354335908396" lon="6.8131331487910165"><ele>2307.0</ele><time>2026-05-02T10:21:16Z</time></trkpt><trkpt lat="45.073557720295966" lon="6.813228172586383"><ele>2308.0</ele><time>2026-05-02T10:21:17Z</time></trkpt><trkpt lat="45.07356576228349" lon="6.8133390749305995"><ele>2309.0</ele><time>2026-05-02T10:21:18Z</time></trkpt><trkpt lat="45.07357058452673" lon="6.813444758586584"><ele>2310.0</ele><time>2026-05-02T10:21:19Z</time></trkpt><trkpt lat="45.07357124450403" lon="6.813542047080052"><ele>2311.0</ele><time>2026-05-02T10:21:20Z</time></trkpt><trkpt lat="45.07357618241882" lon="6.81363706172086"><ele>2312.0</ele><time>2026-05-02T10:21:21Z</time></trkpt><trkpt lat="45.07358957018232" lon="6.813733306124659"><ele>2312.6666666666665</ele><time>2026-05-02T10:21:22Z</time></trkpt><trkpt lat="45.07360461715465" lon="6.81383327530549"><ele>2313.333333333333</ele><time>2026-05-02T10:21:23Z</time></trkpt><trkpt lat="45.07361186946479" lon="6.81394298570501"><ele>2314.0</ele><time>2026-05-02T10:21:24Z</time></trkpt><trkpt lat="45.07361706665792" lon="6.814059257438243"><ele>2314.6666666666665</ele><time>2026-05-02T10:21:25Z</time></trkpt><trkpt lat="45.07362499755818" lon="6.814171004430374"><ele>2315.3333333333335</ele><time>2026-05-02T10:21:26Z</time></trkpt><trkpt lat="45.073648120228974" lon="6.814284851662735"><ele>2316.0</ele><time>2026-05-02T10:21:27Z</time></trkpt><trkpt lat="45.0736673470204" lon="6.814405492885909"><ele>2316.8333333333335</ele><time>2026-05-02T10:21:28Z</time></trkpt><trkpt lat="45.07367217325594" lon="6.814527380398609"><ele>2317.6666666666665</ele><time>2026-05-02T10:21:29Z</time></trkpt><trkpt lat="45.073659728458544" lon="6.814641951940218"><ele>2318.5</ele><time>2026-05-02T10:21:30Z</time></trkpt><trkpt lat="45.0736378847979" lon="6.814761274559924"><ele>2319.333333333333</ele><time>2026-05-02T10:21:31Z</time></trkpt><trkpt lat="45.073606506554384" lon="6.814883731862799"><ele>2320.1666666666665</ele><time>2026-05-02T10:21:32Z</time></trkpt><trkpt lat="45.07359906603224" lon="6.81499898617372"><ele>2321.0</ele><time>2026-05-02T10:21:33Z</time></trkpt><trkpt lat="45.07362265781361" lon="6.81509184453896"><ele>2321.2</ele><time>2026-05-02T10:21:34Z</time></trkpt><trkpt lat="45.073625938818786" lon="6.815215757004052"><ele>2321.3999999999996</ele><time>2026-05-02T10:21:35Z</time></trkpt><trkpt lat="45.07362923247133" lon="6.815366155467631"><ele>2321.6</ele><time>2026-05-02T10:21:36Z</time></trkpt><trkpt lat="45.07359745055237" lon="6.815484271596807"><ele>2321.7999999999997</ele><time>2026-05-02T10:21:37Z</time></trkpt><trkpt lat="45.07355386054921" lon="6.8155842461611575"><ele>2322.0</ele><time>2026-05-02T10:21:38Z</time></trkpt><trkpt lat="45.07358552129688" lon="6.815712993312943"><ele>2322.0</ele><time>2026-05-02T10:21:40Z</time></trkpt><trkpt lat="45.07362157561777" lon="6.8158147454139915"><ele>2322.0</ele><time>2026-05-02T10:21:43Z</time></trkpt><trkpt lat="45.07368906463448" lon="6.815842983005677"><ele>2322.0</ele><time>2026-05-02T10:23:22Z</time></trkpt><trkpt lat="45.07375436023492" lon="6.815876221975276"><ele>2322.0</ele><time>2026-05-02T10:23:31Z</time></trkpt><trkpt lat="45.07382179272431" lon="6.815887853748438"><ele>2322.0</ele><time>2026-05-02T10:23:38Z</time></trkpt><trkpt lat="45.07389629526417" lon="6.81591402426497"><ele>2322.0</ele><time>2026-05-02T10:23:45Z</time></trkpt><trkpt lat="45.0739634906578" lon="6.815949594140402"><ele>2322.0</ele><time>2026-05-02T10:23:52Z</time></trkpt><trkpt lat="45.0740355147365" lon="6.815983497202536"><ele>2322.0</ele><time>2026-05-02T10:23:59Z</time></trkpt><trkpt lat="45.07409748417497" lon="6.816028394122599"><ele>2322.0</ele><time>2026-05-02T10:24:04.999Z</time></trkpt><trkpt lat="45.07414784910412" lon="6.816085837211469"><ele>2322.0</ele><time>2026-05-02T10:24:19.999Z</time></trkpt><trkpt lat="45.07402090129847" lon="6.815982660654743"><ele>2322.0</ele><time>2026-05-02T10:26:02.999Z</time></trkpt><trkpt lat="45.07395647293165" lon="6.815960253689424"><ele>2322.0</ele><time>2026-05-02T10:26:09.999Z</time></trkpt><trkpt lat="45.07389331892792" lon="6.81592325263718"><ele>2322.0</ele><time>2026-05-02T10:26:16.999Z</time></trkpt><trkpt lat="45.07382719273358" lon="6.815899435394154"><ele>2322.0</ele><time>2026-05-02T10:26:22.999Z</time></trkpt><trkpt lat="45.07376407379119" lon="6.815886110814079"><ele>2322.0</ele><time>2026-05-02T10:26:29.999Z</time></trkpt><trkpt lat="45.07370074611031" lon="6.815844612898108"><ele>2322.0</ele><time>2026-05-02T10:27:26Z</time></trkpt><trkpt lat="45.07377109486562" lon="6.815870146226348"><ele>2322.0</ele><time>2026-05-02T10:29:15Z</time></trkpt><trkpt lat="45.07384875636532" lon="6.815882479859812"><ele>2322.0</ele><time>2026-05-02T10:29:21Z</time></trkpt><trkpt lat="45.07392778115697" lon="6.81591645618733"><ele>2322.0</ele><time>2026-05-02T10:29:24Z</time></trkpt><trkpt lat="45.07402787180382" lon="6.815972331514785"><ele>2322.0</ele><time>2026-05-02T10:29:26Z</time></trkpt><trkpt lat="45.07409150847572" lon="6.816032323746613"><ele>2322.0</ele><time>2026-05-02T10:29:28Z</time></trkpt><trkpt lat="45.07415905717816" lon="6.816039190677072"><ele>2322.0</ele><time>2026-05-02T10:29:33Z</time></trkpt><trkpt lat="45.074121757377654" lon="6.815951393374437"><ele>2322.0</ele><time>2026-05-02T10:30:33Z</time></trkpt><trkpt lat="45.07403385040631" lon="6.815887203503201"><ele>2322.0</ele><time>2026-05-02T10:30:35Z</time></trkpt><trkpt lat="45.073971225054834" lon="6.815829353307218"><ele>2322.0</ele><time>2026-05-02T10:30:36Z</time></trkpt><trkpt lat="45.073873307735695" lon="6.815756838912093"><ele>2322.0</ele><time>2026-05-02T10:30:38Z</time></trkpt><trkpt lat="45.07381297600483" lon="6.815691950744642"><ele>2322.0</ele><time>2026-05-02T10:30:40Z</time></trkpt><trkpt lat="45.07378761904519" lon="6.815571090384275"><ele>2322.0</ele><time>2026-05-02T10:30:42Z</time></trkpt><trkpt lat="45.073794474860925" lon="6.815449938025916"><ele>2322.0</ele><time>2026-05-02T10:30:44Z</time></trkpt><trkpt lat="45.07389348535302" lon="6.815294553648693"><ele>2322.0</ele><time>2026-05-02T10:31:08Z</time></trkpt><trkpt lat="45.07396948304474" lon="6.815172697272213"><ele>2321.7999999999997</ele><time>2026-05-02T10:31:10Z</time></trkpt><trkpt lat="45.074009117066765" lon="6.8150609795970265"><ele>2321.6</ele><time>2026-05-02T10:31:12Z</time></trkpt><trkpt lat="45.074039604110276" lon="6.814916548452964"><ele>2321.3999999999996</ele><time>2026-05-02T10:31:14Z</time></trkpt><trkpt lat="45.07405954040611" lon="6.814768978570169"><ele>2321.2</ele><time>2026-05-02T10:31:15.999Z</time></trkpt><trkpt lat="45.074094299754385" lon="6.814610913469654"><ele>2321.0</ele><time>2026-05-02T10:31:17.999Z</time></trkpt><trkpt lat="45.07410943174169" lon="6.814523166206636"><ele>2327.0</ele><time>2026-05-02T10:31:19.001Z</time></trkpt><trkpt lat="45.07412184812177" lon="6.814421824125822"><ele>2333.0</ele><time>2026-05-02T10:31:20.001Z</time></trkpt><trkpt lat="45.07414317782273" lon="6.814333660369421"><ele>2339.0</ele><time>2026-05-02T10:31:21.001Z</time></trkpt><trkpt lat="45.07417602277566" lon="6.81424759706545"><ele>2345.0</ele><time>2026-05-02T10:31:22.001Z</time></trkpt><trkpt lat="45.07421157381853" lon="6.814088437556617"><ele>2351.0</ele><time>2026-05-02T10:31:24.001Z</time></trkpt><trkpt lat="45.07421251427317" lon="6.813999276808141"><ele>2357.0</ele><time>2026-05-02T10:31:25.001Z</time></trkpt><trkpt lat="45.074227694012286" lon="6.813836355560015"><ele>2357.0</ele><time>2026-05-02T10:31:27.001Z</time></trkpt><trkpt lat="45.07424529719972" lon="6.813741459012214"><ele>2357.0</ele><time>2026-05-02T10:31:28.001Z</time></trkpt><trkpt lat="45.0742641095169" lon="6.813651742709541"><ele>2357.0</ele><time>2026-05-02T10:31:29.001Z</time></trkpt><trkpt lat="45.07429190499503" lon="6.813557816258232"><ele>2357.0</ele><time>2026-05-02T10:31:30.001Z</time></trkpt><trkpt lat="45.07431966999859" lon="6.8133786163284675"><ele>2357.0</ele><time>2026-05-02T10:31:32.001Z</time></trkpt><trkpt lat="45.07434211637928" lon="6.813280943279746"><ele>2357.0</ele><time>2026-05-02T10:31:33Z</time></trkpt><trkpt lat="45.074372373008835" lon="6.813192135057746"><ele>2357.285714285714</ele><time>2026-05-02T10:31:34Z</time></trkpt><trkpt lat="45.07441360907514" lon="6.813100141521107"><ele>2357.5714285714284</ele><time>2026-05-02T10:31:35Z</time></trkpt><trkpt lat="45.07446407522083" lon="6.813027662648333"><ele>2357.857142857143</ele><time>2026-05-02T10:31:36Z</time></trkpt><trkpt lat="45.074501915806" lon="6.812948780973735"><ele>2358.142857142857</ele><time>2026-05-02T10:31:37Z</time></trkpt><trkpt lat="45.074534186184096" lon="6.812866190482946"><ele>2358.4285714285716</ele><time>2026-05-02T10:31:38Z</time></trkpt><trkpt lat="45.0745717813652" lon="6.812776969143541"><ele>2358.714285714286</ele><time>2026-05-02T10:31:39Z</time></trkpt><trkpt lat="45.074610154403224" lon="6.812685817808832"><ele>2359.0</ele><time>2026-05-02T10:31:40Z</time></trkpt><trkpt lat="45.07465876904298" lon="6.812592158157215"><ele>2357.4</ele><time>2026-05-02T10:31:41Z</time></trkpt><trkpt lat="45.074707102820234" lon="6.81251659023315"><ele>2355.8</ele><time>2026-05-02T10:31:42Z</time></trkpt><trkpt lat="45.07475557942233" lon="6.812443736308386"><ele>2354.2</ele><time>2026-05-02T10:31:43Z</time></trkpt><trkpt lat="45.07480079545441" lon="6.812374410103237"><ele>2352.6</ele><time>2026-05-02T10:31:44Z</time></trkpt><trkpt lat="45.074885485874475" lon="6.812227818676138"><ele>2351.0</ele><time>2026-05-02T10:31:46Z</time></trkpt><trkpt lat="45.074958238986774" lon="6.8120900471124495"><ele>2353.5714285714284</ele><time>2026-05-02T10:31:48Z</time></trkpt><trkpt lat="45.07500663998981" lon="6.812011570533019"><ele>2356.142857142857</ele><time>2026-05-02T10:31:49Z</time></trkpt><trkpt lat="45.07505581152257" lon="6.8119319177059365"><ele>2358.714285714286</ele><time>2026-05-02T10:31:50Z</time></trkpt><trkpt lat="45.07510457011317" lon="6.8118748398601845"><ele>2361.285714285714</ele><time>2026-05-02T10:31:51Z</time></trkpt><trkpt lat="45.07516047701838" lon="6.811814654014236"><ele>2363.857142857143</ele><time>2026-05-02T10:31:52Z</time></trkpt><trkpt lat="45.07522986624103" lon="6.811770997106319"><ele>2366.4285714285716</ele><time>2026-05-02T10:31:53Z</time></trkpt><trkpt lat="45.07530470827416" lon="6.8117502338918365"><ele>2369.0</ele><time>2026-05-02T10:31:54Z</time></trkpt><trkpt lat="45.07536828754237" lon="6.811731575927667"><ele>2369.0</ele><time>2026-05-02T10:31:55Z</time></trkpt><trkpt lat="45.07543757448735" lon="6.811721582866202"><ele>2369.0</ele><time>2026-05-02T10:31:56Z</time></trkpt><trkpt lat="45.07551379377506" lon="6.81172231953418"><ele>2369.0</ele><time>2026-05-02T10:31:57Z</time></trkpt><trkpt lat="45.075587091636365" lon="6.8117300859293755"><ele>2369.0</ele><time>2026-05-02T10:31:58Z</time></trkpt><trkpt lat="45.07565290909647" lon="6.811717472742482"><ele>2369.0</ele><time>2026-05-02T10:31:59Z</time></trkpt><trkpt lat="45.075716966181545" lon="6.811686783705588"><ele>2369.0</ele><time>2026-05-02T10:32:00Z</time></trkpt><trkpt lat="45.075781895266466" lon="6.811653549088651"><ele>2369.0</ele><time>2026-05-02T10:32:01Z</time></trkpt><trkpt lat="45.075847708109215" lon="6.811595106274269"><ele>2374.333333333333</ele><time>2026-05-02T10:32:02Z</time></trkpt><trkpt lat="45.07591040894421" lon="6.811525562828652"><ele>2379.6666666666665</ele><time>2026-05-02T10:32:03Z</time></trkpt><trkpt lat="45.07597730547942" lon="6.8114255384121245"><ele>2385.0</ele><time>2026-05-02T10:32:05Z</time></trkpt><trkpt lat="45.07602853127108" lon="6.811360973525455"><ele>2390.3333333333335</ele><time>2026-05-02T10:32:06Z</time></trkpt><trkpt lat="45.07609188676821" lon="6.811289372753906"><ele>2395.666666666667</ele><time>2026-05-02T10:32:07Z</time></trkpt><trkpt lat="45.076156480828054" lon="6.811218785562129"><ele>2401.0</ele><time>2026-05-02T10:32:08Z</time></trkpt><trkpt lat="45.076212507144916" lon="6.811176249581187"><ele>2401.0</ele><time>2026-05-02T10:32:09Z</time></trkpt><trkpt lat="45.076250224433885" lon="6.811060569927547"><ele>2401.0</ele><time>2026-05-02T10:32:11Z</time></trkpt><trkpt lat="45.07625099392279" lon="6.8109621365811615"><ele>2401.0</ele><time>2026-05-02T10:32:12Z</time></trkpt><trkpt lat="45.07626226299555" lon="6.810851744216271"><ele>2401.0</ele><time>2026-05-02T10:32:13Z</time></trkpt><trkpt lat="45.076286900657536" lon="6.810745674996607"><ele>2401.0</ele><time>2026-05-02T10:32:14Z</time></trkpt><trkpt lat="45.0763032504324" lon="6.810594375426774"><ele>2401.0</ele><time>2026-05-02T10:32:16Z</time></trkpt><trkpt lat="45.076278427160766" lon="6.810508498696116"><ele>2397.8</ele><time>2026-05-02T10:32:17Z</time></trkpt><trkpt lat="45.076249842546524" lon="6.810424340887913"><ele>2394.6</ele><time>2026-05-02T10:32:18Z</time></trkpt><trkpt lat="45.076200661697854" lon="6.810275927446219"><ele>2391.4</ele><time>2026-05-02T10:32:20Z</time></trkpt><trkpt lat="45.0761996269345" lon="6.810073739220018"><ele>2388.2</ele><time>2026-05-02T10:32:22Z</time></trkpt><trkpt lat="45.07619983229151" lon="6.809955473068615"><ele>2385.0</ele><time>2026-05-02T10:32:23Z</time></trkpt><trkpt lat="45.076178118879696" lon="6.80985003578177"><ele>2385.0</ele><time>2026-05-02T10:32:24Z</time></trkpt><trkpt lat="45.07613352628425" lon="6.809756485096345"><ele>2385.0</ele><time>2026-05-02T10:32:25Z</time></trkpt><trkpt lat="45.076094118901246" lon="6.8096863298898525"><ele>2385.0</ele><time>2026-05-02T10:32:26Z</time></trkpt><trkpt lat="45.07603935183435" lon="6.809520810686118"><ele>2385.0</ele><time>2026-05-02T10:32:28Z</time></trkpt><trkpt lat="45.076013798559785" lon="6.809419106467227"><ele>2385.0</ele><time>2026-05-02T10:32:29Z</time></trkpt><trkpt lat="45.075999076117526" lon="6.8093076505274714"><ele>2385.0</ele><time>2026-05-02T10:32:30Z</time></trkpt><trkpt lat="45.07598510698867" lon="6.8091926232690865"><ele>2386.3333333333335</ele><time>2026-05-02T10:32:31Z</time></trkpt><trkpt lat="45.075987389332674" lon="6.809064286312106"><ele>2387.6666666666665</ele><time>2026-05-02T10:32:32Z</time></trkpt><trkpt lat="45.075997650067855" lon="6.80894795003407"><ele>2389.0</ele><time>2026-05-02T10:32:33Z</time></trkpt><trkpt lat="45.075993499438624" lon="6.808855340696075"><ele>2390.333333333333</ele><time>2026-05-02T10:32:34Z</time></trkpt><trkpt lat="45.07597764389964" lon="6.808763366327363"><ele>2391.6666666666665</ele><time>2026-05-02T10:32:35Z</time></trkpt><trkpt lat="45.07601120713238" lon="6.808620033029771"><ele>2393.0</ele><time>2026-05-02T10:32:37Z</time></trkpt><trkpt lat="45.07605914717605" lon="6.808550549028192"><ele>2393.9999999999995</ele><time>2026-05-02T10:32:38Z</time></trkpt><trkpt lat="45.076108372280956" lon="6.808470241924335"><ele>2395.0</ele><time>2026-05-02T10:32:39Z</time></trkpt><trkpt lat="45.07613289679147" lon="6.808379236495054"><ele>2396.0</ele><time>2026-05-02T10:32:40Z</time></trkpt><trkpt lat="45.076129764663776" lon="6.808269823902326"><ele>2397.0</ele><time>2026-05-02T10:32:41Z</time></trkpt><trkpt lat="45.07611917547426" lon="6.808173655898444"><ele>2398.0</ele><time>2026-05-02T10:32:42Z</time></trkpt><trkpt lat="45.07611274847778" lon="6.808073849630633"><ele>2398.9999999999995</ele><time>2026-05-02T10:32:43Z</time></trkpt><trkpt lat="45.0761080727119" lon="6.807976560634254"><ele>2400.0</ele><time>2026-05-02T10:32:44Z</time></trkpt><trkpt lat="45.076105881670244" lon="6.807877550817695"><ele>2400.0</ele><time>2026-05-02T10:32:45Z</time></trkpt><trkpt lat="45.076157929741065" lon="6.807720431033249"><ele>2400.0</ele><time>2026-05-02T10:32:47Z</time></trkpt><trkpt lat="45.07621332601412" lon="6.807644277513219"><ele>2400.0</ele><time>2026-05-02T10:32:48Z</time></trkpt><trkpt lat="45.07626115747439" lon="6.8075716930218615"><ele>2400.0</ele><time>2026-05-02T10:32:49Z</time></trkpt><trkpt lat="45.07626800672196" lon="6.807383756480851"><ele>2400.0</ele><time>2026-05-02T10:32:51Z</time></trkpt><trkpt lat="45.0762478669504" lon="6.807283601655699"><ele>2401.1666666666665</ele><time>2026-05-02T10:32:52Z</time></trkpt><trkpt lat="45.07621579080311" lon="6.8071801663739215"><ele>2402.3333333333335</ele><time>2026-05-02T10:32:53Z</time></trkpt><trkpt lat="45.07619225120879" lon="6.807097470675164"><ele>2403.5</ele><time>2026-05-02T10:32:54Z</time></trkpt><trkpt lat="45.0761913219516" lon="6.806909393230247"><ele>2404.666666666667</ele><time>2026-05-02T10:32:56Z</time></trkpt><trkpt lat="45.076211948002026" lon="6.806815929035915"><ele>2405.8333333333335</ele><time>2026-05-02T10:32:57Z</time></trkpt><trkpt lat="45.076222655407605" lon="6.806717592014882"><ele>2407.0</ele><time>2026-05-02T10:32:58Z</time></trkpt><trkpt lat="45.076218689755144" lon="6.806593820815376"><ele>2408.8333333333335</ele><time>2026-05-02T10:32:59Z</time></trkpt><trkpt lat="45.07620581996097" lon="6.806489405046398"><ele>2410.666666666667</ele><time>2026-05-02T10:33:00Z</time></trkpt><trkpt lat="45.0762069234556" lon="6.8063927172425345"><ele>2412.5</ele><time>2026-05-02T10:33:01Z</time></trkpt><trkpt lat="45.07620828641251" lon="6.806301449380003"><ele>2414.3333333333335</ele><time>2026-05-02T10:33:02Z</time></trkpt><trkpt lat="45.076177134908946" lon="6.806157051720805"><ele>2416.1666666666665</ele><time>2026-05-02T10:33:04Z</time></trkpt><trkpt lat="45.076153388258824" lon="6.806053169890963"><ele>2418.0</ele><time>2026-05-02T10:33:05Z</time></trkpt><trkpt lat="45.07613816930813" lon="6.805937536088569"><ele>2419.428571428571</ele><time>2026-05-02T10:33:06Z</time></trkpt><trkpt lat="45.07613157071728" lon="6.80584205734556"><ele>2420.857142857143</ele><time>2026-05-02T10:33:07Z</time></trkpt><trkpt lat="45.07613439122549" lon="6.8057449994886605"><ele>2422.285714285714</ele><time>2026-05-02T10:33:08Z</time></trkpt><trkpt lat="45.07614879263538" lon="6.8056450601402805"><ele>2423.7142857142853</ele><time>2026-05-02T10:33:09Z</time></trkpt><trkpt lat="45.07616605090316" lon="6.805550918871277"><ele>2425.142857142857</ele><time>2026-05-02T10:33:10Z</time></trkpt><trkpt lat="45.076179133202054" lon="6.805461856960177"><ele>2426.5714285714284</ele><time>2026-05-02T10:33:11Z</time></trkpt><trkpt lat="45.07617166868415" lon="6.805357399530375"><ele>2428.0</ele><time>2026-05-02T10:33:12Z</time></trkpt><trkpt lat="45.0761761602303" lon="6.805248785330254"><ele>2428.9999999999995</ele><time>2026-05-02T10:33:13Z</time></trkpt><trkpt lat="45.07619712549789" lon="6.805158935769176"><ele>2430.0</ele><time>2026-05-02T10:33:14Z</time></trkpt><trkpt lat="45.07622633566844" lon="6.805062031083268"><ele>2431.0</ele><time>2026-05-02T10:33:15Z</time></trkpt><trkpt lat="45.07626448602029" lon="6.804987697599986"><ele>2432.0</ele><time>2026-05-02T10:33:16Z</time></trkpt><trkpt lat="45.07630272456212" lon="6.804907051147289"><ele>2433.0</ele><time>2026-05-02T10:33:17Z</time></trkpt><trkpt lat="45.076346285836706" lon="6.804817199774621"><ele>2433.9999999999995</ele><time>2026-05-02T10:33:18Z</time></trkpt><trkpt lat="45.07638084464655" lon="6.8047168841531995"><ele>2435.0</ele><time>2026-05-02T10:33:19Z</time></trkpt><trkpt lat="45.07640650743552" lon="6.804606896220639"><ele>2435.0</ele><time>2026-05-02T10:33:20Z</time></trkpt><trkpt lat="45.07642814341869" lon="6.80448940133915"><ele>2435.0</ele><time>2026-05-02T10:33:21Z</time></trkpt><trkpt lat="45.076459311821466" lon="6.804383417888926"><ele>2435.0</ele><time>2026-05-02T10:33:22Z</time></trkpt><trkpt lat="45.0764853850818" lon="6.804276777993863"><ele>2435.0</ele><time>2026-05-02T10:33:23Z</time></trkpt><trkpt lat="45.07650254444892" lon="6.8041745961467885"><ele>2435.0</ele><time>2026-05-02T10:33:23.999Z</time></trkpt><trkpt lat="45.07652855454895" lon="6.804068815617167"><ele>2435.0</ele><time>2026-05-02T10:33:25.001Z</time></trkpt><trkpt lat="45.0765545610427" lon="6.803980248592613"><ele>2434.1666666666665</ele><time>2026-05-02T10:33:26.001Z</time></trkpt><trkpt lat="45.076568553948945" lon="6.8038706185036535"><ele>2433.333333333333</ele><time>2026-05-02T10:33:27.001Z</time></trkpt><trkpt lat="45.07657396984906" lon="6.803763008507533"><ele>2432.5</ele><time>2026-05-02T10:33:28.001Z</time></trkpt><trkpt lat="45.07660301714754" lon="6.80365786442461"><ele>2431.6666666666665</ele><time>2026-05-02T10:33:29.001Z</time></trkpt><trkpt lat="45.07665567403201" lon="6.803571055075047"><ele>2430.8333333333335</ele><time>2026-05-02T10:33:30.001Z</time></trkpt><trkpt lat="45.07671651692711" lon="6.803502390185046"><ele>2430.0</ele><time>2026-05-02T10:33:31.001Z</time></trkpt><trkpt lat="45.07677853961163" lon="6.803452595106322"><ele>2435.6</ele><time>2026-05-02T10:33:32.001Z</time></trkpt><trkpt lat="45.07685774970577" lon="6.803356194775356"><ele>2441.2</ele><time>2026-05-02T10:33:34.001Z</time></trkpt><trkpt lat="45.07687812748763" lon="6.803189031849372"><ele>2446.8</ele><time>2026-05-02T10:33:36.001Z</time></trkpt><trkpt lat="45.07689887953976" lon="6.80310031124248"><ele>2452.4</ele><time>2026-05-02T10:33:37.001Z</time></trkpt><trkpt lat="45.07693308381993" lon="6.803014786275182"><ele>2458.0</ele><time>2026-05-02T10:33:38.001Z</time></trkpt><trkpt lat="45.07700208719715" lon="6.802894891884236"><ele>2458.0000000000005</ele><time>2026-05-02T10:33:40.001Z</time></trkpt><trkpt lat="45.07707086944427" lon="6.802875717144596"><ele>2458.0</ele><time>2026-05-02T10:33:41.001Z</time></trkpt><trkpt lat="45.077138362854484" lon="6.8028692435824105"><ele>2458.0</ele><time>2026-05-02T10:33:42Z</time></trkpt><trkpt lat="45.077203696628054" lon="6.802853449990042"><ele>2458.0</ele><time>2026-05-02T10:33:43Z</time></trkpt><trkpt lat="45.077270128830726" lon="6.802832624741077"><ele>2458.0</ele><time>2026-05-02T10:33:44Z</time></trkpt><trkpt lat="45.0773379544647" lon="6.802835322673157"><ele>2458.0000000000005</ele><time>2026-05-02T10:33:45Z</time></trkpt><trkpt lat="45.0774036388755" lon="6.802840030687793"><ele>2458.0</ele><time>2026-05-02T10:33:46Z</time></trkpt><trkpt lat="45.07747204605236" lon="6.802825687109601"><ele>2462.5</ele><time>2026-05-02T10:33:47Z</time></trkpt><trkpt lat="45.07754107685773" lon="6.80282055691142"><ele>2467.0</ele><time>2026-05-02T10:33:48Z</time></trkpt><trkpt lat="45.07761350657718" lon="6.80283092930798"><ele>2471.5</ele><time>2026-05-02T10:33:49Z</time></trkpt><trkpt lat="45.077682146048716" lon="6.802844296375711"><ele>2476.0</ele><time>2026-05-02T10:33:50Z</time></trkpt><trkpt lat="45.07781413482189" lon="6.80283199241345"><ele>2480.5</ele><time>2026-05-02T10:33:52Z</time></trkpt><trkpt lat="45.077896393771084" lon="6.802819703872795"><ele>2485.0</ele><time>2026-05-02T10:33:53Z</time></trkpt><trkpt lat="45.07799054035204" lon="6.802807864281311"><ele>2485.0</ele><time>2026-05-02T10:33:54Z</time></trkpt><trkpt lat="45.07806663062945" lon="6.802816259122764"><ele>2485.0</ele><time>2026-05-02T10:33:55Z</time></trkpt><trkpt lat="45.07816874391052" lon="6.802844861297437"><ele>2485.0</ele><time>2026-05-02T10:33:57Z</time></trkpt><trkpt lat="45.07827864853431" lon="6.80281034600556"><ele>2485.0</ele><time>2026-05-02T10:33:59Z</time></trkpt><trkpt lat="45.078342908326" lon="6.8028808297220635"><ele>2485.0</ele><time>2026-05-02T10:34:01Z</time></trkpt><trkpt lat="45.078311623202474" lon="6.803012084400958"><ele>2485.0</ele><time>2026-05-02T10:37:07.999Z</time></trkpt><trkpt lat="45.078273958310675" lon="6.803086017356215"><ele>2485.0</ele><time>2026-05-02T10:37:10.999Z</time></trkpt><trkpt lat="45.07821019227391" lon="6.803084384434558"><ele>2485.0</ele><time>2026-05-02T10:37:17.999Z</time></trkpt><trkpt lat="45.078129272493996" lon="6.803090044264128"><ele>2485.0</ele><time>2026-05-02T10:37:20.999Z</time></trkpt><trkpt lat="45.07805472629548" lon="6.803145131052244"><ele>2485.0</ele><time>2026-05-02T10:37:22.999Z</time></trkpt><trkpt lat="45.0779938660186" lon="6.803217071909694"><ele>2485.0</ele><time>2026-05-02T10:37:25.999Z</time></trkpt><trkpt lat="45.07794781702798" lon="6.803137653071025"><ele>2485.0</ele><time>2026-05-02T10:37:28.999Z</time></trkpt><trkpt lat="45.07797419526176" lon="6.803031150395642"><ele>2485.0</ele><time>2026-05-02T10:37:32.999Z</time></trkpt><trkpt lat="45.078035571985886" lon="6.802991268645184"><ele>2485.0</ele><time>2026-05-02T10:37:37Z</time></trkpt><trkpt lat="45.07808587681292" lon="6.802910019867767"><ele>2485.0</ele><time>2026-05-02T10:37:41Z</time></trkpt><trkpt lat="45.07810888853843" lon="6.802826812814558"><ele>2485.0</ele><time>2026-05-02T10:37:44Z</time></trkpt><trkpt lat="45.078256550929" lon="6.802851091147485"><ele>2485.0</ele><time>2026-05-02T10:37:48Z</time></trkpt><trkpt lat="45.078352423917636" lon="6.802855967787812"><ele>2485.0</ele><time>2026-05-02T10:37:50Z</time></trkpt><trkpt lat="45.07826586262879" lon="6.802859731945807"><ele>2485.0</ele><time>2026-05-02T10:47:42.999Z</time></trkpt><trkpt lat="45.07819198285214" lon="6.802819965769009"><ele>2485.0</ele><time>2026-05-02T10:47:44.999Z</time></trkpt><trkpt lat="45.078127259934874" lon="6.8028286955836865"><ele>2485.0</ele><time>2026-05-02T10:47:46.999Z</time></trkpt><trkpt lat="45.07805928856612" lon="6.802830170601803"><ele>2485.0</ele><time>2026-05-02T10:47:48.999Z</time></trkpt><trkpt lat="45.07795573908989" lon="6.8028220361977665"><ele>2485.0</ele><time>2026-05-02T10:47:50.999Z</time></trkpt><trkpt lat="45.0778469374629" lon="6.802828925300479"><ele>2485.0</ele><time>2026-05-02T10:47:52.999Z</time></trkpt><trkpt lat="45.07777662422311" lon="6.80284823680736"><ele>2485.0</ele><time>2026-05-02T10:47:54.999Z</time></trkpt><trkpt lat="45.07771052561423" lon="6.802874358951617"><ele>2485.0</ele><time>2026-05-02T10:47:56.999Z</time></trkpt><trkpt lat="45.07763622876478" lon="6.802857445005"><ele>2485.0</ele><time>2026-05-02T10:47:58.999Z</time></trkpt><trkpt lat="45.07756075103597" lon="6.802828837387837"><ele>2485.0</ele><time>2026-05-02T10:48:00.999Z</time></trkpt><trkpt lat="45.07744903332621" lon="6.802828501914338"><ele>2485.0</ele><time>2026-05-02T10:48:03.999Z</time></trkpt><trkpt lat="45.07735153867669" lon="6.802846036811034"><ele>2479.6</ele><time>2026-05-02T10:48:05.999Z</time></trkpt><trkpt lat="45.077252553632675" lon="6.802873507731007"><ele>2474.2</ele><time>2026-05-02T10:48:07.999Z</time></trkpt><trkpt lat="45.0771344070887" lon="6.802876245348637"><ele>2468.8</ele><time>2026-05-02T10:48:09.999Z</time></trkpt><trkpt lat="45.07703572106513" lon="6.802927372467534"><ele>2463.4</ele><time>2026-05-02T10:48:11.999Z</time></trkpt><trkpt lat="45.07694882346099" lon="6.802976081766808"><ele>2458.0</ele><time>2026-05-02T10:48:13.999Z</time></trkpt><trkpt lat="45.07690467010503" lon="6.8030877247066375"><ele>2458.0</ele><time>2026-05-02T10:48:15.999Z</time></trkpt><trkpt lat="45.07687295198305" lon="6.803216212032966"><ele>2458.0</ele><time>2026-05-02T10:48:17.999Z</time></trkpt><trkpt lat="45.07684107475596" lon="6.803339994266358"><ele>2458.0</ele><time>2026-05-02T10:48:19.999Z</time></trkpt><trkpt lat="45.07679797679404" lon="6.803470542864338"><ele>2458.0</ele><time>2026-05-02T10:48:21.999Z</time></trkpt><trkpt lat="45.07671595240516" lon="6.803541180940698"><ele>2458.0</ele><time>2026-05-02T10:48:23.999Z</time></trkpt><trkpt lat="45.07663751221312" lon="6.803628105751252"><ele>2452.4</ele><time>2026-05-02T10:48:25.999Z</time></trkpt><trkpt lat="45.07658945748818" lon="6.803730533724589"><ele>2446.8</ele><time>2026-05-02T10:48:27.999Z</time></trkpt><trkpt lat="45.076556675629" lon="6.80384957640131"><ele>2441.2</ele><time>2026-05-02T10:48:29.999Z</time></trkpt><trkpt lat="45.07654888568941" lon="6.803992660671803"><ele>2435.6</ele><time>2026-05-02T10:48:31.999Z</time></trkpt><trkpt lat="45.07653302244008" lon="6.8041222370342505"><ele>2430.0</ele><time>2026-05-02T10:48:33.999Z</time></trkpt><trkpt lat="45.07649679920255" lon="6.804251867348796"><ele>2431.0</ele><time>2026-05-02T10:48:35.999Z</time></trkpt><trkpt lat="45.0764576167776" lon="6.804383934430342"><ele>2432.0</ele><time>2026-05-02T10:48:37.999Z</time></trkpt><trkpt lat="45.07642215298197" lon="6.804514113583005"><ele>2433.0</ele><time>2026-05-02T10:48:39.999Z</time></trkpt><trkpt lat="45.07637828562053" lon="6.804682215426407"><ele>2434.0</ele><time>2026-05-02T10:48:41.999Z</time></trkpt><trkpt lat="45.076357962445734" lon="6.804842669211956"><ele>2435.0</ele><time>2026-05-02T10:48:43.999Z</time></trkpt><trkpt lat="45.076288968216446" lon="6.805005302078314"><ele>2435.0</ele><time>2026-05-02T10:48:45.999Z</time></trkpt><trkpt lat="45.07624810430305" lon="6.8050938189531545"><ele>2435.0</ele><time>2026-05-02T10:48:46.999Z</time></trkpt><trkpt lat="45.076213036148786" lon="6.805180683764821"><ele>2435.0</ele><time>2026-05-02T10:48:47.999Z</time></trkpt><trkpt lat="45.0761900435101" lon="6.8052677805142405"><ele>2435.0</ele><time>2026-05-02T10:48:48.999Z</time></trkpt><trkpt lat="45.076174115154195" lon="6.8054324664926105"><ele>2435.0</ele><time>2026-05-02T10:48:50.999Z</time></trkpt><trkpt lat="45.07617777321842" lon="6.805583476118616"><ele>2435.0</ele><time>2026-05-02T10:48:52.999Z</time></trkpt><trkpt lat="45.076170444668925" lon="6.805716675004621"><ele>2433.6</ele><time>2026-05-02T10:48:54.999Z</time></trkpt><trkpt lat="45.07614180205662" lon="6.805850848196132"><ele>2432.2</ele><time>2026-05-02T10:48:56.999Z</time></trkpt><trkpt lat="45.07613510498955" lon="6.806027009321833"><ele>2430.8</ele><time>2026-05-02T10:48:58.999Z</time></trkpt><trkpt lat="45.07617032363213" lon="6.806153206943806"><ele>2429.4</ele><time>2026-05-02T10:49:00.999Z</time></trkpt><trkpt lat="45.076199267555104" lon="6.806242294135278"><ele>2428.0</ele><time>2026-05-02T10:49:02.999Z</time></trkpt><trkpt lat="45.07622498299594" lon="6.806368056598576"><ele>2426.3333333333335</ele><time>2026-05-02T10:49:04.999Z</time></trkpt><trkpt lat="45.07623522751809" lon="6.806466185631234"><ele>2424.666666666667</ele><time>2026-05-02T10:49:05.999Z</time></trkpt><trkpt lat="45.07623829396589" lon="6.80657694676435"><ele>2423.0</ele><time>2026-05-02T10:49:06.999Z</time></trkpt><trkpt lat="45.0762273347703" lon="6.806676849270893"><ele>2421.3333333333335</ele><time>2026-05-02T10:49:07.999Z</time></trkpt><trkpt lat="45.07622467127743" lon="6.806871550683348"><ele>2419.6666666666665</ele><time>2026-05-02T10:49:09.999Z</time></trkpt><trkpt lat="45.076219330657224" lon="6.806965155078485"><ele>2418.0</ele><time>2026-05-02T10:49:10.999Z</time></trkpt><trkpt lat="45.07618687139412" lon="6.807116202026633"><ele>2416.428571428571</ele><time>2026-05-02T10:49:12.999Z</time></trkpt><trkpt lat="45.07620022806573" lon="6.807214489575809"><ele>2414.857142857143</ele><time>2026-05-02T10:49:13.999Z</time></trkpt><trkpt lat="45.076234437469914" lon="6.807317051601801"><ele>2413.285714285714</ele><time>2026-05-02T10:49:14.999Z</time></trkpt><trkpt lat="45.07626230012033" lon="6.807398498819626"><ele>2411.7142857142853</ele><time>2026-05-02T10:49:15.999Z</time></trkpt><trkpt lat="45.07626200572614" lon="6.807492674368168"><ele>2410.142857142857</ele><time>2026-05-02T10:49:16.999Z</time></trkpt><trkpt lat="45.076252078653035" lon="6.807590304468384"><ele>2408.5714285714284</ele><time>2026-05-02T10:49:17.999Z</time></trkpt><trkpt lat="45.076232273093595" lon="6.807688516439296"><ele>2407.0</ele><time>2026-05-02T10:49:18.999Z</time></trkpt><trkpt lat="45.076194646294255" lon="6.807783164186891"><ele>2405.6</ele><time>2026-05-02T10:49:19.999Z</time></trkpt><trkpt lat="45.076146288651124" lon="6.807846679919552"><ele>2404.2</ele><time>2026-05-02T10:49:20.999Z</time></trkpt><trkpt lat="45.07609116959244" lon="6.807958979995286"><ele>2402.8</ele><time>2026-05-02T10:49:22.999Z</time></trkpt><trkpt lat="45.076096514888135" lon="6.808086833872895"><ele>2401.4</ele><time>2026-05-02T10:49:24.999Z</time></trkpt><trkpt lat="45.07611008507665" lon="6.808268054136847"><ele>2400.0</ele><time>2026-05-02T10:49:26.999Z</time></trkpt><trkpt lat="45.076121196808735" lon="6.80837719515772"><ele>2400.0</ele><time>2026-05-02T10:49:27.999Z</time></trkpt><trkpt lat="45.07611833078248" lon="6.808472666589395"><ele>2400.0</ele><time>2026-05-02T10:49:28.999Z</time></trkpt><trkpt lat="45.076061306719765" lon="6.80862583561488"><ele>2400.0</ele><time>2026-05-02T10:49:30.999Z</time></trkpt><trkpt lat="45.07598744835409" lon="6.808728623202489"><ele>2400.0</ele><time>2026-05-02T10:49:32.999Z</time></trkpt><trkpt lat="45.07596572009319" lon="6.808853946815004"><ele>2400.0</ele><time>2026-05-02T10:49:34.999Z</time></trkpt><trkpt lat="45.076000320806685" lon="6.8089933444185915"><ele>2398.8333333333335</ele><time>2026-05-02T10:49:36.999Z</time></trkpt><trkpt lat="45.07601664606057" lon="6.809092444903537"><ele>2397.6666666666665</ele><time>2026-05-02T10:49:37.999Z</time></trkpt><trkpt lat="45.076002890799415" lon="6.809211002136769"><ele>2396.5</ele><time>2026-05-02T10:49:38.999Z</time></trkpt><trkpt lat="45.07599992250589" lon="6.809323351079698"><ele>2395.333333333333</ele><time>2026-05-02T10:49:39.999Z</time></trkpt><trkpt lat="45.0760123777051" lon="6.8094517080144445"><ele>2394.1666666666665</ele><time>2026-05-02T10:49:40.999Z</time></trkpt><trkpt lat="45.07603987813025" lon="6.809572840271449"><ele>2393.0</ele><time>2026-05-02T10:49:41.999Z</time></trkpt><trkpt lat="45.076094434432335" lon="6.809677710054202"><ele>2391.4</ele><time>2026-05-02T10:49:43.999Z</time></trkpt><trkpt lat="45.07613930154449" lon="6.809790991986127"><ele>2389.8</ele><time>2026-05-02T10:49:45.999Z</time></trkpt><trkpt lat="45.07619353089055" lon="6.809957010057625"><ele>2388.2</ele><time>2026-05-02T10:49:47.999Z</time></trkpt><trkpt lat="45.07622057952665" lon="6.810131477707958"><ele>2386.6</ele><time>2026-05-02T10:49:49.999Z</time></trkpt><trkpt lat="45.076215695657474" lon="6.81023368187008"><ele>2385.0</ele><time>2026-05-02T10:49:50.999Z</time></trkpt><trkpt lat="45.07621189449003" lon="6.810333314167122"><ele>2384.6666666666665</ele><time>2026-05-02T10:49:51.999Z</time></trkpt><trkpt lat="45.076218574655776" lon="6.810434211403652"><ele>2384.3333333333335</ele><time>2026-05-02T10:49:52.999Z</time></trkpt><trkpt lat="45.07624687752717" lon="6.810525617996644"><ele>2384.0</ele><time>2026-05-02T10:49:53.999Z</time></trkpt><trkpt lat="45.07628470154672" lon="6.810603593121176"><ele>2383.666666666667</ele><time>2026-05-02T10:49:54.999Z</time></trkpt><trkpt lat="45.07630003103495" lon="6.8107683261683745"><ele>2383.3333333333335</ele><time>2026-05-02T10:49:56.999Z</time></trkpt><trkpt lat="45.07625048758757" lon="6.810914960133889"><ele>2383.0</ele><time>2026-05-02T10:49:58.999Z</time></trkpt><trkpt lat="45.07622862358052" lon="6.811084238591446"><ele>2386.0</ele><time>2026-05-02T10:50:00.999Z</time></trkpt><trkpt lat="45.076221703171754" lon="6.811173858324548"><ele>2389.0</ele><time>2026-05-02T10:50:01.999Z</time></trkpt><trkpt lat="45.076169314788054" lon="6.811287261930373"><ele>2392.0</ele><time>2026-05-02T10:50:03.999Z</time></trkpt><trkpt lat="45.07605386035556" lon="6.81135105926569"><ele>2395.0</ele><time>2026-05-02T10:50:05.999Z</time></trkpt><trkpt lat="45.0759995960949" lon="6.8114139177183874"><ele>2398.0</ele><time>2026-05-02T10:50:06.999Z</time></trkpt><trkpt lat="45.0759538353162" lon="6.811477313251109"><ele>2401.0</ele><time>2026-05-02T10:50:07.999Z</time></trkpt><trkpt lat="45.07588375425302" lon="6.811575326386288"><ele>2401.0</ele><time>2026-05-02T10:50:09.999Z</time></trkpt><trkpt lat="45.075815968733124" lon="6.811636610872587"><ele>2401.0</ele><time>2026-05-02T10:50:11.999Z</time></trkpt><trkpt lat="45.07574522934542" lon="6.811675217905198"><ele>2401.0</ele><time>2026-05-02T10:50:13.999Z</time></trkpt><trkpt lat="45.0756633537818" lon="6.811715223001597"><ele>2401.0</ele><time>2026-05-02T10:50:15.999Z</time></trkpt><trkpt lat="45.07556675726575" lon="6.811752223082908"><ele>2401.0</ele><time>2026-05-02T10:50:17.999Z</time></trkpt><trkpt lat="45.07545254483119" lon="6.811762116661201"><ele>2399.3333333333335</ele><time>2026-05-02T10:50:19.999Z</time></trkpt><trkpt lat="45.07538824607128" lon="6.811752005643908"><ele>2397.666666666667</ele><time>2026-05-02T10:50:20.999Z</time></trkpt><trkpt lat="45.07531962363109" lon="6.811761938102782"><ele>2396.0</ele><time>2026-05-02T10:50:21.999Z</time></trkpt><trkpt lat="45.07521466589316" lon="6.811800945846331"><ele>2394.3333333333335</ele><time>2026-05-02T10:50:23.999Z</time></trkpt><trkpt lat="45.07512373218393" lon="6.8118699028809235"><ele>2392.6666666666665</ele><time>2026-05-02T10:50:25.999Z</time></trkpt><trkpt lat="45.07504183208013" lon="6.811957626590085"><ele>2391.0</ele><time>2026-05-02T10:50:27.999Z</time></trkpt><trkpt lat="45.07499583443567" lon="6.812022142468406"><ele>2391.0</ele><time>2026-05-02T10:50:28.999Z</time></trkpt><trkpt lat="45.074942772736435" lon="6.812101310817188"><ele>2391.0</ele><time>2026-05-02T10:50:29.999Z</time></trkpt><trkpt lat="45.07489384234507" lon="6.812176890708829"><ele>2391.0</ele><time>2026-05-02T10:50:30.999Z</time></trkpt><trkpt lat="45.07483177805038" lon="6.81231250585282"><ele>2391.0</ele><time>2026-05-02T10:50:32.999Z</time></trkpt><trkpt lat="45.07479294068647" lon="6.812384579383586"><ele>2391.0</ele><time>2026-05-02T10:50:33.999Z</time></trkpt><trkpt lat="45.0747100003629" lon="6.812528768232485"><ele>2384.6</ele><time>2026-05-02T10:50:35.999Z</time></trkpt><trkpt lat="45.07465820767507" lon="6.81261177753737"><ele>2378.2</ele><time>2026-05-02T10:50:36.999Z</time></trkpt><trkpt lat="45.07461431323592" lon="6.812694599657935"><ele>2371.8</ele><time>2026-05-02T10:50:37.999Z</time></trkpt><trkpt lat="45.07455614706615" lon="6.812808131354632"><ele>2365.4</ele><time>2026-05-02T10:50:39.999Z</time></trkpt><trkpt lat="45.074498675868455" lon="6.812961440122079"><ele>2359.0</ele><time>2026-05-02T10:50:41.999Z</time></trkpt><trkpt lat="45.074450428312325" lon="6.813053646088284"><ele>2359.0</ele><time>2026-05-02T10:50:43.999Z</time></trkpt><trkpt lat="45.07440316559946" lon="6.813150695835922"><ele>2359.0</ele><time>2026-05-02T10:50:45.999Z</time></trkpt><trkpt lat="45.07436105695674" lon="6.813253885029648"><ele>2359.0</ele><time>2026-05-02T10:50:47.999Z</time></trkpt><trkpt lat="45.07432672390886" lon="6.813394797037092"><ele>2359.0</ele><time>2026-05-02T10:50:49.999Z</time></trkpt><trkpt lat="45.07430582658306" lon="6.813544293301591"><ele>2359.0</ele><time>2026-05-02T10:50:51.999Z</time></trkpt><trkpt lat="45.0742662092698" lon="6.813681730721629"><ele>2359.0</ele><time>2026-05-02T10:50:53.999Z</time></trkpt><trkpt lat="45.074226532034324" lon="6.813814787825333"><ele>2359.0</ele><time>2026-05-02T10:50:55.999Z</time></trkpt><trkpt lat="45.07421675748529" lon="6.813964894175003"><ele>2359.0</ele><time>2026-05-02T10:50:57.999Z</time></trkpt><trkpt lat="45.07420380663056" lon="6.814109437103057"><ele>2359.0</ele><time>2026-05-02T10:50:59.999Z</time></trkpt><trkpt lat="45.07418762274093" lon="6.814251497506334"><ele>2359.0</ele><time>2026-05-02T10:51:01.999Z</time></trkpt><trkpt lat="45.074145375003084" lon="6.8143847280167416"><ele>2359.0</ele><time>2026-05-02T10:51:03.999Z</time></trkpt><trkpt lat="45.074107927836586" lon="6.8145161703314905"><ele>2359.0</ele><time>2026-05-02T10:51:05.999Z</time></trkpt><trkpt lat="45.0740788379875" lon="6.81465753515805"><ele>2359.0</ele><time>2026-05-02T10:51:07.999Z</time></trkpt><trkpt lat="45.074058254176" lon="6.814794664258515"><ele>2359.0</ele><time>2026-05-02T10:51:09.999Z</time></trkpt><trkpt lat="45.074034428607874" lon="6.814925030257722"><ele>2359.0</ele><time>2026-05-02T10:51:11.999Z</time></trkpt><trkpt lat="45.07402000379103" lon="6.815055670983297"><ele>2351.6</ele><time>2026-05-02T10:51:13.999Z</time></trkpt><trkpt lat="45.07397280829672" lon="6.815178884148763"><ele>2344.2</ele><time>2026-05-02T10:51:15.999Z</time></trkpt><trkpt lat="45.07389575984811" lon="6.81530277374999"><ele>2336.7999999999997</ele><time>2026-05-02T10:51:17.999Z</time></trkpt><trkpt lat="45.07381285253423" lon="6.815422917946038"><ele>2329.4</ele><time>2026-05-02T10:51:19.999Z</time></trkpt><trkpt lat="45.07377315979436" lon="6.8155453428979555"><ele>2322.0</ele><time>2026-05-02T10:51:21.999Z</time></trkpt><trkpt lat="45.073789630400945" lon="6.815648847155974"><ele>2322.0</ele><time>2026-05-02T10:51:23.999Z</time></trkpt><trkpt lat="45.073851344482556" lon="6.815735858060272"><ele>2322.0</ele><time>2026-05-02T10:51:26.999Z</time></trkpt><trkpt lat="45.073926246556006" lon="6.815791569670497"><ele>2322.0</ele><time>2026-05-02T10:51:28.999Z</time></trkpt><trkpt lat="45.07398748788048" lon="6.815828231720053"><ele>2322.0</ele><time>2026-05-02T10:51:30.999Z</time></trkpt><trkpt lat="45.07405164085329" lon="6.815881176922513"><ele>2322.0</ele><time>2026-05-02T10:51:34.999Z</time></trkpt><trkpt lat="45.0741053179502" lon="6.815938825094111"><ele>2322.0</ele><time>2026-05-02T10:51:37.999Z</time></trkpt><trkpt lat="45.07415303183696" lon="6.816003982870245"><ele>2322.0</ele><time>2026-05-02T10:51:41.999Z</time></trkpt><trkpt lat="45.07409899197877" lon="6.8160529223666675"><ele>2322.0</ele><time>2026-05-02T10:51:46.999Z</time></trkpt><trkpt lat="45.07404175040579" lon="6.815986759915389"><ele>2322.0</ele><time>2026-05-02T10:51:48.999Z</time></trkpt><trkpt lat="45.07397508141563" lon="6.815934164670561"><ele>2322.0</ele><time>2026-05-02T10:51:50.999Z</time></trkpt><trkpt lat="45.073912001494634" lon="6.815889202799041"><ele>2322.0</ele><time>2026-05-02T10:51:53.999Z</time></trkpt><trkpt lat="45.0738492972308" lon="6.815877908504572"><ele>2322.0</ele><time>2026-05-02T10:51:56.999Z</time></trkpt><trkpt lat="45.073776735678685" lon="6.815873225845527"><ele>2322.0</ele><time>2026-05-02T10:52:13.999Z</time></trkpt><trkpt lat="45.07371302042811" lon="6.815846174044413"><ele>2322.0</ele><time>2026-05-02T10:52:19.999Z</time></trkpt><trkpt lat="45.073617854603754" lon="6.81583739095113"><ele>2322.0</ele><time>2026-05-02T10:52:22.999Z</time></trkpt><trkpt lat="45.073563118052775" lon="6.8155873007625605"><ele>2322.0</ele><time>2026-05-02T10:57:07.999Z</time></trkpt><trkpt lat="45.07357462645481" lon="6.815483379036374"><ele>2322.0</ele><time>2026-05-02T10:57:08.999Z</time></trkpt><trkpt lat="45.073603676872224" lon="6.815369557778057"><ele>2322.0</ele><time>2026-05-02T10:57:09.999Z</time></trkpt><trkpt lat="45.073620019319534" lon="6.815241578571413"><ele>2322.0</ele><time>2026-05-02T10:57:10.999Z</time></trkpt><trkpt lat="45.073613138272776" lon="6.815102953623843"><ele>2321.7999999999997</ele><time>2026-05-02T10:57:11.999Z</time></trkpt><trkpt lat="45.073600280117255" lon="6.8149663690249715"><ele>2321.6</ele><time>2026-05-02T10:57:12.999Z</time></trkpt><trkpt lat="45.073604562830546" lon="6.814813171456159"><ele>2321.3999999999996</ele><time>2026-05-02T10:57:13.999Z</time></trkpt><trkpt lat="45.07361531026155" lon="6.814667494030396"><ele>2321.2</ele><time>2026-05-02T10:57:14.999Z</time></trkpt><trkpt lat="45.07363657980018" lon="6.814550826761015"><ele>2321.0</ele><time>2026-05-02T10:57:15.999Z</time></trkpt><trkpt lat="45.07365805118141" lon="6.814435941702352"><ele>2320.0</ele><time>2026-05-02T10:57:16.999Z</time></trkpt><trkpt lat="45.07365915425853" lon="6.814313628334253"><ele>2319.0</ele><time>2026-05-02T10:57:17.999Z</time></trkpt><trkpt lat="45.07364178970735" lon="6.81416718723988"><ele>2318.0</ele><time>2026-05-02T10:57:18.999Z</time></trkpt><trkpt lat="45.07361298717732" lon="6.814028405352579"><ele>2317.0</ele><time>2026-05-02T10:57:19.999Z</time></trkpt><trkpt lat="45.073583803283846" lon="6.813880189361498"><ele>2316.0</ele><time>2026-05-02T10:57:20.999Z</time></trkpt><trkpt lat="45.073573650836366" lon="6.813746461340924"><ele>2316.0</ele><time>2026-05-02T10:57:21.999Z</time></trkpt><trkpt lat="45.073576594208916" lon="6.813617483176803"><ele>2316.0</ele><time>2026-05-02T10:57:22.999Z</time></trkpt><trkpt lat="45.073566534469144" lon="6.8134878323477395"><ele>2316.0</ele><time>2026-05-02T10:57:23.999Z</time></trkpt><trkpt lat="45.07356506325899" lon="6.813350100017314"><ele>2316.0</ele><time>2026-05-02T10:57:24.999Z</time></trkpt><trkpt lat="45.07357200981068" lon="6.813214383996921"><ele>2316.0</ele><time>2026-05-02T10:57:25.999Z</time></trkpt><trkpt lat="45.07356384474688" lon="6.813090641645679"><ele>2315.3333333333335</ele><time>2026-05-02T10:57:26.999Z</time></trkpt><trkpt lat="45.07354033009429" lon="6.812974552332912"><ele>2314.6666666666665</ele><time>2026-05-02T10:57:27.999Z</time></trkpt><trkpt lat="45.07354270631002" lon="6.812855873167325"><ele>2314.0</ele><time>2026-05-02T10:57:28.999Z</time></trkpt><trkpt lat="45.07355761624052" lon="6.812741899775819"><ele>2313.333333333333</ele><time>2026-05-02T10:57:29.999Z</time></trkpt><trkpt lat="45.07355051796319" lon="6.81261324054419"><ele>2312.6666666666665</ele><time>2026-05-02T10:57:30.999Z</time></trkpt><trkpt lat="45.0735739414051" lon="6.81248673116438"><ele>2312.0</ele><time>2026-05-02T10:57:31.999Z</time></trkpt><trkpt lat="45.073603934031546" lon="6.812391321307773"><ele>2310.833333333333</ele><time>2026-05-02T10:57:32.999Z</time></trkpt><trkpt lat="45.07366213612243" lon="6.812270967816129"><ele>2309.6666666666665</ele><time>2026-05-02T10:57:34.999Z</time></trkpt><trkpt lat="45.07368760450274" lon="6.812181777031441"><ele>2308.5</ele><time>2026-05-02T10:57:36.999Z</time></trkpt><trkpt lat="45.073700386296224" lon="6.812093613607824"><ele>2307.3333333333335</ele><time>2026-05-02T10:57:37.999Z</time></trkpt><trkpt lat="45.07373607532269" lon="6.81199893236667"><ele>2306.166666666667</ele><time>2026-05-02T10:57:38.999Z</time></trkpt><trkpt lat="45.07377354627727" lon="6.8119021023243125"><ele>2305.0</ele><time>2026-05-02T10:57:39.999Z</time></trkpt><trkpt lat="45.07382876628417" lon="6.8117898997497965"><ele>2302.4</ele><time>2026-05-02T10:57:40.999Z</time></trkpt><trkpt lat="45.07389640723619" lon="6.811670774049263"><ele>2299.8</ele><time>2026-05-02T10:57:41.999Z</time></trkpt><trkpt lat="45.07396221326359" lon="6.811569005674232"><ele>2297.2</ele><time>2026-05-02T10:57:42.999Z</time></trkpt><trkpt lat="45.074020797452356" lon="6.811490279676295"><ele>2294.6</ele><time>2026-05-02T10:57:43.999Z</time></trkpt><trkpt lat="45.074090936574336" lon="6.811378390796649"><ele>2292.0</ele><time>2026-05-02T10:57:45.999Z</time></trkpt><trkpt lat="45.07413988066734" lon="6.811315570869371"><ele>2296.0</ele><time>2026-05-02T10:57:46.999Z</time></trkpt><trkpt lat="45.074188980953124" lon="6.811218316004788"><ele>2300.0</ele><time>2026-05-02T10:57:47.999Z</time></trkpt><trkpt lat="45.07423168073752" lon="6.811127488209908"><ele>2304.0</ele><time>2026-05-02T10:57:48.999Z</time></trkpt><trkpt lat="45.07424012147169" lon="6.810944099602838"><ele>2308.0</ele><time>2026-05-02T10:57:50.999Z</time></trkpt><trkpt lat="45.074226680921285" lon="6.810771021304158"><ele>2312.0</ele><time>2026-05-02T10:57:52.999Z</time></trkpt><trkpt lat="45.07424514310148" lon="6.8106687476260435"><ele>2312.0</ele><time>2026-05-02T10:57:53.999Z</time></trkpt><trkpt lat="45.07425178077603" lon="6.810554717298655"><ele>2312.0</ele><time>2026-05-02T10:57:54.999Z</time></trkpt><trkpt lat="45.074221163856755" lon="6.810470695280951"><ele>2312.0</ele><time>2026-05-02T10:57:55.999Z</time></trkpt><trkpt lat="45.07415622942975" lon="6.810348479408667"><ele>2312.0</ele><time>2026-05-02T10:57:57.999Z</time></trkpt><trkpt lat="45.07419575461195" lon="6.810212916574503"><ele>2312.0</ele><time>2026-05-02T10:57:59.999Z</time></trkpt><trkpt lat="45.07425329516191" lon="6.810084440454327"><ele>2311.2</ele><time>2026-05-02T10:58:01.999Z</time></trkpt><trkpt lat="45.07431236779655" lon="6.809953694261682"><ele>2310.3999999999996</ele><time>2026-05-02T10:58:03.999Z</time></trkpt><trkpt lat="45.07439016521705" lon="6.809860209536852"><ele>2309.6000000000004</ele><time>2026-05-02T10:58:05.999Z</time></trkpt><trkpt lat="45.07446787836894" lon="6.809780670514345"><ele>2308.8</ele><time>2026-05-02T10:58:07.999Z</time></trkpt><trkpt lat="45.074505490774314" lon="6.809669408718586"><ele>2308.0</ele><time>2026-05-02T10:58:09.999Z</time></trkpt><trkpt lat="45.074449773668796" lon="6.809577999392596"><ele>2308.0</ele><time>2026-05-02T11:02:50.998Z</time></trkpt><trkpt lat="45.07439257153976" lon="6.809516134685034"><ele>2308.0</ele><time>2026-05-02T11:02:52.998Z</time></trkpt><trkpt lat="45.07433578302162" lon="6.809473599939309"><ele>2308.0</ele><time>2026-05-02T11:03:05.999Z</time></trkpt><trkpt lat="45.07428772148617" lon="6.809408007814859"><ele>2308.0</ele><time>2026-05-02T11:03:07.999Z</time></trkpt><trkpt lat="45.07423740630833" lon="6.809345750473792"><ele>2308.0</ele><time>2026-05-02T11:03:09.999Z</time></trkpt><trkpt lat="45.074173431004745" lon="6.8092441950727824"><ele>2308.0</ele><time>2026-05-02T11:03:12.999Z</time></trkpt><trkpt lat="45.07414872961792" lon="6.809151814138469"><ele>2308.0</ele><time>2026-05-02T11:03:14.999Z</time></trkpt><trkpt lat="45.07415465755455" lon="6.809041331806392"><ele>2307.8333333333335</ele><time>2026-05-02T11:03:16.999Z</time></trkpt><trkpt lat="45.07415186619145" lon="6.808938794964031"><ele>2307.666666666667</ele><time>2026-05-02T11:03:18.999Z</time></trkpt><trkpt lat="45.07413379221973" lon="6.808824906518687"><ele>2307.5</ele><time>2026-05-02T11:03:21.999Z</time></trkpt><trkpt lat="45.074103015769595" lon="6.808728680100923"><ele>2307.3333333333335</ele><time>2026-05-02T11:03:26Z</time></trkpt><trkpt lat="45.074017762382844" lon="6.808655718561212"><ele>2307.1666666666665</ele><time>2026-05-02T11:03:29Z</time></trkpt><trkpt lat="45.07394968346759" lon="6.808593096534557"><ele>2307.0</ele><time>2026-05-02T11:03:31Z</time></trkpt><trkpt lat="45.0739018023519" lon="6.808505919997595"><ele>2302.2</ele><time>2026-05-02T11:03:33Z</time></trkpt><trkpt lat="45.0738808467245" lon="6.808343904021727"><ele>2297.3999999999996</ele><time>2026-05-02T11:03:35Z</time></trkpt><trkpt lat="45.07386767312573" lon="6.808186339586846"><ele>2292.6000000000004</ele><time>2026-05-02T11:03:37Z</time></trkpt><trkpt lat="45.07381348529078" lon="6.808095663393369"><ele>2287.8</ele><time>2026-05-02T11:03:39Z</time></trkpt><trkpt lat="45.07372330055401" lon="6.808011642904343"><ele>2283.0</ele><time>2026-05-02T11:03:41Z</time></trkpt><trkpt lat="45.07364491905241" lon="6.807878793671002"><ele>2283.0000000000005</ele><time>2026-05-02T11:03:43Z</time></trkpt><trkpt lat="45.073615830958076" lon="6.807778292359748"><ele>2283.0</ele><time>2026-05-02T11:03:44Z</time></trkpt><trkpt lat="45.073584754402646" lon="6.807665667824197"><ele>2283.0</ele><time>2026-05-02T11:03:45Z</time></trkpt><trkpt lat="45.073557594608495" lon="6.807562376456286"><ele>2283.0</ele><time>2026-05-02T11:03:46Z</time></trkpt><trkpt lat="45.07353386101674" lon="6.807470095651446"><ele>2283.0</ele><time>2026-05-02T11:03:47Z</time></trkpt><trkpt lat="45.0735088627101" lon="6.8073799496848935"><ele>2283.0000000000005</ele><time>2026-05-02T11:03:48Z</time></trkpt><trkpt lat="45.073478940693334" lon="6.80729648735696"><ele>2283.0</ele><time>2026-05-02T11:03:49Z</time></trkpt><trkpt lat="45.073456541859464" lon="6.807199582430082"><ele>2284.3333333333335</ele><time>2026-05-02T11:03:50Z</time></trkpt><trkpt lat="45.07345024366928" lon="6.807081497090705"><ele>2285.6666666666665</ele><time>2026-05-02T11:03:51Z</time></trkpt><trkpt lat="45.07344950129469" lon="6.806953498383811"><ele>2287.0</ele><time>2026-05-02T11:03:52Z</time></trkpt><trkpt lat="45.07343216592745" lon="6.806816617071228"><ele>2288.333333333333</ele><time>2026-05-02T11:03:53Z</time></trkpt><trkpt lat="45.07342122188481" lon="6.806700786079393"><ele>2289.6666666666665</ele><time>2026-05-02T11:03:54Z</time></trkpt><trkpt lat="45.073425233744345" lon="6.8065933020158305"><ele>2291.0</ele><time>2026-05-02T11:03:55Z</time></trkpt><trkpt lat="45.07343872768339" lon="6.806478715389877"><ele>2291.1666666666665</ele><time>2026-05-02T11:03:56Z</time></trkpt><trkpt lat="45.073475446308805" lon="6.806354705798918"><ele>2291.333333333333</ele><time>2026-05-02T11:03:57Z</time></trkpt><trkpt lat="45.07348337973373" lon="6.806231705290825"><ele>2291.5</ele><time>2026-05-02T11:03:58Z</time></trkpt><trkpt lat="45.07347545376247" lon="6.806106030802236"><ele>2291.6666666666665</ele><time>2026-05-02T11:03:59Z</time></trkpt><trkpt lat="45.07345242030746" lon="6.805983690726187"><ele>2291.8333333333335</ele><time>2026-05-02T11:04:00Z</time></trkpt><trkpt lat="45.07341837729663" lon="6.8058773881646"><ele>2292.0</ele><time>2026-05-02T11:04:01Z</time></trkpt><trkpt lat="45.07339514719241" lon="6.805764149146555"><ele>2292.5</ele><time>2026-05-02T11:04:02Z</time></trkpt><trkpt lat="45.07337929893051" lon="6.805652665511072"><ele>2293.0</ele><time>2026-05-02T11:04:03Z</time></trkpt><trkpt lat="45.07334594395817" lon="6.8055595237154"><ele>2293.5</ele><time>2026-05-02T11:04:04Z</time></trkpt><trkpt lat="45.07329795674537" lon="6.805465268327777"><ele>2294.0</ele><time>2026-05-02T11:04:05Z</time></trkpt><trkpt lat="45.07324212176933" lon="6.805361793949895"><ele>2294.5</ele><time>2026-05-02T11:04:06Z</time></trkpt><trkpt lat="45.0731849357733" lon="6.805250055344645"><ele>2295.0</ele><time>2026-05-02T11:04:07Z</time></trkpt><trkpt lat="45.07314212737833" lon="6.805131240541146"><ele>2289.8333333333335</ele><time>2026-05-02T11:04:08Z</time></trkpt><trkpt lat="45.073104149701365" lon="6.805003557873289"><ele>2284.6666666666665</ele><time>2026-05-02T11:04:09Z</time></trkpt><trkpt lat="45.0730757533797" lon="6.804876749708769"><ele>2279.5</ele><time>2026-05-02T11:04:10Z</time></trkpt><trkpt lat="45.073034736120384" lon="6.80477431487524"><ele>2274.333333333333</ele><time>2026-05-02T11:04:11Z</time></trkpt><trkpt lat="45.07298599725716" lon="6.804692201335006"><ele>2269.1666666666665</ele><time>2026-05-02T11:04:12Z</time></trkpt><trkpt lat="45.072925125072345" lon="6.804627184393466"><ele>2264.0</ele><time>2026-05-02T11:04:13Z</time></trkpt><trkpt lat="45.072855952432356" lon="6.804554034364792"><ele>2264.0</ele><time>2026-05-02T11:04:14Z</time></trkpt><trkpt lat="45.07280872925066" lon="6.804454367902119"><ele>2264.0</ele><time>2026-05-02T11:04:15Z</time></trkpt><trkpt lat="45.072766981312476" lon="6.80434844354375"><ele>2264.0</ele><time>2026-05-02T11:04:16Z</time></trkpt><trkpt lat="45.07274431241433" lon="6.804212279273788"><ele>2264.0</ele><time>2026-05-02T11:04:17Z</time></trkpt><trkpt lat="45.07272636222462" lon="6.804077023593306"><ele>2264.0</ele><time>2026-05-02T11:04:18Z</time></trkpt><trkpt lat="45.072721998731694" lon="6.80393338281633"><ele>2265.333333333333</ele><time>2026-05-02T11:04:19Z</time></trkpt><trkpt lat="45.07272378660572" lon="6.803794963827955"><ele>2266.6666666666665</ele><time>2026-05-02T11:04:20Z</time></trkpt><trkpt lat="45.07272437867118" lon="6.803671048961565"><ele>2268.0</ele><time>2026-05-02T11:04:21Z</time></trkpt><trkpt lat="45.07272543437836" lon="6.803556043069339"><ele>2269.3333333333335</ele><time>2026-05-02T11:04:22Z</time></trkpt><trkpt lat="45.07272312105317" lon="6.803441980330241"><ele>2270.666666666667</ele><time>2026-05-02T11:04:23Z</time></trkpt><trkpt lat="45.072702883762" lon="6.8033537431069915"><ele>2272.0</ele><time>2026-05-02T11:04:24Z</time></trkpt><trkpt lat="45.072663700151104" lon="6.803282120746765"><ele>2273.0</ele><time>2026-05-02T11:04:25Z</time></trkpt><trkpt lat="45.07256933559867" lon="6.803156779694084"><ele>2274.0</ele><time>2026-05-02T11:04:27Z</time></trkpt><trkpt lat="45.07253222253294" lon="6.8030839700258054"><ele>2275.0</ele><time>2026-05-02T11:04:28Z</time></trkpt><trkpt lat="45.072502675157914" lon="6.80300223519803"><ele>2276.0</ele><time>2026-05-02T11:04:29Z</time></trkpt><trkpt lat="45.07248141077993" lon="6.802916849590076"><ele>2277.0</ele><time>2026-05-02T11:04:30Z</time></trkpt><trkpt lat="45.07243593144588" lon="6.8027582859607"><ele>2278.0</ele><time>2026-05-02T11:04:32Z</time></trkpt><trkpt lat="45.07241546580826" lon="6.802673548158589"><ele>2279.0</ele><time>2026-05-02T11:04:33.001Z</time></trkpt><trkpt lat="45.07238788913569" lon="6.802589620747014"><ele>2280.0</ele><time>2026-05-02T11:04:34.001Z</time></trkpt><trkpt lat="45.072342199647515" lon="6.802444884929113"><ele>2281.0</ele><time>2026-05-02T11:04:36.001Z</time></trkpt><trkpt lat="45.07232174060228" lon="6.802300803149457"><ele>2282.0</ele><time>2026-05-02T11:04:38.001Z</time></trkpt><trkpt lat="45.072384995674646" lon="6.802147542574264"><ele>2283.0</ele><time>2026-05-02T11:04:40.001Z</time></trkpt><trkpt lat="45.072478364057005" lon="6.802014689350372"><ele>2283.0</ele><time>2026-05-02T11:04:42.001Z</time></trkpt><trkpt lat="45.07252841170713" lon="6.801941217903937"><ele>2283.0</ele><time>2026-05-02T11:04:43.001Z</time></trkpt><trkpt lat="45.07258419337714" lon="6.801881550864675"><ele>2283.0</ele><time>2026-05-02T11:04:44.001Z</time></trkpt><trkpt lat="45.07264681676298" lon="6.801841247857817"><ele>2283.0</ele><time>2026-05-02T11:04:45.001Z</time></trkpt><trkpt lat="45.07272367084522" lon="6.801823692400377"><ele>2283.0</ele><time>2026-05-02T11:04:46.001Z</time></trkpt><trkpt lat="45.072795613139846" lon="6.801800603563545"><ele>2283.0</ele><time>2026-05-02T11:04:47.001Z</time></trkpt><trkpt lat="45.07291608895942" lon="6.801762774396438"><ele>2285.0</ele><time>2026-05-02T11:04:49.001Z</time></trkpt><trkpt lat="45.07298032765418" lon="6.801707464715552"><ele>2287.0</ele><time>2026-05-02T11:04:50.001Z</time></trkpt><trkpt lat="45.073053518338256" lon="6.801631110779084"><ele>2289.0</ele><time>2026-05-02T11:04:51.001Z</time></trkpt><trkpt lat="45.073133796603" lon="6.801519576999829"><ele>2291.0</ele><time>2026-05-02T11:04:52.001Z</time></trkpt><trkpt lat="45.07320119987757" lon="6.801417134702484"><ele>2293.0</ele><time>2026-05-02T11:04:53.001Z</time></trkpt><trkpt lat="45.07325613085575" lon="6.8013546543375085"><ele>2295.0</ele><time>2026-05-02T11:04:54.001Z</time></trkpt><trkpt lat="45.073322007866835" lon="6.801286964405189"><ele>2295.0</ele><time>2026-05-02T11:04:55.999Z</time></trkpt><trkpt lat="45.073441469671494" lon="6.801182050940503"><ele>2295.0</ele><time>2026-05-02T11:04:57.999Z</time></trkpt><trkpt lat="45.07352490631803" lon="6.801122342273852"><ele>2295.0</ele><time>2026-05-02T11:04:58.999Z</time></trkpt><trkpt lat="45.07360295363311" lon="6.801022324418039"><ele>2295.0</ele><time>2026-05-02T11:04:59.999Z</time></trkpt><trkpt lat="45.07369708205461" lon="6.800910977402958"><ele>2289.0</ele><time>2026-05-02T11:05:00.999Z</time></trkpt><trkpt lat="45.07376879856318" lon="6.800821554148481"><ele>2283.0</ele><time>2026-05-02T11:05:01.999Z</time></trkpt><trkpt lat="45.07383548637997" lon="6.800753584469323"><ele>2277.0</ele><time>2026-05-02T11:05:02.999Z</time></trkpt><trkpt lat="45.073882884548176" lon="6.800666830269178"><ele>2271.0</ele><time>2026-05-02T11:05:03.999Z</time></trkpt><trkpt lat="45.07392887318246" lon="6.800601859031746"><ele>2265.0</ele><time>2026-05-02T11:05:04.999Z</time></trkpt><trkpt lat="45.073991907285546" lon="6.800568537676685"><ele>2259.0</ele><time>2026-05-02T11:05:05.999Z</time></trkpt><trkpt lat="45.07406297465424" lon="6.800545987993097"><ele>2258.6</ele><time>2026-05-02T11:05:06.999Z</time></trkpt><trkpt lat="45.07413004872111" lon="6.80050187527063"><ele>2258.2</ele><time>2026-05-02T11:05:07.999Z</time></trkpt><trkpt lat="45.074202195328226" lon="6.8003870269778925"><ele>2257.7999999999997</ele><time>2026-05-02T11:05:09.999Z</time></trkpt><trkpt lat="45.074261550998486" lon="6.800241536841079"><ele>2257.4</ele><time>2026-05-02T11:05:11.999Z</time></trkpt><trkpt lat="45.07431036923141" lon="6.800130713951263"><ele>2257.0</ele><time>2026-05-02T11:05:13.999Z</time></trkpt><trkpt lat="45.07441126832809" lon="6.800056002833458"><ele>2257.0</ele><time>2026-05-02T11:05:15.999Z</time></trkpt><trkpt lat="45.07447544285508" lon="6.8000120865362055"><ele>2257.0</ele><time>2026-05-02T11:05:16.999Z</time></trkpt><trkpt lat="45.074533189964434" lon="6.799972910099327"><ele>2257.0</ele><time>2026-05-02T11:05:18Z</time></trkpt><trkpt lat="45.074614601601034" lon="6.799908385954694"><ele>2257.0</ele><time>2026-05-02T11:05:20Z</time></trkpt><trkpt lat="45.07461915215861" lon="6.799804361013671"><ele>2257.0</ele><time>2026-05-02T11:05:22Z</time></trkpt><trkpt lat="45.0745715972373" lon="6.799653336920612"><ele>2257.0</ele><time>2026-05-02T11:05:24Z</time></trkpt><trkpt lat="45.074522548061125" lon="6.799574720490653"><ele>2257.0</ele><time>2026-05-02T11:05:25Z</time></trkpt><trkpt lat="45.07447438862284" lon="6.799500162358495"><ele>2257.0</ele><time>2026-05-02T11:05:26Z</time></trkpt><trkpt lat="45.074428503182794" lon="6.799418739765355"><ele>2257.0</ele><time>2026-05-02T11:05:27Z</time></trkpt><trkpt lat="45.07437171101269" lon="6.79929925455575"><ele>2257.0</ele><time>2026-05-02T11:05:29Z</time></trkpt><trkpt lat="45.07433049302767" lon="6.799181153176498"><ele>2257.0</ele><time>2026-05-02T11:05:31Z</time></trkpt><trkpt lat="45.07427911701526" lon="6.799074788777402"><ele>2257.0</ele><time>2026-05-02T11:05:33Z</time></trkpt><trkpt lat="45.07424163062637" lon="6.798977294879929"><ele>2256.166666666667</ele><time>2026-05-02T11:05:35Z</time></trkpt><trkpt lat="45.07426534511532" lon="6.798862345516421"><ele>2255.3333333333335</ele><time>2026-05-02T11:05:38Z</time></trkpt><trkpt lat="45.07433252416826" lon="6.798785490418972"><ele>2254.5</ele><time>2026-05-02T11:05:40Z</time></trkpt><trkpt lat="45.07439237541798" lon="6.7987071731964095"><ele>2253.6666666666665</ele><time>2026-05-02T11:05:42Z</time></trkpt><trkpt lat="45.07446979004187" lon="6.798652715064668"><ele>2252.833333333333</ele><time>2026-05-02T11:05:44Z</time></trkpt><trkpt lat="45.07456019948673" lon="6.7985886206797606"><ele>2252.0</ele><time>2026-05-02T11:05:46Z</time></trkpt><trkpt lat="45.07460546789747" lon="6.79850995521645"><ele>2252.6</ele><time>2026-05-02T11:05:48Z</time></trkpt><trkpt lat="45.07458467626923" lon="6.7983821066179315"><ele>2253.2</ele><time>2026-05-02T11:05:50Z</time></trkpt><trkpt lat="45.0745356178659" lon="6.79824740708585"><ele>2253.8</ele><time>2026-05-02T11:05:52Z</time></trkpt><trkpt lat="45.07446183625977" lon="6.798140534199479"><ele>2254.4</ele><time>2026-05-02T11:05:54Z</time></trkpt><trkpt lat="45.074398612737724" lon="6.798071135694282"><ele>2255.0</ele><time>2026-05-02T11:05:55Z</time></trkpt><trkpt lat="45.07432694471829" lon="6.797980882207307"><ele>2255.0</ele><time>2026-05-02T11:05:56Z</time></trkpt><trkpt lat="45.07428189803888" lon="6.797862496609569"><ele>2255.0</ele><time>2026-05-02T11:05:57Z</time></trkpt><trkpt lat="45.07423257128995" lon="6.797739361865062"><ele>2255.0</ele><time>2026-05-02T11:05:58Z</time></trkpt><trkpt lat="45.074178942956905" lon="6.797623348766787"><ele>2255.0</ele><time>2026-05-02T11:05:59Z</time></trkpt><trkpt lat="45.07410443937607" lon="6.797511749610062"><ele>2255.0</ele><time>2026-05-02T11:06:00Z</time></trkpt><trkpt lat="45.07403363577463" lon="6.7973910422487265"><ele>2248.8</ele><time>2026-05-02T11:06:01Z</time></trkpt><trkpt lat="45.07396184972717" lon="6.797277559647972"><ele>2242.6</ele><time>2026-05-02T11:06:02Z</time></trkpt><trkpt lat="45.07389376839151" lon="6.79718173963422"><ele>2236.4</ele><time>2026-05-02T11:06:03Z</time></trkpt><trkpt lat="45.07382171934782" lon="6.797090630696633"><ele>2230.2</ele><time>2026-05-02T11:06:04.001Z</time></trkpt><trkpt lat="45.07375390991659" lon="6.797012245069652"><ele>2224.0</ele><time>2026-05-02T11:06:05.001Z</time></trkpt><trkpt lat="45.073685794206696" lon="6.796955806415353"><ele>2224.0</ele><time>2026-05-02T11:06:06.001Z</time></trkpt><trkpt lat="45.073590829765664" lon="6.796866577778388"><ele>2224.0</ele><time>2026-05-02T11:06:08.001Z</time></trkpt><trkpt lat="45.073545694093966" lon="6.796778796461319"><ele>2224.0</ele><time>2026-05-02T11:06:09.001Z</time></trkpt><trkpt lat="45.073529825401025" lon="6.796666567831004"><ele>2224.0</ele><time>2026-05-02T11:06:10.001Z</time></trkpt><trkpt lat="45.07352009204646" lon="6.7965492669915255"><ele>2224.0</ele><time>2026-05-02T11:06:11.001Z</time></trkpt><trkpt lat="45.07351639704309" lon="6.796437846292637"><ele>2224.0</ele><time>2026-05-02T11:06:12.001Z</time></trkpt><trkpt lat="45.073516914011684" lon="6.796328109210883"><ele>2227.4</ele><time>2026-05-02T11:06:13.001Z</time></trkpt><trkpt lat="45.07354421034307" lon="6.796206098830488"><ele>2230.8</ele><time>2026-05-02T11:06:14.001Z</time></trkpt><trkpt lat="45.07357811910977" lon="6.796085453172627"><ele>2234.2</ele><time>2026-05-02T11:06:15.001Z</time></trkpt><trkpt lat="45.07361718894168" lon="6.795971296215878"><ele>2237.6</ele><time>2026-05-02T11:06:16.001Z</time></trkpt><trkpt lat="45.07368065003028" lon="6.795849774515495"><ele>2241.0</ele><time>2026-05-02T11:06:17.001Z</time></trkpt><trkpt lat="45.0737311457303" lon="6.795735709483976"><ele>2241.0</ele><time>2026-05-02T11:06:18.001Z</time></trkpt><trkpt lat="45.073784573094734" lon="6.7956305627779585"><ele>2241.0</ele><time>2026-05-02T11:06:19.001Z</time></trkpt><trkpt lat="45.07384804156077" lon="6.795527978119684"><ele>2241.0</ele><time>2026-05-02T11:06:20.001Z</time></trkpt><trkpt lat="45.07390570402123" lon="6.795420914540178"><ele>2241.0</ele><time>2026-05-02T11:06:21.001Z</time></trkpt><trkpt lat="45.0739884737996" lon="6.795346406533247"><ele>2241.0</ele><time>2026-05-02T11:06:22.001Z</time></trkpt><trkpt lat="45.07405507515585" lon="6.795303571772057"><ele>2241.0</ele><time>2026-05-02T11:06:23.001Z</time></trkpt><trkpt lat="45.07410499795783" lon="6.79520314837979"><ele>2241.0</ele><time>2026-05-02T11:06:25.001Z</time></trkpt><trkpt lat="45.074090621992" lon="6.795098129787053"><ele>2241.0</ele><time>2026-05-02T11:06:27.001Z</time></trkpt><trkpt lat="45.074059839987235" lon="6.794998164517311"><ele>2241.0</ele><time>2026-05-02T11:06:29.001Z</time></trkpt><trkpt lat="45.07402098462818" lon="6.794891637849867"><ele>2241.0</ele><time>2026-05-02T11:06:32.001Z</time></trkpt><trkpt lat="45.07397929055472" lon="6.7947723524324095"><ele>2241.0</ele><time>2026-05-02T11:06:35.001Z</time></trkpt><trkpt lat="45.07398516481762" lon="6.794678765196656"><ele>2237.6</ele><time>2026-05-02T11:06:37.001Z</time></trkpt><trkpt lat="45.07399175007969" lon="6.794560075963295"><ele>2234.2</ele><time>2026-05-02T11:06:39.001Z</time></trkpt><trkpt lat="45.073958655245754" lon="6.794429924031782"><ele>2230.8</ele><time>2026-05-02T11:06:41.001Z</time></trkpt><trkpt lat="45.07389334838652" lon="6.7943146875627916"><ele>2227.4</ele><time>2026-05-02T11:06:43.001Z</time></trkpt><trkpt lat="45.0738256664411" lon="6.794185947239399"><ele>2224.0</ele><time>2026-05-02T11:06:45.001Z</time></trkpt><trkpt lat="45.073788249896886" lon="6.794041089593951"><ele>2224.0</ele><time>2026-05-02T11:06:47.001Z</time></trkpt><trkpt lat="45.07375149271312" lon="6.793882149298194"><ele>2224.0</ele><time>2026-05-02T11:06:49.001Z</time></trkpt><trkpt lat="45.07373784667792" lon="6.793794354761906"><ele>2224.0</ele><time>2026-05-02T11:06:50.001Z</time></trkpt><trkpt lat="45.07372476379009" lon="6.79370696016582"><ele>2224.0</ele><time>2026-05-02T11:06:51.001Z</time></trkpt><trkpt lat="45.07371244698403" lon="6.7935519349015445"><ele>2224.0</ele><time>2026-05-02T11:06:53.001Z</time></trkpt><trkpt lat="45.07370181466355" lon="6.793389222243565"><ele>2226.6</ele><time>2026-05-02T11:06:55.001Z</time></trkpt><trkpt lat="45.07370109442746" lon="6.793226309176351"><ele>2229.2</ele><time>2026-05-02T11:06:57.001Z</time></trkpt><trkpt lat="45.07370019212158" lon="6.793057354353585"><ele>2231.7999999999997</ele><time>2026-05-02T11:06:59.001Z</time></trkpt><trkpt lat="45.07367168730969" lon="6.792881374402898"><ele>2234.4</ele><time>2026-05-02T11:07:01Z</time></trkpt><trkpt lat="45.07363848396077" lon="6.7927930889731"><ele>2237.0</ele><time>2026-05-02T11:07:02Z</time></trkpt><trkpt lat="45.07360492248064" lon="6.792633294933255"><ele>2237.2</ele><time>2026-05-02T11:07:04Z</time></trkpt><trkpt lat="45.073624728381766" lon="6.792479214930661"><ele>2237.3999999999996</ele><time>2026-05-02T11:07:06Z</time></trkpt><trkpt lat="45.07362991137466" lon="6.792304205910915"><ele>2237.6000000000004</ele><time>2026-05-02T11:07:08Z</time></trkpt><trkpt lat="45.07361120741191" lon="6.792204026370186"><ele>2237.8</ele><time>2026-05-02T11:07:09Z</time></trkpt><trkpt lat="45.073595798671555" lon="6.792102274539092"><ele>2238.0</ele><time>2026-05-02T11:07:10Z</time></trkpt><trkpt lat="45.07358090139967" lon="6.792002210916173"><ele>2238.0</ele><time>2026-05-02T11:07:11Z</time></trkpt><trkpt lat="45.07357087910599" lon="6.791899758425543"><ele>2238.0</ele><time>2026-05-02T11:07:12Z</time></trkpt><trkpt lat="45.07357191750213" lon="6.791785906827557"><ele>2238.0</ele><time>2026-05-02T11:07:13Z</time></trkpt><trkpt lat="45.073565690292156" lon="6.791679491838849"><ele>2238.0</ele><time>2026-05-02T11:07:14Z</time></trkpt><trkpt lat="45.07354749084385" lon="6.791574192791819"><ele>2238.0</ele><time>2026-05-02T11:07:15Z</time></trkpt><trkpt lat="45.073525181756956" lon="6.791472574582481"><ele>2238.0</ele><time>2026-05-02T11:07:16Z</time></trkpt><trkpt lat="45.07350776039607" lon="6.7913723545282"><ele>2238.6666666666665</ele><time>2026-05-02T11:07:17Z</time></trkpt><trkpt lat="45.073497416591586" lon="6.791264196649803"><ele>2239.3333333333335</ele><time>2026-05-02T11:07:18Z</time></trkpt><trkpt lat="45.07348577684501" lon="6.791163087031975"><ele>2240.0</ele><time>2026-05-02T11:07:19Z</time></trkpt><trkpt lat="45.073459538958616" lon="6.791077436908268"><ele>2240.666666666667</ele><time>2026-05-02T11:07:20Z</time></trkpt><trkpt lat="45.07341541557704" lon="6.791008409608773"><ele>2241.3333333333335</ele><time>2026-05-02T11:07:21Z</time></trkpt><trkpt lat="45.07332642266772" lon="6.790892791798412"><ele>2242.0</ele><time>2026-05-02T11:07:23Z</time></trkpt><trkpt lat="45.07327087126078" lon="6.790714362638967"><ele>2237.4</ele><time>2026-05-02T11:07:25Z</time></trkpt><trkpt lat="45.073245996437976" lon="6.790586886000513"><ele>2232.7999999999997</ele><time>2026-05-02T11:07:26Z</time></trkpt><trkpt lat="45.0732146923378" lon="6.790437738215381"><ele>2228.2</ele><time>2026-05-02T11:07:27Z</time></trkpt><trkpt lat="45.073177727790615" lon="6.790298023100092"><ele>2223.6</ele><time>2026-05-02T11:07:28Z</time></trkpt><trkpt lat="45.07311944065759" lon="6.790164166375422"><ele>2219.0</ele><time>2026-05-02T11:07:29Z</time></trkpt><trkpt lat="45.07306386750135" lon="6.7900391443868475"><ele>2219.0</ele><time>2026-05-02T11:07:30Z</time></trkpt><trkpt lat="45.073031420437246" lon="6.789908505121629"><ele>2219.0</ele><time>2026-05-02T11:07:31Z</time></trkpt><trkpt lat="45.073000631215294" lon="6.789762075384661"><ele>2219.0</ele><time>2026-05-02T11:07:32Z</time></trkpt><trkpt lat="45.07297352641153" lon="6.789625872347705"><ele>2219.0</ele><time>2026-05-02T11:07:33Z</time></trkpt><trkpt lat="45.07294731458942" lon="6.789507065471741"><ele>2219.0</ele><time>2026-05-02T11:07:34Z</time></trkpt><trkpt lat="45.07292030214517" lon="6.789378504159065"><ele>2221.0</ele><time>2026-05-02T11:07:35Z</time></trkpt><trkpt lat="45.072902207955515" lon="6.789231826652275"><ele>2223.0</ele><time>2026-05-02T11:07:36Z</time></trkpt><trkpt lat="45.07289086630384" lon="6.789068757309056"><ele>2225.0</ele><time>2026-05-02T11:07:37Z</time></trkpt><trkpt lat="45.0728801794195" lon="6.7889012467969"><ele>2227.0</ele><time>2026-05-02T11:07:38Z</time></trkpt><trkpt lat="45.072871047641556" lon="6.788729476428618"><ele>2227.0</ele><time>2026-05-02T11:07:39Z</time></trkpt><trkpt lat="45.07287213738825" lon="6.788559225537583"><ele>2227.0</ele><time>2026-05-02T11:07:40Z</time></trkpt><trkpt lat="45.07286959314624" lon="6.788391497392205"><ele>2227.0</ele><time>2026-05-02T11:07:41Z</time></trkpt><trkpt lat="45.07286982274182" lon="6.788238268468176"><ele>2227.0</ele><time>2026-05-02T11:07:42Z</time></trkpt><trkpt lat="45.07286962790798" lon="6.788102909738398"><ele>2227.0</ele><time>2026-05-02T11:07:43Z</time></trkpt><trkpt lat="45.07288348505382" lon="6.7879674994115025"><ele>2226.75</ele><time>2026-05-02T11:07:44Z</time></trkpt><trkpt lat="45.072904241848974" lon="6.7878156573629855"><ele>2226.5</ele><time>2026-05-02T11:07:45Z</time></trkpt><trkpt lat="45.07293253360245" lon="6.787666074246349"><ele>2226.25</ele><time>2026-05-02T11:07:46Z</time></trkpt><trkpt lat="45.072955479574176" lon="6.787505970967898"><ele>2226.0</ele><time>2026-05-02T11:07:47Z</time></trkpt><trkpt lat="45.07298272109676" lon="6.787342449236245"><ele>2225.0</ele><time>2026-05-02T11:07:48.001Z</time></trkpt><trkpt lat="45.07301024725315" lon="6.787182776296561"><ele>2224.0</ele><time>2026-05-02T11:07:49.001Z</time></trkpt><trkpt lat="45.073031131654304" lon="6.787020958932093"><ele>2223.0</ele><time>2026-05-02T11:07:50.001Z</time></trkpt><trkpt lat="45.07304096865867" lon="6.786863812744115"><ele>2222.0</ele><time>2026-05-02T11:07:51.001Z</time></trkpt><trkpt lat="45.073054663213306" lon="6.786712413881377"><ele>2220.0</ele><time>2026-05-02T11:07:52.001Z</time></trkpt><trkpt lat="45.073083226121895" lon="6.786578952058457"><ele>2218.0</ele><time>2026-05-02T11:07:53.001Z</time></trkpt><trkpt lat="45.07311614610066" lon="6.786431688309062"><ele>2216.0</ele><time>2026-05-02T11:07:54.001Z</time></trkpt><trkpt lat="45.073139260352555" lon="6.786272467783514"><ele>2214.0</ele><time>2026-05-02T11:07:55.001Z</time></trkpt><trkpt lat="45.07315605717988" lon="6.786112774304664"><ele>2212.0</ele><time>2026-05-02T11:07:56.001Z</time></trkpt><trkpt lat="45.07318115777881" lon="6.785959686465292"><ele>2209.7999999999997</ele><time>2026-05-02T11:07:57.001Z</time></trkpt><trkpt lat="45.07323227509004" lon="6.785807482848114"><ele>2207.6</ele><time>2026-05-02T11:07:58.001Z</time></trkpt><trkpt lat="45.07326902851589" lon="6.785666171721865"><ele>2205.3999999999996</ele><time>2026-05-02T11:07:59.001Z</time></trkpt><trkpt lat="45.0733098910948" lon="6.785526066030401"><ele>2203.2</ele><time>2026-05-02T11:08:00.001Z</time></trkpt><trkpt lat="45.07334955456335" lon="6.785415571442027"><ele>2201.0</ele><time>2026-05-02T11:08:01.001Z</time></trkpt><trkpt lat="45.07338107230833" lon="6.785324661417232"><ele>2205.833333333333</ele><time>2026-05-02T11:08:02.001Z</time></trkpt><trkpt lat="45.07343752065912" lon="6.785170819413067"><ele>2210.6666666666665</ele><time>2026-05-02T11:08:04.001Z</time></trkpt><trkpt lat="45.07346399850223" lon="6.785069001394561"><ele>2215.5</ele><time>2026-05-02T11:08:06.001Z</time></trkpt><trkpt lat="45.07348930336387" lon="6.784971379408982"><ele>2220.3333333333335</ele><time>2026-05-02T11:08:08.001Z</time></trkpt><trkpt lat="45.07352749020732" lon="6.784856289846023"><ele>2225.166666666667</ele><time>2026-05-02T11:08:10.001Z</time></trkpt><trkpt lat="45.073582070832046" lon="6.784791187297872"><ele>2230.0</ele><time>2026-05-02T11:08:11.001Z</time></trkpt><trkpt lat="45.07363241447904" lon="6.784728643407076"><ele>2230.0</ele><time>2026-05-02T11:08:12.001Z</time></trkpt><trkpt lat="45.07369261688906" lon="6.7846799439083885"><ele>2230.0</ele><time>2026-05-02T11:08:13.001Z</time></trkpt><trkpt lat="45.07376141990731" lon="6.784649958727909"><ele>2230.0</ele><time>2026-05-02T11:08:14.001Z</time></trkpt><trkpt lat="45.07382079973072" lon="6.784588359430213"><ele>2230.0</ele><time>2026-05-02T11:08:15.001Z</time></trkpt><trkpt lat="45.07388199340168" lon="6.784529443987757"><ele>2230.0</ele><time>2026-05-02T11:08:16.001Z</time></trkpt><trkpt lat="45.07393238043727" lon="6.784455242914919"><ele>2230.0</ele><time>2026-05-02T11:08:17.001Z</time></trkpt><trkpt lat="45.07397071714471" lon="6.784374073614708"><ele>2230.0</ele><time>2026-05-02T11:08:18.001Z</time></trkpt><trkpt lat="45.0739902824689" lon="6.784266480693026"><ele>2227.5</ele><time>2026-05-02T11:08:19.001Z</time></trkpt><trkpt lat="45.07400303707211" lon="6.784164013755436"><ele>2225.0</ele><time>2026-05-02T11:08:20.001Z</time></trkpt><trkpt lat="45.07400494441925" lon="6.784049018667332"><ele>2222.5</ele><time>2026-05-02T11:08:21.001Z</time></trkpt><trkpt lat="45.07401381104569" lon="6.783946380483523"><ele>2220.0</ele><time>2026-05-02T11:08:22.001Z</time></trkpt><trkpt lat="45.074084718157316" lon="6.783807001045439"><ele>2217.5</ele><time>2026-05-02T11:08:24.001Z</time></trkpt><trkpt lat="45.07411227375929" lon="6.7836942346644875"><ele>2215.0</ele><time>2026-05-02T11:08:25.001Z</time></trkpt><trkpt lat="45.07412022889237" lon="6.783573012566661"><ele>2218.4</ele><time>2026-05-02T11:08:26.001Z</time></trkpt><trkpt lat="45.07413947833875" lon="6.783466875521541"><ele>2221.8</ele><time>2026-05-02T11:08:27.001Z</time></trkpt><trkpt lat="45.07422917441163" lon="6.78336028602181"><ele>2225.2</ele><time>2026-05-02T11:08:29.001Z</time></trkpt><trkpt lat="45.07430108314941" lon="6.783308359611745"><ele>2228.6</ele><time>2026-05-02T11:08:30.001Z</time></trkpt><trkpt lat="45.07437077641246" lon="6.7832420564896525"><ele>2232.0</ele><time>2026-05-02T11:08:31.001Z</time></trkpt><trkpt lat="45.07445347974125" lon="6.7831734603248295"><ele>2232.0</ele><time>2026-05-02T11:08:32.001Z</time></trkpt><trkpt lat="45.07453223322311" lon="6.783116684801377"><ele>2232.0</ele><time>2026-05-02T11:08:33.001Z</time></trkpt><trkpt lat="45.07459354277871" lon="6.7830626901644635"><ele>2232.0</ele><time>2026-05-02T11:08:34.001Z</time></trkpt><trkpt lat="45.074616159104586" lon="6.782969408121705"><ele>2232.0</ele><time>2026-05-02T11:08:35.001Z</time></trkpt><trkpt lat="45.074615821923764" lon="6.782856624176696"><ele>2232.0</ele><time>2026-05-02T11:08:36.001Z</time></trkpt><trkpt lat="45.0746055666341" lon="6.782756707937628"><ele>2232.0</ele><time>2026-05-02T11:08:37.001Z</time></trkpt><trkpt lat="45.07460585902439" lon="6.782655550031573"><ele>2228.6</ele><time>2026-05-02T11:08:39.001Z</time></trkpt><trkpt lat="45.07467324244553" lon="6.782515408875729"><ele>2225.2</ele><time>2026-05-02T11:08:42.001Z</time></trkpt><trkpt lat="45.07473280797256" lon="6.782441657205403"><ele>2221.8</ele><time>2026-05-02T11:08:43.001Z</time></trkpt><trkpt lat="45.07478580709924" lon="6.782375917761778"><ele>2218.4</ele><time>2026-05-02T11:08:44.001Z</time></trkpt><trkpt lat="45.074827469348094" lon="6.782224570499164"><ele>2215.0</ele><time>2026-05-02T11:08:46.001Z</time></trkpt><trkpt lat="45.074879229140535" lon="6.7821057360839205"><ele>2219.0</ele><time>2026-05-02T11:08:48.001Z</time></trkpt><trkpt lat="45.07495612508676" lon="6.78201012259691"><ele>2223.0</ele><time>2026-05-02T11:08:50.002Z</time></trkpt><trkpt lat="45.075020776103415" lon="6.781904926842067"><ele>2227.0</ele><time>2026-05-02T11:08:52.002Z</time></trkpt><trkpt lat="45.07506987438993" lon="6.7817876709107905"><ele>2231.0</ele><time>2026-05-02T11:08:54.002Z</time></trkpt><trkpt lat="45.07509430281829" lon="6.781645981953773"><ele>2235.0</ele><time>2026-05-02T11:08:56.002Z</time></trkpt><trkpt lat="45.075122692341225" lon="6.781500347598886"><ele>2235.0</ele><time>2026-05-02T11:08:58.002Z</time></trkpt><trkpt lat="45.07513980626204" lon="6.781336488729276"><ele>2235.0</ele><time>2026-05-02T11:09:00.002Z</time></trkpt><trkpt lat="45.07514889638942" lon="6.781170969433592"><ele>2235.0</ele><time>2026-05-02T11:09:02.002Z</time></trkpt><trkpt lat="45.07516957351882" lon="6.781020975285185"><ele>2235.0</ele><time>2026-05-02T11:09:04.002Z</time></trkpt><trkpt lat="45.0751898959224" lon="6.780868626656608"><ele>2233.4285714285716</ele><time>2026-05-02T11:09:06.002Z</time></trkpt><trkpt lat="45.07520748339669" lon="6.780777861219735"><ele>2231.8571428571427</ele><time>2026-05-02T11:09:07.001Z</time></trkpt><trkpt lat="45.075219116437" lon="6.780687019819862"><ele>2230.285714285714</ele><time>2026-05-02T11:09:08.001Z</time></trkpt><trkpt lat="45.07523248631426" lon="6.780599480364387"><ele>2228.714285714286</ele><time>2026-05-02T11:09:09.001Z</time></trkpt><trkpt lat="45.07523621772557" lon="6.7805017342355836"><ele>2227.1428571428573</ele><time>2026-05-02T11:09:10.001Z</time></trkpt><trkpt lat="45.07521650757592" lon="6.780380198709296"><ele>2225.5714285714284</ele><time>2026-05-02T11:09:11.001Z</time></trkpt><trkpt lat="45.07519195549957" lon="6.7802582266309"><ele>2224.0</ele><time>2026-05-02T11:09:12.001Z</time></trkpt><trkpt lat="45.07517353647343" lon="6.780123098172398"><ele>2224.0</ele><time>2026-05-02T11:09:13.001Z</time></trkpt><trkpt lat="45.075169416744586" lon="6.77999771120053"><ele>2224.0</ele><time>2026-05-02T11:09:14.001Z</time></trkpt><trkpt lat="45.07517720283691" lon="6.779889716148116"><ele>2224.0</ele><time>2026-05-02T11:09:15.001Z</time></trkpt><trkpt lat="45.0751933385706" lon="6.779773803969257"><ele>2224.0</ele><time>2026-05-02T11:09:16.001Z</time></trkpt><trkpt lat="45.07522433299827" lon="6.7796594867241895"><ele>2224.0</ele><time>2026-05-02T11:09:17.001Z</time></trkpt><trkpt lat="45.07524760080304" lon="6.779562642013937"><ele>2224.0</ele><time>2026-05-02T11:09:18.001Z</time></trkpt><trkpt lat="45.07519876288366" lon="6.779397348494906"><ele>2225.5</ele><time>2026-05-02T11:09:20.001Z</time></trkpt><trkpt lat="45.075135078645495" lon="6.779316411978351"><ele>2227.0</ele><time>2026-05-02T11:09:21.001Z</time></trkpt><trkpt lat="45.07505281030198" lon="6.7792408624742"><ele>2228.5</ele><time>2026-05-02T11:09:22.001Z</time></trkpt><trkpt lat="45.07500127864289" lon="6.779154377190398"><ele>2230.0</ele><time>2026-05-02T11:09:23.001Z</time></trkpt><trkpt lat="45.074975798498045" lon="6.779041819364468"><ele>2231.5</ele><time>2026-05-02T11:09:24.001Z</time></trkpt><trkpt lat="45.07496214696827" lon="6.778904850418594"><ele>2233.0</ele><time>2026-05-02T11:09:25.001Z</time></trkpt><trkpt lat="45.07495794629762" lon="6.778794827612174"><ele>2233.0</ele><time>2026-05-02T11:09:26.001Z</time></trkpt><trkpt lat="45.07496940129432" lon="6.778695353108768"><ele>2233.0</ele><time>2026-05-02T11:09:27.001Z</time></trkpt><trkpt lat="45.075007854816036" lon="6.778592602733659"><ele>2233.0</ele><time>2026-05-02T11:09:28.001Z</time></trkpt><trkpt lat="45.0750542765603" lon="6.7785020175262645"><ele>2233.0</ele><time>2026-05-02T11:09:29.001Z</time></trkpt><trkpt lat="45.07509373290423" lon="6.778428758104567"><ele>2233.0</ele><time>2026-05-02T11:09:30.001Z</time></trkpt><trkpt lat="45.075155745986464" lon="6.778303772877252"><ele>2233.0</ele><time>2026-05-02T11:09:32.001Z</time></trkpt><trkpt lat="45.0752099287332" lon="6.7781891947780455"><ele>2232.3333333333335</ele><time>2026-05-02T11:09:34.001Z</time></trkpt><trkpt lat="45.07524316929674" lon="6.778098276435937"><ele>2231.666666666667</ele><time>2026-05-02T11:09:36.001Z</time></trkpt><trkpt lat="45.07527373894303" lon="6.778013721764739"><ele>2231.0</ele><time>2026-05-02T11:09:39.001Z</time></trkpt><trkpt lat="45.075296943798556" lon="6.777930264458147"><ele>2230.3333333333335</ele><time>2026-05-02T11:10:31.001Z</time></trkpt><trkpt lat="45.075349598071476" lon="6.777878807426762"><ele>2229.6666666666665</ele><time>2026-05-02T11:12:39.001Z</time></trkpt><trkpt lat="45.07527248489643" lon="6.777831155535861"><ele>2229.0</ele><time>2026-05-02T11:13:46.001Z</time></trkpt><trkpt lat="45.07516761278953" lon="6.777820829357603"><ele>2229.0</ele><time>2026-05-02T11:13:48.001Z</time></trkpt><trkpt lat="45.07508271203071" lon="6.777808992483768"><ele>2229.0</ele><time>2026-05-02T11:13:51.001Z</time></trkpt><trkpt lat="45.075010636651484" lon="6.777763886663928"><ele>2229.0</ele><time>2026-05-02T11:13:53.001Z</time></trkpt><trkpt lat="45.07496974465109" lon="6.777694838404782"><ele>2229.0</ele><time>2026-05-02T11:13:55.001Z</time></trkpt><trkpt lat="45.074944201657054" lon="6.77760186428998"><ele>2229.0</ele><time>2026-05-02T11:14:16.001Z</time></trkpt><trkpt lat="45.074913582296446" lon="6.77752207740455"><ele>2229.0</ele><time>2026-05-02T11:14:18.001Z</time></trkpt><trkpt lat="45.074943681400455" lon="6.777606437254641"><ele>2229.0</ele><time>2026-05-02T11:15:47.001Z</time></trkpt><trkpt lat="45.07490119213667" lon="6.777535641495098"><ele>2223.6666666666665</ele><time>2026-05-02T11:16:38.001Z</time></trkpt><trkpt lat="45.07485865555218" lon="6.777432511583678"><ele>2218.3333333333335</ele><time>2026-05-02T11:17:56Z</time></trkpt><trkpt lat="45.07479958169853" lon="6.777348706003833"><ele>2213.0</ele><time>2026-05-02T11:17:58Z</time></trkpt><trkpt lat="45.074740531865395" lon="6.777264444089388"><ele>2207.666666666667</ele><time>2026-05-02T11:18:01Z</time></trkpt><trkpt lat="45.07469198136092" lon="6.7771807268563125"><ele>2202.3333333333335</ele><time>2026-05-02T11:18:04Z</time></trkpt><trkpt lat="45.074640972516384" lon="6.777096600341414"><ele>2197.0</ele><time>2026-05-02T11:18:06Z</time></trkpt><trkpt lat="45.0746292062443" lon="6.776983544056672"><ele>2197.0</ele><time>2026-05-02T11:18:08Z</time></trkpt><trkpt lat="45.07463494471207" lon="6.776884863734818"><ele>2197.0</ele><time>2026-05-02T11:18:10Z</time></trkpt><trkpt lat="45.074650963475634" lon="6.7767881234893474"><ele>2197.0</ele><time>2026-05-02T11:18:12Z</time></trkpt><trkpt lat="45.07464820020872" lon="6.7766837863463545"><ele>2197.0</ele><time>2026-05-02T11:18:14Z</time></trkpt><trkpt lat="45.074588465535506" lon="6.776615570028677"><ele>2197.0</ele><time>2026-05-02T11:18:17Z</time></trkpt><trkpt lat="45.07461696670698" lon="6.776700207604517"><ele>2197.0</ele><time>2026-05-02T11:18:25Z</time></trkpt><trkpt lat="45.07464232443005" lon="6.7768528007719455"><ele>2197.0</ele><time>2026-05-02T11:18:28Z</time></trkpt><trkpt lat="45.07463229011586" lon="6.77694215692853"><ele>2197.0</ele><time>2026-05-02T11:18:29Z</time></trkpt><trkpt lat="45.07463872591326" lon="6.777074063904146"><ele>2197.0</ele><time>2026-05-02T11:18:31Z</time></trkpt><trkpt lat="45.074673838325246" lon="6.77719028639806"><ele>2197.0</ele><time>2026-05-02T11:18:33Z</time></trkpt><trkpt lat="45.07473425010253" lon="6.777245459555816"><ele>2197.0</ele><time>2026-05-02T11:18:35Z</time></trkpt><trkpt lat="45.074813814818775" lon="6.777236726457682"><ele>2197.0</ele><time>2026-05-02T11:18:37Z</time></trkpt><trkpt lat="45.07493873388134" lon="6.777222824278359"><ele>2200.666666666667</ele><time>2026-05-02T11:18:39Z</time></trkpt><trkpt lat="45.07505009569237" lon="6.777212230544086"><ele>2204.3333333333335</ele><time>2026-05-02T11:18:41Z</time></trkpt><trkpt lat="45.07510485361002" lon="6.7771644289319655"><ele>2208.0</ele><time>2026-05-02T11:18:43Z</time></trkpt><trkpt lat="45.07514976157384" lon="6.777044574977552"><ele>2211.6666666666665</ele><time>2026-05-02T11:18:45Z</time></trkpt><trkpt lat="45.07518392419865" lon="6.776928256403721"><ele>2215.333333333333</ele><time>2026-05-02T11:18:47Z</time></trkpt><trkpt lat="45.07524042172946" lon="6.776844999083816"><ele>2219.0</ele><time>2026-05-02T11:18:49Z</time></trkpt><trkpt lat="45.0753018466547" lon="6.776822802894628"><ele>2219.0</ele><time>2026-05-02T11:18:52Z</time></trkpt><trkpt lat="45.075273802739346" lon="6.7766972033648125"><ele>2219.0</ele><time>2026-05-02T11:18:55Z</time></trkpt><trkpt lat="45.07524943780183" lon="6.776518716746445"><ele>2219.0</ele><time>2026-05-02T11:18:57Z</time></trkpt><trkpt lat="45.07525583683126" lon="6.776408132817792"><ele>2219.0</ele><time>2026-05-02T11:18:58Z</time></trkpt><trkpt lat="45.07526948001962" lon="6.776279050285963"><ele>2219.0</ele><time>2026-05-02T11:18:59.001Z</time></trkpt><trkpt lat="45.07526668157761" lon="6.776156364054247"><ele>2219.0</ele><time>2026-05-02T11:19:00.001Z</time></trkpt><trkpt lat="45.07523933130642" lon="6.776038823861109"><ele>2219.0</ele><time>2026-05-02T11:19:01.001Z</time></trkpt><trkpt lat="45.07521454421514" lon="6.7759369754485155"><ele>2219.0</ele><time>2026-05-02T11:19:02.001Z</time></trkpt><trkpt lat="45.075219210637606" lon="6.775820683253956"><ele>2219.0</ele><time>2026-05-02T11:19:03.001Z</time></trkpt><trkpt lat="45.07523598471784" lon="6.775701257931764"><ele>2219.0</ele><time>2026-05-02T11:19:04.001Z</time></trkpt><trkpt lat="45.07524141378795" lon="6.775603842970581"><ele>2219.0</ele><time>2026-05-02T11:19:05.001Z</time></trkpt><trkpt lat="45.07520085998365" lon="6.775509483315427"><ele>2219.0</ele><time>2026-05-02T11:19:06.001Z</time></trkpt><trkpt lat="45.07513465250669" lon="6.775418653373249"><ele>2219.0</ele><time>2026-05-02T11:19:07.001Z</time></trkpt><trkpt lat="45.07506540880576" lon="6.775339706847868"><ele>2219.0</ele><time>2026-05-02T11:19:08.001Z</time></trkpt><trkpt lat="45.07498607017692" lon="6.775279553966867"><ele>2219.0</ele><time>2026-05-02T11:19:09.001Z</time></trkpt><trkpt lat="45.074919740904676" lon="6.7752235657074"><ele>2219.0</ele><time>2026-05-02T11:19:10.001Z</time></trkpt><trkpt lat="45.074858599238375" lon="6.775196890783821"><ele>2219.0</ele><time>2026-05-02T11:19:11.001Z</time></trkpt><trkpt lat="45.074783477389886" lon="6.775195048713383"><ele>2218.6</ele><time>2026-05-02T11:19:12.001Z</time></trkpt><trkpt lat="45.07470857015278" lon="6.775152222777156"><ele>2218.2</ele><time>2026-05-02T11:19:13.001Z</time></trkpt><trkpt lat="45.07464815572756" lon="6.775047909033413"><ele>2217.7999999999997</ele><time>2026-05-02T11:19:14.001Z</time></trkpt><trkpt lat="45.074574697511665" lon="6.774929539403325"><ele>2217.4</ele><time>2026-05-02T11:19:15.001Z</time></trkpt><trkpt lat="45.07448098697998" lon="6.774806234770096"><ele>2217.0</ele><time>2026-05-02T11:19:16.001Z</time></trkpt><trkpt lat="45.074399997180336" lon="6.774668567654839"><ele>2217.0</ele><time>2026-05-02T11:19:17.001Z</time></trkpt><trkpt lat="45.07431933775547" lon="6.774514619526381"><ele>2217.0</ele><time>2026-05-02T11:19:18.001Z</time></trkpt><trkpt lat="45.07424594540912" lon="6.7743486293306505"><ele>2217.0</ele><time>2026-05-02T11:19:19.001Z</time></trkpt><trkpt lat="45.074191287881355" lon="6.7742001990126886"><ele>2217.0</ele><time>2026-05-02T11:19:20.001Z</time></trkpt><trkpt lat="45.07414534257061" lon="6.774052442859944"><ele>2218.4</ele><time>2026-05-02T11:19:21.001Z</time></trkpt><trkpt lat="45.074106478387506" lon="6.7739008645974605"><ele>2219.7999999999997</ele><time>2026-05-02T11:19:22.001Z</time></trkpt><trkpt lat="45.07407606808598" lon="6.773756850956521"><ele>2221.2</ele><time>2026-05-02T11:19:23.001Z</time></trkpt><trkpt lat="45.0740549539324" lon="6.773620331750514"><ele>2222.6</ele><time>2026-05-02T11:19:24.001Z</time></trkpt><trkpt lat="45.07403982772688" lon="6.773489619368805"><ele>2224.0</ele><time>2026-05-02T11:19:25.001Z</time></trkpt><trkpt lat="45.074029985895315" lon="6.773366610935815"><ele>2220.8333333333335</ele><time>2026-05-02T11:19:26.001Z</time></trkpt><trkpt lat="45.07402451265836" lon="6.773275036783087"><ele>2217.666666666667</ele><time>2026-05-02T11:19:27.001Z</time></trkpt><trkpt lat="45.07400185931385" lon="6.773187881933889"><ele>2214.5</ele><time>2026-05-02T11:19:29.001Z</time></trkpt><trkpt lat="45.073957971802805" lon="6.773122879303203"><ele>2211.3333333333335</ele><time>2026-05-02T11:19:31.001Z</time></trkpt><trkpt lat="45.07388303824637" lon="6.773071493122243"><ele>2208.1666666666665</ele><time>2026-05-02T11:19:33.001Z</time></trkpt><trkpt lat="45.07378542606625" lon="6.772935701728819"><ele>2205.0</ele><time>2026-05-02T11:19:35.001Z</time></trkpt><trkpt lat="45.07372988019794" lon="6.772832516914116"><ele>2205.0</ele><time>2026-05-02T11:19:36.001Z</time></trkpt><trkpt lat="45.073684686091475" lon="6.772715510971943"><ele>2205.0</ele><time>2026-05-02T11:19:37.001Z</time></trkpt><trkpt lat="45.07364766161427" lon="6.772622116807593"><ele>2205.0</ele><time>2026-05-02T11:19:38.001Z</time></trkpt><trkpt lat="45.0736071940393" lon="6.772550002560563"><ele>2205.0</ele><time>2026-05-02T11:19:39.001Z</time></trkpt><trkpt lat="45.073539598366594" lon="6.772470519392697"><ele>2205.0</ele><time>2026-05-02T11:19:41.001Z</time></trkpt><trkpt lat="45.073480307426756" lon="6.772382595815397"><ele>2205.0</ele><time>2026-05-02T11:19:44.001Z</time></trkpt><trkpt lat="45.073432199485346" lon="6.772277149192124"><ele>2204.0</ele><time>2026-05-02T11:19:46.001Z</time></trkpt><trkpt lat="45.07334011210134" lon="6.772151116164711"><ele>2203.0</ele><time>2026-05-02T11:19:48Z</time></trkpt><trkpt lat="45.07329265740831" lon="6.772082169422036"><ele>2202.0</ele><time>2026-05-02T11:19:49Z</time></trkpt><trkpt lat="45.07323878712617" lon="6.771998810734188"><ele>2201.0</ele><time>2026-05-02T11:19:50Z</time></trkpt><trkpt lat="45.073189477646096" lon="6.771891074064017"><ele>2200.0</ele><time>2026-05-02T11:19:51Z</time></trkpt><trkpt lat="45.073143413213344" lon="6.771777173376021"><ele>2200.0</ele><time>2026-05-02T11:19:52Z</time></trkpt><trkpt lat="45.07310742424136" lon="6.771660683565663"><ele>2200.0</ele><time>2026-05-02T11:19:53Z</time></trkpt><trkpt lat="45.07308085562078" lon="6.7715398881301505"><ele>2200.0</ele><time>2026-05-02T11:19:54Z</time></trkpt><trkpt lat="45.07305307876723" lon="6.771433319558402"><ele>2200.0</ele><time>2026-05-02T11:19:55Z</time></trkpt><trkpt lat="45.07304974395013" lon="6.771293639580013"><ele>2200.0</ele><time>2026-05-02T11:19:57Z</time></trkpt><trkpt lat="45.073156666585696" lon="6.7711517103734575"><ele>2200.0</ele><time>2026-05-02T11:19:59Z</time></trkpt><trkpt lat="45.073201367046984" lon="6.771048827290916"><ele>2200.0</ele><time>2026-05-02T11:20:00Z</time></trkpt><trkpt lat="45.073202498651995" lon="6.770954905652333"><ele>2200.0</ele><time>2026-05-02T11:20:01Z</time></trkpt><trkpt lat="45.073118221461215" lon="6.770865225762712"><ele>2200.0</ele><time>2026-05-02T11:20:03Z</time></trkpt><trkpt lat="45.07302647479407" lon="6.7708656542766725"><ele>2200.0</ele><time>2026-05-02T11:20:05Z</time></trkpt><trkpt lat="45.07290238839087" lon="6.770867698857505"><ele>2202.0</ele><time>2026-05-02T11:20:07Z</time></trkpt><trkpt lat="45.07283894846941" lon="6.770810158166145"><ele>2204.0</ele><time>2026-05-02T11:20:08Z</time></trkpt><trkpt lat="45.07279424330856" lon="6.7707012287526585"><ele>2206.0</ele><time>2026-05-02T11:20:09Z</time></trkpt><trkpt lat="45.07276606978953" lon="6.770563862787597"><ele>2208.0</ele><time>2026-05-02T11:20:10.001Z</time></trkpt><trkpt lat="45.07274127158895" lon="6.770423230708143"><ele>2210.0</ele><time>2026-05-02T11:20:11Z</time></trkpt><trkpt lat="45.07271406053683" lon="6.770279165912169"><ele>2211.2</ele><time>2026-05-02T11:20:12Z</time></trkpt><trkpt lat="45.072697566262995" lon="6.770116748279368"><ele>2212.4</ele><time>2026-05-02T11:20:13Z</time></trkpt><trkpt lat="45.0726993685138" lon="6.769956179676692"><ele>2213.6</ele><time>2026-05-02T11:20:14Z</time></trkpt><trkpt lat="45.072695386489514" lon="6.769816321317787"><ele>2214.8</ele><time>2026-05-02T11:20:15Z</time></trkpt><trkpt lat="45.07266965467903" lon="6.76970171311411"><ele>2216.0</ele><time>2026-05-02T11:20:16Z</time></trkpt><trkpt lat="45.07262711603521" lon="6.769613457663164"><ele>2216.0</ele><time>2026-05-02T11:20:17Z</time></trkpt><trkpt lat="45.07254577721059" lon="6.769537827999276"><ele>2216.0</ele><time>2026-05-02T11:20:18Z</time></trkpt><trkpt lat="45.072465962734796" lon="6.769466982207308"><ele>2216.0</ele><time>2026-05-02T11:20:19Z</time></trkpt><trkpt lat="45.07238845062231" lon="6.769390142114321"><ele>2216.0</ele><time>2026-05-02T11:20:20Z</time></trkpt><trkpt lat="45.072305386105185" lon="6.7692962739546605"><ele>2216.0</ele><time>2026-05-02T11:20:21Z</time></trkpt><trkpt lat="45.0722253230163" lon="6.7691826964822015"><ele>2212.0</ele><time>2026-05-02T11:20:22Z</time></trkpt><trkpt lat="45.072143226559085" lon="6.769061915449757"><ele>2208.0</ele><time>2026-05-02T11:20:23Z</time></trkpt><trkpt lat="45.07205775727161" lon="6.768935475847"><ele>2204.0</ele><time>2026-05-02T11:20:24Z</time></trkpt><trkpt lat="45.071972273157755" lon="6.768806080663485"><ele>2200.0</ele><time>2026-05-02T11:20:25Z</time></trkpt><trkpt lat="45.07188134516186" lon="6.76867808755438"><ele>2200.0</ele><time>2026-05-02T11:20:26Z</time></trkpt><trkpt lat="45.07178883930854" lon="6.76855485373116"><ele>2200.0</ele><time>2026-05-02T11:20:27Z</time></trkpt><trkpt lat="45.07169896678584" lon="6.768428678539859"><ele>2200.0</ele><time>2026-05-02T11:20:28Z</time></trkpt><trkpt lat="45.0716094204037" lon="6.768312783892985"><ele>2200.0</ele><time>2026-05-02T11:20:29Z</time></trkpt><trkpt lat="45.07152822614783" lon="6.768201995003727"><ele>2201.5</ele><time>2026-05-02T11:20:30Z</time></trkpt><trkpt lat="45.07145369765519" lon="6.768107696778974"><ele>2203.0</ele><time>2026-05-02T11:20:31Z</time></trkpt><trkpt lat="45.07139469639719" lon="6.768036387066575"><ele>2204.5</ele><time>2026-05-02T11:20:32Z</time></trkpt><trkpt lat="45.071341574449995" lon="6.767959968054438"><ele>2206.0</ele><time>2026-05-02T11:20:33Z</time></trkpt><trkpt lat="45.07132039715634" lon="6.767851554242642"><ele>2207.5</ele><time>2026-05-02T11:20:34Z</time></trkpt><trkpt lat="45.0713106875987" lon="6.767731124066825"><ele>2209.0</ele><time>2026-05-02T11:20:35Z</time></trkpt><trkpt lat="45.07128275745197" lon="6.767603518766319"><ele>2209.0</ele><time>2026-05-02T11:20:36Z</time></trkpt><trkpt lat="45.07121892901707" lon="6.767482505652113"><ele>2209.0</ele><time>2026-05-02T11:20:37Z</time></trkpt><trkpt lat="45.071159046163494" lon="6.767378594014442"><ele>2209.0</ele><time>2026-05-02T11:20:38Z</time></trkpt><trkpt lat="45.071078400279134" lon="6.767296633157083"><ele>2209.0</ele><time>2026-05-02T11:20:39Z</time></trkpt><trkpt lat="45.07099162398224" lon="6.767238907692031"><ele>2209.0</ele><time>2026-05-02T11:20:40Z</time></trkpt><trkpt lat="45.07090185608328" lon="6.7672155520420825"><ele>2209.0</ele><time>2026-05-02T11:20:41Z</time></trkpt><trkpt lat="45.0708414060828" lon="6.76718713628031"><ele>2209.0</ele><time>2026-05-02T11:20:42Z</time></trkpt><trkpt lat="45.07078849054465" lon="6.7671235784979835"><ele>2209.0</ele><time>2026-05-02T11:20:43Z</time></trkpt><trkpt lat="45.07074357060562" lon="6.767027358796899"><ele>2209.0</ele><time>2026-05-02T11:20:44Z</time></trkpt><trkpt lat="45.070701771383035" lon="6.766956183252545"><ele>2209.0</ele><time>2026-05-02T11:20:45Z</time></trkpt><trkpt lat="45.07058752382158" lon="6.766909553630385"><ele>2209.0</ele><time>2026-05-02T11:20:47Z</time></trkpt><trkpt lat="45.070514657742095" lon="6.766935458594262"><ele>2206.2</ele><time>2026-05-02T11:20:48Z</time></trkpt><trkpt lat="45.07044836828734" lon="6.766969256903391"><ele>2203.4</ele><time>2026-05-02T11:20:49Z</time></trkpt><trkpt lat="45.07035945178481" lon="6.767005957962232"><ele>2200.6</ele><time>2026-05-02T11:20:50Z</time></trkpt><trkpt lat="45.070272465794666" lon="6.76701920535959"><ele>2197.8</ele><time>2026-05-02T11:20:51Z</time></trkpt><trkpt lat="45.07020836590114" lon="6.767014999796009"><ele>2195.0</ele><time>2026-05-02T11:20:52Z</time></trkpt><trkpt lat="45.070095710835844" lon="6.766906165488459"><ele>2193.2</ele><time>2026-05-02T11:20:54Z</time></trkpt><trkpt lat="45.07002124874359" lon="6.766824666789726"><ele>2191.4</ele><time>2026-05-02T11:20:55Z</time></trkpt><trkpt lat="45.06994333345442" lon="6.766771179014326"><ele>2189.6</ele><time>2026-05-02T11:20:56Z</time></trkpt><trkpt lat="45.06985329739239" lon="6.766740878671582"><ele>2187.8</ele><time>2026-05-02T11:20:57Z</time></trkpt><trkpt lat="45.069758031293254" lon="6.766727585468176"><ele>2186.0</ele><time>2026-05-02T11:20:58Z</time></trkpt><trkpt lat="45.06966995058727" lon="6.766730808897034"><ele>2186.0</ele><time>2026-05-02T11:20:59Z</time></trkpt><trkpt lat="45.06960487286285" lon="6.7667077047973985"><ele>2186.0</ele><time>2026-05-02T11:21:00Z</time></trkpt><trkpt lat="45.06955669467111" lon="6.766646308673022"><ele>2186.0</ele><time>2026-05-02T11:21:01Z</time></trkpt><trkpt lat="45.06952436654768" lon="6.766558462260338"><ele>2186.0</ele><time>2026-05-02T11:21:02Z</time></trkpt><trkpt lat="45.06949687771575" lon="6.766446274890057"><ele>2186.0</ele><time>2026-05-02T11:21:03Z</time></trkpt><trkpt lat="45.06945505398062" lon="6.766324423269611"><ele>2186.0</ele><time>2026-05-02T11:21:04Z</time></trkpt><trkpt lat="45.06940765622332" lon="6.766195233781994"><ele>2186.0</ele><time>2026-05-02T11:21:05Z</time></trkpt><trkpt lat="45.06935207742255" lon="6.766057749215454"><ele>2186.0</ele><time>2026-05-02T11:21:06Z</time></trkpt><trkpt lat="45.06928955181384" lon="6.7659105932847154"><ele>2186.0</ele><time>2026-05-02T11:21:07Z</time></trkpt><trkpt lat="45.06924571578627" lon="6.765766601814307"><ele>2186.0</ele><time>2026-05-02T11:21:08Z</time></trkpt><trkpt lat="45.06920857061842" lon="6.765638563122701"><ele>2186.0</ele><time>2026-05-02T11:21:09Z</time></trkpt><trkpt lat="45.06918594244549" lon="6.765517550150232"><ele>2185.0</ele><time>2026-05-02T11:21:10Z</time></trkpt><trkpt lat="45.0691876154501" lon="6.765384385376282"><ele>2184.0</ele><time>2026-05-02T11:21:11Z</time></trkpt><trkpt lat="45.0691822312521" lon="6.765241191809089"><ele>2183.0</ele><time>2026-05-02T11:21:12Z</time></trkpt><trkpt lat="45.0691628295388" lon="6.7650967044225"><ele>2182.0</ele><time>2026-05-02T11:21:13Z</time></trkpt><trkpt lat="45.069129610714384" lon="6.764947289748634"><ele>2181.0</ele><time>2026-05-02T11:21:14Z</time></trkpt><trkpt lat="45.06910429811994" lon="6.764812784577562"><ele>2181.0</ele><time>2026-05-02T11:21:15Z</time></trkpt><trkpt lat="45.069063189493164" lon="6.764704334517708"><ele>2181.0</ele><time>2026-05-02T11:21:16Z</time></trkpt><trkpt lat="45.06901891772941" lon="6.764618099954749"><ele>2181.0</ele><time>2026-05-02T11:21:17Z</time></trkpt><trkpt lat="45.0689612917393" lon="6.764544788012601"><ele>2181.0</ele><time>2026-05-02T11:21:18Z</time></trkpt><trkpt lat="45.06888266841994" lon="6.764484272282823"><ele>2181.0</ele><time>2026-05-02T11:21:19Z</time></trkpt><trkpt lat="45.06880468486973" lon="6.764413971353873"><ele>2181.0</ele><time>2026-05-02T11:21:20Z</time></trkpt><trkpt lat="45.06873222048447" lon="6.764346501097485"><ele>2184.6</ele><time>2026-05-02T11:21:21Z</time></trkpt><trkpt lat="45.06865119404703" lon="6.7642478916356215"><ele>2188.2</ele><time>2026-05-02T11:21:22Z</time></trkpt><trkpt lat="45.06856953356776" lon="6.764147735818326"><ele>2191.8</ele><time>2026-05-02T11:21:23Z</time></trkpt><trkpt lat="45.06847423795185" lon="6.764057278660207"><ele>2195.4</ele><time>2026-05-02T11:21:24Z</time></trkpt><trkpt lat="45.06838458947857" lon="6.7639691667010196"><ele>2199.0</ele><time>2026-05-02T11:21:25Z</time></trkpt><trkpt lat="45.06832101193259" lon="6.763878615785931"><ele>2199.0</ele><time>2026-05-02T11:21:26Z</time></trkpt><trkpt lat="45.068274138982254" lon="6.763794088970564"><ele>2199.0</ele><time>2026-05-02T11:21:27Z</time></trkpt><trkpt lat="45.068203837517" lon="6.763726380383809"><ele>2199.0</ele><time>2026-05-02T11:21:29Z</time></trkpt><trkpt lat="45.06822298989545" lon="6.763622380327767"><ele>2199.0</ele><time>2026-05-02T11:21:33Z</time></trkpt><trkpt lat="45.06828157734784" lon="6.763552348299372"><ele>2199.0</ele><time>2026-05-02T11:21:39Z</time></trkpt><trkpt lat="45.068330887227056" lon="6.763480737945549"><ele>2199.0</ele><time>2026-05-02T11:21:40Z</time></trkpt><trkpt lat="45.06843629432079" lon="6.763382237613072"><ele>2199.6</ele><time>2026-05-02T11:21:42Z</time></trkpt><trkpt lat="45.068508401546445" lon="6.763265284400744"><ele>2200.2</ele><time>2026-05-02T11:21:44Z</time></trkpt><trkpt lat="45.068584806285514" lon="6.763160554603626"><ele>2200.7999999999997</ele><time>2026-05-02T11:21:46Z</time></trkpt><trkpt lat="45.06867815491693" lon="6.7630989441729135"><ele>2201.4</ele><time>2026-05-02T11:21:48Z</time></trkpt><trkpt lat="45.06874437327916" lon="6.763027078320613"><ele>2202.0</ele><time>2026-05-02T11:21:50Z</time></trkpt><trkpt lat="45.0687874400626" lon="6.762922506355399"><ele>2202.0</ele><time>2026-05-02T11:21:52Z</time></trkpt><trkpt lat="45.06887002129229" lon="6.762827719577767"><ele>2202.0</ele><time>2026-05-02T11:21:54Z</time></trkpt><trkpt lat="45.068957272713426" lon="6.762749246694319"><ele>2202.0</ele><time>2026-05-02T11:21:56Z</time></trkpt><trkpt lat="45.069007740057735" lon="6.762689386538718"><ele>2202.0</ele><time>2026-05-02T11:21:58Z</time></trkpt><trkpt lat="45.06905906000527" lon="6.762602878595614"><ele>2202.0</ele><time>2026-05-02T11:22:00Z</time></trkpt><trkpt lat="45.06908970827527" lon="6.762501774032076"><ele>2202.0</ele><time>2026-05-02T11:22:02Z</time></trkpt><trkpt lat="45.0691294413418" lon="6.762381040050107"><ele>2201.6666666666665</ele><time>2026-05-02T11:22:04Z</time></trkpt><trkpt lat="45.06914982361286" lon="6.762268377907832"><ele>2201.3333333333335</ele><time>2026-05-02T11:22:06Z</time></trkpt><trkpt lat="45.06917015142745" lon="6.762142885954495"><ele>2201.0</ele><time>2026-05-02T11:22:08Z</time></trkpt><trkpt lat="45.0691986273044" lon="6.7620567120495805"><ele>2200.666666666667</ele><time>2026-05-02T11:22:09Z</time></trkpt><trkpt lat="45.06922053691406" lon="6.76194303096854"><ele>2200.3333333333335</ele><time>2026-05-02T11:22:10Z</time></trkpt><trkpt lat="45.06924853174191" lon="6.761829615535849"><ele>2200.0</ele><time>2026-05-02T11:22:11Z</time></trkpt><trkpt lat="45.069293816624764" lon="6.761735115320995"><ele>2200.0</ele><time>2026-05-02T11:22:12Z</time></trkpt><trkpt lat="45.069349662899015" lon="6.76157840444308"><ele>2200.0</ele><time>2026-05-02T11:22:14Z</time></trkpt><trkpt lat="45.06939810138832" lon="6.761441367019307"><ele>2200.0</ele><time>2026-05-02T11:22:16Z</time></trkpt><trkpt lat="45.06943764702271" lon="6.761292273958963"><ele>2200.0</ele><time>2026-05-02T11:22:18Z</time></trkpt><trkpt lat="45.06945811764532" lon="6.7611853446317385"><ele>2200.0</ele><time>2026-05-02T11:22:19Z</time></trkpt><trkpt lat="45.06948689720233" lon="6.761067895578479"><ele>2196.0</ele><time>2026-05-02T11:22:20Z</time></trkpt><trkpt lat="45.06951320113672" lon="6.760968780488339"><ele>2192.0</ele><time>2026-05-02T11:22:21Z</time></trkpt><trkpt lat="45.06959959776725" lon="6.760826525640832"><ele>2188.0</ele><time>2026-05-02T11:22:23Z</time></trkpt><trkpt lat="45.06971830827936" lon="6.760759580037113"><ele>2184.0</ele><time>2026-05-02T11:22:25Z</time></trkpt><trkpt lat="45.06981905886044" lon="6.7607841491293925"><ele>2180.0</ele><time>2026-05-02T11:22:27Z</time></trkpt><trkpt lat="45.06993711115203" lon="6.7608210784668445"><ele>2184.2</ele><time>2026-05-02T11:22:29Z</time></trkpt><trkpt lat="45.07006097747435" lon="6.760855206932782"><ele>2188.4</ele><time>2026-05-02T11:22:31Z</time></trkpt><trkpt lat="45.07015102023325" lon="6.760862566088098"><ele>2192.6</ele><time>2026-05-02T11:22:33Z</time></trkpt><trkpt lat="45.070251064211234" lon="6.760848115486085"><ele>2196.8</ele><time>2026-05-02T11:22:35Z</time></trkpt><trkpt lat="45.07035268977879" lon="6.760844381531567"><ele>2201.0</ele><time>2026-05-02T11:22:38Z</time></trkpt><trkpt lat="45.0704306776363" lon="6.760815861014265"><ele>2201.0</ele><time>2026-05-02T11:25:28Z</time></trkpt><trkpt lat="45.07052287452674" lon="6.760788519484593"><ele>2201.0</ele><time>2026-05-02T11:25:30Z</time></trkpt><trkpt lat="45.07058664338895" lon="6.760794656197559"><ele>2201.0</ele><time>2026-05-02T11:25:42Z</time></trkpt><trkpt lat="45.07065978921238" lon="6.760777623557254"><ele>2201.0</ele><time>2026-05-02T11:25:44Z</time></trkpt><trkpt lat="45.070746603045905" lon="6.760766257352209"><ele>2201.0</ele><time>2026-05-02T11:25:46Z</time></trkpt><trkpt lat="45.070871904655434" lon="6.760702878692743"><ele>2203.8</ele><time>2026-05-02T11:25:48Z</time></trkpt><trkpt lat="45.07095961715147" lon="6.760641509359007"><ele>2206.6</ele><time>2026-05-02T11:25:50Z</time></trkpt><trkpt lat="45.07105674508923" lon="6.760491743826743"><ele>2209.4</ele><time>2026-05-02T11:25:52Z</time></trkpt><trkpt lat="45.07105793456588" lon="6.7603990784089385"><ele>2212.2</ele><time>2026-05-02T11:25:53Z</time></trkpt><trkpt lat="45.071076288644406" lon="6.760289466772705"><ele>2215.0</ele><time>2026-05-02T11:25:54Z</time></trkpt><trkpt lat="45.071110478747954" lon="6.760155224185439"><ele>2209.2</ele><time>2026-05-02T11:25:55.001Z</time></trkpt><trkpt lat="45.071139472140594" lon="6.760010082066901"><ele>2203.4</ele><time>2026-05-02T11:25:56.001Z</time></trkpt><trkpt lat="45.07115898252027" lon="6.75988074091532"><ele>2197.6</ele><time>2026-05-02T11:25:57.001Z</time></trkpt><trkpt lat="45.07119488172924" lon="6.75978003322417"><ele>2191.8</ele><time>2026-05-02T11:25:58.001Z</time></trkpt><trkpt lat="45.07121357460021" lon="6.759653171099706"><ele>2186.0</ele><time>2026-05-02T11:25:59.001Z</time></trkpt><trkpt lat="45.07124520293084" lon="6.759530886813921"><ele>2186.0</ele><time>2026-05-02T11:26:00.001Z</time></trkpt><trkpt lat="45.07127979458388" lon="6.759435404448518"><ele>2186.0</ele><time>2026-05-02T11:26:01.001Z</time></trkpt><trkpt lat="45.07132117184258" lon="6.759339797714775"><ele>2186.0</ele><time>2026-05-02T11:26:02.001Z</time></trkpt><trkpt lat="45.07137811436698" lon="6.759248409473746"><ele>2186.0</ele><time>2026-05-02T11:26:03.001Z</time></trkpt><trkpt lat="45.07141825413881" lon="6.759148204998259"><ele>2186.0</ele><time>2026-05-02T11:26:04.001Z</time></trkpt><trkpt lat="45.0714220021779" lon="6.759035472162372"><ele>2186.0</ele><time>2026-05-02T11:26:05.001Z</time></trkpt><trkpt lat="45.07141297650082" lon="6.758917726453429"><ele>2182.0</ele><time>2026-05-02T11:26:06.001Z</time></trkpt><trkpt lat="45.071363883770246" lon="6.75874712171205"><ele>2178.0</ele><time>2026-05-02T11:26:08.001Z</time></trkpt><trkpt lat="45.07136860820747" lon="6.758656667779516"><ele>2174.0</ele><time>2026-05-02T11:26:09.001Z</time></trkpt><trkpt lat="45.071400610755624" lon="6.758565234213009"><ele>2170.0</ele><time>2026-05-02T11:26:10.001Z</time></trkpt><trkpt lat="45.071462926376675" lon="6.758471995411901"><ele>2166.0</ele><time>2026-05-02T11:26:11.001Z</time></trkpt><trkpt lat="45.07151248070385" lon="6.7583715095926635"><ele>2162.0</ele><time>2026-05-02T11:26:12.001Z</time></trkpt><trkpt lat="45.07155903204893" lon="6.758276447998244"><ele>2158.2</ele><time>2026-05-02T11:26:13.001Z</time></trkpt><trkpt lat="45.0716006313243" lon="6.758163212940745"><ele>2154.3999999999996</ele><time>2026-05-02T11:26:14.001Z</time></trkpt><trkpt lat="45.071666852823604" lon="6.7580413073020305"><ele>2150.6000000000004</ele><time>2026-05-02T11:26:15.001Z</time></trkpt><trkpt lat="45.07173214611926" lon="6.757946186161149"><ele>2146.8</ele><time>2026-05-02T11:26:16Z</time></trkpt><trkpt lat="45.07179876772004" lon="6.757865758760632"><ele>2143.0</ele><time>2026-05-02T11:26:17Z</time></trkpt><trkpt lat="45.07181892370858" lon="6.757760725238088"><ele>2150.3333333333335</ele><time>2026-05-02T11:26:18Z</time></trkpt><trkpt lat="45.07181952598657" lon="6.7576528306973325"><ele>2157.666666666667</ele><time>2026-05-02T11:26:19Z</time></trkpt><trkpt lat="45.071815474021506" lon="6.757529972306619"><ele>2165.0</ele><time>2026-05-02T11:26:20Z</time></trkpt><trkpt lat="45.07180333727283" lon="6.757415245630306"><ele>2172.3333333333335</ele><time>2026-05-02T11:26:21Z</time></trkpt><trkpt lat="45.07179643685936" lon="6.757286083207318"><ele>2179.6666666666665</ele><time>2026-05-02T11:26:22Z</time></trkpt><trkpt lat="45.07179595952403" lon="6.757171969471839"><ele>2187.0</ele><time>2026-05-02T11:26:23Z</time></trkpt><trkpt lat="45.071790546152975" lon="6.757065924473652"><ele>2187.0</ele><time>2026-05-02T11:26:24Z</time></trkpt><trkpt lat="45.0718033021561" lon="6.756959893090292"><ele>2187.0</ele><time>2026-05-02T11:26:25Z</time></trkpt><trkpt lat="45.07181890785488" lon="6.756848341099488"><ele>2187.0</ele><time>2026-05-02T11:26:26Z</time></trkpt><trkpt lat="45.07184548701488" lon="6.756738095633685"><ele>2187.0</ele><time>2026-05-02T11:26:27Z</time></trkpt><trkpt lat="45.07187390398628" lon="6.75663615839782"><ele>2187.0</ele><time>2026-05-02T11:26:28Z</time></trkpt><trkpt lat="45.07192828882517" lon="6.756528552666652"><ele>2187.0</ele><time>2026-05-02T11:26:29Z</time></trkpt><trkpt lat="45.07198167574503" lon="6.756441895465537"><ele>2184.6666666666665</ele><time>2026-05-02T11:26:30Z</time></trkpt><trkpt lat="45.072020914449" lon="6.756361233713106"><ele>2182.3333333333335</ele><time>2026-05-02T11:26:31Z</time></trkpt><trkpt lat="45.072061294365" lon="6.756287613481279"><ele>2180.0</ele><time>2026-05-02T11:26:32Z</time></trkpt><trkpt lat="45.072131646603054" lon="6.756174597789695"><ele>2177.666666666667</ele><time>2026-05-02T11:26:34Z</time></trkpt><trkpt lat="45.07216767310199" lon="6.756100335162021"><ele>2175.3333333333335</ele><time>2026-05-02T11:26:36Z</time></trkpt><trkpt lat="45.07224879418974" lon="6.7560792462850685"><ele>2173.0</ele><time>2026-05-02T11:26:38Z</time></trkpt><trkpt lat="45.07235210823164" lon="6.75611099137376"><ele>2175.5</ele><time>2026-05-02T11:26:40Z</time></trkpt><trkpt lat="45.07245832966745" lon="6.756080240825821"><ele>2178.0</ele><time>2026-05-02T11:26:42Z</time></trkpt><trkpt lat="45.07251916013103" lon="6.756037972692154"><ele>2180.5</ele><time>2026-05-02T11:26:43Z</time></trkpt><trkpt lat="45.072575926009115" lon="6.7559822221646355"><ele>2183.0</ele><time>2026-05-02T11:26:44Z</time></trkpt><trkpt lat="45.07263353239451" lon="6.755915271245193"><ele>2185.5</ele><time>2026-05-02T11:26:45Z</time></trkpt><trkpt lat="45.07268498907441" lon="6.755856691068229"><ele>2188.0</ele><time>2026-05-02T11:26:46Z</time></trkpt><trkpt lat="45.07276184093587" lon="6.755825040573477"><ele>2188.0</ele><time>2026-05-02T11:26:47Z</time></trkpt><trkpt lat="45.072829125821606" lon="6.755776631120619"><ele>2188.0</ele><time>2026-05-02T11:26:48Z</time></trkpt><trkpt lat="45.072909299389515" lon="6.755756051967009"><ele>2188.0</ele><time>2026-05-02T11:26:49Z</time></trkpt><trkpt lat="45.072987656507074" lon="6.755738546908424"><ele>2188.0</ele><time>2026-05-02T11:26:50Z</time></trkpt><trkpt lat="45.073050985052355" lon="6.755721925868855"><ele>2188.0</ele><time>2026-05-02T11:26:51Z</time></trkpt><trkpt lat="45.07312769531456" lon="6.755731063881682"><ele>2188.0</ele><time>2026-05-02T11:26:53Z</time></trkpt><trkpt lat="45.07321891365279" lon="6.755717384905726"><ele>2189.8</ele><time>2026-05-02T11:26:55Z</time></trkpt><trkpt lat="45.07332717714462" lon="6.75573945560243"><ele>2191.6000000000004</ele><time>2026-05-02T11:26:57Z</time></trkpt><trkpt lat="45.073435889232414" lon="6.755754927537875"><ele>2193.3999999999996</ele><time>2026-05-02T11:26:59Z</time></trkpt><trkpt lat="45.07352146248016" lon="6.755702460778527"><ele>2195.2</ele><time>2026-05-02T11:27:01Z</time></trkpt><trkpt lat="45.07362382918375" lon="6.7556501141889065"><ele>2197.0</ele><time>2026-05-02T11:27:03Z</time></trkpt><trkpt lat="45.07369010998834" lon="6.755641429720737"><ele>2197.0</ele><time>2026-05-02T11:27:04Z</time></trkpt><trkpt lat="45.07376140195901" lon="6.755628018180681"><ele>2197.0</ele><time>2026-05-02T11:27:05Z</time></trkpt><trkpt lat="45.0738441054738" lon="6.755641667805959"><ele>2197.0</ele><time>2026-05-02T11:27:06Z</time></trkpt><trkpt lat="45.07395482535794" lon="6.755633821583384"><ele>2197.0</ele><time>2026-05-02T11:27:08Z</time></trkpt><trkpt lat="45.07402853857269" lon="6.755570976388788"><ele>2197.0</ele><time>2026-05-02T11:27:11Z</time></trkpt><trkpt lat="45.07408731432856" lon="6.755531237580646"><ele>2197.0</ele><time>2026-05-02T11:27:13Z</time></trkpt><trkpt lat="45.074156050327794" lon="6.755484792738289"><ele>2195.4</ele><time>2026-05-02T11:27:15Z</time></trkpt><trkpt lat="45.07421163961962" lon="6.755428421148233"><ele>2193.7999999999997</ele><time>2026-05-02T11:27:17Z</time></trkpt><trkpt lat="45.07426820744872" lon="6.7553251748068615"><ele>2192.2</ele><time>2026-05-02T11:27:19Z</time></trkpt><trkpt lat="45.07435410690056" lon="6.75517886664427"><ele>2190.6</ele><time>2026-05-02T11:27:21Z</time></trkpt><trkpt lat="45.07438375473961" lon="6.7550764354236525"><ele>2189.0</ele><time>2026-05-02T11:27:22Z</time></trkpt><trkpt lat="45.07440362772686" lon="6.754965134571013"><ele>2189.0</ele><time>2026-05-02T11:27:23Z</time></trkpt><trkpt lat="45.07443074482239" lon="6.754852808718547"><ele>2189.0</ele><time>2026-05-02T11:27:24Z</time></trkpt><trkpt lat="45.07446012484831" lon="6.754729444593398"><ele>2189.0</ele><time>2026-05-02T11:27:25Z</time></trkpt><trkpt lat="45.07447982524068" lon="6.754605171184571"><ele>2189.0</ele><time>2026-05-02T11:27:26Z</time></trkpt><trkpt lat="45.0745058807885" lon="6.75450307948541"><ele>2189.0</ele><time>2026-05-02T11:27:27Z</time></trkpt><trkpt lat="45.07452775126264" lon="6.754409146766158"><ele>2189.0</ele><time>2026-05-02T11:27:28Z</time></trkpt><trkpt lat="45.0745745868893" lon="6.7542845745640765"><ele>2185.4</ele><time>2026-05-02T11:27:30Z</time></trkpt><trkpt lat="45.07459636848617" lon="6.75419458521202"><ele>2181.8</ele><time>2026-05-02T11:27:32Z</time></trkpt><trkpt lat="45.074647676086215" lon="6.754044272506308"><ele>2178.2</ele><time>2026-05-02T11:27:35Z</time></trkpt><trkpt lat="45.074700930381844" lon="6.753897852759822"><ele>2174.6</ele><time>2026-05-02T11:27:37Z</time></trkpt><trkpt lat="45.07476665058326" lon="6.753750857405539"><ele>2171.0</ele><time>2026-05-02T11:27:39Z</time></trkpt><trkpt lat="45.074808697742014" lon="6.753675032754557"><ele>2171.0</ele><time>2026-05-02T11:27:40Z</time></trkpt><trkpt lat="45.074874170497644" lon="6.753549157416516"><ele>2171.0</ele><time>2026-05-02T11:27:42Z</time></trkpt><trkpt lat="45.07490055107876" lon="6.753450393036385"><ele>2171.0</ele><time>2026-05-02T11:27:44Z</time></trkpt><trkpt lat="45.07492381782809" lon="6.753349159778687"><ele>2171.0</ele><time>2026-05-02T11:29:20Z</time></trkpt><trkpt lat="45.07497020346599" lon="6.753224864646593"><ele>2171.0</ele><time>2026-05-02T11:29:22Z</time></trkpt><trkpt lat="45.07503220633306" lon="6.753110238075765"><ele>2174.333333333333</ele><time>2026-05-02T11:29:24Z</time></trkpt><trkpt lat="45.07509938562698" lon="6.753036987486885"><ele>2177.6666666666665</ele><time>2026-05-02T11:29:26Z</time></trkpt><trkpt lat="45.075153387300944" lon="6.752975447016599"><ele>2181.0</ele><time>2026-05-02T11:29:28Z</time></trkpt><trkpt lat="45.07521575486377" lon="6.752901597090602"><ele>2184.3333333333335</ele><time>2026-05-02T11:29:30Z</time></trkpt><trkpt lat="45.0752818354493" lon="6.752841654307336"><ele>2187.666666666667</ele><time>2026-05-02T11:29:32Z</time></trkpt><trkpt lat="45.075366290996485" lon="6.752794874792077"><ele>2191.0</ele><time>2026-05-02T11:29:34Z</time></trkpt><trkpt lat="45.07549015403801" lon="6.752757815189296"><ele>2191.0</ele><time>2026-05-02T11:29:36Z</time></trkpt><trkpt lat="45.075560331786996" lon="6.752724261287755"><ele>2191.0</ele><time>2026-05-02T11:29:37Z</time></trkpt><trkpt lat="45.07564150926988" lon="6.7526779704641555"><ele>2191.0</ele><time>2026-05-02T11:29:38Z</time></trkpt><trkpt lat="45.07571908782964" lon="6.752622759066007"><ele>2191.0</ele><time>2026-05-02T11:29:39Z</time></trkpt><trkpt lat="45.07579462929016" lon="6.752544865652348"><ele>2191.0</ele><time>2026-05-02T11:29:40Z</time></trkpt><trkpt lat="45.07587142359478" lon="6.752458481241505"><ele>2191.0</ele><time>2026-05-02T11:29:41Z</time></trkpt><trkpt lat="45.07594139623965" lon="6.752380730927029"><ele>2192.2</ele><time>2026-05-02T11:29:42Z</time></trkpt><trkpt lat="45.07601814991384" lon="6.752301495734657"><ele>2193.3999999999996</ele><time>2026-05-02T11:29:44Z</time></trkpt><trkpt lat="45.07605080250388" lon="6.752178857084217"><ele>2194.6</ele><time>2026-05-02T11:29:47Z</time></trkpt><trkpt lat="45.07603315096023" lon="6.751989047591592"><ele>2195.7999999999997</ele><time>2026-05-02T11:29:49Z</time></trkpt><trkpt lat="45.07603593471134" lon="6.751887159093089"><ele>2197.0</ele><time>2026-05-02T11:29:50Z</time></trkpt><trkpt lat="45.07604225444548" lon="6.751767984816082"><ele>2194.8333333333335</ele><time>2026-05-02T11:29:51Z</time></trkpt><trkpt lat="45.07605526146215" lon="6.751635918596208"><ele>2192.666666666667</ele><time>2026-05-02T11:29:52Z</time></trkpt><trkpt lat="45.076077768568894" lon="6.7514874683956645"><ele>2190.5</ele><time>2026-05-02T11:29:53Z</time></trkpt><trkpt lat="45.07610236633517" lon="6.751355052674868"><ele>2188.3333333333335</ele><time>2026-05-02T11:29:54Z</time></trkpt><trkpt lat="45.07612209199453" lon="6.751247892552516"><ele>2186.1666666666665</ele><time>2026-05-02T11:29:55Z</time></trkpt><trkpt lat="45.076123315950106" lon="6.751152497424059"><ele>2184.0</ele><time>2026-05-02T11:29:56Z</time></trkpt><trkpt lat="45.07614511253243" lon="6.751019019248949"><ele>2180.6</ele><time>2026-05-02T11:29:58Z</time></trkpt><trkpt lat="45.0762168555536" lon="6.7509579774475625"><ele>2177.2</ele><time>2026-05-02T11:30:00Z</time></trkpt><trkpt lat="45.07629376370657" lon="6.750884909558232"><ele>2173.7999999999997</ele><time>2026-05-02T11:30:02Z</time></trkpt><trkpt lat="45.07635870270668" lon="6.750730321886796"><ele>2170.4</ele><time>2026-05-02T11:30:04Z</time></trkpt><trkpt lat="45.076389272803965" lon="6.75063511273305"><ele>2167.0</ele><time>2026-05-02T11:30:05Z</time></trkpt><trkpt lat="45.07642905611881" lon="6.750518526130694"><ele>2167.0</ele><time>2026-05-02T11:30:06Z</time></trkpt><trkpt lat="45.07646773987766" lon="6.7504069628604215"><ele>2167.0</ele><time>2026-05-02T11:30:07Z</time></trkpt><trkpt lat="45.076495604717124" lon="6.750278684781516"><ele>2167.0</ele><time>2026-05-02T11:30:08Z</time></trkpt><trkpt lat="45.076531352825214" lon="6.750146449750399"><ele>2167.0</ele><time>2026-05-02T11:30:09Z</time></trkpt><trkpt lat="45.07656621797519" lon="6.7500077098491795"><ele>2167.0</ele><time>2026-05-02T11:30:10Z</time></trkpt><trkpt lat="45.07658283040222" lon="6.749841315673086"><ele>2171.5</ele><time>2026-05-02T11:30:11Z</time></trkpt><trkpt lat="45.07661997825906" lon="6.749713724880175"><ele>2176.0</ele><time>2026-05-02T11:30:12Z</time></trkpt><trkpt lat="45.07666560773992" lon="6.749601174806653"><ele>2180.5</ele><time>2026-05-02T11:30:13Z</time></trkpt><trkpt lat="45.07670539665624" lon="6.749504735228175"><ele>2185.0</ele><time>2026-05-02T11:30:14Z</time></trkpt><trkpt lat="45.07670784422352" lon="6.749400668631093"><ele>2189.5</ele><time>2026-05-02T11:30:15Z</time></trkpt><trkpt lat="45.076693730355466" lon="6.749279473488914"><ele>2194.0</ele><time>2026-05-02T11:30:16Z</time></trkpt><trkpt lat="45.07666529814523" lon="6.7491476885130295"><ele>2194.0</ele><time>2026-05-02T11:30:17Z</time></trkpt><trkpt lat="45.07665853054953" lon="6.74901234584954"><ele>2194.0</ele><time>2026-05-02T11:30:18Z</time></trkpt><trkpt lat="45.0766683728884" lon="6.7488656825570255"><ele>2194.0</ele><time>2026-05-02T11:30:19Z</time></trkpt><trkpt lat="45.07667169452273" lon="6.748718403809262"><ele>2194.0</ele><time>2026-05-02T11:30:20Z</time></trkpt><trkpt lat="45.07664237088899" lon="6.748585137376897"><ele>2194.0</ele><time>2026-05-02T11:30:21Z</time></trkpt><trkpt lat="45.076622693389524" lon="6.748465291961526"><ele>2193.166666666667</ele><time>2026-05-02T11:30:22Z</time></trkpt><trkpt lat="45.07660845392717" lon="6.748362668996762"><ele>2192.3333333333335</ele><time>2026-05-02T11:30:23Z</time></trkpt><trkpt lat="45.07660517220147" lon="6.7482635085946265"><ele>2191.5</ele><time>2026-05-02T11:30:24Z</time></trkpt><trkpt lat="45.07661911951989" lon="6.748152887857934"><ele>2190.6666666666665</ele><time>2026-05-02T11:30:25Z</time></trkpt><trkpt lat="45.07664891790387" lon="6.748040537608832"><ele>2189.833333333333</ele><time>2026-05-02T11:30:26Z</time></trkpt><trkpt lat="45.07669344408777" lon="6.747910989355741"><ele>2189.0</ele><time>2026-05-02T11:30:27Z</time></trkpt><trkpt lat="45.07674045964759" lon="6.7477910255951015"><ele>2185.8</ele><time>2026-05-02T11:30:28Z</time></trkpt><trkpt lat="45.07678841952582" lon="6.7476649896643615"><ele>2182.6000000000004</ele><time>2026-05-02T11:30:29Z</time></trkpt><trkpt lat="45.076811074320545" lon="6.747538743963353"><ele>2179.4</ele><time>2026-05-02T11:30:30Z</time></trkpt><trkpt lat="45.07684538765594" lon="6.7474235423110045"><ele>2176.2000000000003</ele><time>2026-05-02T11:30:31Z</time></trkpt><trkpt lat="45.07690291122221" lon="6.747327798998309"><ele>2173.0</ele><time>2026-05-02T11:30:32Z</time></trkpt><trkpt lat="45.076968380681954" lon="6.74723519274503"><ele>2173.0</ele><time>2026-05-02T11:30:33Z</time></trkpt><trkpt lat="45.077003314445975" lon="6.747146285012818"><ele>2173.0</ele><time>2026-05-02T11:30:34Z</time></trkpt><trkpt lat="45.077019037602476" lon="6.747029006258598"><ele>2173.0</ele><time>2026-05-02T11:30:35Z</time></trkpt><trkpt lat="45.07701724240226" lon="6.746915297279872"><ele>2173.0</ele><time>2026-05-02T11:30:36Z</time></trkpt><trkpt lat="45.07700281789591" lon="6.7467784333957495"><ele>2173.0</ele><time>2026-05-02T11:30:37Z</time></trkpt><trkpt lat="45.07701947208484" lon="6.7466436617572505"><ele>2173.0</ele><time>2026-05-02T11:30:38Z</time></trkpt><trkpt lat="45.07706238309037" lon="6.746518510774829"><ele>2169.0</ele><time>2026-05-02T11:30:39Z</time></trkpt><trkpt lat="45.077102166440596" lon="6.746386384295452"><ele>2165.0</ele><time>2026-05-02T11:30:40Z</time></trkpt><trkpt lat="45.077149082695" lon="6.746250727410051"><ele>2161.0</ele><time>2026-05-02T11:30:41Z</time></trkpt><trkpt lat="45.07721120722331" lon="6.746130101290898"><ele>2157.0</ele><time>2026-05-02T11:30:42Z</time></trkpt><trkpt lat="45.077280019928274" lon="6.746039907963758"><ele>2153.0</ele><time>2026-05-02T11:30:43Z</time></trkpt><trkpt lat="45.077343983467365" lon="6.745943005107331"><ele>2149.8571428571427</ele><time>2026-05-02T11:30:44Z</time></trkpt><trkpt lat="45.07738618594798" lon="6.745840352649642"><ele>2146.7142857142853</ele><time>2026-05-02T11:30:45Z</time></trkpt><trkpt lat="45.07741218699507" lon="6.74573242473526"><ele>2143.5714285714284</ele><time>2026-05-02T11:30:46Z</time></trkpt><trkpt lat="45.077451189399135" lon="6.745642102661578"><ele>2140.4285714285716</ele><time>2026-05-02T11:30:47Z</time></trkpt><trkpt lat="45.0774862693688" lon="6.74555628963964"><ele>2137.2857142857147</ele><time>2026-05-02T11:30:48Z</time></trkpt><trkpt lat="45.077526274832685" lon="6.745475984798744"><ele>2134.1428571428573</ele><time>2026-05-02T11:30:49Z</time></trkpt><trkpt lat="45.07757825727763" lon="6.745415820937773"><ele>2131.0</ele><time>2026-05-02T11:30:50Z</time></trkpt><trkpt lat="45.07764605973576" lon="6.745369338192902"><ele>2135.166666666667</ele><time>2026-05-02T11:30:51Z</time></trkpt><trkpt lat="45.07770847536814" lon="6.745331582148863"><ele>2139.3333333333335</ele><time>2026-05-02T11:30:52Z</time></trkpt><trkpt lat="45.07777996487075" lon="6.745301071690426"><ele>2143.5</ele><time>2026-05-02T11:30:53Z</time></trkpt><trkpt lat="45.077858898368454" lon="6.745287261764786"><ele>2147.6666666666665</ele><time>2026-05-02T11:30:54Z</time></trkpt><trkpt lat="45.077919361570615" lon="6.74524917042134"><ele>2151.833333333333</ele><time>2026-05-02T11:30:55Z</time></trkpt><trkpt lat="45.077968443535546" lon="6.745184517925014"><ele>2156.0</ele><time>2026-05-02T11:30:56Z</time></trkpt><trkpt lat="45.07803404358388" lon="6.745056931422577"><ele>2156.0</ele><time>2026-05-02T11:30:58Z</time></trkpt><trkpt lat="45.07813610491618" lon="6.744998929503017"><ele>2156.0</ele><time>2026-05-02T11:31:00Z</time></trkpt><trkpt lat="45.078229877688464" lon="6.744904853175587"><ele>2156.0</ele><time>2026-05-02T11:31:02Z</time></trkpt><trkpt lat="45.078271191003616" lon="6.744828943648847"><ele>2156.0</ele><time>2026-05-02T11:31:03Z</time></trkpt><trkpt lat="45.078312960961476" lon="6.744755917585069"><ele>2156.0</ele><time>2026-05-02T11:31:04Z</time></trkpt><trkpt lat="45.07836477983478" lon="6.74467889708881"><ele>2156.0</ele><time>2026-05-02T11:31:06Z</time></trkpt><trkpt lat="45.07842423328079" lon="6.744596665144382"><ele>2154.333333333333</ele><time>2026-05-02T11:31:08Z</time></trkpt><trkpt lat="45.078521311975535" lon="6.744555239431186"><ele>2152.6666666666665</ele><time>2026-05-02T11:31:10Z</time></trkpt><trkpt lat="45.0785847230657" lon="6.744531943700971"><ele>2151.0</ele><time>2026-05-02T11:31:11Z</time></trkpt><trkpt lat="45.07865219359086" lon="6.744501218593966"><ele>2149.3333333333335</ele><time>2026-05-02T11:31:12Z</time></trkpt><trkpt lat="45.07873852395558" lon="6.7444325712328155"><ele>2147.666666666667</ele><time>2026-05-02T11:31:13Z</time></trkpt><trkpt lat="45.0788025108318" lon="6.744377980201052"><ele>2146.0</ele><time>2026-05-02T11:31:14Z</time></trkpt><trkpt lat="45.07887644050312" lon="6.7443344953598325"><ele>2146.0</ele><time>2026-05-02T11:31:15Z</time></trkpt><trkpt lat="45.07894900166812" lon="6.744290195828718"><ele>2146.0</ele><time>2026-05-02T11:31:16Z</time></trkpt><trkpt lat="45.07901153721557" lon="6.744233366309911"><ele>2146.0</ele><time>2026-05-02T11:31:17Z</time></trkpt><trkpt lat="45.07909862299832" lon="6.744138261070253"><ele>2146.0</ele><time>2026-05-02T11:31:19Z</time></trkpt><trkpt lat="45.07919557068936" lon="6.744043847009642"><ele>2146.0</ele><time>2026-05-02T11:31:21Z</time></trkpt><trkpt lat="45.07926265238177" lon="6.744006959821176"><ele>2147.8</ele><time>2026-05-02T11:31:22Z</time></trkpt><trkpt lat="45.0793726504352" lon="6.743955842948954"><ele>2149.6</ele><time>2026-05-02T11:31:24Z</time></trkpt><trkpt lat="45.07946437409386" lon="6.743934101213708"><ele>2151.4</ele><time>2026-05-02T11:31:26Z</time></trkpt><trkpt lat="45.079500821658684" lon="6.743853729043882"><ele>2153.2</ele><time>2026-05-02T11:31:28Z</time></trkpt><trkpt lat="45.07954532395112" lon="6.743729640055178"><ele>2155.0</ele><time>2026-05-02T11:31:31Z</time></trkpt><trkpt lat="45.07960509668393" lon="6.7436087461874115"><ele>2149.6</ele><time>2026-05-02T11:31:33Z</time></trkpt><trkpt lat="45.07967391976397" lon="6.7434709152397305"><ele>2144.2</ele><time>2026-05-02T11:31:35Z</time></trkpt><trkpt lat="45.07975675724972" lon="6.74333855245704"><ele>2138.8</ele><time>2026-05-02T11:31:37Z</time></trkpt><trkpt lat="45.079804058513396" lon="6.743252046068668"><ele>2133.4</ele><time>2026-05-02T11:31:38Z</time></trkpt><trkpt lat="45.079850194344964" lon="6.743164266928208"><ele>2128.0</ele><time>2026-05-02T11:31:39Z</time></trkpt><trkpt lat="45.079889946653395" lon="6.743061498977549"><ele>2128.0</ele><time>2026-05-02T11:31:40Z</time></trkpt><trkpt lat="45.07993270245194" lon="6.742955842440823"><ele>2128.0</ele><time>2026-05-02T11:31:41Z</time></trkpt><trkpt lat="45.07997068969887" lon="6.742873450659047"><ele>2128.0</ele><time>2026-05-02T11:31:42Z</time></trkpt><trkpt lat="45.08002029662997" lon="6.74280038792125"><ele>2128.0</ele><time>2026-05-02T11:31:43Z</time></trkpt><trkpt lat="45.080065798926036" lon="6.74273004688755"><ele>2128.0</ele><time>2026-05-02T11:31:44Z</time></trkpt><trkpt lat="45.080151073268624" lon="6.742643039093341"><ele>2128.0</ele><time>2026-05-02T11:31:46Z</time></trkpt><trkpt lat="45.08026360322928" lon="6.742582292749857"><ele>2128.0</ele><time>2026-05-02T11:31:48Z</time></trkpt><trkpt lat="45.08032704677345" lon="6.742538372290121"><ele>2128.0</ele><time>2026-05-02T11:31:49Z</time></trkpt><trkpt lat="45.08036215310743" lon="6.7424455185142165"><ele>2128.0</ele><time>2026-05-02T11:31:50Z</time></trkpt><trkpt lat="45.080417862818706" lon="6.742346342475893"><ele>2128.0</ele><time>2026-05-02T11:31:51Z</time></trkpt><trkpt lat="45.08047367232828" lon="6.742236607846408"><ele>2128.0</ele><time>2026-05-02T11:31:52Z</time></trkpt><trkpt lat="45.0805319426878" lon="6.742132664328378"><ele>2128.0</ele><time>2026-05-02T11:31:53Z</time></trkpt><trkpt lat="45.08058890550105" lon="6.742057102874665"><ele>2128.0</ele><time>2026-05-02T11:31:54Z</time></trkpt><trkpt lat="45.08065458755904" lon="6.741989496834216"><ele>2128.0</ele><time>2026-05-02T11:31:55Z</time></trkpt><trkpt lat="45.080702766544654" lon="6.741903645125261"><ele>2128.0</ele><time>2026-05-02T11:31:56Z</time></trkpt><trkpt lat="45.080734056568836" lon="6.741824804893466"><ele>2128.0</ele><time>2026-05-02T11:31:57Z</time></trkpt><trkpt lat="45.080736118613196" lon="6.741716456835414"><ele>2128.0</ele><time>2026-05-02T11:31:58Z</time></trkpt><trkpt lat="45.08075972585672" lon="6.7416242841465905"><ele>2128.0</ele><time>2026-05-02T11:31:59Z</time></trkpt><trkpt lat="45.080800285574725" lon="6.741544540284446"><ele>2128.0</ele><time>2026-05-02T11:32:00Z</time></trkpt><trkpt lat="45.08084967805778" lon="6.741462453928228"><ele>2127.2000000000003</ele><time>2026-05-02T11:32:01Z</time></trkpt><trkpt lat="45.080906316635186" lon="6.741372713921147"><ele>2126.4</ele><time>2026-05-02T11:32:02Z</time></trkpt><trkpt lat="45.080947861687854" lon="6.741250183301938"><ele>2125.6000000000004</ele><time>2026-05-02T11:32:03Z</time></trkpt><trkpt lat="45.08100928566237" lon="6.741140554949133"><ele>2124.8</ele><time>2026-05-02T11:32:04Z</time></trkpt><trkpt lat="45.081066607347594" lon="6.741044026340128"><ele>2124.0</ele><time>2026-05-02T11:32:04.999Z</time></trkpt><trkpt lat="45.08113624807673" lon="6.740976740465583"><ele>2121.8333333333335</ele><time>2026-05-02T11:32:05.999Z</time></trkpt><trkpt lat="45.08120594008448" lon="6.740915565491823"><ele>2119.6666666666665</ele><time>2026-05-02T11:32:06.999Z</time></trkpt><trkpt lat="45.081273679174245" lon="6.7408872792605665"><ele>2117.5</ele><time>2026-05-02T11:32:07.999Z</time></trkpt><trkpt lat="45.0813372302632" lon="6.740828116873908"><ele>2115.333333333333</ele><time>2026-05-02T11:32:08.999Z</time></trkpt><trkpt lat="45.08133108498324" lon="6.7407119718684125"><ele>2113.1666666666665</ele><time>2026-05-02T11:32:09.999Z</time></trkpt><trkpt lat="45.08131518676946" lon="6.74060269103896"><ele>2111.0</ele><time>2026-05-02T11:32:10.999Z</time></trkpt><trkpt lat="45.08130957624552" lon="6.7404765236386"><ele>2111.0</ele><time>2026-05-02T11:32:11.999Z</time></trkpt><trkpt lat="45.08132400792595" lon="6.740362211932022"><ele>2111.0</ele><time>2026-05-02T11:32:13Z</time></trkpt><trkpt lat="45.08133575120629" lon="6.7402559586111295"><ele>2111.0</ele><time>2026-05-02T11:32:14Z</time></trkpt><trkpt lat="45.08132920998174" lon="6.7401166582289465"><ele>2111.0</ele><time>2026-05-02T11:32:16Z</time></trkpt><trkpt lat="45.081252968148064" lon="6.740035945894876"><ele>2111.0</ele><time>2026-05-02T11:32:18Z</time></trkpt><trkpt lat="45.08114780934862" lon="6.740050506980748"><ele>2111.0</ele><time>2026-05-02T11:32:20Z</time></trkpt><trkpt lat="45.081100307893614" lon="6.740120139551897"><ele>2111.0</ele><time>2026-05-02T11:32:21Z</time></trkpt><trkpt lat="45.081066149400336" lon="6.740241230956299"><ele>2111.0</ele><time>2026-05-02T11:32:22Z</time></trkpt><trkpt lat="45.08104286887197" lon="6.740365241326909"><ele>2111.0</ele><time>2026-05-02T11:32:23Z</time></trkpt><trkpt lat="45.081030800616325" lon="6.740474931557936"><ele>2111.0</ele><time>2026-05-02T11:32:24Z</time></trkpt><trkpt lat="45.08094906620403" lon="6.740526211542826"><ele>2111.0</ele><time>2026-05-02T11:32:26Z</time></trkpt><trkpt lat="45.08089126241988" lon="6.740488241302114"><ele>2111.0</ele><time>2026-05-02T11:32:27Z</time></trkpt><trkpt lat="45.08086537233011" lon="6.7404062889531255"><ele>2111.0</ele><time>2026-05-02T11:32:28Z</time></trkpt><trkpt lat="45.08086438087771" lon="6.74026776308917"><ele>2111.0</ele><time>2026-05-02T11:32:29Z</time></trkpt><trkpt lat="45.08088351145221" lon="6.74015819514607"><ele>2111.0</ele><time>2026-05-02T11:32:30Z</time></trkpt><trkpt lat="45.08091022759183" lon="6.740020683213172"><ele>2111.0</ele><time>2026-05-02T11:32:31Z</time></trkpt><trkpt lat="45.080927269569564" lon="6.739873799262767"><ele>2111.0</ele><time>2026-05-02T11:32:32Z</time></trkpt><trkpt lat="45.08094702654667" lon="6.7397347710701245"><ele>2108.0</ele><time>2026-05-02T11:32:33Z</time></trkpt><trkpt lat="45.0809616763856" lon="6.739585210608222"><ele>2105.0</ele><time>2026-05-02T11:32:34Z</time></trkpt><trkpt lat="45.080955152246474" lon="6.739404012528425"><ele>2102.0</ele><time>2026-05-02T11:32:35Z</time></trkpt><trkpt lat="45.08095566909608" lon="6.739257006070055"><ele>2099.0</ele><time>2026-05-02T11:32:36Z</time></trkpt><trkpt lat="45.080956273116875" lon="6.739115161681901"><ele>2096.0</ele><time>2026-05-02T11:32:37Z</time></trkpt><trkpt lat="45.08093265183199" lon="6.738978627570378"><ele>2093.8</ele><time>2026-05-02T11:32:38Z</time></trkpt><trkpt lat="45.080896471687836" lon="6.738847414053162"><ele>2091.6</ele><time>2026-05-02T11:32:39Z</time></trkpt><trkpt lat="45.080855957063285" lon="6.738714133351845"><ele>2089.4</ele><time>2026-05-02T11:32:40Z</time></trkpt><trkpt lat="45.08081687507746" lon="6.738563707036904"><ele>2087.2</ele><time>2026-05-02T11:32:41Z</time></trkpt><trkpt lat="45.08078108239466" lon="6.738417205344806"><ele>2085.0</ele><time>2026-05-02T11:32:42Z</time></trkpt><trkpt lat="45.08073644534324" lon="6.738276019844283"><ele>2078.0</ele><time>2026-05-02T11:32:43Z</time></trkpt><trkpt lat="45.08068753163611" lon="6.738148775597269"><ele>2071.0</ele><time>2026-05-02T11:32:44Z</time></trkpt><trkpt lat="45.08062556635695" lon="6.738032298899811"><ele>2064.0</ele><time>2026-05-02T11:32:45Z</time></trkpt><trkpt lat="45.08059406463507" lon="6.73793062384065"><ele>2057.0</ele><time>2026-05-02T11:32:46Z</time></trkpt><trkpt lat="45.08058293715255" lon="6.737824378976452"><ele>2050.0</ele><time>2026-05-02T11:32:47Z</time></trkpt><trkpt lat="45.080588002679356" lon="6.737706089763346"><ele>2043.0</ele><time>2026-05-02T11:32:48Z</time></trkpt><trkpt lat="45.080594724742184" lon="6.737581005703488"><ele>2041.6666666666667</ele><time>2026-05-02T11:32:49Z</time></trkpt><trkpt lat="45.08059592848439" lon="6.7374607870688825"><ele>2040.3333333333335</ele><time>2026-05-02T11:32:50Z</time></trkpt><trkpt lat="45.08059207768929" lon="6.73735846170892"><ele>2039.0</ele><time>2026-05-02T11:32:51Z</time></trkpt><trkpt lat="45.08057904211154" lon="6.737264909062024"><ele>2037.6666666666667</ele><time>2026-05-02T11:32:52Z</time></trkpt><trkpt lat="45.080547454895886" lon="6.737181833587934"><ele>2036.3333333333335</ele><time>2026-05-02T11:32:53Z</time></trkpt><trkpt lat="45.08045647256494" lon="6.737086962695876"><ele>2035.0</ele><time>2026-05-02T11:32:54Z</time></trkpt><trkpt lat="45.080391355166356" lon="6.737064096818088"><ele>2035.0000000000002</ele><time>2026-05-02T11:32:55Z</time></trkpt><trkpt lat="45.08032488717942" lon="6.7370746204193"><ele>2035.0</ele><time>2026-05-02T11:32:56Z</time></trkpt><trkpt lat="45.08028317573213" lon="6.736985290874753"><ele>2035.0</ele><time>2026-05-02T11:32:58Z</time></trkpt><trkpt lat="45.080328609943464" lon="6.7369084260657734"><ele>2035.0</ele><time>2026-05-02T11:33:00Z</time></trkpt><trkpt lat="45.0804177549121" lon="6.736856764425616"><ele>2035.0000000000002</ele><time>2026-05-02T11:33:02Z</time></trkpt><trkpt lat="45.08052607866956" lon="6.736841029410483"><ele>2035.0</ele><time>2026-05-02T11:33:04Z</time></trkpt><trkpt lat="45.08061712308776" lon="6.736823197743458"><ele>2034.1666666666667</ele><time>2026-05-02T11:33:06Z</time></trkpt><trkpt lat="45.08070095922962" lon="6.736872954044671"><ele>2033.3333333333335</ele><time>2026-05-02T11:33:11Z</time></trkpt><trkpt lat="45.080779798772994" lon="6.736861694725482"><ele>2032.5</ele><time>2026-05-02T11:33:13Z</time></trkpt><trkpt lat="45.08080687056953" lon="6.736769476033775"><ele>2031.6666666666665</ele><time>2026-05-02T11:33:16Z</time></trkpt><trkpt lat="45.08072664738685" lon="6.736722365394769"><ele>2030.8333333333333</ele><time>2026-05-02T11:33:33Z</time></trkpt><trkpt lat="45.08063994943858" lon="6.7366586821656265"><ele>2030.0</ele><time>2026-05-02T11:33:35Z</time></trkpt><trkpt lat="45.0805721864184" lon="6.736624435916673"><ele>2029.9999999999998</ele><time>2026-05-02T11:33:36Z</time></trkpt><trkpt lat="45.080495807290504" lon="6.736591073830348"><ele>2030.0</ele><time>2026-05-02T11:33:37Z</time></trkpt><trkpt lat="45.080424174783936" lon="6.736565662334948"><ele>2030.0</ele><time>2026-05-02T11:33:38Z</time></trkpt><trkpt lat="45.08035743091962" lon="6.736568652776196"><ele>2030.0</ele><time>2026-05-02T11:33:39Z</time></trkpt><trkpt lat="45.08023151799775" lon="6.7365927068319005"><ele>2029.9999999999998</ele><time>2026-05-02T11:33:41Z</time></trkpt><trkpt lat="45.080176254302735" lon="6.736649479340309"><ele>2030.0</ele><time>2026-05-02T11:33:42Z</time></trkpt><trkpt lat="45.08009683468895" lon="6.7366952199038685"><ele>2030.0</ele><time>2026-05-02T11:33:44Z</time></trkpt><trkpt lat="45.080102162417774" lon="6.736534182975583"><ele>2030.0</ele><time>2026-05-02T11:33:46Z</time></trkpt><trkpt lat="45.08017178244322" lon="6.736500705560786"><ele>2030.0</ele><time>2026-05-02T11:33:48Z</time></trkpt><trkpt lat="45.08025996681123" lon="6.736401959371603"><ele>2030.0</ele><time>2026-05-02T11:33:50Z</time></trkpt><trkpt lat="45.080242879174705" lon="6.73626612264288"><ele>2030.0</ele><time>2026-05-02T11:33:52Z</time></trkpt><trkpt lat="45.08023829228834" lon="6.736176756854968"><ele>2029.9999999999998</ele><time>2026-05-02T11:33:53Z</time></trkpt><trkpt lat="45.08030446737997" lon="6.736065727084495"><ele>2030.0</ele><time>2026-05-02T11:33:54.999Z</time></trkpt><trkpt lat="45.08039597349893" lon="6.736075700701581"><ele>2030.0</ele><time>2026-05-02T11:33:56.999Z</time></trkpt><trkpt lat="45.080455855124235" lon="6.736115221219609"><ele>2030.0</ele><time>2026-05-02T11:34:03.999Z</time></trkpt><trkpt lat="45.08052793607312" lon="6.7361152619642395"><ele>2029.9999999999998</ele><time>2026-05-02T11:34:08.999Z</time></trkpt><trkpt lat="45.08058747802355" lon="6.736048266923401"><ele>2030.0</ele><time>2026-05-02T11:34:12.999Z</time></trkpt><trkpt lat="45.08051470394113" lon="6.735983264506599"><ele>2027.4</ele><time>2026-05-02T11:34:16.999Z</time></trkpt><trkpt lat="45.08040890851746" lon="6.735957928256715"><ele>2024.8</ele><time>2026-05-02T11:34:20Z</time></trkpt><trkpt lat="45.0803105851671" lon="6.735881511521552"><ele>2022.1999999999998</ele><time>2026-05-02T11:34:22Z</time></trkpt><trkpt lat="45.08025134442064" lon="6.735843289793294"><ele>2019.6</ele><time>2026-05-02T11:34:23Z</time></trkpt><trkpt lat="45.08015660339189" lon="6.735819050050293"><ele>2017.0</ele><time>2026-05-02T11:34:25Z</time></trkpt><trkpt lat="45.08007058511753" lon="6.7357964245335005"><ele>2017.0000000000002</ele><time>2026-05-02T11:34:27Z</time></trkpt><trkpt lat="45.0799899409318" lon="6.7358068335062855"><ele>2017.0</ele><time>2026-05-02T11:34:31Z</time></trkpt><trkpt lat="45.07992357434622" lon="6.7357804468776585"><ele>2017.0000000000002</ele><time>2026-05-02T11:34:34Z</time></trkpt><trkpt lat="45.07987165993643" lon="6.735698714767822"><ele>2017.0000000000002</ele><time>2026-05-02T11:34:37Z</time></trkpt><trkpt lat="45.07989950799013" lon="6.735797445922511"><ele>2017.0</ele><time>2026-05-02T11:34:56Z</time></trkpt><trkpt lat="45.07996638760855" lon="6.735833660982802"><ele>2017.0000000000002</ele><time>2026-05-02T11:34:58Z</time></trkpt><trkpt lat="45.080013882383625" lon="6.735908971716019"><ele>2017.0000000000002</ele><time>2026-05-02T11:35:00Z</time></trkpt><trkpt lat="45.08002953542551" lon="6.736020455398923"><ele>2019.6</ele><time>2026-05-02T11:35:02Z</time></trkpt><trkpt lat="45.08004026543746" lon="6.7362258383290055"><ele>2022.1999999999998</ele><time>2026-05-02T11:35:04Z</time></trkpt><trkpt lat="45.080050004079666" lon="6.736332909859948"><ele>2024.8</ele><time>2026-05-02T11:35:05Z</time></trkpt><trkpt lat="45.08008002085963" lon="6.736479237855195"><ele>2027.4</ele><time>2026-05-02T11:35:07Z</time></trkpt><trkpt lat="45.0801325029503" lon="6.736534983761094"><ele>2030.0</ele><time>2026-05-02T11:35:09Z</time></trkpt><trkpt lat="45.08021678062694" lon="6.736467798538936"><ele>2029.9999999999998</ele><time>2026-05-02T11:35:12Z</time></trkpt><trkpt lat="45.08024657104009" lon="6.7363463362450275"><ele>2030.0</ele><time>2026-05-02T11:35:14Z</time></trkpt><trkpt lat="45.0802234554276" lon="6.736207854622221"><ele>2030.0</ele><time>2026-05-02T11:35:16Z</time></trkpt><trkpt lat="45.08025646946042" lon="6.736096574726169"><ele>2030.0</ele><time>2026-05-02T11:35:18Z</time></trkpt><trkpt lat="45.08034371633918" lon="6.736065990833442"><ele>2029.9999999999998</ele><time>2026-05-02T11:35:20Z</time></trkpt><trkpt lat="45.08042170620464" lon="6.736091649337385"><ele>2030.0</ele><time>2026-05-02T11:35:22Z</time></trkpt><trkpt lat="45.08049334500096" lon="6.73612539874264"><ele>2030.0</ele><time>2026-05-02T11:35:24Z</time></trkpt><trkpt lat="45.08057031294865" lon="6.7361030455495525"><ele>2030.0</ele><time>2026-05-02T11:35:28Z</time></trkpt><trkpt lat="45.08058590504076" lon="6.736014082376311"><ele>2030.0</ele><time>2026-05-02T11:35:31Z</time></trkpt><trkpt lat="45.080504407578836" lon="6.735961368046376"><ele>2030.0</ele><time>2026-05-02T11:35:33Z</time></trkpt><trkpt lat="45.080360656748766" lon="6.735872288495061"><ele>2030.0</ele><time>2026-05-02T11:35:35Z</time></trkpt><trkpt lat="45.08025888839411" lon="6.735815215065581"><ele>2027.4</ele><time>2026-05-02T11:35:36Z</time></trkpt><trkpt lat="45.080158560552654" lon="6.735776641408337"><ele>2024.8</ele><time>2026-05-02T11:35:37Z</time></trkpt><trkpt lat="45.080055115945655" lon="6.735763150000202"><ele>2022.1999999999998</ele><time>2026-05-02T11:35:38Z</time></trkpt><trkpt lat="45.07996779333894" lon="6.735774124241021"><ele>2019.6</ele><time>2026-05-02T11:35:39Z</time></trkpt><trkpt lat="45.079885098553255" lon="6.735757580644315"><ele>2017.0</ele><time>2026-05-02T11:35:41Z</time></trkpt><trkpt lat="45.07991194987053" lon="6.735608260321091"><ele>2017.0000000000002</ele><time>2026-05-02T11:35:43Z</time></trkpt><trkpt lat="45.07996902305334" lon="6.735560434933766"><ele>2017.0</ele><time>2026-05-02T11:35:44Z</time></trkpt><trkpt lat="45.08004693444064" lon="6.73551244819125"><ele>2017.0</ele><time>2026-05-02T11:35:45Z</time></trkpt><trkpt lat="45.080131145809304" lon="6.7354837436324315"><ele>2017.0</ele><time>2026-05-02T11:35:46Z</time></trkpt><trkpt lat="45.08021912441064" lon="6.73547982298651"><ele>2017.0000000000002</ele><time>2026-05-02T11:35:47Z</time></trkpt><trkpt lat="45.08029892535342" lon="6.73547741866226"><ele>2017.0</ele><time>2026-05-02T11:35:48Z</time></trkpt><trkpt lat="45.080370466718975" lon="6.735491880905454"><ele>2017.0</ele><time>2026-05-02T11:35:49Z</time></trkpt><trkpt lat="45.08048472348197" lon="6.7355723850741835"><ele>2016.9999999999998</ele><time>2026-05-02T11:35:51Z</time></trkpt><trkpt lat="45.0804901686548" lon="6.73543967691714"><ele>2016.9999999999998</ele><time>2026-05-02T11:35:53Z</time></trkpt><trkpt lat="45.08046705215715" lon="6.73534981455491"><ele>2017.0</ele><time>2026-05-02T11:35:54Z</time></trkpt><trkpt lat="45.08042722904553" lon="6.735265100276374"><ele>2017.0</ele><time>2026-05-02T11:35:55Z</time></trkpt><trkpt lat="45.08035662504717" lon="6.735183173489974"><ele>2013.3999999999999</ele><time>2026-05-02T11:35:56Z</time></trkpt><trkpt lat="45.08026970276921" lon="6.735124761009551"><ele>2009.7999999999997</ele><time>2026-05-02T11:35:57Z</time></trkpt><trkpt lat="45.080182728024944" lon="6.735085954293132"><ele>2006.2</ele><time>2026-05-02T11:35:57.999Z</time></trkpt><trkpt lat="45.08009167946309" lon="6.735040224882095"><ele>2002.6</ele><time>2026-05-02T11:35:58.999Z</time></trkpt><trkpt lat="45.079954015669486" lon="6.735070143149268"><ele>1999.0</ele><time>2026-05-02T11:36:00.999Z</time></trkpt><trkpt lat="45.07990415930828" lon="6.735146102780451"><ele>1991.4</ele><time>2026-05-02T11:36:01.999Z</time></trkpt><trkpt lat="45.07985075597772" lon="6.735210644194651"><ele>1983.8000000000002</ele><time>2026-05-02T11:36:02.999Z</time></trkpt><trkpt lat="45.07973057117697" lon="6.735220448495694"><ele>1976.1999999999998</ele><time>2026-05-02T11:36:04.999Z</time></trkpt><trkpt lat="45.07966524622608" lon="6.735199793704842"><ele>1968.6</ele><time>2026-05-02T11:36:05.999Z</time></trkpt><trkpt lat="45.07957528282678" lon="6.735117028918484"><ele>1961.0</ele><time>2026-05-02T11:36:07.999Z</time></trkpt><trkpt lat="45.079605094149386" lon="6.734989659841872"><ele>1961.0</ele><time>2026-05-02T11:36:09.999Z</time></trkpt><trkpt lat="45.07972022246988" lon="6.734952896394948"><ele>1961.0</ele><time>2026-05-02T11:36:11.999Z</time></trkpt><trkpt lat="45.0797860352838" lon="6.734944254288668"><ele>1961.0</ele><time>2026-05-02T11:36:12.999Z</time></trkpt><trkpt lat="45.079862472223944" lon="6.7349168268594255"><ele>1961.0</ele><time>2026-05-02T11:36:13.999Z</time></trkpt><trkpt lat="45.07997436083143" lon="6.734798913167748"><ele>1961.0</ele><time>2026-05-02T11:36:15.999Z</time></trkpt><trkpt lat="45.080014253390324" lon="6.734681967364552"><ele>1967.3333333333333</ele><time>2026-05-02T11:36:16.999Z</time></trkpt><trkpt lat="45.08006040475404" lon="6.734619342828353"><ele>1973.6666666666665</ele><time>2026-05-02T11:36:17.999Z</time></trkpt><trkpt lat="45.080131128978564" lon="6.734614315047584"><ele>1980.0</ele><time>2026-05-02T11:36:18.999Z</time></trkpt><trkpt lat="45.08023563167065" lon="6.73458899621924"><ele>1986.3333333333335</ele><time>2026-05-02T11:36:19.999Z</time></trkpt><trkpt lat="45.08031399480315" lon="6.7345544572687945"><ele>1992.6666666666667</ele><time>2026-05-02T11:36:20.999Z</time></trkpt><trkpt lat="45.08038173986212" lon="6.734516152923518"><ele>1999.0</ele><time>2026-05-02T11:36:21.999Z</time></trkpt><trkpt lat="45.080453689813226" lon="6.734434948251377"><ele>1999.0000000000002</ele><time>2026-05-02T11:36:22.999Z</time></trkpt><trkpt lat="45.080525503084935" lon="6.734397156261235"><ele>1999.0</ele><time>2026-05-02T11:36:23.999Z</time></trkpt><trkpt lat="45.08059455457453" lon="6.734386204644108"><ele>1999.0</ele><time>2026-05-02T11:36:25Z</time></trkpt><trkpt lat="45.08065765282" lon="6.734397978582665"><ele>1999.0</ele><time>2026-05-02T11:36:26Z</time></trkpt><trkpt lat="45.080725062276294" lon="6.734421541864174"><ele>1999.0000000000002</ele><time>2026-05-02T11:36:27Z</time></trkpt><trkpt lat="45.08079384552405" lon="6.734428921173335"><ele>1999.0</ele><time>2026-05-02T11:36:28Z</time></trkpt><trkpt lat="45.08089503747117" lon="6.734407684195063"><ele>1995.1666666666667</ele><time>2026-05-02T11:36:29Z</time></trkpt><trkpt lat="45.08098517877414" lon="6.734385888997837"><ele>1991.3333333333335</ele><time>2026-05-02T11:36:30Z</time></trkpt><trkpt lat="45.08106099395361" lon="6.734362866885138"><ele>1987.5</ele><time>2026-05-02T11:36:31Z</time></trkpt><trkpt lat="45.081148104696595" lon="6.734344596516564"><ele>1983.6666666666665</ele><time>2026-05-02T11:36:32Z</time></trkpt><trkpt lat="45.08121684157756" lon="6.7343287679078045"><ele>1979.8333333333333</ele><time>2026-05-02T11:36:33Z</time></trkpt><trkpt lat="45.081284713317324" lon="6.734313721306267"><ele>1976.0</ele><time>2026-05-02T11:36:34Z</time></trkpt><trkpt lat="45.08136214428998" lon="6.734298853993999"><ele>1976.0</ele><time>2026-05-02T11:36:35Z</time></trkpt><trkpt lat="45.08143341202438" lon="6.73430271345842"><ele>1976.0</ele><time>2026-05-02T11:36:36Z</time></trkpt><trkpt lat="45.08150399968042" lon="6.734309990578366"><ele>1976.0</ele><time>2026-05-02T11:36:37Z</time></trkpt><trkpt lat="45.0815868407424" lon="6.734276808913289"><ele>1976.0</ele><time>2026-05-02T11:36:39Z</time></trkpt><trkpt lat="45.081532844323014" lon="6.734163002386932"><ele>1976.0</ele><time>2026-05-02T11:36:42Z</time></trkpt><trkpt lat="45.08141403407094" lon="6.7340851262659"><ele>1976.0</ele><time>2026-05-02T11:36:44Z</time></trkpt><trkpt lat="45.081294992261064" lon="6.734036781655104"><ele>1976.0</ele><time>2026-05-02T11:36:46Z</time></trkpt><trkpt lat="45.081222704908626" lon="6.733988778068034"><ele>1976.0</ele><time>2026-05-02T11:36:47Z</time></trkpt><trkpt lat="45.08113550689414" lon="6.733929124657083"><ele>1976.0</ele><time>2026-05-02T11:36:48Z</time></trkpt><trkpt lat="45.08104872899316" lon="6.733872738971722"><ele>1976.0</ele><time>2026-05-02T11:36:49Z</time></trkpt><trkpt lat="45.08096444634661" lon="6.733843163127776"><ele>1975.9999999999998</ele><time>2026-05-02T11:36:50Z</time></trkpt><trkpt lat="45.08088596041744" lon="6.733789919959438"><ele>1976.0</ele><time>2026-05-02T11:36:51Z</time></trkpt><trkpt lat="45.08081393322206" lon="6.733736601374152"><ele>1976.0</ele><time>2026-05-02T11:36:52Z</time></trkpt><trkpt lat="45.08071607602647" lon="6.733669253982969"><ele>1976.0</ele><time>2026-05-02T11:36:54Z</time></trkpt><trkpt lat="45.080644847862075" lon="6.733678872136417"><ele>1975.9999999999998</ele><time>2026-05-02T11:36:55Z</time></trkpt><trkpt lat="45.08057548492096" lon="6.733691988197152"><ele>1976.0</ele><time>2026-05-02T11:36:56Z</time></trkpt><trkpt lat="45.08050894231159" lon="6.733668479514191"><ele>1975.1666666666665</ele><time>2026-05-02T11:36:57Z</time></trkpt><trkpt lat="45.080437840614564" lon="6.733583811629357"><ele>1974.3333333333333</ele><time>2026-05-02T11:36:58Z</time></trkpt><trkpt lat="45.080376918513686" lon="6.733514970999001"><ele>1973.5</ele><time>2026-05-02T11:36:59Z</time></trkpt><trkpt lat="45.080297799014424" lon="6.7334804125618195"><ele>1972.6666666666665</ele><time>2026-05-02T11:37:00Z</time></trkpt><trkpt lat="45.08021470613087" lon="6.733441931407893"><ele>1971.8333333333333</ele><time>2026-05-02T11:37:01Z</time></trkpt><trkpt lat="45.08011775228337" lon="6.733402568420415"><ele>1971.0</ele><time>2026-05-02T11:37:02Z</time></trkpt><trkpt lat="45.08004978165151" lon="6.733412778196072"><ele>1966.5</ele><time>2026-05-02T11:37:03Z</time></trkpt><trkpt lat="45.07996571935694" lon="6.733465322022344"><ele>1962.0</ele><time>2026-05-02T11:37:04Z</time></trkpt><trkpt lat="45.079906027273424" lon="6.7335121462375795"><ele>1957.5</ele><time>2026-05-02T11:37:05Z</time></trkpt><trkpt lat="45.07983774202839" lon="6.7335578540432"><ele>1953.0</ele><time>2026-05-02T11:37:06Z</time></trkpt><trkpt lat="45.07977616075491" lon="6.73359509861629"><ele>1948.5</ele><time>2026-05-02T11:37:07Z</time></trkpt><trkpt lat="45.07970514478227" lon="6.733613183424717"><ele>1944.0</ele><time>2026-05-02T11:37:08Z</time></trkpt><trkpt lat="45.07962651121905" lon="6.733621629517295"><ele>1943.5</ele><time>2026-05-02T11:37:09Z</time></trkpt><trkpt lat="45.07953254244482" lon="6.733605192649447"><ele>1943.0</ele><time>2026-05-02T11:37:10Z</time></trkpt><trkpt lat="45.079457003853584" lon="6.733562086033815"><ele>1942.5</ele><time>2026-05-02T11:37:11Z</time></trkpt><trkpt lat="45.079363987704745" lon="6.733508823413202"><ele>1942.0</ele><time>2026-05-02T11:37:13Z</time></trkpt><trkpt lat="45.07934881908901" lon="6.733418842830196"><ele>1941.5</ele><time>2026-05-02T11:37:18Z</time></trkpt><trkpt lat="45.07941793821294" lon="6.733413892228277"><ele>1941.0</ele><time>2026-05-02T11:38:33Z</time></trkpt><trkpt lat="45.0794728099947" lon="6.733365858629467"><ele>1937.6666666666667</ele><time>2026-05-02T11:38:35Z</time></trkpt><trkpt lat="45.07953112149719" lon="6.733320820517037"><ele>1934.3333333333335</ele><time>2026-05-02T11:38:36Z</time></trkpt><trkpt lat="45.07961122107066" lon="6.733307275375119"><ele>1931.0</ele><time>2026-05-02T11:38:37Z</time></trkpt><trkpt lat="45.079708670259635" lon="6.733304373237892"><ele>1927.6666666666667</ele><time>2026-05-02T11:38:38Z</time></trkpt><trkpt lat="45.079796618781096" lon="6.7332961710178"><ele>1924.3333333333335</ele><time>2026-05-02T11:38:39Z</time></trkpt><trkpt lat="45.07988516949079" lon="6.733257122427056"><ele>1921.0</ele><time>2026-05-02T11:38:41Z</time></trkpt><trkpt lat="45.07988872332079" lon="6.733167359940252"><ele>1921.0</ele><time>2026-05-02T11:38:42Z</time></trkpt><trkpt lat="45.079868484203274" lon="6.733052604619496"><ele>1921.0</ele><time>2026-05-02T11:38:43Z</time></trkpt><trkpt lat="45.079829145879934" lon="6.73297930350958"><ele>1921.0</ele><time>2026-05-02T11:38:44Z</time></trkpt><trkpt lat="45.07974648294629" lon="6.7329287599054375"><ele>1921.0</ele><time>2026-05-02T11:38:45Z</time></trkpt><trkpt lat="45.079634245679934" lon="6.732900373632104"><ele>1921.0</ele><time>2026-05-02T11:38:46Z</time></trkpt><trkpt lat="45.079529383720626" lon="6.732868592044458"><ele>1921.0000000000002</ele><time>2026-05-02T11:38:47Z</time></trkpt><trkpt lat="45.079448254977684" lon="6.73286722053338"><ele>1921.0</ele><time>2026-05-02T11:38:48Z</time></trkpt><trkpt lat="45.07935654098894" lon="6.732882128564027"><ele>1921.0</ele><time>2026-05-02T11:38:49Z</time></trkpt><trkpt lat="45.079267524986115" lon="6.732905586114327"><ele>1921.0</ele><time>2026-05-02T11:38:50Z</time></trkpt><trkpt lat="45.07919325671471" lon="6.732936819366671"><ele>1921.0000000000002</ele><time>2026-05-02T11:38:51Z</time></trkpt><trkpt lat="45.07910629275517" lon="6.733006780006357"><ele>1921.0</ele><time>2026-05-02T11:38:52Z</time></trkpt><trkpt lat="45.07903674547778" lon="6.733000449168279"><ele>1921.0</ele><time>2026-05-02T11:38:54Z</time></trkpt><trkpt lat="45.079058713095264" lon="6.7328937370277435"><ele>1921.0</ele><time>2026-05-02T11:38:56Z</time></trkpt><trkpt lat="45.079147185453046" lon="6.732747431378572"><ele>1921.0</ele><time>2026-05-02T11:38:58Z</time></trkpt><trkpt lat="45.07922100239771" lon="6.732645655482249"><ele>1921.0</ele><time>2026-05-02T11:38:59Z</time></trkpt><trkpt lat="45.07928574985166" lon="6.732523224529113"><ele>1921.0</ele><time>2026-05-02T11:39:00Z</time></trkpt><trkpt lat="45.07935386659228" lon="6.7324437124707295"><ele>1917.6</ele><time>2026-05-02T11:39:01Z</time></trkpt><trkpt lat="45.07941980668801" lon="6.732392014378932"><ele>1914.1999999999998</ele><time>2026-05-02T11:39:02Z</time></trkpt><trkpt lat="45.07949714857869" lon="6.732370651439173"><ele>1910.8000000000002</ele><time>2026-05-02T11:39:03Z</time></trkpt><trkpt lat="45.07959341022086" lon="6.732357774122508"><ele>1907.4</ele><time>2026-05-02T11:39:04Z</time></trkpt><trkpt lat="45.079694403249604" lon="6.732344089022253"><ele>1904.0</ele><time>2026-05-02T11:39:05Z</time></trkpt><trkpt lat="45.07979314217712" lon="6.732320270874217"><ele>1904.0</ele><time>2026-05-02T11:39:06Z</time></trkpt><trkpt lat="45.07988482209176" lon="6.732298658143493"><ele>1904.0</ele><time>2026-05-02T11:39:07Z</time></trkpt><trkpt lat="45.079943138731345" lon="6.732245276219507"><ele>1904.0</ele><time>2026-05-02T11:39:08Z</time></trkpt><trkpt lat="45.08000473889165" lon="6.732139246315221"><ele>1904.0</ele><time>2026-05-02T11:39:09Z</time></trkpt><trkpt lat="45.0800393622005" lon="6.732018351371199"><ele>1904.0</ele><time>2026-05-02T11:39:10Z</time></trkpt><trkpt lat="45.0800713603384" lon="6.731882497036232"><ele>1902.2</ele><time>2026-05-02T11:39:11Z</time></trkpt><trkpt lat="45.08012123364891" lon="6.7317689067185205"><ele>1900.4</ele><time>2026-05-02T11:39:12Z</time></trkpt><trkpt lat="45.08019495818137" lon="6.731698914658333"><ele>1898.6</ele><time>2026-05-02T11:39:13Z</time></trkpt><trkpt lat="45.08028234843987" lon="6.7316481964343655"><ele>1896.8</ele><time>2026-05-02T11:39:14Z</time></trkpt><trkpt lat="45.08034781721697" lon="6.731612039859351"><ele>1895.0</ele><time>2026-05-02T11:39:15Z</time></trkpt><trkpt lat="45.080459531567215" lon="6.731579496673429"><ele>1895.0</ele><time>2026-05-02T11:39:17Z</time></trkpt><trkpt lat="45.08052013356633" lon="6.731550176058055"><ele>1895.0</ele><time>2026-05-02T11:39:20Z</time></trkpt><trkpt lat="45.080610495401075" lon="6.731475579207258"><ele>1895.0</ele><time>2026-05-02T11:39:42.999Z</time></trkpt><trkpt lat="45.08067737816943" lon="6.731402138197256"><ele>1895.0</ele><time>2026-05-02T11:39:43.999Z</time></trkpt><trkpt lat="45.080768399331454" lon="6.7313450392557"><ele>1895.0</ele><time>2026-05-02T11:39:44.999Z</time></trkpt><trkpt lat="45.08087186478353" lon="6.731289182357691"><ele>1897.25</ele><time>2026-05-02T11:39:45.999Z</time></trkpt><trkpt lat="45.08099036020006" lon="6.731233050638071"><ele>1899.5</ele><time>2026-05-02T11:39:46.999Z</time></trkpt><trkpt lat="45.08112084117714" lon="6.731168835799043"><ele>1901.75</ele><time>2026-05-02T11:39:47.999Z</time></trkpt><trkpt lat="45.08124096974195" lon="6.731116975243556"><ele>1904.0</ele><time>2026-05-02T11:39:48.999Z</time></trkpt><trkpt lat="45.08133910741068" lon="6.731084074380581"><ele>1904.0</ele><time>2026-05-02T11:39:49.999Z</time></trkpt><trkpt lat="45.08142859419867" lon="6.731064169131682"><ele>1904.0</ele><time>2026-05-02T11:39:50.999Z</time></trkpt><trkpt lat="45.081495550560305" lon="6.731021987866993"><ele>1904.0</ele><time>2026-05-02T11:39:51.999Z</time></trkpt><trkpt lat="45.08158890312329" lon="6.730832875672889"><ele>1904.0</ele><time>2026-05-02T11:39:54.999Z</time></trkpt><trkpt lat="45.08153397945432" lon="6.730773864412112"><ele>1904.0</ele><time>2026-05-02T11:39:56.999Z</time></trkpt><trkpt lat="45.08145531149614" lon="6.730790366924034"><ele>1898.6</ele><time>2026-05-02T11:39:58.999Z</time></trkpt><trkpt lat="45.081340633256914" lon="6.7308307807721715"><ele>1893.2</ele><time>2026-05-02T11:40:00.999Z</time></trkpt><trkpt lat="45.08127705274165" lon="6.730872100234818"><ele>1887.7999999999997</ele><time>2026-05-02T11:40:01.999Z</time></trkpt><trkpt lat="45.081220458245454" lon="6.730819404729499"><ele>1882.3999999999999</ele><time>2026-05-02T11:40:02.999Z</time></trkpt><trkpt lat="45.081134267796344" lon="6.730789463971532"><ele>1877.0</ele><time>2026-05-02T11:40:03.999Z</time></trkpt><trkpt lat="45.08103821489841" lon="6.730719040958829"><ele>1877.0</ele><time>2026-05-02T11:40:04.999Z</time></trkpt><trkpt lat="45.08092578516405" lon="6.730674824690461"><ele>1877.0</ele><time>2026-05-02T11:40:05.999Z</time></trkpt><trkpt lat="45.08079837056539" lon="6.7306220341820335"><ele>1877.0</ele><time>2026-05-02T11:40:06.999Z</time></trkpt><trkpt lat="45.080659102837686" lon="6.73060069145536"><ele>1877.0</ele><time>2026-05-02T11:40:07.999Z</time></trkpt><trkpt lat="45.08050917729941" lon="6.730597647178168"><ele>1875.25</ele><time>2026-05-02T11:40:08.999Z</time></trkpt><trkpt lat="45.08036312329116" lon="6.73062554184282"><ele>1873.5</ele><time>2026-05-02T11:40:09.999Z</time></trkpt><trkpt lat="45.08021641646522" lon="6.730621090129727"><ele>1871.75</ele><time>2026-05-02T11:40:10.999Z</time></trkpt><trkpt lat="45.08006381324339" lon="6.730608332283831"><ele>1870.0</ele><time>2026-05-02T11:40:11.999Z</time></trkpt><trkpt lat="45.07991434201241" lon="6.730570300206538"><ele>1865.75</ele><time>2026-05-02T11:40:12.999Z</time></trkpt><trkpt lat="45.07977530291218" lon="6.730541123097156"><ele>1861.5</ele><time>2026-05-02T11:40:13.999Z</time></trkpt><trkpt lat="45.07964414078203" lon="6.730530522807948"><ele>1857.25</ele><time>2026-05-02T11:40:14.999Z</time></trkpt><trkpt lat="45.07950215286044" lon="6.73054987986886"><ele>1853.0</ele><time>2026-05-02T11:40:15.999Z</time></trkpt><trkpt lat="45.079336722908856" lon="6.7306077209964"><ele>1853.0</ele><time>2026-05-02T11:40:16.999Z</time></trkpt><trkpt lat="45.07914708025377" lon="6.730709922866196"><ele>1853.0</ele><time>2026-05-02T11:40:17.999Z</time></trkpt><trkpt lat="45.078957272243294" lon="6.7308294311802435"><ele>1853.0</ele><time>2026-05-02T11:40:18.999Z</time></trkpt><trkpt lat="45.07879070622558" lon="6.730910403025859"><ele>1851.0</ele><time>2026-05-02T11:40:19.999Z</time></trkpt><trkpt lat="45.07865253906909" lon="6.731022928106718"><ele>1849.0</ele><time>2026-05-02T11:40:20.999Z</time></trkpt><trkpt lat="45.07849901189133" lon="6.73116166321504"><ele>1847.0</ele><time>2026-05-02T11:40:21.999Z</time></trkpt><trkpt lat="45.078333935142695" lon="6.731355408872643"><ele>1841.3333333333333</ele><time>2026-05-02T11:40:22.999Z</time></trkpt><trkpt lat="45.078162960471204" lon="6.731548800480097"><ele>1835.6666666666665</ele><time>2026-05-02T11:40:23.999Z</time></trkpt><trkpt lat="45.07800068320229" lon="6.731742832827577"><ele>1830.0</ele><time>2026-05-02T11:40:24.999Z</time></trkpt><trkpt lat="45.07786540201154" lon="6.731943287455775"><ele>1830.0</ele><time>2026-05-02T11:40:25.999Z</time></trkpt><trkpt lat="45.077746138420146" lon="6.732106277033133"><ele>1830.0</ele><time>2026-05-02T11:40:26.999Z</time></trkpt><trkpt lat="45.07764291962947" lon="6.7322474005442094"><ele>1830.0</ele><time>2026-05-02T11:40:27.999Z</time></trkpt><trkpt lat="45.07756242517869" lon="6.73237513466556"><ele>1830.0</ele><time>2026-05-02T11:40:28.999Z</time></trkpt><trkpt lat="45.077478869977995" lon="6.732472719938509"><ele>1828.0</ele><time>2026-05-02T11:40:29.999Z</time></trkpt><trkpt lat="45.07738467313352" lon="6.73253726939292"><ele>1826.0</ele><time>2026-05-02T11:40:30.999Z</time></trkpt><trkpt lat="45.07726600322682" lon="6.732539131187286"><ele>1824.0</ele><time>2026-05-02T11:40:31.999Z</time></trkpt><trkpt lat="45.07711361803987" lon="6.732586621854732"><ele>1822.0</ele><time>2026-05-02T11:40:32.999Z</time></trkpt><trkpt lat="45.076975859586156" lon="6.732620494152207"><ele>1822.0</ele><time>2026-05-02T11:40:33.999Z</time></trkpt><trkpt lat="45.076845559931236" lon="6.732618909834103"><ele>1822.0</ele><time>2026-05-02T11:40:34.999Z</time></trkpt><trkpt lat="45.076729847609" lon="6.732534669693332"><ele>1822.0</ele><time>2026-05-02T11:40:35.999Z</time></trkpt><trkpt lat="45.07660807588725" lon="6.732465434273388"><ele>1822.0</ele><time>2026-05-02T11:40:36.999Z</time></trkpt><trkpt lat="45.076485831246856" lon="6.7324250708963795"><ele>1818.0</ele><time>2026-05-02T11:40:37.999Z</time></trkpt><trkpt lat="45.076380975900314" lon="6.7323659925647155"><ele>1813.9999999999998</ele><time>2026-05-02T11:40:38.999Z</time></trkpt><trkpt lat="45.076287661236606" lon="6.732349262128687"><ele>1809.9999999999998</ele><time>2026-05-02T11:40:39.999Z</time></trkpt><trkpt lat="45.07620992994665" lon="6.732360286115315"><ele>1806.0</ele><time>2026-05-02T11:40:40.999Z</time></trkpt><trkpt lat="45.076132231613876" lon="6.73237473511656"><ele>1802.0</ele><time>2026-05-02T11:40:41.999Z</time></trkpt><trkpt lat="45.07606101603394" lon="6.732510465861063"><ele>1802.0</ele><time>2026-05-02T11:40:42.999Z</time></trkpt><trkpt lat="45.075957910947146" lon="6.732595783341902"><ele>1802.0</ele><time>2026-05-02T11:40:43.999Z</time></trkpt><trkpt lat="45.07586311001925" lon="6.732729993265308"><ele>1802.0</ele><time>2026-05-02T11:40:44.999Z</time></trkpt><trkpt lat="45.075740075936764" lon="6.73283065606336"><ele>1802.0</ele><time>2026-05-02T11:40:45.999Z</time></trkpt><trkpt lat="45.075628391904665" lon="6.732959604635283"><ele>1801.0</ele><time>2026-05-02T11:40:46.999Z</time></trkpt><trkpt lat="45.075530101265166" lon="6.733086677262688"><ele>1799.9999999999998</ele><time>2026-05-02T11:40:47.999Z</time></trkpt><trkpt lat="45.075468971342026" lon="6.73320784672567"><ele>1798.9999999999998</ele><time>2026-05-02T11:40:48.999Z</time></trkpt><trkpt lat="45.07539752346132" lon="6.733269929703238"><ele>1798.0</ele><time>2026-05-02T11:40:49.999Z</time></trkpt><trkpt lat="45.0753207031242" lon="6.7332462721625985"><ele>1797.0</ele><time>2026-05-02T11:40:50.999Z</time></trkpt><trkpt lat="45.07522369115517" lon="6.733312908064086"><ele>1797.0</ele><time>2026-05-02T11:40:52.999Z</time></trkpt><trkpt lat="45.07514156843697" lon="6.733401905163331"><ele>1797.0</ele><time>2026-05-02T11:40:53.999Z</time></trkpt><trkpt lat="45.07505293236342" lon="6.7335143153932675"><ele>1797.0</ele><time>2026-05-02T11:40:54.999Z</time></trkpt><trkpt lat="45.074939894132974" lon="6.733622606983972"><ele>1797.0</ele><time>2026-05-02T11:40:55.999Z</time></trkpt><trkpt lat="45.07481403351673" lon="6.733744370886729"><ele>1792.6666666666665</ele><time>2026-05-02T11:40:56.999Z</time></trkpt><trkpt lat="45.07468597977278" lon="6.733903759952013"><ele>1788.3333333333333</ele><time>2026-05-02T11:40:57.999Z</time></trkpt><trkpt lat="45.07456711275087" lon="6.734096799486343"><ele>1784.0</ele><time>2026-05-02T11:40:58.999Z</time></trkpt><trkpt lat="45.07442892968386" lon="6.734194891278955"><ele>1784.0</ele><time>2026-05-02T11:40:59.999Z</time></trkpt><trkpt lat="45.074271236967036" lon="6.7343087619964495"><ele>1784.0</ele><time>2026-05-02T11:41:00.999Z</time></trkpt><trkpt lat="45.07411326904982" lon="6.7344231192681425"><ele>1784.0</ele><time>2026-05-02T11:41:01.999Z</time></trkpt><trkpt lat="45.07397251218889" lon="6.734533033100236"><ele>1779.0</ele><time>2026-05-02T11:41:03Z</time></trkpt><trkpt lat="45.073860824247504" lon="6.734664816473821"><ele>1774.0</ele><time>2026-05-02T11:41:04Z</time></trkpt><trkpt lat="45.07376391361031" lon="6.7347613120868735"><ele>1769.0</ele><time>2026-05-02T11:41:05Z</time></trkpt><trkpt lat="45.073686398848395" lon="6.734862908145979"><ele>1764.0</ele><time>2026-05-02T11:41:06Z</time></trkpt><trkpt lat="45.073625088574666" lon="6.735010089536626"><ele>1764.0</ele><time>2026-05-02T11:41:07Z</time></trkpt><trkpt lat="45.07357652456045" lon="6.735188584163722"><ele>1764.0</ele><time>2026-05-02T11:41:08Z</time></trkpt><trkpt lat="45.073507481605226" lon="6.735366599459498"><ele>1764.0</ele><time>2026-05-02T11:41:09Z</time></trkpt><trkpt lat="45.073408205112145" lon="6.735501854109463"><ele>1764.0</ele><time>2026-05-02T11:41:10Z</time></trkpt><trkpt lat="45.07328869540075" lon="6.735605300290249"><ele>1762.6666666666665</ele><time>2026-05-02T11:41:11Z</time></trkpt><trkpt lat="45.07312510741113" lon="6.735774368215182"><ele>1761.3333333333333</ele><time>2026-05-02T11:41:12Z</time></trkpt><trkpt lat="45.07295696894985" lon="6.735943845750673"><ele>1760.0</ele><time>2026-05-02T11:41:13Z</time></trkpt><trkpt lat="45.07281659602412" lon="6.736099002992196"><ele>1760.0</ele><time>2026-05-02T11:41:14Z</time></trkpt><trkpt lat="45.07268943113894" lon="6.736232925702223"><ele>1760.0</ele><time>2026-05-02T11:41:15Z</time></trkpt><trkpt lat="45.07258802200032" lon="6.736339617375974"><ele>1760.0</ele><time>2026-05-02T11:41:16Z</time></trkpt><trkpt lat="45.072510906533296" lon="6.736420720081274"><ele>1760.0</ele><time>2026-05-02T11:41:16.999Z</time></trkpt><trkpt lat="45.07244772689005" lon="6.736466609150462"><ele>1760.0</ele><time>2026-05-02T11:41:17.999Z</time></trkpt><trkpt lat="45.072398913949925" lon="6.7365256871457335"><ele>1760.0</ele><time>2026-05-02T11:41:19.999Z</time></trkpt><trkpt lat="45.072443744767455" lon="6.736440984473724"><ele>1760.0</ele><time>2026-05-02T11:41:33.999Z</time></trkpt><trkpt lat="45.072518149869246" lon="6.736358674450557"><ele>1760.0</ele><time>2026-05-02T11:41:36.999Z</time></trkpt><trkpt lat="45.07252874723201" lon="6.736160434891002"><ele>1760.0</ele><time>2026-05-02T11:41:38.999Z</time></trkpt><trkpt lat="45.07255603262026" lon="6.736052028383956"><ele>1757.6</ele><time>2026-05-02T11:41:40.999Z</time></trkpt><trkpt lat="45.07258467892782" lon="6.735913338227538"><ele>1755.2</ele><time>2026-05-02T11:41:42.999Z</time></trkpt><trkpt lat="45.072681973357156" lon="6.735813391779985"><ele>1752.8000000000002</ele><time>2026-05-02T11:41:44.999Z</time></trkpt><trkpt lat="45.072730424370185" lon="6.735912783633377"><ele>1750.4</ele><time>2026-05-02T11:41:46.999Z</time></trkpt><trkpt lat="45.072816660039564" lon="6.735814835288184"><ele>1748.0</ele><time>2026-05-02T11:41:48.999Z</time></trkpt><trkpt lat="45.072809801641675" lon="6.735655287359994"><ele>1748.0</ele><time>2026-05-02T11:41:49.999Z</time></trkpt><trkpt lat="45.0727376880082" lon="6.735942903868782"><ele>1748.0</ele><time>2026-05-02T11:41:50.999Z</time></trkpt><trkpt lat="45.072608846208304" lon="6.735936745976155"><ele>1748.0</ele><time>2026-05-02T11:42:24.999Z</time></trkpt><trkpt lat="45.07259014533049" lon="6.736281172108714"><ele>1750.4</ele><time>2026-05-02T11:42:27.999Z</time></trkpt><trkpt lat="45.07251844887917" lon="6.736358349818463"><ele>1752.8000000000002</ele><time>2026-05-02T11:42:28.999Z</time></trkpt><trkpt lat="45.07246096454254" lon="6.736406052519222"><ele>1755.2</ele><time>2026-05-02T11:42:29.999Z</time></trkpt><trkpt lat="45.072420081660226" lon="6.736505776764687"><ele>1757.6</ele><time>2026-05-02T11:42:30.999Z</time></trkpt><trkpt lat="45.072356926809896" lon="6.736607584927086"><ele>1760.0</ele><time>2026-05-02T11:42:32.999Z</time></trkpt><trkpt lat="45.07227123880951" lon="6.736727595513076"><ele>1757.6</ele><time>2026-05-02T11:42:34.999Z</time></trkpt><trkpt lat="45.07221606688685" lon="6.736820412583617"><ele>1755.2</ele><time>2026-05-02T11:42:35.999Z</time></trkpt><trkpt lat="45.072150374195786" lon="6.736930929010316"><ele>1752.8000000000002</ele><time>2026-05-02T11:42:36.999Z</time></trkpt><trkpt lat="45.07207730802236" lon="6.737046295173216"><ele>1750.4</ele><time>2026-05-02T11:42:37.999Z</time></trkpt><trkpt lat="45.07200766849756" lon="6.73714109479172"><ele>1748.0</ele><time>2026-05-02T11:42:38.999Z</time></trkpt><trkpt lat="45.071929865179634" lon="6.737227064906968"><ele>1748.0</ele><time>2026-05-02T11:42:39.999Z</time></trkpt><trkpt lat="45.0718360438446" lon="6.73731626248615"><ele>1748.0</ele><time>2026-05-02T11:42:40.999Z</time></trkpt><trkpt lat="45.07172818088475" lon="6.737409176971971"><ele>1748.0</ele><time>2026-05-02T11:42:41.999Z</time></trkpt><trkpt lat="45.071614793918485" lon="6.737509449643012"><ele>1748.0</ele><time>2026-05-02T11:42:42.999Z</time></trkpt><trkpt lat="45.07151684396414" lon="6.737596070755975"><ele>1746.3333333333333</ele><time>2026-05-02T11:42:43.999Z</time></trkpt><trkpt lat="45.07142659057089" lon="6.7376791959518885"><ele>1744.6666666666665</ele><time>2026-05-02T11:42:44.999Z</time></trkpt><trkpt lat="45.07135055986706" lon="6.737762963049866"><ele>1743.0</ele><time>2026-05-02T11:42:45.999Z</time></trkpt><trkpt lat="45.07129154415115" lon="6.737825739330571"><ele>1741.3333333333335</ele><time>2026-05-02T11:42:46.999Z</time></trkpt><trkpt lat="45.07122201307683" lon="6.737820423844795"><ele>1739.6666666666667</ele><time>2026-05-02T11:42:48.999Z</time></trkpt><trkpt lat="45.071201917513704" lon="6.737723947551312"><ele>1738.0</ele><time>2026-05-02T11:42:49.999Z</time></trkpt><trkpt lat="45.07124027524304" lon="6.7376192186441894"><ele>1734.0</ele><time>2026-05-02T11:42:50.999Z</time></trkpt><trkpt lat="45.0712965742783" lon="6.737503921438189"><ele>1730.0</ele><time>2026-05-02T11:42:51.999Z</time></trkpt><trkpt lat="45.071370470874726" lon="6.73735573662586"><ele>1726.0</ele><time>2026-05-02T11:42:52.999Z</time></trkpt><trkpt lat="45.07146127094926" lon="6.737187622631612"><ele>1722.0</ele><time>2026-05-02T11:42:53.999Z</time></trkpt><trkpt lat="45.071574749042966" lon="6.737033286366305"><ele>1725.0</ele><time>2026-05-02T11:42:55Z</time></trkpt><trkpt lat="45.07168065691175" lon="6.736860698857539"><ele>1728.0</ele><time>2026-05-02T11:42:56Z</time></trkpt><trkpt lat="45.071761653914066" lon="6.736636179440041"><ele>1731.0</ele><time>2026-05-02T11:42:57Z</time></trkpt><trkpt lat="45.071809170410724" lon="6.73639612838166"><ele>1731.0</ele><time>2026-05-02T11:42:58Z</time></trkpt><trkpt lat="45.071831765648" lon="6.736166189796657"><ele>1731.0</ele><time>2026-05-02T11:42:59Z</time></trkpt><trkpt lat="45.07188116748838" lon="6.735955519866194"><ele>1731.0</ele><time>2026-05-02T11:43:00Z</time></trkpt><trkpt lat="45.071946221269336" lon="6.7357461365532005"><ele>1726.0</ele><time>2026-05-02T11:43:01Z</time></trkpt><trkpt lat="45.07203152753488" lon="6.735507196663257"><ele>1721.0</ele><time>2026-05-02T11:43:02Z</time></trkpt><trkpt lat="45.072115585272584" lon="6.735278617039633"><ele>1716.0</ele><time>2026-05-02T11:43:03Z</time></trkpt><trkpt lat="45.072197824317435" lon="6.735066691853678"><ele>1712.5</ele><time>2026-05-02T11:43:04Z</time></trkpt><trkpt lat="45.07227103784765" lon="6.734876386213944"><ele>1709.0</ele><time>2026-05-02T11:43:05Z</time></trkpt><trkpt lat="45.072329734140844" lon="6.734695280350704"><ele>1705.5</ele><time>2026-05-02T11:43:06Z</time></trkpt><trkpt lat="45.072371692192235" lon="6.7345243688707885"><ele>1702.0</ele><time>2026-05-02T11:43:07Z</time></trkpt><trkpt lat="45.07238558654345" lon="6.734341283792448"><ele>1699.0</ele><time>2026-05-02T11:43:08Z</time></trkpt><trkpt lat="45.07240326564689" lon="6.734163188880766"><ele>1696.0</ele><time>2026-05-02T11:43:09Z</time></trkpt><trkpt lat="45.07241921956418" lon="6.7340014336122085"><ele>1693.0</ele><time>2026-05-02T11:43:10Z</time></trkpt><trkpt lat="45.072441463772506" lon="6.73384283647252"><ele>1690.0</ele><time>2026-05-02T11:43:11Z</time></trkpt><trkpt lat="45.07246383505822" lon="6.733697976552628"><ele>1694.75</ele><time>2026-05-02T11:43:12Z</time></trkpt><trkpt lat="45.07248342309905" lon="6.733549065425264"><ele>1699.5</ele><time>2026-05-02T11:43:13Z</time></trkpt><trkpt lat="45.072530021151394" lon="6.733401570013987"><ele>1704.25</ele><time>2026-05-02T11:43:14Z</time></trkpt><trkpt lat="45.07258448718124" lon="6.733230976951657"><ele>1709.0</ele><time>2026-05-02T11:43:15Z</time></trkpt><trkpt lat="45.072626733792816" lon="6.733036309019547"><ele>1709.0</ele><time>2026-05-02T11:43:16Z</time></trkpt><trkpt lat="45.07267292063645" lon="6.732828818905964"><ele>1709.0</ele><time>2026-05-02T11:43:17Z</time></trkpt><trkpt lat="45.07272593795231" lon="6.732620472830602"><ele>1709.0</ele><time>2026-05-02T11:43:18Z</time></trkpt><trkpt lat="45.07277597817547" lon="6.73242603633238"><ele>1705.25</ele><time>2026-05-02T11:43:19Z</time></trkpt><trkpt lat="45.07284772142195" lon="6.732253653992698"><ele>1701.5</ele><time>2026-05-02T11:43:20Z</time></trkpt><trkpt lat="45.07294529445547" lon="6.732095232294212"><ele>1697.75</ele><time>2026-05-02T11:43:21Z</time></trkpt><trkpt lat="45.07304597366897" lon="6.731953307292131"><ele>1694.0</ele><time>2026-05-02T11:43:22Z</time></trkpt><trkpt lat="45.073154407310085" lon="6.731830893036047"><ele>1695.6666666666665</ele><time>2026-05-02T11:43:23Z</time></trkpt><trkpt lat="45.073233835142375" lon="6.731729484325896"><ele>1697.3333333333333</ele><time>2026-05-02T11:43:24Z</time></trkpt><trkpt lat="45.07330692037399" lon="6.731642884641206"><ele>1699.0</ele><time>2026-05-02T11:43:25Z</time></trkpt><trkpt lat="45.07335010793627" lon="6.73156421336636"><ele>1700.6666666666665</ele><time>2026-05-02T11:43:26Z</time></trkpt><trkpt lat="45.073303903414796" lon="6.731446988438743"><ele>1702.3333333333333</ele><time>2026-05-02T11:43:28Z</time></trkpt><trkpt lat="45.07323603539749" lon="6.731439457862353"><ele>1704.0</ele><time>2026-05-02T11:43:29Z</time></trkpt><trkpt lat="45.07314749820122" lon="6.731509427359556"><ele>1695.6666666666665</ele><time>2026-05-02T11:43:30Z</time></trkpt><trkpt lat="45.07302630422841" lon="6.731569670716298"><ele>1687.3333333333333</ele><time>2026-05-02T11:43:31Z</time></trkpt><trkpt lat="45.07287135851881" lon="6.731660339979188"><ele>1679.0</ele><time>2026-05-02T11:43:32Z</time></trkpt><trkpt lat="45.072724809717315" lon="6.731778508222568"><ele>1679.0</ele><time>2026-05-02T11:43:33Z</time></trkpt><trkpt lat="45.072584703388245" lon="6.7318743148171185"><ele>1679.0</ele><time>2026-05-02T11:43:34Z</time></trkpt><trkpt lat="45.07245492426436" lon="6.731989304397608"><ele>1679.0</ele><time>2026-05-02T11:43:35Z</time></trkpt><trkpt lat="45.072335405056506" lon="6.7321303481326344"><ele>1677.3333333333333</ele><time>2026-05-02T11:43:36Z</time></trkpt><trkpt lat="45.07222533364211" lon="6.732303280370992"><ele>1675.6666666666665</ele><time>2026-05-02T11:43:37Z</time></trkpt><trkpt lat="45.07211801176504" lon="6.732533048947299"><ele>1674.0</ele><time>2026-05-02T11:43:38Z</time></trkpt><trkpt lat="45.07196099243704" lon="6.732747808050093"><ele>1674.0</ele><time>2026-05-02T11:43:39Z</time></trkpt><trkpt lat="45.071788616360145" lon="6.733019421857058"><ele>1674.0</ele><time>2026-05-02T11:43:40Z</time></trkpt><trkpt lat="45.071616781650015" lon="6.733219111207092"><ele>1668.3333333333335</ele><time>2026-05-02T11:43:41Z</time></trkpt><trkpt lat="45.07146422727682" lon="6.733397374943221"><ele>1662.6666666666667</ele><time>2026-05-02T11:43:42Z</time></trkpt><trkpt lat="45.07129675422898" lon="6.733520480027686"><ele>1657.0</ele><time>2026-05-02T11:43:43Z</time></trkpt><trkpt lat="45.07119882001437" lon="6.733745055520146"><ele>1657.0</ele><time>2026-05-02T11:43:44Z</time></trkpt><trkpt lat="45.071106992469865" lon="6.7338688433217175"><ele>1657.0</ele><time>2026-05-02T11:43:45Z</time></trkpt><trkpt lat="45.07105365176959" lon="6.734002596403592"><ele>1657.0</ele><time>2026-05-02T11:43:46Z</time></trkpt><trkpt lat="45.07097300374754" lon="6.734219416776317"><ele>1657.0</ele><time>2026-05-02T11:43:47Z</time></trkpt><trkpt lat="45.070910802535245" lon="6.734483302917399"><ele>1649.6666666666667</ele><time>2026-05-02T11:43:48Z</time></trkpt><trkpt lat="45.07076949478575" lon="6.734764743890147"><ele>1642.3333333333335</ele><time>2026-05-02T11:43:49Z</time></trkpt><trkpt lat="45.07063043493503" lon="6.734930703378609"><ele>1635.0</ele><time>2026-05-02T11:43:50Z</time></trkpt><trkpt lat="45.07047721774723" lon="6.73510586199059"><ele>1644.0</ele><time>2026-05-02T11:43:51Z</time></trkpt><trkpt lat="45.07028729340738" lon="6.735310873175796"><ele>1653.0</ele><time>2026-05-02T11:43:52Z</time></trkpt><trkpt lat="45.070046108846164" lon="6.735538622014247"><ele>1640.5</ele><time>2026-05-02T11:43:53Z</time></trkpt><trkpt lat="45.069829981079245" lon="6.7357951283355995"><ele>1628.0</ele><time>2026-05-02T11:43:54Z</time></trkpt><trkpt lat="45.069626765513824" lon="6.736022625623933"><ele>1633.6666666666665</ele><time>2026-05-02T11:43:55Z</time></trkpt><trkpt lat="45.06944764432231" lon="6.736214864225632"><ele>1639.3333333333335</ele><time>2026-05-02T11:43:56Z</time></trkpt><trkpt lat="45.069277726942644" lon="6.736372335445583"><ele>1645.0</ele><time>2026-05-02T11:43:57Z</time></trkpt><trkpt lat="45.06912320107706" lon="6.736476995251841"><ele>1637.5</ele><time>2026-05-02T11:43:58Z</time></trkpt><trkpt lat="45.06898667393967" lon="6.736562541759006"><ele>1630.0</ele><time>2026-05-02T11:43:59Z</time></trkpt><trkpt lat="45.06887117332013" lon="6.736637577728742"><ele>1622.5</ele><time>2026-05-02T11:43:59.999Z</time></trkpt><trkpt lat="45.06877132969053" lon="6.736718635996649"><ele>1615.0</ele><time>2026-05-02T11:44:00.999Z</time></trkpt><trkpt lat="45.06867249189059" lon="6.736846246638067"><ele>1618.6666666666667</ele><time>2026-05-02T11:44:01.999Z</time></trkpt><trkpt lat="45.0685716714515" lon="6.7370088047227075"><ele>1622.3333333333335</ele><time>2026-05-02T11:44:02.999Z</time></trkpt><trkpt lat="45.06846820622125" lon="6.737173887261378"><ele>1626.0</ele><time>2026-05-02T11:44:03.999Z</time></trkpt><trkpt lat="45.06837445456464" lon="6.737348517493537"><ele>1626.0</ele><time>2026-05-02T11:44:04.999Z</time></trkpt><trkpt lat="45.068287631733284" lon="6.737518029822409"><ele>1626.0</ele><time>2026-05-02T11:44:05.999Z</time></trkpt><trkpt lat="45.0682268653724" lon="6.7377168644691"><ele>1626.0</ele><time>2026-05-02T11:44:06.999Z</time></trkpt><trkpt lat="45.068173025685" lon="6.737935570303654"><ele>1615.3333333333335</ele><time>2026-05-02T11:44:07.999Z</time></trkpt><trkpt lat="45.06811942419277" lon="6.738178306796766"><ele>1604.6666666666667</ele><time>2026-05-02T11:44:08.999Z</time></trkpt><trkpt lat="45.06807540786585" lon="6.738436062024825"><ele>1594.0</ele><time>2026-05-02T11:44:09.999Z</time></trkpt><trkpt lat="45.06804577837142" lon="6.738689853412015"><ele>1594.0</ele><time>2026-05-02T11:44:10.999Z</time></trkpt><trkpt lat="45.068022254804575" lon="6.738935594298575"><ele>1594.0</ele><time>2026-05-02T11:44:11.999Z</time></trkpt><trkpt lat="45.06798085323143" lon="6.739152661021875"><ele>1594.0</ele><time>2026-05-02T11:44:12.999Z</time></trkpt><trkpt lat="45.067911511242556" lon="6.739342026421031"><ele>1593.25</ele><time>2026-05-02T11:44:13.999Z</time></trkpt><trkpt lat="45.06783833675579" lon="6.739555606700769"><ele>1592.5</ele><time>2026-05-02T11:44:14.999Z</time></trkpt><trkpt lat="45.067779578223124" lon="6.739764720569267"><ele>1591.75</ele><time>2026-05-02T11:44:15.999Z</time></trkpt><trkpt lat="45.06774006549026" lon="6.739901683148565"><ele>1591.0</ele><time>2026-05-02T11:44:16.999Z</time></trkpt><trkpt lat="45.06770728495819" lon="6.740001590768747"><ele>1591.0</ele><time>2026-05-02T11:44:17.999Z</time></trkpt><trkpt lat="45.06761457096174" lon="6.740061552348479"><ele>1591.0</ele><time>2026-05-02T11:44:19.999Z</time></trkpt><trkpt lat="45.067557929789864" lon="6.739957081413487"><ele>1591.0</ele><time>2026-05-02T11:44:20.999Z</time></trkpt><trkpt lat="45.06754060074449" lon="6.7397754225959385"><ele>1591.0</ele><time>2026-05-02T11:44:21.999Z</time></trkpt><trkpt lat="45.06752958180056" lon="6.73956024127283"><ele>1592.0</ele><time>2026-05-02T11:44:22.999Z</time></trkpt><trkpt lat="45.06753935386541" lon="6.73930649060038"><ele>1593.0</ele><time>2026-05-02T11:44:23.999Z</time></trkpt><trkpt lat="45.06754280429875" lon="6.7390704670787835"><ele>1594.0</ele><time>2026-05-02T11:44:24.999Z</time></trkpt><trkpt lat="45.06754770654877" lon="6.7388428372963665"><ele>1594.0</ele><time>2026-05-02T11:44:25.999Z</time></trkpt><trkpt lat="45.067542885237145" lon="6.738612889174918"><ele>1594.0</ele><time>2026-05-02T11:44:26.999Z</time></trkpt><trkpt lat="45.067548328175064" lon="6.7383902162639275"><ele>1594.0</ele><time>2026-05-02T11:44:27.999Z</time></trkpt><trkpt lat="45.06754065936627" lon="6.738160957286995"><ele>1592.0</ele><time>2026-05-02T11:44:28.999Z</time></trkpt><trkpt lat="45.06753718481958" lon="6.737928817398963"><ele>1590.0</ele><time>2026-05-02T11:44:29.999Z</time></trkpt><trkpt lat="45.06754240756134" lon="6.737698878042735"><ele>1588.0</ele><time>2026-05-02T11:44:30.999Z</time></trkpt><trkpt lat="45.06755024635918" lon="6.7374722970305685"><ele>1586.75</ele><time>2026-05-02T11:44:31.999Z</time></trkpt><trkpt lat="45.06756301272893" lon="6.737303323306109"><ele>1585.5</ele><time>2026-05-02T11:44:32.999Z</time></trkpt><trkpt lat="45.06756457236882" lon="6.737173980017073"><ele>1584.25</ele><time>2026-05-02T11:44:33.999Z</time></trkpt><trkpt lat="45.06757293413029" lon="6.737011225963529"><ele>1583.0</ele><time>2026-05-02T11:44:35.999Z</time></trkpt><trkpt lat="45.0675801427226" lon="6.7368287080144205"><ele>1581.6666666666665</ele><time>2026-05-02T11:44:37.999Z</time></trkpt><trkpt lat="45.067584380160305" lon="6.73671949177868"><ele>1580.3333333333333</ele><time>2026-05-02T11:44:38.999Z</time></trkpt><trkpt lat="45.06759042411787" lon="6.736601523908409"><ele>1579.0</ele><time>2026-05-02T11:44:39.999Z</time></trkpt><trkpt lat="45.06759930209534" lon="6.736474026663455"><ele>1577.6666666666665</ele><time>2026-05-02T11:44:40.999Z</time></trkpt><trkpt lat="45.067610901358826" lon="6.736338148460733"><ele>1576.3333333333333</ele><time>2026-05-02T11:44:41.999Z</time></trkpt><trkpt lat="45.06762049524352" lon="6.736195259054806"><ele>1575.0</ele><time>2026-05-02T11:44:42.999Z</time></trkpt><trkpt lat="45.067634549800786" lon="6.736039825247782"><ele>1572.75</ele><time>2026-05-02T11:44:43.999Z</time></trkpt><trkpt lat="45.06765445581693" lon="6.735871863134859"><ele>1570.5</ele><time>2026-05-02T11:44:44.999Z</time></trkpt><trkpt lat="45.06767739590585" lon="6.735695134822934"><ele>1568.25</ele><time>2026-05-02T11:44:45.999Z</time></trkpt><trkpt lat="45.06770450046991" lon="6.7355107504310245"><ele>1566.0</ele><time>2026-05-02T11:44:46.999Z</time></trkpt><trkpt lat="45.06773339497996" lon="6.735326701332122"><ele>1563.25</ele><time>2026-05-02T11:44:47.999Z</time></trkpt><trkpt lat="45.067771076082245" lon="6.735151339084413"><ele>1560.5</ele><time>2026-05-02T11:44:49Z</time></trkpt><trkpt lat="45.06781132128059" lon="6.734983428631304"><ele>1557.75</ele><time>2026-05-02T11:44:50Z</time></trkpt><trkpt lat="45.06784939062666" lon="6.734829893463926"><ele>1555.0</ele><time>2026-05-02T11:44:51Z</time></trkpt><trkpt lat="45.06787584152481" lon="6.734687413258065"><ele>1555.0000000000002</ele><time>2026-05-02T11:44:52Z</time></trkpt><trkpt lat="45.06790042258864" lon="6.73455995161644"><ele>1555.0</ele><time>2026-05-02T11:44:53Z</time></trkpt><trkpt lat="45.06791794154935" lon="6.734437122000622"><ele>1555.0</ele><time>2026-05-02T11:44:54Z</time></trkpt><trkpt lat="45.06793148783651" lon="6.734319955337562"><ele>1555.0</ele><time>2026-05-02T11:44:55Z</time></trkpt><trkpt lat="45.06795207676589" lon="6.734211395197696"><ele>1555.0000000000002</ele><time>2026-05-02T11:44:56Z</time></trkpt><trkpt lat="45.06797824276409" lon="6.734106671935931"><ele>1555.0</ele><time>2026-05-02T11:44:57Z</time></trkpt><trkpt lat="45.0680270895066" lon="6.7340146824416935"><ele>1554.8333333333335</ele><time>2026-05-02T11:44:58Z</time></trkpt><trkpt lat="45.06809060952007" lon="6.733936278144341"><ele>1554.6666666666667</ele><time>2026-05-02T11:44:59Z</time></trkpt><trkpt lat="45.068157437618105" lon="6.7338857549232705"><ele>1554.5</ele><time>2026-05-02T11:45:00Z</time></trkpt><trkpt lat="45.068212385912794" lon="6.733828601681949"><ele>1554.3333333333335</ele><time>2026-05-02T11:45:01Z</time></trkpt><trkpt lat="45.06828926228" lon="6.733750818924354"><ele>1554.1666666666667</ele><time>2026-05-02T11:45:03Z</time></trkpt><trkpt lat="45.068347174031075" lon="6.733657298556707"><ele>1554.0</ele><time>2026-05-02T11:45:18Z</time></trkpt><trkpt lat="45.068435423182315" lon="6.733528042144289"><ele>1554.0</ele><time>2026-05-02T11:45:20Z</time></trkpt><trkpt lat="45.06849417641038" lon="6.733457323340072"><ele>1554.0</ele><time>2026-05-02T11:45:21Z</time></trkpt><trkpt lat="45.068541591306186" lon="6.733390808748069"><ele>1554.0</ele><time>2026-05-02T11:45:22Z</time></trkpt><trkpt lat="45.06858437452217" lon="6.733318739099546"><ele>1554.0</ele><time>2026-05-02T11:45:23Z</time></trkpt><trkpt lat="45.06864631384046" lon="6.733183021668949"><ele>1554.0</ele><time>2026-05-02T11:45:25Z</time></trkpt><trkpt lat="45.06867769635999" lon="6.733018681705912"><ele>1554.0</ele><time>2026-05-02T11:45:27Z</time></trkpt><trkpt lat="45.0686996571218" lon="6.732928101834401"><ele>1554.0</ele><time>2026-05-02T11:45:28Z</time></trkpt><trkpt lat="45.068728008784056" lon="6.73283068590267"><ele>1554.0</ele><time>2026-05-02T11:45:29Z</time></trkpt><trkpt lat="45.068748975066875" lon="6.732746174536276"><ele>1554.0</ele><time>2026-05-02T11:45:30Z</time></trkpt><trkpt lat="45.06878147841185" lon="6.732595775529079"><ele>1554.0</ele><time>2026-05-02T11:45:32Z</time></trkpt><trkpt lat="45.06883004100204" lon="6.732417133474137"><ele>1554.0</ele><time>2026-05-02T11:45:34Z</time></trkpt><trkpt lat="45.068867102084205" lon="6.7322976779540165"><ele>1553.0</ele><time>2026-05-02T11:45:35Z</time></trkpt><trkpt lat="45.068925749601895" lon="6.732167290182925"><ele>1552.0</ele><time>2026-05-02T11:45:36Z</time></trkpt><trkpt lat="45.0690014331846" lon="6.732039889417725"><ele>1551.0</ele><time>2026-05-02T11:45:37Z</time></trkpt><trkpt lat="45.06910834085418" lon="6.731929083936815"><ele>1550.0</ele><time>2026-05-02T11:45:38Z</time></trkpt><trkpt lat="45.06922228087513" lon="6.73182689475349"><ele>1550.0</ele><time>2026-05-02T11:45:39Z</time></trkpt><trkpt lat="45.069315075662026" lon="6.731701043253327"><ele>1550.0</ele><time>2026-05-02T11:45:40Z</time></trkpt><trkpt lat="45.069367486263985" lon="6.7315332633967415"><ele>1550.0</ele><time>2026-05-02T11:45:41Z</time></trkpt><trkpt lat="45.06940134546787" lon="6.731378838461343"><ele>1550.0</ele><time>2026-05-02T11:45:42Z</time></trkpt><trkpt lat="45.06946431482338" lon="6.731265043423964"><ele>1550.0</ele><time>2026-05-02T11:45:43Z</time></trkpt><trkpt lat="45.06955199492985" lon="6.731194662259078"><ele>1550.0</ele><time>2026-05-02T11:45:44Z</time></trkpt><trkpt lat="45.06962204657949" lon="6.731098778795671"><ele>1550.0</ele><time>2026-05-02T11:45:45Z</time></trkpt><trkpt lat="45.06964757614127" lon="6.730967604031316"><ele>1550.0</ele><time>2026-05-02T11:45:46Z</time></trkpt><trkpt lat="45.069652633742294" lon="6.7308329737322"><ele>1550.0</ele><time>2026-05-02T11:45:47Z</time></trkpt><trkpt lat="45.06964037060591" lon="6.7306691950187965"><ele>1544.75</ele><time>2026-05-02T11:45:48Z</time></trkpt><trkpt lat="45.06965971329103" lon="6.7304875439300345"><ele>1539.5</ele><time>2026-05-02T11:45:49Z</time></trkpt><trkpt lat="45.069721068113424" lon="6.730311299673378"><ele>1534.25</ele><time>2026-05-02T11:45:50Z</time></trkpt><trkpt lat="45.06979354932748" lon="6.730143565003958"><ele>1529.0</ele><time>2026-05-02T11:45:51Z</time></trkpt><trkpt lat="45.0698915576771" lon="6.729977472603195"><ele>1534.3333333333335</ele><time>2026-05-02T11:45:52Z</time></trkpt><trkpt lat="45.069989072921686" lon="6.729809426756285"><ele>1539.6666666666667</ele><time>2026-05-02T11:45:53Z</time></trkpt><trkpt lat="45.07008882568635" lon="6.729633802623377"><ele>1545.0</ele><time>2026-05-02T11:45:54Z</time></trkpt><trkpt lat="45.07019262568243" lon="6.729435176563626"><ele>1537.3333333333333</ele><time>2026-05-02T11:45:55Z</time></trkpt><trkpt lat="45.07029800405062" lon="6.729221724618726"><ele>1529.6666666666665</ele><time>2026-05-02T11:45:56Z</time></trkpt><trkpt lat="45.070426863424764" lon="6.729005653962573"><ele>1522.0</ele><time>2026-05-02T11:45:57Z</time></trkpt><trkpt lat="45.07056556541014" lon="6.728778100822352"><ele>1524.3333333333333</ele><time>2026-05-02T11:45:58Z</time></trkpt><trkpt lat="45.07069288501622" lon="6.728537512483697"><ele>1526.6666666666667</ele><time>2026-05-02T11:45:59Z</time></trkpt><trkpt lat="45.07080062728916" lon="6.728293077636934"><ele>1529.0</ele><time>2026-05-02T11:46:00Z</time></trkpt><trkpt lat="45.070916805028375" lon="6.72807423858841"><ele>1529.0</ele><time>2026-05-02T11:46:01Z</time></trkpt><trkpt lat="45.07103153935169" lon="6.727871528603385"><ele>1529.0</ele><time>2026-05-02T11:46:02Z</time></trkpt><trkpt lat="45.07114803731386" lon="6.727661007317734"><ele>1529.0</ele><time>2026-05-02T11:46:03Z</time></trkpt><trkpt lat="45.07127180616408" lon="6.727451300310508"><ele>1521.0</ele><time>2026-05-02T11:46:04Z</time></trkpt><trkpt lat="45.07137771893657" lon="6.727211870305875"><ele>1513.0</ele><time>2026-05-02T11:46:05Z</time></trkpt><trkpt lat="45.07149190091494" lon="6.72699083920185"><ele>1505.0</ele><time>2026-05-02T11:46:06Z</time></trkpt><trkpt lat="45.071605252895274" lon="6.726775973307193"><ele>1506.0</ele><time>2026-05-02T11:46:07Z</time></trkpt><trkpt lat="45.07172260945853" lon="6.726572260586963"><ele>1507.0</ele><time>2026-05-02T11:46:08Z</time></trkpt><trkpt lat="45.07183677516238" lon="6.726410016780378"><ele>1508.0</ele><time>2026-05-02T11:46:09Z</time></trkpt><trkpt lat="45.07197177512383" lon="6.726270983271667"><ele>1508.0</ele><time>2026-05-02T11:46:10Z</time></trkpt><trkpt lat="45.072100331456326" lon="6.72613548391456"><ele>1508.0</ele><time>2026-05-02T11:46:11Z</time></trkpt><trkpt lat="45.072206996556396" lon="6.725960785886373"><ele>1508.0</ele><time>2026-05-02T11:46:12Z</time></trkpt><trkpt lat="45.07228083976878" lon="6.725722572685231"><ele>1508.0</ele><time>2026-05-02T11:46:13Z</time></trkpt><trkpt lat="45.072372561151745" lon="6.725514491366233"><ele>1508.0</ele><time>2026-05-02T11:46:14Z</time></trkpt><trkpt lat="45.072494675620455" lon="6.725345533757353"><ele>1508.0</ele><time>2026-05-02T11:46:15Z</time></trkpt><trkpt lat="45.07261089855665" lon="6.725191601763189"><ele>1504.2</ele><time>2026-05-02T11:46:16Z</time></trkpt><trkpt lat="45.07269498616925" lon="6.725046383689243"><ele>1500.4</ele><time>2026-05-02T11:46:17Z</time></trkpt><trkpt lat="45.07275061795254" lon="6.724915214578677"><ele>1496.6000000000001</ele><time>2026-05-02T11:46:18Z</time></trkpt><trkpt lat="45.072780406452715" lon="6.724813820551601"><ele>1492.8000000000002</ele><time>2026-05-02T11:46:19Z</time></trkpt><trkpt lat="45.07276900528931" lon="6.724696306501004"><ele>1489.0</ele><time>2026-05-02T11:46:20Z</time></trkpt><trkpt lat="45.07271242093053" lon="6.724601835754784"><ele>1489.0</ele><time>2026-05-02T11:46:21Z</time></trkpt><trkpt lat="45.07263370136152" lon="6.7245747515382694"><ele>1489.0</ele><time>2026-05-02T11:46:22Z</time></trkpt><trkpt lat="45.072565982230515" lon="6.7246139331554575"><ele>1489.0</ele><time>2026-05-02T11:46:23Z</time></trkpt><trkpt lat="45.072492455002816" lon="6.72469066213335"><ele>1489.0</ele><time>2026-05-02T11:46:24Z</time></trkpt><trkpt lat="45.07239776057052" lon="6.724781879604278"><ele>1489.0</ele><time>2026-05-02T11:46:25Z</time></trkpt><trkpt lat="45.072293790639065" lon="6.724876629732501"><ele>1488.25</ele><time>2026-05-02T11:46:26Z</time></trkpt><trkpt lat="45.07216185215685" lon="6.724958003816794"><ele>1487.5</ele><time>2026-05-02T11:46:27Z</time></trkpt><trkpt lat="45.07203194557887" lon="6.725059446773607"><ele>1486.75</ele><time>2026-05-02T11:46:28Z</time></trkpt><trkpt lat="45.0719056071609" lon="6.725166268098639"><ele>1486.0</ele><time>2026-05-02T11:46:29Z</time></trkpt><trkpt lat="45.07178323285613" lon="6.725290591400258"><ele>1486.0</ele><time>2026-05-02T11:46:30Z</time></trkpt><trkpt lat="45.07168221440143" lon="6.725469881659138"><ele>1486.0</ele><time>2026-05-02T11:46:31Z</time></trkpt><trkpt lat="45.07154873998148" lon="6.725623620040703"><ele>1486.0</ele><time>2026-05-02T11:46:32Z</time></trkpt><trkpt lat="45.07140121294696" lon="6.725731716570986"><ele>1476.3333333333333</ele><time>2026-05-02T11:46:33Z</time></trkpt><trkpt lat="45.07123572470824" lon="6.725772928739216"><ele>1466.6666666666667</ele><time>2026-05-02T11:46:34Z</time></trkpt><trkpt lat="45.07108574357594" lon="6.72584164116488"><ele>1457.0</ele><time>2026-05-02T11:46:35Z</time></trkpt><trkpt lat="45.07093834687266" lon="6.725889715669898"><ele>1457.0</ele><time>2026-05-02T11:46:36Z</time></trkpt><trkpt lat="45.07081152126332" lon="6.726030211046445"><ele>1457.0</ele><time>2026-05-02T11:46:37Z</time></trkpt><trkpt lat="45.07069601303927" lon="6.726195929616617"><ele>1457.0</ele><time>2026-05-02T11:46:38Z</time></trkpt><trkpt lat="45.070565113954295" lon="6.726360779698887"><ele>1456.0</ele><time>2026-05-02T11:46:39Z</time></trkpt><trkpt lat="45.07042256069342" lon="6.7265107702950235"><ele>1455.0</ele><time>2026-05-02T11:46:40Z</time></trkpt><trkpt lat="45.070285172136394" lon="6.726670624549133"><ele>1454.0</ele><time>2026-05-02T11:46:41Z</time></trkpt><trkpt lat="45.07016518904684" lon="6.726829007701877"><ele>1454.6666666666667</ele><time>2026-05-02T11:46:42Z</time></trkpt><trkpt lat="45.07003262889947" lon="6.726975094894159"><ele>1455.3333333333333</ele><time>2026-05-02T11:46:43Z</time></trkpt><trkpt lat="45.069857089479605" lon="6.727065147767244"><ele>1456.0</ele><time>2026-05-02T11:46:44Z</time></trkpt><trkpt lat="45.06964947013383" lon="6.727136534517916"><ele>1456.0</ele><time>2026-05-02T11:46:45Z</time></trkpt><trkpt lat="45.069422007737714" lon="6.72721924599583"><ele>1456.0</ele><time>2026-05-02T11:46:46Z</time></trkpt><trkpt lat="45.06918782327576" lon="6.727330455208076"><ele>1444.0</ele><time>2026-05-02T11:46:47Z</time></trkpt><trkpt lat="45.06896624843668" lon="6.727408001314167"><ele>1432.0</ele><time>2026-05-02T11:46:48Z</time></trkpt><trkpt lat="45.06874815519066" lon="6.7275117867302985"><ele>1432.0</ele><time>2026-05-02T11:46:49Z</time></trkpt><trkpt lat="45.06855692360627" lon="6.727598065813135"><ele>1432.0</ele><time>2026-05-02T11:46:50Z</time></trkpt><trkpt lat="45.06839901604938" lon="6.727663645887688"><ele>1432.0</ele><time>2026-05-02T11:46:51Z</time></trkpt><trkpt lat="45.06827800147182" lon="6.72775850826902"><ele>1428.5</ele><time>2026-05-02T11:46:52Z</time></trkpt><trkpt lat="45.068173602129484" lon="6.727878280097937"><ele>1425.0</ele><time>2026-05-02T11:46:53Z</time></trkpt><trkpt lat="45.068123968236726" lon="6.728060984872554"><ele>1421.5</ele><time>2026-05-02T11:46:53.999Z</time></trkpt><trkpt lat="45.06807035143394" lon="6.7282703791745835"><ele>1418.0</ele><time>2026-05-02T11:46:55Z</time></trkpt><trkpt lat="45.068013428947204" lon="6.72850644616971"><ele>1422.0</ele><time>2026-05-02T11:46:56Z</time></trkpt><trkpt lat="45.06794171041323" lon="6.728729923384259"><ele>1426.0</ele><time>2026-05-02T11:46:57Z</time></trkpt><trkpt lat="45.06786585121088" lon="6.728890973920468"><ele>1430.0</ele><time>2026-05-02T11:46:58Z</time></trkpt><trkpt lat="45.06781134165534" lon="6.729014225497955"><ele>1434.0</ele><time>2026-05-02T11:46:59Z</time></trkpt><trkpt lat="45.06778401229624" lon="6.729102165299822"><ele>1434.0</ele><time>2026-05-02T11:47:00Z</time></trkpt><trkpt lat="45.06769095183509" lon="6.729091564039634"><ele>1434.0</ele><time>2026-05-02T11:47:02Z</time></trkpt><trkpt lat="45.06771198466457" lon="6.728892637101719"><ele>1434.0</ele><time>2026-05-02T11:47:04Z</time></trkpt><trkpt lat="45.06777417972443" lon="6.72875126228279"><ele>1434.0</ele><time>2026-05-02T11:47:05Z</time></trkpt><trkpt lat="45.06781713761349" lon="6.728561232323561"><ele>1428.6666666666667</ele><time>2026-05-02T11:47:06Z</time></trkpt><trkpt lat="45.067855512281895" lon="6.728322937396932"><ele>1423.3333333333335</ele><time>2026-05-02T11:47:07Z</time></trkpt><trkpt lat="45.067893517003505" lon="6.7280817523409215"><ele>1418.0</ele><time>2026-05-02T11:47:08Z</time></trkpt><trkpt lat="45.06793200836715" lon="6.727838704437199"><ele>1412.0</ele><time>2026-05-02T11:47:09Z</time></trkpt><trkpt lat="45.067973285627865" lon="6.7276136969003355"><ele>1406.0</ele><time>2026-05-02T11:47:10Z</time></trkpt><trkpt lat="45.06803222653995" lon="6.7274008610825415"><ele>1400.0</ele><time>2026-05-02T11:47:11Z</time></trkpt><trkpt lat="45.06811872908341" lon="6.727200762316572"><ele>1400.0</ele><time>2026-05-02T11:47:12Z</time></trkpt><trkpt lat="45.068216080025415" lon="6.727027146633765"><ele>1400.0</ele><time>2026-05-02T11:47:13Z</time></trkpt><trkpt lat="45.06833449092473" lon="6.726845421779599"><ele>1400.0</ele><time>2026-05-02T11:47:14Z</time></trkpt><trkpt lat="45.06847627941295" lon="6.72665754013139"><ele>1402.0</ele><time>2026-05-02T11:47:15Z</time></trkpt><trkpt lat="45.068628154307305" lon="6.726483165328587"><ele>1404.0</ele><time>2026-05-02T11:47:16Z</time></trkpt><trkpt lat="45.06876052470251" lon="6.726316418709721"><ele>1406.0</ele><time>2026-05-02T11:47:17Z</time></trkpt><trkpt lat="45.068894118687965" lon="6.726159142880939"><ele>1406.3333333333335</ele><time>2026-05-02T11:47:18Z</time></trkpt><trkpt lat="45.06902646567236" lon="6.726020223569125"><ele>1406.6666666666667</ele><time>2026-05-02T11:47:19Z</time></trkpt><trkpt lat="45.06914372353874" lon="6.7258670808551"><ele>1407.0</ele><time>2026-05-02T11:47:20Z</time></trkpt><trkpt lat="45.069218944936374" lon="6.725634837727185"><ele>1407.0</ele><time>2026-05-02T11:47:21Z</time></trkpt><trkpt lat="45.069306607702096" lon="6.725398804957378"><ele>1407.0</ele><time>2026-05-02T11:47:22Z</time></trkpt><trkpt lat="45.0694169663743" lon="6.725166839799965"><ele>1407.0</ele><time>2026-05-02T11:47:23Z</time></trkpt><trkpt lat="45.069521323464905" lon="6.7249319406540815"><ele>1399.6666666666667</ele><time>2026-05-02T11:47:24Z</time></trkpt><trkpt lat="45.069625044091644" lon="6.7247193029031225"><ele>1392.3333333333335</ele><time>2026-05-02T11:47:25Z</time></trkpt><trkpt lat="45.069735106079065" lon="6.724514330482265"><ele>1385.0</ele><time>2026-05-02T11:47:26Z</time></trkpt><trkpt lat="45.06982287184379" lon="6.724319465394561"><ele>1386.3333333333335</ele><time>2026-05-02T11:47:27Z</time></trkpt><trkpt lat="45.06992029203671" lon="6.724139500950627"><ele>1387.6666666666667</ele><time>2026-05-02T11:47:28Z</time></trkpt><trkpt lat="45.07003874960134" lon="6.723962442851871"><ele>1389.0</ele><time>2026-05-02T11:47:29Z</time></trkpt><trkpt lat="45.07014722083722" lon="6.723793182098903"><ele>1389.0</ele><time>2026-05-02T11:47:30Z</time></trkpt><trkpt lat="45.07022234656522" lon="6.723594627927675"><ele>1389.0</ele><time>2026-05-02T11:47:31Z</time></trkpt><trkpt lat="45.07028512149904" lon="6.723390401365166"><ele>1389.0</ele><time>2026-05-02T11:47:32Z</time></trkpt><trkpt lat="45.070338963279546" lon="6.723193131829138"><ele>1384.25</ele><time>2026-05-02T11:47:33Z</time></trkpt><trkpt lat="45.07037205475551" lon="6.723010007289524"><ele>1379.5</ele><time>2026-05-02T11:47:34Z</time></trkpt><trkpt lat="45.07040080236562" lon="6.7228164704196125"><ele>1374.75</ele><time>2026-05-02T11:47:35Z</time></trkpt><trkpt lat="45.07042776316359" lon="6.722629594976135"><ele>1370.0</ele><time>2026-05-02T11:47:36Z</time></trkpt><trkpt lat="45.07046223155479" lon="6.722466233844466"><ele>1366.0</ele><time>2026-05-02T11:47:37Z</time></trkpt><trkpt lat="45.0705094589115" lon="6.722328089570782"><ele>1362.0</ele><time>2026-05-02T11:47:38Z</time></trkpt><trkpt lat="45.070568624079314" lon="6.722192867020983"><ele>1358.0</ele><time>2026-05-02T11:47:39Z</time></trkpt><trkpt lat="45.07063838108126" lon="6.72206420795152"><ele>1354.0</ele><time>2026-05-02T11:47:40Z</time></trkpt><trkpt lat="45.07073000139697" lon="6.721961476809696"><ele>1356.5</ele><time>2026-05-02T11:47:41Z</time></trkpt><trkpt lat="45.070816843862566" lon="6.721850235563718"><ele>1359.0</ele><time>2026-05-02T11:47:42Z</time></trkpt><trkpt lat="45.07087239698627" lon="6.721698455763933"><ele>1361.5</ele><time>2026-05-02T11:47:43Z</time></trkpt><trkpt lat="45.07092666692374" lon="6.721549054277284"><ele>1364.0</ele><time>2026-05-02T11:47:44Z</time></trkpt><trkpt lat="45.07099562399958" lon="6.721427342484797"><ele>1364.0</ele><time>2026-05-02T11:47:45Z</time></trkpt><trkpt lat="45.07107957996184" lon="6.72132247756725"><ele>1364.0</ele><time>2026-05-02T11:47:46Z</time></trkpt><trkpt lat="45.07116595413542" lon="6.72125373013915"><ele>1364.0</ele><time>2026-05-02T11:47:47Z</time></trkpt><trkpt lat="45.07123963192201" lon="6.72120800755892"><ele>1364.0</ele><time>2026-05-02T11:47:48Z</time></trkpt><trkpt lat="45.071291496470266" lon="6.721152678102816"><ele>1364.0</ele><time>2026-05-02T11:47:50Z</time></trkpt><trkpt lat="45.071333477877644" lon="6.721053163206323"><ele>1364.0</ele><time>2026-05-02T11:48:11Z</time></trkpt><trkpt lat="45.07136227275831" lon="6.7209084472610074"><ele>1360.8333333333335</ele><time>2026-05-02T11:48:13Z</time></trkpt><trkpt lat="45.071379691751964" lon="6.720809886655949"><ele>1357.6666666666667</ele><time>2026-05-02T11:48:14Z</time></trkpt><trkpt lat="45.07139637437605" lon="6.720686339699632"><ele>1354.5</ele><time>2026-05-02T11:48:15Z</time></trkpt><trkpt lat="45.07139900876052" lon="6.720556090258064"><ele>1351.3333333333333</ele><time>2026-05-02T11:48:16Z</time></trkpt><trkpt lat="45.07142825383783" lon="6.720440778256217"><ele>1348.1666666666665</ele><time>2026-05-02T11:48:17Z</time></trkpt><trkpt lat="45.07145543481454" lon="6.7203559874673395"><ele>1345.0</ele><time>2026-05-02T11:48:18Z</time></trkpt><trkpt lat="45.07151126891042" lon="6.720269133072064"><ele>1345.5</ele><time>2026-05-02T11:48:21Z</time></trkpt><trkpt lat="45.07154040588459" lon="6.720176656498829"><ele>1346.0</ele><time>2026-05-02T11:48:25Z</time></trkpt><trkpt lat="45.07162359894988" lon="6.72012255515372"><ele>1346.5</ele><time>2026-05-02T11:48:28Z</time></trkpt><trkpt lat="45.0716935578775" lon="6.720050666143096"><ele>1347.0</ele><time>2026-05-02T11:48:31Z</time></trkpt><trkpt lat="45.071745442283074" lon="6.719989637462069"><ele>1347.5</ele><time>2026-05-02T11:48:33Z</time></trkpt><trkpt lat="45.07180398103966" lon="6.7199125371071595"><ele>1348.0</ele><time>2026-05-02T11:48:35Z</time></trkpt><trkpt lat="45.07189779488903" lon="6.7198173206430205"><ele>1348.0</ele><time>2026-05-02T11:48:37Z</time></trkpt><trkpt lat="45.071992805291224" lon="6.719751874828925"><ele>1348.0</ele><time>2026-05-02T11:48:39Z</time></trkpt><trkpt lat="45.07210592130577" lon="6.719680545842638"><ele>1348.0</ele><time>2026-05-02T11:48:41Z</time></trkpt><trkpt lat="45.07217805706732" lon="6.719670997561662"><ele>1348.0</ele><time>2026-05-02T11:48:42Z</time></trkpt><trkpt lat="45.07224294829848" lon="6.719640606704306"><ele>1348.0</ele><time>2026-05-02T11:48:43Z</time></trkpt><trkpt lat="45.072316839404785" lon="6.719606000734115"><ele>1348.0</ele><time>2026-05-02T11:48:44Z</time></trkpt><trkpt lat="45.07235652567216" lon="6.7194615957608335"><ele>1346.3333333333333</ele><time>2026-05-02T11:48:45Z</time></trkpt><trkpt lat="45.07239723161966" lon="6.719376093808319"><ele>1344.6666666666665</ele><time>2026-05-02T11:48:46Z</time></trkpt><trkpt lat="45.07242910807118" lon="6.719292512187431"><ele>1343.0</ele><time>2026-05-02T11:48:47Z</time></trkpt><trkpt lat="45.072464275995614" lon="6.719201986174959"><ele>1341.3333333333333</ele><time>2026-05-02T11:48:48Z</time></trkpt><trkpt lat="45.072515044054875" lon="6.719127445552558"><ele>1339.6666666666667</ele><time>2026-05-02T11:48:49Z</time></trkpt><trkpt lat="45.0725698549458" lon="6.719074762033422"><ele>1338.0</ele><time>2026-05-02T11:48:50Z</time></trkpt><trkpt lat="45.072673236419334" lon="6.719018671339747"><ele>1338.0</ele><time>2026-05-02T11:48:52Z</time></trkpt><trkpt lat="45.072787355136334" lon="6.718992978682476"><ele>1338.0</ele><time>2026-05-02T11:48:54Z</time></trkpt><trkpt lat="45.07285828557365" lon="6.718982951156361"><ele>1338.0</ele><time>2026-05-02T11:48:55Z</time></trkpt><trkpt lat="45.07293253511679" lon="6.718954377271759"><ele>1338.0</ele><time>2026-05-02T11:48:56Z</time></trkpt><trkpt lat="45.0729932192337" lon="6.71887264627336"><ele>1338.0</ele><time>2026-05-02T11:48:57Z</time></trkpt><trkpt lat="45.0730316869289" lon="6.718785617204636"><ele>1338.0</ele><time>2026-05-02T11:48:58Z</time></trkpt><trkpt lat="45.0730581157349" lon="6.718695204643918"><ele>1338.0</ele><time>2026-05-02T11:48:59Z</time></trkpt><trkpt lat="45.07307675666582" lon="6.718607326061468"><ele>1338.0</ele><time>2026-05-02T11:49:00Z</time></trkpt><trkpt lat="45.073098120430075" lon="6.718514003151495"><ele>1338.0</ele><time>2026-05-02T11:49:01Z</time></trkpt><trkpt lat="45.07312475114189" lon="6.718410019468269"><ele>1338.0</ele><time>2026-05-02T11:49:02Z</time></trkpt><trkpt lat="45.073177191369105" lon="6.718318745610505"><ele>1338.0</ele><time>2026-05-02T11:49:03Z</time></trkpt><trkpt lat="45.07323078467306" lon="6.718234936022714"><ele>1338.0</ele><time>2026-05-02T11:49:04Z</time></trkpt><trkpt lat="45.073291879729766" lon="6.718155457091825"><ele>1337.0</ele><time>2026-05-02T11:49:05Z</time></trkpt><trkpt lat="45.07335250719622" lon="6.718073485354447"><ele>1336.0</ele><time>2026-05-02T11:49:06Z</time></trkpt><trkpt lat="45.073419745011265" lon="6.718000859463268"><ele>1335.0</ele><time>2026-05-02T11:49:07Z</time></trkpt><trkpt lat="45.0734963531432" lon="6.717933730246094"><ele>1334.0</ele><time>2026-05-02T11:49:08Z</time></trkpt><trkpt lat="45.07358960133672" lon="6.717903731226677"><ele>1333.0</ele><time>2026-05-02T11:49:09Z</time></trkpt><trkpt lat="45.07368305172558" lon="6.7178767973188815"><ele>1332.0</ele><time>2026-05-02T11:49:10Z</time></trkpt><trkpt lat="45.07377829257764" lon="6.717829532712342"><ele>1332.0</ele><time>2026-05-02T11:49:11Z</time></trkpt><trkpt lat="45.07385443287179" lon="6.717758677781698"><ele>1332.0</ele><time>2026-05-02T11:49:12Z</time></trkpt><trkpt lat="45.07393711464816" lon="6.717688063126809"><ele>1332.0</ele><time>2026-05-02T11:49:13Z</time></trkpt><trkpt lat="45.07399126850422" lon="6.717573127827985"><ele>1332.0</ele><time>2026-05-02T11:49:14Z</time></trkpt><trkpt lat="45.07405340660679" lon="6.717469733121984"><ele>1332.0</ele><time>2026-05-02T11:49:15Z</time></trkpt><trkpt lat="45.07411828166932" lon="6.7173683722083695"><ele>1330.0</ele><time>2026-05-02T11:49:16Z</time></trkpt><trkpt lat="45.07417645882057" lon="6.717266773857253"><ele>1328.0</ele><time>2026-05-02T11:49:17Z</time></trkpt><trkpt lat="45.0742414601409" lon="6.717174575915609"><ele>1326.0</ele><time>2026-05-02T11:49:18Z</time></trkpt><trkpt lat="45.07430369314224" lon="6.717086938403592"><ele>1324.0</ele><time>2026-05-02T11:49:19Z</time></trkpt><trkpt lat="45.07436009524837" lon="6.716994172295803"><ele>1322.0</ele><time>2026-05-02T11:49:20Z</time></trkpt><trkpt lat="45.07442251444511" lon="6.716902015376005"><ele>1320.0</ele><time>2026-05-02T11:49:21Z</time></trkpt><trkpt lat="45.07448670034391" lon="6.716812555519949"><ele>1317.2</ele><time>2026-05-02T11:49:22Z</time></trkpt><trkpt lat="45.07454887765768" lon="6.7167223650489465"><ele>1314.4</ele><time>2026-05-02T11:49:23Z</time></trkpt><trkpt lat="45.07462120748886" lon="6.716642207800654"><ele>1311.6</ele><time>2026-05-02T11:49:24Z</time></trkpt><trkpt lat="45.07469631871932" lon="6.716575142856487"><ele>1308.8</ele><time>2026-05-02T11:49:25Z</time></trkpt><trkpt lat="45.07477168676953" lon="6.716504781724656"><ele>1306.0</ele><time>2026-05-02T11:49:26Z</time></trkpt><trkpt lat="45.07484930230771" lon="6.716437560415806"><ele>1307.6</ele><time>2026-05-02T11:49:27Z</time></trkpt><trkpt lat="45.07493775087129" lon="6.716370527078867"><ele>1309.1999999999998</ele><time>2026-05-02T11:49:28Z</time></trkpt><trkpt lat="45.07503000979748" lon="6.716301248797979"><ele>1310.8000000000002</ele><time>2026-05-02T11:49:29Z</time></trkpt><trkpt lat="45.07513149134914" lon="6.716238242705495"><ele>1312.4</ele><time>2026-05-02T11:49:30Z</time></trkpt><trkpt lat="45.07522653078995" lon="6.716187189216734"><ele>1314.0</ele><time>2026-05-02T11:49:31Z</time></trkpt><trkpt lat="45.075317622267285" lon="6.716140268721802"><ele>1314.0</ele><time>2026-05-02T11:49:32Z</time></trkpt><trkpt lat="45.075413467100184" lon="6.716101464217873"><ele>1314.0</ele><time>2026-05-02T11:49:33Z</time></trkpt><trkpt lat="45.07550555270533" lon="6.7160957192783455"><ele>1314.0</ele><time>2026-05-02T11:49:34Z</time></trkpt><trkpt lat="45.07559759549273" lon="6.716080993885343"><ele>1314.0</ele><time>2026-05-02T11:49:35Z</time></trkpt><trkpt lat="45.07570019559474" lon="6.716059096470347"><ele>1314.0</ele><time>2026-05-02T11:49:36Z</time></trkpt><trkpt lat="45.07579019989286" lon="6.716062030910602"><ele>1311.3333333333333</ele><time>2026-05-02T11:49:37Z</time></trkpt><trkpt lat="45.075867123467575" lon="6.716062443415831"><ele>1308.6666666666667</ele><time>2026-05-02T11:49:38Z</time></trkpt><trkpt lat="45.075951030306" lon="6.716055831006078"><ele>1306.0</ele><time>2026-05-02T11:49:39Z</time></trkpt><trkpt lat="45.07602947436536" lon="6.716014618069983"><ele>1303.3333333333335</ele><time>2026-05-02T11:49:40Z</time></trkpt><trkpt lat="45.0760939428735" lon="6.715950101106353"><ele>1300.6666666666667</ele><time>2026-05-02T11:49:41Z</time></trkpt><trkpt lat="45.07609589498612" lon="6.715794721486415"><ele>1298.0</ele><time>2026-05-02T11:49:42Z</time></trkpt><trkpt lat="45.07611248546301" lon="6.715656236752407"><ele>1298.0</ele><time>2026-05-02T11:49:43Z</time></trkpt><trkpt lat="45.0761396422944" lon="6.715456301700368"><ele>1298.0</ele><time>2026-05-02T11:49:44Z</time></trkpt><trkpt lat="45.07616992468682" lon="6.715191307031846"><ele>1298.0</ele><time>2026-05-02T11:49:45Z</time></trkpt><trkpt lat="45.07619473471719" lon="6.714918994129906"><ele>1290.0</ele><time>2026-05-02T11:49:46Z</time></trkpt><trkpt lat="45.07620922252528" lon="6.714656432745273"><ele>1282.0</ele><time>2026-05-02T11:49:47Z</time></trkpt><trkpt lat="45.07622204157042" lon="6.714407800257431"><ele>1274.0</ele><time>2026-05-02T11:49:48Z</time></trkpt><trkpt lat="45.076244930803526" lon="6.71422400736612"><ele>1268.75</ele><time>2026-05-02T11:49:49Z</time></trkpt><trkpt lat="45.07627391442945" lon="6.714061784723188"><ele>1263.5</ele><time>2026-05-02T11:49:50Z</time></trkpt><trkpt lat="45.076330842456905" lon="6.713921022993825"><ele>1258.25</ele><time>2026-05-02T11:49:51Z</time></trkpt><trkpt lat="45.076443188158336" lon="6.713792616115002"><ele>1253.0</ele><time>2026-05-02T11:49:52Z</time></trkpt><trkpt lat="45.07657825911041" lon="6.71364658489364"><ele>1257.0</ele><time>2026-05-02T11:49:53Z</time></trkpt><trkpt lat="45.076739890536686" lon="6.713467522042599"><ele>1261.0</ele><time>2026-05-02T11:49:54Z</time></trkpt><trkpt lat="45.07690791544785" lon="6.713299060381186"><ele>1265.0</ele><time>2026-05-02T11:49:55Z</time></trkpt><trkpt lat="45.07704861189485" lon="6.713128021499737"><ele>1265.0</ele><time>2026-05-02T11:49:56Z</time></trkpt><trkpt lat="45.077181024930134" lon="6.712951318445015"><ele>1265.0</ele><time>2026-05-02T11:49:57Z</time></trkpt><trkpt lat="45.077272574611364" lon="6.712753738236895"><ele>1265.0</ele><time>2026-05-02T11:49:58Z</time></trkpt><trkpt lat="45.07738061614119" lon="6.712601002844941"><ele>1266.6666666666667</ele><time>2026-05-02T11:49:59Z</time></trkpt><trkpt lat="45.077497030310404" lon="6.712467647434959"><ele>1268.3333333333333</ele><time>2026-05-02T11:50:00Z</time></trkpt><trkpt lat="45.077610665322226" lon="6.712333879082238"><ele>1270.0</ele><time>2026-05-02T11:50:01Z</time></trkpt><trkpt lat="45.077723125803" lon="6.712179966372411"><ele>1270.0</ele><time>2026-05-02T11:50:02Z</time></trkpt><trkpt lat="45.077833813901314" lon="6.71200426140227"><ele>1270.0</ele><time>2026-05-02T11:50:03Z</time></trkpt><trkpt lat="45.07793683301571" lon="6.711822864495315"><ele>1270.0</ele><time>2026-05-02T11:50:04Z</time></trkpt><trkpt lat="45.07802705645555" lon="6.7116558952483825"><ele>1269.75</ele><time>2026-05-02T11:50:05Z</time></trkpt><trkpt lat="45.078132587030666" lon="6.711532438706664"><ele>1269.5</ele><time>2026-05-02T11:50:06Z</time></trkpt><trkpt lat="45.07822165569034" lon="6.711416057971986"><ele>1269.25</ele><time>2026-05-02T11:50:07Z</time></trkpt><trkpt lat="45.078307507328795" lon="6.711324260742954"><ele>1269.0</ele><time>2026-05-02T11:50:08Z</time></trkpt><trkpt lat="45.07840074830785" lon="6.711266134077127"><ele>1269.0</ele><time>2026-05-02T11:50:09Z</time></trkpt><trkpt lat="45.078485037122526" lon="6.711198862643394"><ele>1269.0</ele><time>2026-05-02T11:50:10Z</time></trkpt><trkpt lat="45.07857631727351" lon="6.711168098663393"><ele>1269.0</ele><time>2026-05-02T11:50:11Z</time></trkpt><trkpt lat="45.07864692229263" lon="6.7110846220491425"><ele>1269.0</ele><time>2026-05-02T11:50:12Z</time></trkpt><trkpt lat="45.07864015518981" lon="6.710912365309217"><ele>1269.0</ele><time>2026-05-02T11:50:13Z</time></trkpt><trkpt lat="45.078640501060434" lon="6.710771491409467"><ele>1267.4</ele><time>2026-05-02T11:50:14Z</time></trkpt><trkpt lat="45.07864393652499" lon="6.710613379904813"><ele>1265.8000000000002</ele><time>2026-05-02T11:50:15Z</time></trkpt><trkpt lat="45.0786533090234" lon="6.710456351657561"><ele>1264.1999999999998</ele><time>2026-05-02T11:50:16Z</time></trkpt><trkpt lat="45.07866940304896" lon="6.710340373172921"><ele>1262.6</ele><time>2026-05-02T11:50:17Z</time></trkpt><trkpt lat="45.07867378632147" lon="6.710249248234286"><ele>1261.0</ele><time>2026-05-02T11:50:18Z</time></trkpt><trkpt lat="45.07868792937185" lon="6.710113216114607"><ele>1261.0</ele><time>2026-05-02T11:50:20Z</time></trkpt><trkpt lat="45.0786833570051" lon="6.710019532032627"><ele>1261.0</ele><time>2026-05-02T11:50:24Z</time></trkpt><trkpt lat="45.07854235844815" lon="6.710104004074037"><ele>1261.0</ele><time>2026-05-02T11:50:27Z</time></trkpt><trkpt lat="45.078451767693046" lon="6.7101409530366745"><ele>1261.0</ele><time>2026-05-02T11:50:29Z</time></trkpt><trkpt lat="45.07834218966906" lon="6.710181667488583"><ele>1261.0</ele><time>2026-05-02T11:50:31Z</time></trkpt><trkpt lat="45.07822186076196" lon="6.710231924778083"><ele>1260.6666666666665</ele><time>2026-05-02T11:50:33Z</time></trkpt><trkpt lat="45.078116636482804" lon="6.710279344908607"><ele>1260.3333333333333</ele><time>2026-05-02T11:50:35Z</time></trkpt><trkpt lat="45.078014338950666" lon="6.710299260486571"><ele>1260.0</ele><time>2026-05-02T11:50:37Z</time></trkpt><trkpt lat="45.07795605022973" lon="6.7103510088583"><ele>1259.6666666666667</ele><time>2026-05-02T11:50:38Z</time></trkpt><trkpt lat="45.0778985109914" lon="6.710398757807659"><ele>1259.3333333333335</ele><time>2026-05-02T11:50:39Z</time></trkpt><trkpt lat="45.07783814289772" lon="6.710446718283131"><ele>1259.0</ele><time>2026-05-02T11:50:40Z</time></trkpt><trkpt lat="45.07773956889764" lon="6.710528398679451"><ele>1259.0</ele><time>2026-05-02T11:50:42Z</time></trkpt><trkpt lat="45.07763465932182" lon="6.710601938968853"><ele>1259.0</ele><time>2026-05-02T11:50:44Z</time></trkpt><trkpt lat="45.077557236778325" lon="6.710666653005386"><ele>1259.0</ele><time>2026-05-02T11:50:46Z</time></trkpt><trkpt lat="45.07749348574792" lon="6.710679980397612"><ele>1259.0</ele><time>2026-05-02T11:50:48Z</time></trkpt><trkpt lat="45.07742157252267" lon="6.710654697798999"><ele>1259.0</ele><time>2026-05-02T11:51:13Z</time></trkpt><trkpt lat="45.07734990489813" lon="6.71063290876779"><ele>1259.0</ele><time>2026-05-02T11:51:20Z</time></trkpt><trkpt lat="45.077299204795715" lon="6.7108192819859305"><ele>1256.0</ele><time>2026-05-02T11:51:26Z</time></trkpt><trkpt lat="45.077319830063374" lon="6.710916610794464"><ele>1256.0</ele><time>2026-05-02T11:52:03Z</time></trkpt></trkseg><trkseg><trkpt lat="45.0772517630631" lon="6.710916668592549"><ele>1247.0</ele><time>2026-05-02T13:05:13Z</time></trkpt><trkpt lat="45.07644146669249" lon="6.713322723512248"><ele>1247.0</ele><time>2026-05-02T13:15:48Z</time></trkpt><trkpt lat="45.07633071527279" lon="6.713401299769547"><ele>1247.0</ele><time>2026-05-02T13:15:49Z</time></trkpt><trkpt lat="45.07622041832761" lon="6.713485384309337"><ele>1247.0</ele><time>2026-05-02T13:15:50Z</time></trkpt><trkpt lat="45.07610479080983" lon="6.713561560691951"><ele>1247.0</ele><time>2026-05-02T13:15:51Z</time></trkpt><trkpt lat="45.07598720011038" lon="6.713628948984493"><ele>1247.0</ele><time>2026-05-02T13:15:52Z</time></trkpt><trkpt lat="45.07586962461788" lon="6.7136912200111505"><ele>1247.0</ele><time>2026-05-02T13:15:53Z</time></trkpt><trkpt lat="45.07575259237662" lon="6.713753005981473"><ele>1247.0</ele><time>2026-05-02T13:15:54Z</time></trkpt><trkpt lat="45.075632994749576" lon="6.713816675842271"><ele>1247.0</ele><time>2026-05-02T13:15:55Z</time></trkpt><trkpt lat="45.07551122626875" lon="6.713883979399587"><ele>1247.0</ele><time>2026-05-02T13:15:56Z</time></trkpt><trkpt lat="45.075391785816144" lon="6.713950499817211"><ele>1247.0</ele><time>2026-05-02T13:15:57Z</time></trkpt><trkpt lat="45.075269632223666" lon="6.713991635254021"><ele>1247.0</ele><time>2026-05-02T13:15:58Z</time></trkpt><trkpt lat="45.07515057234697" lon="6.7140751842029465"><ele>1247.0</ele><time>2026-05-02T13:15:59Z</time></trkpt><trkpt lat="45.07502549604897" lon="6.714119370730318"><ele>1245.5</ele><time>2026-05-02T13:16:00Z</time></trkpt><trkpt lat="45.07491368465078" lon="6.714177856570017"><ele>1244.0</ele><time>2026-05-02T13:16:01Z</time></trkpt><trkpt lat="45.074792204699214" lon="6.714259372537612"><ele>1242.5</ele><time>2026-05-02T13:16:02Z</time></trkpt><trkpt lat="45.07467350931053" lon="6.714324141867532"><ele>1241.0</ele><time>2026-05-02T13:16:03Z</time></trkpt><trkpt lat="45.07454959434294" lon="6.714389464926475"><ele>1241.25</ele><time>2026-05-02T13:16:04Z</time></trkpt><trkpt lat="45.07441733528189" lon="6.714448802026838"><ele>1241.5</ele><time>2026-05-02T13:16:05Z</time></trkpt><trkpt lat="45.074297866121306" lon="6.714516818111903"><ele>1241.75</ele><time>2026-05-02T13:16:06Z</time></trkpt><trkpt lat="45.07417597601006" lon="6.714581298735698"><ele>1242.0</ele><time>2026-05-02T13:16:07Z</time></trkpt><trkpt lat="45.07404654406503" lon="6.7146416490105185"><ele>1242.0</ele><time>2026-05-02T13:16:08Z</time></trkpt><trkpt lat="45.07393446246637" lon="6.714698461417285"><ele>1242.0</ele><time>2026-05-02T13:16:09Z</time></trkpt><trkpt lat="45.073816755446614" lon="6.714759463539284"><ele>1242.0</ele><time>2026-05-02T13:16:10Z</time></trkpt><trkpt lat="45.07369391973894" lon="6.714822305758096"><ele>1242.0</ele><time>2026-05-02T13:16:11Z</time></trkpt><trkpt lat="45.07354958573341" lon="6.714888840866194"><ele>1242.0</ele><time>2026-05-02T13:16:12Z</time></trkpt><trkpt lat="45.073392291438154" lon="6.714959001707234"><ele>1242.0</ele><time>2026-05-02T13:16:13Z</time></trkpt><trkpt lat="45.07322426506073" lon="6.715034447295897"><ele>1242.0</ele><time>2026-05-02T13:16:14Z</time></trkpt><trkpt lat="45.07304930119316" lon="6.715130004695484"><ele>1241.6666666666667</ele><time>2026-05-02T13:16:15Z</time></trkpt><trkpt lat="45.07284302852261" lon="6.715217493716624"><ele>1241.3333333333335</ele><time>2026-05-02T13:16:16Z</time></trkpt><trkpt lat="45.07264352916589" lon="6.715310996495838"><ele>1241.0</ele><time>2026-05-02T13:16:17Z</time></trkpt><trkpt lat="45.072437165627605" lon="6.715409592234687"><ele>1240.3333333333335</ele><time>2026-05-02T13:16:18Z</time></trkpt><trkpt lat="45.0722378554482" lon="6.715505178728133"><ele>1239.6666666666667</ele><time>2026-05-02T13:16:19Z</time></trkpt><trkpt lat="45.07203807270586" lon="6.715612385745209"><ele>1239.0</ele><time>2026-05-02T13:16:20Z</time></trkpt><trkpt lat="45.07185036391643" lon="6.715696269195056"><ele>1239.0</ele><time>2026-05-02T13:16:21Z</time></trkpt><trkpt lat="45.07168292847682" lon="6.715734340936734"><ele>1239.0</ele><time>2026-05-02T13:16:22Z</time></trkpt><trkpt lat="45.07152962240777" lon="6.71578434880637"><ele>1239.0</ele><time>2026-05-02T13:16:23Z</time></trkpt><trkpt lat="45.07144281217766" lon="6.7159425941811675"><ele>1238.0</ele><time>2026-05-02T13:16:24Z</time></trkpt><trkpt lat="45.07130224894576" lon="6.716089728191866"><ele>1237.0</ele><time>2026-05-02T13:16:25Z</time></trkpt><trkpt lat="45.071168152927314" lon="6.716263587954314"><ele>1236.0</ele><time>2026-05-02T13:16:26Z</time></trkpt><trkpt lat="45.07106251960512" lon="6.716439744753522"><ele>1236.0</ele><time>2026-05-02T13:16:27Z</time></trkpt><trkpt lat="45.070936589763576" lon="6.716621535409351"><ele>1236.0</ele><time>2026-05-02T13:16:28Z</time></trkpt><trkpt lat="45.07079420380198" lon="6.71680367543404"><ele>1236.0</ele><time>2026-05-02T13:16:29Z</time></trkpt><trkpt lat="45.07064507321355" lon="6.716981711638155"><ele>1241.6666666666667</ele><time>2026-05-02T13:16:30Z</time></trkpt><trkpt lat="45.070497493556985" lon="6.717159907121029"><ele>1247.3333333333335</ele><time>2026-05-02T13:16:31Z</time></trkpt><trkpt lat="45.070346097798456" lon="6.71735113647066"><ele>1253.0</ele><time>2026-05-02T13:16:32Z</time></trkpt><trkpt lat="45.070227721048234" lon="6.7176005610230884"><ele>1251.3333333333335</ele><time>2026-05-02T13:16:33Z</time></trkpt><trkpt lat="45.070112492005265" lon="6.717855544927781"><ele>1249.6666666666667</ele><time>2026-05-02T13:16:34Z</time></trkpt><trkpt lat="45.06998657163819" lon="6.7180892290668845"><ele>1248.0</ele><time>2026-05-02T13:16:35Z</time></trkpt><trkpt lat="45.06984456404591" lon="6.718319458072617"><ele>1246.6666666666667</ele><time>2026-05-02T13:16:36Z</time></trkpt><trkpt lat="45.069692238106185" lon="6.718537902200488"><ele>1245.3333333333335</ele><time>2026-05-02T13:16:37Z</time></trkpt><trkpt lat="45.06952305600573" lon="6.718734156810231"><ele>1244.0</ele><time>2026-05-02T13:16:38Z</time></trkpt><trkpt lat="45.06934286645717" lon="6.7189073179028735"><ele>1244.0</ele><time>2026-05-02T13:16:39Z</time></trkpt><trkpt lat="45.06915920550831" lon="6.719082406138361"><ele>1244.0</ele><time>2026-05-02T13:16:40Z</time></trkpt><trkpt lat="45.06898561322704" lon="6.719262607407757"><ele>1244.0</ele><time>2026-05-02T13:16:41Z</time></trkpt><trkpt lat="45.06883141219552" lon="6.7194941912492645"><ele>1242.0</ele><time>2026-05-02T13:16:42Z</time></trkpt><trkpt lat="45.068673613267364" lon="6.719717870379909"><ele>1240.0</ele><time>2026-05-02T13:16:43Z</time></trkpt><trkpt lat="45.06852380508074" lon="6.71994877087527"><ele>1238.0</ele><time>2026-05-02T13:16:44Z</time></trkpt><trkpt lat="45.068379195766376" lon="6.720171406641369"><ele>1238.0</ele><time>2026-05-02T13:16:45Z</time></trkpt><trkpt lat="45.0682478125966" lon="6.720380089050876"><ele>1238.0</ele><time>2026-05-02T13:16:46Z</time></trkpt><trkpt lat="45.06812159700418" lon="6.720598259522887"><ele>1238.0</ele><time>2026-05-02T13:16:47.001Z</time></trkpt><trkpt lat="45.05501027107042" lon="6.7394654113999675"><ele>1181.0</ele><time>2026-05-02T13:18:36Z</time></trkpt><trkpt lat="45.054764027044655" lon="6.740068113711321"><ele>1182.0</ele><time>2026-05-02T13:18:39.001Z</time></trkpt><trkpt lat="45.05467841710612" lon="6.740261819839986"><ele>1183.0</ele><time>2026-05-02T13:18:40.001Z</time></trkpt><trkpt lat="45.05391136694846" lon="6.74179117009477"><ele>1181.3333333333333</ele><time>2026-05-02T13:18:48.001Z</time></trkpt><trkpt lat="45.053793978123934" lon="6.741968091362207"><ele>1179.6666666666667</ele><time>2026-05-02T13:18:49.001Z</time></trkpt><trkpt lat="45.053674363276045" lon="6.742136868967531"><ele>1178.0</ele><time>2026-05-02T13:18:50.001Z</time></trkpt><trkpt lat="45.0535490892518" lon="6.742302560445114"><ele>1178.0</ele><time>2026-05-02T13:18:51.001Z</time></trkpt><trkpt lat="45.05341835227309" lon="6.742460473321343"><ele>1178.0</ele><time>2026-05-02T13:18:52.001Z</time></trkpt><trkpt lat="45.05328259416409" lon="6.742613594947057"><ele>1178.0</ele><time>2026-05-02T13:18:53.001Z</time></trkpt><trkpt lat="45.05314917855619" lon="6.74278106833486"><ele>1177.6666666666667</ele><time>2026-05-02T13:18:54.001Z</time></trkpt><trkpt lat="45.05300176636263" lon="6.742915617566027"><ele>1177.3333333333333</ele><time>2026-05-02T13:18:55Z</time></trkpt><trkpt lat="45.05284885078605" lon="6.743044444731885"><ele>1177.0</ele><time>2026-05-02T13:18:56Z</time></trkpt><trkpt lat="45.05270184950268" lon="6.743172755226095"><ele>1177.0</ele><time>2026-05-02T13:18:57Z</time></trkpt><trkpt lat="45.05256013480452" lon="6.743286439576449"><ele>1177.0</ele><time>2026-05-02T13:18:58Z</time></trkpt><trkpt lat="45.05243617747047" lon="6.743398643770458"><ele>1177.0</ele><time>2026-05-02T13:18:59Z</time></trkpt><trkpt lat="45.05230587955503" lon="6.743500831595425"><ele>1175.75</ele><time>2026-05-02T13:19:00Z</time></trkpt><trkpt lat="45.05218892611189" lon="6.743601136604783"><ele>1174.5</ele><time>2026-05-02T13:19:01Z</time></trkpt><trkpt lat="45.05207951979299" lon="6.7436826279137625"><ele>1173.25</ele><time>2026-05-02T13:19:02Z</time></trkpt><trkpt lat="45.05199938051196" lon="6.743812900782969"><ele>1172.0</ele><time>2026-05-02T13:19:03Z</time></trkpt><trkpt lat="45.05194579795254" lon="6.743988572185427"><ele>1172.0</ele><time>2026-05-02T13:19:04Z</time></trkpt><trkpt lat="45.0519026384963" lon="6.744185144503454"><ele>1172.0</ele><time>2026-05-02T13:19:05Z</time></trkpt><trkpt lat="45.05182738731934" lon="6.744385213648694"><ele>1172.0</ele><time>2026-05-02T13:19:06Z</time></trkpt><trkpt lat="45.05173729209375" lon="6.744580258690408"><ele>1171.6666666666667</ele><time>2026-05-02T13:19:07Z</time></trkpt><trkpt lat="45.051630765545895" lon="6.744803798948792"><ele>1171.3333333333333</ele><time>2026-05-02T13:19:08Z</time></trkpt><trkpt lat="45.05151554408102" lon="6.745036807599759"><ele>1171.0</ele><time>2026-05-02T13:19:09Z</time></trkpt><trkpt lat="45.05141246771956" lon="6.745291662022853"><ele>1171.0</ele><time>2026-05-02T13:19:10Z</time></trkpt><trkpt lat="45.0512922096488" lon="6.745508436852706"><ele>1171.0</ele><time>2026-05-02T13:19:11Z</time></trkpt><trkpt lat="45.05116871273842" lon="6.745681609365434"><ele>1171.0</ele><time>2026-05-02T13:19:12Z</time></trkpt><trkpt lat="45.05103275188184" lon="6.7458690409987945"><ele>1171.0</ele><time>2026-05-02T13:19:13Z</time></trkpt><trkpt lat="45.05086932294526" lon="6.746002885813983"><ele>1171.0</ele><time>2026-05-02T13:19:14Z</time></trkpt><trkpt lat="45.05073146502066" lon="6.746187551082283"><ele>1171.0</ele><time>2026-05-02T13:19:15Z</time></trkpt><trkpt lat="45.0506038309435" lon="6.74637801067601"><ele>1167.6666666666665</ele><time>2026-05-02T13:19:16Z</time></trkpt><trkpt lat="45.05052421650783" lon="6.746618504919775"><ele>1164.3333333333333</ele><time>2026-05-02T13:19:17Z</time></trkpt><trkpt lat="45.050441033481015" lon="6.74687167104801"><ele>1161.0</ele><time>2026-05-02T13:19:18Z</time></trkpt><trkpt lat="45.050399415224334" lon="6.747151404701913"><ele>1161.0</ele><time>2026-05-02T13:19:19Z</time></trkpt><trkpt lat="45.050339211978425" lon="6.747430517118616"><ele>1161.0</ele><time>2026-05-02T13:19:20Z</time></trkpt><trkpt lat="45.0502845534273" lon="6.74771282502214"><ele>1161.0</ele><time>2026-05-02T13:19:21Z</time></trkpt><trkpt lat="45.05021711905767" lon="6.747983734650411"><ele>1161.3333333333333</ele><time>2026-05-02T13:19:22Z</time></trkpt><trkpt lat="45.05013482295775" lon="6.748247100865998"><ele>1161.6666666666665</ele><time>2026-05-02T13:19:23Z</time></trkpt><trkpt lat="45.05006975039941" lon="6.74851491685474"><ele>1162.0</ele><time>2026-05-02T13:19:24Z</time></trkpt><trkpt lat="45.04999596527657" lon="6.748780998296804"><ele>1161.6666666666665</ele><time>2026-05-02T13:19:25Z</time></trkpt><trkpt lat="45.04992374982851" lon="6.749049445312198"><ele>1161.3333333333333</ele><time>2026-05-02T13:19:26Z</time></trkpt><trkpt lat="45.04982063918526" lon="6.7493037547620105"><ele>1161.0</ele><time>2026-05-02T13:19:27Z</time></trkpt><trkpt lat="45.04970545866978" lon="6.749553414571258"><ele>1161.0</ele><time>2026-05-02T13:19:28Z</time></trkpt><trkpt lat="45.049577327961124" lon="6.749799734915893"><ele>1161.0</ele><time>2026-05-02T13:19:29Z</time></trkpt><trkpt lat="45.04945370265631" lon="6.75004874028851"><ele>1161.0</ele><time>2026-05-02T13:19:30Z</time></trkpt><trkpt lat="45.04933278006318" lon="6.750297058823435"><ele>1159.6666666666667</ele><time>2026-05-02T13:19:31Z</time></trkpt><trkpt lat="45.04922899339994" lon="6.750562024050147"><ele>1158.3333333333335</ele><time>2026-05-02T13:19:32Z</time></trkpt><trkpt lat="45.04910992143984" lon="6.750811916669989"><ele>1157.0</ele><time>2026-05-02T13:19:33Z</time></trkpt><trkpt lat="45.048999496577466" lon="6.751065608811278"><ele>1157.0</ele><time>2026-05-02T13:19:34Z</time></trkpt><trkpt lat="45.04889501824697" lon="6.751319592075462"><ele>1157.0</ele><time>2026-05-02T13:19:35Z</time></trkpt><trkpt lat="45.04877142939678" lon="6.751558426796709"><ele>1157.0</ele><time>2026-05-02T13:19:36Z</time></trkpt><trkpt lat="45.04866423761255" lon="6.7518108303527224"><ele>1158.6666666666667</ele><time>2026-05-02T13:19:37Z</time></trkpt><trkpt lat="45.048562939974964" lon="6.752060570091376"><ele>1160.3333333333333</ele><time>2026-05-02T13:19:38Z</time></trkpt><trkpt lat="45.0484682242869" lon="6.75231983994157"><ele>1162.0</ele><time>2026-05-02T13:19:39Z</time></trkpt><trkpt lat="45.04837849652242" lon="6.752588428259667"><ele>1164.3333333333333</ele><time>2026-05-02T13:19:40Z</time></trkpt><trkpt lat="45.04829442788189" lon="6.752853621390641"><ele>1166.6666666666667</ele><time>2026-05-02T13:19:41Z</time></trkpt><trkpt lat="45.0482115081238" lon="6.753126114150666"><ele>1169.0</ele><time>2026-05-02T13:19:42Z</time></trkpt><trkpt lat="45.04813835937936" lon="6.7534131182668835"><ele>1163.0</ele><time>2026-05-02T13:19:43Z</time></trkpt><trkpt lat="45.048071384641766" lon="6.75369527633703"><ele>1157.0</ele><time>2026-05-02T13:19:44Z</time></trkpt><trkpt lat="45.04800510474746" lon="6.753977825260763"><ele>1151.0</ele><time>2026-05-02T13:19:45Z</time></trkpt><trkpt lat="45.047938208142504" lon="6.754263767319244"><ele>1152.5</ele><time>2026-05-02T13:19:46Z</time></trkpt><trkpt lat="45.04787201965238" lon="6.754550491338494"><ele>1154.0</ele><time>2026-05-02T13:19:47Z</time></trkpt><trkpt lat="45.04468803546918" lon="6.765308596157423"><ele>1150.25</ele><time>2026-05-02T13:20:48.001Z</time></trkpt><trkpt lat="45.044618604698094" lon="6.765264552977009"><ele>1146.5</ele><time>2026-05-02T13:20:50.001Z</time></trkpt><trkpt lat="45.04459703711809" lon="6.76517121233315"><ele>1142.75</ele><time>2026-05-02T13:20:53.001Z</time></trkpt><trkpt lat="45.044552620212386" lon="6.765093557941024"><ele>1139.0</ele><time>2026-05-02T13:21:20Z</time></trkpt><trkpt lat="45.04492241085923" lon="6.770582811928828"><ele>1137.75</ele><time>2026-05-02T13:23:48Z</time></trkpt><trkpt lat="45.044914125481746" lon="6.770786370032564"><ele>1136.5</ele><time>2026-05-02T13:23:49Z</time></trkpt><trkpt lat="45.044909591327915" lon="6.770988343373534"><ele>1135.25</ele><time>2026-05-02T13:23:50Z</time></trkpt><trkpt lat="45.04490532033328" lon="6.771191108338933"><ele>1134.0</ele><time>2026-05-02T13:23:51Z</time></trkpt><trkpt lat="45.04490226304111" lon="6.7713919325638825"><ele>1134.0</ele><time>2026-05-02T13:23:52Z</time></trkpt><trkpt lat="45.044885126711485" lon="6.77159515673974"><ele>1134.0</ele><time>2026-05-02T13:23:53Z</time></trkpt><trkpt lat="45.044877914757535" lon="6.7717980838689495"><ele>1134.0</ele><time>2026-05-02T13:23:54Z</time></trkpt><trkpt lat="45.04487067348529" lon="6.7720018359926035"><ele>1134.0</ele><time>2026-05-02T13:23:55Z</time></trkpt><trkpt lat="45.04487724025069" lon="6.772207046039238"><ele>1133.25</ele><time>2026-05-02T13:23:56Z</time></trkpt><trkpt lat="45.04486653130589" lon="6.772412070649047"><ele>1132.5</ele><time>2026-05-02T13:23:57Z</time></trkpt><trkpt lat="45.04485391367257" lon="6.772617764994474"><ele>1131.75</ele><time>2026-05-02T13:23:58Z</time></trkpt><trkpt lat="45.04483506162225" lon="6.7728204619649"><ele>1131.0</ele><time>2026-05-02T13:23:59Z</time></trkpt><trkpt lat="45.04481512667587" lon="6.773027117228308"><ele>1130.75</ele><time>2026-05-02T13:24:00Z</time></trkpt><trkpt lat="45.04479327368143" lon="6.773233277113613"><ele>1130.5</ele><time>2026-05-02T13:24:01Z</time></trkpt><trkpt lat="45.04476516032047" lon="6.773438690086319"><ele>1130.25</ele><time>2026-05-02T13:24:02Z</time></trkpt><trkpt lat="45.04473490551053" lon="6.773647994423519"><ele>1130.0</ele><time>2026-05-02T13:24:03Z</time></trkpt><trkpt lat="45.04469782113909" lon="6.773856531239574"><ele>1130.0</ele><time>2026-05-02T13:24:04Z</time></trkpt><trkpt lat="45.0446600345834" lon="6.774057910161516"><ele>1130.0</ele><time>2026-05-02T13:24:05Z</time></trkpt><trkpt lat="45.04461832797853" lon="6.774248574011984"><ele>1130.0</ele><time>2026-05-02T13:24:06Z</time></trkpt><trkpt lat="45.04457495158487" lon="6.774434965058966"><ele>1130.0</ele><time>2026-05-02T13:24:07Z</time></trkpt><trkpt lat="45.044532631439765" lon="6.774622796499771"><ele>1129.25</ele><time>2026-05-02T13:24:08Z</time></trkpt><trkpt lat="45.04449079906711" lon="6.774813643663362"><ele>1128.5</ele><time>2026-05-02T13:24:09Z</time></trkpt><trkpt lat="45.04444955651025" lon="6.775007792288278"><ele>1127.75</ele><time>2026-05-02T13:24:10Z</time></trkpt><trkpt lat="45.04440373333423" lon="6.775204615184174"><ele>1127.0</ele><time>2026-05-02T13:24:11Z</time></trkpt><trkpt lat="45.044360645408055" lon="6.775398220835"><ele>1126.0</ele><time>2026-05-02T13:24:12Z</time></trkpt><trkpt lat="45.044318304420116" lon="6.775591402248335"><ele>1125.0</ele><time>2026-05-02T13:24:13Z</time></trkpt><trkpt lat="45.04427534306515" lon="6.77578284281218"><ele>1124.0</ele><time>2026-05-02T13:24:14Z</time></trkpt><trkpt lat="45.04423093662071" lon="6.775975636517952"><ele>1123.0</ele><time>2026-05-02T13:24:15Z</time></trkpt><trkpt lat="45.04418335684296" lon="6.776169532965271"><ele>1123.0</ele><time>2026-05-02T13:24:16Z</time></trkpt><trkpt lat="45.044133735630226" lon="6.776368037915599"><ele>1123.0</ele><time>2026-05-02T13:24:17Z</time></trkpt><trkpt lat="45.04407666601228" lon="6.776575421106197"><ele>1123.0</ele><time>2026-05-02T13:24:18Z</time></trkpt><trkpt lat="45.0440119272767" lon="6.776784281017422"><ele>1122.3333333333333</ele><time>2026-05-02T13:24:19Z</time></trkpt><trkpt lat="45.04394199706313" lon="6.776993128090844"><ele>1121.6666666666667</ele><time>2026-05-02T13:24:20Z</time></trkpt><trkpt lat="45.04386286675871" lon="6.777206213319754"><ele>1121.0</ele><time>2026-05-02T13:24:21Z</time></trkpt><trkpt lat="45.04378169579583" lon="6.77741523370894"><ele>1121.0</ele><time>2026-05-02T13:24:22Z</time></trkpt><trkpt lat="45.043703323199665" lon="6.777624327246836"><ele>1121.0</ele><time>2026-05-02T13:24:23Z</time></trkpt><trkpt lat="45.04362218891354" lon="6.777842085228587"><ele>1121.0</ele><time>2026-05-02T13:24:24Z</time></trkpt><trkpt lat="45.04354624894701" lon="6.7780497401938815"><ele>1121.0</ele><time>2026-05-02T13:24:25Z</time></trkpt><trkpt lat="45.04346481273632" lon="6.778256867413235"><ele>1121.0</ele><time>2026-05-02T13:24:26Z</time></trkpt><trkpt lat="45.04337354414006" lon="6.778469067384335"><ele>1121.0</ele><time>2026-05-02T13:24:27Z</time></trkpt><trkpt lat="45.04328602790114" lon="6.7786811631689545"><ele>1120.0</ele><time>2026-05-02T13:24:28Z</time></trkpt><trkpt lat="45.043208222172154" lon="6.778890757075394"><ele>1119.0</ele><time>2026-05-02T13:24:29Z</time></trkpt><trkpt lat="45.04313939877079" lon="6.779093327472655"><ele>1118.0</ele><time>2026-05-02T13:24:30Z</time></trkpt><trkpt lat="45.0430507431135" lon="6.779291439108055"><ele>1118.6666666666667</ele><time>2026-05-02T13:24:31Z</time></trkpt><trkpt lat="45.042960952533164" lon="6.779491218793141"><ele>1119.3333333333333</ele><time>2026-05-02T13:24:32Z</time></trkpt><trkpt lat="45.042901367201104" lon="6.779693421513918"><ele>1120.0</ele><time>2026-05-02T13:24:33Z</time></trkpt><trkpt lat="45.04283461238687" lon="6.7798939219560195"><ele>1120.0</ele><time>2026-05-02T13:24:34Z</time></trkpt><trkpt lat="45.04276536694679" lon="6.780084653141634"><ele>1120.0</ele><time>2026-05-02T13:24:35Z</time></trkpt><trkpt lat="45.042698207887874" lon="6.780274257199998"><ele>1120.0</ele><time>2026-05-02T13:24:36Z</time></trkpt><trkpt lat="45.04262487562563" lon="6.780463735531076"><ele>1120.6666666666665</ele><time>2026-05-02T13:24:37Z</time></trkpt><trkpt lat="45.042552339135476" lon="6.7806534881997"><ele>1121.3333333333333</ele><time>2026-05-02T13:24:38Z</time></trkpt><trkpt lat="45.042480607131075" lon="6.780849344359185"><ele>1122.0</ele><time>2026-05-02T13:24:39Z</time></trkpt><trkpt lat="45.04240538854091" lon="6.781050431929438"><ele>1120.6666666666667</ele><time>2026-05-02T13:24:40Z</time></trkpt><trkpt lat="45.04233261972336" lon="6.781257431261879"><ele>1119.3333333333335</ele><time>2026-05-02T13:24:41Z</time></trkpt><trkpt lat="45.0422577196706" lon="6.781466837996876"><ele>1118.0</ele><time>2026-05-02T13:24:42Z</time></trkpt><trkpt lat="45.042166858421254" lon="6.781673796046695"><ele>1118.0</ele><time>2026-05-02T13:24:43Z</time></trkpt><trkpt lat="45.04211154950234" lon="6.781905188971652"><ele>1118.0</ele><time>2026-05-02T13:24:44Z</time></trkpt><trkpt lat="45.042050224948476" lon="6.782132270754326"><ele>1118.0</ele><time>2026-05-02T13:24:45Z</time></trkpt><trkpt lat="45.042005580189496" lon="6.782365935427415"><ele>1118.0</ele><time>2026-05-02T13:24:46Z</time></trkpt><trkpt lat="45.041959431762436" lon="6.782599390462992"><ele>1118.0</ele><time>2026-05-02T13:24:47Z</time></trkpt><trkpt lat="45.043832568148865" lon="6.789060764542271"><ele>1115.75</ele><time>2026-05-02T13:25:48Z</time></trkpt><trkpt lat="45.04381151498581" lon="6.788860145058506"><ele>1113.5</ele><time>2026-05-02T13:25:49Z</time></trkpt><trkpt lat="45.04379078784896" lon="6.788661574791597"><ele>1111.25</ele><time>2026-05-02T13:25:50Z</time></trkpt><trkpt lat="45.04376684034143" lon="6.788472503038341"><ele>1109.0</ele><time>2026-05-02T13:25:51Z</time></trkpt><trkpt lat="45.043738960340136" lon="6.788314667632156"><ele>1109.0</ele><time>2026-05-02T13:25:52Z</time></trkpt><trkpt lat="45.043714402979596" lon="6.7881730335329795"><ele>1109.0</ele><time>2026-05-02T13:25:53Z</time></trkpt><trkpt lat="45.043691611913" lon="6.788059921081642"><ele>1109.0</ele><time>2026-05-02T13:25:54Z</time></trkpt><trkpt lat="45.0437995144793" lon="6.787879750657339"><ele>1109.0</ele><time>2026-05-02T13:25:55Z</time></trkpt><trkpt lat="45.04347396754105" lon="6.788117812206475"><ele>1109.0</ele><time>2026-05-02T13:26:01Z</time></trkpt><trkpt lat="45.04341961467211" lon="6.788181491665513"><ele>1109.0</ele><time>2026-05-02T13:26:02Z</time></trkpt><trkpt lat="45.043354866682115" lon="6.7882701693647896"><ele>1109.0</ele><time>2026-05-02T13:26:03Z</time></trkpt><trkpt lat="45.043290663052794" lon="6.788361748431961"><ele>1109.0</ele><time>2026-05-02T13:26:04Z</time></trkpt><trkpt lat="45.04322371435707" lon="6.788451164521859"><ele>1109.0</ele><time>2026-05-02T13:26:05Z</time></trkpt><trkpt lat="45.043159774489595" lon="6.788548002497196"><ele>1109.0</ele><time>2026-05-02T13:26:06Z</time></trkpt><trkpt lat="45.0430926683009" lon="6.788649051641075"><ele>1108.6000000000001</ele><time>2026-05-02T13:26:07Z</time></trkpt><trkpt lat="45.04302211295752" lon="6.788746729017152"><ele>1108.2</ele><time>2026-05-02T13:26:08Z</time></trkpt><trkpt lat="45.04295505904691" lon="6.788852086290101"><ele>1107.8000000000002</ele><time>2026-05-02T13:26:09Z</time></trkpt><trkpt lat="45.04288660439127" lon="6.788963909051636"><ele>1107.4</ele><time>2026-05-02T13:26:10Z</time></trkpt><trkpt lat="45.04282029110625" lon="6.789066188614139"><ele>1107.0</ele><time>2026-05-02T13:26:11Z</time></trkpt><trkpt lat="45.04275790471728" lon="6.789160130119664"><ele>1107.0</ele><time>2026-05-02T13:26:12Z</time></trkpt><trkpt lat="45.042698175474335" lon="6.789249527630133"><ele>1107.0</ele><time>2026-05-02T13:26:13Z</time></trkpt><trkpt lat="45.04264484260504" lon="6.7893384811672055"><ele>1107.0</ele><time>2026-05-02T13:26:14Z</time></trkpt><trkpt lat="45.042603829950586" lon="6.789419767308859"><ele>1107.0</ele><time>2026-05-02T13:26:15Z</time></trkpt><trkpt lat="45.04251199136202" lon="6.789546432481639"><ele>1107.0</ele><time>2026-05-02T13:26:17Z</time></trkpt><trkpt lat="45.04246823056657" lon="6.789708092861805"><ele>1106.8333333333333</ele><time>2026-05-02T13:26:19Z</time></trkpt><trkpt lat="45.042462066888255" lon="6.78979895447815"><ele>1106.6666666666667</ele><time>2026-05-02T13:26:20Z</time></trkpt><trkpt lat="45.0424436554757" lon="6.789958556785501"><ele>1106.5</ele><time>2026-05-02T13:26:22Z</time></trkpt><trkpt lat="45.042364041238635" lon="6.790041893348577"><ele>1106.3333333333335</ele><time>2026-05-02T13:26:24Z</time></trkpt><trkpt lat="45.04231009010507" lon="6.790099720564003"><ele>1106.1666666666667</ele><time>2026-05-02T13:26:25Z</time></trkpt><trkpt lat="45.0422551618741" lon="6.790179485155527"><ele>1106.0</ele><time>2026-05-02T13:26:26Z</time></trkpt><trkpt lat="45.04220389230562" lon="6.790257489177836"><ele>1106.0</ele><time>2026-05-02T13:26:27Z</time></trkpt><trkpt lat="45.04214753772496" lon="6.790346702450286"><ele>1106.0</ele><time>2026-05-02T13:26:28Z</time></trkpt><trkpt lat="45.04209159270425" lon="6.790441453055374"><ele>1106.0</ele><time>2026-05-02T13:26:29Z</time></trkpt><trkpt lat="45.04203771591519" lon="6.790560840507436"><ele>1106.0</ele><time>2026-05-02T13:26:30Z</time></trkpt><trkpt lat="45.042004040825084" lon="6.790687993172158"><ele>1106.0</ele><time>2026-05-02T13:26:31Z</time></trkpt><trkpt lat="45.04199550706453" lon="6.790854339538983"><ele>1106.0</ele><time>2026-05-02T13:26:32Z</time></trkpt><trkpt lat="45.04197638489629" lon="6.79100109976031"><ele>1106.0</ele><time>2026-05-02T13:26:33Z</time></trkpt><trkpt lat="45.04195962809179" lon="6.791129708411647"><ele>1106.0</ele><time>2026-05-02T13:26:34Z</time></trkpt><trkpt lat="45.04194348885765" lon="6.791270061937767"><ele>1106.0</ele><time>2026-05-02T13:26:35Z</time></trkpt><trkpt lat="45.04193159076162" lon="6.791397946652374"><ele>1106.0</ele><time>2026-05-02T13:26:36Z</time></trkpt><trkpt lat="45.041936842660405" lon="6.791524756372768"><ele>1106.0</ele><time>2026-05-02T13:26:37Z</time></trkpt><trkpt lat="45.04192733069634" lon="6.791648218150942"><ele>1106.0</ele><time>2026-05-02T13:26:38Z</time></trkpt><trkpt lat="45.04191079573131" lon="6.791751277449265"><ele>1106.0</ele><time>2026-05-02T13:26:39Z</time></trkpt><trkpt lat="45.04190584744566" lon="6.791922596209007"><ele>1106.0</ele><time>2026-05-02T13:26:41Z</time></trkpt><trkpt lat="45.04188047499564" lon="6.792018908453847"><ele>1106.0</ele><time>2026-05-02T13:26:42Z</time></trkpt><trkpt lat="45.04188462122899" lon="6.792137077746389"><ele>1106.0</ele><time>2026-05-02T13:26:43Z</time></trkpt><trkpt lat="45.0418526387738" lon="6.792249955804153"><ele>1105.25</ele><time>2026-05-02T13:26:44Z</time></trkpt><trkpt lat="45.04182772040471" lon="6.79237588006648"><ele>1104.5</ele><time>2026-05-02T13:26:45Z</time></trkpt><trkpt lat="45.04185480594558" lon="6.792524979850665"><ele>1103.75</ele><time>2026-05-02T13:26:46Z</time></trkpt><trkpt lat="45.041852423306125" lon="6.7926651334680335"><ele>1103.0</ele><time>2026-05-02T13:26:47Z</time></trkpt><trkpt lat="45.042897370235224" lon="6.799690434734489"><ele>1102.2</ele><time>2026-05-02T13:27:48Z</time></trkpt><trkpt lat="45.04288643467001" lon="6.799782252586518"><ele>1101.4</ele><time>2026-05-02T13:27:49Z</time></trkpt><trkpt lat="45.0428157631713" lon="6.799863371830144"><ele>1100.6000000000001</ele><time>2026-05-02T13:27:51Z</time></trkpt><trkpt lat="45.04275188835953" lon="6.800014941974456"><ele>1099.8</ele><time>2026-05-02T13:27:53Z</time></trkpt><trkpt lat="45.04272737513607" lon="6.800104124245394"><ele>1099.0</ele><time>2026-05-02T13:27:54Z</time></trkpt><trkpt lat="45.04268993609882" lon="6.800274401854021"><ele>1098.8</ele><time>2026-05-02T13:27:56Z</time></trkpt><trkpt lat="45.042622438251826" lon="6.8003773043209375"><ele>1098.6000000000001</ele><time>2026-05-02T13:27:58Z</time></trkpt><trkpt lat="45.0425012084945" lon="6.800548035755405"><ele>1098.4</ele><time>2026-05-02T13:28:00Z</time></trkpt><trkpt lat="45.04241992059561" lon="6.800540299640011"><ele>1098.2</ele><time>2026-05-02T13:28:01Z</time></trkpt><trkpt lat="45.0423239334138" lon="6.800538360176897"><ele>1098.0</ele><time>2026-05-02T13:28:02Z</time></trkpt><trkpt lat="45.0422393183783" lon="6.80053893977527"><ele>1098.3333333333333</ele><time>2026-05-02T13:28:03Z</time></trkpt><trkpt lat="45.04216546485496" lon="6.8005436649487"><ele>1098.6666666666667</ele><time>2026-05-02T13:28:04Z</time></trkpt><trkpt lat="45.042061789472" lon="6.800543810150239"><ele>1099.0</ele><time>2026-05-02T13:28:06Z</time></trkpt><trkpt lat="45.04196858891693" lon="6.800549623679303"><ele>1099.3333333333335</ele><time>2026-05-02T13:28:08Z</time></trkpt><trkpt lat="45.04189776913396" lon="6.800517460440274"><ele>1099.6666666666667</ele><time>2026-05-02T13:28:09Z</time></trkpt><trkpt lat="45.04183096368198" lon="6.800506621691255"><ele>1100.0</ele><time>2026-05-02T13:28:10Z</time></trkpt><trkpt lat="45.04175221532369" lon="6.800509112628902"><ele>1100.0</ele><time>2026-05-02T13:28:11Z</time></trkpt><trkpt lat="45.041671744057616" lon="6.800476580924406"><ele>1100.0</ele><time>2026-05-02T13:28:12Z</time></trkpt><trkpt lat="45.04159467542509" lon="6.80045990730916"><ele>1100.0</ele><time>2026-05-02T13:28:13Z</time></trkpt><trkpt lat="45.04149978017154" lon="6.8004272089908655"><ele>1100.0</ele><time>2026-05-02T13:28:14Z</time></trkpt><trkpt lat="45.04141530274471" lon="6.800406748088307"><ele>1100.0</ele><time>2026-05-02T13:28:15Z</time></trkpt><trkpt lat="45.04134136957125" lon="6.800422079878993"><ele>1100.0</ele><time>2026-05-02T13:28:16Z</time></trkpt><trkpt lat="45.041270863522776" lon="6.800443493370105"><ele>1098.8</ele><time>2026-05-02T13:28:17Z</time></trkpt><trkpt lat="45.04121061674116" lon="6.800507146637575"><ele>1097.6</ele><time>2026-05-02T13:28:18Z</time></trkpt><trkpt lat="45.04119382584555" lon="6.8006362862355765"><ele>1096.4</ele><time>2026-05-02T13:28:19Z</time></trkpt><trkpt lat="45.04117016314092" lon="6.8007403423776"><ele>1095.2</ele><time>2026-05-02T13:28:20Z</time></trkpt><trkpt lat="45.04111996569115" lon="6.8008550677587385"><ele>1094.0</ele><time>2026-05-02T13:28:21Z</time></trkpt><trkpt lat="45.041069954697534" lon="6.800995289806572"><ele>1094.0</ele><time>2026-05-02T13:28:22Z</time></trkpt><trkpt lat="45.041032396767534" lon="6.801151144952947"><ele>1094.0</ele><time>2026-05-02T13:28:23Z</time></trkpt><trkpt lat="45.0409749878361" lon="6.801288204081151"><ele>1094.0</ele><time>2026-05-02T13:28:24Z</time></trkpt><trkpt lat="45.040933137235704" lon="6.801420525583768"><ele>1094.0</ele><time>2026-05-02T13:28:25Z</time></trkpt><trkpt lat="45.040867727262054" lon="6.801567035656439"><ele>1094.0</ele><time>2026-05-02T13:28:26Z</time></trkpt><trkpt lat="45.0408189081831" lon="6.801734235389343"><ele>1094.0</ele><time>2026-05-02T13:28:27Z</time></trkpt><trkpt lat="45.04075931628153" lon="6.80189769562872"><ele>1094.0</ele><time>2026-05-02T13:28:28Z</time></trkpt><trkpt lat="45.04068394572023" lon="6.802051926383234"><ele>1094.0</ele><time>2026-05-02T13:28:29Z</time></trkpt><trkpt lat="45.0406160680161" lon="6.8022288119148575"><ele>1093.25</ele><time>2026-05-02T13:28:30Z</time></trkpt><trkpt lat="45.04056534209321" lon="6.802395513467402"><ele>1092.5</ele><time>2026-05-02T13:28:31Z</time></trkpt><trkpt lat="45.040503778827336" lon="6.802558050665627"><ele>1091.75</ele><time>2026-05-02T13:28:32Z</time></trkpt><trkpt lat="45.04044545539907" lon="6.802723527485424"><ele>1091.0</ele><time>2026-05-02T13:28:33Z</time></trkpt><trkpt lat="45.04038851046107" lon="6.802877974681377"><ele>1091.0</ele><time>2026-05-02T13:28:34Z</time></trkpt><trkpt lat="45.04033628011697" lon="6.803034758200401"><ele>1091.0</ele><time>2026-05-02T13:28:35Z</time></trkpt><trkpt lat="45.04028458220025" lon="6.803194046206003"><ele>1091.0</ele><time>2026-05-02T13:28:36Z</time></trkpt><trkpt lat="45.040230870397515" lon="6.803356280314556"><ele>1091.0</ele><time>2026-05-02T13:28:37Z</time></trkpt><trkpt lat="45.040179889345076" lon="6.803509302230216"><ele>1090.5</ele><time>2026-05-02T13:28:38Z</time></trkpt><trkpt lat="45.04012819622409" lon="6.803652085445691"><ele>1090.0</ele><time>2026-05-02T13:28:39Z</time></trkpt><trkpt lat="45.04008726112744" lon="6.803829529883888"><ele>1089.5</ele><time>2026-05-02T13:28:40Z</time></trkpt><trkpt lat="45.04004472828969" lon="6.803992201085806"><ele>1089.0</ele><time>2026-05-02T13:28:41Z</time></trkpt><trkpt lat="45.040004782374346" lon="6.804155987189752"><ele>1089.0</ele><time>2026-05-02T13:28:42Z</time></trkpt><trkpt lat="45.03994614715698" lon="6.804314601784846"><ele>1089.0</ele><time>2026-05-02T13:28:43Z</time></trkpt><trkpt lat="45.039900138141014" lon="6.80448839921941"><ele>1089.0</ele><time>2026-05-02T13:28:44Z</time></trkpt><trkpt lat="45.03986745398077" lon="6.804668922382702"><ele>1089.0</ele><time>2026-05-02T13:28:45Z</time></trkpt><trkpt lat="45.0398334180123" lon="6.804838287014932"><ele>1087.5</ele><time>2026-05-02T13:28:46Z</time></trkpt><trkpt lat="45.03979263905033" lon="6.805012303128805"><ele>1086.0</ele><time>2026-05-02T13:28:47Z</time></trkpt><trkpt lat="45.03960099791808" lon="6.81232873556491"><ele>1084.8</ele><time>2026-05-02T13:29:48Z</time></trkpt><trkpt lat="45.03961525087308" lon="6.812435535311575"><ele>1083.6</ele><time>2026-05-02T13:31:32Z</time></trkpt><trkpt lat="45.039647639857144" lon="6.812595752884639"><ele>1082.4</ele><time>2026-05-02T13:31:34Z</time></trkpt><trkpt lat="45.03966806843917" lon="6.812698937035509"><ele>1081.2</ele><time>2026-05-02T13:31:35Z</time></trkpt><trkpt lat="45.039692506344025" lon="6.8128170314929735"><ele>1080.0</ele><time>2026-05-02T13:31:36Z</time></trkpt><trkpt lat="45.03971719816876" lon="6.812946738562544"><ele>1079.8</ele><time>2026-05-02T13:31:37Z</time></trkpt><trkpt lat="45.03974059787791" lon="6.813078385677488"><ele>1079.6</ele><time>2026-05-02T13:31:38Z</time></trkpt><trkpt lat="45.03976445430312" lon="6.813209425014537"><ele>1079.4</ele><time>2026-05-02T13:31:39Z</time></trkpt><trkpt lat="45.03978843725571" lon="6.813343983601255"><ele>1079.2</ele><time>2026-05-02T13:31:40Z</time></trkpt><trkpt lat="45.0398118941548" lon="6.813480753036658"><ele>1079.0</ele><time>2026-05-02T13:31:41Z</time></trkpt><trkpt lat="45.03983218378409" lon="6.813623550477725"><ele>1078.8</ele><time>2026-05-02T13:31:42Z</time></trkpt><trkpt lat="45.03986059868452" lon="6.813761618727484"><ele>1078.6000000000001</ele><time>2026-05-02T13:31:43Z</time></trkpt><trkpt lat="45.03988977145889" lon="6.8139008782010775"><ele>1078.4</ele><time>2026-05-02T13:31:44Z</time></trkpt><trkpt lat="45.039917321394555" lon="6.814041920448229"><ele>1078.2</ele><time>2026-05-02T13:31:45Z</time></trkpt><trkpt lat="45.03994396136145" lon="6.814181520585012"><ele>1078.0</ele><time>2026-05-02T13:31:46Z</time></trkpt><trkpt lat="45.039972811222945" lon="6.814313800228794"><ele>1076.0</ele><time>2026-05-02T13:31:47Z</time></trkpt><trkpt lat="45.0413541770727" lon="6.817721308403764"><ele>1076.0</ele><time>2026-05-02T13:32:48Z</time></trkpt><trkpt lat="45.04128736918588" lon="6.817750745655012"><ele>1076.0</ele><time>2026-05-02T13:33:20Z</time></trkpt><trkpt lat="45.04122794082601" lon="6.817683316188995"><ele>1076.0</ele><time>2026-05-02T13:33:29Z</time></trkpt><trkpt lat="45.04118920678903" lon="6.817613017468004"><ele>1076.0</ele><time>2026-05-02T13:33:34Z</time></trkpt><trkpt lat="45.041123659170594" lon="6.817577407111555"><ele>1076.0</ele><time>2026-05-02T13:33:36Z</time></trkpt><trkpt lat="45.04105048367283" lon="6.817541184011629"><ele>1076.0</ele><time>2026-05-02T13:33:38Z</time></trkpt><trkpt lat="45.04093469095646" lon="6.817493056792754"><ele>1076.2</ele><time>2026-05-02T13:33:40Z</time></trkpt><trkpt lat="45.04082861491487" lon="6.8174154162389575"><ele>1076.3999999999999</ele><time>2026-05-02T13:33:41Z</time></trkpt><trkpt lat="45.040738014473085" lon="6.817339766265267"><ele>1076.6</ele><time>2026-05-02T13:33:42Z</time></trkpt><trkpt lat="45.04064853339262" lon="6.817281954206132"><ele>1076.8</ele><time>2026-05-02T13:33:43Z</time></trkpt><trkpt lat="45.04055793841479" lon="6.81720860636039"><ele>1077.0</ele><time>2026-05-02T13:33:44Z</time></trkpt><trkpt lat="45.04048773210495" lon="6.817108384378934"><ele>1076.0</ele><time>2026-05-02T13:33:45Z</time></trkpt><trkpt lat="45.040436995077535" lon="6.8170123441368915"><ele>1075.0</ele><time>2026-05-02T13:33:46Z</time></trkpt><trkpt lat="45.040407683698334" lon="6.816927017166219"><ele>1074.0</ele><time>2026-05-02T13:33:47Z</time></trkpt><trkpt lat="45.03957399292615" lon="6.809503894229638"><ele>1075.5</ele><time>2026-05-02T13:34:48Z</time></trkpt><trkpt lat="45.03953934683419" lon="6.809409836711894"><ele>1077.0</ele><time>2026-05-02T13:34:59Z</time></trkpt><trkpt lat="45.039502839336635" lon="6.809336494676329"><ele>1078.5</ele><time>2026-05-02T13:35:04Z</time></trkpt><trkpt lat="45.03944341175398" lon="6.809230543542083"><ele>1080.0</ele><time>2026-05-02T13:35:06Z</time></trkpt><trkpt lat="45.039412792377014" lon="6.8091409427120535"><ele>1081.5</ele><time>2026-05-02T13:35:10Z</time></trkpt><trkpt lat="45.039406920013505" lon="6.809018734266022"><ele>1083.0</ele><time>2026-05-02T13:35:32Z</time></trkpt><trkpt lat="45.039406713167836" lon="6.808865718752845"><ele>1083.3333333333333</ele><time>2026-05-02T13:35:34Z</time></trkpt><trkpt lat="45.03940810992769" lon="6.808744364426672"><ele>1083.6666666666667</ele><time>2026-05-02T13:35:35.999Z</time></trkpt><trkpt lat="45.039410196148104" lon="6.808623438023606"><ele>1084.0</ele><time>2026-05-02T13:35:37.999Z</time></trkpt><trkpt lat="45.03941333679711" lon="6.808514847079288"><ele>1084.3333333333335</ele><time>2026-05-02T13:35:39.999Z</time></trkpt><trkpt lat="45.03941705205004" lon="6.80840435870869"><ele>1084.6666666666667</ele><time>2026-05-02T13:35:41.999Z</time></trkpt><trkpt lat="45.03942053178876" lon="6.808300874334444"><ele>1085.0</ele><time>2026-05-02T13:35:44Z</time></trkpt><trkpt lat="45.03945491796156" lon="6.8075506933664816"><ele>1085.1666666666667</ele><time>2026-05-02T13:36:58Z</time></trkpt><trkpt lat="45.039445282352354" lon="6.807692553630529"><ele>1085.3333333333335</ele><time>2026-05-02T13:37:30Z</time></trkpt><trkpt lat="45.03943927271652" lon="6.807801043665188"><ele>1085.5</ele><time>2026-05-02T13:37:32Z</time></trkpt><trkpt lat="45.039432927063736" lon="6.80793282512439"><ele>1085.6666666666667</ele><time>2026-05-02T13:37:35Z</time></trkpt><trkpt lat="45.03942902579171" lon="6.808048477159824"><ele>1085.8333333333333</ele><time>2026-05-02T13:37:38Z</time></trkpt><trkpt lat="45.03942581347021" lon="6.808143801847085"><ele>1086.0</ele><time>2026-05-02T13:37:41Z</time></trkpt><trkpt lat="45.03986024857777" lon="6.804827798748042"><ele>1086.0</ele><time>2026-05-02T13:38:48Z</time></trkpt><trkpt lat="45.03989927658007" lon="6.804656772570201"><ele>1086.0</ele><time>2026-05-02T13:38:49Z</time></trkpt><trkpt lat="45.039931682051765" lon="6.804497917095114"><ele>1086.0</ele><time>2026-05-02T13:38:50Z</time></trkpt><trkpt lat="45.03997683720147" lon="6.804332895098426"><ele>1086.0</ele><time>2026-05-02T13:38:51Z</time></trkpt><trkpt lat="45.040004001042654" lon="6.804164361257498"><ele>1086.75</ele><time>2026-05-02T13:38:52Z</time></trkpt><trkpt lat="45.04005047943136" lon="6.804005071021427"><ele>1087.5</ele><time>2026-05-02T13:38:53Z</time></trkpt><trkpt lat="45.0400890203394" lon="6.8038425922986105"><ele>1088.25</ele><time>2026-05-02T13:38:54Z</time></trkpt><trkpt lat="45.04013493534187" lon="6.803676411737572"><ele>1089.0</ele><time>2026-05-02T13:38:55Z</time></trkpt><trkpt lat="45.04019872290987" lon="6.803521376296106"><ele>1089.5</ele><time>2026-05-02T13:38:56Z</time></trkpt><trkpt lat="45.04024075022372" lon="6.803342775025255"><ele>1090.0</ele><time>2026-05-02T13:38:57Z</time></trkpt><trkpt lat="45.04030204160109" lon="6.803162986830353"><ele>1090.5</ele><time>2026-05-02T13:38:58Z</time></trkpt><trkpt lat="45.040370861847" lon="6.803004228806596"><ele>1091.0</ele><time>2026-05-02T13:38:59Z</time></trkpt><trkpt lat="45.040426988453255" lon="6.8028441180328505"><ele>1091.0</ele><time>2026-05-02T13:39:00Z</time></trkpt><trkpt lat="45.04048558767469" lon="6.802680103080738"><ele>1091.0</ele><time>2026-05-02T13:39:01Z</time></trkpt><trkpt lat="45.040531160852666" lon="6.802505573074756"><ele>1091.0</ele><time>2026-05-02T13:39:02Z</time></trkpt><trkpt lat="45.04059332849773" lon="6.8023482538622515"><ele>1091.0</ele><time>2026-05-02T13:39:03Z</time></trkpt><trkpt lat="45.040662745316645" lon="6.802172919753797"><ele>1091.0</ele><time>2026-05-02T13:39:04Z</time></trkpt><trkpt lat="45.04072741494377" lon="6.802001830161142"><ele>1091.0</ele><time>2026-05-02T13:39:05Z</time></trkpt><trkpt lat="45.04080294750115" lon="6.801840452068641"><ele>1091.0</ele><time>2026-05-02T13:39:06Z</time></trkpt><trkpt lat="45.0408680771658" lon="6.801667123754955"><ele>1091.0</ele><time>2026-05-02T13:39:07Z</time></trkpt><trkpt lat="45.04092327882456" lon="6.801477594050075"><ele>1091.75</ele><time>2026-05-02T13:39:08Z</time></trkpt><trkpt lat="45.04099588351863" lon="6.801287404104476"><ele>1092.5</ele><time>2026-05-02T13:39:09Z</time></trkpt><trkpt lat="45.04107168710015" lon="6.801091298189453"><ele>1093.25</ele><time>2026-05-02T13:39:10Z</time></trkpt><trkpt lat="45.04113071957656" lon="6.800921281345134"><ele>1094.0</ele><time>2026-05-02T13:39:11Z</time></trkpt><trkpt lat="45.041186301693784" lon="6.8007738009349"><ele>1094.0</ele><time>2026-05-02T13:39:12Z</time></trkpt><trkpt lat="45.04122290449658" lon="6.800646671358924"><ele>1094.0</ele><time>2026-05-02T13:39:13Z</time></trkpt><trkpt lat="45.041256374099476" lon="6.800551864572083"><ele>1094.0</ele><time>2026-05-02T13:39:14Z</time></trkpt><trkpt lat="45.04129399486928" lon="6.800464876159406"><ele>1094.0</ele><time>2026-05-02T13:39:16Z</time></trkpt><trkpt lat="45.04138632503512" lon="6.8004462282743265"><ele>1094.0</ele><time>2026-05-02T13:39:19Z</time></trkpt><trkpt lat="45.041476836198235" lon="6.800469291403141"><ele>1094.0</ele><time>2026-05-02T13:39:21Z</time></trkpt><trkpt lat="45.04158522545093" lon="6.800505137250922"><ele>1094.857142857143</ele><time>2026-05-02T13:39:23Z</time></trkpt><trkpt lat="45.041660869475876" lon="6.800506789196119"><ele>1095.7142857142856</ele><time>2026-05-02T13:39:24Z</time></trkpt><trkpt lat="45.04173029937777" lon="6.800516639643659"><ele>1096.5714285714284</ele><time>2026-05-02T13:39:25Z</time></trkpt><trkpt lat="45.041806332281524" lon="6.800527896733942"><ele>1097.4285714285713</ele><time>2026-05-02T13:39:26Z</time></trkpt><trkpt lat="45.04188157024144" lon="6.80055642173902"><ele>1098.2857142857142</ele><time>2026-05-02T13:39:27Z</time></trkpt><trkpt lat="45.041958015748065" lon="6.800571327017596"><ele>1099.142857142857</ele><time>2026-05-02T13:39:28Z</time></trkpt><trkpt lat="45.04202559635413" lon="6.800583612168295"><ele>1100.0</ele><time>2026-05-02T13:39:29Z</time></trkpt><trkpt lat="45.042121652218306" lon="6.8005779808011075"><ele>1100.0</ele><time>2026-05-02T13:39:31Z</time></trkpt><trkpt lat="45.04218902546043" lon="6.800589158192017"><ele>1100.0</ele><time>2026-05-02T13:39:33Z</time></trkpt><trkpt lat="45.04225569632706" lon="6.800586626271745"><ele>1100.0</ele><time>2026-05-02T13:39:34Z</time></trkpt><trkpt lat="45.04236821455345" lon="6.800584467270186"><ele>1100.0</ele><time>2026-05-02T13:39:36Z</time></trkpt><trkpt lat="45.04245495259763" lon="6.800590560364238"><ele>1100.0</ele><time>2026-05-02T13:39:37Z</time></trkpt><trkpt lat="45.04251832470531" lon="6.800598880770901"><ele>1100.0</ele><time>2026-05-02T13:39:38Z</time></trkpt><trkpt lat="45.04265327555157" lon="6.800653987805513"><ele>1099.5</ele><time>2026-05-02T13:39:40Z</time></trkpt><trkpt lat="45.042749743203025" lon="6.800632461918611"><ele>1099.0</ele><time>2026-05-02T13:39:41Z</time></trkpt><trkpt lat="45.04281643313797" lon="6.800574848733045"><ele>1098.5</ele><time>2026-05-02T13:39:42Z</time></trkpt><trkpt lat="45.0429091841269" lon="6.80044609063372"><ele>1098.0</ele><time>2026-05-02T13:39:44Z</time></trkpt><trkpt lat="45.04297669278404" lon="6.800259763676885"><ele>1098.5</ele><time>2026-05-02T13:39:45Z</time></trkpt><trkpt lat="45.04294803416479" lon="6.800006066073985"><ele>1099.0</ele><time>2026-05-02T13:39:46Z</time></trkpt><trkpt lat="45.04454387172705" lon="6.799487432880373"><ele>1099.4</ele><time>2026-05-02T13:40:48Z</time></trkpt><trkpt lat="45.04458129081669" lon="6.7993597450636125"><ele>1099.8000000000002</ele><time>2026-05-02T13:40:50Z</time></trkpt><trkpt lat="45.04458316859454" lon="6.799222863623964"><ele>1100.1999999999998</ele><time>2026-05-02T13:40:52Z</time></trkpt><trkpt lat="45.044581554168" lon="6.799059283059186"><ele>1100.6</ele><time>2026-05-02T13:40:54Z</time></trkpt><trkpt lat="45.04458052235488" lon="6.798942787032348"><ele>1101.0</ele><time>2026-05-02T13:40:55Z</time></trkpt><trkpt lat="45.04458244017827" lon="6.79881259126042"><ele>1101.0</ele><time>2026-05-02T13:40:56Z</time></trkpt><trkpt lat="45.044599709170896" lon="6.798682184273231"><ele>1101.0</ele><time>2026-05-02T13:40:57Z</time></trkpt><trkpt lat="45.04460675213474" lon="6.7985377888196155"><ele>1101.0</ele><time>2026-05-02T13:40:58Z</time></trkpt><trkpt lat="45.04460528384576" lon="6.7983651535249825"><ele>1101.0</ele><time>2026-05-02T13:40:59Z</time></trkpt><trkpt lat="45.044613188185345" lon="6.798183558506874"><ele>1101.0</ele><time>2026-05-02T13:41:00Z</time></trkpt><trkpt lat="45.04462544002779" lon="6.797993986129255"><ele>1100.5</ele><time>2026-05-02T13:41:01Z</time></trkpt><trkpt lat="45.0446495673426" lon="6.797797534629546"><ele>1100.0</ele><time>2026-05-02T13:41:02Z</time></trkpt><trkpt lat="45.04467132188844" lon="6.797596882694532"><ele>1099.5</ele><time>2026-05-02T13:41:03Z</time></trkpt><trkpt lat="45.044697333150815" lon="6.797423940603432"><ele>1099.0</ele><time>2026-05-02T13:41:04Z</time></trkpt><trkpt lat="45.0447190087745" lon="6.79728958083096"><ele>1099.0</ele><time>2026-05-02T13:41:05Z</time></trkpt><trkpt lat="45.04472972648607" lon="6.797185268009826"><ele>1099.0</ele><time>2026-05-02T13:41:06Z</time></trkpt><trkpt lat="45.0447336854517" lon="6.79706508101786"><ele>1099.0</ele><time>2026-05-02T13:41:07Z</time></trkpt><trkpt lat="45.04474820417126" lon="6.796929057676199"><ele>1099.0</ele><time>2026-05-02T13:41:08Z</time></trkpt><trkpt lat="45.04476339445439" lon="6.796795679852723"><ele>1099.0</ele><time>2026-05-02T13:41:09Z</time></trkpt><trkpt lat="45.04477761264666" lon="6.796684319888813"><ele>1099.0</ele><time>2026-05-02T13:41:10Z</time></trkpt><trkpt lat="45.04482493153502" lon="6.796552640890109"><ele>1099.6000000000001</ele><time>2026-05-02T13:41:12Z</time></trkpt><trkpt lat="45.044951727922566" lon="6.796681671503229"><ele>1100.2</ele><time>2026-05-02T13:41:17Z</time></trkpt><trkpt lat="45.044996915068154" lon="6.796775725848345"><ele>1100.8000000000002</ele><time>2026-05-02T13:41:18Z</time></trkpt><trkpt lat="45.04503421159277" lon="6.796889945048097"><ele>1101.4</ele><time>2026-05-02T13:41:19Z</time></trkpt><trkpt lat="45.04508038414385" lon="6.79703030476787"><ele>1102.0</ele><time>2026-05-02T13:41:20Z</time></trkpt><trkpt lat="45.04512521804728" lon="6.79718789752917"><ele>1102.0</ele><time>2026-05-02T13:41:21Z</time></trkpt><trkpt lat="45.04516453228592" lon="6.797345783365868"><ele>1102.0</ele><time>2026-05-02T13:41:22Z</time></trkpt><trkpt lat="45.04519664270227" lon="6.797514045897036"><ele>1102.0</ele><time>2026-05-02T13:41:23Z</time></trkpt><trkpt lat="45.0452200805237" lon="6.79768207214398"><ele>1102.0</ele><time>2026-05-02T13:41:24Z</time></trkpt><trkpt lat="45.04524668838403" lon="6.7978616522717425"><ele>1101.5</ele><time>2026-05-02T13:41:25Z</time></trkpt><trkpt lat="45.04524639833349" lon="6.7980427618840915"><ele>1101.0</ele><time>2026-05-02T13:41:26Z</time></trkpt><trkpt lat="45.045266531266584" lon="6.7982205909612174"><ele>1100.5</ele><time>2026-05-02T13:41:27Z</time></trkpt><trkpt lat="45.04526370077382" lon="6.798405555519399"><ele>1100.0</ele><time>2026-05-02T13:41:28Z</time></trkpt><trkpt lat="45.045257681755565" lon="6.798591656573601"><ele>1101.0</ele><time>2026-05-02T13:41:29Z</time></trkpt><trkpt lat="45.04524573230776" lon="6.798769651925271"><ele>1102.0</ele><time>2026-05-02T13:41:30Z</time></trkpt><trkpt lat="45.045230104887295" lon="6.798940888497312"><ele>1103.0</ele><time>2026-05-02T13:41:31Z</time></trkpt><trkpt lat="45.045193375807045" lon="6.799099378481093"><ele>1104.0</ele><time>2026-05-02T13:41:32Z</time></trkpt><trkpt lat="45.04517107575935" lon="6.799256524078997"><ele>1105.0</ele><time>2026-05-02T13:41:33Z</time></trkpt><trkpt lat="45.04514880616882" lon="6.799410696281641"><ele>1106.0</ele><time>2026-05-02T13:41:34Z</time></trkpt><trkpt lat="45.045124560406244" lon="6.7995689292866555"><ele>1107.0</ele><time>2026-05-02T13:41:35Z</time></trkpt><trkpt lat="45.04509710703955" lon="6.7997480955207275"><ele>1108.0</ele><time>2026-05-02T13:41:36Z</time></trkpt><trkpt lat="45.045068148579695" lon="6.799937084376547"><ele>1108.0</ele><time>2026-05-02T13:41:37Z</time></trkpt><trkpt lat="45.045041091886155" lon="6.800113661830112"><ele>1108.0</ele><time>2026-05-02T13:41:38Z</time></trkpt><trkpt lat="45.045027214423214" lon="6.800306938131583"><ele>1108.0</ele><time>2026-05-02T13:41:39Z</time></trkpt><trkpt lat="45.04499655422127" lon="6.8004975331659985"><ele>1108.0</ele><time>2026-05-02T13:41:40Z</time></trkpt><trkpt lat="45.044957066293975" lon="6.800668244524627"><ele>1107.75</ele><time>2026-05-02T13:41:41Z</time></trkpt><trkpt lat="45.04492746392556" lon="6.8008613374656965"><ele>1107.5</ele><time>2026-05-02T13:41:42Z</time></trkpt><trkpt lat="45.044898722265394" lon="6.801054084869445"><ele>1107.25</ele><time>2026-05-02T13:41:43Z</time></trkpt><trkpt lat="45.044866495176926" lon="6.801269066809764"><ele>1107.0</ele><time>2026-05-02T13:41:44Z</time></trkpt><trkpt lat="45.044842374142746" lon="6.801474845694987"><ele>1107.0</ele><time>2026-05-02T13:41:45Z</time></trkpt><trkpt lat="45.04481208039152" lon="6.801690044082007"><ele>1107.0</ele><time>2026-05-02T13:41:46Z</time></trkpt><trkpt lat="45.04477015790118" lon="6.801911718143017"><ele>1107.0</ele><time>2026-05-02T13:41:47Z</time></trkpt><trkpt lat="45.04278049697459" lon="6.814318311828956"><ele>1100.3333333333333</ele><time>2026-05-02T13:42:48Z</time></trkpt><trkpt lat="45.04274449285059" lon="6.814550640218312"><ele>1093.6666666666665</ele><time>2026-05-02T13:42:49Z</time></trkpt><trkpt lat="45.04270797052603" lon="6.814781180517502"><ele>1087.0</ele><time>2026-05-02T13:42:50Z</time></trkpt><trkpt lat="45.04268388615522" lon="6.8150127165315535"><ele>1087.6666666666665</ele><time>2026-05-02T13:42:51Z</time></trkpt><trkpt lat="45.04264952971095" lon="6.815243552541196"><ele>1088.3333333333333</ele><time>2026-05-02T13:42:52Z</time></trkpt><trkpt lat="45.04260528947987" lon="6.815473713065727"><ele>1089.0</ele><time>2026-05-02T13:42:53Z</time></trkpt><trkpt lat="45.04256675277185" lon="6.8157133105544085"><ele>1089.0</ele><time>2026-05-02T13:42:54Z</time></trkpt><trkpt lat="45.042528884278354" lon="6.815944723438731"><ele>1089.0</ele><time>2026-05-02T13:42:55Z</time></trkpt><trkpt lat="45.04249357911711" lon="6.816167210654161"><ele>1089.0</ele><time>2026-05-02T13:42:56Z</time></trkpt><trkpt lat="45.042442011530824" lon="6.8163955263515374"><ele>1086.3333333333333</ele><time>2026-05-02T13:42:57Z</time></trkpt><trkpt lat="45.04240497274148" lon="6.8166190289156"><ele>1083.6666666666665</ele><time>2026-05-02T13:42:58Z</time></trkpt><trkpt lat="45.042367988185994" lon="6.816842204114891"><ele>1081.0</ele><time>2026-05-02T13:42:59Z</time></trkpt><trkpt lat="45.04233122660805" lon="6.81706403399603"><ele>1080.3333333333333</ele><time>2026-05-02T13:43:00Z</time></trkpt><trkpt lat="45.042309861460495" lon="6.817284272455838"><ele>1079.6666666666667</ele><time>2026-05-02T13:43:01Z</time></trkpt><trkpt lat="45.04227632638051" lon="6.817497129199395"><ele>1079.0</ele><time>2026-05-02T13:43:02Z</time></trkpt><trkpt lat="45.04222368187923" lon="6.8177085038860445"><ele>1079.0</ele><time>2026-05-02T13:43:03Z</time></trkpt><trkpt lat="45.0421866949128" lon="6.81792036386134"><ele>1079.0</ele><time>2026-05-02T13:43:04Z</time></trkpt><trkpt lat="45.042146091088725" lon="6.818136528317474"><ele>1079.0</ele><time>2026-05-02T13:43:05Z</time></trkpt><trkpt lat="45.04210621970425" lon="6.818346717998066"><ele>1080.0</ele><time>2026-05-02T13:43:06Z</time></trkpt><trkpt lat="45.042059408880505" lon="6.818561107520499"><ele>1081.0</ele><time>2026-05-02T13:43:07Z</time></trkpt><trkpt lat="45.04200722652128" lon="6.818764002378653"><ele>1082.0</ele><time>2026-05-02T13:43:08Z</time></trkpt><trkpt lat="45.041946787575874" lon="6.818970852140705"><ele>1082.0</ele><time>2026-05-02T13:43:09Z</time></trkpt><trkpt lat="45.041881982145746" lon="6.819177556781975"><ele>1082.0</ele><time>2026-05-02T13:43:10Z</time></trkpt><trkpt lat="45.04181565010117" lon="6.819381463877354"><ele>1082.0</ele><time>2026-05-02T13:43:11Z</time></trkpt><trkpt lat="45.041746246484834" lon="6.819581796874644"><ele>1083.6666666666667</ele><time>2026-05-02T13:43:12Z</time></trkpt><trkpt lat="45.0416730937943" lon="6.819782024434125"><ele>1085.3333333333333</ele><time>2026-05-02T13:43:13Z</time></trkpt><trkpt lat="45.04160033187423" lon="6.819975398541976"><ele>1087.0</ele><time>2026-05-02T13:43:14Z</time></trkpt><trkpt lat="45.04152589233065" lon="6.820167806565878"><ele>1083.75</ele><time>2026-05-02T13:43:15Z</time></trkpt><trkpt lat="45.0414559940766" lon="6.820349446897496"><ele>1080.5</ele><time>2026-05-02T13:43:16Z</time></trkpt><trkpt lat="45.041407687523304" lon="6.82053542178533"><ele>1077.25</ele><time>2026-05-02T13:43:17Z</time></trkpt><trkpt lat="45.041350650771264" lon="6.8207283035174"><ele>1074.0</ele><time>2026-05-02T13:43:18Z</time></trkpt><trkpt lat="45.04131477482041" lon="6.8209281512417315"><ele>1073.5</ele><time>2026-05-02T13:43:19Z</time></trkpt><trkpt lat="45.04130871840573" lon="6.821127059020837"><ele>1073.0</ele><time>2026-05-02T13:43:20Z</time></trkpt><trkpt lat="45.04132214891474" lon="6.82133807440855"><ele>1072.5</ele><time>2026-05-02T13:43:21Z</time></trkpt><trkpt lat="45.04135729441327" lon="6.821538435696685"><ele>1072.0</ele><time>2026-05-02T13:43:22Z</time></trkpt><trkpt lat="45.041408136366115" lon="6.821739023626791"><ele>1071.6666666666665</ele><time>2026-05-02T13:43:23Z</time></trkpt><trkpt lat="45.041476212139365" lon="6.821934565272024"><ele>1071.3333333333333</ele><time>2026-05-02T13:43:24Z</time></trkpt><trkpt lat="45.041531912498456" lon="6.822146209046294"><ele>1071.0</ele><time>2026-05-02T13:43:25Z</time></trkpt><trkpt lat="45.0415850262495" lon="6.822361356541179"><ele>1071.0</ele><time>2026-05-02T13:43:26Z</time></trkpt><trkpt lat="45.04161615436244" lon="6.822578586791263"><ele>1071.0</ele><time>2026-05-02T13:43:27Z</time></trkpt><trkpt lat="45.04164444283088" lon="6.8227824077555885"><ele>1071.0</ele><time>2026-05-02T13:43:28Z</time></trkpt><trkpt lat="45.0416775832675" lon="6.822974397562819"><ele>1071.0</ele><time>2026-05-02T13:43:29Z</time></trkpt><trkpt lat="45.04168704756157" lon="6.823167452650186"><ele>1073.25</ele><time>2026-05-02T13:43:30Z</time></trkpt><trkpt lat="45.041694275436114" lon="6.823359909349647"><ele>1075.5</ele><time>2026-05-02T13:43:31Z</time></trkpt><trkpt lat="45.04169337168482" lon="6.823554579807906"><ele>1077.75</ele><time>2026-05-02T13:43:32Z</time></trkpt><trkpt lat="45.041688170323624" lon="6.823753533360439"><ele>1080.0</ele><time>2026-05-02T13:43:33Z</time></trkpt><trkpt lat="45.04168573842304" lon="6.823947447860474"><ele>1080.0</ele><time>2026-05-02T13:43:34Z</time></trkpt><trkpt lat="45.041678834796436" lon="6.8241331785335335"><ele>1080.0</ele><time>2026-05-02T13:43:35Z</time></trkpt><trkpt lat="45.0416717507986" lon="6.824303222428337"><ele>1080.0</ele><time>2026-05-02T13:43:36Z</time></trkpt><trkpt lat="45.04165797405403" lon="6.824465908415453"><ele>1080.0</ele><time>2026-05-02T13:43:37Z</time></trkpt><trkpt lat="45.04163883533237" lon="6.824614053485177"><ele>1078.5</ele><time>2026-05-02T13:43:38Z</time></trkpt><trkpt lat="45.04162172132321" lon="6.824742442329203"><ele>1077.0</ele><time>2026-05-02T13:43:39Z</time></trkpt><trkpt lat="45.0415934867747" lon="6.824842119947645"><ele>1075.5</ele><time>2026-05-02T13:43:40Z</time></trkpt><trkpt lat="45.041474570709994" lon="6.82488855758051"><ele>1074.0</ele><time>2026-05-02T13:43:42Z</time></trkpt><trkpt lat="45.041397917093036" lon="6.82490097260971"><ele>1072.5</ele><time>2026-05-02T13:43:43Z</time></trkpt><trkpt lat="45.04133178408116" lon="6.824912304087884"><ele>1071.0</ele><time>2026-05-02T13:43:44Z</time></trkpt><trkpt lat="45.041227593318595" lon="6.824942796984093"><ele>1068.0</ele><time>2026-05-02T13:43:46Z</time></trkpt><trkpt lat="45.040664540097524" lon="6.825152656102046"><ele>1073.0</ele><time>2026-05-02T13:44:48Z</time></trkpt><trkpt lat="45.03574664446954" lon="6.831774186313032"><ele>1073.25</ele><time>2026-05-02T13:47:48Z</time></trkpt><trkpt lat="45.03565407232139" lon="6.831896414419663"><ele>1073.5</ele><time>2026-05-02T13:47:49Z</time></trkpt><trkpt lat="45.03554857796185" lon="6.8320371707884355"><ele>1073.75</ele><time>2026-05-02T13:47:50Z</time></trkpt><trkpt lat="45.03545114720604" lon="6.832170528854898"><ele>1074.0</ele><time>2026-05-02T13:47:51Z</time></trkpt><trkpt lat="45.03536794508199" lon="6.832313135256134"><ele>1074.0</ele><time>2026-05-02T13:47:52Z</time></trkpt><trkpt lat="45.035274704853165" lon="6.832432088380358"><ele>1074.0</ele><time>2026-05-02T13:47:53Z</time></trkpt><trkpt lat="45.035173574469574" lon="6.832549678626989"><ele>1074.0</ele><time>2026-05-02T13:47:54Z</time></trkpt><trkpt lat="45.035068476858974" lon="6.832656882338446"><ele>1074.0</ele><time>2026-05-02T13:47:55Z</time></trkpt><trkpt lat="45.03495471515866" lon="6.832748124287828"><ele>1074.0</ele><time>2026-05-02T13:47:56Z</time></trkpt><trkpt lat="45.03482655814216" lon="6.83279933442485"><ele>1074.0</ele><time>2026-05-02T13:47:57Z</time></trkpt><trkpt lat="45.03469434835701" lon="6.832853081031394"><ele>1074.0</ele><time>2026-05-02T13:47:58Z</time></trkpt><trkpt lat="45.03455409144614" lon="6.832896998911648"><ele>1074.0</ele><time>2026-05-02T13:47:59Z</time></trkpt><trkpt lat="45.034417977152934" lon="6.832919494188984"><ele>1074.0</ele><time>2026-05-02T13:48:00Z</time></trkpt><trkpt lat="45.034282594244175" lon="6.8329339713717445"><ele>1074.0</ele><time>2026-05-02T13:48:01Z</time></trkpt><trkpt lat="45.03415926835673" lon="6.832949370330867"><ele>1074.0</ele><time>2026-05-02T13:48:02Z</time></trkpt><trkpt lat="45.03405105955546" lon="6.832976185566565"><ele>1074.0</ele><time>2026-05-02T13:48:03Z</time></trkpt><trkpt lat="45.03395362102546" lon="6.833021331439121"><ele>1074.8</ele><time>2026-05-02T13:48:04Z</time></trkpt><trkpt lat="45.03385979224751" lon="6.833088675798157"><ele>1075.6000000000001</ele><time>2026-05-02T13:48:05Z</time></trkpt><trkpt lat="45.03379269402579" lon="6.8331787896886915"><ele>1076.4</ele><time>2026-05-02T13:48:06Z</time></trkpt><trkpt lat="45.0337165608474" lon="6.833232702130103"><ele>1077.2</ele><time>2026-05-02T13:48:07Z</time></trkpt><trkpt lat="45.03362642963755" lon="6.833322045325993"><ele>1078.0</ele><time>2026-05-02T13:48:09Z</time></trkpt><trkpt lat="45.03356207028276" lon="6.833386290623855"><ele>1078.0</ele><time>2026-05-02T13:48:11Z</time></trkpt><trkpt lat="45.03350380458887" lon="6.833444747803795"><ele>1078.0</ele><time>2026-05-02T13:48:22.001Z</time></trkpt><trkpt lat="45.03344031259486" lon="6.833506801912658"><ele>1078.0</ele><time>2026-05-02T13:48:24.001Z</time></trkpt><trkpt lat="45.033383145114" lon="6.833560845670085"><ele>1078.0</ele><time>2026-05-02T13:48:26.001Z</time></trkpt><trkpt lat="45.03331815961149" lon="6.833621189605502"><ele>1078.0</ele><time>2026-05-02T13:48:31.001Z</time></trkpt><trkpt lat="45.03338706776489" lon="6.8337883595716455"><ele>1078.0</ele><time>2026-05-02T13:48:32.001Z</time></trkpt><trkpt lat="45.03343480596585" lon="6.833852172779688"><ele>1078.1666666666665</ele><time>2026-05-02T13:48:33.001Z</time></trkpt><trkpt lat="45.03349054266206" lon="6.833912875354156"><ele>1078.3333333333333</ele><time>2026-05-02T13:48:34.001Z</time></trkpt><trkpt lat="45.03354035712511" lon="6.83398201025658"><ele>1078.5</ele><time>2026-05-02T13:48:35.001Z</time></trkpt><trkpt lat="45.03359559447041" lon="6.83405809623263"><ele>1078.6666666666667</ele><time>2026-05-02T13:48:36.001Z</time></trkpt><trkpt lat="45.0336575009008" lon="6.834145392163012"><ele>1078.8333333333335</ele><time>2026-05-02T13:48:37.001Z</time></trkpt><trkpt lat="45.033720909414285" lon="6.834233368826345"><ele>1079.0</ele><time>2026-05-02T13:48:38.001Z</time></trkpt><trkpt lat="45.03378559180649" lon="6.834326435403299"><ele>1078.6000000000001</ele><time>2026-05-02T13:48:39.001Z</time></trkpt><trkpt lat="45.03385912858418" lon="6.834424161693237"><ele>1078.2</ele><time>2026-05-02T13:48:40Z</time></trkpt><trkpt lat="45.033923949396545" lon="6.83451388946055"><ele>1077.8000000000002</ele><time>2026-05-02T13:48:41Z</time></trkpt><trkpt lat="45.03399030992671" lon="6.834613054631078"><ele>1077.4</ele><time>2026-05-02T13:48:42Z</time></trkpt><trkpt lat="45.03406373702698" lon="6.834726425185407"><ele>1077.0</ele><time>2026-05-02T13:48:43Z</time></trkpt><trkpt lat="45.034143721735" lon="6.834837718167648"><ele>1076.75</ele><time>2026-05-02T13:48:44Z</time></trkpt><trkpt lat="45.03422585611975" lon="6.834940954490095"><ele>1076.5</ele><time>2026-05-02T13:48:45Z</time></trkpt><trkpt lat="45.034294767586466" lon="6.835062907462445"><ele>1076.25</ele><time>2026-05-02T13:48:46Z</time></trkpt><trkpt lat="45.03437188668294" lon="6.835174115369607"><ele>1076.0</ele><time>2026-05-02T13:48:47Z</time></trkpt><trkpt lat="45.04001817682774" lon="6.841364311415033"><ele>1073.25</ele><time>2026-05-02T13:49:48Z</time></trkpt><trkpt lat="45.040136322085026" lon="6.841489981781382"><ele>1070.5</ele><time>2026-05-02T13:49:49Z</time></trkpt><trkpt lat="45.04023859721595" lon="6.841618122489874"><ele>1067.75</ele><time>2026-05-02T13:49:50Z</time></trkpt><trkpt lat="45.04033700768206" lon="6.8417408729726485"><ele>1065.0</ele><time>2026-05-02T13:49:51Z</time></trkpt><trkpt lat="45.040437433535544" lon="6.84186227162607"><ele>1065.0</ele><time>2026-05-02T13:49:52Z</time></trkpt><trkpt lat="45.040537414737734" lon="6.841983748486075"><ele>1065.0</ele><time>2026-05-02T13:49:53Z</time></trkpt><trkpt lat="45.04063172125326" lon="6.842099268742352"><ele>1065.0</ele><time>2026-05-02T13:49:54Z</time></trkpt><trkpt lat="45.040725094237224" lon="6.84220114742673"><ele>1065.0</ele><time>2026-05-02T13:49:55Z</time></trkpt><trkpt lat="45.04082112572547" lon="6.842297204319445"><ele>1063.75</ele><time>2026-05-02T13:49:56Z</time></trkpt><trkpt lat="45.04091476615167" lon="6.8423953318104465"><ele>1062.5</ele><time>2026-05-02T13:49:57Z</time></trkpt><trkpt lat="45.04100807368876" lon="6.842499457828229"><ele>1061.25</ele><time>2026-05-02T13:49:58Z</time></trkpt><trkpt lat="45.041101197773976" lon="6.842605292925434"><ele>1060.0</ele><time>2026-05-02T13:49:59Z</time></trkpt><trkpt lat="45.04119314729742" lon="6.842719202599157"><ele>1059.6</ele><time>2026-05-02T13:50:00Z</time></trkpt><trkpt lat="45.04127820003429" lon="6.8428292086837885"><ele>1059.2</ele><time>2026-05-02T13:50:01Z</time></trkpt><trkpt lat="45.0413543938224" lon="6.842930826073648"><ele>1058.8</ele><time>2026-05-02T13:50:02Z</time></trkpt><trkpt lat="45.04142755363777" lon="6.8430375306898075"><ele>1058.4</ele><time>2026-05-02T13:50:03Z</time></trkpt><trkpt lat="45.04148935004725" lon="6.843170468054085"><ele>1058.0</ele><time>2026-05-02T13:50:04Z</time></trkpt><trkpt lat="45.04153054537843" lon="6.843302710099413"><ele>1058.0</ele><time>2026-05-02T13:50:05Z</time></trkpt><trkpt lat="45.04159193376909" lon="6.843384501035117"><ele>1058.0</ele><time>2026-05-02T13:50:06Z</time></trkpt><trkpt lat="45.041679822280635" lon="6.843439470344448"><ele>1058.0</ele><time>2026-05-02T13:50:07Z</time></trkpt><trkpt lat="45.04179047303241" lon="6.843485217711496"><ele>1058.0</ele><time>2026-05-02T13:50:08Z</time></trkpt><trkpt lat="45.04188684212928" lon="6.843566151758034"><ele>1058.0</ele><time>2026-05-02T13:50:09Z</time></trkpt><trkpt lat="45.0419923155274" lon="6.843680155645942"><ele>1057.3333333333335</ele><time>2026-05-02T13:50:10Z</time></trkpt><trkpt lat="45.042111959540556" lon="6.843802671853522"><ele>1056.6666666666667</ele><time>2026-05-02T13:50:11Z</time></trkpt><trkpt lat="45.04224063136837" lon="6.843947723230348"><ele>1056.0</ele><time>2026-05-02T13:50:12Z</time></trkpt><trkpt lat="45.042373227293055" lon="6.84409891485194"><ele>1055.3333333333333</ele><time>2026-05-02T13:50:13Z</time></trkpt><trkpt lat="45.04250208748204" lon="6.844251957097037"><ele>1054.6666666666665</ele><time>2026-05-02T13:50:14Z</time></trkpt><trkpt lat="45.04262252855508" lon="6.8444004042398445"><ele>1054.0</ele><time>2026-05-02T13:50:15Z</time></trkpt><trkpt lat="45.04274809386275" lon="6.844555031076455"><ele>1054.0</ele><time>2026-05-02T13:50:16Z</time></trkpt><trkpt lat="45.04288007040607" lon="6.844716792879593"><ele>1054.0</ele><time>2026-05-02T13:50:17Z</time></trkpt><trkpt lat="45.04301469410405" lon="6.844879052496732"><ele>1054.0</ele><time>2026-05-02T13:50:18Z</time></trkpt><trkpt lat="45.04315181944368" lon="6.845034662904263"><ele>1054.3333333333333</ele><time>2026-05-02T13:50:19Z</time></trkpt><trkpt lat="45.04328617010137" lon="6.845194436024328"><ele>1054.6666666666667</ele><time>2026-05-02T13:50:20Z</time></trkpt><trkpt lat="45.04342203181921" lon="6.845355958545985"><ele>1055.0</ele><time>2026-05-02T13:50:21Z</time></trkpt><trkpt lat="45.0435584892414" lon="6.845518568178767"><ele>1054.3333333333335</ele><time>2026-05-02T13:50:22Z</time></trkpt><trkpt lat="45.04369190081204" lon="6.845686779381963"><ele>1053.6666666666667</ele><time>2026-05-02T13:50:23Z</time></trkpt><trkpt lat="45.04382902559473" lon="6.845848813287984"><ele>1053.0</ele><time>2026-05-02T13:50:24Z</time></trkpt><trkpt lat="45.04396584155104" lon="6.846008733056766"><ele>1052.3333333333333</ele><time>2026-05-02T13:50:25Z</time></trkpt><trkpt lat="45.04409977621922" lon="6.846172081821207"><ele>1051.6666666666665</ele><time>2026-05-02T13:50:26Z</time></trkpt><trkpt lat="45.04423473339105" lon="6.846336758250022"><ele>1051.0</ele><time>2026-05-02T13:50:27Z</time></trkpt><trkpt lat="45.044373219645564" lon="6.846499213641027"><ele>1051.0</ele><time>2026-05-02T13:50:28Z</time></trkpt><trkpt lat="45.04451141133949" lon="6.846664041628938"><ele>1051.0</ele><time>2026-05-02T13:50:29Z</time></trkpt><trkpt lat="45.044660882957444" lon="6.846848938401808"><ele>1051.0</ele><time>2026-05-02T13:50:30Z</time></trkpt><trkpt lat="45.04482712253592" lon="6.847052135346371"><ele>1050.0</ele><time>2026-05-02T13:50:31Z</time></trkpt><trkpt lat="45.04502315585857" lon="6.847281097911477"><ele>1049.0</ele><time>2026-05-02T13:50:32Z</time></trkpt><trkpt lat="45.04522571250577" lon="6.847514696058067"><ele>1049.0</ele><time>2026-05-02T13:50:33Z</time></trkpt><trkpt lat="45.045433671645455" lon="6.847708114160057"><ele>1049.0</ele><time>2026-05-02T13:50:34Z</time></trkpt><trkpt lat="45.04565873685032" lon="6.847866681350561"><ele>1049.5</ele><time>2026-05-02T13:50:35Z</time></trkpt><trkpt lat="45.045796952910415" lon="6.848201859150108"><ele>1050.0</ele><time>2026-05-02T13:50:36Z</time></trkpt><trkpt lat="45.04597737952531" lon="6.848420923478376"><ele>1050.0</ele><time>2026-05-02T13:50:37Z</time></trkpt><trkpt lat="45.04615887715926" lon="6.848638607835481"><ele>1050.0</ele><time>2026-05-02T13:50:38Z</time></trkpt><trkpt lat="45.04631991863272" lon="6.848810294184499"><ele>1050.0</ele><time>2026-05-02T13:50:39Z</time></trkpt><trkpt lat="45.04648564338091" lon="6.848974713761917"><ele>1049.5</ele><time>2026-05-02T13:50:40Z</time></trkpt><trkpt lat="45.046679488386886" lon="6.849153946768565"><ele>1049.0</ele><time>2026-05-02T13:50:41Z</time></trkpt><trkpt lat="45.04739239582524" lon="6.848360550774836"><ele>1047.5</ele><time>2026-05-02T13:50:42Z</time></trkpt><trkpt lat="45.04766732996909" lon="6.848348815205116"><ele>1046.0</ele><time>2026-05-02T13:50:43Z</time></trkpt><trkpt lat="45.047931550864895" lon="6.8483360266057645"><ele>1050.0</ele><time>2026-05-02T13:50:44Z</time></trkpt><trkpt lat="45.04739924598673" lon="6.850126592626809"><ele>1048.5</ele><time>2026-05-02T13:50:45Z</time></trkpt><trkpt lat="45.047582786893464" lon="6.8503488415272376"><ele>1047.0</ele><time>2026-05-02T13:50:46Z</time></trkpt><trkpt lat="45.047762464079064" lon="6.8505648227910925"><ele>1032.0</ele><time>2026-05-02T13:50:47Z</time></trkpt><trkpt lat="45.05624739312279" lon="6.861257147450651"><ele>1032.0</ele><time>2026-05-02T13:51:48Z</time></trkpt><trkpt lat="45.05638432095351" lon="6.861466785840733"><ele>1032.0</ele><time>2026-05-02T13:51:49Z</time></trkpt><trkpt lat="45.0565229387618" lon="6.861675256919312"><ele>1032.0</ele><time>2026-05-02T13:51:50Z</time></trkpt><trkpt lat="45.056668906943734" lon="6.8618820157906"><ele>1031.6666666666667</ele><time>2026-05-02T13:51:51Z</time></trkpt><trkpt lat="45.05681809948388" lon="6.86208920839719"><ele>1031.3333333333335</ele><time>2026-05-02T13:51:52Z</time></trkpt><trkpt lat="45.0569588121276" lon="6.862299443603525"><ele>1031.0</ele><time>2026-05-02T13:51:53Z</time></trkpt><trkpt lat="45.05710181740614" lon="6.862505267502947"><ele>1030.3333333333335</ele><time>2026-05-02T13:51:54Z</time></trkpt><trkpt lat="45.05724054284498" lon="6.862701188357501"><ele>1029.6666666666667</ele><time>2026-05-02T13:51:55Z</time></trkpt><trkpt lat="45.05737184127011" lon="6.862889260380109"><ele>1029.0</ele><time>2026-05-02T13:51:56Z</time></trkpt><trkpt lat="45.05749298489727" lon="6.863074034301555"><ele>1029.0</ele><time>2026-05-02T13:51:57Z</time></trkpt><trkpt lat="45.05761064338673" lon="6.86324644631123"><ele>1029.0</ele><time>2026-05-02T13:51:58Z</time></trkpt><trkpt lat="45.05772759567963" lon="6.863429920949497"><ele>1029.0</ele><time>2026-05-02T13:51:59Z</time></trkpt><trkpt lat="45.05783828868401" lon="6.863638266514559"><ele>1029.6666666666667</ele><time>2026-05-02T13:52:00Z</time></trkpt><trkpt lat="45.057930740296655" lon="6.863858134576316"><ele>1030.3333333333335</ele><time>2026-05-02T13:52:01Z</time></trkpt><trkpt lat="45.05802352305161" lon="6.864077735038767"><ele>1031.0</ele><time>2026-05-02T13:52:02Z</time></trkpt><trkpt lat="45.058115901060695" lon="6.864293534695653"><ele>1031.0</ele><time>2026-05-02T13:52:03Z</time></trkpt><trkpt lat="45.058238587963444" lon="6.864480116271435"><ele>1031.0</ele><time>2026-05-02T13:52:04Z</time></trkpt><trkpt lat="45.05836321027683" lon="6.86466613854058"><ele>1031.0</ele><time>2026-05-02T13:52:05Z</time></trkpt><trkpt lat="45.05848224443723" lon="6.864860265842685"><ele>1031.0</ele><time>2026-05-02T13:52:06Z</time></trkpt><trkpt lat="45.05858858698284" lon="6.865021244795231"><ele>1031.0</ele><time>2026-05-02T13:52:07Z</time></trkpt><trkpt lat="45.05868593771733" lon="6.8651707526692185"><ele>1031.0</ele><time>2026-05-02T13:52:08Z</time></trkpt><trkpt lat="45.05876964783997" lon="6.865297075137323"><ele>1031.0</ele><time>2026-05-02T13:52:09Z</time></trkpt><trkpt lat="45.05885877114" lon="6.8654265054694985"><ele>1031.0</ele><time>2026-05-02T13:52:10Z</time></trkpt><trkpt lat="45.05895596840815" lon="6.865551626795518"><ele>1031.0</ele><time>2026-05-02T13:52:11Z</time></trkpt><trkpt lat="45.059063370095686" lon="6.865693823296666"><ele>1031.0</ele><time>2026-05-02T13:52:12Z</time></trkpt><trkpt lat="45.05917668439652" lon="6.865839061479282"><ele>1031.0</ele><time>2026-05-02T13:52:13Z</time></trkpt><trkpt lat="45.05930099929362" lon="6.8659824206508935"><ele>1029.6666666666667</ele><time>2026-05-02T13:52:14Z</time></trkpt><trkpt lat="45.059427208539596" lon="6.866143389610702"><ele>1028.3333333333333</ele><time>2026-05-02T13:52:15Z</time></trkpt><trkpt lat="45.0595551658174" lon="6.866301136486855"><ele>1027.0</ele><time>2026-05-02T13:52:16Z</time></trkpt><trkpt lat="45.05969072610331" lon="6.8664599085403895"><ele>1027.0</ele><time>2026-05-02T13:52:17Z</time></trkpt><trkpt lat="45.05982776486924" lon="6.86662207442426"><ele>1027.0</ele><time>2026-05-02T13:52:18Z</time></trkpt><trkpt lat="45.059962330884" lon="6.8667840085845375"><ele>1027.0</ele><time>2026-05-02T13:52:19Z</time></trkpt><trkpt lat="45.06010217690985" lon="6.866927831008424"><ele>1027.0</ele><time>2026-05-02T13:52:20Z</time></trkpt><trkpt lat="45.06024286906449" lon="6.86705900587267"><ele>1027.0</ele><time>2026-05-02T13:52:21Z</time></trkpt><trkpt lat="45.06039041533413" lon="6.867181996349275"><ele>1027.0</ele><time>2026-05-02T13:52:22Z</time></trkpt><trkpt lat="45.060541898394156" lon="6.867301399872506"><ele>1027.0</ele><time>2026-05-02T13:52:23Z</time></trkpt><trkpt lat="45.060692149210794" lon="6.8674297305071015"><ele>1027.0</ele><time>2026-05-02T13:52:24Z</time></trkpt><trkpt lat="45.06084592930272" lon="6.867564985665093"><ele>1027.0</ele><time>2026-05-02T13:52:25Z</time></trkpt><trkpt lat="45.06100047988541" lon="6.867702232089081"><ele>1026.6666666666665</ele><time>2026-05-02T13:52:26Z</time></trkpt><trkpt lat="45.06115155436656" lon="6.867831524380499"><ele>1026.3333333333333</ele><time>2026-05-02T13:52:27Z</time></trkpt><trkpt lat="45.061300116423745" lon="6.867966295580655"><ele>1026.0</ele><time>2026-05-02T13:52:28Z</time></trkpt><trkpt lat="45.06144735040496" lon="6.868095053420106"><ele>1026.0</ele><time>2026-05-02T13:52:29Z</time></trkpt><trkpt lat="45.061588892989676" lon="6.868246452401313"><ele>1026.0</ele><time>2026-05-02T13:52:30Z</time></trkpt><trkpt lat="45.06173023205994" lon="6.868388540939539"><ele>1026.0</ele><time>2026-05-02T13:52:31Z</time></trkpt><trkpt lat="45.06186749850737" lon="6.868522409182304"><ele>1025.6666666666667</ele><time>2026-05-02T13:52:32Z</time></trkpt><trkpt lat="45.062009238116374" lon="6.868657981650227"><ele>1025.3333333333335</ele><time>2026-05-02T13:52:33Z</time></trkpt><trkpt lat="45.062144068476414" lon="6.868804344339179"><ele>1025.0</ele><time>2026-05-02T13:52:34Z</time></trkpt><trkpt lat="45.062291864660544" lon="6.86895530957594"><ele>1025.0</ele><time>2026-05-02T13:52:35Z</time></trkpt><trkpt lat="45.06243379221926" lon="6.869096551595965"><ele>1025.0</ele><time>2026-05-02T13:52:36Z</time></trkpt><trkpt lat="45.06256660262987" lon="6.869226736406321"><ele>1025.0</ele><time>2026-05-02T13:52:37Z</time></trkpt><trkpt lat="45.06280758491921" lon="6.869482942888552"><ele>1025.0</ele><time>2026-05-02T13:52:39Z</time></trkpt><trkpt lat="45.06293260872105" lon="6.869600416175547"><ele>1025.0</ele><time>2026-05-02T13:52:40Z</time></trkpt><trkpt lat="45.06303590432567" lon="6.869711946133368"><ele>1025.0</ele><time>2026-05-02T13:52:41Z</time></trkpt><trkpt lat="45.0631135307656" lon="6.869805792505864"><ele>1025.0</ele><time>2026-05-02T13:52:42Z</time></trkpt><trkpt lat="45.06316991620859" lon="6.869862609934443"><ele>1025.0</ele><time>2026-05-02T13:52:43Z</time></trkpt><trkpt lat="45.06321093717824" lon="6.8699401862006715"><ele>1025.0</ele><time>2026-05-02T13:52:45Z</time></trkpt><trkpt lat="45.0689812553831" lon="6.87883869034357"><ele>1027.0</ele><time>2026-05-02T13:55:48Z</time></trkpt><trkpt lat="45.069057018239064" lon="6.879037258836089"><ele>1029.0</ele><time>2026-05-02T13:55:49Z</time></trkpt><trkpt lat="45.069122927109625" lon="6.879244950544215"><ele>1031.0</ele><time>2026-05-02T13:55:50Z</time></trkpt><trkpt lat="45.06917690908817" lon="6.879451135091566"><ele>1033.0</ele><time>2026-05-02T13:55:51Z</time></trkpt><trkpt lat="45.06922733174354" lon="6.879656685280422"><ele>1035.0</ele><time>2026-05-02T13:55:52Z</time></trkpt><trkpt lat="45.06927879391496" lon="6.879862119893982"><ele>1037.0</ele><time>2026-05-02T13:55:53Z</time></trkpt><trkpt lat="45.06933350874803" lon="6.880068031673896"><ele>1036.3333333333335</ele><time>2026-05-02T13:55:54Z</time></trkpt><trkpt lat="45.069387213982175" lon="6.880272044746408"><ele>1035.6666666666667</ele><time>2026-05-02T13:55:55Z</time></trkpt><trkpt lat="45.069445153002555" lon="6.880478533790775"><ele>1035.0</ele><time>2026-05-02T13:55:56Z</time></trkpt><trkpt lat="45.069501720565945" lon="6.88068784763517"><ele>1035.0</ele><time>2026-05-02T13:55:57Z</time></trkpt><trkpt lat="45.06955264701452" lon="6.880896044480308"><ele>1035.0</ele><time>2026-05-02T13:55:58Z</time></trkpt><trkpt lat="45.06959922887574" lon="6.88110533156288"><ele>1035.0</ele><time>2026-05-02T13:55:59Z</time></trkpt><trkpt lat="45.0696491809698" lon="6.8813112645896295"><ele>1032.6666666666667</ele><time>2026-05-02T13:56:00Z</time></trkpt><trkpt lat="45.06970371937904" lon="6.881516857014062"><ele>1030.3333333333335</ele><time>2026-05-02T13:56:01Z</time></trkpt><trkpt lat="45.06975654386806" lon="6.881724007623544"><ele>1028.0</ele><time>2026-05-02T13:56:02Z</time></trkpt><trkpt lat="45.06981740470002" lon="6.881935227433975"><ele>1025.6666666666667</ele><time>2026-05-02T13:56:03Z</time></trkpt><trkpt lat="45.06989760555701" lon="6.882137193617307"><ele>1023.3333333333333</ele><time>2026-05-02T13:56:04Z</time></trkpt><trkpt lat="45.06998719153031" lon="6.882335225837488"><ele>1021.0</ele><time>2026-05-02T13:56:05Z</time></trkpt><trkpt lat="45.070079229356715" lon="6.882537037198795"><ele>1022.0</ele><time>2026-05-02T13:56:06Z</time></trkpt><trkpt lat="45.07017673810001" lon="6.882742939334595"><ele>1023.0</ele><time>2026-05-02T13:56:07Z</time></trkpt><trkpt lat="45.07027998950053" lon="6.882953430153741"><ele>1024.0</ele><time>2026-05-02T13:56:08Z</time></trkpt><trkpt lat="45.07037284588744" lon="6.883156515939531"><ele>1024.0</ele><time>2026-05-02T13:56:09Z</time></trkpt><trkpt lat="45.070459421973986" lon="6.883344756401826"><ele>1024.0</ele><time>2026-05-02T13:56:10Z</time></trkpt><trkpt lat="45.070548926494325" lon="6.883532570924029"><ele>1024.0</ele><time>2026-05-02T13:56:11Z</time></trkpt><trkpt lat="45.07064454818485" lon="6.883708254689404"><ele>1024.6666666666665</ele><time>2026-05-02T13:56:12Z</time></trkpt><trkpt lat="45.070751780334454" lon="6.883867611158615"><ele>1025.3333333333333</ele><time>2026-05-02T13:56:13Z</time></trkpt><trkpt lat="45.07087344975443" lon="6.884010197740507"><ele>1026.0</ele><time>2026-05-02T13:56:14Z</time></trkpt><trkpt lat="45.07100748172539" lon="6.8841339542563995"><ele>1026.0</ele><time>2026-05-02T13:56:15Z</time></trkpt><trkpt lat="45.0711448738942" lon="6.884224409725764"><ele>1026.0</ele><time>2026-05-02T13:56:16Z</time></trkpt><trkpt lat="45.071271224712454" lon="6.8842974813061915"><ele>1026.0</ele><time>2026-05-02T13:56:17Z</time></trkpt><trkpt lat="45.07138685664456" lon="6.88435149166584"><ele>1026.0</ele><time>2026-05-02T13:56:18Z</time></trkpt><trkpt lat="45.0714876629432" lon="6.884395114340814"><ele>1024.1666666666667</ele><time>2026-05-02T13:56:19Z</time></trkpt><trkpt lat="45.07156747510918" lon="6.884430015912021"><ele>1022.3333333333333</ele><time>2026-05-02T13:56:20Z</time></trkpt><trkpt lat="45.07163230151461" lon="6.884460747748882"><ele>1020.5</ele><time>2026-05-02T13:56:21Z</time></trkpt><trkpt lat="45.07170294189365" lon="6.884497715763515"><ele>1018.6666666666666</ele><time>2026-05-02T13:56:22Z</time></trkpt><trkpt lat="45.07177045635313" lon="6.884530509985399"><ele>1016.8333333333333</ele><time>2026-05-02T13:56:23Z</time></trkpt><trkpt lat="45.071871112952145" lon="6.884570195465479"><ele>1015.0</ele><time>2026-05-02T13:56:25Z</time></trkpt><trkpt lat="45.071948799423616" lon="6.88459285767047"><ele>1015.0</ele><time>2026-05-02T13:56:27Z</time></trkpt><trkpt lat="45.07203312582754" lon="6.8846322345526225"><ele>1015.0</ele><time>2026-05-02T13:56:29Z</time></trkpt><trkpt lat="45.07216415493301" lon="6.884679549309242"><ele>1015.0</ele><time>2026-05-02T13:56:31Z</time></trkpt><trkpt lat="45.07224227598407" lon="6.88470583064168"><ele>1015.0</ele><time>2026-05-02T13:56:32Z</time></trkpt><trkpt lat="45.0723235137253" lon="6.88473520725579"><ele>1015.0</ele><time>2026-05-02T13:56:33Z</time></trkpt><trkpt lat="45.07240501678968" lon="6.884763154029908"><ele>1016.2</ele><time>2026-05-02T13:56:34Z</time></trkpt><trkpt lat="45.07248960637294" lon="6.884790013518316"><ele>1017.4</ele><time>2026-05-02T13:56:35Z</time></trkpt><trkpt lat="45.072580465390914" lon="6.884823237265361"><ele>1018.5999999999999</ele><time>2026-05-02T13:56:36Z</time></trkpt><trkpt lat="45.07268066357405" lon="6.884858169343099"><ele>1019.8</ele><time>2026-05-02T13:56:37Z</time></trkpt><trkpt lat="45.07279011532355" lon="6.884907535955384"><ele>1021.0</ele><time>2026-05-02T13:56:38Z</time></trkpt><trkpt lat="45.072903655590345" lon="6.884954349703639"><ele>1021.0</ele><time>2026-05-02T13:56:39Z</time></trkpt><trkpt lat="45.07302151688378" lon="6.885001048494778"><ele>1021.0</ele><time>2026-05-02T13:56:40Z</time></trkpt><trkpt lat="45.07314583383161" lon="6.885045504976127"><ele>1021.0</ele><time>2026-05-02T13:56:41Z</time></trkpt><trkpt lat="45.07327504140363" lon="6.8850993192004015"><ele>1021.0</ele><time>2026-05-02T13:56:42Z</time></trkpt><trkpt lat="45.073403880582326" lon="6.885155183711309"><ele>1019.25</ele><time>2026-05-02T13:56:43Z</time></trkpt><trkpt lat="45.07353801828746" lon="6.885211373939251"><ele>1017.5</ele><time>2026-05-02T13:56:44Z</time></trkpt><trkpt lat="45.07367280057311" lon="6.8852803721275695"><ele>1015.75</ele><time>2026-05-02T13:56:45Z</time></trkpt><trkpt lat="45.073806695420934" lon="6.885367710631788"><ele>1014.0</ele><time>2026-05-02T13:56:46Z</time></trkpt><trkpt lat="45.07393995085295" lon="6.885481611972573"><ele>1024.0</ele><time>2026-05-02T13:56:47Z</time></trkpt><trkpt lat="45.07924135172782" lon="6.89605883028012"><ele>1024.0</ele><time>2026-05-02T13:57:48Z</time></trkpt><trkpt lat="45.07921311029194" lon="6.896171922611717"><ele>1024.0</ele><time>2026-05-02T13:57:49Z</time></trkpt><trkpt lat="45.07920188480984" lon="6.896296655863899"><ele>1024.0</ele><time>2026-05-02T13:57:50Z</time></trkpt><trkpt lat="45.07918998736329" lon="6.896425294704733"><ele>1024.0</ele><time>2026-05-02T13:57:51Z</time></trkpt><trkpt lat="45.07918769510479" lon="6.896706784850478"><ele>1024.2</ele><time>2026-05-02T13:57:53Z</time></trkpt><trkpt lat="45.07919690482527" lon="6.896857839652777"><ele>1024.4</ele><time>2026-05-02T13:57:54Z</time></trkpt><trkpt lat="45.079204847850626" lon="6.897014826886808"><ele>1024.6</ele><time>2026-05-02T13:57:55Z</time></trkpt><trkpt lat="45.07921395786067" lon="6.897172766906767"><ele>1024.8</ele><time>2026-05-02T13:57:56Z</time></trkpt><trkpt lat="45.07922618070966" lon="6.897327461537258"><ele>1025.0</ele><time>2026-05-02T13:57:57Z</time></trkpt><trkpt lat="45.079244653349555" lon="6.897472307970525"><ele>1024.8333333333335</ele><time>2026-05-02T13:57:58Z</time></trkpt><trkpt lat="45.079275162025176" lon="6.897603385723202"><ele>1024.6666666666667</ele><time>2026-05-02T13:57:59Z</time></trkpt><trkpt lat="45.07931627804639" lon="6.897718298081438"><ele>1024.5</ele><time>2026-05-02T13:58:00Z</time></trkpt><trkpt lat="45.07935634511555" lon="6.897821791383979"><ele>1024.3333333333333</ele><time>2026-05-02T13:58:01Z</time></trkpt><trkpt lat="45.07939505197972" lon="6.897922316633205"><ele>1024.1666666666665</ele><time>2026-05-02T13:58:02Z</time></trkpt><trkpt lat="45.079431562015515" lon="6.898016878765101"><ele>1024.0</ele><time>2026-05-02T13:58:03Z</time></trkpt><trkpt lat="45.0794573761456" lon="6.8981126347888475"><ele>1023.9999999999999</ele><time>2026-05-02T13:58:04Z</time></trkpt><trkpt lat="45.07946987544747" lon="6.898215946634935"><ele>1024.0</ele><time>2026-05-02T13:58:05Z</time></trkpt><trkpt lat="45.079475894891814" lon="6.898333674206525"><ele>1024.0</ele><time>2026-05-02T13:58:06Z</time></trkpt><trkpt lat="45.079471597995976" lon="6.898459050009073"><ele>1024.0</ele><time>2026-05-02T13:58:07Z</time></trkpt><trkpt lat="45.07944712719988" lon="6.898592204779859"><ele>1023.9999999999999</ele><time>2026-05-02T13:58:08Z</time></trkpt><trkpt lat="45.07938946456067" lon="6.89871141312879"><ele>1024.0</ele><time>2026-05-02T13:58:09Z</time></trkpt><trkpt lat="45.079339778349464" lon="6.898840866712396"><ele>1024.8</ele><time>2026-05-02T13:58:10Z</time></trkpt><trkpt lat="45.07928920779513" lon="6.898965883044543"><ele>1025.6000000000001</ele><time>2026-05-02T13:58:11Z</time></trkpt><trkpt lat="45.07923867237418" lon="6.8990865396458805"><ele>1026.4</ele><time>2026-05-02T13:58:12Z</time></trkpt><trkpt lat="45.07918387299907" lon="6.8992122732481365"><ele>1027.2</ele><time>2026-05-02T13:58:13Z</time></trkpt><trkpt lat="45.07912671431144" lon="6.899338340606054"><ele>1028.0</ele><time>2026-05-02T13:58:14Z</time></trkpt><trkpt lat="45.079070531309824" lon="6.899458730249714"><ele>1024.6</ele><time>2026-05-02T13:58:15Z</time></trkpt><trkpt lat="45.07901120399317" lon="6.899580801753821"><ele>1021.1999999999999</ele><time>2026-05-02T13:58:16Z</time></trkpt><trkpt lat="45.07895216633551" lon="6.899698554738124"><ele>1017.8</ele><time>2026-05-02T13:58:17Z</time></trkpt><trkpt lat="45.07889632516709" lon="6.899809931845682"><ele>1014.4</ele><time>2026-05-02T13:58:18Z</time></trkpt><trkpt lat="45.0788409941481" lon="6.899924066827873"><ele>1011.0</ele><time>2026-05-02T13:58:19Z</time></trkpt><trkpt lat="45.07878756640944" lon="6.900045653132033"><ele>1011.8</ele><time>2026-05-02T13:58:20Z</time></trkpt><trkpt lat="45.078742796264194" lon="6.9001591788282255"><ele>1012.5999999999999</ele><time>2026-05-02T13:58:21Z</time></trkpt><trkpt lat="45.078703206691166" lon="6.900275140211842"><ele>1013.4</ele><time>2026-05-02T13:58:22Z</time></trkpt><trkpt lat="45.078670090858616" lon="6.900404250847771"><ele>1014.2</ele><time>2026-05-02T13:58:23Z</time></trkpt><trkpt lat="45.078647335824215" lon="6.90053878515021"><ele>1015.0</ele><time>2026-05-02T13:58:24Z</time></trkpt><trkpt lat="45.078634133601646" lon="6.900685808476713"><ele>1015.0</ele><time>2026-05-02T13:58:25Z</time></trkpt><trkpt lat="45.07863304035075" lon="6.90084516199209"><ele>1015.0</ele><time>2026-05-02T13:58:26Z</time></trkpt><trkpt lat="45.07864134611269" lon="6.901013910694374"><ele>1015.0</ele><time>2026-05-02T13:58:27Z</time></trkpt><trkpt lat="45.07865480534193" lon="6.90119317907477"><ele>1015.0</ele><time>2026-05-02T13:58:28Z</time></trkpt><trkpt lat="45.078672863584416" lon="6.901384140719218"><ele>1014.4</ele><time>2026-05-02T13:58:29Z</time></trkpt><trkpt lat="45.07868727763836" lon="6.9015563248443375"><ele>1013.8</ele><time>2026-05-02T13:58:30Z</time></trkpt><trkpt lat="45.07870162984145" lon="6.901718677745345"><ele>1013.2</ele><time>2026-05-02T13:58:31Z</time></trkpt><trkpt lat="45.07873229272463" lon="6.901848340994424"><ele>1012.6</ele><time>2026-05-02T13:58:32Z</time></trkpt><trkpt lat="45.078746619854165" lon="6.9019729540076655"><ele>1012.0</ele><time>2026-05-02T13:58:33Z</time></trkpt><trkpt lat="45.07876027374545" lon="6.902081362944099"><ele>1011.6</ele><time>2026-05-02T13:58:34Z</time></trkpt><trkpt lat="45.07878671473899" lon="6.902179635086436"><ele>1011.2</ele><time>2026-05-02T13:58:35Z</time></trkpt><trkpt lat="45.07883543390034" lon="6.902271616071993"><ele>1010.8</ele><time>2026-05-02T13:58:36Z</time></trkpt><trkpt lat="45.07892030816288" lon="6.902358564115394"><ele>1010.4</ele><time>2026-05-02T13:58:37Z</time></trkpt><trkpt lat="45.07900706050894" lon="6.902457399614384"><ele>1010.0</ele><time>2026-05-02T13:58:38Z</time></trkpt><trkpt lat="45.07910162294051" lon="6.902549158053771"><ele>1014.25</ele><time>2026-05-02T13:58:39Z</time></trkpt><trkpt lat="45.07919136109338" lon="6.902638145872088"><ele>1018.5</ele><time>2026-05-02T13:58:40Z</time></trkpt><trkpt lat="45.07927933387432" lon="6.902728314929087"><ele>1022.75</ele><time>2026-05-02T13:58:41Z</time></trkpt><trkpt lat="45.07936624239897" lon="6.902828612288528"><ele>1027.0</ele><time>2026-05-02T13:58:42Z</time></trkpt><trkpt lat="45.079447098452576" lon="6.902953032250542"><ele>1027.0</ele><time>2026-05-02T13:58:43Z</time></trkpt><trkpt lat="45.07952958449215" lon="6.903083757902367"><ele>1027.0</ele><time>2026-05-02T13:58:44Z</time></trkpt><trkpt lat="45.07961279047091" lon="6.903229687623277"><ele>1027.0</ele><time>2026-05-02T13:58:45Z</time></trkpt><trkpt lat="45.07969533606383" lon="6.9033757323748"><ele>1027.0</ele><time>2026-05-02T13:58:46Z</time></trkpt><trkpt lat="45.07976765523231" lon="6.903496957338693"><ele>1049.0</ele><time>2026-05-02T13:58:47Z</time></trkpt><trkpt lat="45.081257535559054" lon="6.903650926858667"><ele>1049.0</ele><time>2026-05-02T13:59:48Z</time></trkpt><trkpt lat="45.08132904977332" lon="6.9037469124774375"><ele>1049.0</ele><time>2026-05-02T13:59:49Z</time></trkpt><trkpt lat="45.081401878706295" lon="6.903822003249748"><ele>1049.0</ele><time>2026-05-02T13:59:50Z</time></trkpt><trkpt lat="45.08148662054573" lon="6.903878451067972"><ele>1049.0</ele><time>2026-05-02T13:59:51Z</time></trkpt><trkpt lat="45.08157577457288" lon="6.903902042709166"><ele>1049.0</ele><time>2026-05-02T13:59:52Z</time></trkpt><trkpt lat="45.08167366290855" lon="6.903908485601897"><ele>1052.6000000000001</ele><time>2026-05-02T13:59:53Z</time></trkpt><trkpt lat="45.08177459087194" lon="6.9038967943316285"><ele>1056.2</ele><time>2026-05-02T13:59:54Z</time></trkpt><trkpt lat="45.08186993385413" lon="6.903867962569215"><ele>1059.8000000000002</ele><time>2026-05-02T13:59:55Z</time></trkpt><trkpt lat="45.0819630221275" lon="6.903837832487969"><ele>1063.4</ele><time>2026-05-02T13:59:56Z</time></trkpt><trkpt lat="45.08205413195297" lon="6.9038145547427385"><ele>1067.0</ele><time>2026-05-02T13:59:57Z</time></trkpt><trkpt lat="45.08215306645213" lon="6.903794937199237"><ele>1067.0</ele><time>2026-05-02T13:59:58Z</time></trkpt><trkpt lat="45.08224874647922" lon="6.903797541110252"><ele>1067.0</ele><time>2026-05-02T13:59:59Z</time></trkpt><trkpt lat="45.08235081097699" lon="6.903806475435124"><ele>1067.0</ele><time>2026-05-02T14:00:00Z</time></trkpt><trkpt lat="45.08243914150137" lon="6.903846517544357"><ele>1067.0</ele><time>2026-05-02T14:00:01Z</time></trkpt><trkpt lat="45.082530260131556" lon="6.90390170662635"><ele>1067.0</ele><time>2026-05-02T14:00:02Z</time></trkpt><trkpt lat="45.08261900736962" lon="6.903975441065972"><ele>1063.5</ele><time>2026-05-02T14:00:03Z</time></trkpt><trkpt lat="45.082710029640836" lon="6.904056559630308"><ele>1060.0</ele><time>2026-05-02T14:00:04Z</time></trkpt><trkpt lat="45.08280417219623" lon="6.904144138925006"><ele>1056.5</ele><time>2026-05-02T14:00:05Z</time></trkpt><trkpt lat="45.08290916289556" lon="6.904245404996649"><ele>1053.0</ele><time>2026-05-02T14:00:06Z</time></trkpt><trkpt lat="45.08298989183848" lon="6.904390189708301"><ele>1053.0</ele><time>2026-05-02T14:00:07Z</time></trkpt><trkpt lat="45.08306901086673" lon="6.904547173038994"><ele>1053.0</ele><time>2026-05-02T14:00:08Z</time></trkpt><trkpt lat="45.08314769260976" lon="6.9047051913381"><ele>1053.0</ele><time>2026-05-02T14:00:09Z</time></trkpt><trkpt lat="45.083208268651376" lon="6.904863458071325"><ele>1053.0</ele><time>2026-05-02T14:00:10Z</time></trkpt><trkpt lat="45.08326401026159" lon="6.905010865476286"><ele>1054.25</ele><time>2026-05-02T14:00:11Z</time></trkpt><trkpt lat="45.08332326944003" lon="6.905168440787342"><ele>1055.5</ele><time>2026-05-02T14:00:12Z</time></trkpt><trkpt lat="45.083383311224985" lon="6.905342972653384"><ele>1056.75</ele><time>2026-05-02T14:00:13Z</time></trkpt><trkpt lat="45.083426276786525" lon="6.905511439101431"><ele>1058.0</ele><time>2026-05-02T14:00:14Z</time></trkpt><trkpt lat="45.083476937615295" lon="6.905671210227703"><ele>1058.0</ele><time>2026-05-02T14:00:15Z</time></trkpt><trkpt lat="45.08352617282099" lon="6.905822719474071"><ele>1058.0</ele><time>2026-05-02T14:00:16Z</time></trkpt><trkpt lat="45.08358135090807" lon="6.90597624157094"><ele>1058.0</ele><time>2026-05-02T14:00:17Z</time></trkpt><trkpt lat="45.08364648660654" lon="6.906120151133436"><ele>1058.0</ele><time>2026-05-02T14:00:18Z</time></trkpt><trkpt lat="45.08371794264163" lon="6.906263214412675"><ele>1054.5</ele><time>2026-05-02T14:00:19Z</time></trkpt><trkpt lat="45.08380197382578" lon="6.906402169713174"><ele>1051.0</ele><time>2026-05-02T14:00:20Z</time></trkpt><trkpt lat="45.0839116432137" lon="6.906530564426718"><ele>1047.5</ele><time>2026-05-02T14:00:21Z</time></trkpt><trkpt lat="45.08404564699519" lon="6.906670848736024"><ele>1044.0</ele><time>2026-05-02T14:00:22Z</time></trkpt><trkpt lat="45.08417423372682" lon="6.906820881847225"><ele>1044.0</ele><time>2026-05-02T14:00:23Z</time></trkpt><trkpt lat="45.08428702149325" lon="6.906968639403413"><ele>1044.0</ele><time>2026-05-02T14:00:24Z</time></trkpt><trkpt lat="45.08439752577993" lon="6.907092875562391"><ele>1044.0</ele><time>2026-05-02T14:00:25Z</time></trkpt><trkpt lat="45.08451255100476" lon="6.907194130546227"><ele>1044.0</ele><time>2026-05-02T14:00:26Z</time></trkpt><trkpt lat="45.08462875128143" lon="6.907272351677318"><ele>1044.0</ele><time>2026-05-02T14:00:27Z</time></trkpt><trkpt lat="45.0847517548122" lon="6.907350581734336"><ele>1044.0</ele><time>2026-05-02T14:00:28Z</time></trkpt><trkpt lat="45.08486792422327" lon="6.907447573362473"><ele>1044.0</ele><time>2026-05-02T14:00:29Z</time></trkpt><trkpt lat="45.08496228553555" lon="6.907546749752891"><ele>1044.0</ele><time>2026-05-02T14:00:30Z</time></trkpt><trkpt lat="45.085051530433425" lon="6.907635923332253"><ele>1041.1666666666667</ele><time>2026-05-02T14:00:31Z</time></trkpt><trkpt lat="45.08513333599735" lon="6.907695657687837"><ele>1038.3333333333333</ele><time>2026-05-02T14:00:32Z</time></trkpt><trkpt lat="45.085215515321146" lon="6.907717475804518"><ele>1035.5</ele><time>2026-05-02T14:00:33Z</time></trkpt><trkpt lat="45.08528681618047" lon="6.907728224122114"><ele>1032.6666666666665</ele><time>2026-05-02T14:00:34Z</time></trkpt><trkpt lat="45.0853544916646" lon="6.907730961077565"><ele>1029.8333333333333</ele><time>2026-05-02T14:00:35Z</time></trkpt><trkpt lat="45.08541803138664" lon="6.9077088293485795"><ele>1027.0</ele><time>2026-05-02T14:00:36Z</time></trkpt><trkpt lat="45.0854846194416" lon="6.90767980697106"><ele>1027.0</ele><time>2026-05-02T14:00:37Z</time></trkpt><trkpt lat="45.0855547610953" lon="6.907683563796294"><ele>1027.0</ele><time>2026-05-02T14:00:38Z</time></trkpt><trkpt lat="45.08560994289445" lon="6.907746369933428"><ele>1027.0</ele><time>2026-05-02T14:00:39Z</time></trkpt><trkpt lat="45.08563227351397" lon="6.907841602874675"><ele>1027.0</ele><time>2026-05-02T14:00:40Z</time></trkpt><trkpt lat="45.08558445939232" lon="6.907943115878906"><ele>1027.0</ele><time>2026-05-02T14:00:41Z</time></trkpt><trkpt lat="45.08544430217823" lon="6.907966247340629"><ele>1027.0</ele><time>2026-05-02T14:00:43Z</time></trkpt><trkpt lat="45.085334760600446" lon="6.907939007359456"><ele>1027.0</ele><time>2026-05-02T14:00:44Z</time></trkpt><trkpt lat="45.08517772439716" lon="6.907903420560785"><ele>1027.0</ele><time>2026-05-02T14:00:45Z</time></trkpt><trkpt lat="45.084990368961314" lon="6.907862606663734"><ele>1027.0</ele><time>2026-05-02T14:00:46Z</time></trkpt><trkpt lat="45.0848237317181" lon="6.907831526165868"><ele>968.0</ele><time>2026-05-02T14:00:47Z</time></trkpt><trkpt lat="45.090012809331164" lon="6.914109583444341"><ele>961.3333333333334</ele><time>2026-05-02T14:01:48Z</time></trkpt><trkpt lat="45.09011134968796" lon="6.914371823714956"><ele>954.6666666666667</ele><time>2026-05-02T14:01:49Z</time></trkpt><trkpt lat="45.09021178207607" lon="6.9146226840700304"><ele>948.0</ele><time>2026-05-02T14:01:50Z</time></trkpt><trkpt lat="45.090307647428354" lon="6.91486442554311"><ele>935.6666666666667</ele><time>2026-05-02T14:01:51Z</time></trkpt><trkpt lat="45.09040071071765" lon="6.91509119493569"><ele>923.3333333333334</ele><time>2026-05-02T14:01:52Z</time></trkpt><trkpt lat="45.09049071259993" lon="6.915316383149794"><ele>911.0</ele><time>2026-05-02T14:01:53Z</time></trkpt><trkpt lat="45.090602455347785" lon="6.915536065369635"><ele>911.0</ele><time>2026-05-02T14:01:54Z</time></trkpt><trkpt lat="45.090727744821784" lon="6.915765757928305"><ele>911.0</ele><time>2026-05-02T14:01:55Z</time></trkpt><trkpt lat="45.09086762495509" lon="6.915991341658057"><ele>911.0</ele><time>2026-05-02T14:01:56Z</time></trkpt><trkpt lat="45.09101202733238" lon="6.916222502655523"><ele>915.6666666666667</ele><time>2026-05-02T14:01:57Z</time></trkpt><trkpt lat="45.091163690943745" lon="6.916450375568777"><ele>920.3333333333333</ele><time>2026-05-02T14:01:58Z</time></trkpt><trkpt lat="45.0913038008912" lon="6.9166818529150484"><ele>925.0</ele><time>2026-05-02T14:01:59Z</time></trkpt><trkpt lat="45.09144111752668" lon="6.916924369444154"><ele>936.0</ele><time>2026-05-02T14:02:00Z</time></trkpt><trkpt lat="45.09158166756304" lon="6.917171556382977"><ele>947.0</ele><time>2026-05-02T14:02:01Z</time></trkpt><trkpt lat="45.09172816987165" lon="6.917422226889686"><ele>936.3333333333334</ele><time>2026-05-02T14:02:02Z</time></trkpt><trkpt lat="45.091868353352105" lon="6.917671490315154"><ele>925.6666666666667</ele><time>2026-05-02T14:02:03Z</time></trkpt><trkpt lat="45.09200618715985" lon="6.9179222850546465"><ele>915.0</ele><time>2026-05-02T14:02:04Z</time></trkpt><trkpt lat="45.092146121545454" lon="6.918173328653029"><ele>918.5</ele><time>2026-05-02T14:02:05Z</time></trkpt><trkpt lat="45.09229606665082" lon="6.918427680377828"><ele>922.0</ele><time>2026-05-02T14:02:06Z</time></trkpt><trkpt lat="45.09244503940408" lon="6.918681526442721"><ele>922.0</ele><time>2026-05-02T14:02:07Z</time></trkpt><trkpt lat="45.09259738601264" lon="6.918936517481418"><ele>922.0</ele><time>2026-05-02T14:02:08Z</time></trkpt><trkpt lat="45.09275092331437" lon="6.919193946286353"><ele>910.0</ele><time>2026-05-02T14:02:09Z</time></trkpt><trkpt lat="45.09290057689951" lon="6.919462694609966"><ele>898.0</ele><time>2026-05-02T14:02:10Z</time></trkpt><trkpt lat="45.093049269269194" lon="6.919743745674368"><ele>898.0</ele><time>2026-05-02T14:02:11Z</time></trkpt><trkpt lat="45.093191011595025" lon="6.92003660209157"><ele>898.0</ele><time>2026-05-02T14:02:12Z</time></trkpt><trkpt lat="45.093320054029114" lon="6.920346360422281"><ele>899.0</ele><time>2026-05-02T14:02:13Z</time></trkpt><trkpt lat="45.09342673672284" lon="6.920685284841438"><ele>900.0</ele><time>2026-05-02T14:02:14Z</time></trkpt><trkpt lat="45.09354249201914" lon="6.9210117733500045"><ele>900.0</ele><time>2026-05-02T14:02:15Z</time></trkpt><trkpt lat="45.09363517484561" lon="6.921350404704401"><ele>900.0</ele><time>2026-05-02T14:02:16Z</time></trkpt><trkpt lat="45.09371987464303" lon="6.921694363439853"><ele>894.5</ele><time>2026-05-02T14:02:17Z</time></trkpt><trkpt lat="45.09378787168994" lon="6.9220513886123225"><ele>889.0</ele><time>2026-05-02T14:02:18Z</time></trkpt><trkpt lat="45.09384130478347" lon="6.922404106424353"><ele>880.0</ele><time>2026-05-02T14:02:19Z</time></trkpt><trkpt lat="45.09389384825219" lon="6.922736968722557"><ele>871.0</ele><time>2026-05-02T14:02:20Z</time></trkpt><trkpt lat="45.09393620996166" lon="6.92305515895513"><ele>871.0</ele><time>2026-05-02T14:02:21Z</time></trkpt><trkpt lat="45.09398908605198" lon="6.92337242116089"><ele>871.0</ele><time>2026-05-02T14:02:22Z</time></trkpt><trkpt lat="45.09416638800293" lon="6.923644254513353"><ele>884.5</ele><time>2026-05-02T14:02:23Z</time></trkpt><trkpt lat="45.09430785871081" lon="6.92392626281718"><ele>898.0</ele><time>2026-05-02T14:02:24Z</time></trkpt><trkpt lat="45.09445534289915" lon="6.924208600711708"><ele>882.5</ele><time>2026-05-02T14:02:25Z</time></trkpt><trkpt lat="45.09461354018805" lon="6.9244870321466045"><ele>867.0</ele><time>2026-05-02T14:02:26Z</time></trkpt><trkpt lat="45.094774883064794" lon="6.924763161614032"><ele>873.5</ele><time>2026-05-02T14:02:27Z</time></trkpt><trkpt lat="45.094949369679824" lon="6.925026147387186"><ele>880.0</ele><time>2026-05-02T14:02:28Z</time></trkpt><trkpt lat="45.095136474967376" lon="6.925247768167302"><ele>880.0</ele><time>2026-05-02T14:02:29Z</time></trkpt><trkpt lat="45.095314010288455" lon="6.925477417036037"><ele>880.0</ele><time>2026-05-02T14:02:30Z</time></trkpt><trkpt lat="45.09549879723692" lon="6.925665824418389"><ele>880.0</ele><time>2026-05-02T14:02:31Z</time></trkpt><trkpt lat="45.09570057428911" lon="6.925815964809686"><ele>880.0</ele><time>2026-05-02T14:02:32Z</time></trkpt><trkpt lat="45.09591466264374" lon="6.925940557237336"><ele>878.6666666666666</ele><time>2026-05-02T14:02:33Z</time></trkpt><trkpt lat="45.09611138461904" lon="6.926104320480808"><ele>877.3333333333333</ele><time>2026-05-02T14:02:34Z</time></trkpt><trkpt lat="45.09627519805983" lon="6.926241318033349"><ele>876.0</ele><time>2026-05-02T14:02:35Z</time></trkpt><trkpt lat="45.096429556199524" lon="6.926396353209"><ele>876.0</ele><time>2026-05-02T14:02:36Z</time></trkpt><trkpt lat="45.09658461473258" lon="6.9265139761803765"><ele>876.0</ele><time>2026-05-02T14:02:37Z</time></trkpt><trkpt lat="45.09674404637189" lon="6.926620012892721"><ele>876.0</ele><time>2026-05-02T14:02:38Z</time></trkpt><trkpt lat="45.096915595988264" lon="6.9266477030367675"><ele>874.0</ele><time>2026-05-02T14:02:39Z</time></trkpt><trkpt lat="45.09707339162952" lon="6.926674365099642"><ele>872.0</ele><time>2026-05-02T14:02:40Z</time></trkpt><trkpt lat="45.09722529955602" lon="6.9267313154449806"><ele>870.0</ele><time>2026-05-02T14:02:41Z</time></trkpt><trkpt lat="45.09736404137689" lon="6.926808707653465"><ele>878.0</ele><time>2026-05-02T14:02:42Z</time></trkpt><trkpt lat="45.097475076806816" lon="6.926926968289175"><ele>886.0</ele><time>2026-05-02T14:02:43Z</time></trkpt><trkpt lat="45.09756704443913" lon="6.927108471586311"><ele>894.0</ele><time>2026-05-02T14:02:44Z</time></trkpt><trkpt lat="45.09765397801791" lon="6.927318435746587"><ele>894.0</ele><time>2026-05-02T14:02:45Z</time></trkpt><trkpt lat="45.097739651808936" lon="6.927545714175986"><ele>894.0</ele><time>2026-05-02T14:02:46Z</time></trkpt><trkpt lat="45.0978304901114" lon="6.927791010253358"><ele>894.0</ele><time>2026-05-02T14:02:47Z</time></trkpt><trkpt lat="45.102295884578126" lon="6.93980042674276"><ele>878.6666666666667</ele><time>2026-05-02T14:03:48Z</time></trkpt><trkpt lat="45.102340348435334" lon="6.94002379691773"><ele>863.3333333333334</ele><time>2026-05-02T14:03:49Z</time></trkpt><trkpt lat="45.102382384819116" lon="6.940258727951131"><ele>848.0</ele><time>2026-05-02T14:03:50Z</time></trkpt><trkpt lat="45.102425305716906" lon="6.940496840220544"><ele>848.0</ele><time>2026-05-02T14:03:51Z</time></trkpt><trkpt lat="45.102452787275" lon="6.9407528789449735"><ele>848.0</ele><time>2026-05-02T14:03:52Z</time></trkpt><trkpt lat="45.102480615800395" lon="6.941009005710713"><ele>848.0</ele><time>2026-05-02T14:03:53Z</time></trkpt><trkpt lat="45.10253418739361" lon="6.941237617556605"><ele>842.3333333333334</ele><time>2026-05-02T14:03:54Z</time></trkpt><trkpt lat="45.10259429354794" lon="6.941452924305426"><ele>836.6666666666667</ele><time>2026-05-02T14:03:55Z</time></trkpt><trkpt lat="45.102595367742154" lon="6.941666829987581"><ele>831.0</ele><time>2026-05-02T14:03:56Z</time></trkpt><trkpt lat="45.10262231970354" lon="6.941865063818817"><ele>828.0</ele><time>2026-05-02T14:03:57Z</time></trkpt><trkpt lat="45.10263491349856" lon="6.942053994429"><ele>825.0</ele><time>2026-05-02T14:03:58Z</time></trkpt><trkpt lat="45.10265015829808" lon="6.942236531383445"><ele>822.0</ele><time>2026-05-02T14:03:59Z</time></trkpt><trkpt lat="45.10268313255107" lon="6.942405429362484"><ele>819.0</ele><time>2026-05-02T14:04:00Z</time></trkpt><trkpt lat="45.10274268375245" lon="6.942552917052678"><ele>815.5</ele><time>2026-05-02T14:04:01Z</time></trkpt><trkpt lat="45.10281522393687" lon="6.942681022090185"><ele>812.0</ele><time>2026-05-02T14:04:02Z</time></trkpt><trkpt lat="45.102902577827216" lon="6.942796805246973"><ele>808.5</ele><time>2026-05-02T14:04:03Z</time></trkpt><trkpt lat="45.10299629925438" lon="6.942922014648505"><ele>805.0</ele><time>2026-05-02T14:04:04Z</time></trkpt><trkpt lat="45.10308446004292" lon="6.943065800588769"><ele>805.0</ele><time>2026-05-02T14:04:05Z</time></trkpt><trkpt lat="45.103157587761835" lon="6.943239743714318"><ele>805.0</ele><time>2026-05-02T14:04:06Z</time></trkpt><trkpt lat="45.10321329263946" lon="6.943430170587642"><ele>805.0</ele><time>2026-05-02T14:04:07Z</time></trkpt><trkpt lat="45.10328092612062" lon="6.943610167118606"><ele>805.0</ele><time>2026-05-02T14:04:08Z</time></trkpt><trkpt lat="45.10334311238969" lon="6.943777666348617"><ele>806.0</ele><time>2026-05-02T14:04:09Z</time></trkpt><trkpt lat="45.10340996912784" lon="6.943947836044916"><ele>807.0</ele><time>2026-05-02T14:04:10Z</time></trkpt><trkpt lat="45.10348878976673" lon="6.9441131941399155"><ele>808.0</ele><time>2026-05-02T14:04:11Z</time></trkpt><trkpt lat="45.103574776484095" lon="6.944261809855249"><ele>809.0</ele><time>2026-05-02T14:04:12Z</time></trkpt><trkpt lat="45.10367019419053" lon="6.9443933336613135"><ele>804.0</ele><time>2026-05-02T14:04:13Z</time></trkpt><trkpt lat="45.10375110960701" lon="6.944512312205368"><ele>799.0</ele><time>2026-05-02T14:04:14Z</time></trkpt><trkpt lat="45.10381464774659" lon="6.944623918333202"><ele>794.0</ele><time>2026-05-02T14:04:15Z</time></trkpt><trkpt lat="45.10385677248698" lon="6.944720132779283"><ele>789.0</ele><time>2026-05-02T14:04:16Z</time></trkpt><trkpt lat="45.10390111315527" lon="6.944826197806491"><ele>784.0</ele><time>2026-05-02T14:04:18Z</time></trkpt><trkpt lat="45.106146137676916" lon="6.94934427532079"><ele>776.75</ele><time>2026-05-02T14:08:48Z</time></trkpt><trkpt lat="45.106238661502076" lon="6.9494580131864705"><ele>769.5</ele><time>2026-05-02T14:08:49Z</time></trkpt><trkpt lat="45.10634117588025" lon="6.9495519758928275"><ele>762.25</ele><time>2026-05-02T14:08:50Z</time></trkpt><trkpt lat="45.10640123099861" lon="6.949703400878286"><ele>755.0</ele><time>2026-05-02T14:08:51Z</time></trkpt><trkpt lat="45.10646673464941" lon="6.949893280426567"><ele>750.0</ele><time>2026-05-02T14:08:52Z</time></trkpt><trkpt lat="45.10651363612568" lon="6.950101139580191"><ele>745.0</ele><time>2026-05-02T14:08:53Z</time></trkpt><trkpt lat="45.10652742354372" lon="6.950313404655708"><ele>740.0</ele><time>2026-05-02T14:08:54Z</time></trkpt><trkpt lat="45.10655865077328" lon="6.950541968562663"><ele>748.0</ele><time>2026-05-02T14:08:55Z</time></trkpt><trkpt lat="45.10661798181896" lon="6.950771204847395"><ele>756.0</ele><time>2026-05-02T14:08:56Z</time></trkpt><trkpt lat="45.1066804163763" lon="6.951006183633691"><ele>764.0</ele><time>2026-05-02T14:08:57Z</time></trkpt><trkpt lat="45.106765422488124" lon="6.951238137539088"><ele>764.0</ele><time>2026-05-02T14:08:58Z</time></trkpt><trkpt lat="45.10686007517898" lon="6.951455172893728"><ele>764.0</ele><time>2026-05-02T14:08:59Z</time></trkpt><trkpt lat="45.10695136326369" lon="6.951688949070074"><ele>764.0</ele><time>2026-05-02T14:09:00Z</time></trkpt><trkpt lat="45.10702267385755" lon="6.951933717485717"><ele>759.6666666666666</ele><time>2026-05-02T14:09:01Z</time></trkpt><trkpt lat="45.10708736779162" lon="6.952176562932736"><ele>755.3333333333334</ele><time>2026-05-02T14:09:02Z</time></trkpt><trkpt lat="45.107153800303244" lon="6.952430395468758"><ele>751.0</ele><time>2026-05-02T14:09:03Z</time></trkpt><trkpt lat="45.10721762686935" lon="6.95268736369859"><ele>747.3333333333334</ele><time>2026-05-02T14:09:04Z</time></trkpt><trkpt lat="45.107275382885746" lon="6.9529493577089845"><ele>743.6666666666666</ele><time>2026-05-02T14:09:05Z</time></trkpt><trkpt lat="45.10733113189717" lon="6.953209441723425"><ele>740.0</ele><time>2026-05-02T14:09:06Z</time></trkpt><trkpt lat="45.10738714765973" lon="6.953470412028472"><ele>739.3333333333333</ele><time>2026-05-02T14:09:07Z</time></trkpt><trkpt lat="45.10744685821882" lon="6.953725825370138"><ele>738.6666666666666</ele><time>2026-05-02T14:09:08Z</time></trkpt><trkpt lat="45.107521430385894" lon="6.953968330947171"><ele>738.0</ele><time>2026-05-02T14:09:09Z</time></trkpt><trkpt lat="45.10758025820708" lon="6.95422318812358"><ele>738.0</ele><time>2026-05-02T14:09:10Z</time></trkpt><trkpt lat="45.10764097295919" lon="6.954473731957165"><ele>738.0</ele><time>2026-05-02T14:09:11Z</time></trkpt><trkpt lat="45.10770493326049" lon="6.954723152599056"><ele>738.0</ele><time>2026-05-02T14:09:12Z</time></trkpt><trkpt lat="45.10777223848521" lon="6.954969088276143"><ele>740.0</ele><time>2026-05-02T14:09:13Z</time></trkpt><trkpt lat="45.10783177920247" lon="6.955209250011715"><ele>742.0</ele><time>2026-05-02T14:09:14Z</time></trkpt><trkpt lat="45.10789252408623" lon="6.955451440975011"><ele>744.0</ele><time>2026-05-02T14:09:15Z</time></trkpt><trkpt lat="45.10796017346402" lon="6.955692177342458"><ele>748.6666666666666</ele><time>2026-05-02T14:09:16Z</time></trkpt><trkpt lat="45.1080344106039" lon="6.955928132399323"><ele>753.3333333333333</ele><time>2026-05-02T14:09:17Z</time></trkpt><trkpt lat="45.10810240220041" lon="6.956161710721534"><ele>758.0</ele><time>2026-05-02T14:09:18Z</time></trkpt><trkpt lat="45.10818279667906" lon="6.956386521790292"><ele>759.6666666666666</ele><time>2026-05-02T14:09:19Z</time></trkpt><trkpt lat="45.10825424176239" lon="6.956589027696529"><ele>761.3333333333334</ele><time>2026-05-02T14:09:20Z</time></trkpt><trkpt lat="45.10833616019777" lon="6.956772779061212"><ele>763.0</ele><time>2026-05-02T14:09:21Z</time></trkpt><trkpt lat="45.108382882492144" lon="6.956978473897553"><ele>765.5</ele><time>2026-05-02T14:09:22Z</time></trkpt><trkpt lat="45.10844602989278" lon="6.957166847219542"><ele>768.0</ele><time>2026-05-02T14:09:23Z</time></trkpt><trkpt lat="45.10850647457543" lon="6.95736504695155"><ele>770.5</ele><time>2026-05-02T14:09:24Z</time></trkpt><trkpt lat="45.108548185732126" lon="6.957566557859896"><ele>773.0</ele><time>2026-05-02T14:09:25Z</time></trkpt><trkpt lat="45.108578472545325" lon="6.9577578886083185"><ele>774.25</ele><time>2026-05-02T14:09:26Z</time></trkpt><trkpt lat="45.10860588214996" lon="6.957948621770823"><ele>775.5</ele><time>2026-05-02T14:09:27Z</time></trkpt><trkpt lat="45.108623569441264" lon="6.958158677462919"><ele>776.75</ele><time>2026-05-02T14:09:28Z</time></trkpt><trkpt lat="45.10863340326896" lon="6.958374255553536"><ele>778.0</ele><time>2026-05-02T14:09:29Z</time></trkpt><trkpt lat="45.10863791860516" lon="6.958594472372046"><ele>780.3333333333333</ele><time>2026-05-02T14:09:30Z</time></trkpt><trkpt lat="45.10864519193925" lon="6.95882815875988"><ele>782.6666666666667</ele><time>2026-05-02T14:09:31Z</time></trkpt><trkpt lat="45.108647404492665" lon="6.959070956938521"><ele>785.0</ele><time>2026-05-02T14:09:32Z</time></trkpt><trkpt lat="45.108647069144695" lon="6.959317630359827"><ele>791.5</ele><time>2026-05-02T14:09:33Z</time></trkpt><trkpt lat="45.108668413562334" lon="6.959560152200513"><ele>798.0</ele><time>2026-05-02T14:09:34Z</time></trkpt><trkpt lat="45.1088097104816" lon="6.96001895114661"><ele>791.3333333333333</ele><time>2026-05-02T14:09:36Z</time></trkpt><trkpt lat="45.10891695385644" lon="6.960256755234268"><ele>784.6666666666666</ele><time>2026-05-02T14:09:37Z</time></trkpt><trkpt lat="45.10900439455631" lon="6.960455038799581"><ele>778.0</ele><time>2026-05-02T14:09:38Z</time></trkpt><trkpt lat="45.109082060093655" lon="6.960641449844967"><ele>778.0</ele><time>2026-05-02T14:09:39Z</time></trkpt><trkpt lat="45.10914839307762" lon="6.960806022924465"><ele>778.0</ele><time>2026-05-02T14:09:40Z</time></trkpt><trkpt lat="45.10920530834971" lon="6.960964562517693"><ele>778.0</ele><time>2026-05-02T14:09:41Z</time></trkpt><trkpt lat="45.109251840080724" lon="6.961117157704305"><ele>778.0</ele><time>2026-05-02T14:09:42Z</time></trkpt><trkpt lat="45.109290230163445" lon="6.961250679563303"><ele>781.2</ele><time>2026-05-02T14:09:43Z</time></trkpt><trkpt lat="45.10931659639868" lon="6.961366064964366"><ele>784.4</ele><time>2026-05-02T14:09:44Z</time></trkpt><trkpt lat="45.109334466359634" lon="6.961469226513706"><ele>787.6</ele><time>2026-05-02T14:09:45Z</time></trkpt><trkpt lat="45.10935354672985" lon="6.961563343699799"><ele>790.8000000000001</ele><time>2026-05-02T14:09:46Z</time></trkpt><trkpt lat="45.10938493991728" lon="6.961646048238829"><ele>794.0</ele><time>2026-05-02T14:09:47Z</time></trkpt><trkpt lat="45.11464296725591" lon="6.973395898871821"><ele>794.0</ele><time>2026-05-02T14:10:48Z</time></trkpt><trkpt lat="45.11477294267545" lon="6.973600871973782"><ele>794.0</ele><time>2026-05-02T14:10:49Z</time></trkpt><trkpt lat="45.11490215180169" lon="6.973807665836483"><ele>794.0</ele><time>2026-05-02T14:10:50Z</time></trkpt><trkpt lat="45.11503577982875" lon="6.9740131770632585"><ele>791.0</ele><time>2026-05-02T14:10:51Z</time></trkpt><trkpt lat="45.115169493376996" lon="6.9742220897333524"><ele>788.0</ele><time>2026-05-02T14:10:52Z</time></trkpt><trkpt lat="45.11529079345237" lon="6.974411473265244"><ele>785.0</ele><time>2026-05-02T14:10:53Z</time></trkpt><trkpt lat="45.11540456745288" lon="6.974588347636118"><ele>785.0</ele><time>2026-05-02T14:10:54Z</time></trkpt><trkpt lat="45.1155183617268" lon="6.974758300863813"><ele>785.0</ele><time>2026-05-02T14:10:55Z</time></trkpt><trkpt lat="45.11563210518809" lon="6.974924875178755"><ele>785.0</ele><time>2026-05-02T14:10:56Z</time></trkpt><trkpt lat="45.11575395880392" lon="6.975098169865808"><ele>783.3333333333334</ele><time>2026-05-02T14:10:57Z</time></trkpt><trkpt lat="45.115876616554" lon="6.975273510100169"><ele>781.6666666666667</ele><time>2026-05-02T14:10:58Z</time></trkpt><trkpt lat="45.116000424692785" lon="6.975460596997776"><ele>780.0</ele><time>2026-05-02T14:10:59Z</time></trkpt><trkpt lat="45.11613547897368" lon="6.975651484461106"><ele>780.0</ele><time>2026-05-02T14:11:00Z</time></trkpt><trkpt lat="45.11626437522254" lon="6.9758484679700565"><ele>780.0</ele><time>2026-05-02T14:11:01Z</time></trkpt><trkpt lat="45.116392926561105" lon="6.976054280214297"><ele>780.0</ele><time>2026-05-02T14:11:02Z</time></trkpt><trkpt lat="45.116523034899714" lon="6.976247936143202"><ele>777.0</ele><time>2026-05-02T14:11:03Z</time></trkpt><trkpt lat="45.11665127444021" lon="6.9764481391976325"><ele>774.0</ele><time>2026-05-02T14:11:04Z</time></trkpt><trkpt lat="45.116768884179116" lon="6.976659581046031"><ele>771.0</ele><time>2026-05-02T14:11:05Z</time></trkpt><trkpt lat="45.116871345848224" lon="6.976879307574056"><ele>770.0</ele><time>2026-05-02T14:11:06Z</time></trkpt><trkpt lat="45.116954502437174" lon="6.977108424068775"><ele>769.0</ele><time>2026-05-02T14:11:07Z</time></trkpt><trkpt lat="45.11708371600103" lon="6.97730105753763"><ele>768.0</ele><time>2026-05-02T14:11:08Z</time></trkpt><trkpt lat="45.1170583495038" lon="6.97758094559967"><ele>767.6666666666666</ele><time>2026-05-02T14:11:09Z</time></trkpt><trkpt lat="45.117078061559134" lon="6.9778308423607225"><ele>767.3333333333333</ele><time>2026-05-02T14:11:10Z</time></trkpt><trkpt lat="45.117086073702225" lon="6.978083348212054"><ele>767.0</ele><time>2026-05-02T14:11:11Z</time></trkpt><trkpt lat="45.1170870745848" lon="6.97834282311115"><ele>766.0</ele><time>2026-05-02T14:11:12Z</time></trkpt><trkpt lat="45.11709752890692" lon="6.978608227821428"><ele>765.0</ele><time>2026-05-02T14:11:12.999Z</time></trkpt><trkpt lat="45.117107990125334" lon="6.978885099033158"><ele>764.0</ele><time>2026-05-02T14:11:13.999Z</time></trkpt><trkpt lat="45.11711589568526" lon="6.97916264527299"><ele>763.6666666666666</ele><time>2026-05-02T14:11:14.999Z</time></trkpt><trkpt lat="45.11712687554959" lon="6.979439861827257"><ele>763.3333333333334</ele><time>2026-05-02T14:11:15.999Z</time></trkpt><trkpt lat="45.11713944292363" lon="6.979707472292794"><ele>763.0</ele><time>2026-05-02T14:11:16.999Z</time></trkpt><trkpt lat="45.11713401035371" lon="6.979959882421366"><ele>765.0</ele><time>2026-05-02T14:11:17.999Z</time></trkpt><trkpt lat="45.117142058949966" lon="6.980212496939074"><ele>767.0</ele><time>2026-05-02T14:11:18.999Z</time></trkpt><trkpt lat="45.11715011649211" lon="6.980461074417012"><ele>769.0</ele><time>2026-05-02T14:11:19.999Z</time></trkpt><trkpt lat="45.11715812469844" lon="6.9807059509710685"><ele>770.6666666666666</ele><time>2026-05-02T14:11:20.999Z</time></trkpt><trkpt lat="45.117165987291976" lon="6.980946374793843"><ele>772.3333333333333</ele><time>2026-05-02T14:11:21.999Z</time></trkpt><trkpt lat="45.11718988054089" lon="6.981180275345432"><ele>774.0</ele><time>2026-05-02T14:11:22.999Z</time></trkpt><trkpt lat="45.11719000551639" lon="6.981405913510843"><ele>774.0</ele><time>2026-05-02T14:11:23.999Z</time></trkpt><trkpt lat="45.117194516211875" lon="6.981632671091989"><ele>774.0</ele><time>2026-05-02T14:11:25Z</time></trkpt><trkpt lat="45.117204732193656" lon="6.981856662288303"><ele>774.0</ele><time>2026-05-02T14:11:26Z</time></trkpt><trkpt lat="45.117225161091085" lon="6.982079034370117"><ele>777.0</ele><time>2026-05-02T14:11:27Z</time></trkpt><trkpt lat="45.11725926623918" lon="6.982306337748325"><ele>780.0</ele><time>2026-05-02T14:11:28Z</time></trkpt><trkpt lat="45.11731012696274" lon="6.982530003122797"><ele>783.0</ele><time>2026-05-02T14:11:29Z</time></trkpt><trkpt lat="45.11736793965006" lon="6.982747934157777"><ele>776.6666666666666</ele><time>2026-05-02T14:11:30Z</time></trkpt><trkpt lat="45.11743868775349" lon="6.982951759568854"><ele>770.3333333333333</ele><time>2026-05-02T14:11:31Z</time></trkpt><trkpt lat="45.1175262134633" lon="6.983146227407374"><ele>764.0</ele><time>2026-05-02T14:11:32Z</time></trkpt><trkpt lat="45.11762974881861" lon="6.9833297406841375"><ele>765.6666666666666</ele><time>2026-05-02T14:11:33Z</time></trkpt><trkpt lat="45.1177408318309" lon="6.983512907851565"><ele>767.3333333333333</ele><time>2026-05-02T14:11:34Z</time></trkpt><trkpt lat="45.11785579122758" lon="6.983697342443158"><ele>769.0</ele><time>2026-05-02T14:11:35Z</time></trkpt><trkpt lat="45.11798041192885" lon="6.9838753754501575"><ele>769.0</ele><time>2026-05-02T14:11:36Z</time></trkpt><trkpt lat="45.118095736833354" lon="6.984049796875172"><ele>769.0</ele><time>2026-05-02T14:11:37Z</time></trkpt><trkpt lat="45.118204986727974" lon="6.984227292755515"><ele>769.0</ele><time>2026-05-02T14:11:38Z</time></trkpt><trkpt lat="45.11830513431802" lon="6.9843836756710935"><ele>767.75</ele><time>2026-05-02T14:11:39Z</time></trkpt><trkpt lat="45.11839413548929" lon="6.984531079487116"><ele>766.5</ele><time>2026-05-02T14:11:40Z</time></trkpt><trkpt lat="45.118479583924334" lon="6.984656698493489"><ele>765.25</ele><time>2026-05-02T14:11:41Z</time></trkpt><trkpt lat="45.118564404539455" lon="6.984781950256477"><ele>764.0</ele><time>2026-05-02T14:11:42Z</time></trkpt><trkpt lat="45.11864720535096" lon="6.984900717701584"><ele>765.25</ele><time>2026-05-02T14:11:43Z</time></trkpt><trkpt lat="45.11872927304019" lon="6.985016496507808"><ele>766.5</ele><time>2026-05-02T14:11:44Z</time></trkpt><trkpt lat="45.11880841207594" lon="6.985142348291235"><ele>767.75</ele><time>2026-05-02T14:11:45Z</time></trkpt><trkpt lat="45.11889730098106" lon="6.985276238808122"><ele>769.0</ele><time>2026-05-02T14:11:46Z</time></trkpt><trkpt lat="45.118980864079035" lon="6.985421446791639"><ele>742.0</ele><time>2026-05-02T14:11:47Z</time></trkpt><trkpt lat="45.12418341442077" lon="6.997525748996896"><ele>742.0</ele><time>2026-05-02T14:12:48Z</time></trkpt><trkpt lat="45.12430300538416" lon="6.99771385108483"><ele>742.0</ele><time>2026-05-02T14:12:49Z</time></trkpt><trkpt lat="45.124411484064595" lon="6.9979159422160215"><ele>742.0</ele><time>2026-05-02T14:12:50Z</time></trkpt><trkpt lat="45.12450532244234" lon="6.9981283861377195"><ele>742.0</ele><time>2026-05-02T14:12:51Z</time></trkpt><trkpt lat="45.1245848430077" lon="6.998343793360327"><ele>742.0</ele><time>2026-05-02T14:12:52Z</time></trkpt><trkpt lat="45.124644409041615" lon="6.998557279228284"><ele>742.0</ele><time>2026-05-02T14:12:53Z</time></trkpt><trkpt lat="45.12469050068224" lon="6.998773270887376"><ele>742.0</ele><time>2026-05-02T14:12:54Z</time></trkpt><trkpt lat="45.12472460001442" lon="6.998989354594796"><ele>742.0</ele><time>2026-05-02T14:12:55Z</time></trkpt><trkpt lat="45.12472493957853" lon="6.999208611946453"><ele>742.0</ele><time>2026-05-02T14:12:56Z</time></trkpt><trkpt lat="45.124726200487466" lon="6.999434964524591"><ele>743.0</ele><time>2026-05-02T14:12:57Z</time></trkpt><trkpt lat="45.12472922523113" lon="6.999673212660164"><ele>744.0</ele><time>2026-05-02T14:12:58Z</time></trkpt><trkpt lat="45.12470920300822" lon="6.999905215145313"><ele>745.0</ele><time>2026-05-02T14:12:59Z</time></trkpt><trkpt lat="45.1246848620218" lon="7.000129420949642"><ele>745.0</ele><time>2026-05-02T14:13:00Z</time></trkpt><trkpt lat="45.124661497048095" lon="7.000356000155471"><ele>745.0</ele><time>2026-05-02T14:13:01Z</time></trkpt><trkpt lat="45.12463922139795" lon="7.0005873773154645"><ele>745.0</ele><time>2026-05-02T14:13:02Z</time></trkpt><trkpt lat="45.124617579905426" lon="7.000813682376515"><ele>745.0</ele><time>2026-05-02T14:13:03Z</time></trkpt><trkpt lat="45.12459923389503" lon="7.001031713827613"><ele>745.0</ele><time>2026-05-02T14:13:04Z</time></trkpt><trkpt lat="45.12458065422241" lon="7.001237520225794"><ele>745.0</ele><time>2026-05-02T14:13:05Z</time></trkpt><trkpt lat="45.12456734937538" lon="7.0014547401977545"><ele>745.0</ele><time>2026-05-02T14:13:06Z</time></trkpt><trkpt lat="45.1245695758667" lon="7.001654176449571"><ele>745.0</ele><time>2026-05-02T14:13:07Z</time></trkpt><trkpt lat="45.12458107905795" lon="7.001846201226735"><ele>745.0</ele><time>2026-05-02T14:13:08Z</time></trkpt><trkpt lat="45.12460929654336" lon="7.002036388120063"><ele>745.0</ele><time>2026-05-02T14:13:09Z</time></trkpt><trkpt lat="45.12465735279353" lon="7.0022218810057595"><ele>745.5</ele><time>2026-05-02T14:13:10Z</time></trkpt><trkpt lat="45.12472893171524" lon="7.002407802155143"><ele>746.0</ele><time>2026-05-02T14:13:11Z</time></trkpt><trkpt lat="45.12480669138405" lon="7.0025814206996735"><ele>746.5</ele><time>2026-05-02T14:13:12Z</time></trkpt><trkpt lat="45.1248952557354" lon="7.002745265011971"><ele>747.0</ele><time>2026-05-02T14:13:13Z</time></trkpt><trkpt lat="45.12498445091453" lon="7.002908789655536"><ele>746.0</ele><time>2026-05-02T14:13:14Z</time></trkpt><trkpt lat="45.12507755749196" lon="7.003076574059684"><ele>745.0</ele><time>2026-05-02T14:13:15Z</time></trkpt><trkpt lat="45.12517682479392" lon="7.003252339014512"><ele>744.0</ele><time>2026-05-02T14:13:16Z</time></trkpt><trkpt lat="45.12527168059794" lon="7.003462551353536"><ele>744.0</ele><time>2026-05-02T14:13:17Z</time></trkpt><trkpt lat="45.12538709663512" lon="7.003714247906567"><ele>744.0</ele><time>2026-05-02T14:13:18Z</time></trkpt><trkpt lat="45.12550408413779" lon="7.004003867959616"><ele>744.0</ele><time>2026-05-02T14:13:18.999Z</time></trkpt><trkpt lat="45.125634445476564" lon="7.004331382662491"><ele>743.5</ele><time>2026-05-02T14:13:19.999Z</time></trkpt><trkpt lat="45.12577512074992" lon="7.004696103783161"><ele>743.0</ele><time>2026-05-02T14:13:20.999Z</time></trkpt><trkpt lat="45.125919498577744" lon="7.005085353173207"><ele>743.0</ele><time>2026-05-02T14:13:21.999Z</time></trkpt><trkpt lat="45.126038413754436" lon="7.005441814340917"><ele>743.0</ele><time>2026-05-02T14:13:22.999Z</time></trkpt><trkpt lat="45.12613737335941" lon="7.00578146020522"><ele>744.5</ele><time>2026-05-02T14:13:23.999Z</time></trkpt><trkpt lat="45.12621920015396" lon="7.006106748426485"><ele>746.0</ele><time>2026-05-02T14:13:24.999Z</time></trkpt><trkpt lat="45.12628883060383" lon="7.006421014269334"><ele>745.6666666666666</ele><time>2026-05-02T14:13:25.999Z</time></trkpt><trkpt lat="45.12634648529344" lon="7.0067323651414055"><ele>745.3333333333334</ele><time>2026-05-02T14:13:26.999Z</time></trkpt><trkpt lat="45.126410090830845" lon="7.00702613031353"><ele>745.0</ele><time>2026-05-02T14:13:27.999Z</time></trkpt><trkpt lat="45.126450897502814" lon="7.007322748177099"><ele>744.6666666666667</ele><time>2026-05-02T14:13:28.999Z</time></trkpt><trkpt lat="45.12649318962704" lon="7.007612404842226"><ele>744.3333333333334</ele><time>2026-05-02T14:13:29.999Z</time></trkpt><trkpt lat="45.12652941189122" lon="7.007894815283664"><ele>744.0</ele><time>2026-05-02T14:13:31Z</time></trkpt><trkpt lat="45.12657275988075" lon="7.00818095062463"><ele>741.3333333333334</ele><time>2026-05-02T14:13:32Z</time></trkpt><trkpt lat="45.12661339968877" lon="7.008466591414907"><ele>738.6666666666667</ele><time>2026-05-02T14:13:33Z</time></trkpt><trkpt lat="45.12665811545723" lon="7.008748544351171"><ele>736.0</ele><time>2026-05-02T14:13:34Z</time></trkpt><trkpt lat="45.12670328937107" lon="7.0090324445763805"><ele>738.3333333333334</ele><time>2026-05-02T14:13:35Z</time></trkpt><trkpt lat="45.126741545003505" lon="7.009315066034556"><ele>740.6666666666666</ele><time>2026-05-02T14:13:36Z</time></trkpt><trkpt lat="45.1267851640529" lon="7.009597723536643"><ele>743.0</ele><time>2026-05-02T14:13:37Z</time></trkpt><trkpt lat="45.12683096088365" lon="7.009881457026263"><ele>744.0</ele><time>2026-05-02T14:13:38Z</time></trkpt><trkpt lat="45.12686880939853" lon="7.010166221633979"><ele>745.0</ele><time>2026-05-02T14:13:39Z</time></trkpt><trkpt lat="45.126912296142734" lon="7.010448386145815"><ele>746.0</ele><time>2026-05-02T14:13:40Z</time></trkpt><trkpt lat="45.12695864745642" lon="7.010736803144904"><ele>746.3333333333333</ele><time>2026-05-02T14:13:41Z</time></trkpt><trkpt lat="45.126999443342626" lon="7.01102017319099"><ele>746.6666666666666</ele><time>2026-05-02T14:13:42Z</time></trkpt><trkpt lat="45.12703853730028" lon="7.011296580422142"><ele>747.0</ele><time>2026-05-02T14:13:43Z</time></trkpt><trkpt lat="45.12708575945914" lon="7.0115804638470784"><ele>748.0</ele><time>2026-05-02T14:13:44Z</time></trkpt><trkpt lat="45.12712324242549" lon="7.011896422374084"><ele>749.0</ele><time>2026-05-02T14:13:45Z</time></trkpt><trkpt lat="45.12715381479864" lon="7.012220881782032"><ele>751.0</ele><time>2026-05-02T14:13:46Z</time></trkpt><trkpt lat="45.127183063307164" lon="7.012524421627791"><ele>753.0</ele><time>2026-05-02T14:13:47Z</time></trkpt><trkpt lat="45.12636980643974" lon="7.0227844930934635"><ele>753.3333333333334</ele><time>2026-05-02T14:14:48Z</time></trkpt><trkpt lat="45.12653525681609" lon="7.022924856645531"><ele>753.6666666666667</ele><time>2026-05-02T14:14:49Z</time></trkpt><trkpt lat="45.12670436382054" lon="7.023059307127404"><ele>754.0</ele><time>2026-05-02T14:14:50Z</time></trkpt><trkpt lat="45.12686068884852" lon="7.023190921208976"><ele>746.6666666666667</ele><time>2026-05-02T14:14:51Z</time></trkpt><trkpt lat="45.12701195811099" lon="7.023316811869673"><ele>739.3333333333334</ele><time>2026-05-02T14:14:52Z</time></trkpt><trkpt lat="45.127156601603154" lon="7.023448182544195"><ele>732.0</ele><time>2026-05-02T14:14:53Z</time></trkpt><trkpt lat="45.127300672902834" lon="7.023578932119724"><ele>728.3333333333334</ele><time>2026-05-02T14:14:54Z</time></trkpt><trkpt lat="45.127442473245985" lon="7.023707151744528"><ele>724.6666666666667</ele><time>2026-05-02T14:14:55Z</time></trkpt><trkpt lat="45.12758162194549" lon="7.023827024229316"><ele>721.0</ele><time>2026-05-02T14:14:56Z</time></trkpt><trkpt lat="45.127726014394064" lon="7.023951531821638"><ele>721.0</ele><time>2026-05-02T14:14:57Z</time></trkpt><trkpt lat="45.127872470165386" lon="7.02407597075612"><ele>721.0</ele><time>2026-05-02T14:14:58Z</time></trkpt><trkpt lat="45.12802733005719" lon="7.024199359035931"><ele>721.0</ele><time>2026-05-02T14:14:59Z</time></trkpt><trkpt lat="45.12817997486915" lon="7.02432549226168"><ele>717.3333333333334</ele><time>2026-05-02T14:15:00Z</time></trkpt><trkpt lat="45.128333236342165" lon="7.024463671462874"><ele>713.6666666666666</ele><time>2026-05-02T14:15:01Z</time></trkpt><trkpt lat="45.12848847102941" lon="7.024599828988586"><ele>710.0</ele><time>2026-05-02T14:15:02Z</time></trkpt><trkpt lat="45.128635515741756" lon="7.024729421384265"><ele>710.0</ele><time>2026-05-02T14:15:03Z</time></trkpt><trkpt lat="45.12878063348287" lon="7.024858548614757"><ele>710.0</ele><time>2026-05-02T14:15:04Z</time></trkpt><trkpt lat="45.12892278412012" lon="7.024982926300241"><ele>710.0</ele><time>2026-05-02T14:15:05Z</time></trkpt><trkpt lat="45.12905782125247" lon="7.025118832631484"><ele>706.0</ele><time>2026-05-02T14:15:06Z</time></trkpt><trkpt lat="45.129180367764086" lon="7.025280740338561"><ele>702.0</ele><time>2026-05-02T14:15:07Z</time></trkpt><trkpt lat="45.12928519725764" lon="7.025453397526401"><ele>698.0</ele><time>2026-05-02T14:15:08Z</time></trkpt><trkpt lat="45.12936841805182" lon="7.025635183657173"><ele>697.75</ele><time>2026-05-02T14:15:09Z</time></trkpt><trkpt lat="45.12944386553898" lon="7.025818405126031"><ele>697.5</ele><time>2026-05-02T14:15:10Z</time></trkpt><trkpt lat="45.12950487438237" lon="7.026006163044329"><ele>697.25</ele><time>2026-05-02T14:15:11Z</time></trkpt><trkpt lat="45.12955579570535" lon="7.026206759325494"><ele>697.0</ele><time>2026-05-02T14:15:12Z</time></trkpt><trkpt lat="45.129590773628784" lon="7.02641620924232"><ele>697.0</ele><time>2026-05-02T14:15:13Z</time></trkpt><trkpt lat="45.12961490156569" lon="7.026633195888285"><ele>697.0</ele><time>2026-05-02T14:15:14Z</time></trkpt><trkpt lat="45.12962965991696" lon="7.026868448289955"><ele>697.0</ele><time>2026-05-02T14:15:15Z</time></trkpt><trkpt lat="45.12964174317217" lon="7.027108210248586"><ele>696.3333333333334</ele><time>2026-05-02T14:15:16Z</time></trkpt><trkpt lat="45.12963883751903" lon="7.027342203450178"><ele>695.6666666666666</ele><time>2026-05-02T14:15:17Z</time></trkpt><trkpt lat="45.12962807223775" lon="7.027579076226462"><ele>695.0</ele><time>2026-05-02T14:15:18Z</time></trkpt><trkpt lat="45.129617264246924" lon="7.027820148468295"><ele>695.0</ele><time>2026-05-02T14:15:19Z</time></trkpt><trkpt lat="45.12960777445009" lon="7.028062389109749"><ele>695.0</ele><time>2026-05-02T14:15:20Z</time></trkpt><trkpt lat="45.12960384448149" lon="7.028293075000212"><ele>695.0</ele><time>2026-05-02T14:15:21Z</time></trkpt><trkpt lat="45.12960127967243" lon="7.02851680294308"><ele>694.0</ele><time>2026-05-02T14:15:22Z</time></trkpt><trkpt lat="45.12956537832406" lon="7.028724184670252"><ele>693.0</ele><time>2026-05-02T14:15:23Z</time></trkpt><trkpt lat="45.12951009147937" lon="7.028915201220237"><ele>692.0</ele><time>2026-05-02T14:15:24Z</time></trkpt><trkpt lat="45.12942898184336" lon="7.029129005289506"><ele>691.0</ele><time>2026-05-02T14:15:25Z</time></trkpt><trkpt lat="45.12932169545682" lon="7.029328623640746"><ele>690.0</ele><time>2026-05-02T14:15:26Z</time></trkpt><trkpt lat="45.12923662467775" lon="7.029514926280701"><ele>689.0</ele><time>2026-05-02T14:15:27Z</time></trkpt><trkpt lat="45.12915948115813" lon="7.029702648672606"><ele>689.0</ele><time>2026-05-02T14:15:28Z</time></trkpt><trkpt lat="45.129105402305136" lon="7.0298913128511025"><ele>689.0</ele><time>2026-05-02T14:15:29Z</time></trkpt><trkpt lat="45.12908291841229" lon="7.030086531874301"><ele>689.0</ele><time>2026-05-02T14:15:30Z</time></trkpt><trkpt lat="45.12908580316422" lon="7.030264534732919"><ele>689.0</ele><time>2026-05-02T14:15:31Z</time></trkpt><trkpt lat="45.129105546270374" lon="7.030428509651954"><ele>687.25</ele><time>2026-05-02T14:15:32Z</time></trkpt><trkpt lat="45.129145011468054" lon="7.030595989556972"><ele>685.5</ele><time>2026-05-02T14:15:32.999Z</time></trkpt><trkpt lat="45.129201877891276" lon="7.030761801893804"><ele>683.75</ele><time>2026-05-02T14:15:33.999Z</time></trkpt><trkpt lat="45.12926615470231" lon="7.030925465520637"><ele>682.0</ele><time>2026-05-02T14:15:34.999Z</time></trkpt><trkpt lat="45.129344058663314" lon="7.031082317736994"><ele>681.4000000000001</ele><time>2026-05-02T14:15:35.999Z</time></trkpt><trkpt lat="45.129432563217236" lon="7.031223122907289"><ele>680.8000000000001</ele><time>2026-05-02T14:15:37Z</time></trkpt><trkpt lat="45.129506874050094" lon="7.031344639969805"><ele>680.2</ele><time>2026-05-02T14:15:38Z</time></trkpt><trkpt lat="45.12957436913157" lon="7.031451413460937"><ele>679.6</ele><time>2026-05-02T14:15:39Z</time></trkpt><trkpt lat="45.12961297875017" lon="7.031549416797833"><ele>679.0</ele><time>2026-05-02T14:15:40Z</time></trkpt><trkpt lat="45.12964664173022" lon="7.031635135023877"><ele>679.75</ele><time>2026-05-02T14:15:41Z</time></trkpt><trkpt lat="45.12963729714289" lon="7.031787814470502"><ele>680.5</ele><time>2026-05-02T14:15:42Z</time></trkpt><trkpt lat="45.129650267354" lon="7.031947761148129"><ele>681.25</ele><time>2026-05-02T14:15:43Z</time></trkpt><trkpt lat="45.12967997238034" lon="7.032123516718853"><ele>682.0</ele><time>2026-05-02T14:15:44Z</time></trkpt><trkpt lat="45.12971757721383" lon="7.032313497069409"><ele>684.3333333333334</ele><time>2026-05-02T14:15:45Z</time></trkpt><trkpt lat="45.12975507670261" lon="7.032516370961468"><ele>686.6666666666666</ele><time>2026-05-02T14:15:46Z</time></trkpt><trkpt lat="45.12979604116057" lon="7.032708570548963"><ele>689.0</ele><time>2026-05-02T14:15:47Z</time></trkpt><trkpt lat="45.12982937869142" lon="7.0430607634467055"><ele>669.4285714285714</ele><time>2026-05-02T14:16:48Z</time></trkpt><trkpt lat="45.12989901006504" lon="7.04309241909577"><ele>649.8571428571429</ele><time>2026-05-02T14:16:49Z</time></trkpt><trkpt lat="45.12996524476675" lon="7.043125995619849"><ele>630.2857142857143</ele><time>2026-05-02T14:16:50Z</time></trkpt><trkpt lat="45.13002856586745" lon="7.043173579942067"><ele>610.7142857142858</ele><time>2026-05-02T14:16:51Z</time></trkpt><trkpt lat="45.130094673908836" lon="7.043238186563414"><ele>591.1428571428572</ele><time>2026-05-02T14:16:52Z</time></trkpt><trkpt lat="45.13014948351843" lon="7.043310021165622"><ele>571.5714285714286</ele><time>2026-05-02T14:16:53Z</time></trkpt><trkpt lat="45.13019955584625" lon="7.043395406743011"><ele>552.0</ele><time>2026-05-02T14:16:54Z</time></trkpt><trkpt lat="45.13025324614719" lon="7.0434889468052155"><ele>551.3333333333334</ele><time>2026-05-02T14:16:55Z</time></trkpt><trkpt lat="45.13030477357277" lon="7.043570804436595"><ele>550.6666666666666</ele><time>2026-05-02T14:16:56Z</time></trkpt><trkpt lat="45.13037348880516" lon="7.043615678913867"><ele>550.0</ele><time>2026-05-02T14:16:57Z</time></trkpt><trkpt lat="45.130449440013216" lon="7.043624724799719"><ele>549.3333333333333</ele><time>2026-05-02T14:16:58Z</time></trkpt><trkpt lat="45.13053381949023" lon="7.043612725042673"><ele>548.6666666666666</ele><time>2026-05-02T14:16:59Z</time></trkpt><trkpt lat="45.13061366774129" lon="7.043614469227782"><ele>548.0</ele><time>2026-05-02T14:17:00Z</time></trkpt><trkpt lat="45.130688761501254" lon="7.0436128055800795"><ele>547.1999999999999</ele><time>2026-05-02T14:17:01Z</time></trkpt><trkpt lat="45.130784015189995" lon="7.043611788880981"><ele>546.4</ele><time>2026-05-02T14:17:03Z</time></trkpt><trkpt lat="45.13090948826334" lon="7.043603360749402"><ele>545.5999999999999</ele><time>2026-05-02T14:17:05Z</time></trkpt><trkpt lat="45.13098775001475" lon="7.043621613968583"><ele>544.8</ele><time>2026-05-02T14:17:06Z</time></trkpt><trkpt lat="45.131066812431" lon="7.04363950600014"><ele>544.0</ele><time>2026-05-02T14:17:07Z</time></trkpt><trkpt lat="45.13114954010723" lon="7.043698150955577"><ele>544.0</ele><time>2026-05-02T14:17:09Z</time></trkpt><trkpt lat="45.13118541228709" lon="7.043831485822663"><ele>544.0</ele><time>2026-05-02T14:17:11Z</time></trkpt><trkpt lat="45.131195576059184" lon="7.043935488850418"><ele>544.0</ele><time>2026-05-02T14:17:12Z</time></trkpt><trkpt lat="45.13121459311607" lon="7.044057571694123"><ele>544.0</ele><time>2026-05-02T14:17:13Z</time></trkpt><trkpt lat="45.13125787701592" lon="7.0441970992680885"><ele>544.0</ele><time>2026-05-02T14:17:14Z</time></trkpt><trkpt lat="45.13131337470332" lon="7.044345615685752"><ele>542.75</ele><time>2026-05-02T14:17:15Z</time></trkpt><trkpt lat="45.13138567095583" lon="7.044500619570575"><ele>541.5</ele><time>2026-05-02T14:17:16Z</time></trkpt><trkpt lat="45.131466766969695" lon="7.044668390159694"><ele>540.25</ele><time>2026-05-02T14:17:17Z</time></trkpt><trkpt lat="45.13154994284667" lon="7.044833257820766"><ele>539.0</ele><time>2026-05-02T14:17:18Z</time></trkpt><trkpt lat="45.131636697182664" lon="7.044995074080053"><ele>536.5</ele><time>2026-05-02T14:17:19Z</time></trkpt><trkpt lat="45.13172732161043" lon="7.045154896488357"><ele>534.0</ele><time>2026-05-02T14:17:20Z</time></trkpt><trkpt lat="45.131821153421846" lon="7.04530511397159"><ele>531.5</ele><time>2026-05-02T14:17:21Z</time></trkpt><trkpt lat="45.13191341415914" lon="7.045443247341562"><ele>529.0</ele><time>2026-05-02T14:17:22Z</time></trkpt><trkpt lat="45.13200768720866" lon="7.045571578870443"><ele>529.0</ele><time>2026-05-02T14:17:23Z</time></trkpt><trkpt lat="45.132101860468794" lon="7.045682066793284"><ele>529.0</ele><time>2026-05-02T14:17:24Z</time></trkpt><trkpt lat="45.132195064672445" lon="7.04578435705756"><ele>529.0</ele><time>2026-05-02T14:17:25Z</time></trkpt><trkpt lat="45.13228994263288" lon="7.045885052791647"><ele>529.0</ele><time>2026-05-02T14:17:26Z</time></trkpt><trkpt lat="45.13238079151682" lon="7.045987836139218"><ele>527.8</ele><time>2026-05-02T14:17:27Z</time></trkpt><trkpt lat="45.13246794863211" lon="7.046089163653176"><ele>526.5999999999999</ele><time>2026-05-02T14:17:28Z</time></trkpt><trkpt lat="45.13254952040294" lon="7.046191191180435"><ele>525.4</ele><time>2026-05-02T14:17:29Z</time></trkpt><trkpt lat="45.132634108642115" lon="7.046288443207577"><ele>524.1999999999999</ele><time>2026-05-02T14:17:30Z</time></trkpt><trkpt lat="45.132709094536416" lon="7.046391247846415"><ele>523.0</ele><time>2026-05-02T14:17:31Z</time></trkpt><trkpt lat="45.13278021227571" lon="7.046482063299623"><ele>523.0</ele><time>2026-05-02T14:17:32Z</time></trkpt><trkpt lat="45.132849690292346" lon="7.046568012483956"><ele>523.0</ele><time>2026-05-02T14:17:32.999Z</time></trkpt><trkpt lat="45.13291583827397" lon="7.046653863044985"><ele>523.0</ele><time>2026-05-02T14:17:33.999Z</time></trkpt><trkpt lat="45.13297229278325" lon="7.046733517207049"><ele>523.0</ele><time>2026-05-02T14:17:34.999Z</time></trkpt><trkpt lat="45.133018723234194" lon="7.0468037892119675"><ele>523.0</ele><time>2026-05-02T14:17:35.999Z</time></trkpt><trkpt lat="45.1330819337167" lon="7.046912948122527"><ele>523.0</ele><time>2026-05-02T14:17:37.999Z</time></trkpt><trkpt lat="45.13311659032988" lon="7.046988243779209"><ele>489.0</ele><time>2026-05-02T14:17:41.999Z</time></trkpt><trkpt lat="45.1358361693361" lon="7.056066393737406"><ele>489.0</ele><time>2026-05-02T14:18:48Z</time></trkpt><trkpt lat="45.13576611696876" lon="7.056280002541859"><ele>489.0</ele><time>2026-05-02T14:18:49Z</time></trkpt><trkpt lat="45.13569543964619" lon="7.056491608445139"><ele>489.0</ele><time>2026-05-02T14:18:50Z</time></trkpt><trkpt lat="45.135627822592355" lon="7.056713168487186"><ele>489.0</ele><time>2026-05-02T14:18:51Z</time></trkpt><trkpt lat="45.1355439074628" lon="7.056947339571621"><ele>489.0</ele><time>2026-05-02T14:18:52Z</time></trkpt><trkpt lat="45.135446134076005" lon="7.057194934737849"><ele>489.0</ele><time>2026-05-02T14:18:53Z</time></trkpt><trkpt lat="45.13533387604391" lon="7.057453629931054"><ele>489.0</ele><time>2026-05-02T14:18:54Z</time></trkpt><trkpt lat="45.13523985989758" lon="7.057688446024955"><ele>489.0</ele><time>2026-05-02T14:18:55Z</time></trkpt><trkpt lat="45.13513590158744" lon="7.057899346250868"><ele>489.0</ele><time>2026-05-02T14:18:56Z</time></trkpt><trkpt lat="45.13505036014342" lon="7.058108546074028"><ele>489.0</ele><time>2026-05-02T14:18:57Z</time></trkpt><trkpt lat="45.13498450847261" lon="7.058324448951158"><ele>489.0</ele><time>2026-05-02T14:18:58Z</time></trkpt><trkpt lat="45.13490930941149" lon="7.058532829511143"><ele>489.0</ele><time>2026-05-02T14:18:59Z</time></trkpt><trkpt lat="45.134839224656645" lon="7.05873045791174"><ele>488.75</ele><time>2026-05-02T14:19:00Z</time></trkpt><trkpt lat="45.13477332863277" lon="7.058913575541436"><ele>488.5</ele><time>2026-05-02T14:19:01Z</time></trkpt><trkpt lat="45.134718130772534" lon="7.059082800057679"><ele>488.25</ele><time>2026-05-02T14:19:02Z</time></trkpt><trkpt lat="45.13467196048786" lon="7.059244591570692"><ele>488.0</ele><time>2026-05-02T14:19:03Z</time></trkpt><trkpt lat="45.1346259042458" lon="7.059402438242873"><ele>488.0</ele><time>2026-05-02T14:19:04Z</time></trkpt><trkpt lat="45.13457245001395" lon="7.059547569588619"><ele>488.0</ele><time>2026-05-02T14:19:05Z</time></trkpt><trkpt lat="45.134519929061696" lon="7.059688872432994"><ele>488.0</ele><time>2026-05-02T14:19:06Z</time></trkpt><trkpt lat="45.13446629144638" lon="7.059832586642688"><ele>488.0</ele><time>2026-05-02T14:19:07Z</time></trkpt><trkpt lat="45.134411694304916" lon="7.059973475887759"><ele>487.75</ele><time>2026-05-02T14:19:08Z</time></trkpt><trkpt lat="45.13435269944588" lon="7.060116518835284"><ele>487.5</ele><time>2026-05-02T14:19:09Z</time></trkpt><trkpt lat="45.13429535103533" lon="7.060259607560432"><ele>487.25</ele><time>2026-05-02T14:19:10Z</time></trkpt><trkpt lat="45.13424260924326" lon="7.06039891125189"><ele>487.0</ele><time>2026-05-02T14:19:11Z</time></trkpt><trkpt lat="45.13419069179496" lon="7.060535625462783"><ele>487.0</ele><time>2026-05-02T14:19:12Z</time></trkpt><trkpt lat="45.134126488244135" lon="7.060665539951519"><ele>487.0</ele><time>2026-05-02T14:19:13Z</time></trkpt><trkpt lat="45.13405299458724" lon="7.0608003957119205"><ele>487.0</ele><time>2026-05-02T14:19:14Z</time></trkpt><trkpt lat="45.13397848180382" lon="7.060947542661166"><ele>487.0</ele><time>2026-05-02T14:19:15Z</time></trkpt><trkpt lat="45.13389846094901" lon="7.061095568310581"><ele>486.25</ele><time>2026-05-02T14:19:16Z</time></trkpt><trkpt lat="45.13381457334295" lon="7.061252151674241"><ele>485.5</ele><time>2026-05-02T14:19:17Z</time></trkpt><trkpt lat="45.13372585033755" lon="7.061422989064113"><ele>484.75</ele><time>2026-05-02T14:19:18Z</time></trkpt><trkpt lat="45.13363188560568" lon="7.061607537594687"><ele>484.0</ele><time>2026-05-02T14:19:19Z</time></trkpt><trkpt lat="45.13353340432972" lon="7.061802410774494"><ele>484.0</ele><time>2026-05-02T14:19:20Z</time></trkpt><trkpt lat="45.13343138199495" lon="7.0620104155611685"><ele>484.0</ele><time>2026-05-02T14:19:21Z</time></trkpt><trkpt lat="45.13332203183317" lon="7.0622237227975"><ele>484.0</ele><time>2026-05-02T14:19:22Z</time></trkpt><trkpt lat="45.13321216968044" lon="7.062439923692951"><ele>484.33333333333337</ele><time>2026-05-02T14:19:23Z</time></trkpt><trkpt lat="45.13309518763038" lon="7.0626683106034225"><ele>484.66666666666663</ele><time>2026-05-02T14:19:24Z</time></trkpt><trkpt lat="45.13297254160119" lon="7.062918454376017"><ele>485.0</ele><time>2026-05-02T14:19:25Z</time></trkpt><trkpt lat="45.13284459437193" lon="7.06317668894019"><ele>485.5</ele><time>2026-05-02T14:19:26Z</time></trkpt><trkpt lat="45.132695878725116" lon="7.063416526530184"><ele>486.0</ele><time>2026-05-02T14:19:27Z</time></trkpt><trkpt lat="45.132558300826275" lon="7.063674631319899"><ele>486.0</ele><time>2026-05-02T14:19:28Z</time></trkpt><trkpt lat="45.13242242264787" lon="7.06393329218864"><ele>486.0</ele><time>2026-05-02T14:19:29Z</time></trkpt><trkpt lat="45.1323095231719" lon="7.064189419663854"><ele>486.0</ele><time>2026-05-02T14:19:30Z</time></trkpt><trkpt lat="45.132192908595" lon="7.064415121343204"><ele>488.0</ele><time>2026-05-02T14:19:31Z</time></trkpt><trkpt lat="45.1320769204963" lon="7.064641315932865"><ele>490.0</ele><time>2026-05-02T14:19:32Z</time></trkpt><trkpt lat="45.13196265178895" lon="7.064852286672511"><ele>492.0</ele><time>2026-05-02T14:19:32.999Z</time></trkpt><trkpt lat="45.13185970285187" lon="7.065036042757353"><ele>492.0</ele><time>2026-05-02T14:19:33.999Z</time></trkpt><trkpt lat="45.131773187651845" lon="7.065211281652862"><ele>492.0</ele><time>2026-05-02T14:19:34.999Z</time></trkpt><trkpt lat="45.13167662222545" lon="7.065350993707862"><ele>492.0</ele><time>2026-05-02T14:19:35.999Z</time></trkpt><trkpt lat="45.131574243109704" lon="7.065459509779745"><ele>492.0</ele><time>2026-05-02T14:19:36.999Z</time></trkpt><trkpt lat="45.13145219544062" lon="7.065536371228748"><ele>496.33333333333337</ele><time>2026-05-02T14:19:37.999Z</time></trkpt><trkpt lat="45.13129968276069" lon="7.065522403877822"><ele>500.6666666666667</ele><time>2026-05-02T14:19:38.999Z</time></trkpt><trkpt lat="45.13113593115622" lon="7.0654798007310635"><ele>505.0</ele><time>2026-05-02T14:19:39.999Z</time></trkpt><trkpt lat="45.130955464556806" lon="7.065432428774045"><ele>505.0</ele><time>2026-05-02T14:19:40.999Z</time></trkpt><trkpt lat="45.130763596641145" lon="7.065384476849645"><ele>505.0</ele><time>2026-05-02T14:19:41.999Z</time></trkpt><trkpt lat="45.130582966844216" lon="7.065357778545888"><ele>505.0</ele><time>2026-05-02T14:19:42.999Z</time></trkpt><trkpt lat="45.13044239697571" lon="7.065295689260401"><ele>506.25</ele><time>2026-05-02T14:19:43.999Z</time></trkpt><trkpt lat="45.13032578970282" lon="7.065200224154964"><ele>507.5</ele><time>2026-05-02T14:19:44.999Z</time></trkpt><trkpt lat="45.13023138755331" lon="7.065035069952037"><ele>508.75</ele><time>2026-05-02T14:19:45.999Z</time></trkpt><trkpt lat="45.130141897937186" lon="7.0648773628865795"><ele>510.0</ele><time>2026-05-02T14:19:46.999Z</time></trkpt><trkpt lat="45.123941693109465" lon="7.063369263497987"><ele>542.25</ele><time>2026-05-02T14:20:48Z</time></trkpt><trkpt lat="45.12394909885621" lon="7.063552229518869"><ele>574.5</ele><time>2026-05-02T14:20:49Z</time></trkpt><trkpt lat="45.1239580148508" lon="7.063702788222686"><ele>606.75</ele><time>2026-05-02T14:20:50Z</time></trkpt><trkpt lat="45.12396732683984" lon="7.063867941161548"><ele>639.0</ele><time>2026-05-02T14:20:51Z</time></trkpt><trkpt lat="45.123972704540435" lon="7.06403246452762"><ele>640.2</ele><time>2026-05-02T14:20:52Z</time></trkpt><trkpt lat="45.123976721257186" lon="7.064190380602404"><ele>641.4</ele><time>2026-05-02T14:20:53Z</time></trkpt><trkpt lat="45.12395794469151" lon="7.064346405266243"><ele>642.6</ele><time>2026-05-02T14:20:54Z</time></trkpt><trkpt lat="45.12391660813043" lon="7.064492290598495"><ele>643.8</ele><time>2026-05-02T14:20:55Z</time></trkpt><trkpt lat="45.123860626805694" lon="7.0646256426673"><ele>645.0</ele><time>2026-05-02T14:20:56Z</time></trkpt><trkpt lat="45.12381543480033" lon="7.06474588829216"><ele>645.0</ele><time>2026-05-02T14:20:57Z</time></trkpt><trkpt lat="45.12379900532757" lon="7.064863528707731"><ele>645.0</ele><time>2026-05-02T14:20:58Z</time></trkpt><trkpt lat="45.12380913137255" lon="7.064983628870603"><ele>645.0</ele><time>2026-05-02T14:20:59Z</time></trkpt><trkpt lat="45.12386485490658" lon="7.06509135644777"><ele>645.0</ele><time>2026-05-02T14:21:00Z</time></trkpt><trkpt lat="45.12393830512863" lon="7.065188341845842"><ele>645.0</ele><time>2026-05-02T14:21:01Z</time></trkpt><trkpt lat="45.12402936774189" lon="7.0652734239476676"><ele>644.0</ele><time>2026-05-02T14:21:02Z</time></trkpt><trkpt lat="45.12411883878472" lon="7.065356345648009"><ele>643.0</ele><time>2026-05-02T14:21:03Z</time></trkpt><trkpt lat="45.12420355171343" lon="7.065445240919699"><ele>642.0</ele><time>2026-05-02T14:21:04Z</time></trkpt><trkpt lat="45.12426165498524" lon="7.0655602044442025"><ele>641.0</ele><time>2026-05-02T14:21:05Z</time></trkpt><trkpt lat="45.12426001418052" lon="7.065710817476791"><ele>640.0</ele><time>2026-05-02T14:21:06Z</time></trkpt><trkpt lat="45.1242687642602" lon="7.065869329084446"><ele>640.0</ele><time>2026-05-02T14:21:07Z</time></trkpt><trkpt lat="45.12426785701444" lon="7.066029932899707"><ele>640.0</ele><time>2026-05-02T14:21:08Z</time></trkpt><trkpt lat="45.12425625102591" lon="7.066193742755097"><ele>640.0</ele><time>2026-05-02T14:21:09Z</time></trkpt><trkpt lat="45.124232207505095" lon="7.066364408846316"><ele>640.0</ele><time>2026-05-02T14:21:10Z</time></trkpt><trkpt lat="45.12416766688727" lon="7.066503477346792"><ele>640.0</ele><time>2026-05-02T14:21:11Z</time></trkpt><trkpt lat="45.12405631942405" lon="7.0666077358883355"><ele>640.0</ele><time>2026-05-02T14:21:12Z</time></trkpt><trkpt lat="45.12392771817034" lon="7.066752095649365"><ele>640.0</ele><time>2026-05-02T14:21:13Z</time></trkpt><trkpt lat="45.12378630496761" lon="7.066911021722101"><ele>640.6666666666667</ele><time>2026-05-02T14:21:14Z</time></trkpt><trkpt lat="45.12365830599286" lon="7.067056428797652"><ele>641.3333333333334</ele><time>2026-05-02T14:21:15Z</time></trkpt><trkpt lat="45.12354452771754" lon="7.06722954597592"><ele>642.0</ele><time>2026-05-02T14:21:16Z</time></trkpt><trkpt lat="45.12339971687099" lon="7.0673766074053805"><ele>645.0</ele><time>2026-05-02T14:21:17Z</time></trkpt><trkpt lat="45.12325329384259" lon="7.067542610692364"><ele>648.0</ele><time>2026-05-02T14:21:18Z</time></trkpt><trkpt lat="45.123102486490076" lon="7.067705926989166"><ele>651.0</ele><time>2026-05-02T14:21:19Z</time></trkpt><trkpt lat="45.12296750791991" lon="7.067846938389014"><ele>651.5</ele><time>2026-05-02T14:21:20Z</time></trkpt><trkpt lat="45.122849971926314" lon="7.067977765314004"><ele>652.0</ele><time>2026-05-02T14:21:21Z</time></trkpt><trkpt lat="45.122736374574444" lon="7.06806837619838"><ele>652.5</ele><time>2026-05-02T14:21:22Z</time></trkpt><trkpt lat="45.12263830544331" lon="7.0681363781828885"><ele>653.0</ele><time>2026-05-02T14:21:23Z</time></trkpt><trkpt lat="45.12255651363184" lon="7.068228158733685"><ele>653.5999999999999</ele><time>2026-05-02T14:21:24Z</time></trkpt><trkpt lat="45.12251797722443" lon="7.068356856215245"><ele>654.1999999999999</ele><time>2026-05-02T14:21:25Z</time></trkpt><trkpt lat="45.12248221469459" lon="7.068512449337165"><ele>654.8</ele><time>2026-05-02T14:21:26Z</time></trkpt><trkpt lat="45.12244744085643" lon="7.068675501192305"><ele>655.4</ele><time>2026-05-02T14:21:27Z</time></trkpt><trkpt lat="45.122429186319785" lon="7.068833287870716"><ele>656.0</ele><time>2026-05-02T14:21:28Z</time></trkpt><trkpt lat="45.12239270561953" lon="7.068982521738039"><ele>658.1666666666666</ele><time>2026-05-02T14:21:29Z</time></trkpt><trkpt lat="45.12236809604222" lon="7.069112959702847"><ele>660.3333333333333</ele><time>2026-05-02T14:21:30Z</time></trkpt><trkpt lat="45.12234601381598" lon="7.069219428682936"><ele>662.5</ele><time>2026-05-02T14:21:31Z</time></trkpt><trkpt lat="45.122310819115555" lon="7.069304106248763"><ele>664.6666666666666</ele><time>2026-05-02T14:21:32Z</time></trkpt><trkpt lat="45.12223542826985" lon="7.069329047088715"><ele>666.8333333333334</ele><time>2026-05-02T14:21:33Z</time></trkpt><trkpt lat="45.12216029295159" lon="7.069364424162896"><ele>669.0</ele><time>2026-05-02T14:21:34Z</time></trkpt><trkpt lat="45.12207618119874" lon="7.0693892424301055"><ele>669.0</ele><time>2026-05-02T14:21:35Z</time></trkpt><trkpt lat="45.12199070622171" lon="7.069414010967844"><ele>669.0</ele><time>2026-05-02T14:21:36Z</time></trkpt><trkpt lat="45.121894438487544" lon="7.069440289952361"><ele>669.0</ele><time>2026-05-02T14:21:37Z</time></trkpt><trkpt lat="45.121789156806535" lon="7.069469764241068"><ele>669.0</ele><time>2026-05-02T14:21:38Z</time></trkpt><trkpt lat="45.12169925997648" lon="7.069510255621212"><ele>669.0</ele><time>2026-05-02T14:21:39Z</time></trkpt><trkpt lat="45.12160778688606" lon="7.069492746741005"><ele>670.6</ele><time>2026-05-02T14:21:40Z</time></trkpt><trkpt lat="45.12152762467866" lon="7.069460012790487"><ele>672.2</ele><time>2026-05-02T14:21:41Z</time></trkpt><trkpt lat="45.121457895984015" lon="7.069390586464078"><ele>673.8000000000001</ele><time>2026-05-02T14:21:42Z</time></trkpt><trkpt lat="45.12139574819634" lon="7.0693150495306245"><ele>675.4000000000001</ele><time>2026-05-02T14:21:43Z</time></trkpt><trkpt lat="45.1213129119474" lon="7.0692292166274004"><ele>677.0</ele><time>2026-05-02T14:21:44Z</time></trkpt><trkpt lat="45.12124685739143" lon="7.069122795058586"><ele>678.6666666666666</ele><time>2026-05-02T14:21:45Z</time></trkpt><trkpt lat="45.12119258509368" lon="7.069028699748599"><ele>680.3333333333334</ele><time>2026-05-02T14:21:46Z</time></trkpt><trkpt lat="45.121169245933146" lon="7.068922905571103"><ele>682.0</ele><time>2026-05-02T14:21:47Z</time></trkpt><trkpt lat="45.11982491059055" lon="7.0651492349678175"><ele>711.0</ele><time>2026-05-02T14:22:51Z</time></trkpt><trkpt lat="45.1192998450867" lon="7.0650542190798955"><ele>711.0</ele><time>2026-05-02T14:24:48Z</time></trkpt><trkpt lat="45.11921425424203" lon="7.0650648710529635"><ele>711.0</ele><time>2026-05-02T14:24:49Z</time></trkpt><trkpt lat="45.11914358676711" lon="7.065042066688972"><ele>711.0</ele><time>2026-05-02T14:24:50Z</time></trkpt><trkpt lat="45.11907911935924" lon="7.065037716267549"><ele>711.0</ele><time>2026-05-02T14:24:51Z</time></trkpt><trkpt lat="45.11901438263013" lon="7.065030471916973"><ele>711.0</ele><time>2026-05-02T14:24:52Z</time></trkpt><trkpt lat="45.118956116497785" lon="7.064994060570837"><ele>711.0</ele><time>2026-05-02T14:24:53Z</time></trkpt><trkpt lat="45.118894793293705" lon="7.0648386407527575"><ele>714.0</ele><time>2026-05-02T14:24:55Z</time></trkpt><trkpt lat="45.11889200924168" lon="7.064734052854768"><ele>717.0</ele><time>2026-05-02T14:24:56Z</time></trkpt><trkpt lat="45.11889539852655" lon="7.064632670563466"><ele>720.0</ele><time>2026-05-02T14:24:57Z</time></trkpt><trkpt lat="45.11890679396229" lon="7.064532822375911"><ele>723.0</ele><time>2026-05-02T14:24:58Z</time></trkpt><trkpt lat="45.11891863456749" lon="7.064439950909831"><ele>726.0</ele><time>2026-05-02T14:24:59Z</time></trkpt><trkpt lat="45.11896569478063" lon="7.0642922794851435"><ele>729.0</ele><time>2026-05-02T14:25:01Z</time></trkpt><trkpt lat="45.11897995757168" lon="7.064103106067185"><ele>729.1666666666666</ele><time>2026-05-02T14:25:03Z</time></trkpt><trkpt lat="45.11896621701629" lon="7.064006660500077"><ele>729.3333333333334</ele><time>2026-05-02T14:25:04Z</time></trkpt><trkpt lat="45.118905886296" lon="7.0638760030560075"><ele>729.5</ele><time>2026-05-02T14:25:06Z</time></trkpt><trkpt lat="45.11886448241992" lon="7.06380826770685"><ele>729.6666666666667</ele><time>2026-05-02T14:25:08Z</time></trkpt><trkpt lat="45.11881761287046" lon="7.063740886728134"><ele>729.8333333333334</ele><time>2026-05-02T14:25:10Z</time></trkpt><trkpt lat="45.118751609881244" lon="7.063653865292574"><ele>730.0</ele><time>2026-05-02T14:25:12Z</time></trkpt><trkpt lat="45.11868010410727" lon="7.063588924284441"><ele>730.0</ele><time>2026-05-02T14:25:14Z</time></trkpt><trkpt lat="45.118622299832694" lon="7.063509417249587"><ele>730.0</ele><time>2026-05-02T14:25:16Z</time></trkpt><trkpt lat="45.118564864807766" lon="7.063429564131367"><ele>730.0</ele><time>2026-05-02T14:25:18Z</time></trkpt><trkpt lat="45.11848927013049" lon="7.063327458817604"><ele>730.0</ele><time>2026-05-02T14:25:20Z</time></trkpt><trkpt lat="45.11843999556113" lon="7.063267555864869"><ele>730.0</ele><time>2026-05-02T14:25:21Z</time></trkpt><trkpt lat="45.11838068493602" lon="7.063201900628998"><ele>730.0</ele><time>2026-05-02T14:25:22Z</time></trkpt><trkpt lat="45.11831665437702" lon="7.06313465716014"><ele>730.6666666666667</ele><time>2026-05-02T14:25:23Z</time></trkpt><trkpt lat="45.11827001266916" lon="7.063047067671691"><ele>731.3333333333334</ele><time>2026-05-02T14:25:24Z</time></trkpt><trkpt lat="45.11822805407238" lon="7.062974245650236"><ele>732.0</ele><time>2026-05-02T14:25:25Z</time></trkpt><trkpt lat="45.118193535317225" lon="7.06281627653389"><ele>732.6666666666666</ele><time>2026-05-02T14:25:27Z</time></trkpt><trkpt lat="45.118223848898914" lon="7.062724329505202"><ele>733.3333333333333</ele><time>2026-05-02T14:25:28Z</time></trkpt><trkpt lat="45.118256642723686" lon="7.062581167351177"><ele>734.0</ele><time>2026-05-02T14:25:30Z</time></trkpt><trkpt lat="45.118224978006495" lon="7.062490507585757"><ele>737.8333333333333</ele><time>2026-05-02T14:25:32Z</time></trkpt><trkpt lat="45.118164942292196" lon="7.062451112795777"><ele>741.6666666666666</ele><time>2026-05-02T14:25:34Z</time></trkpt><trkpt lat="45.118093277472504" lon="7.062449250871919"><ele>745.5</ele><time>2026-05-02T14:25:36Z</time></trkpt><trkpt lat="45.11801842230679" lon="7.062514781864795"><ele>749.3333333333334</ele><time>2026-05-02T14:25:38Z</time></trkpt><trkpt lat="45.11793291440006" lon="7.062597539715654"><ele>753.1666666666667</ele><time>2026-05-02T14:25:40Z</time></trkpt><trkpt lat="45.11787914180345" lon="7.062649773236373"><ele>757.0</ele><time>2026-05-02T14:25:41Z</time></trkpt><trkpt lat="45.11780590136062" lon="7.062773985400022"><ele>757.0</ele><time>2026-05-02T14:25:43Z</time></trkpt><trkpt lat="45.117743366224545" lon="7.062929265603095"><ele>757.0</ele><time>2026-05-02T14:25:45Z</time></trkpt><trkpt lat="45.11771599343771" lon="7.063012686537171"><ele>757.0</ele><time>2026-05-02T14:25:46Z</time></trkpt><trkpt lat="45.11768775697294" lon="7.063115762992829"><ele>757.0</ele><time>2026-05-02T14:25:47Z</time></trkpt><trkpt lat="45.11600507938526" lon="7.065552924512945"><ele>800.0</ele><time>2026-05-02T14:26:57Z</time></trkpt><trkpt lat="45.11636642216882" lon="7.067389815702456"><ele>801.4285714285714</ele><time>2026-05-02T14:28:48Z</time></trkpt><trkpt lat="45.11636003434897" lon="7.067497002972758"><ele>802.8571428571429</ele><time>2026-05-02T14:28:49Z</time></trkpt><trkpt lat="45.11633279959817" lon="7.067613566466169"><ele>804.2857142857142</ele><time>2026-05-02T14:28:50Z</time></trkpt><trkpt lat="45.11630917831911" lon="7.0677146224731215"><ele>805.7142857142858</ele><time>2026-05-02T14:28:51Z</time></trkpt><trkpt lat="45.11628075008741" lon="7.067806006554087"><ele>807.1428571428571</ele><time>2026-05-02T14:28:52Z</time></trkpt><trkpt lat="45.116255654483616" lon="7.067891087072455"><ele>808.5714285714286</ele><time>2026-05-02T14:28:53Z</time></trkpt><trkpt lat="45.11623450434307" lon="7.067982919983372"><ele>810.0</ele><time>2026-05-02T14:28:54Z</time></trkpt><trkpt lat="45.11621740107309" lon="7.068076970512435"><ele>810.0</ele><time>2026-05-02T14:28:55Z</time></trkpt><trkpt lat="45.116211697427524" lon="7.0682500236409584"><ele>810.0</ele><time>2026-05-02T14:28:57Z</time></trkpt><trkpt lat="45.11620336253845" lon="7.068342842693806"><ele>810.0</ele><time>2026-05-02T14:28:58Z</time></trkpt><trkpt lat="45.11618855637466" lon="7.068444166904984"><ele>810.0</ele><time>2026-05-02T14:28:59Z</time></trkpt><trkpt lat="45.11616054118672" lon="7.068544941131538"><ele>810.0</ele><time>2026-05-02T14:29:00Z</time></trkpt><trkpt lat="45.1161305698805" lon="7.068643844081353"><ele>810.0</ele><time>2026-05-02T14:29:01Z</time></trkpt><trkpt lat="45.11609905724725" lon="7.068736438969714"><ele>810.0</ele><time>2026-05-02T14:29:02Z</time></trkpt><trkpt lat="45.116044830729436" lon="7.068799232230697"><ele>810.0</ele><time>2026-05-02T14:29:03Z</time></trkpt><trkpt lat="45.11600233534213" lon="7.068866736416933"><ele>810.0</ele><time>2026-05-02T14:29:04Z</time></trkpt><trkpt lat="45.11595550928147" lon="7.068930745663999"><ele>810.0</ele><time>2026-05-02T14:29:05Z</time></trkpt><trkpt lat="45.11590090850537" lon="7.06899184429908"><ele>810.0</ele><time>2026-05-02T14:29:06Z</time></trkpt><trkpt lat="45.11579219525702" lon="7.069073171808803"><ele>810.0</ele><time>2026-05-02T14:29:08Z</time></trkpt><trkpt lat="45.11567244059502" lon="7.069118030457514"><ele>813.8</ele><time>2026-05-02T14:29:10Z</time></trkpt><trkpt lat="45.11560352175249" lon="7.069131878643867"><ele>817.6</ele><time>2026-05-02T14:29:11Z</time></trkpt><trkpt lat="45.11553666533842" lon="7.069171748682691"><ele>821.4000000000001</ele><time>2026-05-02T14:29:12Z</time></trkpt><trkpt lat="45.11546445004416" lon="7.06916610881123"><ele>825.2</ele><time>2026-05-02T14:29:13Z</time></trkpt><trkpt lat="45.11530765868928" lon="7.069263694760467"><ele>829.0</ele><time>2026-05-02T14:29:15Z</time></trkpt><trkpt lat="45.115266179391995" lon="7.069364426834138"><ele>828.9999999999999</ele><time>2026-05-02T14:29:16Z</time></trkpt><trkpt lat="45.115211376958925" lon="7.069423737624122"><ele>829.0</ele><time>2026-05-02T14:29:17Z</time></trkpt><trkpt lat="45.11517475982571" lon="7.069496917439015"><ele>829.0</ele><time>2026-05-02T14:29:18Z</time></trkpt><trkpt lat="45.11515345157322" lon="7.069600430053772"><ele>829.0</ele><time>2026-05-02T14:29:19Z</time></trkpt><trkpt lat="45.115062204121685" lon="7.069604647843466"><ele>828.9999999999999</ele><time>2026-05-02T14:29:21Z</time></trkpt><trkpt lat="45.11508106952726" lon="7.069449604653517"><ele>829.0</ele><time>2026-05-02T14:29:25Z</time></trkpt><trkpt lat="45.11508836455155" lon="7.06933320906341"><ele>829.0</ele><time>2026-05-02T14:29:26Z</time></trkpt><trkpt lat="45.11511324121117" lon="7.069224750875372"><ele>829.0</ele><time>2026-05-02T14:29:27Z</time></trkpt><trkpt lat="45.11519285212104" lon="7.069053689571798"><ele>829.0</ele><time>2026-05-02T14:29:29Z</time></trkpt><trkpt lat="45.115231845346074" lon="7.068977108269387"><ele>829.0</ele><time>2026-05-02T14:29:30Z</time></trkpt><trkpt lat="45.11526810286311" lon="7.068892828576853"><ele>829.0</ele><time>2026-05-02T14:29:31Z</time></trkpt><trkpt lat="45.11536519232526" lon="7.068789684923903"><ele>830.5</ele><time>2026-05-02T14:29:33Z</time></trkpt><trkpt lat="45.115402890182224" lon="7.068678034287015"><ele>832.0</ele><time>2026-05-02T14:29:35Z</time></trkpt><trkpt lat="45.115405847760016" lon="7.068534427566247"><ele>833.5</ele><time>2026-05-02T14:29:37Z</time></trkpt><trkpt lat="45.11536062294578" lon="7.068405191540765"><ele>835.0</ele><time>2026-05-02T14:29:39Z</time></trkpt><trkpt lat="45.11327188897179" lon="7.064469731146728"><ele>844.2</ele><time>2026-05-02T14:31:48Z</time></trkpt><trkpt lat="45.11329446444872" lon="7.064323772850417"><ele>853.4</ele><time>2026-05-02T14:31:49Z</time></trkpt><trkpt lat="45.113323834630805" lon="7.064184089628667"><ele>862.5999999999999</ele><time>2026-05-02T14:31:50Z</time></trkpt><trkpt lat="45.11336919109129" lon="7.064056157330471"><ele>871.8</ele><time>2026-05-02T14:31:51Z</time></trkpt><trkpt lat="45.11342248466693" lon="7.063941683168168"><ele>881.0</ele><time>2026-05-02T14:31:52Z</time></trkpt><trkpt lat="45.11348637545818" lon="7.063860119909489"><ele>883.8</ele><time>2026-05-02T14:31:53Z</time></trkpt><trkpt lat="45.11356208931076" lon="7.063794288838762"><ele>886.5999999999999</ele><time>2026-05-02T14:31:54Z</time></trkpt><trkpt lat="45.11364790964451" lon="7.063724018049122"><ele>889.4</ele><time>2026-05-02T14:31:55Z</time></trkpt><trkpt lat="45.11373678133301" lon="7.0636664243765654"><ele>892.2</ele><time>2026-05-02T14:31:56Z</time></trkpt><trkpt lat="45.11383895340314" lon="7.063611200131551"><ele>895.0</ele><time>2026-05-02T14:31:57Z</time></trkpt><trkpt lat="45.11392075913375" lon="7.063564087928579"><ele>895.0</ele><time>2026-05-02T14:31:58Z</time></trkpt><trkpt lat="45.11400724902476" lon="7.0635262020658995"><ele>895.0</ele><time>2026-05-02T14:31:59Z</time></trkpt><trkpt lat="45.11408196483137" lon="7.063483197866422"><ele>895.0</ele><time>2026-05-02T14:32:00Z</time></trkpt><trkpt lat="45.11416476495957" lon="7.06342142774828"><ele>895.0</ele><time>2026-05-02T14:32:01Z</time></trkpt><trkpt lat="45.11424039589806" lon="7.063338587312776"><ele>895.0</ele><time>2026-05-02T14:32:02Z</time></trkpt><trkpt lat="45.114311758385725" lon="7.063240415122195"><ele>892.3333333333333</ele><time>2026-05-02T14:32:03Z</time></trkpt><trkpt lat="45.11437329117314" lon="7.063132192242879"><ele>889.6666666666666</ele><time>2026-05-02T14:32:04Z</time></trkpt><trkpt lat="45.11441114749698" lon="7.063021036362942"><ele>887.0</ele><time>2026-05-02T14:32:05Z</time></trkpt><trkpt lat="45.11442000093517" lon="7.062925839413754"><ele>884.3333333333333</ele><time>2026-05-02T14:32:06Z</time></trkpt><trkpt lat="45.114385935533114" lon="7.062840151257918"><ele>881.6666666666666</ele><time>2026-05-02T14:32:07Z</time></trkpt><trkpt lat="45.11429113094645" lon="7.062846752722651"><ele>879.0</ele><time>2026-05-02T14:32:09Z</time></trkpt><trkpt lat="45.11422095737117" lon="7.062946901220302"><ele>879.0</ele><time>2026-05-02T14:32:11Z</time></trkpt><trkpt lat="45.11412184461755" lon="7.063065703650403"><ele>879.0000000000001</ele><time>2026-05-02T14:32:13Z</time></trkpt><trkpt lat="45.114041751756126" lon="7.063093926941016"><ele>879.0000000000001</ele><time>2026-05-02T14:32:14Z</time></trkpt><trkpt lat="45.1139430089353" lon="7.063076940997657"><ele>879.0</ele><time>2026-05-02T14:32:15Z</time></trkpt><trkpt lat="45.113818827487606" lon="7.0630787837851665"><ele>879.0</ele><time>2026-05-02T14:32:16Z</time></trkpt><trkpt lat="45.11369805599393" lon="7.0630987704467225"><ele>885.8000000000001</ele><time>2026-05-02T14:32:17Z</time></trkpt><trkpt lat="45.11358555075292" lon="7.063076661992723"><ele>892.6000000000001</ele><time>2026-05-02T14:32:18Z</time></trkpt><trkpt lat="45.11346521719592" lon="7.0630779233019725"><ele>899.4</ele><time>2026-05-02T14:32:19Z</time></trkpt><trkpt lat="45.113359723757505" lon="7.063085422575002"><ele>906.2</ele><time>2026-05-02T14:32:20Z</time></trkpt><trkpt lat="45.11326074107956" lon="7.063109936949703"><ele>913.0</ele><time>2026-05-02T14:32:21Z</time></trkpt><trkpt lat="45.11317223022205" lon="7.063098361477694"><ele>915.8</ele><time>2026-05-02T14:32:22Z</time></trkpt><trkpt lat="45.11307486990763" lon="7.06308779818061"><ele>918.5999999999999</ele><time>2026-05-02T14:32:23Z</time></trkpt><trkpt lat="45.11296566637343" lon="7.063078294015321"><ele>921.4000000000001</ele><time>2026-05-02T14:32:24Z</time></trkpt><trkpt lat="45.11285341017799" lon="7.063080697898701"><ele>924.2</ele><time>2026-05-02T14:32:25Z</time></trkpt><trkpt lat="45.1127354983058" lon="7.063071090674126"><ele>927.0</ele><time>2026-05-02T14:32:26Z</time></trkpt><trkpt lat="45.11262257140862" lon="7.063065516393093"><ele>927.0</ele><time>2026-05-02T14:32:27Z</time></trkpt><trkpt lat="45.112510450943375" lon="7.063041392508859"><ele>927.0</ele><time>2026-05-02T14:32:28Z</time></trkpt><trkpt lat="45.11240754821566" lon="7.063045796513674"><ele>927.0</ele><time>2026-05-02T14:32:29Z</time></trkpt><trkpt lat="45.112306852528235" lon="7.063079995030557"><ele>927.0</ele><time>2026-05-02T14:32:30Z</time></trkpt><trkpt lat="45.112230284405896" lon="7.063136971268242"><ele>927.0</ele><time>2026-05-02T14:32:31Z</time></trkpt><trkpt lat="45.11216226992965" lon="7.063233802415238"><ele>930.3333333333334</ele><time>2026-05-02T14:32:32Z</time></trkpt><trkpt lat="45.11217089369504" lon="7.063338399816257"><ele>933.6666666666667</ele><time>2026-05-02T14:32:33Z</time></trkpt><trkpt lat="45.1122020869964" lon="7.063419986430653"><ele>937.0</ele><time>2026-05-02T14:32:34Z</time></trkpt><trkpt lat="45.11222052268402" lon="7.063523856494258"><ele>940.3333333333334</ele><time>2026-05-02T14:32:35Z</time></trkpt><trkpt lat="45.11222137416704" lon="7.063630713060048"><ele>943.6666666666667</ele><time>2026-05-02T14:32:36Z</time></trkpt><trkpt lat="45.11222167592989" lon="7.063749298042468"><ele>947.0</ele><time>2026-05-02T14:32:37Z</time></trkpt><trkpt lat="45.11220815839593" lon="7.063899310586353"><ele>947.0</ele><time>2026-05-02T14:32:39Z</time></trkpt><trkpt lat="45.11213077063438" lon="7.063844006509049"><ele>947.0</ele><time>2026-05-02T14:32:41Z</time></trkpt><trkpt lat="45.11218967667657" lon="7.063753546125128"><ele>947.0</ele><time>2026-05-02T14:32:42Z</time></trkpt><trkpt lat="45.112134279846806" lon="7.063596893940583"><ele>947.0</ele><time>2026-05-02T14:32:44Z</time></trkpt><trkpt lat="45.11207911564137" lon="7.063467467519333"><ele>947.0</ele><time>2026-05-02T14:32:45Z</time></trkpt><trkpt lat="45.1120430134753" lon="7.06331808950939"><ele>950.0</ele><time>2026-05-02T14:32:46Z</time></trkpt><trkpt lat="45.11198734309501" lon="7.063183037711825"><ele>953.0</ele><time>2026-05-02T14:32:47Z</time></trkpt><trkpt lat="45.11157470534006" lon="7.061485913850493"><ele>966.2</ele><time>2026-05-02T14:33:48Z</time></trkpt><trkpt lat="45.111537852885654" lon="7.061576251623322"><ele>979.4</ele><time>2026-05-02T14:33:49Z</time></trkpt><trkpt lat="45.11144829598031" lon="7.0616118703822215"><ele>992.6000000000001</ele><time>2026-05-02T14:33:51Z</time></trkpt><trkpt lat="45.111467156186166" lon="7.061518464487914"><ele>1005.8000000000001</ele><time>2026-05-02T14:33:52Z</time></trkpt><trkpt lat="45.11155083499243" lon="7.061492319394331"><ele>1019.0</ele><time>2026-05-02T14:33:54Z</time></trkpt><trkpt lat="45.11155530362135" lon="7.061174319012683"><ele>1017.8000000000001</ele><time>2026-05-02T14:33:57Z</time></trkpt><trkpt lat="45.11157809652634" lon="7.061018833062839"><ele>1016.6000000000001</ele><time>2026-05-02T14:33:58Z</time></trkpt><trkpt lat="45.11157485816602" lon="7.060856031240573"><ele>1015.4</ele><time>2026-05-02T14:33:59Z</time></trkpt><trkpt lat="45.11156560711963" lon="7.060706290028895"><ele>1014.2</ele><time>2026-05-02T14:34:00Z</time></trkpt><trkpt lat="45.11154985652722" lon="7.060573442119961"><ele>1013.0</ele><time>2026-05-02T14:34:01Z</time></trkpt><trkpt lat="45.111520385947735" lon="7.060449133864955"><ele>1013.0</ele><time>2026-05-02T14:34:02Z</time></trkpt><trkpt lat="45.11145021815028" lon="7.0603587865711654"><ele>1013.0</ele><time>2026-05-02T14:34:04Z</time></trkpt><trkpt lat="45.1113803530348" lon="7.060448503456543"><ele>1013.0</ele><time>2026-05-02T14:34:06Z</time></trkpt><trkpt lat="45.11137501638977" lon="7.060561479761164"><ele>1013.0</ele><time>2026-05-02T14:34:07Z</time></trkpt><trkpt lat="45.111329852768904" lon="7.060682029950039"><ele>1013.0</ele><time>2026-05-02T14:34:08Z</time></trkpt><trkpt lat="45.111305066966565" lon="7.0608251900883605"><ele>1014.5</ele><time>2026-05-02T14:34:09Z</time></trkpt><trkpt lat="45.11128987892334" lon="7.060992349025619"><ele>1016.0</ele><time>2026-05-02T14:34:10Z</time></trkpt><trkpt lat="45.111252049893245" lon="7.061143728467948"><ele>1017.5</ele><time>2026-05-02T14:34:11Z</time></trkpt><trkpt lat="45.1112243751794" lon="7.061300985664955"><ele>1019.0</ele><time>2026-05-02T14:34:12Z</time></trkpt><trkpt lat="45.1111888397508" lon="7.061466078458685"><ele>1019.0</ele><time>2026-05-02T14:34:13Z</time></trkpt><trkpt lat="45.1111484501902" lon="7.0616242612388085"><ele>1019.0000000000001</ele><time>2026-05-02T14:34:14Z</time></trkpt><trkpt lat="45.11111690406264" lon="7.061736115584842"><ele>1019.0000000000001</ele><time>2026-05-02T14:34:15Z</time></trkpt><trkpt lat="45.11105857417402" lon="7.061821154893208"><ele>1019.0</ele><time>2026-05-02T14:34:17Z</time></trkpt><trkpt lat="45.111030321152676" lon="7.061721554093613"><ele>1019.0</ele><time>2026-05-02T14:34:19Z</time></trkpt><trkpt lat="45.111042071790784" lon="7.061538935393521"><ele>1019.0</ele><time>2026-05-02T14:34:21Z</time></trkpt><trkpt lat="45.11105116071388" lon="7.061396916739744"><ele>1019.0</ele><time>2026-05-02T14:34:22Z</time></trkpt><trkpt lat="45.11106275856876" lon="7.061226099742431"><ele>1019.0</ele><time>2026-05-02T14:34:23Z</time></trkpt><trkpt lat="45.111055588240994" lon="7.061038510674755"><ele>1019.0</ele><time>2026-05-02T14:34:24Z</time></trkpt><trkpt lat="45.111051037694494" lon="7.0608781092734425"><ele>1019.0</ele><time>2026-05-02T14:34:25Z</time></trkpt><trkpt lat="45.11105420504312" lon="7.060783533592289"><ele>1019.0000000000001</ele><time>2026-05-02T14:34:26Z</time></trkpt><trkpt lat="45.11096320441476" lon="7.060716593937198"><ele>1019.0000000000001</ele><time>2026-05-02T14:34:28Z</time></trkpt><trkpt lat="45.110919457630736" lon="7.060872145077062"><ele>1019.0</ele><time>2026-05-02T14:34:30Z</time></trkpt><trkpt lat="45.110890763297505" lon="7.061002906340127"><ele>1019.0</ele><time>2026-05-02T14:34:31Z</time></trkpt><trkpt lat="45.11089148538768" lon="7.061136787083105"><ele>1019.0</ele><time>2026-05-02T14:34:32Z</time></trkpt><trkpt lat="45.11087677954306" lon="7.0613187476481425"><ele>1019.0000000000001</ele><time>2026-05-02T14:34:33Z</time></trkpt><trkpt lat="45.11086378088515" lon="7.061484953250237"><ele>1019.0000000000001</ele><time>2026-05-02T14:34:34Z</time></trkpt><trkpt lat="45.11086062391843" lon="7.061644793371433"><ele>1019.0</ele><time>2026-05-02T14:34:35Z</time></trkpt><trkpt lat="45.11085311274687" lon="7.061751064034158"><ele>1019.0</ele><time>2026-05-02T14:34:36Z</time></trkpt><trkpt lat="45.1107743586738" lon="7.061797205001896"><ele>1019.0</ele><time>2026-05-02T14:34:38Z</time></trkpt><trkpt lat="45.110738487465774" lon="7.061691409761456"><ele>1019.0000000000001</ele><time>2026-05-02T14:34:40Z</time></trkpt><trkpt lat="45.11075479184684" lon="7.06159906443404"><ele>1019.0000000000001</ele><time>2026-05-02T14:34:41Z</time></trkpt><trkpt lat="45.11075320666807" lon="7.061444947536927"><ele>1019.0</ele><time>2026-05-02T14:34:42Z</time></trkpt><trkpt lat="45.110749675006566" lon="7.061266298456132"><ele>1019.0</ele><time>2026-05-02T14:34:43Z</time></trkpt><trkpt lat="45.110728194255366" lon="7.061097584763219"><ele>1031.0</ele><time>2026-05-02T14:34:44Z</time></trkpt><trkpt lat="45.11069355397292" lon="7.060983137288226"><ele>1043.0</ele><time>2026-05-02T14:34:45Z</time></trkpt><trkpt lat="45.1106337637822" lon="7.060864637810414"><ele>1055.0</ele><time>2026-05-02T14:34:47Z</time></trkpt><trkpt lat="45.10963679592925" lon="7.062304082484936"><ele>1057.5</ele><time>2026-05-02T14:35:48Z</time></trkpt><trkpt lat="45.10960287366913" lon="7.062439677394937"><ele>1060.0</ele><time>2026-05-02T14:35:49Z</time></trkpt><trkpt lat="45.10962077463557" lon="7.062563821831279"><ele>1062.5</ele><time>2026-05-02T14:35:50Z</time></trkpt><trkpt lat="45.109691994072875" lon="7.062630707186074"><ele>1065.0</ele><time>2026-05-02T14:35:51Z</time></trkpt><trkpt lat="45.10974606202992" lon="7.062712561296111"><ele>1067.5</ele><time>2026-05-02T14:35:52Z</time></trkpt><trkpt lat="45.1098370265836" lon="7.0626878276880705"><ele>1070.0</ele><time>2026-05-02T14:35:53Z</time></trkpt><trkpt lat="45.109924875346344" lon="7.0627246098754615"><ele>1070.0</ele><time>2026-05-02T14:35:54Z</time></trkpt><trkpt lat="45.10993362310929" lon="7.062854098153151"><ele>1070.0</ele><time>2026-05-02T14:35:56Z</time></trkpt><trkpt lat="45.1098387122406" lon="7.062794754295135"><ele>1070.0</ele><time>2026-05-02T14:35:57Z</time></trkpt><trkpt lat="45.10976606730352" lon="7.0627838292151335"><ele>1070.0</ele><time>2026-05-02T14:35:58Z</time></trkpt><trkpt lat="45.109651991059536" lon="7.0627538669627095"><ele>1070.0</ele><time>2026-05-02T14:35:59Z</time></trkpt><trkpt lat="45.109561653083745" lon="7.062673481829539"><ele>1076.75</ele><time>2026-05-02T14:36:00Z</time></trkpt><trkpt lat="45.10951511912385" lon="7.062541502305261"><ele>1083.5</ele><time>2026-05-02T14:36:01Z</time></trkpt><trkpt lat="45.10947234364495" lon="7.0623773186049466"><ele>1090.25</ele><time>2026-05-02T14:36:02Z</time></trkpt><trkpt lat="45.10943153547159" lon="7.062221352712959"><ele>1097.0</ele><time>2026-05-02T14:36:03Z</time></trkpt><trkpt lat="45.10939229050632" lon="7.062064700400221"><ele>1097.0</ele><time>2026-05-02T14:36:04Z</time></trkpt><trkpt lat="45.10934912086398" lon="7.061921600000014"><ele>1097.0</ele><time>2026-05-02T14:36:05Z</time></trkpt><trkpt lat="45.10931120094843" lon="7.061834315506457"><ele>1097.0</ele><time>2026-05-02T14:36:06Z</time></trkpt><trkpt lat="45.1092499489781" lon="7.061810358234599"><ele>1097.0</ele><time>2026-05-02T14:36:07Z</time></trkpt><trkpt lat="45.10916481342576" lon="7.061892118804109"><ele>1097.0</ele><time>2026-05-02T14:36:09Z</time></trkpt><trkpt lat="45.1092194398197" lon="7.062067085910747"><ele>1097.0</ele><time>2026-05-02T14:36:11Z</time></trkpt><trkpt lat="45.109266892808634" lon="7.062181772537283"><ele>1097.0</ele><time>2026-05-02T14:36:12Z</time></trkpt><trkpt lat="45.109290730886634" lon="7.062306657050184"><ele>1097.0</ele><time>2026-05-02T14:36:13Z</time></trkpt><trkpt lat="45.109289661520734" lon="7.062406456217295"><ele>1097.0</ele><time>2026-05-02T14:36:14Z</time></trkpt><trkpt lat="45.109201131940644" lon="7.062472929623889"><ele>1097.0</ele><time>2026-05-02T14:36:16Z</time></trkpt><trkpt lat="45.10923016314199" lon="7.062340907021251"><ele>1097.0</ele><time>2026-05-02T14:36:17Z</time></trkpt><trkpt lat="45.1091809395482" lon="7.062167504573322"><ele>1097.0</ele><time>2026-05-02T14:36:19Z</time></trkpt><trkpt lat="45.10912032584277" lon="7.062035835052831"><ele>1097.0</ele><time>2026-05-02T14:36:20Z</time></trkpt><trkpt lat="45.109051857130034" lon="7.0619279080211586"><ele>1097.0</ele><time>2026-05-02T14:36:21Z</time></trkpt><trkpt lat="45.10897016229733" lon="7.061884717685469"><ele>1097.0</ele><time>2026-05-02T14:36:23Z</time></trkpt><trkpt lat="45.1089471123085" lon="7.062023102422935"><ele>1112.0</ele><time>2026-05-02T14:36:25Z</time></trkpt><trkpt lat="45.10894758757299" lon="7.062167154826584"><ele>1127.0</ele><time>2026-05-02T14:36:27Z</time></trkpt><trkpt lat="45.10859665196229" lon="7.062042824242677"><ele>1127.0</ele><time>2026-05-02T14:39:48Z</time></trkpt><trkpt lat="45.108634388227614" lon="7.062191734162438"><ele>1127.0</ele><time>2026-05-02T14:39:50Z</time></trkpt><trkpt lat="45.10863607410512" lon="7.062328467804914"><ele>1127.0</ele><time>2026-05-02T14:39:51Z</time></trkpt><trkpt lat="45.10868405022277" lon="7.062487901841251"><ele>1127.0</ele><time>2026-05-02T14:39:52Z</time></trkpt><trkpt lat="45.10877091089539" lon="7.062633262571974"><ele>1130.0</ele><time>2026-05-02T14:39:53Z</time></trkpt><trkpt lat="45.108863995527386" lon="7.06273247318305"><ele>1133.0</ele><time>2026-05-02T14:39:54Z</time></trkpt><trkpt lat="45.10893142996873" lon="7.062821972121192"><ele>1136.0</ele><time>2026-05-02T14:39:55Z</time></trkpt><trkpt lat="45.109001325412656" lon="7.062915897513259"><ele>1139.0</ele><time>2026-05-02T14:39:56Z</time></trkpt><trkpt lat="45.10888764853391" lon="7.062859550066338"><ele>1142.0</ele><time>2026-05-02T14:40:02Z</time></trkpt><trkpt lat="45.10880582007793" lon="7.062796375147813"><ele>1142.0</ele><time>2026-05-02T14:40:03Z</time></trkpt><trkpt lat="45.10871484381093" lon="7.062724242695977"><ele>1142.0</ele><time>2026-05-02T14:40:04Z</time></trkpt><trkpt lat="45.108645877234366" lon="7.062612547623308"><ele>1142.0</ele><time>2026-05-02T14:40:05Z</time></trkpt><trkpt lat="45.10854481036319" lon="7.062545105542471"><ele>1142.0</ele><time>2026-05-02T14:40:06Z</time></trkpt><trkpt lat="45.10844724804345" lon="7.062456689114635"><ele>1142.0</ele><time>2026-05-02T14:40:07Z</time></trkpt><trkpt lat="45.10833672371771" lon="7.062379938421859"><ele>1144.75</ele><time>2026-05-02T14:40:08Z</time></trkpt><trkpt lat="45.10821640072281" lon="7.062316155358113"><ele>1147.5</ele><time>2026-05-02T14:40:09Z</time></trkpt><trkpt lat="45.10808434702984" lon="7.062246763277347"><ele>1150.25</ele><time>2026-05-02T14:40:10Z</time></trkpt><trkpt lat="45.107961576240584" lon="7.062179018490565"><ele>1153.0</ele><time>2026-05-02T14:40:11Z</time></trkpt><trkpt lat="45.10785723301824" lon="7.06205820420179"><ele>1153.0</ele><time>2026-05-02T14:40:12Z</time></trkpt><trkpt lat="45.10781972695373" lon="7.0618953075499125"><ele>1153.0</ele><time>2026-05-02T14:40:13Z</time></trkpt><trkpt lat="45.107787595805014" lon="7.061805271899748"><ele>1153.0</ele><time>2026-05-02T14:40:14Z</time></trkpt><trkpt lat="45.1077125855506" lon="7.06173330225544"><ele>1153.0</ele><time>2026-05-02T14:40:16Z</time></trkpt><trkpt lat="45.10760919384458" lon="7.061742796146883"><ele>1153.0</ele><time>2026-05-02T14:40:18Z</time></trkpt><trkpt lat="45.1075751922575" lon="7.061826817010913"><ele>1153.0</ele><time>2026-05-02T14:40:19Z</time></trkpt><trkpt lat="45.107536298416996" lon="7.06191698131584"><ele>1153.0</ele><time>2026-05-02T14:40:20Z</time></trkpt><trkpt lat="45.10752137588313" lon="7.062035618024793"><ele>1153.0</ele><time>2026-05-02T14:40:21Z</time></trkpt><trkpt lat="45.10752933944483" lon="7.0621785529869605"><ele>1153.0</ele><time>2026-05-02T14:40:22Z</time></trkpt><trkpt lat="45.10757934669226" lon="7.062314087269225"><ele>1153.0</ele><time>2026-05-02T14:40:23Z</time></trkpt><trkpt lat="45.1076709985295" lon="7.06241809336625"><ele>1155.4</ele><time>2026-05-02T14:40:24Z</time></trkpt><trkpt lat="45.107748488517814" lon="7.06251037751986"><ele>1157.8</ele><time>2026-05-02T14:40:25Z</time></trkpt><trkpt lat="45.10784975070804" lon="7.062566933927938"><ele>1160.2</ele><time>2026-05-02T14:40:26Z</time></trkpt><trkpt lat="45.10796476258876" lon="7.062610164758372"><ele>1162.6</ele><time>2026-05-02T14:40:27Z</time></trkpt><trkpt lat="45.10808217033692" lon="7.06264345729163"><ele>1165.0</ele><time>2026-05-02T14:40:28Z</time></trkpt><trkpt lat="45.1081659940331" lon="7.0627051150181215"><ele>1165.0</ele><time>2026-05-02T14:40:29Z</time></trkpt><trkpt lat="45.108246290571564" lon="7.062786158303431"><ele>1165.0</ele><time>2026-05-02T14:40:31Z</time></trkpt><trkpt lat="45.10818057853431" lon="7.062818695453654"><ele>1165.0</ele><time>2026-05-02T14:40:34Z</time></trkpt><trkpt lat="45.1081152268719" lon="7.062813601973146"><ele>1165.0</ele><time>2026-05-02T14:40:35Z</time></trkpt><trkpt lat="45.1080166859918" lon="7.062803932944437"><ele>1165.0</ele><time>2026-05-02T14:40:36Z</time></trkpt><trkpt lat="45.1078994572592" lon="7.062786583022719"><ele>1165.0</ele><time>2026-05-02T14:40:37Z</time></trkpt><trkpt lat="45.10779261134334" lon="7.062769869701457"><ele>1165.0</ele><time>2026-05-02T14:40:38Z</time></trkpt><trkpt lat="45.107682730115314" lon="7.062751686596146"><ele>1165.0</ele><time>2026-05-02T14:40:39Z</time></trkpt><trkpt lat="45.10756480251631" lon="7.0627298156821565"><ele>1165.0</ele><time>2026-05-02T14:40:40Z</time></trkpt><trkpt lat="45.107444639695274" lon="7.062700836100181"><ele>1169.0</ele><time>2026-05-02T14:40:41Z</time></trkpt><trkpt lat="45.107333133718306" lon="7.062660541040921"><ele>1173.0</ele><time>2026-05-02T14:40:42Z</time></trkpt><trkpt lat="45.10721780674225" lon="7.062602967636222"><ele>1177.0</ele><time>2026-05-02T14:40:43Z</time></trkpt><trkpt lat="45.10710998932587" lon="7.062518523303669"><ele>1181.0</ele><time>2026-05-02T14:40:44Z</time></trkpt><trkpt lat="45.10701180592852" lon="7.0624088361120965"><ele>1181.0</ele><time>2026-05-02T14:40:45Z</time></trkpt><trkpt lat="45.106950943809956" lon="7.0622745959737445"><ele>1181.0</ele><time>2026-05-02T14:40:46Z</time></trkpt><trkpt lat="45.10690925585621" lon="7.062125398373252"><ele>1181.0</ele><time>2026-05-02T14:40:47Z</time></trkpt><trkpt lat="45.108343339413125" lon="7.06420803558155"><ele>1186.3999999999999</ele><time>2026-05-02T14:41:48Z</time></trkpt><trkpt lat="45.10836607196215" lon="7.06429476144582"><ele>1191.8</ele><time>2026-05-02T14:41:49Z</time></trkpt><trkpt lat="45.10834123642828" lon="7.064389704474109"><ele>1197.1999999999998</ele><time>2026-05-02T14:41:50Z</time></trkpt><trkpt lat="45.10827101195359" lon="7.064483899155822"><ele>1202.6</ele><time>2026-05-02T14:41:51Z</time></trkpt><trkpt lat="45.10819290985503" lon="7.064592605062596"><ele>1208.0</ele><time>2026-05-02T14:41:52Z</time></trkpt><trkpt lat="45.10811457090697" lon="7.064702456369747"><ele>1214.4</ele><time>2026-05-02T14:41:53Z</time></trkpt><trkpt lat="45.108025400339116" lon="7.064822028819525"><ele>1220.8</ele><time>2026-05-02T14:41:54Z</time></trkpt><trkpt lat="45.10795043442434" lon="7.064962658518045"><ele>1227.2</ele><time>2026-05-02T14:41:55Z</time></trkpt><trkpt lat="45.107894031443195" lon="7.065065500695015"><ele>1233.6</ele><time>2026-05-02T14:41:56Z</time></trkpt><trkpt lat="45.10787077216614" lon="7.065179075346789"><ele>1240.0</ele><time>2026-05-02T14:41:57Z</time></trkpt><trkpt lat="45.107860849101044" lon="7.065320708271964"><ele>1246.75</ele><time>2026-05-02T14:41:58Z</time></trkpt><trkpt lat="45.10784384237417" lon="7.0654703845279965"><ele>1253.5</ele><time>2026-05-02T14:41:59Z</time></trkpt><trkpt lat="45.10779817596423" lon="7.065625552362499"><ele>1260.25</ele><time>2026-05-02T14:42:00Z</time></trkpt><trkpt lat="45.10773588177831" lon="7.065780432259159"><ele>1267.0</ele><time>2026-05-02T14:42:01Z</time></trkpt><trkpt lat="45.10769236886604" lon="7.065951750363182"><ele>1268.25</ele><time>2026-05-02T14:42:02Z</time></trkpt><trkpt lat="45.10764905043573" lon="7.066135255551772"><ele>1269.5</ele><time>2026-05-02T14:42:03Z</time></trkpt><trkpt lat="45.10762260038406" lon="7.066313933629013"><ele>1270.75</ele><time>2026-05-02T14:42:04Z</time></trkpt><trkpt lat="45.107627510128964" lon="7.06646547548391"><ele>1272.0</ele><time>2026-05-02T14:42:05Z</time></trkpt><trkpt lat="45.10765340277978" lon="7.066602621860061"><ele>1273.0</ele><time>2026-05-02T14:42:06Z</time></trkpt><trkpt lat="45.10770217019004" lon="7.066723011316132"><ele>1274.0</ele><time>2026-05-02T14:42:07Z</time></trkpt><trkpt lat="45.10779464501005" lon="7.066810797318616"><ele>1275.0</ele><time>2026-05-02T14:42:08Z</time></trkpt><trkpt lat="45.10784787449565" lon="7.066933115639928"><ele>1276.0</ele><time>2026-05-02T14:42:09Z</time></trkpt><trkpt lat="45.10790320509403" lon="7.067038298655077"><ele>1277.0</ele><time>2026-05-02T14:42:10Z</time></trkpt><trkpt lat="45.10792677971588" lon="7.0671441485057205"><ele>1277.0</ele><time>2026-05-02T14:42:11Z</time></trkpt><trkpt lat="45.10793626823039" lon="7.067261375421075"><ele>1277.0</ele><time>2026-05-02T14:42:12Z</time></trkpt><trkpt lat="45.10794746618841" lon="7.067396172666825"><ele>1277.0</ele><time>2026-05-02T14:42:13Z</time></trkpt><trkpt lat="45.10794149350366" lon="7.067566771841912"><ele>1277.0</ele><time>2026-05-02T14:42:14Z</time></trkpt><trkpt lat="45.1079542047676" lon="7.067746116000658"><ele>1277.0</ele><time>2026-05-02T14:42:15Z</time></trkpt><trkpt lat="45.107964013391246" lon="7.067943984389106"><ele>1282.6666666666667</ele><time>2026-05-02T14:42:16Z</time></trkpt><trkpt lat="45.10797368345476" lon="7.068164656252584"><ele>1288.3333333333333</ele><time>2026-05-02T14:42:17Z</time></trkpt><trkpt lat="45.107974721419986" lon="7.068389276549247"><ele>1294.0</ele><time>2026-05-02T14:42:18Z</time></trkpt><trkpt lat="45.108005708988706" lon="7.068595198224171"><ele>1297.75</ele><time>2026-05-02T14:42:19Z</time></trkpt><trkpt lat="45.108016676674865" lon="7.068759405053055"><ele>1301.5</ele><time>2026-05-02T14:42:20Z</time></trkpt><trkpt lat="45.108025461164154" lon="7.068920519747713"><ele>1305.25</ele><time>2026-05-02T14:42:21Z</time></trkpt><trkpt lat="45.1080494229414" lon="7.069109501137989"><ele>1309.0</ele><time>2026-05-02T14:42:22Z</time></trkpt><trkpt lat="45.10805763038832" lon="7.069333228751099"><ele>1312.25</ele><time>2026-05-02T14:42:23Z</time></trkpt><trkpt lat="45.10805858481531" lon="7.069573935001806"><ele>1315.5</ele><time>2026-05-02T14:42:24Z</time></trkpt><trkpt lat="45.10806084357679" lon="7.069761042716765"><ele>1318.75</ele><time>2026-05-02T14:42:25Z</time></trkpt><trkpt lat="45.1080647906008" lon="7.069910216674305"><ele>1322.0</ele><time>2026-05-02T14:42:26Z</time></trkpt><trkpt lat="45.10807260235433" lon="7.070017966614222"><ele>1323.3333333333335</ele><time>2026-05-02T14:42:27Z</time></trkpt><trkpt lat="45.10805919317793" lon="7.070110287733709"><ele>1324.6666666666667</ele><time>2026-05-02T14:42:28Z</time></trkpt><trkpt lat="45.1080122592774" lon="7.07022984739344"><ele>1326.0</ele><time>2026-05-02T14:42:30Z</time></trkpt><trkpt lat="45.107970252766336" lon="7.07030913664776"><ele>1327.3333333333333</ele><time>2026-05-02T14:42:31Z</time></trkpt><trkpt lat="45.107937561317044" lon="7.0704308112356715"><ele>1328.6666666666665</ele><time>2026-05-02T14:42:32Z</time></trkpt><trkpt lat="45.10791785995379" lon="7.070566081814874"><ele>1330.0</ele><time>2026-05-02T14:42:33Z</time></trkpt><trkpt lat="45.10795856145569" lon="7.070697023019399"><ele>1331.2</ele><time>2026-05-02T14:42:34Z</time></trkpt><trkpt lat="45.108023112244226" lon="7.070781785876524"><ele>1332.4</ele><time>2026-05-02T14:42:35Z</time></trkpt><trkpt lat="45.10807464990358" lon="7.070910152383733"><ele>1333.6</ele><time>2026-05-02T14:42:36Z</time></trkpt><trkpt lat="45.1081137561951" lon="7.071047023795154"><ele>1334.8</ele><time>2026-05-02T14:42:37Z</time></trkpt><trkpt lat="45.108149696864395" lon="7.071195409400444"><ele>1336.0</ele><time>2026-05-02T14:42:38Z</time></trkpt><trkpt lat="45.10815107004817" lon="7.071321920821652"><ele>1336.0</ele><time>2026-05-02T14:42:39Z</time></trkpt><trkpt lat="45.10814950715258" lon="7.071476033275402"><ele>1336.0</ele><time>2026-05-02T14:42:40Z</time></trkpt><trkpt lat="45.108156343691924" lon="7.071662404705686"><ele>1336.0</ele><time>2026-05-02T14:42:41Z</time></trkpt><trkpt lat="45.108137453846346" lon="7.071881979506202"><ele>1336.0</ele><time>2026-05-02T14:42:42Z</time></trkpt><trkpt lat="45.10812609099595" lon="7.072103563566462"><ele>1336.0</ele><time>2026-05-02T14:42:43Z</time></trkpt><trkpt lat="45.10811044921608" lon="7.0723160986785985"><ele>1336.0</ele><time>2026-05-02T14:42:44Z</time></trkpt><trkpt lat="45.1080891010391" lon="7.072512671892459"><ele>1336.0</ele><time>2026-05-02T14:42:45Z</time></trkpt><trkpt lat="45.10808863889664" lon="7.072721346001606"><ele>1336.0</ele><time>2026-05-02T14:42:46Z</time></trkpt><trkpt lat="45.10809499119747" lon="7.072922268118255"><ele>1390.0</ele><time>2026-05-02T14:42:47Z</time></trkpt><trkpt lat="45.10709584742897" lon="7.069424284248691"><ele>1390.0</ele><time>2026-05-02T14:43:48Z</time></trkpt><trkpt lat="45.10703759100358" lon="7.069276674414853"><ele>1390.0</ele><time>2026-05-02T14:43:49Z</time></trkpt><trkpt lat="45.10699441683165" lon="7.069115104538708"><ele>1390.0</ele><time>2026-05-02T14:43:50Z</time></trkpt><trkpt lat="45.10693533124702" lon="7.068951440326207"><ele>1390.0</ele><time>2026-05-02T14:43:51Z</time></trkpt><trkpt lat="45.10684753272531" lon="7.068613661184434"><ele>1386.8</ele><time>2026-05-02T14:43:53Z</time></trkpt><trkpt lat="45.106827306766114" lon="7.068453837062491"><ele>1383.6</ele><time>2026-05-02T14:43:54Z</time></trkpt><trkpt lat="45.106804221071734" lon="7.068289128022261"><ele>1380.4</ele><time>2026-05-02T14:43:55Z</time></trkpt><trkpt lat="45.10676729389395" lon="7.068156194096597"><ele>1377.2</ele><time>2026-05-02T14:43:56Z</time></trkpt><trkpt lat="45.10672184065581" lon="7.068057478586926"><ele>1374.0</ele><time>2026-05-02T14:43:57Z</time></trkpt><trkpt lat="45.106662621345215" lon="7.067976122710786"><ele>1370.8000000000002</ele><time>2026-05-02T14:43:58Z</time></trkpt><trkpt lat="45.106599604809176" lon="7.067902710616978"><ele>1367.6000000000001</ele><time>2026-05-02T14:43:59Z</time></trkpt><trkpt lat="45.10651402806964" lon="7.067803725197047"><ele>1364.4</ele><time>2026-05-02T14:44:00Z</time></trkpt><trkpt lat="45.10642256324943" lon="7.067712822041556"><ele>1361.2</ele><time>2026-05-02T14:44:01Z</time></trkpt><trkpt lat="45.10633006451457" lon="7.067624201379668"><ele>1358.0</ele><time>2026-05-02T14:44:02Z</time></trkpt><trkpt lat="45.10624451167503" lon="7.067535075162411"><ele>1366.8000000000002</ele><time>2026-05-02T14:44:03Z</time></trkpt><trkpt lat="45.1061636254906" lon="7.067425762098372"><ele>1375.6</ele><time>2026-05-02T14:44:04Z</time></trkpt><trkpt lat="45.106092539188815" lon="7.067296535637125"><ele>1384.4</ele><time>2026-05-02T14:44:05Z</time></trkpt><trkpt lat="45.106058945365085" lon="7.0671553461576115"><ele>1393.1999999999998</ele><time>2026-05-02T14:44:06Z</time></trkpt><trkpt lat="45.1060428047956" lon="7.06700541117988"><ele>1402.0</ele><time>2026-05-02T14:44:07Z</time></trkpt><trkpt lat="45.106042642986054" lon="7.066861233436946"><ele>1402.0</ele><time>2026-05-02T14:44:08Z</time></trkpt><trkpt lat="45.10605076132979" lon="7.066733977660131"><ele>1402.0</ele><time>2026-05-02T14:44:09Z</time></trkpt><trkpt lat="45.10607100754081" lon="7.0666309035924"><ele>1402.0</ele><time>2026-05-02T14:44:10Z</time></trkpt><trkpt lat="45.10610895571148" lon="7.066505443135027"><ele>1402.0</ele><time>2026-05-02T14:44:11Z</time></trkpt><trkpt lat="45.106149478465234" lon="7.066382712782032"><ele>1402.0</ele><time>2026-05-02T14:44:12Z</time></trkpt><trkpt lat="45.10618054378222" lon="7.0662552215435035"><ele>1398.8</ele><time>2026-05-02T14:44:13Z</time></trkpt><trkpt lat="45.10619510858816" lon="7.066166647565349"><ele>1395.6</ele><time>2026-05-02T14:44:14Z</time></trkpt><trkpt lat="45.10613032923333" lon="7.066048529526619"><ele>1392.3999999999999</ele><time>2026-05-02T14:44:16Z</time></trkpt><trkpt lat="45.10606614615391" lon="7.06598050989259"><ele>1389.1999999999998</ele><time>2026-05-02T14:44:17Z</time></trkpt><trkpt lat="45.10598916664056" lon="7.065927481478223"><ele>1386.0</ele><time>2026-05-02T14:44:18Z</time></trkpt><trkpt lat="45.10587722342359" lon="7.06584748228137"><ele>1384.0</ele><time>2026-05-02T14:44:19Z</time></trkpt><trkpt lat="45.105765881018996" lon="7.0657703536281335"><ele>1382.0</ele><time>2026-05-02T14:44:20Z</time></trkpt><trkpt lat="45.10565387470017" lon="7.065698110659801"><ele>1380.0</ele><time>2026-05-02T14:44:21Z</time></trkpt><trkpt lat="45.10556981090858" lon="7.065629161572693"><ele>1378.0</ele><time>2026-05-02T14:44:22Z</time></trkpt><trkpt lat="45.10550384284515" lon="7.065535718466257"><ele>1376.0</ele><time>2026-05-02T14:44:23Z</time></trkpt><trkpt lat="45.105435242462754" lon="7.065457792093639"><ele>1376.0</ele><time>2026-05-02T14:44:24Z</time></trkpt><trkpt lat="45.105355381485936" lon="7.065395625979814"><ele>1376.0</ele><time>2026-05-02T14:44:25Z</time></trkpt><trkpt lat="45.10526277650996" lon="7.065363122597677"><ele>1376.0</ele><time>2026-05-02T14:44:26Z</time></trkpt><trkpt lat="45.10516952592651" lon="7.065355250382798"><ele>1376.0</ele><time>2026-05-02T14:44:27Z</time></trkpt><trkpt lat="45.105057383445526" lon="7.065338124492812"><ele>1376.0</ele><time>2026-05-02T14:44:28Z</time></trkpt><trkpt lat="45.10494539556327" lon="7.0653406117678195"><ele>1381.25</ele><time>2026-05-02T14:44:29Z</time></trkpt><trkpt lat="45.104828430485355" lon="7.065340496142575"><ele>1386.5</ele><time>2026-05-02T14:44:30Z</time></trkpt><trkpt lat="45.10469696433278" lon="7.065333447556588"><ele>1391.75</ele><time>2026-05-02T14:44:31Z</time></trkpt><trkpt lat="45.10453840237208" lon="7.065342281822478"><ele>1397.0</ele><time>2026-05-02T14:44:32Z</time></trkpt><trkpt lat="45.10435468809886" lon="7.065303596897462"><ele>1397.0</ele><time>2026-05-02T14:44:33Z</time></trkpt><trkpt lat="45.10417307098764" lon="7.06529269523959"><ele>1397.0</ele><time>2026-05-02T14:44:34Z</time></trkpt><trkpt lat="45.10400396219114" lon="7.065280021301391"><ele>1397.0</ele><time>2026-05-02T14:44:35Z</time></trkpt><trkpt lat="45.10384128163281" lon="7.065272582001241"><ele>1402.6666666666667</ele><time>2026-05-02T14:44:36Z</time></trkpt><trkpt lat="45.103677098606624" lon="7.065266356281341"><ele>1408.3333333333333</ele><time>2026-05-02T14:44:37Z</time></trkpt><trkpt lat="45.10350088077194" lon="7.065234539615708"><ele>1414.0</ele><time>2026-05-02T14:44:38Z</time></trkpt><trkpt lat="45.103342978830426" lon="7.065213324154442"><ele>1421.4</ele><time>2026-05-02T14:44:39Z</time></trkpt><trkpt lat="45.1032253027571" lon="7.065185279697983"><ele>1428.8000000000002</ele><time>2026-05-02T14:44:40Z</time></trkpt><trkpt lat="45.103133419219134" lon="7.065148208312579"><ele>1436.1999999999998</ele><time>2026-05-02T14:44:41Z</time></trkpt><trkpt lat="45.10305037189936" lon="7.065100193320798"><ele>1443.6</ele><time>2026-05-02T14:44:42Z</time></trkpt><trkpt lat="45.10298700605981" lon="7.065047380932015"><ele>1451.0</ele><time>2026-05-02T14:44:43Z</time></trkpt><trkpt lat="45.10289529389268" lon="7.064967641870601"><ele>1441.75</ele><time>2026-05-02T14:44:44Z</time></trkpt><trkpt lat="45.10279847423872" lon="7.064913123240007"><ele>1432.5</ele><time>2026-05-02T14:44:45Z</time></trkpt><trkpt lat="45.1027251104845" lon="7.064807626246592"><ele>1423.25</ele><time>2026-05-02T14:44:46Z</time></trkpt><trkpt lat="45.10264208112967" lon="7.064732456070205"><ele>1414.0</ele><time>2026-05-02T14:44:47Z</time></trkpt><trkpt lat="45.09773173706219" lon="7.061584747474959"><ele>1441.25</ele><time>2026-05-02T14:45:48Z</time></trkpt><trkpt lat="45.09758412324114" lon="7.061505472712845"><ele>1468.5</ele><time>2026-05-02T14:45:49Z</time></trkpt><trkpt lat="45.097449588002185" lon="7.061435255746747"><ele>1495.75</ele><time>2026-05-02T14:45:50Z</time></trkpt><trkpt lat="45.09732941401242" lon="7.0613815827361135"><ele>1523.0</ele><time>2026-05-02T14:45:51Z</time></trkpt><trkpt lat="45.097221985845685" lon="7.061340367178591"><ele>1524.6000000000001</ele><time>2026-05-02T14:45:52Z</time></trkpt><trkpt lat="45.097115952350215" lon="7.061316017658596"><ele>1526.2</ele><time>2026-05-02T14:45:53Z</time></trkpt><trkpt lat="45.09700780729727" lon="7.0613248560191515"><ele>1527.8</ele><time>2026-05-02T14:45:54Z</time></trkpt><trkpt lat="45.096908580047796" lon="7.061387950351613"><ele>1529.4</ele><time>2026-05-02T14:45:55Z</time></trkpt><trkpt lat="45.09681383000073" lon="7.061427038650727"><ele>1531.0</ele><time>2026-05-02T14:45:56Z</time></trkpt><trkpt lat="45.096727263463364" lon="7.06148219715628"><ele>1531.0</ele><time>2026-05-02T14:45:57Z</time></trkpt><trkpt lat="45.0966544909284" lon="7.061475322579513"><ele>1531.0</ele><time>2026-05-02T14:45:58Z</time></trkpt><trkpt lat="45.09652946059438" lon="7.061427362829829"><ele>1531.0</ele><time>2026-05-02T14:46:00Z</time></trkpt><trkpt lat="45.09646110184474" lon="7.061336332137239"><ele>1531.0</ele><time>2026-05-02T14:46:01Z</time></trkpt><trkpt lat="45.09637133385712" lon="7.061276933266343"><ele>1531.0</ele><time>2026-05-02T14:46:02Z</time></trkpt><trkpt lat="45.09628319589077" lon="7.061247526006693"><ele>1533.5</ele><time>2026-05-02T14:46:03Z</time></trkpt><trkpt lat="45.09617567508493" lon="7.06127624379396"><ele>1536.0</ele><time>2026-05-02T14:46:04Z</time></trkpt><trkpt lat="45.09609088554008" lon="7.0612843027338"><ele>1538.5</ele><time>2026-05-02T14:46:05Z</time></trkpt><trkpt lat="45.096030779961765" lon="7.061252604602623"><ele>1541.0</ele><time>2026-05-02T14:46:07Z</time></trkpt><trkpt lat="45.096101157487766" lon="7.0611612176762675"><ele>1543.5000000000002</ele><time>2026-05-02T14:46:10Z</time></trkpt><trkpt lat="45.09618627405655" lon="7.06114511512161"><ele>1546.0</ele><time>2026-05-02T14:46:11Z</time></trkpt><trkpt lat="45.09630174305074" lon="7.061142610024027"><ele>1546.0</ele><time>2026-05-02T14:46:12Z</time></trkpt><trkpt lat="45.09641693120674" lon="7.061137142385191"><ele>1546.0</ele><time>2026-05-02T14:46:13Z</time></trkpt><trkpt lat="45.09653362239609" lon="7.061198094146494"><ele>1546.0</ele><time>2026-05-02T14:46:14Z</time></trkpt><trkpt lat="45.09662663197362" lon="7.0612151913899"><ele>1546.0</ele><time>2026-05-02T14:46:15Z</time></trkpt><trkpt lat="45.096722611677336" lon="7.061215079879624"><ele>1546.0</ele><time>2026-05-02T14:46:17Z</time></trkpt><trkpt lat="45.096849988130884" lon="7.061094572140845"><ele>1543.0</ele><time>2026-05-02T14:46:19Z</time></trkpt><trkpt lat="45.096941435652894" lon="7.061001361503531"><ele>1540.0</ele><time>2026-05-02T14:46:20Z</time></trkpt><trkpt lat="45.09704141828799" lon="7.060933856476917"><ele>1537.0</ele><time>2026-05-02T14:46:21Z</time></trkpt><trkpt lat="45.097150952452644" lon="7.060875846069766"><ele>1534.0</ele><time>2026-05-02T14:46:22Z</time></trkpt><trkpt lat="45.09725790288512" lon="7.060851382589356"><ele>1531.0</ele><time>2026-05-02T14:46:23Z</time></trkpt><trkpt lat="45.09736971219011" lon="7.0608895367400155"><ele>1529.6666666666665</ele><time>2026-05-02T14:46:24Z</time></trkpt><trkpt lat="45.09747270375677" lon="7.060891662006812"><ele>1528.3333333333333</ele><time>2026-05-02T14:46:25Z</time></trkpt><trkpt lat="45.09756647992394" lon="7.060917567921451"><ele>1527.0</ele><time>2026-05-02T14:46:26Z</time></trkpt><trkpt lat="45.097644706066674" lon="7.060923476850329"><ele>1525.6666666666667</ele><time>2026-05-02T14:46:27Z</time></trkpt><trkpt lat="45.09772224528557" lon="7.060916916066342"><ele>1524.3333333333335</ele><time>2026-05-02T14:46:28Z</time></trkpt><trkpt lat="45.09780995777645" lon="7.060871930573714"><ele>1523.0</ele><time>2026-05-02T14:46:29Z</time></trkpt><trkpt lat="45.09787159570896" lon="7.06080703271586"><ele>1527.6000000000001</ele><time>2026-05-02T14:46:30Z</time></trkpt><trkpt lat="45.097935794376866" lon="7.060748297503116"><ele>1532.2</ele><time>2026-05-02T14:46:31Z</time></trkpt><trkpt lat="45.0980066434542" lon="7.0606350645264015"><ele>1536.8</ele><time>2026-05-02T14:46:33Z</time></trkpt><trkpt lat="45.097974819231936" lon="7.060527767293589"><ele>1541.4</ele><time>2026-05-02T14:46:35Z</time></trkpt><trkpt lat="45.09786550826045" lon="7.060526026065155"><ele>1546.0</ele><time>2026-05-02T14:46:37Z</time></trkpt><trkpt lat="45.097790740691636" lon="7.060572066834862"><ele>1546.0</ele><time>2026-05-02T14:46:38Z</time></trkpt><trkpt lat="45.09768547299724" lon="7.060615327973575"><ele>1546.0</ele><time>2026-05-02T14:46:39Z</time></trkpt><trkpt lat="45.09757843567317" lon="7.060602658628375"><ele>1546.0</ele><time>2026-05-02T14:46:40Z</time></trkpt><trkpt lat="45.097464623440175" lon="7.060574622920914"><ele>1546.0</ele><time>2026-05-02T14:46:41Z</time></trkpt><trkpt lat="45.09736481203661" lon="7.060531986453214"><ele>1546.0</ele><time>2026-05-02T14:46:41.999Z</time></trkpt><trkpt lat="45.09724503940815" lon="7.060481044445038"><ele>1546.75</ele><time>2026-05-02T14:46:42.999Z</time></trkpt><trkpt lat="45.09712003882468" lon="7.060455240331268"><ele>1547.5</ele><time>2026-05-02T14:46:43.999Z</time></trkpt><trkpt lat="45.0970034174935" lon="7.060428849130761"><ele>1548.25</ele><time>2026-05-02T14:46:44.999Z</time></trkpt><trkpt lat="45.09689868458072" lon="7.060428776355567"><ele>1549.0</ele><time>2026-05-02T14:46:45.999Z</time></trkpt><trkpt lat="45.096792686691984" lon="7.060460394769987"><ele>1627.0</ele><time>2026-05-02T14:46:46.999Z</time></trkpt><trkpt lat="45.09100978218097" lon="7.060649507342866"><ele>1627.0000000000002</ele><time>2026-05-02T14:47:48Z</time></trkpt><trkpt lat="45.09113634582071" lon="7.060715797084781"><ele>1627.0</ele><time>2026-05-02T14:47:50Z</time></trkpt><trkpt lat="45.09119877706681" lon="7.060757107813738"><ele>1627.0</ele><time>2026-05-02T14:47:51Z</time></trkpt><trkpt lat="45.09127635988959" lon="7.060852460352474"><ele>1627.0</ele><time>2026-05-02T14:47:53Z</time></trkpt><trkpt lat="45.09128483430171" lon="7.060949127100512"><ele>1627.0000000000002</ele><time>2026-05-02T14:47:54Z</time></trkpt><trkpt lat="45.091267950193355" lon="7.061047149462283"><ele>1627.0</ele><time>2026-05-02T14:47:55Z</time></trkpt><trkpt lat="45.0912411286975" lon="7.061151602502512"><ele>1625.3999999999999</ele><time>2026-05-02T14:47:56Z</time></trkpt><trkpt lat="45.09120931472788" lon="7.061252268041576"><ele>1623.8</ele><time>2026-05-02T14:47:57Z</time></trkpt><trkpt lat="45.09114716574139" lon="7.061351871314427"><ele>1622.2</ele><time>2026-05-02T14:47:58Z</time></trkpt><trkpt lat="45.091102272399674" lon="7.06142964783217"><ele>1620.6</ele><time>2026-05-02T14:47:59Z</time></trkpt><trkpt lat="45.09103628375453" lon="7.061540814821735"><ele>1619.0</ele><time>2026-05-02T14:48:00Z</time></trkpt><trkpt lat="45.09095684269133" lon="7.061713826132363"><ele>1619.0</ele><time>2026-05-02T14:48:01Z</time></trkpt><trkpt lat="45.09087169282038" lon="7.061844759095318"><ele>1619.0</ele><time>2026-05-02T14:48:02Z</time></trkpt><trkpt lat="45.09079825459798" lon="7.061957953675672"><ele>1619.0</ele><time>2026-05-02T14:48:03Z</time></trkpt><trkpt lat="45.090737739352456" lon="7.062086605634766"><ele>1619.0</ele><time>2026-05-02T14:48:04Z</time></trkpt><trkpt lat="45.09068879007373" lon="7.062218738848132"><ele>1619.0</ele><time>2026-05-02T14:48:05Z</time></trkpt><trkpt lat="45.09064421065011" lon="7.06234171544288"><ele>1627.4</ele><time>2026-05-02T14:48:06Z</time></trkpt><trkpt lat="45.09062512115288" lon="7.06246106054413"><ele>1635.8000000000002</ele><time>2026-05-02T14:48:07Z</time></trkpt><trkpt lat="45.09063266437184" lon="7.062597746498299"><ele>1644.1999999999998</ele><time>2026-05-02T14:48:08Z</time></trkpt><trkpt lat="45.090641199285805" lon="7.062726629752101"><ele>1652.6</ele><time>2026-05-02T14:48:09Z</time></trkpt><trkpt lat="45.09068955786264" lon="7.062848738888427"><ele>1661.0</ele><time>2026-05-02T14:48:10Z</time></trkpt><trkpt lat="45.09075474104748" lon="7.062961048277159"><ele>1660.9999999999998</ele><time>2026-05-02T14:48:11Z</time></trkpt><trkpt lat="45.09079204428284" lon="7.063036130364481"><ele>1661.0</ele><time>2026-05-02T14:48:12Z</time></trkpt><trkpt lat="45.090788311878306" lon="7.0631325823525035"><ele>1661.0</ele><time>2026-05-02T14:48:13Z</time></trkpt><trkpt lat="45.09074531414358" lon="7.063241358115773"><ele>1661.0</ele><time>2026-05-02T14:48:14Z</time></trkpt><trkpt lat="45.090736063249274" lon="7.06337517597654"><ele>1660.9999999999998</ele><time>2026-05-02T14:48:15Z</time></trkpt><trkpt lat="45.09074072220906" lon="7.0635040848234585"><ele>1661.0</ele><time>2026-05-02T14:48:16Z</time></trkpt><trkpt lat="45.090774400029545" lon="7.063607951434037"><ele>1654.4</ele><time>2026-05-02T14:48:17Z</time></trkpt><trkpt lat="45.09083937193905" lon="7.063690457733978"><ele>1647.8</ele><time>2026-05-02T14:48:18Z</time></trkpt><trkpt lat="45.090914080751055" lon="7.063770705101559"><ele>1641.2</ele><time>2026-05-02T14:48:19Z</time></trkpt><trkpt lat="45.09098001073517" lon="7.063871259872448"><ele>1634.6000000000001</ele><time>2026-05-02T14:48:20Z</time></trkpt><trkpt lat="45.091044550955736" lon="7.063972714253518"><ele>1628.0</ele><time>2026-05-02T14:48:21Z</time></trkpt><trkpt lat="45.09112523332782" lon="7.0640885284633805"><ele>1633.2</ele><time>2026-05-02T14:48:22Z</time></trkpt><trkpt lat="45.09122105893012" lon="7.064199039173158"><ele>1638.4</ele><time>2026-05-02T14:48:23Z</time></trkpt><trkpt lat="45.091318735916694" lon="7.0642935991333875"><ele>1643.6000000000001</ele><time>2026-05-02T14:48:24Z</time></trkpt><trkpt lat="45.09140591982698" lon="7.064382047654979"><ele>1648.8000000000002</ele><time>2026-05-02T14:48:25Z</time></trkpt><trkpt lat="45.09146587450663" lon="7.064439510164716"><ele>1654.0</ele><time>2026-05-02T14:48:26Z</time></trkpt><trkpt lat="45.091510127250224" lon="7.064521897098032"><ele>1654.0000000000002</ele><time>2026-05-02T14:48:28Z</time></trkpt><trkpt lat="45.091390435236875" lon="7.064469659237291"><ele>1654.0</ele><time>2026-05-02T14:48:32Z</time></trkpt><trkpt lat="45.091328176694866" lon="7.064438022723684"><ele>1654.0</ele><time>2026-05-02T14:48:33Z</time></trkpt><trkpt lat="45.09125261509512" lon="7.064388652028344"><ele>1654.0</ele><time>2026-05-02T14:48:34Z</time></trkpt><trkpt lat="45.09118493718922" lon="7.0643467687811095"><ele>1654.0000000000002</ele><time>2026-05-02T14:48:35Z</time></trkpt><trkpt lat="45.09109945387558" lon="7.064340367142968"><ele>1654.0</ele><time>2026-05-02T14:48:35.999Z</time></trkpt><trkpt lat="45.090996829779485" lon="7.064333597173623"><ele>1654.0000000000002</ele><time>2026-05-02T14:48:36.999Z</time></trkpt><trkpt lat="45.09090988888969" lon="7.064300450702738"><ele>1654.0</ele><time>2026-05-02T14:48:37.999Z</time></trkpt><trkpt lat="45.09082747931852" lon="7.064225529941129"><ele>1654.0</ele><time>2026-05-02T14:48:38.999Z</time></trkpt><trkpt lat="45.09077137407405" lon="7.064120066831918"><ele>1654.0</ele><time>2026-05-02T14:48:39.999Z</time></trkpt><trkpt lat="45.090704432334206" lon="7.064047728852823"><ele>1654.0000000000002</ele><time>2026-05-02T14:48:40.999Z</time></trkpt><trkpt lat="45.090642162442975" lon="7.063980439263"><ele>1654.0</ele><time>2026-05-02T14:48:41.999Z</time></trkpt><trkpt lat="45.090561750253734" lon="7.063984422903826"><ele>1655.8000000000002</ele><time>2026-05-02T14:48:42.999Z</time></trkpt><trkpt lat="45.090483453782745" lon="7.063963385024329"><ele>1657.6000000000001</ele><time>2026-05-02T14:48:43.999Z</time></trkpt><trkpt lat="45.09039998651333" lon="7.063937355838356"><ele>1659.4</ele><time>2026-05-02T14:48:44.999Z</time></trkpt><trkpt lat="45.09030697274153" lon="7.063892557062508"><ele>1661.2</ele><time>2026-05-02T14:48:45.999Z</time></trkpt><trkpt lat="45.0902736449814" lon="7.063771012928129"><ele>1663.0</ele><time>2026-05-02T14:48:46.999Z</time></trkpt><trkpt lat="45.08666652176939" lon="7.061554319751254"><ele>1679.3333333333335</ele><time>2026-05-02T14:49:48Z</time></trkpt><trkpt lat="45.08662430317116" lon="7.0614879451870936"><ele>1695.6666666666665</ele><time>2026-05-02T14:50:21Z</time></trkpt><trkpt lat="45.08666768723372" lon="7.061556152123448"><ele>1712.0</ele><time>2026-05-02T14:50:45.999Z</time></trkpt><trkpt lat="45.08891271699126" lon="7.066002123045153"><ele>1720.8</ele><time>2026-05-02T14:54:47.999Z</time></trkpt><trkpt lat="45.08899524743429" lon="7.06605217744935"><ele>1729.6</ele><time>2026-05-02T14:54:48.999Z</time></trkpt><trkpt lat="45.08907718522555" lon="7.066108036210164"><ele>1738.3999999999999</ele><time>2026-05-02T14:54:49.999Z</time></trkpt><trkpt lat="45.089165033693824" lon="7.066161117329851"><ele>1747.1999999999998</ele><time>2026-05-02T14:54:50.999Z</time></trkpt><trkpt lat="45.08925195466333" lon="7.066195560858328"><ele>1756.0</ele><time>2026-05-02T14:54:51.999Z</time></trkpt><trkpt lat="45.08935511079477" lon="7.066195490153757"><ele>1756.0</ele><time>2026-05-02T14:54:52.999Z</time></trkpt><trkpt lat="45.08945884583373" lon="7.06618632227733"><ele>1756.0</ele><time>2026-05-02T14:54:53.999Z</time></trkpt><trkpt lat="45.08956313840332" lon="7.066176861616348"><ele>1756.0</ele><time>2026-05-02T14:54:54.999Z</time></trkpt><trkpt lat="45.08967423563529" lon="7.066160920948577"><ele>1756.0</ele><time>2026-05-02T14:54:55.999Z</time></trkpt><trkpt lat="45.089761593626704" lon="7.066148687503824"><ele>1756.0</ele><time>2026-05-02T14:54:56.999Z</time></trkpt><trkpt lat="45.089828169617554" lon="7.066146610917417"><ele>1756.0000000000002</ele><time>2026-05-02T14:54:57.999Z</time></trkpt><trkpt lat="45.089923281106564" lon="7.066173020905156"><ele>1756.0</ele><time>2026-05-02T14:54:59.999Z</time></trkpt><trkpt lat="45.08997576586923" lon="7.0662685528371405"><ele>1756.0</ele><time>2026-05-02T14:55:02.999Z</time></trkpt><trkpt lat="45.089914125714145" lon="7.066342827382673"><ele>1756.0</ele><time>2026-05-02T14:55:04.999Z</time></trkpt><trkpt lat="45.08988301649196" lon="7.066249707767827"><ele>1756.0000000000002</ele><time>2026-05-02T14:55:05.999Z</time></trkpt><trkpt lat="45.08980014549521" lon="7.066239427541058"><ele>1756.0</ele><time>2026-05-02T14:55:06.999Z</time></trkpt><trkpt lat="45.08973337560593" lon="7.066241979610009"><ele>1756.0000000000002</ele><time>2026-05-02T14:55:07.999Z</time></trkpt><trkpt lat="45.089676878581514" lon="7.066297805006658"><ele>1756.0</ele><time>2026-05-02T14:55:08.999Z</time></trkpt><trkpt lat="45.08960876658219" lon="7.066343314497373"><ele>1756.0</ele><time>2026-05-02T14:55:09.999Z</time></trkpt><trkpt lat="45.0895294828213" lon="7.066362594300578"><ele>1756.0</ele><time>2026-05-02T14:55:10.999Z</time></trkpt><trkpt lat="45.08944847303191" lon="7.0664035605563695"><ele>1756.0000000000002</ele><time>2026-05-02T14:55:11.999Z</time></trkpt><trkpt lat="45.08936366837425" lon="7.066425150455929"><ele>1756.0</ele><time>2026-05-02T14:55:12.999Z</time></trkpt><trkpt lat="45.08927388917122" lon="7.0664317773265655"><ele>1756.0000000000002</ele><time>2026-05-02T14:55:13.999Z</time></trkpt><trkpt lat="45.089166073565174" lon="7.066437875855156"><ele>1756.0</ele><time>2026-05-02T14:55:14.999Z</time></trkpt><trkpt lat="45.08906788027939" lon="7.066437223811151"><ele>1756.0</ele><time>2026-05-02T14:55:15.999Z</time></trkpt><trkpt lat="45.088985647431485" lon="7.066431202529528"><ele>1756.0</ele><time>2026-05-02T14:55:16.999Z</time></trkpt><trkpt lat="45.08892176027085" lon="7.066423646608408"><ele>1756.0000000000002</ele><time>2026-05-02T14:55:17.999Z</time></trkpt><trkpt lat="45.0888586520269" lon="7.066419139437207"><ele>1756.0</ele><time>2026-05-02T14:55:18.999Z</time></trkpt><trkpt lat="45.08878503727238" lon="7.066409871612951"><ele>1760.0000000000002</ele><time>2026-05-02T14:55:19.999Z</time></trkpt><trkpt lat="45.088697541632875" lon="7.0663999471907415"><ele>1764.0</ele><time>2026-05-02T14:55:20.999Z</time></trkpt><trkpt lat="45.08859094971704" lon="7.066353192649169"><ele>1768.0</ele><time>2026-05-02T14:55:21.999Z</time></trkpt><trkpt lat="45.08849867114271" lon="7.066316903703041"><ele>1772.0</ele><time>2026-05-02T14:55:22.999Z</time></trkpt><trkpt lat="45.0884280949532" lon="7.066264639672589"><ele>1776.0000000000002</ele><time>2026-05-02T14:55:23.999Z</time></trkpt><trkpt lat="45.08837652820915" lon="7.066196737580706"><ele>1780.0</ele><time>2026-05-02T14:55:24.999Z</time></trkpt><trkpt lat="45.08833004516351" lon="7.0661111473217355"><ele>1780.0000000000002</ele><time>2026-05-02T14:55:25.999Z</time></trkpt><trkpt lat="45.08827617872354" lon="7.0660123097581"><ele>1780.0</ele><time>2026-05-02T14:55:26.999Z</time></trkpt><trkpt lat="45.08821899465381" lon="7.065914086261865"><ele>1780.0</ele><time>2026-05-02T14:55:27.999Z</time></trkpt><trkpt lat="45.088149827428325" lon="7.0658306430703615"><ele>1780.0</ele><time>2026-05-02T14:55:28.999Z</time></trkpt><trkpt lat="45.088105641518005" lon="7.065722096758279"><ele>1780.0000000000002</ele><time>2026-05-02T14:55:29.999Z</time></trkpt><trkpt lat="45.088047927298476" lon="7.065641894274076"><ele>1780.0</ele><time>2026-05-02T14:55:31Z</time></trkpt><trkpt lat="45.087992009676384" lon="7.0655922230090304"><ele>1781.857142857143</ele><time>2026-05-02T14:55:32Z</time></trkpt><trkpt lat="45.08793418641249" lon="7.065527243032059"><ele>1783.7142857142858</ele><time>2026-05-02T14:55:33Z</time></trkpt><trkpt lat="45.08787320001752" lon="7.0654785157425914"><ele>1785.5714285714287</ele><time>2026-05-02T14:55:34Z</time></trkpt><trkpt lat="45.08781075838702" lon="7.0654526528685695"><ele>1787.4285714285716</ele><time>2026-05-02T14:55:35Z</time></trkpt><trkpt lat="45.08774038707555" lon="7.065439870679925"><ele>1789.2857142857142</ele><time>2026-05-02T14:55:36Z</time></trkpt><trkpt lat="45.08766963241465" lon="7.065439017973659"><ele>1791.1428571428573</ele><time>2026-05-02T14:55:37Z</time></trkpt><trkpt lat="45.08758750826928" lon="7.065428125881627"><ele>1793.0000000000002</ele><time>2026-05-02T14:55:38Z</time></trkpt><trkpt lat="45.08751426411519" lon="7.065383412305674"><ele>1793.0</ele><time>2026-05-02T14:55:39Z</time></trkpt><trkpt lat="45.0874330329601" lon="7.065338981080744"><ele>1793.0000000000002</ele><time>2026-05-02T14:55:40Z</time></trkpt><trkpt lat="45.0873515339632" lon="7.065283431064015"><ele>1793.0000000000002</ele><time>2026-05-02T14:55:41Z</time></trkpt><trkpt lat="45.08728427128903" lon="7.0652256902058985"><ele>1793.0</ele><time>2026-05-02T14:55:42Z</time></trkpt><trkpt lat="45.08719818825723" lon="7.065124118455206"><ele>1793.0</ele><time>2026-05-02T14:55:44Z</time></trkpt><trkpt lat="45.08712317550818" lon="7.065022803542186"><ele>1857.0</ele><time>2026-05-02T14:55:46Z</time></trkpt><trkpt lat="45.08469571155141" lon="7.0622697471578695"><ele>1857.0</ele><time>2026-05-02T14:56:47.999Z</time></trkpt><trkpt lat="45.08465827109837" lon="7.062192114831609"><ele>1856.9999999999998</ele><time>2026-05-02T14:56:48.999Z</time></trkpt><trkpt lat="45.08459783777052" lon="7.062043767369237"><ele>1856.9999999999998</ele><time>2026-05-02T14:56:50.999Z</time></trkpt><trkpt lat="45.08455455820906" lon="7.0619284225295536"><ele>1857.0</ele><time>2026-05-02T14:56:52.999Z</time></trkpt><trkpt lat="45.08451587712039" lon="7.061812429741511"><ele>1857.0</ele><time>2026-05-02T14:56:54.999Z</time></trkpt><trkpt lat="45.0844718628192" lon="7.061701583254703"><ele>1855.0</ele><time>2026-05-02T14:56:56.999Z</time></trkpt><trkpt lat="45.08443913326738" lon="7.061581651085972"><ele>1852.9999999999998</ele><time>2026-05-02T14:56:58.999Z</time></trkpt><trkpt lat="45.08441361281554" lon="7.061453627201124"><ele>1850.9999999999998</ele><time>2026-05-02T14:57:00.999Z</time></trkpt><trkpt lat="45.08436200424858" lon="7.0612961434647135"><ele>1849.0</ele><time>2026-05-02T14:57:02.999Z</time></trkpt><trkpt lat="45.08432402024457" lon="7.061172504732427"><ele>1847.0</ele><time>2026-05-02T14:57:03.999Z</time></trkpt><trkpt lat="45.08426578051587" lon="7.061027050961483"><ele>1846.9999999999998</ele><time>2026-05-02T14:57:05.999Z</time></trkpt><trkpt lat="45.08424121339641" lon="7.060926126454529"><ele>1847.0</ele><time>2026-05-02T14:57:06.999Z</time></trkpt><trkpt lat="45.08423118769153" lon="7.060831526893372"><ele>1846.9999999999998</ele><time>2026-05-02T14:57:07.999Z</time></trkpt><trkpt lat="45.08423455059665" lon="7.060726821714598"><ele>1846.9999999999998</ele><time>2026-05-02T14:57:08.999Z</time></trkpt><trkpt lat="45.08423128859171" lon="7.060620122369822"><ele>1847.0</ele><time>2026-05-02T14:57:09.999Z</time></trkpt><trkpt lat="45.084240729811675" lon="7.060508234718817"><ele>1846.9999999999998</ele><time>2026-05-02T14:57:10.999Z</time></trkpt><trkpt lat="45.0842509751647" lon="7.060404387929355"><ele>1846.9999999999998</ele><time>2026-05-02T14:57:11.999Z</time></trkpt><trkpt lat="45.08422510276283" lon="7.060300224323975"><ele>1846.9999999999998</ele><time>2026-05-02T14:57:12.999Z</time></trkpt><trkpt lat="45.0842055779734" lon="7.060199965380533"><ele>1847.0</ele><time>2026-05-02T14:57:13.999Z</time></trkpt><trkpt lat="45.08416818637147" lon="7.060108434360176"><ele>1846.9999999999998</ele><time>2026-05-02T14:57:14.999Z</time></trkpt><trkpt lat="45.0841200614904" lon="7.060028665694875"><ele>1846.9999999999998</ele><time>2026-05-02T14:57:15.999Z</time></trkpt><trkpt lat="45.084078583113275" lon="7.059938514580186"><ele>1847.0</ele><time>2026-05-02T14:57:16.999Z</time></trkpt><trkpt lat="45.08405203202355" lon="7.059840595503376"><ele>1846.9999999999998</ele><time>2026-05-02T14:57:17.999Z</time></trkpt><trkpt lat="45.0840057838962" lon="7.059761848102256"><ele>1846.9999999999998</ele><time>2026-05-02T14:57:18.999Z</time></trkpt><trkpt lat="45.083964735779205" lon="7.059667012956041"><ele>1849.0</ele><time>2026-05-02T14:57:19.999Z</time></trkpt><trkpt lat="45.083921780027104" lon="7.05956828141029"><ele>1850.9999999999998</ele><time>2026-05-02T14:57:20.999Z</time></trkpt><trkpt lat="45.08387726281425" lon="7.059439531711217"><ele>1852.9999999999998</ele><time>2026-05-02T14:57:21.999Z</time></trkpt><trkpt lat="45.083833256280194" lon="7.05934633813253"><ele>1855.0</ele><time>2026-05-02T14:57:22.999Z</time></trkpt><trkpt lat="45.08376496462354" lon="7.05929494002616"><ele>1857.0</ele><time>2026-05-02T14:57:23.999Z</time></trkpt><trkpt lat="45.083650463745286" lon="7.059206426252486"><ele>1857.0</ele><time>2026-05-02T14:57:25.999Z</time></trkpt><trkpt lat="45.083584914632" lon="7.059157529439815"><ele>1857.0</ele><time>2026-05-02T14:57:26.999Z</time></trkpt><trkpt lat="45.08349332890431" lon="7.05913443754127"><ele>1857.0</ele><time>2026-05-02T14:57:27.999Z</time></trkpt><trkpt lat="45.08341818944862" lon="7.059103468911692"><ele>1857.0</ele><time>2026-05-02T14:57:28.999Z</time></trkpt><trkpt lat="45.08332953258154" lon="7.059080854822732"><ele>1857.0</ele><time>2026-05-02T14:57:29.999Z</time></trkpt><trkpt lat="45.08324288806338" lon="7.059035346498351"><ele>1857.0</ele><time>2026-05-02T14:57:30.999Z</time></trkpt><trkpt lat="45.08314967500193" lon="7.059014752363714"><ele>1856.8</ele><time>2026-05-02T14:57:31.999Z</time></trkpt><trkpt lat="45.08305355328133" lon="7.0589957921936906"><ele>1856.6</ele><time>2026-05-02T14:57:32.999Z</time></trkpt><trkpt lat="45.082930010966805" lon="7.0589914934106845"><ele>1856.3999999999999</ele><time>2026-05-02T14:57:33.999Z</time></trkpt><trkpt lat="45.0828358664654" lon="7.058987848175184"><ele>1856.1999999999998</ele><time>2026-05-02T14:57:34.999Z</time></trkpt><trkpt lat="45.08276727073165" lon="7.05898526356913"><ele>1856.0</ele><time>2026-05-02T14:57:35.999Z</time></trkpt><trkpt lat="45.082683289867724" lon="7.058956929319022"><ele>1856.0</ele><time>2026-05-02T14:57:37Z</time></trkpt><trkpt lat="45.08260985772096" lon="7.058947155572564"><ele>1856.0</ele><time>2026-05-02T14:57:38Z</time></trkpt><trkpt lat="45.08253122037295" lon="7.058937682005548"><ele>1856.0</ele><time>2026-05-02T14:57:39Z</time></trkpt><trkpt lat="45.0824420992559" lon="7.058932393489316"><ele>1856.0</ele><time>2026-05-02T14:57:40Z</time></trkpt><trkpt lat="45.082310947780535" lon="7.058953735260031"><ele>1856.0</ele><time>2026-05-02T14:57:41Z</time></trkpt><trkpt lat="45.08223160358292" lon="7.058967693162449"><ele>1858.6</ele><time>2026-05-02T14:57:42Z</time></trkpt><trkpt lat="45.08213990597788" lon="7.059004905409669"><ele>1861.1999999999998</ele><time>2026-05-02T14:57:43Z</time></trkpt><trkpt lat="45.0820521773347" lon="7.059035334903275"><ele>1863.8000000000002</ele><time>2026-05-02T14:57:44Z</time></trkpt><trkpt lat="45.08195550829727" lon="7.059079091963495"><ele>1866.4</ele><time>2026-05-02T14:57:45Z</time></trkpt><trkpt lat="45.08185175674532" lon="7.0591307638635445"><ele>1869.0</ele><time>2026-05-02T14:57:46Z</time></trkpt><trkpt lat="45.08176276778368" lon="7.059198279695805"><ele>1925.0</ele><time>2026-05-02T14:57:47Z</time></trkpt><trkpt lat="45.080505474550456" lon="7.056115059593517"><ele>1925.0</ele><time>2026-05-02T14:58:48Z</time></trkpt><trkpt lat="45.08041687738815" lon="7.055992452373773"><ele>1925.0</ele><time>2026-05-02T14:58:50Z</time></trkpt><trkpt lat="45.08039251266742" lon="7.055907186027971"><ele>1925.0</ele><time>2026-05-02T14:58:51Z</time></trkpt><trkpt lat="45.08038709508409" lon="7.055765339413455"><ele>1925.0</ele><time>2026-05-02T14:58:53Z</time></trkpt><trkpt lat="45.08042060408108" lon="7.055601044139612"><ele>1925.0</ele><time>2026-05-02T14:58:54.999Z</time></trkpt><trkpt lat="45.0804431413244" lon="7.055476308066819"><ele>1927.4</ele><time>2026-05-02T14:58:55.999Z</time></trkpt><trkpt lat="45.0804686010771" lon="7.0553544128790175"><ele>1929.8</ele><time>2026-05-02T14:58:56.999Z</time></trkpt><trkpt lat="45.08049463479836" lon="7.055256750044315"><ele>1932.1999999999998</ele><time>2026-05-02T14:58:57.999Z</time></trkpt><trkpt lat="45.08054406233257" lon="7.055133040539455"><ele>1934.6</ele><time>2026-05-02T14:58:59.999Z</time></trkpt><trkpt lat="45.08067288903561" lon="7.055121203981306"><ele>1937.0</ele><time>2026-05-02T14:59:01.999Z</time></trkpt><trkpt lat="45.080748559015085" lon="7.055163587581545"><ele>1935.3333333333333</ele><time>2026-05-02T14:59:02.999Z</time></trkpt><trkpt lat="45.080838709234996" lon="7.0551695468313795"><ele>1933.6666666666665</ele><time>2026-05-02T14:59:03.999Z</time></trkpt><trkpt lat="45.080917333468705" lon="7.055154060447255"><ele>1932.0</ele><time>2026-05-02T14:59:04.999Z</time></trkpt><trkpt lat="45.080994461150645" lon="7.055085316228535"><ele>1930.3333333333335</ele><time>2026-05-02T14:59:05.999Z</time></trkpt><trkpt lat="45.08105482589956" lon="7.0550175220587885"><ele>1928.6666666666667</ele><time>2026-05-02T14:59:06.999Z</time></trkpt><trkpt lat="45.08112130915238" lon="7.0549220492916564"><ele>1927.0</ele><time>2026-05-02T14:59:07.999Z</time></trkpt><trkpt lat="45.08121059942027" lon="7.054847659995494"><ele>1928.5000000000002</ele><time>2026-05-02T14:59:08.999Z</time></trkpt><trkpt lat="45.08128941413961" lon="7.0547493270359"><ele>1930.0</ele><time>2026-05-02T14:59:09.999Z</time></trkpt><trkpt lat="45.081353838763086" lon="7.054674222432227"><ele>1931.5</ele><time>2026-05-02T14:59:10.999Z</time></trkpt><trkpt lat="45.08141864134994" lon="7.054606828156345"><ele>1933.0</ele><time>2026-05-02T14:59:11.999Z</time></trkpt><trkpt lat="45.0814828210174" lon="7.054537103248229"><ele>1934.5000000000002</ele><time>2026-05-02T14:59:12.999Z</time></trkpt><trkpt lat="45.08155558945992" lon="7.054492657249505"><ele>1936.0</ele><time>2026-05-02T14:59:13.999Z</time></trkpt><trkpt lat="45.08161036480074" lon="7.054438205800516"><ele>1936.0000000000002</ele><time>2026-05-02T14:59:14.999Z</time></trkpt><trkpt lat="45.081671046530914" lon="7.0543867897179835"><ele>1936.0</ele><time>2026-05-02T14:59:15.999Z</time></trkpt><trkpt lat="45.08175065183049" lon="7.054334259174986"><ele>1936.0</ele><time>2026-05-02T14:59:16.999Z</time></trkpt><trkpt lat="45.08182418331388" lon="7.054282803241312"><ele>1936.0</ele><time>2026-05-02T14:59:17.999Z</time></trkpt><trkpt lat="45.08189539014309" lon="7.054218804826067"><ele>1936.0000000000002</ele><time>2026-05-02T14:59:18.999Z</time></trkpt><trkpt lat="45.081962874634996" lon="7.054125520515727"><ele>1936.0</ele><time>2026-05-02T14:59:20.999Z</time></trkpt><trkpt lat="45.08174108196426" lon="7.054356090634277"><ele>1936.0</ele><time>2026-05-02T15:04:47.999Z</time></trkpt><trkpt lat="45.081672297663495" lon="7.054402249421144"><ele>1935.9999999999998</ele><time>2026-05-02T15:04:50.999Z</time></trkpt><trkpt lat="45.08160708069948" lon="7.054448702389618"><ele>1936.0</ele><time>2026-05-02T15:04:53.999Z</time></trkpt><trkpt lat="45.08153993556035" lon="7.05450722547222"><ele>1936.0</ele><time>2026-05-02T15:04:56.999Z</time></trkpt><trkpt lat="45.08148459603644" lon="7.054560622324224"><ele>1935.9999999999998</ele><time>2026-05-02T15:04:58.999Z</time></trkpt><trkpt lat="45.08142523656982" lon="7.0546200500276495"><ele>1936.0</ele><time>2026-05-02T15:05:00.999Z</time></trkpt><trkpt lat="45.08136546135896" lon="7.054683437695079"><ele>1936.0</ele><time>2026-05-02T15:05:02.999Z</time></trkpt><trkpt lat="45.08130913361957" lon="7.0547474077028"><ele>1934.1999999999998</ele><time>2026-05-02T15:05:04.999Z</time></trkpt><trkpt lat="45.08124470013818" lon="7.0548198316139885"><ele>1932.3999999999999</ele><time>2026-05-02T15:05:06.999Z</time></trkpt><trkpt lat="45.08117882485358" lon="7.0548918821399464"><ele>1930.6</ele><time>2026-05-02T15:05:08.999Z</time></trkpt><trkpt lat="45.08110133441243" lon="7.054969651385509"><ele>1928.8</ele><time>2026-05-02T15:05:10.999Z</time></trkpt><trkpt lat="45.081020583561624" lon="7.055053295855308"><ele>1927.0</ele><time>2026-05-02T15:05:12.999Z</time></trkpt><trkpt lat="45.080942378661035" lon="7.055134996082949"><ele>1927.0</ele><time>2026-05-02T15:05:14.999Z</time></trkpt><trkpt lat="45.08085576879082" lon="7.055206800498249"><ele>1926.9999999999998</ele><time>2026-05-02T15:05:16.999Z</time></trkpt><trkpt lat="45.08075606895573" lon="7.055222591112113"><ele>1926.9999999999998</ele><time>2026-05-02T15:05:18.999Z</time></trkpt><trkpt lat="45.080641698169025" lon="7.055138520265909"><ele>1927.0</ele><time>2026-05-02T15:05:20.999Z</time></trkpt><trkpt lat="45.08054736968008" lon="7.0551411592445605"><ele>1927.0</ele><time>2026-05-02T15:05:22.999Z</time></trkpt><trkpt lat="45.08047794276593" lon="7.05512781148118"><ele>1926.6</ele><time>2026-05-02T15:05:24.999Z</time></trkpt><trkpt lat="45.08043531667696" lon="7.055307153764306"><ele>1926.1999999999998</ele><time>2026-05-02T15:05:25.999Z</time></trkpt><trkpt lat="45.080411024885535" lon="7.055437092954007"><ele>1925.8</ele><time>2026-05-02T15:05:27.999Z</time></trkpt><trkpt lat="45.080395979790545" lon="7.055592438778042"><ele>1925.4</ele><time>2026-05-02T15:05:29.999Z</time></trkpt><trkpt lat="45.080365585621585" lon="7.055737342304639"><ele>1925.0</ele><time>2026-05-02T15:05:31.999Z</time></trkpt><trkpt lat="45.08036461518129" lon="7.0558580010622345"><ele>1925.0</ele><time>2026-05-02T15:05:33.999Z</time></trkpt><trkpt lat="45.08040132976959" lon="7.0559895906311745"><ele>1925.0</ele><time>2026-05-02T15:05:35.999Z</time></trkpt><trkpt lat="45.080454844273454" lon="7.056106555743793"><ele>1925.0</ele><time>2026-05-02T15:05:37.999Z</time></trkpt><trkpt lat="45.080522076121554" lon="7.056188551662189"><ele>1925.0</ele><time>2026-05-02T15:05:39.999Z</time></trkpt><trkpt lat="45.08060741769223" lon="7.056258800184847"><ele>1925.0</ele><time>2026-05-02T15:05:41.999Z</time></trkpt><trkpt lat="45.080671953686476" lon="7.056364457890145"><ele>1925.0</ele><time>2026-05-02T15:05:43.999Z</time></trkpt><trkpt lat="45.08070107572196" lon="7.056509954600801"><ele>1925.0</ele><time>2026-05-02T15:05:45.999Z</time></trkpt><trkpt lat="45.08022852590058" lon="7.058600279658267"><ele>1920.6</ele><time>2026-05-02T15:08:47.999Z</time></trkpt><trkpt lat="45.08029791057864" lon="7.058647051937039"><ele>1916.2</ele><time>2026-05-02T15:08:48.999Z</time></trkpt><trkpt lat="45.08035265464948" lon="7.058711760901982"><ele>1911.8000000000002</ele><time>2026-05-02T15:08:49.999Z</time></trkpt><trkpt lat="45.08045530691817" lon="7.058800779350106"><ele>1907.4</ele><time>2026-05-02T15:08:51.999Z</time></trkpt><trkpt lat="45.08056938133862" lon="7.05890085350743"><ele>1903.0</ele><time>2026-05-02T15:08:53.999Z</time></trkpt><trkpt lat="45.080634135147314" lon="7.058963943270182"><ele>1903.0000000000002</ele><time>2026-05-02T15:08:54.999Z</time></trkpt><trkpt lat="45.08069793843655" lon="7.0590271070022075"><ele>1903.0</ele><time>2026-05-02T15:08:55.999Z</time></trkpt><trkpt lat="45.08076720858391" lon="7.059082607226814"><ele>1903.0</ele><time>2026-05-02T15:08:56.999Z</time></trkpt><trkpt lat="45.080839879485154" lon="7.059130715285237"><ele>1903.0</ele><time>2026-05-02T15:08:57.999Z</time></trkpt><trkpt lat="45.08091305021181" lon="7.059168237343755"><ele>1903.0000000000002</ele><time>2026-05-02T15:08:58.999Z</time></trkpt><trkpt lat="45.08102140171069" lon="7.05919480238601"><ele>1903.0</ele><time>2026-05-02T15:09:00.999Z</time></trkpt><trkpt lat="45.081149463497624" lon="7.05920654563291"><ele>1900.8000000000002</ele><time>2026-05-02T15:09:02.999Z</time></trkpt><trkpt lat="45.08122208801968" lon="7.059216716146151"><ele>1898.6000000000001</ele><time>2026-05-02T15:09:03.999Z</time></trkpt><trkpt lat="45.0812892139055" lon="7.059230122101041"><ele>1896.3999999999999</ele><time>2026-05-02T15:09:04.999Z</time></trkpt><trkpt lat="45.08140138690419" lon="7.059283682802482"><ele>1894.1999999999998</ele><time>2026-05-02T15:09:06.999Z</time></trkpt><trkpt lat="45.08149731077829" lon="7.0593362967556565"><ele>1892.0</ele><time>2026-05-02T15:09:08.999Z</time></trkpt><trkpt lat="45.08160441423377" lon="7.059324975852473"><ele>1890.3999999999999</ele><time>2026-05-02T15:09:10.999Z</time></trkpt><trkpt lat="45.081728265485275" lon="7.059261271824796"><ele>1888.7999999999997</ele><time>2026-05-02T15:09:12.999Z</time></trkpt><trkpt lat="45.08179034278605" lon="7.059220404075312"><ele>1887.2</ele><time>2026-05-02T15:09:13.999Z</time></trkpt><trkpt lat="45.081862485772135" lon="7.059178468128171"><ele>1885.6</ele><time>2026-05-02T15:09:14.999Z</time></trkpt><trkpt lat="45.08193177014601" lon="7.05915580999503"><ele>1884.0</ele><time>2026-05-02T15:09:15.999Z</time></trkpt><trkpt lat="45.08203763771274" lon="7.059091076070613"><ele>1881.5</ele><time>2026-05-02T15:09:17.999Z</time></trkpt><trkpt lat="45.08209911619401" lon="7.059061633039347"><ele>1879.0</ele><time>2026-05-02T15:09:18.999Z</time></trkpt><trkpt lat="45.08217492555244" lon="7.05902741461313"><ele>1876.5</ele><time>2026-05-02T15:09:19.999Z</time></trkpt><trkpt lat="45.08229657247321" lon="7.058988958681148"><ele>1874.0</ele><time>2026-05-02T15:09:21.999Z</time></trkpt><trkpt lat="45.08240213595791" lon="7.058979321432923"><ele>1871.5</ele><time>2026-05-02T15:09:23.999Z</time></trkpt><trkpt lat="45.08247658790345" lon="7.058981463285236"><ele>1869.0</ele><time>2026-05-02T15:09:24.999Z</time></trkpt><trkpt lat="45.08253934046893" lon="7.058963033015831"><ele>1866.4</ele><time>2026-05-02T15:09:25.999Z</time></trkpt><trkpt lat="45.08263088110411" lon="7.05900584849555"><ele>1863.8000000000002</ele><time>2026-05-02T15:09:27.999Z</time></trkpt><trkpt lat="45.08275164710182" lon="7.05900617390363"><ele>1861.1999999999998</ele><time>2026-05-02T15:09:29.999Z</time></trkpt><trkpt lat="45.082820915108314" lon="7.059023477855684"><ele>1858.6</ele><time>2026-05-02T15:09:30.999Z</time></trkpt><trkpt lat="45.08292357195663" lon="7.059044465173358"><ele>1856.0</ele><time>2026-05-02T15:09:31.999Z</time></trkpt><trkpt lat="45.08301728334585" lon="7.059066330183061"><ele>1856.0</ele><time>2026-05-02T15:09:32.999Z</time></trkpt><trkpt lat="45.083129623592896" lon="7.059092541719447"><ele>1856.0</ele><time>2026-05-02T15:09:33.999Z</time></trkpt><trkpt lat="45.08321876536776" lon="7.059113340561287"><ele>1856.0</ele><time>2026-05-02T15:09:34.999Z</time></trkpt><trkpt lat="45.083311160651284" lon="7.059137088301106"><ele>1856.0</ele><time>2026-05-02T15:09:35.999Z</time></trkpt><trkpt lat="45.0833953773958" lon="7.059164315444127"><ele>1856.0</ele><time>2026-05-02T15:09:36.999Z</time></trkpt><trkpt lat="45.08348107051162" lon="7.059197045572168"><ele>1856.1666666666665</ele><time>2026-05-02T15:09:37.999Z</time></trkpt><trkpt lat="45.083548734839475" lon="7.059227201864715"><ele>1856.3333333333333</ele><time>2026-05-02T15:09:38.999Z</time></trkpt><trkpt lat="45.08363276776738" lon="7.05927457555846"><ele>1856.5</ele><time>2026-05-02T15:09:39.999Z</time></trkpt><trkpt lat="45.08369820044068" lon="7.059323248270598"><ele>1856.6666666666665</ele><time>2026-05-02T15:09:40.999Z</time></trkpt><trkpt lat="45.08375814684297" lon="7.05937882287272"><ele>1856.8333333333333</ele><time>2026-05-02T15:09:41.999Z</time></trkpt><trkpt lat="45.08384611859718" lon="7.05951980392899"><ele>1857.0</ele><time>2026-05-02T15:09:43.999Z</time></trkpt><trkpt lat="45.08389300469894" lon="7.059611481134059"><ele>1857.0</ele><time>2026-05-02T15:09:44.999Z</time></trkpt><trkpt lat="45.0839601336875" lon="7.059706356869126"><ele>1857.0</ele><time>2026-05-02T15:09:45.999Z</time></trkpt><trkpt lat="45.08399736206884" lon="7.059830375471485"><ele>1857.0</ele><time>2026-05-02T15:09:46.999Z</time></trkpt><trkpt lat="45.08618085573078" lon="7.06352894533808"><ele>1850.8333333333333</ele><time>2026-05-02T15:10:48Z</time></trkpt><trkpt lat="45.08624446175205" lon="7.063585792408672"><ele>1844.6666666666665</ele><time>2026-05-02T15:10:49Z</time></trkpt><trkpt lat="45.086288673978" lon="7.063660909358509"><ele>1838.5</ele><time>2026-05-02T15:10:50Z</time></trkpt><trkpt lat="45.08635591132991" lon="7.063769636725831"><ele>1832.3333333333333</ele><time>2026-05-02T15:10:52Z</time></trkpt><trkpt lat="45.086374944247474" lon="7.063863598554544"><ele>1826.1666666666665</ele><time>2026-05-02T15:10:54Z</time></trkpt><trkpt lat="45.08637916459818" lon="7.063994745700003"><ele>1820.0</ele><time>2026-05-02T15:10:56Z</time></trkpt><trkpt lat="45.08639395347" lon="7.064113207016147"><ele>1816.1666666666665</ele><time>2026-05-02T15:10:58Z</time></trkpt><trkpt lat="45.08644251387122" lon="7.064243016606186"><ele>1812.3333333333333</ele><time>2026-05-02T15:11:00Z</time></trkpt><trkpt lat="45.086502663997514" lon="7.064311612211577"><ele>1808.5</ele><time>2026-05-02T15:11:01Z</time></trkpt><trkpt lat="45.086569044376695" lon="7.064382955461708"><ele>1804.6666666666665</ele><time>2026-05-02T15:11:02Z</time></trkpt><trkpt lat="45.0866321226125" lon="7.064447541529632"><ele>1800.8333333333333</ele><time>2026-05-02T15:11:03Z</time></trkpt><trkpt lat="45.08669143827595" lon="7.064507461378418"><ele>1797.0</ele><time>2026-05-02T15:11:04Z</time></trkpt><trkpt lat="45.08675115850787" lon="7.064548613800528"><ele>1797.0</ele><time>2026-05-02T15:11:05Z</time></trkpt><trkpt lat="45.08681938835832" lon="7.064678666010219"><ele>1796.9999999999998</ele><time>2026-05-02T15:11:07Z</time></trkpt><trkpt lat="45.086899300472766" lon="7.064753735666849"><ele>1796.9999999999998</ele><time>2026-05-02T15:11:09Z</time></trkpt><trkpt lat="45.08696475093841" lon="7.064843560786784"><ele>1797.0</ele><time>2026-05-02T15:11:12Z</time></trkpt><trkpt lat="45.08701074711862" lon="7.064933556622234"><ele>1797.0</ele><time>2026-05-02T15:11:15Z</time></trkpt><trkpt lat="45.0870724845824" lon="7.065028089968103"><ele>1796.3333333333333</ele><time>2026-05-02T15:11:18Z</time></trkpt><trkpt lat="45.08713667723247" lon="7.065151363720687"><ele>1795.6666666666665</ele><time>2026-05-02T15:11:20Z</time></trkpt><trkpt lat="45.08719179935182" lon="7.065220906454287"><ele>1795.0</ele><time>2026-05-02T15:11:21Z</time></trkpt><trkpt lat="45.08726013761936" lon="7.0652865030127465"><ele>1794.3333333333333</ele><time>2026-05-02T15:11:22Z</time></trkpt><trkpt lat="45.0873296229963" lon="7.065361344896278"><ele>1793.6666666666665</ele><time>2026-05-02T15:11:23Z</time></trkpt><trkpt lat="45.0873974072876" lon="7.0654112994332445"><ele>1793.0</ele><time>2026-05-02T15:11:24Z</time></trkpt><trkpt lat="45.087471253807976" lon="7.065438976689436"><ele>1792.9999999999998</ele><time>2026-05-02T15:11:25Z</time></trkpt><trkpt lat="45.08756317998299" lon="7.065453518401239"><ele>1793.0</ele><time>2026-05-02T15:11:26Z</time></trkpt><trkpt lat="45.0876545709309" lon="7.065465532780332"><ele>1793.0</ele><time>2026-05-02T15:11:27Z</time></trkpt><trkpt lat="45.087736562183366" lon="7.065475707672328"><ele>1793.0</ele><time>2026-05-02T15:11:28Z</time></trkpt><trkpt lat="45.087807977408474" lon="7.065492205282937"><ele>1792.9999999999998</ele><time>2026-05-02T15:11:29Z</time></trkpt><trkpt lat="45.08787297089704" lon="7.065517090493156"><ele>1793.0</ele><time>2026-05-02T15:11:30Z</time></trkpt><trkpt lat="45.087983312440464" lon="7.065635752242657"><ele>1792.9999999999998</ele><time>2026-05-02T15:11:32Z</time></trkpt><trkpt lat="45.088038940665186" lon="7.065707436258322"><ele>1793.0</ele><time>2026-05-02T15:11:33Z</time></trkpt><trkpt lat="45.088096775677066" lon="7.065792233044618"><ele>1793.0</ele><time>2026-05-02T15:11:34Z</time></trkpt><trkpt lat="45.08814623622566" lon="7.065867571795459"><ele>1793.0</ele><time>2026-05-02T15:11:35Z</time></trkpt><trkpt lat="45.0882013250374" lon="7.0659458530081505"><ele>1792.9999999999998</ele><time>2026-05-02T15:11:36Z</time></trkpt><trkpt lat="45.088251353935995" lon="7.066044999330228"><ele>1793.0</ele><time>2026-05-02T15:11:37Z</time></trkpt><trkpt lat="45.08831442930232" lon="7.06614379295643"><ele>1790.8333333333333</ele><time>2026-05-02T15:11:38Z</time></trkpt><trkpt lat="45.08837668080422" lon="7.066242626558274"><ele>1788.6666666666665</ele><time>2026-05-02T15:11:39Z</time></trkpt><trkpt lat="45.08843091844324" lon="7.066318899274779"><ele>1786.5</ele><time>2026-05-02T15:11:40Z</time></trkpt><trkpt lat="45.08849803941024" lon="7.066370875866567"><ele>1784.3333333333335</ele><time>2026-05-02T15:11:41Z</time></trkpt><trkpt lat="45.088572277694624" lon="7.066409101997054"><ele>1782.1666666666667</ele><time>2026-05-02T15:11:42Z</time></trkpt><trkpt lat="45.0886541303337" lon="7.066429374063616"><ele>1780.0</ele><time>2026-05-02T15:11:43Z</time></trkpt><trkpt lat="45.08873779253829" lon="7.066446848170456"><ele>1780.0</ele><time>2026-05-02T15:11:44Z</time></trkpt><trkpt lat="45.0888181098169" lon="7.066460008349108"><ele>1780.0</ele><time>2026-05-02T15:11:45Z</time></trkpt><trkpt lat="45.08889019738659" lon="7.066479113243076"><ele>1780.0</ele><time>2026-05-02T15:11:46Z</time></trkpt><trkpt lat="45.088959290496575" lon="7.066482800866968"><ele>1780.0</ele><time>2026-05-02T15:11:47Z</time></trkpt><trkpt lat="45.08856794098384" lon="7.06359224960736"><ele>1772.6666666666667</ele><time>2026-05-02T15:12:48.001Z</time></trkpt><trkpt lat="45.08846837230384" lon="7.063490792768394"><ele>1765.3333333333335</ele><time>2026-05-02T15:12:50Z</time></trkpt><trkpt lat="45.088400217352024" lon="7.063457441176781"><ele>1758.0</ele><time>2026-05-02T15:12:51Z</time></trkpt><trkpt lat="45.088338623000126" lon="7.063437654045569"><ele>1750.6666666666665</ele><time>2026-05-02T15:12:52Z</time></trkpt><trkpt lat="45.088273046338486" lon="7.0634217230745"><ele>1743.3333333333333</ele><time>2026-05-02T15:12:53Z</time></trkpt><trkpt lat="45.08818860499857" lon="7.063425966075954"><ele>1736.0</ele><time>2026-05-02T15:12:54Z</time></trkpt><trkpt lat="45.08810712030647" lon="7.063432400882069"><ele>1735.9999999999998</ele><time>2026-05-02T15:12:55Z</time></trkpt><trkpt lat="45.088016075850824" lon="7.0634241715054324"><ele>1736.0</ele><time>2026-05-02T15:12:56Z</time></trkpt><trkpt lat="45.087925819814814" lon="7.063405713026385"><ele>1736.0</ele><time>2026-05-02T15:12:57Z</time></trkpt><trkpt lat="45.087836206469916" lon="7.063374557177357"><ele>1736.0</ele><time>2026-05-02T15:12:58Z</time></trkpt><trkpt lat="45.087753443188596" lon="7.063341096046494"><ele>1735.9999999999998</ele><time>2026-05-02T15:12:59Z</time></trkpt><trkpt lat="45.0876768763518" lon="7.0633101403232015"><ele>1736.0</ele><time>2026-05-02T15:13:00Z</time></trkpt><trkpt lat="45.08759884536944" lon="7.063278819198118"><ele>1736.7142857142858</ele><time>2026-05-02T15:13:01Z</time></trkpt><trkpt lat="45.08752267377298" lon="7.063253734269399"><ele>1737.4285714285716</ele><time>2026-05-02T15:13:02Z</time></trkpt><trkpt lat="45.087449471775734" lon="7.063227385728936"><ele>1738.142857142857</ele><time>2026-05-02T15:13:03Z</time></trkpt><trkpt lat="45.08738369135141" lon="7.063197915992727"><ele>1738.857142857143</ele><time>2026-05-02T15:13:04Z</time></trkpt><trkpt lat="45.08732071301747" lon="7.0631727852305355"><ele>1739.5714285714287</ele><time>2026-05-02T15:13:05Z</time></trkpt><trkpt lat="45.087262198420795" lon="7.063129455982095"><ele>1740.2857142857142</ele><time>2026-05-02T15:13:06Z</time></trkpt><trkpt lat="45.08721209316057" lon="7.063070883910218"><ele>1741.0</ele><time>2026-05-02T15:13:07Z</time></trkpt><trkpt lat="45.08717094874994" lon="7.06299450903952"><ele>1741.0</ele><time>2026-05-02T15:13:08Z</time></trkpt><trkpt lat="45.08713152538115" lon="7.0629120578691085"><ele>1741.0</ele><time>2026-05-02T15:13:09Z</time></trkpt><trkpt lat="45.087075562525584" lon="7.062754169930291"><ele>1741.0</ele><time>2026-05-02T15:13:11Z</time></trkpt><trkpt lat="45.08704440346664" lon="7.062675574461951"><ele>1741.0</ele><time>2026-05-02T15:13:12Z</time></trkpt><trkpt lat="45.086974845356124" lon="7.062534914987262"><ele>1741.0</ele><time>2026-05-02T15:13:14Z</time></trkpt><trkpt lat="45.08691438468149" lon="7.062381883374139"><ele>1736.6666666666667</ele><time>2026-05-02T15:13:16Z</time></trkpt><trkpt lat="45.086841686948986" lon="7.062249604364298"><ele>1732.3333333333335</ele><time>2026-05-02T15:13:18Z</time></trkpt><trkpt lat="45.086799254394634" lon="7.062177172860633"><ele>1728.0</ele><time>2026-05-02T15:13:19Z</time></trkpt><trkpt lat="45.086757007290494" lon="7.062107253141649"><ele>1723.6666666666665</ele><time>2026-05-02T15:13:20Z</time></trkpt><trkpt lat="45.08670414462347" lon="7.062054604944554"><ele>1719.3333333333333</ele><time>2026-05-02T15:13:21Z</time></trkpt><trkpt lat="45.086646617475466" lon="7.0619381804497"><ele>1715.0</ele><time>2026-05-02T15:13:23Z</time></trkpt><trkpt lat="45.08659462072957" lon="7.061830201840329"><ele>1714.4999999999998</ele><time>2026-05-02T15:13:25Z</time></trkpt><trkpt lat="45.086567625507925" lon="7.0617417980490345"><ele>1714.0</ele><time>2026-05-02T15:13:27Z</time></trkpt><trkpt lat="45.08653834433361" lon="7.061657095254584"><ele>1713.5</ele><time>2026-05-02T15:13:29Z</time></trkpt><trkpt lat="45.08648594524593" lon="7.061551891874894"><ele>1713.0</ele><time>2026-05-02T15:13:32Z</time></trkpt><trkpt lat="45.08647733249987" lon="7.061443903629624"><ele>1712.4999999999998</ele><time>2026-05-02T15:13:35Z</time></trkpt><trkpt lat="45.086550160524524" lon="7.061456606312633"><ele>1712.0</ele><time>2026-05-02T15:13:42Z</time></trkpt><trkpt lat="45.086621138119675" lon="7.0615532959523595"><ele>1712.75</ele><time>2026-05-02T15:13:44Z</time></trkpt><trkpt lat="45.08666328004065" lon="7.061620266977004"><ele>1713.5</ele><time>2026-05-02T15:13:45Z</time></trkpt><trkpt lat="45.086719207347954" lon="7.061692342843566"><ele>1714.25</ele><time>2026-05-02T15:13:46Z</time></trkpt><trkpt lat="45.086782683326504" lon="7.061758279873155"><ele>1715.0</ele><time>2026-05-02T15:13:47Z</time></trkpt><trkpt lat="45.08908970750815" lon="7.0618987386825784"><ele>1691.5</ele><time>2026-05-02T15:14:25.001Z</time></trkpt><trkpt lat="45.08928140081643" lon="7.0618361409127575"><ele>1668.0</ele><time>2026-05-02T15:14:28.001Z</time></trkpt><trkpt lat="45.09006981569174" lon="7.063223855752782"><ele>1667.1666666666667</ele><time>2026-05-02T15:14:48Z</time></trkpt><trkpt lat="45.09010254326956" lon="7.063338872051482"><ele>1666.3333333333335</ele><time>2026-05-02T15:14:49Z</time></trkpt><trkpt lat="45.090137835008285" lon="7.0634592233511295"><ele>1665.5</ele><time>2026-05-02T15:14:50Z</time></trkpt><trkpt lat="45.09017477700448" lon="7.063575982000404"><ele>1664.6666666666667</ele><time>2026-05-02T15:14:51Z</time></trkpt><trkpt lat="45.09021900776199" lon="7.063690643769039"><ele>1663.8333333333335</ele><time>2026-05-02T15:14:52Z</time></trkpt><trkpt lat="45.090254477783844" lon="7.063788420155912"><ele>1663.0</ele><time>2026-05-02T15:14:53Z</time></trkpt><trkpt lat="45.09028803038159" lon="7.06386467647739"><ele>1663.0000000000002</ele><time>2026-05-02T15:14:54Z</time></trkpt><trkpt lat="45.090344654852" lon="7.0639312975967865"><ele>1663.0</ele><time>2026-05-02T15:14:55Z</time></trkpt><trkpt lat="45.090410116905076" lon="7.064003696344052"><ele>1663.0</ele><time>2026-05-02T15:14:56Z</time></trkpt><trkpt lat="45.09050989689401" lon="7.06400277550631"><ele>1663.0</ele><time>2026-05-02T15:14:57Z</time></trkpt><trkpt lat="45.090600367967994" lon="7.064010076480949"><ele>1663.0000000000002</ele><time>2026-05-02T15:14:58Z</time></trkpt><trkpt lat="45.09067661050105" lon="7.064068390408797"><ele>1663.0</ele><time>2026-05-02T15:14:59Z</time></trkpt><trkpt lat="45.090736587554375" lon="7.064141646970778"><ele>1661.5000000000002</ele><time>2026-05-02T15:15:00Z</time></trkpt><trkpt lat="45.09079350050916" lon="7.0642267631862135"><ele>1660.0</ele><time>2026-05-02T15:15:01Z</time></trkpt><trkpt lat="45.09085232158691" lon="7.06429839300596"><ele>1658.5</ele><time>2026-05-02T15:15:02Z</time></trkpt><trkpt lat="45.09092560389034" lon="7.064364978469274"><ele>1657.0</ele><time>2026-05-02T15:15:03Z</time></trkpt><trkpt lat="45.091028433159856" lon="7.064386907560204"><ele>1655.5000000000002</ele><time>2026-05-02T15:15:04Z</time></trkpt><trkpt lat="45.091108200622415" lon="7.06438784884552"><ele>1654.0</ele><time>2026-05-02T15:15:05Z</time></trkpt><trkpt lat="45.09119174675493" lon="7.064396119037447"><ele>1654.0000000000002</ele><time>2026-05-02T15:15:06Z</time></trkpt><trkpt lat="45.091277313865334" lon="7.064417858074545"><ele>1654.0</ele><time>2026-05-02T15:15:07Z</time></trkpt><trkpt lat="45.09133875507247" lon="7.064500701027287"><ele>1654.0</ele><time>2026-05-02T15:15:08Z</time></trkpt><trkpt lat="45.0914013731895" lon="7.0645289692853455"><ele>1654.0</ele><time>2026-05-02T15:15:09Z</time></trkpt><trkpt lat="45.09149808122468" lon="7.064572627967376"><ele>1654.0000000000002</ele><time>2026-05-02T15:15:11Z</time></trkpt><trkpt lat="45.0915489629307" lon="7.06445359969907"><ele>1654.0</ele><time>2026-05-02T15:15:13Z</time></trkpt><trkpt lat="45.091524802228186" lon="7.064365033176229"><ele>1654.0</ele><time>2026-05-02T15:15:15Z</time></trkpt><trkpt lat="45.09145702407776" lon="7.064298669993503"><ele>1654.0</ele><time>2026-05-02T15:15:17Z</time></trkpt><trkpt lat="45.091334213653624" lon="7.064202292508396"><ele>1654.0</ele><time>2026-05-02T15:15:19Z</time></trkpt><trkpt lat="45.09126598944643" lon="7.064132263230796"><ele>1654.0</ele><time>2026-05-02T15:15:20Z</time></trkpt><trkpt lat="45.09118775046906" lon="7.064061276183504"><ele>1654.0</ele><time>2026-05-02T15:15:21Z</time></trkpt><trkpt lat="45.09111818588345" lon="7.06397083525771"><ele>1648.8000000000002</ele><time>2026-05-02T15:15:22Z</time></trkpt><trkpt lat="45.09102957159757" lon="7.063855341077589"><ele>1643.6000000000001</ele><time>2026-05-02T15:15:23Z</time></trkpt><trkpt lat="45.090970252281544" lon="7.063734368001546"><ele>1638.4</ele><time>2026-05-02T15:15:24Z</time></trkpt><trkpt lat="45.09090549210424" lon="7.063622685035256"><ele>1633.2</ele><time>2026-05-02T15:15:25Z</time></trkpt><trkpt lat="45.090842198535995" lon="7.063532859401557"><ele>1628.0</ele><time>2026-05-02T15:15:26Z</time></trkpt><trkpt lat="45.09078726258013" lon="7.063461881461821"><ele>1627.9999999999998</ele><time>2026-05-02T15:15:27Z</time></trkpt><trkpt lat="45.0907632316962" lon="7.063373239875231"><ele>1628.0</ele><time>2026-05-02T15:15:28Z</time></trkpt><trkpt lat="45.09075233613651" lon="7.0632607818728825"><ele>1628.0</ele><time>2026-05-02T15:15:29Z</time></trkpt><trkpt lat="45.09079728464117" lon="7.063156785558561"><ele>1628.0</ele><time>2026-05-02T15:15:30Z</time></trkpt><trkpt lat="45.09081263697237" lon="7.063037443049314"><ele>1627.9999999999998</ele><time>2026-05-02T15:15:31Z</time></trkpt><trkpt lat="45.090804707187985" lon="7.062928155128169"><ele>1628.0</ele><time>2026-05-02T15:15:32Z</time></trkpt><trkpt lat="45.09076328077782" lon="7.062821141708253"><ele>1632.4</ele><time>2026-05-02T15:15:33Z</time></trkpt><trkpt lat="45.090719962333466" lon="7.062703561032631"><ele>1636.8000000000002</ele><time>2026-05-02T15:15:34Z</time></trkpt><trkpt lat="45.09067176202501" lon="7.0625825066068915"><ele>1641.2</ele><time>2026-05-02T15:15:35Z</time></trkpt><trkpt lat="45.09067773728659" lon="7.062449227691721"><ele>1645.6</ele><time>2026-05-02T15:15:36Z</time></trkpt><trkpt lat="45.09068531430233" lon="7.062323638753306"><ele>1650.0</ele><time>2026-05-02T15:15:37Z</time></trkpt><trkpt lat="45.09072412875308" lon="7.062206209759499"><ele>1643.8</ele><time>2026-05-02T15:15:38Z</time></trkpt><trkpt lat="45.09076945423059" lon="7.062092771388679"><ele>1637.6</ele><time>2026-05-02T15:15:39Z</time></trkpt><trkpt lat="45.09082990122107" lon="7.061991697942705"><ele>1631.4</ele><time>2026-05-02T15:15:40Z</time></trkpt><trkpt lat="45.09089882013339" lon="7.0618656436497265"><ele>1625.2</ele><time>2026-05-02T15:15:41Z</time></trkpt><trkpt lat="45.09097253563417" lon="7.061728776966451"><ele>1619.0</ele><time>2026-05-02T15:15:42Z</time></trkpt><trkpt lat="45.09104679494418" lon="7.06160751172111"><ele>1619.0</ele><time>2026-05-02T15:15:43Z</time></trkpt><trkpt lat="45.09112833970172" lon="7.06148789167277"><ele>1619.0</ele><time>2026-05-02T15:15:44Z</time></trkpt><trkpt lat="45.09120128402251" lon="7.061365548752873"><ele>1619.0</ele><time>2026-05-02T15:15:45Z</time></trkpt><trkpt lat="45.091255957798175" lon="7.061242670095773"><ele>1619.0</ele><time>2026-05-02T15:15:46Z</time></trkpt><trkpt lat="45.09129103133346" lon="7.0611229685429375"><ele>1619.0</ele><time>2026-05-02T15:15:47Z</time></trkpt><trkpt lat="45.09458238076268" lon="7.060925893368768"><ele>1611.25</ele><time>2026-05-02T15:16:48Z</time></trkpt><trkpt lat="45.0946885089258" lon="7.060895435027155"><ele>1603.5</ele><time>2026-05-02T15:16:49Z</time></trkpt><trkpt lat="45.09479283416036" lon="7.060869350690906"><ele>1595.75</ele><time>2026-05-02T15:16:50Z</time></trkpt><trkpt lat="45.09489669847986" lon="7.060831239136336"><ele>1588.0</ele><time>2026-05-02T15:16:51Z</time></trkpt><trkpt lat="45.09512588828288" lon="7.060731487875777"><ele>1588.0000000000002</ele><time>2026-05-02T15:16:53Z</time></trkpt><trkpt lat="45.09522436814072" lon="7.060675812417975"><ele>1588.0</ele><time>2026-05-02T15:16:54Z</time></trkpt><trkpt lat="45.09531177414593" lon="7.060631022752235"><ele>1588.0</ele><time>2026-05-02T15:16:55Z</time></trkpt><trkpt lat="45.09538270395001" lon="7.060601067547742"><ele>1588.0</ele><time>2026-05-02T15:16:56Z</time></trkpt><trkpt lat="45.09545276995448" lon="7.0605727274550185"><ele>1588.0000000000002</ele><time>2026-05-02T15:16:57Z</time></trkpt><trkpt lat="45.09551584762069" lon="7.060535455519898"><ele>1588.0</ele><time>2026-05-02T15:16:58Z</time></trkpt><trkpt lat="45.095579568044634" lon="7.060508862408425"><ele>1588.0</ele><time>2026-05-02T15:16:59Z</time></trkpt><trkpt lat="45.09564530392618" lon="7.060472546058906"><ele>1588.0</ele><time>2026-05-02T15:17:00Z</time></trkpt><trkpt lat="45.09570604533414" lon="7.060443772700122"><ele>1588.0</ele><time>2026-05-02T15:17:01Z</time></trkpt><trkpt lat="45.09581949287093" lon="7.060431074027701"><ele>1588.0</ele><time>2026-05-02T15:17:03Z</time></trkpt><trkpt lat="45.09593702480085" lon="7.060400439161662"><ele>1588.0</ele><time>2026-05-02T15:17:05Z</time></trkpt><trkpt lat="45.096036720328115" lon="7.060412438443457"><ele>1583.5000000000002</ele><time>2026-05-02T15:17:07Z</time></trkpt><trkpt lat="45.09616108852825" lon="7.060460626010985"><ele>1579.0</ele><time>2026-05-02T15:17:09Z</time></trkpt><trkpt lat="45.096227898970135" lon="7.060471566540995"><ele>1574.5</ele><time>2026-05-02T15:17:10Z</time></trkpt><trkpt lat="45.0962931830603" lon="7.060503222433767"><ele>1570.0</ele><time>2026-05-02T15:17:11Z</time></trkpt><trkpt lat="45.0963624379465" lon="7.060507561043791"><ele>1565.5000000000002</ele><time>2026-05-02T15:17:12Z</time></trkpt><trkpt lat="45.09643904752828" lon="7.060515278573728"><ele>1561.0</ele><time>2026-05-02T15:17:13Z</time></trkpt><trkpt lat="45.09650465712413" lon="7.060544825970266"><ele>1561.0000000000002</ele><time>2026-05-02T15:17:14Z</time></trkpt><trkpt lat="45.09657747198684" lon="7.060549524156959"><ele>1561.0</ele><time>2026-05-02T15:17:15Z</time></trkpt><trkpt lat="45.09665882344027" lon="7.060533726078749"><ele>1561.0</ele><time>2026-05-02T15:17:16Z</time></trkpt><trkpt lat="45.09675004315407" lon="7.060542414245194"><ele>1561.0</ele><time>2026-05-02T15:17:17Z</time></trkpt><trkpt lat="45.09683457038695" lon="7.060509880802147"><ele>1561.0000000000002</ele><time>2026-05-02T15:17:18Z</time></trkpt><trkpt lat="45.09691810289816" lon="7.0604780098822575"><ele>1561.0</ele><time>2026-05-02T15:17:19Z</time></trkpt><trkpt lat="45.09699927048321" lon="7.060472704388248"><ele>1559.0000000000002</ele><time>2026-05-02T15:17:20Z</time></trkpt><trkpt lat="45.09708027915544" lon="7.060479607050984"><ele>1557.0</ele><time>2026-05-02T15:17:21Z</time></trkpt><trkpt lat="45.09716840605606" lon="7.060499253395302"><ele>1555.0</ele><time>2026-05-02T15:17:22Z</time></trkpt><trkpt lat="45.09725324416079" lon="7.060533532915248"><ele>1553.0</ele><time>2026-05-02T15:17:23Z</time></trkpt><trkpt lat="45.0973417014263" lon="7.060571226222759"><ele>1551.0000000000002</ele><time>2026-05-02T15:17:24Z</time></trkpt><trkpt lat="45.097435731780024" lon="7.060585977031234"><ele>1549.0</ele><time>2026-05-02T15:17:25Z</time></trkpt><trkpt lat="45.09752110358423" lon="7.060635887913395"><ele>1548.5000000000002</ele><time>2026-05-02T15:17:26Z</time></trkpt><trkpt lat="45.09760362563708" lon="7.060652690587714"><ele>1548.0</ele><time>2026-05-02T15:17:27Z</time></trkpt><trkpt lat="45.09768155721992" lon="7.060651518930164"><ele>1547.5</ele><time>2026-05-02T15:17:28Z</time></trkpt><trkpt lat="45.09775989926938" lon="7.060637559625913"><ele>1547.0</ele><time>2026-05-02T15:17:29Z</time></trkpt><trkpt lat="45.097834192592295" lon="7.060601541067708"><ele>1546.5000000000002</ele><time>2026-05-02T15:17:30Z</time></trkpt><trkpt lat="45.09789786682282" lon="7.060570990318814"><ele>1546.0</ele><time>2026-05-02T15:17:31Z</time></trkpt><trkpt lat="45.09797353741623" lon="7.060564096906898"><ele>1546.0000000000002</ele><time>2026-05-02T15:17:33Z</time></trkpt><trkpt lat="45.09798655594564" lon="7.0606828748389345"><ele>1546.0</ele><time>2026-05-02T15:17:36Z</time></trkpt><trkpt lat="45.09787907299624" lon="7.060771678190368"><ele>1546.0</ele><time>2026-05-02T15:17:38Z</time></trkpt><trkpt lat="45.09781480679699" lon="7.060822099101982"><ele>1546.0</ele><time>2026-05-02T15:17:39Z</time></trkpt><trkpt lat="45.09775446087317" lon="7.060863646602129"><ele>1546.0000000000002</ele><time>2026-05-02T15:17:40Z</time></trkpt><trkpt lat="45.09765731588257" lon="7.060894069703557"><ele>1546.0</ele><time>2026-05-02T15:17:42Z</time></trkpt><trkpt lat="45.097578493040544" lon="7.060887468966945"><ele>1534.5</ele><time>2026-05-02T15:17:44Z</time></trkpt><trkpt lat="45.097492721740664" lon="7.060882731550905"><ele>1523.0</ele><time>2026-05-02T15:17:47Z</time></trkpt><trkpt lat="45.09881876578614" lon="7.062545647330926"><ele>1516.6666666666667</ele><time>2026-05-02T15:18:48Z</time></trkpt><trkpt lat="45.098900269392956" lon="7.062583452679046"><ele>1510.3333333333335</ele><time>2026-05-02T15:18:49Z</time></trkpt><trkpt lat="45.09897820193838" lon="7.06262374177172"><ele>1504.0</ele><time>2026-05-02T15:18:50Z</time></trkpt><trkpt lat="45.09906229220746" lon="7.062675314684791"><ele>1497.6666666666667</ele><time>2026-05-02T15:18:51Z</time></trkpt><trkpt lat="45.09916317946948" lon="7.062678682034244"><ele>1491.3333333333333</ele><time>2026-05-02T15:18:52Z</time></trkpt><trkpt lat="45.099234719483874" lon="7.062717931148124"><ele>1485.0</ele><time>2026-05-02T15:18:53Z</time></trkpt><trkpt lat="45.09930525096707" lon="7.062777005543942"><ele>1485.0</ele><time>2026-05-02T15:18:54Z</time></trkpt><trkpt lat="45.09933529535754" lon="7.062878547701887"><ele>1485.0</ele><time>2026-05-02T15:18:55Z</time></trkpt><trkpt lat="45.09936934349054" lon="7.063008212747199"><ele>1485.0</ele><time>2026-05-02T15:18:56Z</time></trkpt><trkpt lat="45.09944267043573" lon="7.063082635650089"><ele>1485.0</ele><time>2026-05-02T15:18:57Z</time></trkpt><trkpt lat="45.0994989624868" lon="7.063157565885618"><ele>1485.0</ele><time>2026-05-02T15:18:58Z</time></trkpt><trkpt lat="45.099566165554926" lon="7.063198975296108"><ele>1485.0</ele><time>2026-05-02T15:18:59Z</time></trkpt><trkpt lat="45.099640894953005" lon="7.063227892968036"><ele>1485.0</ele><time>2026-05-02T15:19:00Z</time></trkpt><trkpt lat="45.09973043269865" lon="7.063256416952368"><ele>1485.0</ele><time>2026-05-02T15:19:01Z</time></trkpt><trkpt lat="45.09982238399529" lon="7.063267217209874"><ele>1485.0</ele><time>2026-05-02T15:19:02Z</time></trkpt><trkpt lat="45.09991929896714" lon="7.06332745701555"><ele>1485.0</ele><time>2026-05-02T15:19:03Z</time></trkpt><trkpt lat="45.10001302984119" lon="7.063351104855255"><ele>1485.0</ele><time>2026-05-02T15:19:04Z</time></trkpt><trkpt lat="45.10011214727613" lon="7.063370103482491"><ele>1480.6666666666667</ele><time>2026-05-02T15:19:05Z</time></trkpt><trkpt lat="45.1001944287953" lon="7.063383453046564"><ele>1476.3333333333333</ele><time>2026-05-02T15:19:06Z</time></trkpt><trkpt lat="45.100272046600296" lon="7.063401857603457"><ele>1472.0</ele><time>2026-05-02T15:19:07Z</time></trkpt><trkpt lat="45.10034120889197" lon="7.0634321412073575"><ele>1467.6666666666665</ele><time>2026-05-02T15:19:08Z</time></trkpt><trkpt lat="45.1003976223539" lon="7.063498836256118"><ele>1463.3333333333333</ele><time>2026-05-02T15:19:09Z</time></trkpt><trkpt lat="45.10048497259381" lon="7.0635442602986815"><ele>1459.0</ele><time>2026-05-02T15:19:10Z</time></trkpt><trkpt lat="45.100586541798805" lon="7.063644105656706"><ele>1459.0</ele><time>2026-05-02T15:19:11Z</time></trkpt><trkpt lat="45.1006684978244" lon="7.063728292643218"><ele>1459.0</ele><time>2026-05-02T15:19:12Z</time></trkpt><trkpt lat="45.10073813635992" lon="7.063794804989995"><ele>1459.0</ele><time>2026-05-02T15:19:13Z</time></trkpt><trkpt lat="45.10081915203202" lon="7.063844978878644"><ele>1459.0</ele><time>2026-05-02T15:19:14Z</time></trkpt><trkpt lat="45.10089526711877" lon="7.063868385461141"><ele>1459.0</ele><time>2026-05-02T15:19:15Z</time></trkpt><trkpt lat="45.10098722069785" lon="7.063877633654471"><ele>1459.0</ele><time>2026-05-02T15:19:16Z</time></trkpt><trkpt lat="45.10106433721149" lon="7.063878794227255"><ele>1457.0</ele><time>2026-05-02T15:19:17Z</time></trkpt><trkpt lat="45.10113228292573" lon="7.063926529709863"><ele>1455.0</ele><time>2026-05-02T15:19:18Z</time></trkpt><trkpt lat="45.10121095920893" lon="7.063938546157685"><ele>1453.0</ele><time>2026-05-02T15:19:19Z</time></trkpt><trkpt lat="45.101283080807946" lon="7.0639686009300435"><ele>1451.0</ele><time>2026-05-02T15:19:20Z</time></trkpt><trkpt lat="45.1013555292264" lon="7.063966173646714"><ele>1449.0</ele><time>2026-05-02T15:19:21Z</time></trkpt><trkpt lat="45.10143684452163" lon="7.063926837529516"><ele>1447.0</ele><time>2026-05-02T15:19:22Z</time></trkpt><trkpt lat="45.10151505215531" lon="7.063906937203303"><ele>1447.5</ele><time>2026-05-02T15:19:23Z</time></trkpt><trkpt lat="45.101584188756924" lon="7.063861415729499"><ele>1448.0</ele><time>2026-05-02T15:19:24Z</time></trkpt><trkpt lat="45.101658745287175" lon="7.063882245402293"><ele>1448.5</ele><time>2026-05-02T15:19:25Z</time></trkpt><trkpt lat="45.10176578393384" lon="7.06396138421338"><ele>1449.0</ele><time>2026-05-02T15:19:27Z</time></trkpt><trkpt lat="45.10183149639594" lon="7.0640218584959396"><ele>1449.5</ele><time>2026-05-02T15:19:28Z</time></trkpt><trkpt lat="45.101896234705606" lon="7.064123819711029"><ele>1450.0</ele><time>2026-05-02T15:19:29Z</time></trkpt><trkpt lat="45.10196846375437" lon="7.064238111886329"><ele>1450.0</ele><time>2026-05-02T15:19:30Z</time></trkpt><trkpt lat="45.10204468027858" lon="7.0643381898463895"><ele>1450.0</ele><time>2026-05-02T15:19:31Z</time></trkpt><trkpt lat="45.10212737604858" lon="7.064414827829989"><ele>1450.0</ele><time>2026-05-02T15:19:32Z</time></trkpt><trkpt lat="45.10220692990222" lon="7.064503564558329"><ele>1450.0</ele><time>2026-05-02T15:19:33Z</time></trkpt><trkpt lat="45.10229348660497" lon="7.064577646896866"><ele>1450.0</ele><time>2026-05-02T15:19:34Z</time></trkpt><trkpt lat="45.10237550598984" lon="7.064642262761623"><ele>1450.1666666666665</ele><time>2026-05-02T15:19:35Z</time></trkpt><trkpt lat="45.102459954112106" lon="7.0646821692801804"><ele>1450.3333333333333</ele><time>2026-05-02T15:19:36Z</time></trkpt><trkpt lat="45.10255263971704" lon="7.064697661802356"><ele>1450.5</ele><time>2026-05-02T15:19:37Z</time></trkpt><trkpt lat="45.102630473597515" lon="7.064770180415219"><ele>1450.6666666666667</ele><time>2026-05-02T15:19:38Z</time></trkpt><trkpt lat="45.10269181616911" lon="7.064839803476872"><ele>1450.8333333333335</ele><time>2026-05-02T15:19:39Z</time></trkpt><trkpt lat="45.10276700616493" lon="7.064913345274278"><ele>1451.0</ele><time>2026-05-02T15:19:40Z</time></trkpt><trkpt lat="45.10285078938475" lon="7.064977318157353"><ele>1451.0</ele><time>2026-05-02T15:19:41Z</time></trkpt><trkpt lat="45.102907060356834" lon="7.065073602633649"><ele>1451.0</ele><time>2026-05-02T15:19:42Z</time></trkpt><trkpt lat="45.10297915863457" lon="7.0651233511944955"><ele>1451.0</ele><time>2026-05-02T15:19:43Z</time></trkpt><trkpt lat="45.1030584188823" lon="7.065181157389975"><ele>1451.0</ele><time>2026-05-02T15:19:44Z</time></trkpt><trkpt lat="45.10314679417874" lon="7.065227794968314"><ele>1451.0</ele><time>2026-05-02T15:19:45Z</time></trkpt><trkpt lat="45.10324840650961" lon="7.065258318898705"><ele>1432.5</ele><time>2026-05-02T15:19:46Z</time></trkpt><trkpt lat="45.1033601171913" lon="7.065267477415882"><ele>1414.0</ele><time>2026-05-02T15:19:47Z</time></trkpt><trkpt lat="45.107207610535184" lon="7.069999635977578"><ele>1411.6</ele><time>2026-05-02T15:20:48Z</time></trkpt><trkpt lat="45.1072416179149" lon="7.070152888103435"><ele>1409.2</ele><time>2026-05-02T15:20:49Z</time></trkpt><trkpt lat="45.10727788371546" lon="7.070304207657877"><ele>1406.8</ele><time>2026-05-02T15:20:50Z</time></trkpt><trkpt lat="45.10730289585176" lon="7.0704247069661665"><ele>1404.3999999999999</ele><time>2026-05-02T15:20:51Z</time></trkpt><trkpt lat="45.107322420495535" lon="7.070511206161503"><ele>1402.0</ele><time>2026-05-02T15:20:52Z</time></trkpt><trkpt lat="45.107306775341655" lon="7.070650556872854"><ele>1403.6666666666665</ele><time>2026-05-02T15:20:54Z</time></trkpt><trkpt lat="45.107232188548664" lon="7.070780319824496"><ele>1405.3333333333333</ele><time>2026-05-02T15:20:56Z</time></trkpt><trkpt lat="45.10718367053853" lon="7.070841864105125"><ele>1407.0</ele><time>2026-05-02T15:20:57Z</time></trkpt><trkpt lat="45.10713402982532" lon="7.070903326909756"><ele>1408.6666666666667</ele><time>2026-05-02T15:20:58Z</time></trkpt><trkpt lat="45.107065644173424" lon="7.071003905462395"><ele>1410.3333333333335</ele><time>2026-05-02T15:21:00Z</time></trkpt><trkpt lat="45.10705531477382" lon="7.071123637003148"><ele>1412.0</ele><time>2026-05-02T15:21:02Z</time></trkpt><trkpt lat="45.10706803097317" lon="7.071246976781271"><ele>1412.0</ele><time>2026-05-02T15:21:03Z</time></trkpt><trkpt lat="45.10712211218867" lon="7.071371059388026"><ele>1412.0</ele><time>2026-05-02T15:21:04Z</time></trkpt><trkpt lat="45.107186451399556" lon="7.071487832833075"><ele>1412.0</ele><time>2026-05-02T15:21:05Z</time></trkpt><trkpt lat="45.107252701933255" lon="7.071594641199885"><ele>1412.0</ele><time>2026-05-02T15:21:06Z</time></trkpt><trkpt lat="45.107302552508884" lon="7.07172045644233"><ele>1412.0</ele><time>2026-05-02T15:21:07Z</time></trkpt><trkpt lat="45.10735156067845" lon="7.071842753175243"><ele>1410.1999999999998</ele><time>2026-05-02T15:21:08Z</time></trkpt><trkpt lat="45.10740655843175" lon="7.071965980693505"><ele>1408.4</ele><time>2026-05-02T15:21:09Z</time></trkpt><trkpt lat="45.107468907248524" lon="7.072072591044713"><ele>1406.6</ele><time>2026-05-02T15:21:10Z</time></trkpt><trkpt lat="45.10753329526244" lon="7.072173813514778"><ele>1404.8000000000002</ele><time>2026-05-02T15:21:11Z</time></trkpt><trkpt lat="45.10757141697311" lon="7.07229257242774"><ele>1403.0</ele><time>2026-05-02T15:21:12Z</time></trkpt><trkpt lat="45.10761977755554" lon="7.072400821679096"><ele>1391.8000000000002</ele><time>2026-05-02T15:21:13Z</time></trkpt><trkpt lat="45.10767767031393" lon="7.072511022036223"><ele>1380.6</ele><time>2026-05-02T15:21:14Z</time></trkpt><trkpt lat="45.10771308206576" lon="7.0726472663545135"><ele>1369.4</ele><time>2026-05-02T15:21:15Z</time></trkpt><trkpt lat="45.10774334933548" lon="7.072778645352922"><ele>1358.1999999999998</ele><time>2026-05-02T15:21:16Z</time></trkpt><trkpt lat="45.107787169850624" lon="7.072897861274883"><ele>1347.0</ele><time>2026-05-02T15:21:17Z</time></trkpt><trkpt lat="45.10782741006876" lon="7.07303466994899"><ele>1347.0</ele><time>2026-05-02T15:21:18Z</time></trkpt><trkpt lat="45.10785037530673" lon="7.073174418364139"><ele>1347.0</ele><time>2026-05-02T15:21:19Z</time></trkpt><trkpt lat="45.10789272069049" lon="7.073308418991592"><ele>1347.0</ele><time>2026-05-02T15:21:20Z</time></trkpt><trkpt lat="45.10792511432241" lon="7.0734569665220555"><ele>1347.0</ele><time>2026-05-02T15:21:21Z</time></trkpt><trkpt lat="45.107936507633916" lon="7.073599343674564"><ele>1347.0</ele><time>2026-05-02T15:21:22Z</time></trkpt><trkpt lat="45.10794698150046" lon="7.073743970051005"><ele>1346.0</ele><time>2026-05-02T15:21:23Z</time></trkpt><trkpt lat="45.1079543957924" lon="7.073880442273295"><ele>1345.0</ele><time>2026-05-02T15:21:24Z</time></trkpt><trkpt lat="45.107949687348906" lon="7.073994948654653"><ele>1344.0</ele><time>2026-05-02T15:21:25Z</time></trkpt><trkpt lat="45.10794641551511" lon="7.074094566342939"><ele>1343.0</ele><time>2026-05-02T15:21:26Z</time></trkpt><trkpt lat="45.10794150073994" lon="7.0741935263333815"><ele>1342.0</ele><time>2026-05-02T15:21:27Z</time></trkpt><trkpt lat="45.10793513049508" lon="7.074295556430578"><ele>1341.0</ele><time>2026-05-02T15:21:28Z</time></trkpt><trkpt lat="45.10792438675796" lon="7.0744676344384985"><ele>1341.0</ele><time>2026-05-02T15:21:30Z</time></trkpt><trkpt lat="45.10793112784019" lon="7.074605646607917"><ele>1341.0</ele><time>2026-05-02T15:21:32Z</time></trkpt><trkpt lat="45.107965891325534" lon="7.07470719825629"><ele>1341.0</ele><time>2026-05-02T15:21:34Z</time></trkpt><trkpt lat="45.10802584386251" lon="7.0746784806825955"><ele>1341.0</ele><time>2026-05-02T15:21:37Z</time></trkpt><trkpt lat="45.10807877371819" lon="7.069387017599014"><ele>1337.1999999999998</ele><time>2026-05-02T15:22:47.999Z</time></trkpt><trkpt lat="45.108091104408864" lon="7.069216546744136"><ele>1333.3999999999999</ele><time>2026-05-02T15:22:49Z</time></trkpt><trkpt lat="45.108086733211074" lon="7.069061636763487"><ele>1329.6</ele><time>2026-05-02T15:22:50Z</time></trkpt><trkpt lat="45.10809051563069" lon="7.068904726931296"><ele>1325.8</ele><time>2026-05-02T15:22:51Z</time></trkpt><trkpt lat="45.10806665058373" lon="7.0687580193385955"><ele>1322.0</ele><time>2026-05-02T15:22:52Z</time></trkpt><trkpt lat="45.10805943336861" lon="7.068601714197686"><ele>1319.3999999999999</ele><time>2026-05-02T15:22:53Z</time></trkpt><trkpt lat="45.10803575133197" lon="7.068451960787289"><ele>1316.8</ele><time>2026-05-02T15:22:54Z</time></trkpt><trkpt lat="45.108029744377475" lon="7.068305581102665"><ele>1314.2</ele><time>2026-05-02T15:22:55Z</time></trkpt><trkpt lat="45.10802378164114" lon="7.068166450524543"><ele>1311.6</ele><time>2026-05-02T15:22:56Z</time></trkpt><trkpt lat="45.10801798363678" lon="7.068031163743002"><ele>1309.0</ele><time>2026-05-02T15:22:57Z</time></trkpt><trkpt lat="45.1080115369223" lon="7.067892975052242"><ele>1306.0</ele><time>2026-05-02T15:22:58Z</time></trkpt><trkpt lat="45.107990733842804" lon="7.067758305677324"><ele>1303.0</ele><time>2026-05-02T15:22:59Z</time></trkpt><trkpt lat="45.10800615343981" lon="7.067620111510179"><ele>1300.0</ele><time>2026-05-02T15:23:00Z</time></trkpt><trkpt lat="45.1080127425145" lon="7.067477532187127"><ele>1297.0</ele><time>2026-05-02T15:23:01Z</time></trkpt><trkpt lat="45.10799365185776" lon="7.067349318597091"><ele>1294.0</ele><time>2026-05-02T15:23:02Z</time></trkpt><trkpt lat="45.10798303140928" lon="7.067228817307757"><ele>1291.1666666666665</ele><time>2026-05-02T15:23:03Z</time></trkpt><trkpt lat="45.10796879691721" lon="7.067118115999765"><ele>1288.3333333333333</ele><time>2026-05-02T15:23:04Z</time></trkpt><trkpt lat="45.10795065987435" lon="7.0670263434423415"><ele>1285.5</ele><time>2026-05-02T15:23:05Z</time></trkpt><trkpt lat="45.107927412272204" lon="7.066931668951708"><ele>1282.6666666666667</ele><time>2026-05-02T15:23:06Z</time></trkpt><trkpt lat="45.107865145217495" lon="7.0668584328079564"><ele>1279.8333333333335</ele><time>2026-05-02T15:23:07Z</time></trkpt><trkpt lat="45.10782521504234" lon="7.066755531747141"><ele>1277.0</ele><time>2026-05-02T15:23:08Z</time></trkpt><trkpt lat="45.10776928049942" lon="7.066677536353932"><ele>1277.0</ele><time>2026-05-02T15:23:09Z</time></trkpt><trkpt lat="45.10770455209622" lon="7.066612703722453"><ele>1277.0</ele><time>2026-05-02T15:23:10Z</time></trkpt><trkpt lat="45.10767691652313" lon="7.066499326080257"><ele>1277.0</ele><time>2026-05-02T15:23:11Z</time></trkpt><trkpt lat="45.10766616728025" lon="7.0663813508595466"><ele>1277.0</ele><time>2026-05-02T15:23:12Z</time></trkpt><trkpt lat="45.10767215762221" lon="7.066261548353008"><ele>1277.0</ele><time>2026-05-02T15:23:13Z</time></trkpt><trkpt lat="45.107691936019016" lon="7.066127491149128"><ele>1277.0</ele><time>2026-05-02T15:23:14Z</time></trkpt><trkpt lat="45.10772772277004" lon="7.0660090943523"><ele>1276.0</ele><time>2026-05-02T15:23:15Z</time></trkpt><trkpt lat="45.107768290647826" lon="7.065874918041177"><ele>1275.0</ele><time>2026-05-02T15:23:16Z</time></trkpt><trkpt lat="45.10779392829241" lon="7.065736745454245"><ele>1274.0</ele><time>2026-05-02T15:23:17Z</time></trkpt><trkpt lat="45.1078412936088" lon="7.0656130086322335"><ele>1273.0</ele><time>2026-05-02T15:23:18Z</time></trkpt><trkpt lat="45.10788555986235" lon="7.065488782421395"><ele>1272.0</ele><time>2026-05-02T15:23:19Z</time></trkpt><trkpt lat="45.10792178430789" lon="7.065373019100149"><ele>1271.1666666666667</ele><time>2026-05-02T15:23:20Z</time></trkpt><trkpt lat="45.10794113818954" lon="7.065274998153729"><ele>1270.3333333333333</ele><time>2026-05-02T15:23:21Z</time></trkpt><trkpt lat="45.10793781938728" lon="7.065160376255207"><ele>1269.5</ele><time>2026-05-02T15:23:22Z</time></trkpt><trkpt lat="45.10794553821116" lon="7.065056498164204"><ele>1268.6666666666665</ele><time>2026-05-02T15:23:23Z</time></trkpt><trkpt lat="45.10797711842733" lon="7.064955213163545"><ele>1267.8333333333333</ele><time>2026-05-02T15:23:24Z</time></trkpt><trkpt lat="45.108030397187235" lon="7.064849256294411"><ele>1267.0</ele><time>2026-05-02T15:23:25Z</time></trkpt><trkpt lat="45.108103918768215" lon="7.064761940730383"><ele>1262.5</ele><time>2026-05-02T15:23:26Z</time></trkpt><trkpt lat="45.108180181744885" lon="7.064671843522365"><ele>1258.0</ele><time>2026-05-02T15:23:27Z</time></trkpt><trkpt lat="45.10824933588544" lon="7.064579321662948"><ele>1253.5</ele><time>2026-05-02T15:23:28Z</time></trkpt><trkpt lat="45.10830509672324" lon="7.064493047509662"><ele>1249.0</ele><time>2026-05-02T15:23:29Z</time></trkpt><trkpt lat="45.108356628530025" lon="7.064411518614853"><ele>1244.5</ele><time>2026-05-02T15:23:30Z</time></trkpt><trkpt lat="45.10839568927914" lon="7.064337309395314"><ele>1240.0</ele><time>2026-05-02T15:23:31Z</time></trkpt><trkpt lat="45.10837982263283" lon="7.064162114206191"><ele>1231.4</ele><time>2026-05-02T15:23:33Z</time></trkpt><trkpt lat="45.1083233287691" lon="7.064078395339659"><ele>1222.8</ele><time>2026-05-02T15:23:34Z</time></trkpt><trkpt lat="45.10824135555639" lon="7.063996147261775"><ele>1214.2</ele><time>2026-05-02T15:23:35Z</time></trkpt><trkpt lat="45.10813808128367" lon="7.063944863068633"><ele>1205.6</ele><time>2026-05-02T15:23:36Z</time></trkpt><trkpt lat="45.108024736137246" lon="7.063873018107734"><ele>1197.0</ele><time>2026-05-02T15:23:37Z</time></trkpt><trkpt lat="45.10788146114171" lon="7.063840361130755"><ele>1197.0</ele><time>2026-05-02T15:23:38Z</time></trkpt><trkpt lat="45.10772476163662" lon="7.063811623287594"><ele>1197.0</ele><time>2026-05-02T15:23:39Z</time></trkpt><trkpt lat="45.107605018373135" lon="7.063761125538798"><ele>1197.0</ele><time>2026-05-02T15:23:40Z</time></trkpt><trkpt lat="45.10749224881195" lon="7.063715403657722"><ele>1197.0</ele><time>2026-05-02T15:23:41Z</time></trkpt><trkpt lat="45.10738345906097" lon="7.063668757742984"><ele>1205.0</ele><time>2026-05-02T15:23:42Z</time></trkpt><trkpt lat="45.107257818615984" lon="7.063606446331059"><ele>1213.0</ele><time>2026-05-02T15:23:43Z</time></trkpt><trkpt lat="45.107148451356004" lon="7.063542887629053"><ele>1221.0</ele><time>2026-05-02T15:23:44Z</time></trkpt><trkpt lat="45.10704105747482" lon="7.06349156134449"><ele>1229.0</ele><time>2026-05-02T15:23:45Z</time></trkpt><trkpt lat="45.10695232471816" lon="7.063398811480239"><ele>1229.0</ele><time>2026-05-02T15:23:46Z</time></trkpt><trkpt lat="45.10686916263617" lon="7.063312327216668"><ele>1229.0</ele><time>2026-05-02T15:23:47Z</time></trkpt><trkpt lat="45.10715078531719" lon="7.062581061633993"><ele>1218.3333333333335</ele><time>2026-05-02T15:24:47.999Z</time></trkpt><trkpt lat="45.10729643610165" lon="7.062697750993423"><ele>1207.6666666666667</ele><time>2026-05-02T15:24:48.999Z</time></trkpt><trkpt lat="45.10744063680228" lon="7.062784676773692"><ele>1197.0</ele><time>2026-05-02T15:24:49.999Z</time></trkpt><trkpt lat="45.1076002158697" lon="7.062808316525183"><ele>1189.0</ele><time>2026-05-02T15:24:50.999Z</time></trkpt><trkpt lat="45.107737925849854" lon="7.06283236843073"><ele>1181.0</ele><time>2026-05-02T15:24:51.999Z</time></trkpt><trkpt lat="45.107876233162806" lon="7.062853890540375"><ele>1173.0</ele><time>2026-05-02T15:24:52.999Z</time></trkpt><trkpt lat="45.107990246566004" lon="7.062840675588971"><ele>1165.0</ele><time>2026-05-02T15:24:53.999Z</time></trkpt><trkpt lat="45.10812263012778" lon="7.062861688273853"><ele>1165.0</ele><time>2026-05-02T15:24:56Z</time></trkpt><trkpt lat="45.108208404762095" lon="7.062852408630701"><ele>1165.0</ele><time>2026-05-02T15:24:57Z</time></trkpt><trkpt lat="45.10830949231666" lon="7.0628445323674836"><ele>1165.0</ele><time>2026-05-02T15:24:59Z</time></trkpt><trkpt lat="45.10826112670512" lon="7.062709876083639"><ele>1165.0</ele><time>2026-05-02T15:25:01Z</time></trkpt><trkpt lat="45.1081643750391" lon="7.062663231760095"><ele>1165.0</ele><time>2026-05-02T15:25:03Z</time></trkpt><trkpt lat="45.10805788982912" lon="7.062596197386246"><ele>1165.0</ele><time>2026-05-02T15:25:05Z</time></trkpt><trkpt lat="45.107950043939255" lon="7.0625483225191275"><ele>1165.0</ele><time>2026-05-02T15:25:07Z</time></trkpt><trkpt lat="45.10785204420837" lon="7.062502657978674"><ele>1165.0</ele><time>2026-05-02T15:25:09Z</time></trkpt><trkpt lat="45.10775834347963" lon="7.062445507152945"><ele>1165.0</ele><time>2026-05-02T15:25:11Z</time></trkpt><trkpt lat="45.107687336585215" lon="7.062374968621435"><ele>1165.0</ele><time>2026-05-02T15:25:13Z</time></trkpt><trkpt lat="45.107621350244216" lon="7.062295623072522"><ele>1163.0</ele><time>2026-05-02T15:25:15Z</time></trkpt><trkpt lat="45.10755960127517" lon="7.062200363668032"><ele>1161.0</ele><time>2026-05-02T15:25:17Z</time></trkpt><trkpt lat="45.10756682219489" lon="7.06203308994589"><ele>1159.0</ele><time>2026-05-02T15:25:19Z</time></trkpt><trkpt lat="45.10756490544786" lon="7.061939959468864"><ele>1157.0</ele><time>2026-05-02T15:25:20Z</time></trkpt><trkpt lat="45.107588559840764" lon="7.0618522455202735"><ele>1155.0</ele><time>2026-05-02T15:25:21Z</time></trkpt><trkpt lat="45.107642090034396" lon="7.061786752142169"><ele>1153.0</ele><time>2026-05-02T15:25:26Z</time></trkpt><trkpt lat="45.107734914195674" lon="7.061888859448215"><ele>1153.0</ele><time>2026-05-02T15:25:28Z</time></trkpt><trkpt lat="45.10777713074008" lon="7.061967013599606"><ele>1153.0</ele><time>2026-05-02T15:25:29Z</time></trkpt><trkpt lat="45.107842445012885" lon="7.062103921345308"><ele>1153.0</ele><time>2026-05-02T15:25:31Z</time></trkpt><trkpt lat="45.10792944263769" lon="7.062241782996276"><ele>1153.0</ele><time>2026-05-02T15:25:33Z</time></trkpt><trkpt lat="45.10800157528061" lon="7.062260384260144"><ele>1153.0</ele><time>2026-05-02T15:25:34Z</time></trkpt><trkpt lat="45.108066652164425" lon="7.062287388453413"><ele>1153.0</ele><time>2026-05-02T15:25:35Z</time></trkpt><trkpt lat="45.10811848053397" lon="7.062341068586667"><ele>1153.0</ele><time>2026-05-02T15:25:36Z</time></trkpt><trkpt lat="45.10818214402215" lon="7.062373628527011"><ele>1153.0</ele><time>2026-05-02T15:25:37Z</time></trkpt><trkpt lat="45.108244455383705" lon="7.06240549693005"><ele>1153.0</ele><time>2026-05-02T15:25:38Z</time></trkpt><trkpt lat="45.108353617883424" lon="7.062468156183749"><ele>1153.0</ele><time>2026-05-02T15:25:40Z</time></trkpt><trkpt lat="45.108435690949044" lon="7.062539504888267"><ele>1153.0</ele><time>2026-05-02T15:25:42Z</time></trkpt><trkpt lat="45.10854274668039" lon="7.062682624620693"><ele>1149.3333333333333</ele><time>2026-05-02T15:25:44Z</time></trkpt><trkpt lat="45.10861270706936" lon="7.062719469432426"><ele>1145.6666666666667</ele><time>2026-05-02T15:25:45Z</time></trkpt><trkpt lat="45.10871056448696" lon="7.062800252968239"><ele>1142.0</ele><time>2026-05-02T15:25:47Z</time></trkpt><trkpt lat="45.109228978410314" lon="7.061932080929947"><ele>1133.0</ele><time>2026-05-02T15:26:47.999Z</time></trkpt><trkpt lat="45.109217651883455" lon="7.061820793916066"><ele>1124.0</ele><time>2026-05-02T15:26:49.999Z</time></trkpt><trkpt lat="45.10928366507971" lon="7.061868022202844"><ele>1115.0</ele><time>2026-05-02T15:26:51.999Z</time></trkpt><trkpt lat="45.10935505424906" lon="7.0620283511249475"><ele>1106.0</ele><time>2026-05-02T15:26:53.999Z</time></trkpt><trkpt lat="45.10938034026454" lon="7.062164739780614"><ele>1097.0</ele><time>2026-05-02T15:26:54.999Z</time></trkpt><trkpt lat="45.10941898328375" lon="7.062327346888965"><ele>1100.0</ele><time>2026-05-02T15:26:55.999Z</time></trkpt><trkpt lat="45.109464043180694" lon="7.062484063233343"><ele>1103.0</ele><time>2026-05-02T15:26:56.999Z</time></trkpt><trkpt lat="45.10950511275459" lon="7.062606250422866"><ele>1106.0</ele><time>2026-05-02T15:26:57.999Z</time></trkpt><trkpt lat="45.109557429705674" lon="7.0627134520583335"><ele>1109.0</ele><time>2026-05-02T15:26:58.999Z</time></trkpt><trkpt lat="45.109651139128" lon="7.062806578987171"><ele>1112.0</ele><time>2026-05-02T15:26:59.999Z</time></trkpt><trkpt lat="45.10975816397169" lon="7.062838063123655"><ele>1112.0</ele><time>2026-05-02T15:27:01Z</time></trkpt><trkpt lat="45.109861696421085" lon="7.062871987054673"><ele>1112.0</ele><time>2026-05-02T15:27:02Z</time></trkpt><trkpt lat="45.10994931079515" lon="7.062860212952451"><ele>1112.0</ele><time>2026-05-02T15:27:03Z</time></trkpt><trkpt lat="45.10999044945955" lon="7.062734098185631"><ele>1112.0</ele><time>2026-05-02T15:27:05Z</time></trkpt><trkpt lat="45.10995318925802" lon="7.062653131547411"><ele>1112.0</ele><time>2026-05-02T15:27:06Z</time></trkpt><trkpt lat="45.10988288768219" lon="7.062614538785043"><ele>1112.0</ele><time>2026-05-02T15:27:07Z</time></trkpt><trkpt lat="45.10979807115249" lon="7.062598845660771"><ele>1112.0</ele><time>2026-05-02T15:27:08Z</time></trkpt><trkpt lat="45.10971916800574" lon="7.062578552681103"><ele>1112.0</ele><time>2026-05-02T15:27:09Z</time></trkpt><trkpt lat="45.10967838154484" lon="7.062476193842263"><ele>1112.0</ele><time>2026-05-02T15:27:10Z</time></trkpt><trkpt lat="45.109639071805795" lon="7.062391423238813"><ele>1112.0</ele><time>2026-05-02T15:27:11Z</time></trkpt><trkpt lat="45.10965462050366" lon="7.062280751346534"><ele>1112.0</ele><time>2026-05-02T15:27:12Z</time></trkpt><trkpt lat="45.10972239182871" lon="7.0621697734766675"><ele>1112.0</ele><time>2026-05-02T15:27:13Z</time></trkpt><trkpt lat="45.10976096330931" lon="7.062045469945494"><ele>1109.0</ele><time>2026-05-02T15:27:14Z</time></trkpt><trkpt lat="45.109780361744974" lon="7.061911051097048"><ele>1106.0</ele><time>2026-05-02T15:27:15Z</time></trkpt><trkpt lat="45.109750807265165" lon="7.061780763681872"><ele>1103.0</ele><time>2026-05-02T15:27:16Z</time></trkpt><trkpt lat="45.10972560785698" lon="7.06167571291502"><ele>1100.0</ele><time>2026-05-02T15:27:17Z</time></trkpt><trkpt lat="45.10982815807752" lon="7.06166292289164"><ele>1097.0</ele><time>2026-05-02T15:27:20Z</time></trkpt><trkpt lat="45.1098538136252" lon="7.061818839023531"><ele>1097.0</ele><time>2026-05-02T15:27:22Z</time></trkpt><trkpt lat="45.109893367912306" lon="7.061937965878921"><ele>1097.0</ele><time>2026-05-02T15:27:23Z</time></trkpt><trkpt lat="45.109912692097296" lon="7.062076794014627"><ele>1097.0</ele><time>2026-05-02T15:27:24Z</time></trkpt><trkpt lat="45.109951671400005" lon="7.0621777360074285"><ele>1097.0</ele><time>2026-05-02T15:27:26Z</time></trkpt><trkpt lat="45.11003192716616" lon="7.062092421934133"><ele>1097.0</ele><time>2026-05-02T15:27:28Z</time></trkpt><trkpt lat="45.11002771371552" lon="7.06198609537532"><ele>1097.0</ele><time>2026-05-02T15:27:29Z</time></trkpt><trkpt lat="45.110004269811945" lon="7.061867164553627"><ele>1090.6666666666667</ele><time>2026-05-02T15:27:30Z</time></trkpt><trkpt lat="45.10999823139473" lon="7.06173860294315"><ele>1084.3333333333335</ele><time>2026-05-02T15:27:31Z</time></trkpt><trkpt lat="45.109996600581916" lon="7.061629252396478"><ele>1078.0</ele><time>2026-05-02T15:27:32Z</time></trkpt><trkpt lat="45.11000506614205" lon="7.061509672556226"><ele>1071.6666666666667</ele><time>2026-05-02T15:27:34Z</time></trkpt><trkpt lat="45.11001988357781" lon="7.061610927075538"><ele>1065.3333333333333</ele><time>2026-05-02T15:27:38Z</time></trkpt><trkpt lat="45.110069262392784" lon="7.061692379888379"><ele>1059.0</ele><time>2026-05-02T15:27:39Z</time></trkpt><trkpt lat="45.11008013662633" lon="7.061841968613494"><ele>1059.0</ele><time>2026-05-02T15:27:40Z</time></trkpt><trkpt lat="45.110104018807924" lon="7.061967569376696"><ele>1059.0</ele><time>2026-05-02T15:27:41Z</time></trkpt><trkpt lat="45.11013481674627" lon="7.062045429194433"><ele>1059.0</ele><time>2026-05-02T15:27:42Z</time></trkpt><trkpt lat="45.110243952639344" lon="7.062125402660141"><ele>1059.0</ele><time>2026-05-02T15:27:44Z</time></trkpt><trkpt lat="45.11029342755368" lon="7.062049894127439"><ele>1059.0</ele><time>2026-05-02T15:27:45Z</time></trkpt><trkpt lat="45.11027420984401" lon="7.061907580116741"><ele>1059.0</ele><time>2026-05-02T15:27:46Z</time></trkpt><trkpt lat="45.11025539890865" lon="7.06178777440948"><ele>1059.0</ele><time>2026-05-02T15:27:47Z</time></trkpt><trkpt lat="45.11102083798506" lon="7.061683926702417"><ele>1051.0</ele><time>2026-05-02T15:28:47.999Z</time></trkpt><trkpt lat="45.111003819405326" lon="7.0617853871774"><ele>1043.0</ele><time>2026-05-02T15:28:49.999Z</time></trkpt><trkpt lat="45.111101309513884" lon="7.061818204893049"><ele>1035.0</ele><time>2026-05-02T15:28:51.999Z</time></trkpt><trkpt lat="45.11116009027705" lon="7.061706292142953"><ele>1027.0</ele><time>2026-05-02T15:28:52.999Z</time></trkpt><trkpt lat="45.1111939981516" lon="7.061583703216333"><ele>1019.0</ele><time>2026-05-02T15:28:53.999Z</time></trkpt><trkpt lat="45.11122261468279" lon="7.061455976955747"><ele>1019.0</ele><time>2026-05-02T15:28:54.999Z</time></trkpt><trkpt lat="45.1112416385821" lon="7.0613072995940325"><ele>1019.0</ele><time>2026-05-02T15:28:55.999Z</time></trkpt><trkpt lat="45.111306169873274" lon="7.061166446717647"><ele>1019.0</ele><time>2026-05-02T15:28:56.999Z</time></trkpt><trkpt lat="45.111336805136744" lon="7.061005696755204"><ele>1019.0</ele><time>2026-05-02T15:28:57.999Z</time></trkpt><trkpt lat="45.11135751168437" lon="7.060846875557256"><ele>1017.8000000000001</ele><time>2026-05-02T15:28:58.999Z</time></trkpt><trkpt lat="45.11137858778784" lon="7.060692330359059"><ele>1016.6000000000001</ele><time>2026-05-02T15:28:59.999Z</time></trkpt><trkpt lat="45.11140476533538" lon="7.060560094258791"><ele>1015.4</ele><time>2026-05-02T15:29:00.999Z</time></trkpt><trkpt lat="45.11143420549659" lon="7.060462077352798"><ele>1014.2</ele><time>2026-05-02T15:29:01.999Z</time></trkpt><trkpt lat="45.111484349353056" lon="7.060556907901968"><ele>1013.0</ele><time>2026-05-02T15:29:09Z</time></trkpt><trkpt lat="45.11152885073291" lon="7.060732329110815"><ele>1014.2</ele><time>2026-05-02T15:29:10Z</time></trkpt><trkpt lat="45.11153582086991" lon="7.060888505669478"><ele>1015.4</ele><time>2026-05-02T15:29:11Z</time></trkpt><trkpt lat="45.11153189468773" lon="7.061047777280211"><ele>1016.6000000000001</ele><time>2026-05-02T15:29:12Z</time></trkpt><trkpt lat="45.11151719530234" lon="7.061192194481065"><ele>1017.8000000000001</ele><time>2026-05-02T15:29:13Z</time></trkpt><trkpt lat="45.11150672265696" lon="7.061335962431417"><ele>1019.0</ele><time>2026-05-02T15:29:14Z</time></trkpt><trkpt lat="45.11150071529119" lon="7.061496073940703"><ele>1019.0</ele><time>2026-05-02T15:29:16Z</time></trkpt><trkpt lat="45.11150056078575" lon="7.0616011126223315"><ele>1019.0000000000001</ele><time>2026-05-02T15:29:18Z</time></trkpt><trkpt lat="45.111581775323316" lon="7.061599780133751"><ele>1019.0000000000001</ele><time>2026-05-02T15:29:22Z</time></trkpt><trkpt lat="45.11164827969258" lon="7.061489206499875"><ele>1019.0</ele><time>2026-05-02T15:29:23Z</time></trkpt><trkpt lat="45.11170989086003" lon="7.061364481193185"><ele>1019.0</ele><time>2026-05-02T15:29:24Z</time></trkpt><trkpt lat="45.111776111608236" lon="7.0612139945287415"><ele>1011.0</ele><time>2026-05-02T15:29:25Z</time></trkpt><trkpt lat="45.111843755271885" lon="7.06103192041222"><ele>1003.0</ele><time>2026-05-02T15:29:26Z</time></trkpt><trkpt lat="45.11190304220214" lon="7.0608491089958365"><ele>995.0</ele><time>2026-05-02T15:29:27Z</time></trkpt><trkpt lat="45.111943862134225" lon="7.060670503808361"><ele>987.0</ele><time>2026-05-02T15:29:28Z</time></trkpt><trkpt lat="45.111973694255695" lon="7.060528801374901"><ele>987.0</ele><time>2026-05-02T15:29:29Z</time></trkpt><trkpt lat="45.1119958944699" lon="7.06044373501634"><ele>987.0</ele><time>2026-05-02T15:29:30Z</time></trkpt><trkpt lat="45.11206312477313" lon="7.060611269367135"><ele>987.0</ele><time>2026-05-02T15:29:36Z</time></trkpt><trkpt lat="45.112065900101754" lon="7.060768351189631"><ele>987.0</ele><time>2026-05-02T15:29:37Z</time></trkpt><trkpt lat="45.11205657451806" lon="7.060921996294253"><ele>987.0</ele><time>2026-05-02T15:29:38Z</time></trkpt><trkpt lat="45.11203191171429" lon="7.06109095129585"><ele>987.0</ele><time>2026-05-02T15:29:39Z</time></trkpt><trkpt lat="45.11197339110265" lon="7.061289764542659"><ele>987.0</ele><time>2026-05-02T15:29:40Z</time></trkpt><trkpt lat="45.11189474301962" lon="7.061471307407518"><ele>987.0</ele><time>2026-05-02T15:29:41Z</time></trkpt><trkpt lat="45.11181777123151" lon="7.061666921785431"><ele>983.5</ele><time>2026-05-02T15:29:42Z</time></trkpt><trkpt lat="45.11173763587271" lon="7.061840646471813"><ele>980.0</ele><time>2026-05-02T15:29:43Z</time></trkpt><trkpt lat="45.11165378024727" lon="7.061984248550101"><ele>976.5</ele><time>2026-05-02T15:29:44Z</time></trkpt><trkpt lat="45.11159323440363" lon="7.062089942013289"><ele>973.0</ele><time>2026-05-02T15:29:45Z</time></trkpt><trkpt lat="45.11154404262311" lon="7.062213113465481"><ele>927.0</ele><time>2026-05-02T15:29:47Z</time></trkpt><trkpt lat="45.113227019470436" lon="7.063142527544085"><ele>922.3333333333333</ele><time>2026-05-02T15:30:47.999Z</time></trkpt><trkpt lat="45.1133948438292" lon="7.063122357840849"><ele>917.6666666666666</ele><time>2026-05-02T15:30:48.999Z</time></trkpt><trkpt lat="45.1135578863822" lon="7.06312967139823"><ele>913.0</ele><time>2026-05-02T15:30:49.999Z</time></trkpt><trkpt lat="45.11372224533267" lon="7.063127232413311"><ele>913.0</ele><time>2026-05-02T15:30:50.999Z</time></trkpt><trkpt lat="45.11387323057789" lon="7.063107090955164"><ele>913.0</ele><time>2026-05-02T15:30:51.999Z</time></trkpt><trkpt lat="45.11398873918884" lon="7.063115485139621"><ele>913.0</ele><time>2026-05-02T15:30:52.999Z</time></trkpt><trkpt lat="45.11407813542396" lon="7.0631233052918585"><ele>913.0</ele><time>2026-05-02T15:30:53.999Z</time></trkpt><trkpt lat="45.11417124279419" lon="7.063094346364563"><ele>907.3333333333333</ele><time>2026-05-02T15:30:54.999Z</time></trkpt><trkpt lat="45.11424509327455" lon="7.062984578138926"><ele>901.6666666666666</ele><time>2026-05-02T15:30:55.999Z</time></trkpt><trkpt lat="45.114304341387786" lon="7.062910086307799"><ele>896.0</ele><time>2026-05-02T15:30:56.999Z</time></trkpt><trkpt lat="45.11434863908956" lon="7.062845277537682"><ele>890.3333333333333</ele><time>2026-05-02T15:30:57.999Z</time></trkpt><trkpt lat="45.11437598114303" lon="7.062933571379286"><ele>884.6666666666666</ele><time>2026-05-02T15:31:00.999Z</time></trkpt><trkpt lat="45.114372374419155" lon="7.063027807546802"><ele>879.0</ele><time>2026-05-02T15:31:01.999Z</time></trkpt><trkpt lat="45.114312253217314" lon="7.063140010575898"><ele>879.0</ele><time>2026-05-02T15:31:02.999Z</time></trkpt><trkpt lat="45.114226225710574" lon="7.06325821292812"><ele>879.0</ele><time>2026-05-02T15:31:03.999Z</time></trkpt><trkpt lat="45.11413262975699" lon="7.0633611636716"><ele>879.0</ele><time>2026-05-02T15:31:04.999Z</time></trkpt><trkpt lat="45.11402809612565" lon="7.063443193838342"><ele>879.0</ele><time>2026-05-02T15:31:05.999Z</time></trkpt><trkpt lat="45.11389449053965" lon="7.06349500252249"><ele>883.0</ele><time>2026-05-02T15:31:06.999Z</time></trkpt><trkpt lat="45.11376826577798" lon="7.063571692671838"><ele>887.0</ele><time>2026-05-02T15:31:07.999Z</time></trkpt><trkpt lat="45.11365238288233" lon="7.06364424907974"><ele>891.0</ele><time>2026-05-02T15:31:08.999Z</time></trkpt><trkpt lat="45.11353808656715" lon="7.063708772258352"><ele>895.0</ele><time>2026-05-02T15:31:09.999Z</time></trkpt><trkpt lat="45.11344565041591" lon="7.063804419047728"><ele>895.0</ele><time>2026-05-02T15:31:10.999Z</time></trkpt><trkpt lat="45.11338063318294" lon="7.06391514069544"><ele>895.0</ele><time>2026-05-02T15:31:11.999Z</time></trkpt><trkpt lat="45.113325280509976" lon="7.064036179637768"><ele>895.0</ele><time>2026-05-02T15:31:13Z</time></trkpt><trkpt lat="45.11329782011457" lon="7.0642093701932955"><ele>895.0</ele><time>2026-05-02T15:31:14Z</time></trkpt><trkpt lat="45.113248261951775" lon="7.064402190574885"><ele>896.0</ele><time>2026-05-02T15:31:15Z</time></trkpt><trkpt lat="45.11321182050818" lon="7.064621589467276"><ele>897.0</ele><time>2026-05-02T15:31:16Z</time></trkpt><trkpt lat="45.11319505533148" lon="7.064811744348725"><ele>898.0</ele><time>2026-05-02T15:31:17Z</time></trkpt><trkpt lat="45.11318087599881" lon="7.064989882644207"><ele>899.0</ele><time>2026-05-02T15:31:18Z</time></trkpt><trkpt lat="45.11318307077047" lon="7.065171689582731"><ele>899.0</ele><time>2026-05-02T15:31:19Z</time></trkpt><trkpt lat="45.113213058385995" lon="7.0653410577066955"><ele>899.0</ele><time>2026-05-02T15:31:20Z</time></trkpt><trkpt lat="45.113262210817304" lon="7.06550257974096"><ele>899.0</ele><time>2026-05-02T15:31:21Z</time></trkpt><trkpt lat="45.113316895810804" lon="7.0656379203229385"><ele>899.0</ele><time>2026-05-02T15:31:22Z</time></trkpt><trkpt lat="45.11336928332846" lon="7.06575132882889"><ele>893.0</ele><time>2026-05-02T15:31:23Z</time></trkpt><trkpt lat="45.113415801243136" lon="7.065872356757644"><ele>887.0000000000001</ele><time>2026-05-02T15:31:24Z</time></trkpt><trkpt lat="45.113478363562685" lon="7.0659813769655955"><ele>881.0000000000001</ele><time>2026-05-02T15:31:25Z</time></trkpt><trkpt lat="45.11355664582346" lon="7.066094308590369"><ele>875.0</ele><time>2026-05-02T15:31:26Z</time></trkpt><trkpt lat="45.113680964618965" lon="7.066154876922574"><ele>869.0</ele><time>2026-05-02T15:31:27Z</time></trkpt><trkpt lat="45.11378371523178" lon="7.06623276844544"><ele>869.0</ele><time>2026-05-02T15:31:28Z</time></trkpt><trkpt lat="45.113888211443424" lon="7.06633869012421"><ele>869.0000000000001</ele><time>2026-05-02T15:31:29Z</time></trkpt><trkpt lat="45.11398610512493" lon="7.066422779362504"><ele>869.0000000000001</ele><time>2026-05-02T15:31:30Z</time></trkpt><trkpt lat="45.11406881612068" lon="7.0665075790017795"><ele>869.0</ele><time>2026-05-02T15:31:31Z</time></trkpt><trkpt lat="45.1141276893444" lon="7.0665776279197585"><ele>869.0</ele><time>2026-05-02T15:31:32Z</time></trkpt><trkpt lat="45.11417522636816" lon="7.066654862797809"><ele>865.8333333333334</ele><time>2026-05-02T15:31:33Z</time></trkpt><trkpt lat="45.114195546509684" lon="7.066758690893063"><ele>862.6666666666667</ele><time>2026-05-02T15:31:34Z</time></trkpt><trkpt lat="45.114243971051714" lon="7.066841960396315"><ele>859.5</ele><time>2026-05-02T15:31:35Z</time></trkpt><trkpt lat="45.114283749656074" lon="7.066953990735873"><ele>856.3333333333333</ele><time>2026-05-02T15:31:36Z</time></trkpt><trkpt lat="45.11434183151004" lon="7.067003587322638"><ele>853.1666666666666</ele><time>2026-05-02T15:31:37Z</time></trkpt><trkpt lat="45.114435500330636" lon="7.067060504026849"><ele>850.0</ele><time>2026-05-02T15:31:38Z</time></trkpt><trkpt lat="45.114549653137125" lon="7.067147907948159"><ele>850.0</ele><time>2026-05-02T15:31:39Z</time></trkpt><trkpt lat="45.1146427609243" lon="7.067232115190685"><ele>850.0</ele><time>2026-05-02T15:31:40Z</time></trkpt><trkpt lat="45.11472167738543" lon="7.067374939471406"><ele>850.0</ele><time>2026-05-02T15:31:41Z</time></trkpt><trkpt lat="45.11481096926524" lon="7.06754546201994"><ele>850.0</ele><time>2026-05-02T15:31:42Z</time></trkpt><trkpt lat="45.11495003102" lon="7.06777528892841"><ele>843.6666666666666</ele><time>2026-05-02T15:31:43Z</time></trkpt><trkpt lat="45.11506089970202" lon="7.067949506435764"><ele>837.3333333333333</ele><time>2026-05-02T15:31:44Z</time></trkpt><trkpt lat="45.11517701607929" lon="7.068133312052565"><ele>831.0</ele><time>2026-05-02T15:31:45Z</time></trkpt><trkpt lat="45.11525113309517" lon="7.068268087340751"><ele>833.0</ele><time>2026-05-02T15:31:46Z</time></trkpt><trkpt lat="45.11531738934682" lon="7.0683984065984555"><ele>835.0</ele><time>2026-05-02T15:31:47Z</time></trkpt><trkpt lat="45.11620510775868" lon="7.065541531945806"><ele>828.2</ele><time>2026-05-02T15:32:47.999Z</time></trkpt><trkpt lat="45.11628847795117" lon="7.065514624949988"><ele>821.4</ele><time>2026-05-02T15:32:48.999Z</time></trkpt><trkpt lat="45.11636467593743" lon="7.0654410174563"><ele>814.5999999999999</ele><time>2026-05-02T15:32:49.999Z</time></trkpt><trkpt lat="45.11642574432774" lon="7.065312784959657"><ele>807.8</ele><time>2026-05-02T15:32:50.999Z</time></trkpt><trkpt lat="45.116471456069085" lon="7.065189826808584"><ele>801.0</ele><time>2026-05-02T15:32:51.999Z</time></trkpt><trkpt lat="45.116517380128315" lon="7.06504125543303"><ele>804.5</ele><time>2026-05-02T15:32:52.999Z</time></trkpt><trkpt lat="45.116557696998804" lon="7.064868319471265"><ele>808.0</ele><time>2026-05-02T15:32:53.999Z</time></trkpt><trkpt lat="45.116635541010304" lon="7.064726909818719"><ele>811.5</ele><time>2026-05-02T15:32:54.999Z</time></trkpt><trkpt lat="45.11668401376062" lon="7.06457664815557"><ele>815.0</ele><time>2026-05-02T15:32:55.999Z</time></trkpt><trkpt lat="45.11674401476506" lon="7.064422137864211"><ele>810.6</ele><time>2026-05-02T15:32:56.999Z</time></trkpt><trkpt lat="45.11681311398781" lon="7.064279620629739"><ele>806.2</ele><time>2026-05-02T15:32:57.999Z</time></trkpt><trkpt lat="45.11689211061947" lon="7.064169060220106"><ele>801.8</ele><time>2026-05-02T15:32:58.999Z</time></trkpt><trkpt lat="45.11696582170837" lon="7.0640952993323"><ele>797.4</ele><time>2026-05-02T15:32:59.999Z</time></trkpt><trkpt lat="45.11704963514342" lon="7.0640632032405986"><ele>793.0</ele><time>2026-05-02T15:33:00.999Z</time></trkpt><trkpt lat="45.117143196119" lon="7.064059253820853"><ele>793.0</ele><time>2026-05-02T15:33:01.999Z</time></trkpt><trkpt lat="45.11726539541831" lon="7.064061367556628"><ele>793.0</ele><time>2026-05-02T15:33:02.999Z</time></trkpt><trkpt lat="45.11739610631692" lon="7.064071875908296"><ele>793.0</ele><time>2026-05-02T15:33:03.999Z</time></trkpt><trkpt lat="45.11750881285935" lon="7.064083515923307"><ele>793.0</ele><time>2026-05-02T15:33:04.999Z</time></trkpt><trkpt lat="45.11759102321249" lon="7.064077349006848"><ele>793.0</ele><time>2026-05-02T15:33:05.999Z</time></trkpt><trkpt lat="45.117661751260016" lon="7.064013744101297"><ele>784.25</ele><time>2026-05-02T15:33:06.999Z</time></trkpt><trkpt lat="45.11774260637846" lon="7.063863015528434"><ele>775.5</ele><time>2026-05-02T15:33:08.999Z</time></trkpt><trkpt lat="45.11773595900179" lon="7.063718784954444"><ele>766.75</ele><time>2026-05-02T15:33:09.999Z</time></trkpt><trkpt lat="45.1177009638171" lon="7.063556550946028"><ele>758.0</ele><time>2026-05-02T15:33:10.999Z</time></trkpt><trkpt lat="45.11768150004341" lon="7.063375337027301"><ele>757.75</ele><time>2026-05-02T15:33:11.999Z</time></trkpt><trkpt lat="45.11770244645907" lon="7.063197789097123"><ele>757.5</ele><time>2026-05-02T15:33:12.999Z</time></trkpt><trkpt lat="45.117748576264965" lon="7.063026341514504"><ele>757.25</ele><time>2026-05-02T15:33:13.999Z</time></trkpt><trkpt lat="45.11778435457018" lon="7.062886110057922"><ele>757.0</ele><time>2026-05-02T15:33:14.999Z</time></trkpt><trkpt lat="45.11783091721173" lon="7.062777050896071"><ele>757.0</ele><time>2026-05-02T15:33:15.999Z</time></trkpt><trkpt lat="45.11788842115693" lon="7.062696822363788"><ele>757.0</ele><time>2026-05-02T15:33:16.999Z</time></trkpt><trkpt lat="45.11795598787456" lon="7.062628575338675"><ele>757.0</ele><time>2026-05-02T15:33:17.999Z</time></trkpt><trkpt lat="45.118029662938575" lon="7.06256142614063"><ele>757.0</ele><time>2026-05-02T15:33:19Z</time></trkpt><trkpt lat="45.11810198448743" lon="7.062467986709104"><ele>757.0</ele><time>2026-05-02T15:33:20Z</time></trkpt><trkpt lat="45.11820464801089" lon="7.062485823428088"><ele>757.0</ele><time>2026-05-02T15:33:22Z</time></trkpt><trkpt lat="45.11823326909762" lon="7.062606857399388"><ele>757.0</ele><time>2026-05-02T15:33:24Z</time></trkpt><trkpt lat="45.11820712108659" lon="7.0627053598959435"><ele>757.0</ele><time>2026-05-02T15:33:25Z</time></trkpt><trkpt lat="45.118176044968806" lon="7.062831998355677"><ele>757.0</ele><time>2026-05-02T15:33:26Z</time></trkpt><trkpt lat="45.118180404918604" lon="7.0629499759717564"><ele>757.0</ele><time>2026-05-02T15:33:27Z</time></trkpt><trkpt lat="45.118239577027346" lon="7.063066785758292"><ele>757.0</ele><time>2026-05-02T15:33:28Z</time></trkpt><trkpt lat="45.11831542765274" lon="7.063167856188245"><ele>752.4000000000001</ele><time>2026-05-02T15:33:29Z</time></trkpt><trkpt lat="45.11839529938824" lon="7.063264598209811"><ele>747.8000000000001</ele><time>2026-05-02T15:33:30Z</time></trkpt><trkpt lat="45.11847599993611" lon="7.063365362015766"><ele>743.2</ele><time>2026-05-02T15:33:31Z</time></trkpt><trkpt lat="45.11855977659351" lon="7.063471735420556"><ele>738.6</ele><time>2026-05-02T15:33:32Z</time></trkpt><trkpt lat="45.118647521001705" lon="7.063554693047726"><ele>734.0</ele><time>2026-05-02T15:33:33Z</time></trkpt><trkpt lat="45.1187145329854" lon="7.063647849316304"><ele>733.2</ele><time>2026-05-02T15:33:34Z</time></trkpt><trkpt lat="45.11878160630814" lon="7.0637559569896196"><ele>732.4000000000001</ele><time>2026-05-02T15:33:35Z</time></trkpt><trkpt lat="45.11884847349093" lon="7.063851730501953"><ele>731.6</ele><time>2026-05-02T15:33:36Z</time></trkpt><trkpt lat="45.11890930780004" lon="7.063965365792351"><ele>730.8</ele><time>2026-05-02T15:33:37Z</time></trkpt><trkpt lat="45.11895480737878" lon="7.064071966833298"><ele>730.0</ele><time>2026-05-02T15:33:38Z</time></trkpt><trkpt lat="45.11895354134146" lon="7.064190179117024"><ele>729.8333333333334</ele><time>2026-05-02T15:33:39Z</time></trkpt><trkpt lat="45.11892944397469" lon="7.064285798071208"><ele>729.6666666666667</ele><time>2026-05-02T15:33:40Z</time></trkpt><trkpt lat="45.11890804888658" lon="7.064391922958915"><ele>729.5</ele><time>2026-05-02T15:33:41Z</time></trkpt><trkpt lat="45.11888666035353" lon="7.064513202391583"><ele>729.3333333333334</ele><time>2026-05-02T15:33:42Z</time></trkpt><trkpt lat="45.118873331314774" lon="7.064635173661037"><ele>729.1666666666666</ele><time>2026-05-02T15:33:43Z</time></trkpt><trkpt lat="45.11886790200594" lon="7.064744642148813"><ele>729.0</ele><time>2026-05-02T15:33:44Z</time></trkpt><trkpt lat="45.1188772899793" lon="7.064865394602474"><ele>728.5</ele><time>2026-05-02T15:33:45Z</time></trkpt><trkpt lat="45.11888857248364" lon="7.06496252273853"><ele>728.0</ele><time>2026-05-02T15:33:46Z</time></trkpt><trkpt lat="45.12145228749454" lon="7.069439606028536"><ele>719.5</ele><time>2026-05-02T15:34:47.999Z</time></trkpt><trkpt lat="45.121526239675696" lon="7.069500847495567"><ele>711.0</ele><time>2026-05-02T15:34:48.999Z</time></trkpt><trkpt lat="45.12160604900414" lon="7.069539960202949"><ele>702.5</ele><time>2026-05-02T15:34:49.999Z</time></trkpt><trkpt lat="45.121693012487725" lon="7.069549384004805"><ele>694.0</ele><time>2026-05-02T15:34:50.999Z</time></trkpt><trkpt lat="45.12178191237007" lon="7.069519895311426"><ele>685.5</ele><time>2026-05-02T15:34:51.999Z</time></trkpt><trkpt lat="45.12185810842428" lon="7.069498099769509"><ele>677.0</ele><time>2026-05-02T15:34:52.999Z</time></trkpt><trkpt lat="45.12193180339967" lon="7.069477982709729"><ele>675.6666666666666</ele><time>2026-05-02T15:34:53.999Z</time></trkpt><trkpt lat="45.12199963802748" lon="7.0694594654138445"><ele>674.3333333333333</ele><time>2026-05-02T15:34:54.999Z</time></trkpt><trkpt lat="45.12206136813344" lon="7.069441639742379"><ele>673.0</ele><time>2026-05-02T15:34:55.999Z</time></trkpt><trkpt lat="45.12216640117399" lon="7.069410702507345"><ele>671.6666666666666</ele><time>2026-05-02T15:34:57.999Z</time></trkpt><trkpt lat="45.12225589407492" lon="7.069384343284919"><ele>670.3333333333334</ele><time>2026-05-02T15:34:59.999Z</time></trkpt><trkpt lat="45.122308742404314" lon="7.069333616192945"><ele>669.0</ele><time>2026-05-02T15:35:00.999Z</time></trkpt><trkpt lat="45.12237417541193" lon="7.069218528960532"><ele>666.8333333333334</ele><time>2026-05-02T15:35:02.999Z</time></trkpt><trkpt lat="45.12240606056879" lon="7.069054546763549"><ele>664.6666666666666</ele><time>2026-05-02T15:35:04.999Z</time></trkpt><trkpt lat="45.12241608739501" lon="7.068952881975069"><ele>662.5</ele><time>2026-05-02T15:35:05.999Z</time></trkpt><trkpt lat="45.122448869023465" lon="7.068850561469282"><ele>660.3333333333333</ele><time>2026-05-02T15:35:06.999Z</time></trkpt><trkpt lat="45.12246801955063" lon="7.068741006052721"><ele>658.1666666666666</ele><time>2026-05-02T15:35:07.999Z</time></trkpt><trkpt lat="45.12247435185463" lon="7.068634640301523"><ele>656.0</ele><time>2026-05-02T15:35:08.999Z</time></trkpt><trkpt lat="45.12249695709663" lon="7.068542795645961"><ele>655.9999999999999</ele><time>2026-05-02T15:35:09.999Z</time></trkpt><trkpt lat="45.122513935384646" lon="7.068453936323882"><ele>656.0</ele><time>2026-05-02T15:35:10.999Z</time></trkpt><trkpt lat="45.12253369441607" lon="7.068359581296478"><ele>656.0</ele><time>2026-05-02T15:35:11.999Z</time></trkpt><trkpt lat="45.12256366573618" lon="7.068269585028557"><ele>656.0</ele><time>2026-05-02T15:35:12.999Z</time></trkpt><trkpt lat="45.12261725959208" lon="7.068187706748236"><ele>656.0</ele><time>2026-05-02T15:35:14.999Z</time></trkpt><trkpt lat="45.12267885204405" lon="7.06813480320523"><ele>655.9999999999999</ele><time>2026-05-02T15:35:17.999Z</time></trkpt><trkpt lat="45.1227426475518" lon="7.0680914495867295"><ele>656.0</ele><time>2026-05-02T15:35:41Z</time></trkpt><trkpt lat="45.12286747667975" lon="7.0679934180228665"><ele>655.25</ele><time>2026-05-02T15:35:43Z</time></trkpt><trkpt lat="45.122959516425496" lon="7.067911058033168"><ele>654.5</ele><time>2026-05-02T15:35:44Z</time></trkpt><trkpt lat="45.12303783421987" lon="7.0678087347737195"><ele>653.75</ele><time>2026-05-02T15:35:45Z</time></trkpt><trkpt lat="45.123157742140705" lon="7.067702242045565"><ele>653.0</ele><time>2026-05-02T15:35:46Z</time></trkpt><trkpt lat="45.123283273727104" lon="7.067567742764548"><ele>595.0</ele><time>2026-05-02T15:35:47Z</time></trkpt><trkpt lat="45.124092019782694" lon="7.061900887142146"><ele>560.0</ele><time>2026-05-02T15:36:43.999Z</time></trkpt><trkpt lat="45.12705526421232" lon="7.062159417460771"><ele>560.0</ele><time>2026-05-02T15:39:48Z</time></trkpt><trkpt lat="45.127145829993886" lon="7.062170997396049"><ele>560.0</ele><time>2026-05-02T15:39:49Z</time></trkpt><trkpt lat="45.127241209710164" lon="7.062162608177557"><ele>560.0</ele><time>2026-05-02T15:39:50Z</time></trkpt><trkpt lat="45.12735273442237" lon="7.062192461180361"><ele>560.0</ele><time>2026-05-02T15:39:51Z</time></trkpt><trkpt lat="45.127465690968435" lon="7.062249254906744"><ele>560.0</ele><time>2026-05-02T15:39:52Z</time></trkpt><trkpt lat="45.12756656363797" lon="7.062352488628404"><ele>556.5</ele><time>2026-05-02T15:39:53Z</time></trkpt><trkpt lat="45.12766521036697" lon="7.062461356924662"><ele>553.0</ele><time>2026-05-02T15:39:54Z</time></trkpt><trkpt lat="45.12777029409628" lon="7.062605709562815"><ele>549.5</ele><time>2026-05-02T15:39:55Z</time></trkpt><trkpt lat="45.12787692114462" lon="7.06276128467689"><ele>546.0</ele><time>2026-05-02T15:39:56Z</time></trkpt><trkpt lat="45.12800429957486" lon="7.062948518465104"><ele>546.0</ele><time>2026-05-02T15:39:57Z</time></trkpt><trkpt lat="45.12813969867864" lon="7.063143735133139"><ele>546.0</ele><time>2026-05-02T15:39:58Z</time></trkpt><trkpt lat="45.12826726193575" lon="7.063327062978731"><ele>546.0</ele><time>2026-05-02T15:39:59Z</time></trkpt><trkpt lat="45.12839359188066" lon="7.063501619908862"><ele>541.3333333333334</ele><time>2026-05-02T15:40:00Z</time></trkpt><trkpt lat="45.128515554766224" lon="7.063668381454348"><ele>536.6666666666667</ele><time>2026-05-02T15:40:01Z</time></trkpt><trkpt lat="45.128645697402234" lon="7.063825012105303"><ele>532.0</ele><time>2026-05-02T15:40:02Z</time></trkpt><trkpt lat="45.128791242065375" lon="7.0639592720065325"><ele>532.0</ele><time>2026-05-02T15:40:03Z</time></trkpt><trkpt lat="45.12894034355044" lon="7.064071575621989"><ele>532.0</ele><time>2026-05-02T15:40:04Z</time></trkpt><trkpt lat="45.12909700792052" lon="7.064156938545696"><ele>532.0</ele><time>2026-05-02T15:40:05Z</time></trkpt><trkpt lat="45.12925776896771" lon="7.064202254284977"><ele>529.75</ele><time>2026-05-02T15:40:06Z</time></trkpt><trkpt lat="45.12940973742408" lon="7.064237155573004"><ele>527.5</ele><time>2026-05-02T15:40:07Z</time></trkpt><trkpt lat="45.129553377000676" lon="7.064264849951955"><ele>525.25</ele><time>2026-05-02T15:40:08Z</time></trkpt><trkpt lat="45.12969015624425" lon="7.064321485869683"><ele>523.0</ele><time>2026-05-02T15:40:09Z</time></trkpt><trkpt lat="45.12981918541754" lon="7.064397652569407"><ele>524.6666666666667</ele><time>2026-05-02T15:40:10Z</time></trkpt><trkpt lat="45.12992893492391" lon="7.064544691475998"><ele>526.3333333333334</ele><time>2026-05-02T15:40:11Z</time></trkpt><trkpt lat="45.13002186130408" lon="7.064732606222152"><ele>528.0</ele><time>2026-05-02T15:40:12Z</time></trkpt><trkpt lat="45.13013344111435" lon="7.064904184774138"><ele>523.5</ele><time>2026-05-02T15:40:13Z</time></trkpt><trkpt lat="45.130225715301606" lon="7.065081242884539"><ele>519.0</ele><time>2026-05-02T15:40:14Z</time></trkpt><trkpt lat="45.13030724542138" lon="7.065231863679985"><ele>514.5</ele><time>2026-05-02T15:40:15Z</time></trkpt><trkpt lat="45.13041750539646" lon="7.0653333674975185"><ele>510.0</ele><time>2026-05-02T15:40:16Z</time></trkpt><trkpt lat="45.13055881966951" lon="7.065369309549965"><ele>510.0</ele><time>2026-05-02T15:40:17Z</time></trkpt><trkpt lat="45.130700101108715" lon="7.065407310074755"><ele>510.0</ele><time>2026-05-02T15:40:18Z</time></trkpt><trkpt lat="45.13085900075855" lon="7.065446981893451"><ele>510.0</ele><time>2026-05-02T15:40:19Z</time></trkpt><trkpt lat="45.13102402727015" lon="7.065490774145186"><ele>508.33333333333337</ele><time>2026-05-02T15:40:20Z</time></trkpt><trkpt lat="45.131187648691366" lon="7.065530280596803"><ele>506.6666666666667</ele><time>2026-05-02T15:40:21Z</time></trkpt><trkpt lat="45.13134301724813" lon="7.065557604808249"><ele>505.0</ele><time>2026-05-02T15:40:22Z</time></trkpt><trkpt lat="45.1314877437849" lon="7.065553706625493"><ele>501.75</ele><time>2026-05-02T15:40:22.999Z</time></trkpt><trkpt lat="45.131618473151065" lon="7.065496920138524"><ele>498.5</ele><time>2026-05-02T15:40:23.999Z</time></trkpt><trkpt lat="45.1317326397738" lon="7.065381967309539"><ele>495.25</ele><time>2026-05-02T15:40:24.999Z</time></trkpt><trkpt lat="45.13183916381928" lon="7.065218545242438"><ele>492.0</ele><time>2026-05-02T15:40:25.999Z</time></trkpt><trkpt lat="45.131932723598084" lon="7.065031263366797"><ele>492.33333333333337</ele><time>2026-05-02T15:40:26.999Z</time></trkpt><trkpt lat="45.132022307375415" lon="7.06482041907328"><ele>492.6666666666667</ele><time>2026-05-02T15:40:27.999Z</time></trkpt><trkpt lat="45.13211857051446" lon="7.064614689291247"><ele>493.0</ele><time>2026-05-02T15:40:28.999Z</time></trkpt><trkpt lat="45.13222145839219" lon="7.064418090191417"><ele>493.0</ele><time>2026-05-02T15:40:29.999Z</time></trkpt><trkpt lat="45.132325364751864" lon="7.064214200414908"><ele>493.0</ele><time>2026-05-02T15:40:30.999Z</time></trkpt><trkpt lat="45.13242696557836" lon="7.064014569103987"><ele>493.0</ele><time>2026-05-02T15:40:31.999Z</time></trkpt><trkpt lat="45.132530575543136" lon="7.063830075749415"><ele>491.25</ele><time>2026-05-02T15:40:32.999Z</time></trkpt><trkpt lat="45.1326249435748" lon="7.063659133487823"><ele>489.5</ele><time>2026-05-02T15:40:33.999Z</time></trkpt><trkpt lat="45.13270574237882" lon="7.063500151338824"><ele>487.75</ele><time>2026-05-02T15:40:34.999Z</time></trkpt><trkpt lat="45.13278725514006" lon="7.063354661188307"><ele>486.0</ele><time>2026-05-02T15:40:35.999Z</time></trkpt><trkpt lat="45.1328550007924" lon="7.063209987843044"><ele>485.8</ele><time>2026-05-02T15:40:36.999Z</time></trkpt><trkpt lat="45.132921696782084" lon="7.063077241653874"><ele>485.6</ele><time>2026-05-02T15:40:37.999Z</time></trkpt><trkpt lat="45.13299056198633" lon="7.0629548617369915"><ele>485.4</ele><time>2026-05-02T15:40:38.999Z</time></trkpt><trkpt lat="45.13305140445197" lon="7.06283873749619"><ele>485.2</ele><time>2026-05-02T15:40:39.999Z</time></trkpt><trkpt lat="45.13310805763413" lon="7.062725374441047"><ele>485.0</ele><time>2026-05-02T15:40:40.999Z</time></trkpt><trkpt lat="45.13315975025866" lon="7.062616114138173"><ele>485.0</ele><time>2026-05-02T15:40:41.999Z</time></trkpt><trkpt lat="45.13320770769673" lon="7.062514280567552"><ele>485.0</ele><time>2026-05-02T15:40:42.999Z</time></trkpt><trkpt lat="45.13325687224017" lon="7.062420924378671"><ele>485.0</ele><time>2026-05-02T15:40:43.999Z</time></trkpt><trkpt lat="45.13330810152946" lon="7.062330531182228"><ele>485.0</ele><time>2026-05-02T15:40:44.999Z</time></trkpt><trkpt lat="45.133362807011686" lon="7.062269737411767"><ele>485.0</ele><time>2026-05-02T15:40:45.999Z</time></trkpt><trkpt lat="45.13583158941986" lon="7.056175880154937"><ele>485.8</ele><time>2026-05-02T15:41:48Z</time></trkpt><trkpt lat="45.13588317190366" lon="7.056027930374908"><ele>486.6</ele><time>2026-05-02T15:41:49Z</time></trkpt><trkpt lat="45.135926207612044" lon="7.055883753085767"><ele>487.4</ele><time>2026-05-02T15:41:50Z</time></trkpt><trkpt lat="45.13596669411578" lon="7.055751426681415"><ele>488.2</ele><time>2026-05-02T15:41:51Z</time></trkpt><trkpt lat="45.136003202677415" lon="7.055607140201266"><ele>489.0</ele><time>2026-05-02T15:41:52Z</time></trkpt><trkpt lat="45.136034202635976" lon="7.055452378138902"><ele>491.0</ele><time>2026-05-02T15:41:53Z</time></trkpt><trkpt lat="45.13605877329088" lon="7.055287230163787"><ele>493.0</ele><time>2026-05-02T15:41:54Z</time></trkpt><trkpt lat="45.136080058052826" lon="7.05510745183415"><ele>495.0</ele><time>2026-05-02T15:41:55Z</time></trkpt><trkpt lat="45.136090127353576" lon="7.054938715896611"><ele>497.0</ele><time>2026-05-02T15:41:56Z</time></trkpt><trkpt lat="45.136091205313676" lon="7.054767777833554"><ele>497.0</ele><time>2026-05-02T15:41:57Z</time></trkpt><trkpt lat="45.13607357234127" lon="7.054594904859169"><ele>497.0</ele><time>2026-05-02T15:41:58Z</time></trkpt><trkpt lat="45.1360306246248" lon="7.054422005866897"><ele>497.0</ele><time>2026-05-02T15:41:59Z</time></trkpt><trkpt lat="45.13597396368242" lon="7.054245806455495"><ele>497.0</ele><time>2026-05-02T15:42:00Z</time></trkpt><trkpt lat="45.1359111922301" lon="7.054068330712361"><ele>496.20000000000005</ele><time>2026-05-02T15:42:01Z</time></trkpt><trkpt lat="45.1358477437068" lon="7.053899901645415"><ele>495.40000000000003</ele><time>2026-05-02T15:42:02Z</time></trkpt><trkpt lat="45.13578769899159" lon="7.053757473149273"><ele>494.59999999999997</ele><time>2026-05-02T15:42:03Z</time></trkpt><trkpt lat="45.135735377319726" lon="7.053633312472565"><ele>493.79999999999995</ele><time>2026-05-02T15:42:04Z</time></trkpt><trkpt lat="45.13568841150874" lon="7.053528096364941"><ele>493.0</ele><time>2026-05-02T15:42:05Z</time></trkpt><trkpt lat="45.13565344140671" lon="7.053436977058287"><ele>493.6666666666667</ele><time>2026-05-02T15:42:06Z</time></trkpt><trkpt lat="45.135600145838495" lon="7.0533099969546855"><ele>494.33333333333337</ele><time>2026-05-02T15:42:08Z</time></trkpt><trkpt lat="45.13555785619532" lon="7.053226028597907"><ele>495.0</ele><time>2026-05-02T15:42:10Z</time></trkpt><trkpt lat="45.1355147041469" lon="7.053135163490287"><ele>495.66666666666663</ele><time>2026-05-02T15:42:12Z</time></trkpt><trkpt lat="45.135474580969706" lon="7.0530417222888255"><ele>496.3333333333333</ele><time>2026-05-02T15:42:14Z</time></trkpt><trkpt lat="45.13543502937354" lon="7.052942393614173"><ele>497.0</ele><time>2026-05-02T15:42:17Z</time></trkpt><trkpt lat="45.135395986472346" lon="7.052837082703989"><ele>497.0</ele><time>2026-05-02T15:42:19Z</time></trkpt><trkpt lat="45.135352748131446" lon="7.052754922762526"><ele>497.00000000000006</ele><time>2026-05-02T15:42:20Z</time></trkpt><trkpt lat="45.13530745918459" lon="7.0526370500886655"><ele>497.00000000000006</ele><time>2026-05-02T15:42:21Z</time></trkpt><trkpt lat="45.13525897288878" lon="7.05249120384154"><ele>497.0</ele><time>2026-05-02T15:42:22Z</time></trkpt><trkpt lat="45.135199454253566" lon="7.052330179656158"><ele>497.0</ele><time>2026-05-02T15:42:23Z</time></trkpt><trkpt lat="45.13514635194784" lon="7.052172760887617"><ele>497.25</ele><time>2026-05-02T15:42:24Z</time></trkpt><trkpt lat="45.13508996319341" lon="7.052005323565191"><ele>497.5</ele><time>2026-05-02T15:42:25Z</time></trkpt><trkpt lat="45.13503350424163" lon="7.051848241103271"><ele>497.75</ele><time>2026-05-02T15:42:26Z</time></trkpt><trkpt lat="45.1349749494773" lon="7.051676161556594"><ele>498.0</ele><time>2026-05-02T15:42:27Z</time></trkpt><trkpt lat="45.13491639969341" lon="7.051501168543057"><ele>499.0</ele><time>2026-05-02T15:42:28Z</time></trkpt><trkpt lat="45.13485852486852" lon="7.051320842166127"><ele>500.0</ele><time>2026-05-02T15:42:29Z</time></trkpt><trkpt lat="45.1348004158193" lon="7.051142460195328"><ele>501.0</ele><time>2026-05-02T15:42:30Z</time></trkpt><trkpt lat="45.13473907075449" lon="7.050970687242938"><ele>502.0</ele><time>2026-05-02T15:42:31Z</time></trkpt><trkpt lat="45.134685530037835" lon="7.050813855627612"><ele>502.40000000000003</ele><time>2026-05-02T15:42:32Z</time></trkpt><trkpt lat="45.13463891218412" lon="7.050675355574821"><ele>502.80000000000007</ele><time>2026-05-02T15:42:32.999Z</time></trkpt><trkpt lat="45.13460146763667" lon="7.050554934013642"><ele>503.2</ele><time>2026-05-02T15:42:33.999Z</time></trkpt><trkpt lat="45.13456512585495" lon="7.05044938823164"><ele>503.6</ele><time>2026-05-02T15:42:34.999Z</time></trkpt><trkpt lat="45.134525736806005" lon="7.050334178742494"><ele>504.0</ele><time>2026-05-02T15:42:35.999Z</time></trkpt><trkpt lat="45.134481613812156" lon="7.050210330772034"><ele>504.0</ele><time>2026-05-02T15:42:36.999Z</time></trkpt><trkpt lat="45.13443687673212" lon="7.050096592981827"><ele>504.0</ele><time>2026-05-02T15:42:37.999Z</time></trkpt><trkpt lat="45.13439906809454" lon="7.049970246018577"><ele>504.0</ele><time>2026-05-02T15:42:38.999Z</time></trkpt><trkpt lat="45.13436510597568" lon="7.049843210612674"><ele>504.0</ele><time>2026-05-02T15:42:39.999Z</time></trkpt><trkpt lat="45.134325899780436" lon="7.049703837520634"><ele>504.0</ele><time>2026-05-02T15:42:40.999Z</time></trkpt><trkpt lat="45.13426632575805" lon="7.0495398027902505"><ele>505.0</ele><time>2026-05-02T15:42:41.999Z</time></trkpt><trkpt lat="45.13420197481303" lon="7.049352588846625"><ele>506.0</ele><time>2026-05-02T15:42:42.999Z</time></trkpt><trkpt lat="45.13413417704961" lon="7.049155718523887"><ele>507.0</ele><time>2026-05-02T15:42:43.999Z</time></trkpt><trkpt lat="45.134057346924976" lon="7.048931918427777"><ele>510.33333333333337</ele><time>2026-05-02T15:42:44.999Z</time></trkpt><trkpt lat="45.13396778840871" lon="7.048672082718974"><ele>513.6666666666667</ele><time>2026-05-02T15:42:45.999Z</time></trkpt><trkpt lat="45.13388036697279" lon="7.048428411383308"><ele>517.0</ele><time>2026-05-02T15:42:46.999Z</time></trkpt><trkpt lat="45.132067136810036" lon="7.042243632204547"><ele>527.25</ele><time>2026-05-02T15:43:47.999Z</time></trkpt><trkpt lat="45.132187313618" lon="7.042275916932036"><ele>537.5</ele><time>2026-05-02T15:43:49Z</time></trkpt><trkpt lat="45.13228681190424" lon="7.042351580480595"><ele>547.75</ele><time>2026-05-02T15:43:50Z</time></trkpt><trkpt lat="45.132389074774416" lon="7.042462176257927"><ele>558.0</ele><time>2026-05-02T15:43:51Z</time></trkpt><trkpt lat="45.132448726011376" lon="7.0426570025543"><ele>558.0</ele><time>2026-05-02T15:43:52Z</time></trkpt><trkpt lat="45.13247611294351" lon="7.042875504199722"><ele>558.0</ele><time>2026-05-02T15:43:53Z</time></trkpt><trkpt lat="45.13248602826245" lon="7.043095237779133"><ele>558.0</ele><time>2026-05-02T15:43:54Z</time></trkpt><trkpt lat="45.132518050070075" lon="7.043308069265134"><ele>556.0</ele><time>2026-05-02T15:43:55Z</time></trkpt><trkpt lat="45.13255338069564" lon="7.043507994294552"><ele>554.0</ele><time>2026-05-02T15:43:56Z</time></trkpt><trkpt lat="45.13261510820407" lon="7.0436622060536935"><ele>552.0</ele><time>2026-05-02T15:43:57Z</time></trkpt><trkpt lat="45.13270377193644" lon="7.04376442045238"><ele>550.0</ele><time>2026-05-02T15:43:58Z</time></trkpt><trkpt lat="45.13282440177838" lon="7.043781086322349"><ele>550.0</ele><time>2026-05-02T15:43:59Z</time></trkpt><trkpt lat="45.1329443095714" lon="7.043714038958402"><ele>550.0</ele><time>2026-05-02T15:44:00Z</time></trkpt><trkpt lat="45.1330208111128" lon="7.043589210286767"><ele>550.0</ele><time>2026-05-02T15:44:01Z</time></trkpt><trkpt lat="45.13306070810785" lon="7.043451308111203"><ele>550.0</ele><time>2026-05-02T15:44:02Z</time></trkpt><trkpt lat="45.13305935575639" lon="7.0432823307585615"><ele>552.6666666666667</ele><time>2026-05-02T15:44:03Z</time></trkpt><trkpt lat="45.13301665239622" lon="7.04307908980879"><ele>555.3333333333334</ele><time>2026-05-02T15:44:04Z</time></trkpt><trkpt lat="45.13294315559973" lon="7.042836961900851"><ele>558.0</ele><time>2026-05-02T15:44:05Z</time></trkpt><trkpt lat="45.13286368553699" lon="7.042575942700014"><ele>561.6666666666666</ele><time>2026-05-02T15:44:06Z</time></trkpt><trkpt lat="45.1328163849544" lon="7.042345705526808"><ele>565.3333333333333</ele><time>2026-05-02T15:44:07Z</time></trkpt><trkpt lat="45.13279352393395" lon="7.042125332631329"><ele>569.0</ele><time>2026-05-02T15:44:08Z</time></trkpt><trkpt lat="45.132793031553476" lon="7.0418933317346"><ele>569.0</ele><time>2026-05-02T15:44:09Z</time></trkpt><trkpt lat="45.13283001535353" lon="7.041664952223379"><ele>569.0</ele><time>2026-05-02T15:44:10Z</time></trkpt><trkpt lat="45.13289972016169" lon="7.041468413395237"><ele>569.0</ele><time>2026-05-02T15:44:11Z</time></trkpt><trkpt lat="45.13297526102376" lon="7.041321561528795"><ele>569.0</ele><time>2026-05-02T15:44:12Z</time></trkpt><trkpt lat="45.133052070966244" lon="7.041201943631021"><ele>570.2</ele><time>2026-05-02T15:44:13Z</time></trkpt><trkpt lat="45.133135500898625" lon="7.041096402160067"><ele>571.4</ele><time>2026-05-02T15:44:14Z</time></trkpt><trkpt lat="45.133222522002455" lon="7.041005982809181"><ele>572.6</ele><time>2026-05-02T15:44:15Z</time></trkpt><trkpt lat="45.13330231555728" lon="7.040906734979277"><ele>573.8</ele><time>2026-05-02T15:44:16Z</time></trkpt><trkpt lat="45.13335798604326" lon="7.040796746320998"><ele>575.0</ele><time>2026-05-02T15:44:17Z</time></trkpt><trkpt lat="45.13339415672844" lon="7.040669777442083"><ele>578.0</ele><time>2026-05-02T15:44:18Z</time></trkpt><trkpt lat="45.13341653391614" lon="7.040536745305605"><ele>581.0</ele><time>2026-05-02T15:44:19Z</time></trkpt><trkpt lat="45.13342499421577" lon="7.040409557379664"><ele>584.0</ele><time>2026-05-02T15:44:20Z</time></trkpt><trkpt lat="45.13341868694142" lon="7.040281176407138"><ele>587.0</ele><time>2026-05-02T15:44:21Z</time></trkpt><trkpt lat="45.13338804781033" lon="7.04016644268254"><ele>590.0</ele><time>2026-05-02T15:44:22Z</time></trkpt><trkpt lat="45.13334617594849" lon="7.040057124366987"><ele>595.0</ele><time>2026-05-02T15:44:23Z</time></trkpt><trkpt lat="45.13328641872218" lon="7.039942877155779"><ele>600.0</ele><time>2026-05-02T15:44:24Z</time></trkpt><trkpt lat="45.13320471904882" lon="7.039823468598003"><ele>605.0</ele><time>2026-05-02T15:44:25Z</time></trkpt><trkpt lat="45.133101435523166" lon="7.039715940949056"><ele>610.0</ele><time>2026-05-02T15:44:26Z</time></trkpt><trkpt lat="45.13298093344609" lon="7.039613353530595"><ele>610.0</ele><time>2026-05-02T15:44:27Z</time></trkpt><trkpt lat="45.132855147401585" lon="7.039518742560641"><ele>610.0</ele><time>2026-05-02T15:44:28Z</time></trkpt><trkpt lat="45.132735028315004" lon="7.03943753252042"><ele>610.0</ele><time>2026-05-02T15:44:29Z</time></trkpt><trkpt lat="45.132611441787596" lon="7.039380535363647"><ele>610.0</ele><time>2026-05-02T15:44:30Z</time></trkpt><trkpt lat="45.13247324904034" lon="7.039397942522658"><ele>609.5</ele><time>2026-05-02T15:44:31Z</time></trkpt><trkpt lat="45.13234090464358" lon="7.039530038186399"><ele>609.0</ele><time>2026-05-02T15:44:32Z</time></trkpt><trkpt lat="45.132244093395755" lon="7.039659609551139"><ele>608.5</ele><time>2026-05-02T15:44:33Z</time></trkpt><trkpt lat="45.132173687809974" lon="7.039820266888377"><ele>608.0</ele><time>2026-05-02T15:44:34Z</time></trkpt><trkpt lat="45.13210594816649" lon="7.039974023709697"><ele>607.0</ele><time>2026-05-02T15:44:35Z</time></trkpt><trkpt lat="45.13203000959934" lon="7.040104461948316"><ele>606.0</ele><time>2026-05-02T15:44:36Z</time></trkpt><trkpt lat="45.13192835191893" lon="7.040221418597797"><ele>605.0</ele><time>2026-05-02T15:44:37Z</time></trkpt><trkpt lat="45.13181232465476" lon="7.040312495233702"><ele>604.0</ele><time>2026-05-02T15:44:38Z</time></trkpt><trkpt lat="45.13168933727596" lon="7.0403838871157"><ele>604.0</ele><time>2026-05-02T15:44:39Z</time></trkpt><trkpt lat="45.13157446924749" lon="7.040438754723599"><ele>604.0</ele><time>2026-05-02T15:44:40Z</time></trkpt><trkpt lat="45.13147268170802" lon="7.040470493536918"><ele>604.0</ele><time>2026-05-02T15:44:41Z</time></trkpt><trkpt lat="45.13136440081033" lon="7.04045735501694"><ele>604.0</ele><time>2026-05-02T15:44:42Z</time></trkpt><trkpt lat="45.13125478010189" lon="7.040398792088645"><ele>602.0</ele><time>2026-05-02T15:44:43Z</time></trkpt><trkpt lat="45.13115595787263" lon="7.040299043808215"><ele>600.0</ele><time>2026-05-02T15:44:44Z</time></trkpt><trkpt lat="45.131075536076" lon="7.040160089559988"><ele>598.0</ele><time>2026-05-02T15:44:45Z</time></trkpt><trkpt lat="45.13102471376312" lon="7.039984112700514"><ele>596.0</ele><time>2026-05-02T15:44:46Z</time></trkpt><trkpt lat="45.131014178794715" lon="7.039810097843536"><ele>710.0</ele><time>2026-05-02T15:44:47Z</time></trkpt><trkpt lat="45.128872010500096" lon="7.02480730047686"><ele>710.0</ele><time>2026-05-02T15:45:47.999Z</time></trkpt><trkpt lat="45.12869283696099" lon="7.024658838308677"><ele>710.0</ele><time>2026-05-02T15:45:48.999Z</time></trkpt><trkpt lat="45.12850177664778" lon="7.0245005662962186"><ele>710.0</ele><time>2026-05-02T15:45:49.999Z</time></trkpt><trkpt lat="45.12830866466165" lon="7.024323974016499"><ele>715.5</ele><time>2026-05-02T15:45:50.999Z</time></trkpt><trkpt lat="45.12810390652389" lon="7.0241412453256205"><ele>721.0</ele><time>2026-05-02T15:45:51.999Z</time></trkpt><trkpt lat="45.127896483595244" lon="7.02394436134627"><ele>721.0</ele><time>2026-05-02T15:45:52.999Z</time></trkpt><trkpt lat="45.12766584499733" lon="7.023750808413011"><ele>721.0</ele><time>2026-05-02T15:45:53.999Z</time></trkpt><trkpt lat="45.12741466676299" lon="7.02353645173429"><ele>723.5</ele><time>2026-05-02T15:45:55Z</time></trkpt><trkpt lat="45.12714908648882" lon="7.023318850568712"><ele>726.0</ele><time>2026-05-02T15:45:56Z</time></trkpt><trkpt lat="45.12686825547191" lon="7.023117708563032"><ele>726.0</ele><time>2026-05-02T15:45:57Z</time></trkpt><trkpt lat="45.1266171718483" lon="7.022893690052358"><ele>726.0</ele><time>2026-05-02T15:45:58Z</time></trkpt><trkpt lat="45.126387964463134" lon="7.022695624904799"><ele>734.0</ele><time>2026-05-02T15:45:59Z</time></trkpt><trkpt lat="45.126185378857166" lon="7.022519812433922"><ele>742.0</ele><time>2026-05-02T15:46:00Z</time></trkpt><trkpt lat="45.12600117291344" lon="7.022353129668592"><ele>742.0</ele><time>2026-05-02T15:46:01Z</time></trkpt><trkpt lat="45.12589924317705" lon="7.02222250858875"><ele>742.0</ele><time>2026-05-02T15:46:02Z</time></trkpt><trkpt lat="45.12578595018167" lon="7.022023186211168"><ele>742.0</ele><time>2026-05-02T15:46:03Z</time></trkpt><trkpt lat="45.125697838082374" lon="7.021778497163229"><ele>757.3333333333334</ele><time>2026-05-02T15:46:04Z</time></trkpt><trkpt lat="45.12564014618031" lon="7.021517715089738"><ele>772.6666666666667</ele><time>2026-05-02T15:46:05Z</time></trkpt><trkpt lat="45.12561937617675" lon="7.021261418805606"><ele>788.0</ele><time>2026-05-02T15:46:06Z</time></trkpt><trkpt lat="45.12563253113558" lon="7.021008860494012"><ele>783.6666666666667</ele><time>2026-05-02T15:46:07Z</time></trkpt><trkpt lat="45.12567865823807" lon="7.020781808929028"><ele>779.3333333333333</ele><time>2026-05-02T15:46:08Z</time></trkpt><trkpt lat="45.12575362616068" lon="7.0205851643045"><ele>775.0</ele><time>2026-05-02T15:46:09Z</time></trkpt><trkpt lat="45.125860465516844" lon="7.020404658072015"><ele>768.6666666666666</ele><time>2026-05-02T15:46:10Z</time></trkpt><trkpt lat="45.12596980340292" lon="7.020196122928367"><ele>762.3333333333333</ele><time>2026-05-02T15:46:11Z</time></trkpt><trkpt lat="45.1260692232074" lon="7.019996802823574"><ele>756.0</ele><time>2026-05-02T15:46:12Z</time></trkpt><trkpt lat="45.12615045427756" lon="7.019792356526288"><ele>756.0</ele><time>2026-05-02T15:46:13Z</time></trkpt><trkpt lat="45.126204963095844" lon="7.019579493804854"><ele>756.0</ele><time>2026-05-02T15:46:14Z</time></trkpt><trkpt lat="45.12627663895759" lon="7.019365390923249"><ele>756.0</ele><time>2026-05-02T15:46:15Z</time></trkpt><trkpt lat="45.12634330555713" lon="7.019146576733412"><ele>758.0</ele><time>2026-05-02T15:46:16Z</time></trkpt><trkpt lat="45.126411328029164" lon="7.018944735772841"><ele>760.0</ele><time>2026-05-02T15:46:17Z</time></trkpt><trkpt lat="45.12645616176429" lon="7.018779904118487"><ele>762.0</ele><time>2026-05-02T15:46:18Z</time></trkpt><trkpt lat="45.12650226179084" lon="7.018589796103675"><ele>764.0</ele><time>2026-05-02T15:46:38Z</time></trkpt><trkpt lat="45.12651826242572" lon="7.018478476206138"><ele>764.0</ele><time>2026-05-02T15:46:39Z</time></trkpt><trkpt lat="45.12654090511786" lon="7.018318822154143"><ele>764.0</ele><time>2026-05-02T15:46:40Z</time></trkpt><trkpt lat="45.12656695780994" lon="7.018136634944026"><ele>764.0</ele><time>2026-05-02T15:46:41Z</time></trkpt><trkpt lat="45.12660081902975" lon="7.017957225067033"><ele>764.0</ele><time>2026-05-02T15:46:42Z</time></trkpt><trkpt lat="45.126608906584124" lon="7.01773470184417"><ele>763.0</ele><time>2026-05-02T15:46:43Z</time></trkpt><trkpt lat="45.12660286837899" lon="7.017493913053118"><ele>762.0</ele><time>2026-05-02T15:46:44Z</time></trkpt><trkpt lat="45.126622759559645" lon="7.017314456258452"><ele>761.0</ele><time>2026-05-02T15:46:45Z</time></trkpt><trkpt lat="45.1266930900777" lon="7.017137047099878"><ele>760.0</ele><time>2026-05-02T15:46:46Z</time></trkpt><trkpt lat="45.12675263788697" lon="7.016945810151206"><ele>747.0</ele><time>2026-05-02T15:46:47Z</time></trkpt><trkpt lat="45.12701118213665" lon="7.010868456559769"><ele>747.0</ele><time>2026-05-02T15:47:50.999Z</time></trkpt><trkpt lat="45.12692664576713" lon="7.010912713833539"><ele>747.0</ele><time>2026-05-02T15:54:01.999Z</time></trkpt><trkpt lat="45.1269524043408" lon="7.010828031575824"><ele>747.0</ele><time>2026-05-02T17:15:16.999Z</time></trkpt><trkpt lat="45.12699845472036" lon="7.010715277082901"><ele>747.0</ele><time>2026-05-02T17:15:21.999Z</time></trkpt><trkpt lat="45.126975105948574" lon="7.0105781808491985"><ele>747.0</ele><time>2026-05-02T17:15:22.999Z</time></trkpt><trkpt lat="45.126937215806386" lon="7.0103717190229755"><ele>746.6666666666666</ele><time>2026-05-02T17:15:23.999Z</time></trkpt><trkpt lat="45.126899094447595" lon="7.010095039119238"><ele>746.3333333333333</ele><time>2026-05-02T17:15:24.999Z</time></trkpt><trkpt lat="45.12684909093224" lon="7.009774787506798"><ele>746.0</ele><time>2026-05-02T17:15:25.999Z</time></trkpt><trkpt lat="45.12679481857421" lon="7.009454018752529"><ele>741.0</ele><time>2026-05-02T17:15:26.999Z</time></trkpt><trkpt lat="45.126745271894514" lon="7.0091370463724605"><ele>736.0</ele><time>2026-05-02T17:15:27.999Z</time></trkpt><trkpt lat="45.12669222428143" lon="7.008816152880941"><ele>736.0</ele><time>2026-05-02T17:15:28.999Z</time></trkpt><trkpt lat="45.126633460266135" lon="7.008488141951906"><ele>736.0</ele><time>2026-05-02T17:15:29.999Z</time></trkpt><trkpt lat="45.12659391030266" lon="7.008177199577076"><ele>738.6666666666667</ele><time>2026-05-02T17:15:30.999Z</time></trkpt><trkpt lat="45.12655296080073" lon="7.00787074464217"><ele>741.3333333333334</ele><time>2026-05-02T17:15:31.999Z</time></trkpt><trkpt lat="45.126507904821466" lon="7.007572399577852"><ele>744.0</ele><time>2026-05-02T17:15:32.999Z</time></trkpt><trkpt lat="45.12646797279812" lon="7.007297910450824"><ele>744.3333333333334</ele><time>2026-05-02T17:15:33.999Z</time></trkpt><trkpt lat="45.12643159610725" lon="7.0070488773484305"><ele>744.6666666666667</ele><time>2026-05-02T17:15:34.999Z</time></trkpt><trkpt lat="45.12639397722561" lon="7.00680557474275"><ele>745.0</ele><time>2026-05-02T17:15:35.999Z</time></trkpt><trkpt lat="45.126352499056836" lon="7.006556255039874"><ele>745.3333333333334</ele><time>2026-05-02T17:15:36.999Z</time></trkpt><trkpt lat="45.12630128999165" lon="7.006306284936458"><ele>745.6666666666666</ele><time>2026-05-02T17:15:37.999Z</time></trkpt><trkpt lat="45.126243824648604" lon="7.006057502417652"><ele>746.0</ele><time>2026-05-02T17:15:38.999Z</time></trkpt><trkpt lat="45.126182312574755" lon="7.005809682694062"><ele>745.0</ele><time>2026-05-02T17:15:39.999Z</time></trkpt><trkpt lat="45.12611480524642" lon="7.005565782739099"><ele>744.0</ele><time>2026-05-02T17:15:40.999Z</time></trkpt><trkpt lat="45.12604342915267" lon="7.005329716835221"><ele>743.0</ele><time>2026-05-02T17:15:41.999Z</time></trkpt><trkpt lat="45.12596870536514" lon="7.005098410536426"><ele>744.0</ele><time>2026-05-02T17:15:42.999Z</time></trkpt><trkpt lat="45.1258900274893" lon="7.004875441462363"><ele>745.0</ele><time>2026-05-02T17:15:43.999Z</time></trkpt><trkpt lat="45.12580576580926" lon="7.004660594912155"><ele>746.0</ele><time>2026-05-02T17:15:44.999Z</time></trkpt><trkpt lat="45.12572154520373" lon="7.004443866345707"><ele>746.0</ele><time>2026-05-02T17:15:45.999Z</time></trkpt><trkpt lat="45.125640401604336" lon="7.004226731031851"><ele>746.0</ele><time>2026-05-02T17:15:46.999Z</time></trkpt><trkpt lat="45.12200831971266" lon="6.990661345477563"><ele>746.5</ele><time>2026-05-02T17:16:48Z</time></trkpt><trkpt lat="45.12198724421181" lon="6.990491389693419"><ele>747.0</ele><time>2026-05-02T17:16:49Z</time></trkpt><trkpt lat="45.121961821236226" lon="6.990321825579566"><ele>747.5</ele><time>2026-05-02T17:16:50Z</time></trkpt><trkpt lat="45.121928540480184" lon="6.990151353420236"><ele>748.0</ele><time>2026-05-02T17:16:51Z</time></trkpt><trkpt lat="45.12188811157382" lon="6.989984210907306"><ele>748.0</ele><time>2026-05-02T17:16:52Z</time></trkpt><trkpt lat="45.12183879779639" lon="6.989821608978604"><ele>748.0</ele><time>2026-05-02T17:16:53Z</time></trkpt><trkpt lat="45.121785237757166" lon="6.989653108339942"><ele>748.0</ele><time>2026-05-02T17:16:54Z</time></trkpt><trkpt lat="45.12173117121079" lon="6.98949474507728"><ele>748.0</ele><time>2026-05-02T17:16:55Z</time></trkpt><trkpt lat="45.12166960884738" lon="6.98934056495631"><ele>748.0</ele><time>2026-05-02T17:16:56Z</time></trkpt><trkpt lat="45.121607967806774" lon="6.98918215035328"><ele>748.0</ele><time>2026-05-02T17:16:57Z</time></trkpt><trkpt lat="45.121548043101804" lon="6.989019879558256"><ele>748.0</ele><time>2026-05-02T17:16:58Z</time></trkpt><trkpt lat="45.12148601957892" lon="6.98884698957665"><ele>748.0</ele><time>2026-05-02T17:16:59Z</time></trkpt><trkpt lat="45.12142470379497" lon="6.988680220669397"><ele>750.0</ele><time>2026-05-02T17:17:00Z</time></trkpt><trkpt lat="45.12136261218242" lon="6.9885093729259475"><ele>752.0</ele><time>2026-05-02T17:17:01Z</time></trkpt><trkpt lat="45.12130115047317" lon="6.9883412158340175"><ele>754.0</ele><time>2026-05-02T17:17:02Z</time></trkpt><trkpt lat="45.12124277186197" lon="6.988165692528946"><ele>756.0</ele><time>2026-05-02T17:17:03Z</time></trkpt><trkpt lat="45.121178665185596" lon="6.9879861209859815"><ele>756.0</ele><time>2026-05-02T17:17:04Z</time></trkpt><trkpt lat="45.12111060087534" lon="6.987806330054614"><ele>756.0</ele><time>2026-05-02T17:17:05Z</time></trkpt><trkpt lat="45.12104266174606" lon="6.987622271365513"><ele>756.0</ele><time>2026-05-02T17:17:06Z</time></trkpt><trkpt lat="45.12097388923631" lon="6.987430196590907"><ele>756.0</ele><time>2026-05-02T17:17:06.999Z</time></trkpt><trkpt lat="45.12090682284038" lon="6.987242561092045"><ele>755.5</ele><time>2026-05-02T17:17:07.999Z</time></trkpt><trkpt lat="45.120841674427574" lon="6.9870701154266035"><ele>755.0</ele><time>2026-05-02T17:17:08.999Z</time></trkpt><trkpt lat="45.120774911515504" lon="6.986912562464326"><ele>754.5</ele><time>2026-05-02T17:17:09.999Z</time></trkpt><trkpt lat="45.1206999753284" lon="6.9867641750632306"><ele>754.0</ele><time>2026-05-02T17:17:10.999Z</time></trkpt><trkpt lat="45.12061416112518" lon="6.986628571549839"><ele>755.25</ele><time>2026-05-02T17:17:11.999Z</time></trkpt><trkpt lat="45.12051967255473" lon="6.986517878486166"><ele>756.5</ele><time>2026-05-02T17:17:12.999Z</time></trkpt><trkpt lat="45.12041565039446" lon="6.986435404965317"><ele>757.75</ele><time>2026-05-02T17:17:13.999Z</time></trkpt><trkpt lat="45.12031468756946" lon="6.986369216832606"><ele>759.0</ele><time>2026-05-02T17:17:14.999Z</time></trkpt><trkpt lat="45.12021804475656" lon="6.986324620456345"><ele>759.0</ele><time>2026-05-02T17:17:15.999Z</time></trkpt><trkpt lat="45.12012525624582" lon="6.986293629487046"><ele>759.0</ele><time>2026-05-02T17:17:16.999Z</time></trkpt><trkpt lat="45.12001958264881" lon="6.986268811842856"><ele>759.0</ele><time>2026-05-02T17:17:17.999Z</time></trkpt><trkpt lat="45.119912064366446" lon="6.986242581240851"><ele>759.0</ele><time>2026-05-02T17:17:18.999Z</time></trkpt><trkpt lat="45.11979518456248" lon="6.986195894231329"><ele>759.0</ele><time>2026-05-02T17:17:19.999Z</time></trkpt><trkpt lat="45.11968353637782" lon="6.986128284604152"><ele>759.0</ele><time>2026-05-02T17:17:20.999Z</time></trkpt><trkpt lat="45.11957102134511" lon="6.986043800466001"><ele>759.0</ele><time>2026-05-02T17:17:21.999Z</time></trkpt><trkpt lat="45.11945918420226" lon="6.985943070957126"><ele>759.0</ele><time>2026-05-02T17:17:22.999Z</time></trkpt><trkpt lat="45.11933978782055" lon="6.985825537917088"><ele>759.0</ele><time>2026-05-02T17:17:23.999Z</time></trkpt><trkpt lat="45.119221916874906" lon="6.985693471974367"><ele>759.0</ele><time>2026-05-02T17:17:24.999Z</time></trkpt><trkpt lat="45.11909658564375" lon="6.985533534922249"><ele>759.0</ele><time>2026-05-02T17:17:25.999Z</time></trkpt><trkpt lat="45.11896507156092" lon="6.9853355678946265"><ele>759.0</ele><time>2026-05-02T17:17:26.999Z</time></trkpt><trkpt lat="45.118836196644644" lon="6.985119382690215"><ele>760.6666666666666</ele><time>2026-05-02T17:17:27.999Z</time></trkpt><trkpt lat="45.118709073091104" lon="6.984917133373234"><ele>762.3333333333333</ele><time>2026-05-02T17:17:28.999Z</time></trkpt><trkpt lat="45.11858636448446" lon="6.984718704895906"><ele>764.0</ele><time>2026-05-02T17:17:29.999Z</time></trkpt><trkpt lat="45.11846213887615" lon="6.984520841481557"><ele>764.0</ele><time>2026-05-02T17:17:30.999Z</time></trkpt><trkpt lat="45.118341526579385" lon="6.984330298109948"><ele>764.0</ele><time>2026-05-02T17:17:31.999Z</time></trkpt><trkpt lat="45.11821975036142" lon="6.984142275964612"><ele>764.0</ele><time>2026-05-02T17:17:32.999Z</time></trkpt><trkpt lat="45.118098616045536" lon="6.983948121173697"><ele>765.6666666666666</ele><time>2026-05-02T17:17:33.999Z</time></trkpt><trkpt lat="45.11798448160384" lon="6.983771336525451"><ele>767.3333333333333</ele><time>2026-05-02T17:17:34.999Z</time></trkpt><trkpt lat="45.11788380447168" lon="6.9836124019321275"><ele>769.0</ele><time>2026-05-02T17:17:35.999Z</time></trkpt><trkpt lat="45.11778644079889" lon="6.98346137102812"><ele>767.75</ele><time>2026-05-02T17:17:36.999Z</time></trkpt><trkpt lat="45.11770257148081" lon="6.98332223887132"><ele>766.5</ele><time>2026-05-02T17:17:37.999Z</time></trkpt><trkpt lat="45.117620161537154" lon="6.983179776554421"><ele>765.25</ele><time>2026-05-02T17:17:38.999Z</time></trkpt><trkpt lat="45.11754598958821" lon="6.983042609760995"><ele>764.0</ele><time>2026-05-02T17:17:39.999Z</time></trkpt><trkpt lat="45.11747727157164" lon="6.982898953461343"><ele>764.0</ele><time>2026-05-02T17:17:40.999Z</time></trkpt><trkpt lat="45.1174170103196" lon="6.9827575836881115"><ele>764.0</ele><time>2026-05-02T17:17:41.999Z</time></trkpt><trkpt lat="45.117361019374215" lon="6.982609039734815"><ele>764.0</ele><time>2026-05-02T17:17:42.999Z</time></trkpt><trkpt lat="45.117321403470896" lon="6.982448836737463"><ele>764.0</ele><time>2026-05-02T17:17:43.999Z</time></trkpt><trkpt lat="45.11729014227439" lon="6.982289939154429"><ele>770.3333333333333</ele><time>2026-05-02T17:17:44.999Z</time></trkpt><trkpt lat="45.11726816730939" lon="6.982116794021866"><ele>776.6666666666666</ele><time>2026-05-02T17:17:45.999Z</time></trkpt><trkpt lat="45.117245631875484" lon="6.981954736318389"><ele>783.0</ele><time>2026-05-02T17:17:46.999Z</time></trkpt><trkpt lat="45.11310743769587" lon="6.970237539359728"><ele>789.5</ele><time>2026-05-02T17:18:48Z</time></trkpt><trkpt lat="45.113050389331406" lon="6.970169847652228"><ele>796.0</ele><time>2026-05-02T17:18:49Z</time></trkpt><trkpt lat="45.1129709039684" lon="6.970083748979045"><ele>802.5</ele><time>2026-05-02T17:18:51Z</time></trkpt><trkpt lat="45.11288500830719" lon="6.970083688287481"><ele>809.0</ele><time>2026-05-02T17:19:45.999Z</time></trkpt><trkpt lat="45.10793661302486" lon="6.9554180775832695"><ele>787.3333333333334</ele><time>2026-05-02T17:20:48Z</time></trkpt><trkpt lat="45.10788365754804" lon="6.9552152498577"><ele>765.6666666666667</ele><time>2026-05-02T17:20:49Z</time></trkpt><trkpt lat="45.10782769479586" lon="6.955003481827126"><ele>744.0</ele><time>2026-05-02T17:20:50Z</time></trkpt><trkpt lat="45.10776854902786" lon="6.954783847675176"><ele>742.0</ele><time>2026-05-02T17:20:51Z</time></trkpt><trkpt lat="45.1077104260604" lon="6.95455188452233"><ele>740.0</ele><time>2026-05-02T17:20:52Z</time></trkpt><trkpt lat="45.10764735728704" lon="6.954313994866251"><ele>738.0</ele><time>2026-05-02T17:20:53Z</time></trkpt><trkpt lat="45.10758910794561" lon="6.95408004356416"><ele>743.0</ele><time>2026-05-02T17:20:54Z</time></trkpt><trkpt lat="45.10753253416079" lon="6.953850966973249"><ele>748.0</ele><time>2026-05-02T17:20:55Z</time></trkpt><trkpt lat="45.10747204436236" lon="6.953604286155901"><ele>753.0</ele><time>2026-05-02T17:20:56Z</time></trkpt><trkpt lat="45.1074118574461" lon="6.953365198680076"><ele>748.6666666666666</ele><time>2026-05-02T17:20:57Z</time></trkpt><trkpt lat="45.10735539819189" lon="6.9531190806467915"><ele>744.3333333333333</ele><time>2026-05-02T17:20:58Z</time></trkpt><trkpt lat="45.107303122733214" lon="6.952865809951369"><ele>740.0</ele><time>2026-05-02T17:20:59Z</time></trkpt><trkpt lat="45.10724667812651" lon="6.952612081859772"><ele>743.6666666666666</ele><time>2026-05-02T17:21:00Z</time></trkpt><trkpt lat="45.10718726063924" lon="6.952363705654965"><ele>747.3333333333334</ele><time>2026-05-02T17:21:01Z</time></trkpt><trkpt lat="45.10711959278387" lon="6.95211151277396"><ele>751.0</ele><time>2026-05-02T17:21:02Z</time></trkpt><trkpt lat="45.10705433321783" lon="6.951851564197383"><ele>755.3333333333334</ele><time>2026-05-02T17:21:03Z</time></trkpt><trkpt lat="45.10697292944586" lon="6.951573031873815"><ele>759.6666666666666</ele><time>2026-05-02T17:21:04Z</time></trkpt><trkpt lat="45.10685152563569" lon="6.951292584645934"><ele>764.0</ele><time>2026-05-02T17:21:05Z</time></trkpt><trkpt lat="45.106735852795815" lon="6.951007355700214"><ele>756.0</ele><time>2026-05-02T17:21:06Z</time></trkpt><trkpt lat="45.106642703958784" lon="6.950730789728977"><ele>748.0</ele><time>2026-05-02T17:21:07Z</time></trkpt><trkpt lat="45.10658553377405" lon="6.950473879793477"><ele>740.0</ele><time>2026-05-02T17:21:08Z</time></trkpt><trkpt lat="45.10655419922818" lon="6.950229467448416"><ele>745.0</ele><time>2026-05-02T17:21:09Z</time></trkpt><trkpt lat="45.10654085383225" lon="6.950003977483683"><ele>750.0</ele><time>2026-05-02T17:21:10Z</time></trkpt><trkpt lat="45.106512301812" lon="6.949807190732806"><ele>755.0</ele><time>2026-05-02T17:21:11Z</time></trkpt><trkpt lat="45.106434615777545" lon="6.949617606946874"><ele>755.0</ele><time>2026-05-02T17:21:12Z</time></trkpt><trkpt lat="45.106333578406804" lon="6.949438757085891"><ele>755.0</ele><time>2026-05-02T17:21:13Z</time></trkpt><trkpt lat="45.10621460703366" lon="6.949305897280078"><ele>755.0</ele><time>2026-05-02T17:21:14Z</time></trkpt><trkpt lat="45.106119459017584" lon="6.949162249409883"><ele>760.6666666666666</ele><time>2026-05-02T17:21:15Z</time></trkpt><trkpt lat="45.10606148684398" lon="6.948962438437252"><ele>766.3333333333333</ele><time>2026-05-02T17:21:16Z</time></trkpt><trkpt lat="45.10601444478398" lon="6.948708333240214"><ele>772.0</ele><time>2026-05-02T17:21:17Z</time></trkpt><trkpt lat="45.10594725600096" lon="6.948429939226423"><ele>779.0</ele><time>2026-05-02T17:21:18Z</time></trkpt><trkpt lat="45.105935605665714" lon="6.948172108466437"><ele>786.0</ele><time>2026-05-02T17:21:19Z</time></trkpt><trkpt lat="45.10593719440116" lon="6.947938511090277"><ele>793.0</ele><time>2026-05-02T17:21:20Z</time></trkpt><trkpt lat="45.10592988759282" lon="6.947704726530044"><ele>799.0</ele><time>2026-05-02T17:21:20.999Z</time></trkpt><trkpt lat="45.105838840285315" lon="6.947462849041097"><ele>805.0</ele><time>2026-05-02T17:21:21.999Z</time></trkpt><trkpt lat="45.105697350408754" lon="6.947237047831876"><ele>811.0</ele><time>2026-05-02T17:21:22.999Z</time></trkpt><trkpt lat="45.105550963748385" lon="6.9469649901527655"><ele>804.3333333333333</ele><time>2026-05-02T17:21:23.999Z</time></trkpt><trkpt lat="45.105430097438585" lon="6.946687687997419"><ele>797.6666666666667</ele><time>2026-05-02T17:21:24.999Z</time></trkpt><trkpt lat="45.105317138424894" lon="6.946447917754873"><ele>791.0</ele><time>2026-05-02T17:21:25.999Z</time></trkpt><trkpt lat="45.105189982588314" lon="6.946266523632316"><ele>791.0</ele><time>2026-05-02T17:21:26.999Z</time></trkpt><trkpt lat="45.10505356694789" lon="6.946135081417816"><ele>791.0</ele><time>2026-05-02T17:21:27.999Z</time></trkpt><trkpt lat="45.104917842012014" lon="6.946030547061748"><ele>791.0</ele><time>2026-05-02T17:21:28.999Z</time></trkpt><trkpt lat="45.104779490068346" lon="6.945949635278558"><ele>790.0</ele><time>2026-05-02T17:21:29.999Z</time></trkpt><trkpt lat="45.104657951564256" lon="6.945872735072415"><ele>789.0</ele><time>2026-05-02T17:21:30.999Z</time></trkpt><trkpt lat="45.10455822171416" lon="6.945784328937668"><ele>788.0</ele><time>2026-05-02T17:21:31.999Z</time></trkpt><trkpt lat="45.10447033852839" lon="6.945683494825574"><ele>787.0</ele><time>2026-05-02T17:21:32.999Z</time></trkpt><trkpt lat="45.1043804331242" lon="6.945591790203466"><ele>786.9999999999999</ele><time>2026-05-02T17:21:33.999Z</time></trkpt><trkpt lat="45.10431378752785" lon="6.945503386042221"><ele>787.0</ele><time>2026-05-02T17:21:34.999Z</time></trkpt><trkpt lat="45.10426184635635" lon="6.94541543417979"><ele>787.0</ele><time>2026-05-02T17:21:35.999Z</time></trkpt><trkpt lat="45.10421603129177" lon="6.9453166785795535"><ele>787.0</ele><time>2026-05-02T17:21:36.999Z</time></trkpt><trkpt lat="45.10417708914714" lon="6.945232500916536"><ele>786.9999999999999</ele><time>2026-05-02T17:21:37.999Z</time></trkpt><trkpt lat="45.10414841265304" lon="6.945118088444909"><ele>787.0</ele><time>2026-05-02T17:21:38.999Z</time></trkpt><trkpt lat="45.10410433676607" lon="6.945009616129664"><ele>786.4000000000001</ele><time>2026-05-02T17:21:39.999Z</time></trkpt><trkpt lat="45.1040501086059" lon="6.944906084639458"><ele>785.8000000000001</ele><time>2026-05-02T17:21:40.999Z</time></trkpt><trkpt lat="45.103987242410284" lon="6.944806493479434"><ele>785.2</ele><time>2026-05-02T17:21:41.999Z</time></trkpt><trkpt lat="45.103912295609014" lon="6.944711646071697"><ele>784.6</ele><time>2026-05-02T17:21:42.999Z</time></trkpt><trkpt lat="45.10384633244573" lon="6.944612222778261"><ele>784.0</ele><time>2026-05-02T17:21:43.999Z</time></trkpt><trkpt lat="45.103787425439464" lon="6.944499194497054"><ele>784.0</ele><time>2026-05-02T17:21:44.999Z</time></trkpt><trkpt lat="45.103737733266534" lon="6.944393383493319"><ele>784.0</ele><time>2026-05-02T17:21:45.999Z</time></trkpt><trkpt lat="45.103678833953495" lon="6.944298647926518"><ele>784.0</ele><time>2026-05-02T17:21:46.999Z</time></trkpt><trkpt lat="45.100741504632595" lon="6.933279572077982"><ele>809.3333333333333</ele><time>2026-05-02T17:22:48Z</time></trkpt><trkpt lat="45.10070877423996" lon="6.933008955776419"><ele>834.6666666666667</ele><time>2026-05-02T17:22:49Z</time></trkpt><trkpt lat="45.10065222381366" lon="6.932766824585821"><ele>860.0</ele><time>2026-05-02T17:22:50Z</time></trkpt><trkpt lat="45.10056420741332" lon="6.93252800714681"><ele>862.6666666666667</ele><time>2026-05-02T17:22:51Z</time></trkpt><trkpt lat="45.10043176957396" lon="6.93230695052353"><ele>865.3333333333333</ele><time>2026-05-02T17:22:52Z</time></trkpt><trkpt lat="45.1002560806944" lon="6.932102182178999"><ele>868.0</ele><time>2026-05-02T17:22:53Z</time></trkpt><trkpt lat="45.10002838204987" lon="6.931955816819712"><ele>867.5</ele><time>2026-05-02T17:22:54Z</time></trkpt><trkpt lat="45.09981319233687" lon="6.931780959263047"><ele>867.0</ele><time>2026-05-02T17:22:55Z</time></trkpt><trkpt lat="45.09963054343016" lon="6.931553739712906"><ele>867.0</ele><time>2026-05-02T17:22:56Z</time></trkpt><trkpt lat="45.099474855595375" lon="6.931328737316873"><ele>867.0</ele><time>2026-05-02T17:22:57Z</time></trkpt><trkpt lat="45.09931848166322" lon="6.9311258836428715"><ele>867.0</ele><time>2026-05-02T17:22:58Z</time></trkpt><trkpt lat="45.099176680326195" lon="6.930883793377918"><ele>868.0</ele><time>2026-05-02T17:22:59Z</time></trkpt><trkpt lat="45.099032626501206" lon="6.930618085824304"><ele>869.0</ele><time>2026-05-02T17:23:00Z</time></trkpt><trkpt lat="45.09887972522429" lon="6.93033670078075"><ele>875.0</ele><time>2026-05-02T17:23:01Z</time></trkpt><trkpt lat="45.09875696072757" lon="6.930049406651525"><ele>881.0</ele><time>2026-05-02T17:23:02Z</time></trkpt><trkpt lat="45.098633821855195" lon="6.929736245658296"><ele>881.0</ele><time>2026-05-02T17:23:03Z</time></trkpt><trkpt lat="45.098506166706564" lon="6.929389963389041"><ele>881.0</ele><time>2026-05-02T17:23:04Z</time></trkpt><trkpt lat="45.09842519363704" lon="6.929077400826761"><ele>881.0</ele><time>2026-05-02T17:23:05Z</time></trkpt><trkpt lat="45.098327453065764" lon="6.9287781002340525"><ele>881.0</ele><time>2026-05-02T17:23:06Z</time></trkpt><trkpt lat="45.09819732687314" lon="6.928505264754562"><ele>882.5</ele><time>2026-05-02T17:23:07Z</time></trkpt><trkpt lat="45.09806791197952" lon="6.92824262508912"><ele>884.0</ele><time>2026-05-02T17:23:08Z</time></trkpt><trkpt lat="45.09795662588859" lon="6.927950704102314"><ele>884.0</ele><time>2026-05-02T17:23:09Z</time></trkpt><trkpt lat="45.09786006527351" lon="6.927689516065941"><ele>884.0</ele><time>2026-05-02T17:23:10Z</time></trkpt><trkpt lat="45.09776988274423" lon="6.927435414799586"><ele>884.0</ele><time>2026-05-02T17:23:11Z</time></trkpt><trkpt lat="45.097682940009314" lon="6.927204034850718"><ele>887.3333333333334</ele><time>2026-05-02T17:23:12Z</time></trkpt><trkpt lat="45.09758780349826" lon="6.9269964773326596"><ele>890.6666666666667</ele><time>2026-05-02T17:23:13Z</time></trkpt><trkpt lat="45.09747862125161" lon="6.92683926955911"><ele>894.0</ele><time>2026-05-02T17:23:14Z</time></trkpt><trkpt lat="45.09733958456598" lon="6.9267148514393915"><ele>894.0</ele><time>2026-05-02T17:23:15Z</time></trkpt><trkpt lat="45.09716467724692" lon="6.9266348439942504"><ele>894.0</ele><time>2026-05-02T17:23:16Z</time></trkpt><trkpt lat="45.09694714501528" lon="6.92658459395324"><ele>894.0</ele><time>2026-05-02T17:23:17Z</time></trkpt><trkpt lat="45.09670586170537" lon="6.926545607409053"><ele>885.0</ele><time>2026-05-02T17:23:18Z</time></trkpt><trkpt lat="45.09647328055908" lon="6.926459257694775"><ele>876.0</ele><time>2026-05-02T17:23:19Z</time></trkpt><trkpt lat="45.09625118771775" lon="6.9263314688373185"><ele>876.0</ele><time>2026-05-02T17:23:20Z</time></trkpt><trkpt lat="45.09604313840202" lon="6.926186853581243"><ele>876.0</ele><time>2026-05-02T17:23:21Z</time></trkpt><trkpt lat="45.09583165022594" lon="6.926035616336383"><ele>878.0</ele><time>2026-05-02T17:23:22Z</time></trkpt><trkpt lat="45.095634791886" lon="6.925854508646804"><ele>880.0</ele><time>2026-05-02T17:23:23Z</time></trkpt><trkpt lat="45.09544591221613" lon="6.925673730031325"><ele>880.0</ele><time>2026-05-02T17:23:24Z</time></trkpt><trkpt lat="45.095275684856304" lon="6.925491192398253"><ele>880.0</ele><time>2026-05-02T17:23:25Z</time></trkpt><trkpt lat="45.09511184991611" lon="6.925308554337305"><ele>880.0</ele><time>2026-05-02T17:23:26Z</time></trkpt><trkpt lat="45.09496460087333" lon="6.925080566151022"><ele>873.5</ele><time>2026-05-02T17:23:26.999Z</time></trkpt><trkpt lat="45.09481454923922" lon="6.924833246040225"><ele>867.0</ele><time>2026-05-02T17:23:27.999Z</time></trkpt><trkpt lat="45.09465372318277" lon="6.9245945347168165"><ele>867.0</ele><time>2026-05-02T17:23:28.999Z</time></trkpt><trkpt lat="45.09449436875105" lon="6.924287815878993"><ele>867.0</ele><time>2026-05-02T17:23:29.999Z</time></trkpt><trkpt lat="45.09437642012844" lon="6.924016879111471"><ele>877.3333333333333</ele><time>2026-05-02T17:23:30.999Z</time></trkpt><trkpt lat="45.0942954992471" lon="6.923772917155879"><ele>887.6666666666666</ele><time>2026-05-02T17:23:31.999Z</time></trkpt><trkpt lat="45.094222811383574" lon="6.9235439693933705"><ele>898.0</ele><time>2026-05-02T17:23:32.999Z</time></trkpt><trkpt lat="45.094159769287444" lon="6.9232697467862785"><ele>895.0</ele><time>2026-05-02T17:23:33.999Z</time></trkpt><trkpt lat="45.09407810158676" lon="6.922992902040305"><ele>892.0</ele><time>2026-05-02T17:23:34.999Z</time></trkpt><trkpt lat="45.09399724920753" lon="6.922711153419575"><ele>889.0</ele><time>2026-05-02T17:23:35.999Z</time></trkpt><trkpt lat="45.0939431656237" lon="6.922427426457461"><ele>889.0</ele><time>2026-05-02T17:23:36.999Z</time></trkpt><trkpt lat="45.09389917064783" lon="6.922138609522281"><ele>889.0</ele><time>2026-05-02T17:23:37.999Z</time></trkpt><trkpt lat="45.09380275331968" lon="6.921888002149117"><ele>889.0</ele><time>2026-05-02T17:23:38.999Z</time></trkpt><trkpt lat="45.09375374341085" lon="6.921620890292041"><ele>892.6666666666666</ele><time>2026-05-02T17:23:39.999Z</time></trkpt><trkpt lat="45.09369901345128" lon="6.921349252692164"><ele>896.3333333333333</ele><time>2026-05-02T17:23:40.999Z</time></trkpt><trkpt lat="45.093627416418734" lon="6.9210562992858"><ele>900.0</ele><time>2026-05-02T17:23:41.999Z</time></trkpt><trkpt lat="45.09353659718653" lon="6.92073898719277"><ele>910.5</ele><time>2026-05-02T17:23:42.999Z</time></trkpt><trkpt lat="45.09342285041702" lon="6.920400753769761"><ele>921.0</ele><time>2026-05-02T17:23:43.999Z</time></trkpt><trkpt lat="45.09329257277211" lon="6.9200409351443595"><ele>909.5</ele><time>2026-05-02T17:23:44.999Z</time></trkpt><trkpt lat="45.09314190923813" lon="6.919713212511222"><ele>898.0</ele><time>2026-05-02T17:23:45.999Z</time></trkpt><trkpt lat="45.09299230534942" lon="6.919430154905854"><ele>999.0</ele><time>2026-05-02T17:23:46.999Z</time></trkpt><trkpt lat="45.087867544611115" lon="6.907671550785001"><ele>999.0</ele><time>2026-05-02T17:24:48Z</time></trkpt><trkpt lat="45.087745576375404" lon="6.9076780945954095"><ele>999.0</ele><time>2026-05-02T17:24:49Z</time></trkpt><trkpt lat="45.08763234578045" lon="6.907745800836094"><ele>999.0</ele><time>2026-05-02T17:24:50Z</time></trkpt><trkpt lat="45.08752827512556" lon="6.90785208863929"><ele>999.0</ele><time>2026-05-02T17:24:51Z</time></trkpt><trkpt lat="45.0874161518964" lon="6.907905962058285"><ele>1002.3333333333333</ele><time>2026-05-02T17:24:52Z</time></trkpt><trkpt lat="45.08727267533333" lon="6.907910500744171"><ele>1005.6666666666666</ele><time>2026-05-02T17:24:53Z</time></trkpt><trkpt lat="45.08709821691828" lon="6.907929128972116"><ele>1009.0</ele><time>2026-05-02T17:24:54Z</time></trkpt><trkpt lat="45.08688092172838" lon="6.9079293566448055"><ele>1009.0</ele><time>2026-05-02T17:24:55Z</time></trkpt><trkpt lat="45.086642964488135" lon="6.907954588325265"><ele>1009.0</ele><time>2026-05-02T17:24:56Z</time></trkpt><trkpt lat="45.086434704609495" lon="6.90793122053121"><ele>1009.0</ele><time>2026-05-02T17:24:57Z</time></trkpt><trkpt lat="45.0862730764488" lon="6.907939418447948"><ele>1014.3333333333333</ele><time>2026-05-02T17:24:58Z</time></trkpt><trkpt lat="45.086125984753785" lon="6.90801198325251"><ele>1019.6666666666667</ele><time>2026-05-02T17:24:59Z</time></trkpt><trkpt lat="45.08597389245697" lon="6.90812265022956"><ele>1025.0</ele><time>2026-05-02T17:25:00Z</time></trkpt><trkpt lat="45.085820152052676" lon="6.908265827233593"><ele>1025.5</ele><time>2026-05-02T17:25:01Z</time></trkpt><trkpt lat="45.08568377433813" lon="6.908359911711727"><ele>1026.0</ele><time>2026-05-02T17:25:02Z</time></trkpt><trkpt lat="45.08554349463148" lon="6.908373113054484"><ele>1026.5</ele><time>2026-05-02T17:25:03Z</time></trkpt><trkpt lat="45.085395300755586" lon="6.908349978916719"><ele>1027.0</ele><time>2026-05-02T17:25:04Z</time></trkpt><trkpt lat="45.08518163609384" lon="6.908311912029942"><ele>1027.0</ele><time>2026-05-02T17:25:05Z</time></trkpt><trkpt lat="45.084946218740754" lon="6.90827999157562"><ele>1027.0</ele><time>2026-05-02T17:25:06Z</time></trkpt><trkpt lat="45.08470802740272" lon="6.908253712460978"><ele>1023.6666666666666</ele><time>2026-05-02T17:25:07Z</time></trkpt><trkpt lat="45.08451694362477" lon="6.908233554406586"><ele>1020.3333333333333</ele><time>2026-05-02T17:25:08Z</time></trkpt><trkpt lat="45.08437224063878" lon="6.908197600601253"><ele>1017.0</ele><time>2026-05-02T17:25:09Z</time></trkpt><trkpt lat="45.08425203987676" lon="6.908128680242643"><ele>1017.0</ele><time>2026-05-02T17:25:10Z</time></trkpt><trkpt lat="45.08415756797355" lon="6.908003152215434"><ele>1017.0</ele><time>2026-05-02T17:25:11Z</time></trkpt><trkpt lat="45.0841079131228" lon="6.9078518240181515"><ele>1017.0</ele><time>2026-05-02T17:25:12Z</time></trkpt><trkpt lat="45.084109875607716" lon="6.9077203533172575"><ele>1017.0</ele><time>2026-05-02T17:25:13Z</time></trkpt><trkpt lat="45.084169395845905" lon="6.907619040966043"><ele>1017.0</ele><time>2026-05-02T17:25:14Z</time></trkpt><trkpt lat="45.08428369837648" lon="6.907576992009732"><ele>1017.0</ele><time>2026-05-02T17:25:15Z</time></trkpt><trkpt lat="45.08442027386034" lon="6.907664035914235"><ele>1017.0</ele><time>2026-05-02T17:25:16Z</time></trkpt><trkpt lat="45.084596705657425" lon="6.90774984164197"><ele>1017.0</ele><time>2026-05-02T17:25:17Z</time></trkpt><trkpt lat="45.08481686841734" lon="6.907853364723663"><ele>1022.0</ele><time>2026-05-02T17:25:18Z</time></trkpt><trkpt lat="45.0850678457452" lon="6.907937303985406"><ele>1027.0</ele><time>2026-05-02T17:25:19Z</time></trkpt><trkpt lat="45.08526638600365" lon="6.907981959205819"><ele>1027.0</ele><time>2026-05-02T17:25:20Z</time></trkpt><trkpt lat="45.08539995786624" lon="6.9080051392345245"><ele>1027.0</ele><time>2026-05-02T17:25:21Z</time></trkpt><trkpt lat="45.08550703930707" lon="6.90803359032308"><ele>1027.0</ele><time>2026-05-02T17:25:22Z</time></trkpt><trkpt lat="45.08559036790383" lon="6.908014547642037"><ele>1027.0</ele><time>2026-05-02T17:25:23Z</time></trkpt><trkpt lat="45.085654652725665" lon="6.907931903429313"><ele>1027.0</ele><time>2026-05-02T17:25:24Z</time></trkpt><trkpt lat="45.08566699722667" lon="6.907779077379017"><ele>1027.0</ele><time>2026-05-02T17:25:25Z</time></trkpt><trkpt lat="45.08562098390776" lon="6.907657598645254"><ele>1027.0</ele><time>2026-05-02T17:25:26Z</time></trkpt><trkpt lat="45.08550991324226" lon="6.907588758380251"><ele>1027.0</ele><time>2026-05-02T17:25:27Z</time></trkpt><trkpt lat="45.08538216483722" lon="6.907608770856016"><ele>1027.0</ele><time>2026-05-02T17:25:28Z</time></trkpt><trkpt lat="45.08523163225412" lon="6.907657824954141"><ele>1027.0</ele><time>2026-05-02T17:25:29Z</time></trkpt><trkpt lat="45.085082723491126" lon="6.907610244114989"><ele>1027.0</ele><time>2026-05-02T17:25:30Z</time></trkpt><trkpt lat="45.08491365567893" lon="6.907430907953428"><ele>1027.0</ele><time>2026-05-02T17:25:31Z</time></trkpt><trkpt lat="45.08471337429212" lon="6.907253852841655"><ele>1035.5</ele><time>2026-05-02T17:25:32Z</time></trkpt><trkpt lat="45.08448043373123" lon="6.9070904316919"><ele>1044.0</ele><time>2026-05-02T17:25:33Z</time></trkpt><trkpt lat="45.08427259424973" lon="6.906898734657202"><ele>1041.3333333333333</ele><time>2026-05-02T17:25:33.999Z</time></trkpt><trkpt lat="45.08410717555426" lon="6.9067034802734115"><ele>1038.6666666666665</ele><time>2026-05-02T17:25:34.999Z</time></trkpt><trkpt lat="45.08395536327855" lon="6.9065269678053305"><ele>1036.0</ele><time>2026-05-02T17:25:35.999Z</time></trkpt><trkpt lat="45.08381613712374" lon="6.906370815566053"><ele>1036.0</ele><time>2026-05-02T17:25:36.999Z</time></trkpt><trkpt lat="45.0837053727114" lon="6.90615659222207"><ele>1036.0</ele><time>2026-05-02T17:25:37.999Z</time></trkpt><trkpt lat="45.083576636166036" lon="6.905886450574765"><ele>1036.0</ele><time>2026-05-02T17:25:38.999Z</time></trkpt><trkpt lat="45.0834695240749" lon="6.905538923174566"><ele>1044.5</ele><time>2026-05-02T17:25:39.999Z</time></trkpt><trkpt lat="45.08336096336944" lon="6.905165537899469"><ele>1053.0</ele><time>2026-05-02T17:25:40.999Z</time></trkpt><trkpt lat="45.08326021119747" lon="6.904847628187582"><ele>1053.0</ele><time>2026-05-02T17:25:41.999Z</time></trkpt><trkpt lat="45.08315637249983" lon="6.904596797430942"><ele>1053.0</ele><time>2026-05-02T17:25:42.999Z</time></trkpt><trkpt lat="45.08304799011958" lon="6.904367751040819"><ele>1053.0</ele><time>2026-05-02T17:25:43.999Z</time></trkpt><trkpt lat="45.08290997252982" lon="6.904167810310911"><ele>1050.0</ele><time>2026-05-02T17:25:44.999Z</time></trkpt><trkpt lat="45.082743804796515" lon="6.903984463958132"><ele>1047.0</ele><time>2026-05-02T17:25:45.999Z</time></trkpt><trkpt lat="45.082564278019134" lon="6.903846149795359"><ele>1044.0</ele><time>2026-05-02T17:25:46.999Z</time></trkpt><trkpt lat="45.079197171388785" lon="6.8992714810855125"><ele>1038.6666666666667</ele><time>2026-05-02T17:26:48Z</time></trkpt><trkpt lat="45.07931073497387" lon="6.898965189287197"><ele>1033.3333333333335</ele><time>2026-05-02T17:26:49Z</time></trkpt><trkpt lat="45.07941300002539" lon="6.8987245451715005"><ele>1028.0</ele><time>2026-05-02T17:26:50Z</time></trkpt><trkpt lat="45.07950558113037" lon="6.898509779315259"><ele>1026.6666666666667</ele><time>2026-05-02T17:26:51Z</time></trkpt><trkpt lat="45.07955745918558" lon="6.898293327774678"><ele>1025.3333333333333</ele><time>2026-05-02T17:26:52Z</time></trkpt><trkpt lat="45.07955567127312" lon="6.898079056347981"><ele>1024.0</ele><time>2026-05-02T17:26:53Z</time></trkpt><trkpt lat="45.07950707757954" lon="6.897844478599209"><ele>1024.0</ele><time>2026-05-02T17:26:54Z</time></trkpt><trkpt lat="45.079401224321806" lon="6.8975973234391645"><ele>1024.0</ele><time>2026-05-02T17:26:55Z</time></trkpt><trkpt lat="45.07929631470023" lon="6.897343063036853"><ele>1024.0</ele><time>2026-05-02T17:26:56Z</time></trkpt><trkpt lat="45.07925001258945" lon="6.897058986659705"><ele>1024.0</ele><time>2026-05-02T17:26:57Z</time></trkpt><trkpt lat="45.07923590837886" lon="6.8967315853638205"><ele>1024.0</ele><time>2026-05-02T17:26:58Z</time></trkpt><trkpt lat="45.07922240683096" lon="6.8964239138278955"><ele>1024.0</ele><time>2026-05-02T17:26:59Z</time></trkpt><trkpt lat="45.07925314887399" lon="6.89613791276241"><ele>1026.3333333333333</ele><time>2026-05-02T17:27:00Z</time></trkpt><trkpt lat="45.07931156963723" lon="6.895809266402185"><ele>1028.6666666666667</ele><time>2026-05-02T17:27:01Z</time></trkpt><trkpt lat="45.07935642220438" lon="6.895518678097529"><ele>1031.0</ele><time>2026-05-02T17:27:02Z</time></trkpt><trkpt lat="45.07937518787323" lon="6.8952742537859395"><ele>1031.3333333333335</ele><time>2026-05-02T17:27:03Z</time></trkpt><trkpt lat="45.07935323602521" lon="6.895017975198502"><ele>1031.6666666666667</ele><time>2026-05-02T17:27:04Z</time></trkpt><trkpt lat="45.07922448657537" lon="6.894718327026457"><ele>1032.0</ele><time>2026-05-02T17:27:05Z</time></trkpt><trkpt lat="45.079074818830456" lon="6.894374729885193"><ele>1023.0</ele><time>2026-05-02T17:27:06Z</time></trkpt><trkpt lat="45.07890536421314" lon="6.894031848928729"><ele>1014.0</ele><time>2026-05-02T17:27:07Z</time></trkpt><trkpt lat="45.07869888273366" lon="6.893666974867972"><ele>1021.0</ele><time>2026-05-02T17:27:08Z</time></trkpt><trkpt lat="45.078516209496556" lon="6.893288857567194"><ele>1028.0</ele><time>2026-05-02T17:27:09Z</time></trkpt><trkpt lat="45.07832722765972" lon="6.892916602276677"><ele>1018.0</ele><time>2026-05-02T17:27:10Z</time></trkpt><trkpt lat="45.07814323849647" lon="6.892579207303383"><ele>1008.0</ele><time>2026-05-02T17:27:11Z</time></trkpt><trkpt lat="45.07799666718473" lon="6.892239221878166"><ele>1008.0</ele><time>2026-05-02T17:27:12Z</time></trkpt><trkpt lat="45.07785702219237" lon="6.891931327787707"><ele>1008.0</ele><time>2026-05-02T17:27:13Z</time></trkpt><trkpt lat="45.07770994905006" lon="6.891631400215169"><ele>1004.5</ele><time>2026-05-02T17:27:14Z</time></trkpt><trkpt lat="45.0775474051622" lon="6.891358018461686"><ele>1001.0</ele><time>2026-05-02T17:27:15Z</time></trkpt><trkpt lat="45.077348236727985" lon="6.891063204678347"><ele>1003.0</ele><time>2026-05-02T17:27:16Z</time></trkpt><trkpt lat="45.077179291671456" lon="6.890757124404341"><ele>1005.0</ele><time>2026-05-02T17:27:17Z</time></trkpt><trkpt lat="45.077045909353224" lon="6.890416045536493"><ele>1012.0</ele><time>2026-05-02T17:27:18Z</time></trkpt><trkpt lat="45.07692570606215" lon="6.89007105900206"><ele>1019.0</ele><time>2026-05-02T17:27:19Z</time></trkpt><trkpt lat="45.076766456836616" lon="6.889775626114879"><ele>1014.5</ele><time>2026-05-02T17:27:20Z</time></trkpt><trkpt lat="45.07656426294154" lon="6.889463014842268"><ele>1010.0</ele><time>2026-05-02T17:27:21Z</time></trkpt><trkpt lat="45.07635888360816" lon="6.889154414301037"><ele>1010.0</ele><time>2026-05-02T17:27:22Z</time></trkpt><trkpt lat="45.07617251540072" lon="6.888885033324327"><ele>1010.0</ele><time>2026-05-02T17:27:23Z</time></trkpt><trkpt lat="45.07601719870478" lon="6.888647018005938"><ele>1008.0</ele><time>2026-05-02T17:27:24Z</time></trkpt><trkpt lat="45.07589621429858" lon="6.88839782947476"><ele>1006.0</ele><time>2026-05-02T17:27:25Z</time></trkpt><trkpt lat="45.0757943283557" lon="6.888134246743431"><ele>1004.0</ele><time>2026-05-02T17:27:26Z</time></trkpt><trkpt lat="45.0756658229891" lon="6.887887723678462"><ele>1004.0</ele><time>2026-05-02T17:27:27Z</time></trkpt><trkpt lat="45.0755654699328" lon="6.887671624709011"><ele>1004.0</ele><time>2026-05-02T17:27:28Z</time></trkpt><trkpt lat="45.07544820674622" lon="6.8874690504508225"><ele>1004.0</ele><time>2026-05-02T17:27:29Z</time></trkpt><trkpt lat="45.07532199747947" lon="6.887311316976024"><ele>1004.75</ele><time>2026-05-02T17:27:30Z</time></trkpt><trkpt lat="45.07517855183999" lon="6.887204345845495"><ele>1005.5</ele><time>2026-05-02T17:27:31Z</time></trkpt><trkpt lat="45.07506058034365" lon="6.887094291934013"><ele>1006.25</ele><time>2026-05-02T17:27:32Z</time></trkpt><trkpt lat="45.074952295971435" lon="6.886958859271744"><ele>1007.0</ele><time>2026-05-02T17:27:33Z</time></trkpt><trkpt lat="45.074877203392234" lon="6.886777361210693"><ele>1007.3333333333334</ele><time>2026-05-02T17:27:34Z</time></trkpt><trkpt lat="45.07478219058854" lon="6.886594237318617"><ele>1007.6666666666667</ele><time>2026-05-02T17:27:35Z</time></trkpt><trkpt lat="45.074696573508305" lon="6.886386222957857"><ele>1008.0</ele><time>2026-05-02T17:27:36Z</time></trkpt><trkpt lat="45.07459427448432" lon="6.886231558653782"><ele>1008.0</ele><time>2026-05-02T17:27:37Z</time></trkpt><trkpt lat="45.074480929736225" lon="6.886066052675863"><ele>1008.0</ele><time>2026-05-02T17:27:37.999Z</time></trkpt><trkpt lat="45.0743734982665" lon="6.885906412548321"><ele>1008.0</ele><time>2026-05-02T17:27:38.999Z</time></trkpt><trkpt lat="45.07427317993915" lon="6.885751956927699"><ele>1009.5</ele><time>2026-05-02T17:27:39.999Z</time></trkpt><trkpt lat="45.074178124897216" lon="6.885619020459755"><ele>1011.0</ele><time>2026-05-02T17:27:40.999Z</time></trkpt><trkpt lat="45.07408077965067" lon="6.885510010849376"><ele>1012.5</ele><time>2026-05-02T17:27:41.999Z</time></trkpt><trkpt lat="45.07399102558005" lon="6.885427896278118"><ele>1014.0</ele><time>2026-05-02T17:27:42.999Z</time></trkpt><trkpt lat="45.07390798631955" lon="6.885358051122636"><ele>1014.0</ele><time>2026-05-02T17:27:43.999Z</time></trkpt><trkpt lat="45.073823925286206" lon="6.885296982985928"><ele>1014.0</ele><time>2026-05-02T17:27:44.999Z</time></trkpt><trkpt lat="45.07373964633197" lon="6.885246871868485"><ele>1014.0</ele><time>2026-05-02T17:27:45.999Z</time></trkpt><trkpt lat="45.073651117894734" lon="6.885196539497842"><ele>1014.0</ele><time>2026-05-02T17:27:46.999Z</time></trkpt><trkpt lat="45.06714665508035" lon="6.87640921001781"><ele>1021.0</ele><time>2026-05-02T17:28:47.999Z</time></trkpt><trkpt lat="45.066980585066" lon="6.876200394837283"><ele>1028.0</ele><time>2026-05-02T17:28:49Z</time></trkpt><trkpt lat="45.06681253863139" lon="6.8759820315499365"><ele>1028.0</ele><time>2026-05-02T17:28:50Z</time></trkpt><trkpt lat="45.066632351311455" lon="6.875761139785519"><ele>1028.0</ele><time>2026-05-02T17:28:51Z</time></trkpt><trkpt lat="45.06644976449105" lon="6.875529311141305"><ele>1028.0</ele><time>2026-05-02T17:28:52Z</time></trkpt><trkpt lat="45.066258119227584" lon="6.875290289218085"><ele>1028.0</ele><time>2026-05-02T17:28:53Z</time></trkpt><trkpt lat="45.06606273582764" lon="6.875036440708182"><ele>1027.5</ele><time>2026-05-02T17:28:54Z</time></trkpt><trkpt lat="45.06586132162092" lon="6.874781397556447"><ele>1027.0</ele><time>2026-05-02T17:28:55Z</time></trkpt><trkpt lat="45.065661407790834" lon="6.874532157157792"><ele>1026.5</ele><time>2026-05-02T17:28:56Z</time></trkpt><trkpt lat="45.065463028206956" lon="6.874284975585354"><ele>1026.0</ele><time>2026-05-02T17:28:57Z</time></trkpt><trkpt lat="45.06526579586366" lon="6.874026069561747"><ele>1026.0</ele><time>2026-05-02T17:28:58Z</time></trkpt><trkpt lat="45.065063297777705" lon="6.873727298489033"><ele>1026.0</ele><time>2026-05-02T17:28:59Z</time></trkpt><trkpt lat="45.06486430661604" lon="6.873367066892086"><ele>1026.0</ele><time>2026-05-02T17:29:00Z</time></trkpt><trkpt lat="45.06465660307781" lon="6.873002518627046"><ele>1026.0</ele><time>2026-05-02T17:29:01Z</time></trkpt><trkpt lat="45.0644665640887" lon="6.872684455259572"><ele>1025.5</ele><time>2026-05-02T17:29:02Z</time></trkpt><trkpt lat="45.064302755102204" lon="6.87238447481475"><ele>1025.0</ele><time>2026-05-02T17:29:03Z</time></trkpt><trkpt lat="45.064176584183286" lon="6.872077593259117"><ele>1025.0</ele><time>2026-05-02T17:29:04Z</time></trkpt><trkpt lat="45.06403304507835" lon="6.871748081793565"><ele>1025.0</ele><time>2026-05-02T17:29:05Z</time></trkpt><trkpt lat="45.06390758633786" lon="6.871359221469129"><ele>1025.0</ele><time>2026-05-02T17:29:06Z</time></trkpt><trkpt lat="45.063790464105146" lon="6.870984808273807"><ele>1025.0</ele><time>2026-05-02T17:29:07Z</time></trkpt><trkpt lat="45.063684251747276" lon="6.870662142054763"><ele>1025.0</ele><time>2026-05-02T17:29:08Z</time></trkpt><trkpt lat="45.06357065597678" lon="6.870365370654187"><ele>1025.0</ele><time>2026-05-02T17:29:09Z</time></trkpt><trkpt lat="45.06343363358229" lon="6.870113721952888"><ele>1025.0</ele><time>2026-05-02T17:29:10Z</time></trkpt><trkpt lat="45.063264265950785" lon="6.869860257295889"><ele>1025.0</ele><time>2026-05-02T17:29:11Z</time></trkpt><trkpt lat="45.06304995927099" lon="6.869615960544694"><ele>1025.0</ele><time>2026-05-02T17:29:12Z</time></trkpt><trkpt lat="45.06279516140057" lon="6.86937852037553"><ele>1025.0</ele><time>2026-05-02T17:29:13Z</time></trkpt><trkpt lat="45.06252982302416" lon="6.869120957922279"><ele>1025.0</ele><time>2026-05-02T17:29:14Z</time></trkpt><trkpt lat="45.06227173073317" lon="6.8688535639455655"><ele>1025.0</ele><time>2026-05-02T17:29:15Z</time></trkpt><trkpt lat="45.062004184639676" lon="6.868576453773408"><ele>1024.5</ele><time>2026-05-02T17:29:16Z</time></trkpt><trkpt lat="45.061734683985314" lon="6.868307400902502"><ele>1024.0</ele><time>2026-05-02T17:29:17Z</time></trkpt><trkpt lat="45.061451234687006" lon="6.868037139936243"><ele>1024.5</ele><time>2026-05-02T17:29:18Z</time></trkpt><trkpt lat="45.061155368754115" lon="6.867774566998313"><ele>1025.0</ele><time>2026-05-02T17:29:19Z</time></trkpt><trkpt lat="45.0608634541228" lon="6.8675189729838575"><ele>1026.0</ele><time>2026-05-02T17:29:20Z</time></trkpt><trkpt lat="45.06058540099912" lon="6.867285571038518"><ele>1027.0</ele><time>2026-05-02T17:29:21Z</time></trkpt><trkpt lat="45.06032004533452" lon="6.867041353974206"><ele>1027.0</ele><time>2026-05-02T17:29:22Z</time></trkpt><trkpt lat="45.06005733873857" lon="6.8668089275581465"><ele>1027.0</ele><time>2026-05-02T17:29:23Z</time></trkpt><trkpt lat="45.05981534780124" lon="6.866543449682753"><ele>1027.0</ele><time>2026-05-02T17:29:24Z</time></trkpt><trkpt lat="45.059601097104796" lon="6.8662640057683655"><ele>1027.0</ele><time>2026-05-02T17:29:25Z</time></trkpt><trkpt lat="45.059391216670484" lon="6.865995058535805"><ele>1027.0</ele><time>2026-05-02T17:29:26Z</time></trkpt><trkpt lat="45.059189987162995" lon="6.865743134931526"><ele>1027.0</ele><time>2026-05-02T17:29:27Z</time></trkpt><trkpt lat="45.058992698142646" lon="6.865513245881463"><ele>1028.3333333333333</ele><time>2026-05-02T17:29:28Z</time></trkpt><trkpt lat="45.05882897136248" lon="6.865305893493369"><ele>1029.6666666666667</ele><time>2026-05-02T17:29:29Z</time></trkpt><trkpt lat="45.05867802355552" lon="6.865085148037772"><ele>1031.0</ele><time>2026-05-02T17:29:30Z</time></trkpt><trkpt lat="45.058540437553525" lon="6.864873036936858"><ele>1031.0</ele><time>2026-05-02T17:29:31Z</time></trkpt><trkpt lat="45.05840066599799" lon="6.864657838127603"><ele>1031.0</ele><time>2026-05-02T17:29:32Z</time></trkpt><trkpt lat="45.05827388651007" lon="6.864457146925791"><ele>1031.0</ele><time>2026-05-02T17:29:33Z</time></trkpt><trkpt lat="45.0581563806655" lon="6.864255904090474"><ele>1031.3333333333335</ele><time>2026-05-02T17:29:34Z</time></trkpt><trkpt lat="45.05805214021824" lon="6.864055795072857"><ele>1031.6666666666667</ele><time>2026-05-02T17:29:35Z</time></trkpt><trkpt lat="45.05795958318147" lon="6.863853816327498"><ele>1032.0</ele><time>2026-05-02T17:29:36Z</time></trkpt><trkpt lat="45.057872512481865" lon="6.863650748090324"><ele>1031.0</ele><time>2026-05-02T17:29:37Z</time></trkpt><trkpt lat="45.057769076945064" lon="6.863432196555955"><ele>1030.0</ele><time>2026-05-02T17:29:38Z</time></trkpt><trkpt lat="45.05764442975559" lon="6.863213025822017"><ele>1029.0</ele><time>2026-05-02T17:29:39Z</time></trkpt><trkpt lat="45.057497932925" lon="6.863000318641738"><ele>1029.6666666666667</ele><time>2026-05-02T17:29:40Z</time></trkpt><trkpt lat="45.0573412632543" lon="6.862783712144417"><ele>1030.3333333333335</ele><time>2026-05-02T17:29:41Z</time></trkpt><trkpt lat="45.05719550250664" lon="6.862563991957438"><ele>1031.0</ele><time>2026-05-02T17:29:42Z</time></trkpt><trkpt lat="45.05704739657864" lon="6.862351214048262"><ele>1031.0</ele><time>2026-05-02T17:29:42.999Z</time></trkpt><trkpt lat="45.05689476205166" lon="6.862151408999106"><ele>1031.0</ele><time>2026-05-02T17:29:43.999Z</time></trkpt><trkpt lat="45.05674963862615" lon="6.86194827861103"><ele>1031.0</ele><time>2026-05-02T17:29:44.999Z</time></trkpt><trkpt lat="45.05660771755967" lon="6.861736769226404"><ele>1031.5</ele><time>2026-05-02T17:29:45.999Z</time></trkpt><trkpt lat="45.05646806478451" lon="6.861531826638851"><ele>1032.0</ele><time>2026-05-02T17:29:46.999Z</time></trkpt><trkpt lat="45.049419214659984" lon="6.8481137545126565"><ele>1038.0</ele><time>2026-05-02T17:30:47.999Z</time></trkpt><trkpt lat="45.049304166338445" lon="6.847977497099884"><ele>1044.0</ele><time>2026-05-02T17:30:48.999Z</time></trkpt><trkpt lat="45.04922940508278" lon="6.847787474241807"><ele>1050.0</ele><time>2026-05-02T17:30:49.999Z</time></trkpt><trkpt lat="45.049171317344815" lon="6.847543864540848"><ele>1049.6666666666667</ele><time>2026-05-02T17:30:50.999Z</time></trkpt><trkpt lat="45.04906049685919" lon="6.847292732393413"><ele>1049.3333333333335</ele><time>2026-05-02T17:30:51.999Z</time></trkpt><trkpt lat="45.048931822860254" lon="6.8470275137839085"><ele>1049.0</ele><time>2026-05-02T17:30:52.999Z</time></trkpt><trkpt lat="45.04880069397661" lon="6.846730955670351"><ele>1049.0</ele><time>2026-05-02T17:30:53.999Z</time></trkpt><trkpt lat="45.04866598629164" lon="6.8464259606072035"><ele>1049.0</ele><time>2026-05-02T17:30:55Z</time></trkpt><trkpt lat="45.048525841495206" lon="6.8461186652933375"><ele>1049.0</ele><time>2026-05-02T17:30:56Z</time></trkpt><trkpt lat="45.04839246367362" lon="6.845813716625374"><ele>1049.0</ele><time>2026-05-02T17:30:57Z</time></trkpt><trkpt lat="45.04826579504385" lon="6.845519508885785"><ele>1049.0</ele><time>2026-05-02T17:30:58Z</time></trkpt><trkpt lat="45.04814295904073" lon="6.845254964400013"><ele>1049.0</ele><time>2026-05-02T17:30:59Z</time></trkpt><trkpt lat="45.04803131174747" lon="6.845008097043323"><ele>1049.0</ele><time>2026-05-02T17:31:00Z</time></trkpt><trkpt lat="45.047950699869936" lon="6.844771383416551"><ele>1050.3333333333335</ele><time>2026-05-02T17:31:01Z</time></trkpt><trkpt lat="45.04790410695008" lon="6.844511184100677"><ele>1051.6666666666667</ele><time>2026-05-02T17:31:02Z</time></trkpt><trkpt lat="45.047883492449635" lon="6.844204863570892"><ele>1053.0</ele><time>2026-05-02T17:31:03Z</time></trkpt><trkpt lat="45.04785876064074" lon="6.843876089166751"><ele>1052.5</ele><time>2026-05-02T17:31:04Z</time></trkpt><trkpt lat="45.04783190342035" lon="6.8435356098286855"><ele>1052.0</ele><time>2026-05-02T17:31:05Z</time></trkpt><trkpt lat="45.047807674984256" lon="6.843199826319806"><ele>1052.0</ele><time>2026-05-02T17:31:06Z</time></trkpt><trkpt lat="45.04779152962751" lon="6.8428670563794425"><ele>1052.0</ele><time>2026-05-02T17:31:07Z</time></trkpt><trkpt lat="45.047791096174" lon="6.84252607111837"><ele>1054.0</ele><time>2026-05-02T17:31:08Z</time></trkpt><trkpt lat="45.04781105050731" lon="6.842190780597253"><ele>1056.0</ele><time>2026-05-02T17:31:09Z</time></trkpt><trkpt lat="45.04783087937996" lon="6.841870087327823"><ele>1055.0</ele><time>2026-05-02T17:31:10Z</time></trkpt><trkpt lat="45.047822093619786" lon="6.841567764761536"><ele>1054.0</ele><time>2026-05-02T17:31:11Z</time></trkpt><trkpt lat="45.04780785511298" lon="6.84126563973083"><ele>1053.0</ele><time>2026-05-02T17:31:12Z</time></trkpt><trkpt lat="45.047803542901505" lon="6.840949126052605"><ele>1055.3333333333333</ele><time>2026-05-02T17:31:13Z</time></trkpt><trkpt lat="45.04782356626701" lon="6.840647046663898"><ele>1057.6666666666665</ele><time>2026-05-02T17:31:14Z</time></trkpt><trkpt lat="45.04782657263514" lon="6.840363457856836"><ele>1060.0</ele><time>2026-05-02T17:31:15Z</time></trkpt><trkpt lat="45.047776047589274" lon="6.840078395483051"><ele>1064.0</ele><time>2026-05-02T17:31:16Z</time></trkpt><trkpt lat="45.047690464643665" lon="6.839780594147093"><ele>1068.0</ele><time>2026-05-02T17:31:17Z</time></trkpt><trkpt lat="45.04756735402816" lon="6.839480337757845"><ele>1061.5</ele><time>2026-05-02T17:31:18Z</time></trkpt><trkpt lat="45.04742251348191" lon="6.839189133595895"><ele>1055.0</ele><time>2026-05-02T17:31:19Z</time></trkpt><trkpt lat="45.04726392324485" lon="6.83886514303912"><ele>1055.0</ele><time>2026-05-02T17:31:20Z</time></trkpt><trkpt lat="45.047094797750326" lon="6.8385051988400205"><ele>1055.0</ele><time>2026-05-02T17:31:21Z</time></trkpt><trkpt lat="45.04692221654766" lon="6.838130245427976"><ele>1056.0</ele><time>2026-05-02T17:31:22Z</time></trkpt><trkpt lat="45.04674618323739" lon="6.837744761383658"><ele>1057.0</ele><time>2026-05-02T17:31:23Z</time></trkpt><trkpt lat="45.04657252824192" lon="6.837358431706708"><ele>1057.0</ele><time>2026-05-02T17:31:24Z</time></trkpt><trkpt lat="45.046394856903646" lon="6.836983444779619"><ele>1057.0</ele><time>2026-05-02T17:31:25Z</time></trkpt><trkpt lat="45.04622280755085" lon="6.836624839507711"><ele>1056.5</ele><time>2026-05-02T17:31:26Z</time></trkpt><trkpt lat="45.04606340863438" lon="6.836271608930851"><ele>1056.0</ele><time>2026-05-02T17:31:27Z</time></trkpt><trkpt lat="45.0459052469279" lon="6.835931834820839"><ele>1057.0</ele><time>2026-05-02T17:31:28Z</time></trkpt><trkpt lat="45.04575543108632" lon="6.835593463755197"><ele>1058.0</ele><time>2026-05-02T17:31:29Z</time></trkpt><trkpt lat="45.04562421043822" lon="6.835245645812385"><ele>1060.0</ele><time>2026-05-02T17:31:30Z</time></trkpt><trkpt lat="45.04548905030716" lon="6.834906267719583"><ele>1062.0</ele><time>2026-05-02T17:31:31Z</time></trkpt><trkpt lat="45.04534554661737" lon="6.834542712748582"><ele>1064.0</ele><time>2026-05-02T17:31:32Z</time></trkpt><trkpt lat="45.045186057975734" lon="6.8341588034209515"><ele>1066.0</ele><time>2026-05-02T17:31:33Z</time></trkpt><trkpt lat="45.04501865335248" lon="6.833758523323383"><ele>1065.0</ele><time>2026-05-02T17:31:34Z</time></trkpt><trkpt lat="45.04480595221794" lon="6.833394162916318"><ele>1064.0</ele><time>2026-05-02T17:31:35Z</time></trkpt><trkpt lat="45.04461560818158" lon="6.83304122644359"><ele>1064.0</ele><time>2026-05-02T17:31:36Z</time></trkpt><trkpt lat="45.04442922656312" lon="6.832684206378279"><ele>1064.0</ele><time>2026-05-02T17:31:37Z</time></trkpt><trkpt lat="45.0442538894295" lon="6.8323133929074755"><ele>1064.0</ele><time>2026-05-02T17:31:38Z</time></trkpt><trkpt lat="45.04407594221243" lon="6.831932560486021"><ele>1064.0</ele><time>2026-05-02T17:31:39Z</time></trkpt><trkpt lat="45.0438916894377" lon="6.831539167175796"><ele>1064.0</ele><time>2026-05-02T17:31:40Z</time></trkpt><trkpt lat="45.04369867196261" lon="6.83113331116101"><ele>1064.0</ele><time>2026-05-02T17:31:41Z</time></trkpt><trkpt lat="45.04350888538805" lon="6.830723194908725"><ele>1064.0</ele><time>2026-05-02T17:31:42Z</time></trkpt><trkpt lat="45.04332228773102" lon="6.830319550928711"><ele>1064.0</ele><time>2026-05-02T17:31:43Z</time></trkpt><trkpt lat="45.04314972968345" lon="6.829948295348407"><ele>1064.0</ele><time>2026-05-02T17:31:44Z</time></trkpt><trkpt lat="45.04299397513798" lon="6.82960846066929"><ele>1064.0</ele><time>2026-05-02T17:31:45Z</time></trkpt><trkpt lat="45.042851211453694" lon="6.829301843462596"><ele>1064.5</ele><time>2026-05-02T17:31:45.999Z</time></trkpt><trkpt lat="45.042725756438884" lon="6.829020261484536"><ele>1065.0</ele><time>2026-05-02T17:31:46.999Z</time></trkpt><trkpt lat="45.03867200040874" lon="6.827221676349647"><ele>1065.0</ele><time>2026-05-02T17:32:48.999Z</time></trkpt><trkpt lat="45.03861681421497" lon="6.827264977442825"><ele>1065.0</ele><time>2026-05-02T17:34:51.999Z</time></trkpt><trkpt lat="45.03856397527101" lon="6.8273158402872305"><ele>1065.0</ele><time>2026-05-02T17:34:52.999Z</time></trkpt><trkpt lat="45.03850200993566" lon="6.827384843227399"><ele>1065.0</ele><time>2026-05-02T17:34:53.999Z</time></trkpt><trkpt lat="45.03844410662902" lon="6.827450504508856"><ele>1065.0</ele><time>2026-05-02T17:34:54.999Z</time></trkpt><trkpt lat="45.03838100033254" lon="6.82750782947457"><ele>1065.0</ele><time>2026-05-02T17:34:55.999Z</time></trkpt><trkpt lat="45.03831561773542" lon="6.827567453256748"><ele>1065.0</ele><time>2026-05-02T17:34:56.999Z</time></trkpt><trkpt lat="45.038243430447515" lon="6.827637111193333"><ele>1065.1666666666667</ele><time>2026-05-02T17:34:57.999Z</time></trkpt><trkpt lat="45.03816878578061" lon="6.827714404304607"><ele>1065.3333333333333</ele><time>2026-05-02T17:34:58.999Z</time></trkpt><trkpt lat="45.03809846420041" lon="6.827786173238017"><ele>1065.5</ele><time>2026-05-02T17:34:59.999Z</time></trkpt><trkpt lat="45.03802909918767" lon="6.827855662169017"><ele>1065.6666666666665</ele><time>2026-05-02T17:35:00.999Z</time></trkpt><trkpt lat="45.03796412280595" lon="6.827922775286802"><ele>1065.8333333333333</ele><time>2026-05-02T17:35:01.999Z</time></trkpt><trkpt lat="45.037900244721506" lon="6.827980375125929"><ele>1066.0</ele><time>2026-05-02T17:35:02.998Z</time></trkpt><trkpt lat="45.03780369559422" lon="6.828054457337281"><ele>1066.0</ele><time>2026-05-02T17:35:04.998Z</time></trkpt><trkpt lat="45.03772344262963" lon="6.827925505152256"><ele>1066.0</ele><time>2026-05-02T17:35:08Z</time></trkpt><trkpt lat="45.03771289493802" lon="6.827774433785627"><ele>1066.0</ele><time>2026-05-02T17:35:10Z</time></trkpt><trkpt lat="45.03770579010364" lon="6.827679778191794"><ele>1066.0</ele><time>2026-05-02T17:35:11Z</time></trkpt><trkpt lat="45.03770973892109" lon="6.8275888156372355"><ele>1066.0</ele><time>2026-05-02T17:35:12Z</time></trkpt><trkpt lat="45.03771461735933" lon="6.8274763555884554"><ele>1066.0</ele><time>2026-05-02T17:35:13Z</time></trkpt><trkpt lat="45.03771766778979" lon="6.827315509111121"><ele>1066.0</ele><time>2026-05-02T17:35:14Z</time></trkpt><trkpt lat="45.03771859532411" lon="6.8271035535902955"><ele>1066.0</ele><time>2026-05-02T17:35:15Z</time></trkpt><trkpt lat="45.037717368321196" lon="6.826879843317318"><ele>1066.0</ele><time>2026-05-02T17:35:16Z</time></trkpt><trkpt lat="45.0377115953236" lon="6.8266454444429145"><ele>1066.0</ele><time>2026-05-02T17:35:17Z</time></trkpt><trkpt lat="45.037696781193844" lon="6.826386984668616"><ele>1066.0</ele><time>2026-05-02T17:35:18Z</time></trkpt><trkpt lat="45.037683308273124" lon="6.826126059404366"><ele>1066.0</ele><time>2026-05-02T17:35:19Z</time></trkpt><trkpt lat="45.03768736160046" lon="6.825870812087739"><ele>1066.25</ele><time>2026-05-02T17:35:20Z</time></trkpt><trkpt lat="45.03768114181405" lon="6.825647981140287"><ele>1066.5</ele><time>2026-05-02T17:35:21Z</time></trkpt><trkpt lat="45.037672755178036" lon="6.825434682904679"><ele>1066.75</ele><time>2026-05-02T17:35:22Z</time></trkpt><trkpt lat="45.03766432478094" lon="6.825252182685859"><ele>1067.0</ele><time>2026-05-02T17:35:23Z</time></trkpt><trkpt lat="45.03765676785539" lon="6.825082250731346"><ele>1067.2</ele><time>2026-05-02T17:35:24Z</time></trkpt><trkpt lat="45.037653188413806" lon="6.824935725827014"><ele>1067.4</ele><time>2026-05-02T17:35:25Z</time></trkpt><trkpt lat="45.037640107956534" lon="6.824814990443528"><ele>1067.6</ele><time>2026-05-02T17:35:26Z</time></trkpt><trkpt lat="45.037650498583965" lon="6.824706433446766"><ele>1067.8</ele><time>2026-05-02T17:35:28Z</time></trkpt><trkpt lat="45.037743301659056" lon="6.82471552313062"><ele>1068.0</ele><time>2026-05-02T17:35:33Z</time></trkpt><trkpt lat="45.0373033820115" lon="6.829092186171234"><ele>1068.0</ele><time>2026-05-02T17:46:47.999Z</time></trkpt><trkpt lat="45.0372539697228" lon="6.829212282167836"><ele>1068.0</ele><time>2026-05-02T17:46:48.999Z</time></trkpt><trkpt lat="45.037207015409976" lon="6.829327000485485"><ele>1068.0</ele><time>2026-05-02T17:46:49.999Z</time></trkpt><trkpt lat="45.03716056578759" lon="6.829440818334029"><ele>1068.0</ele><time>2026-05-02T17:46:50.999Z</time></trkpt><trkpt lat="45.03710867836249" lon="6.829551519569286"><ele>1068.0</ele><time>2026-05-02T17:46:51.999Z</time></trkpt><trkpt lat="45.03705792628602" lon="6.82966440835651"><ele>1068.2</ele><time>2026-05-02T17:46:52.999Z</time></trkpt><trkpt lat="45.03700759142986" lon="6.829773911978206"><ele>1068.4</ele><time>2026-05-02T17:46:53.999Z</time></trkpt><trkpt lat="45.03695988842861" lon="6.8298810898991205"><ele>1068.6000000000001</ele><time>2026-05-02T17:46:54.999Z</time></trkpt><trkpt lat="45.03691764244285" lon="6.829989298680216"><ele>1068.8</ele><time>2026-05-02T17:46:55.999Z</time></trkpt><trkpt lat="45.036856829683174" lon="6.830087757987206"><ele>1069.0</ele><time>2026-05-02T17:46:56.999Z</time></trkpt><trkpt lat="45.03681882512896" lon="6.8302019039633635"><ele>1069.0</ele><time>2026-05-02T17:46:57.999Z</time></trkpt><trkpt lat="45.0367594786028" lon="6.8303029218712075"><ele>1069.0</ele><time>2026-05-02T17:46:58.999Z</time></trkpt><trkpt lat="45.03671101082099" lon="6.830407367172426"><ele>1069.0</ele><time>2026-05-02T17:46:59.999Z</time></trkpt><trkpt lat="45.03667217374902" lon="6.830520690990468"><ele>1069.0</ele><time>2026-05-02T17:47:00.999Z</time></trkpt><trkpt lat="45.03662486803351" lon="6.830612909800691"><ele>1069.0</ele><time>2026-05-02T17:47:01.999Z</time></trkpt><trkpt lat="45.03654417398413" lon="6.830718313073528"><ele>1069.2</ele><time>2026-05-02T17:47:03.999Z</time></trkpt><trkpt lat="45.03648207526217" lon="6.8307990784296795"><ele>1069.4</ele><time>2026-05-02T17:47:24.999Z</time></trkpt><trkpt lat="45.03639183223234" lon="6.8309237789778035"><ele>1069.6</ele><time>2026-05-02T17:47:26.999Z</time></trkpt><trkpt lat="45.0363363816301" lon="6.830996816308885"><ele>1069.8</ele><time>2026-05-02T17:47:27.999Z</time></trkpt><trkpt lat="45.03627785289444" lon="6.831073908443889"><ele>1070.0</ele><time>2026-05-02T17:47:28.999Z</time></trkpt><trkpt lat="45.036210540273615" lon="6.831162343812833"><ele>1070.0</ele><time>2026-05-02T17:47:29.999Z</time></trkpt><trkpt lat="45.036142546604374" lon="6.831251617919537"><ele>1070.0</ele><time>2026-05-02T17:47:30.999Z</time></trkpt><trkpt lat="45.03607004109546" lon="6.831347187869644"><ele>1070.0</ele><time>2026-05-02T17:47:31.999Z</time></trkpt><trkpt lat="45.03599817726169" lon="6.8314420737433075"><ele>1070.0</ele><time>2026-05-02T17:47:32.999Z</time></trkpt><trkpt lat="45.03592434139447" lon="6.831539563206294"><ele>1070.0</ele><time>2026-05-02T17:47:33.999Z</time></trkpt><trkpt lat="45.03585254533846" lon="6.831634359548521"><ele>1070.75</ele><time>2026-05-02T17:47:34.999Z</time></trkpt><trkpt lat="45.035786284727465" lon="6.831753423428099"><ele>1071.5</ele><time>2026-05-02T17:47:35.999Z</time></trkpt><trkpt lat="45.0356886676373" lon="6.831859357438752"><ele>1072.25</ele><time>2026-05-02T17:47:36.999Z</time></trkpt><trkpt lat="45.03560026494892" lon="6.831977573901343"><ele>1073.0</ele><time>2026-05-02T17:47:37.999Z</time></trkpt><trkpt lat="45.035512607657054" lon="6.832093090513883"><ele>1073.2</ele><time>2026-05-02T17:47:38.999Z</time></trkpt><trkpt lat="45.035423810511354" lon="6.832212396971091"><ele>1073.4</ele><time>2026-05-02T17:47:39.999Z</time></trkpt><trkpt lat="45.03533801649263" lon="6.832319993225438"><ele>1073.6000000000001</ele><time>2026-05-02T17:47:40.998Z</time></trkpt><trkpt lat="45.035255238422415" lon="6.832415418143758"><ele>1073.8</ele><time>2026-05-02T17:47:41.998Z</time></trkpt><trkpt lat="45.03516935032306" lon="6.832499971979753"><ele>1074.0</ele><time>2026-05-02T17:47:43Z</time></trkpt><trkpt lat="45.03509331101385" lon="6.832574410529418"><ele>1074.0</ele><time>2026-05-02T17:47:44Z</time></trkpt><trkpt lat="45.03502161144195" lon="6.832647525454089"><ele>1074.0</ele><time>2026-05-02T17:47:45Z</time></trkpt><trkpt lat="45.03494248947075" lon="6.832722471375818"><ele>1074.0</ele><time>2026-05-02T17:47:46Z</time></trkpt><trkpt lat="45.03484184689939" lon="6.832777482545659"><ele>1074.0</ele><time>2026-05-02T17:47:47Z</time></trkpt><trkpt lat="45.030122501673304" lon="6.833237187893099"><ele>1079.4</ele><time>2026-05-02T17:48:47.999Z</time></trkpt><trkpt lat="45.0300844699458" lon="6.833317461178459"><ele>1084.8000000000002</ele><time>2026-05-02T17:48:48.999Z</time></trkpt><trkpt lat="45.02999684371673" lon="6.8333707339317105"><ele>1090.1999999999998</ele><time>2026-05-02T17:48:50.999Z</time></trkpt><trkpt lat="45.02993162297543" lon="6.833324975737099"><ele>1095.6</ele><time>2026-05-02T17:48:51.999Z</time></trkpt><trkpt lat="45.029831887413984" lon="6.833288336468366"><ele>1101.0</ele><time>2026-05-02T17:48:52.999Z</time></trkpt><trkpt lat="45.02973614844319" lon="6.833204119234983"><ele>1102.5</ele><time>2026-05-02T17:48:53.999Z</time></trkpt><trkpt lat="45.02964154402484" lon="6.833085492510137"><ele>1104.0</ele><time>2026-05-02T17:48:54.999Z</time></trkpt><trkpt lat="45.02956276049168" lon="6.832950305488436"><ele>1105.5</ele><time>2026-05-02T17:48:55.999Z</time></trkpt><trkpt lat="45.02948938794396" lon="6.832796838303613"><ele>1107.0</ele><time>2026-05-02T17:48:56.999Z</time></trkpt><trkpt lat="45.029414819188766" lon="6.8326335473357105"><ele>1107.0</ele><time>2026-05-02T17:48:57.999Z</time></trkpt><trkpt lat="45.02933208759644" lon="6.832472583813"><ele>1107.0</ele><time>2026-05-02T17:48:58.999Z</time></trkpt><trkpt lat="45.02925747288554" lon="6.832347521315693"><ele>1107.0</ele><time>2026-05-02T17:48:59.999Z</time></trkpt><trkpt lat="45.02918110551329" lon="6.832249494980557"><ele>1107.0</ele><time>2026-05-02T17:49:00.999Z</time></trkpt><trkpt lat="45.029091599127334" lon="6.8321869479736215"><ele>1108.25</ele><time>2026-05-02T17:49:01.999Z</time></trkpt><trkpt lat="45.02899712704652" lon="6.832107363366957"><ele>1109.5</ele><time>2026-05-02T17:49:02.999Z</time></trkpt><trkpt lat="45.028875755516324" lon="6.832061905455377"><ele>1110.75</ele><time>2026-05-02T17:49:03.999Z</time></trkpt><trkpt lat="45.028742824806606" lon="6.832030135442455"><ele>1112.0</ele><time>2026-05-02T17:49:04.999Z</time></trkpt><trkpt lat="45.028609714694085" lon="6.832028762899196"><ele>1112.0</ele><time>2026-05-02T17:49:05.999Z</time></trkpt><trkpt lat="45.028477522851986" lon="6.832018172579639"><ele>1112.0</ele><time>2026-05-02T17:49:06.999Z</time></trkpt><trkpt lat="45.02833776554319" lon="6.832008107516064"><ele>1112.0</ele><time>2026-05-02T17:49:07.999Z</time></trkpt><trkpt lat="45.028194942177166" lon="6.8319925799927175"><ele>1112.0</ele><time>2026-05-02T17:49:08.999Z</time></trkpt><trkpt lat="45.02807591119078" lon="6.831985068933998"><ele>1113.5</ele><time>2026-05-02T17:49:09.999Z</time></trkpt><trkpt lat="45.028005973259944" lon="6.832007150625698"><ele>1115.0</ele><time>2026-05-02T17:49:11.999Z</time></trkpt><trkpt lat="45.028002793811424" lon="6.832225115647306"><ele>1116.5</ele><time>2026-05-02T17:49:13.999Z</time></trkpt><trkpt lat="45.02798151166976" lon="6.832373847603894"><ele>1118.0</ele><time>2026-05-02T17:49:14.999Z</time></trkpt><trkpt lat="45.02797332912655" lon="6.832559174415973"><ele>1120.3333333333335</ele><time>2026-05-02T17:49:15.999Z</time></trkpt><trkpt lat="45.027955481006536" lon="6.832803710591464"><ele>1122.6666666666667</ele><time>2026-05-02T17:49:16.999Z</time></trkpt><trkpt lat="45.027915137217285" lon="6.833052214016817"><ele>1125.0</ele><time>2026-05-02T17:49:17.999Z</time></trkpt><trkpt lat="45.02786589106527" lon="6.833284696205956"><ele>1127.0</ele><time>2026-05-02T17:49:18.999Z</time></trkpt><trkpt lat="45.0278180436878" lon="6.83351072924153"><ele>1129.0</ele><time>2026-05-02T17:49:19.999Z</time></trkpt><trkpt lat="45.02776811685397" lon="6.8337065245417365"><ele>1131.0</ele><time>2026-05-02T17:49:20.999Z</time></trkpt><trkpt lat="45.02769932934143" lon="6.833846229395989"><ele>1133.0</ele><time>2026-05-02T17:49:21.999Z</time></trkpt><trkpt lat="45.02758823886344" lon="6.833949434396517"><ele>1133.8</ele><time>2026-05-02T17:49:22.999Z</time></trkpt><trkpt lat="45.027473034901945" lon="6.834047416094288"><ele>1134.6</ele><time>2026-05-02T17:49:23.999Z</time></trkpt><trkpt lat="45.027382890708346" lon="6.834085486451045"><ele>1135.4</ele><time>2026-05-02T17:49:24.999Z</time></trkpt><trkpt lat="45.02733308334534" lon="6.834157070927775"><ele>1136.2</ele><time>2026-05-02T17:49:25.999Z</time></trkpt><trkpt lat="45.0273631816231" lon="6.834276963460305"><ele>1137.0</ele><time>2026-05-02T17:49:27.999Z</time></trkpt><trkpt lat="45.027413344626076" lon="6.8343515290929835"><ele>1140.0</ele><time>2026-05-02T17:49:29.999Z</time></trkpt><trkpt lat="45.02756392497761" lon="6.8343649095528765"><ele>1143.0</ele><time>2026-05-02T17:49:31.999Z</time></trkpt><trkpt lat="45.02765282748493" lon="6.8343405951072755"><ele>1146.0</ele><time>2026-05-02T17:49:32.999Z</time></trkpt><trkpt lat="45.0277524628554" lon="6.834333678008932"><ele>1149.0</ele><time>2026-05-02T17:49:33.999Z</time></trkpt><trkpt lat="45.02789704131066" lon="6.834316998951578"><ele>1149.0</ele><time>2026-05-02T17:49:34.999Z</time></trkpt><trkpt lat="45.02803785602323" lon="6.834303611884365"><ele>1149.0</ele><time>2026-05-02T17:49:35.999Z</time></trkpt><trkpt lat="45.02813646194219" lon="6.834326976146959"><ele>1149.0</ele><time>2026-05-02T17:49:36.999Z</time></trkpt><trkpt lat="45.02819758464689" lon="6.834397615736453"><ele>1149.0</ele><time>2026-05-02T17:49:37.999Z</time></trkpt><trkpt lat="45.02817129249165" lon="6.834549009312963"><ele>1149.0</ele><time>2026-05-02T17:49:39.999Z</time></trkpt><trkpt lat="45.02809403276957" lon="6.834558173511529"><ele>1149.0</ele><time>2026-05-02T17:49:40.999Z</time></trkpt><trkpt lat="45.027998634985636" lon="6.834588668931917"><ele>1149.0</ele><time>2026-05-02T17:49:41.999Z</time></trkpt><trkpt lat="45.02787757976283" lon="6.834641805803149"><ele>1149.0</ele><time>2026-05-02T17:49:42.999Z</time></trkpt><trkpt lat="45.027725466113594" lon="6.834698535116192"><ele>1149.0</ele><time>2026-05-02T17:49:43.999Z</time></trkpt><trkpt lat="45.02752819693015" lon="6.834776669563164"><ele>1149.0</ele><time>2026-05-02T17:49:44.999Z</time></trkpt><trkpt lat="45.02731186008624" lon="6.834860884648915"><ele>1149.0</ele><time>2026-05-02T17:49:45.999Z</time></trkpt><trkpt lat="45.02707967702056" lon="6.834951895230204"><ele>1255.0</ele><time>2026-05-02T17:49:46.998Z</time></trkpt><trkpt lat="45.025263015788354" lon="6.839615618127828"><ele>1255.0</ele><time>2026-05-02T17:50:47.999Z</time></trkpt><trkpt lat="45.02540918300783" lon="6.839645726641377"><ele>1255.0</ele><time>2026-05-02T17:50:48.999Z</time></trkpt><trkpt lat="45.02556827302778" lon="6.839555954212598"><ele>1255.0</ele><time>2026-05-02T17:50:49.999Z</time></trkpt><trkpt lat="45.02575747119877" lon="6.839477726484703"><ele>1256.3333333333333</ele><time>2026-05-02T17:50:50.999Z</time></trkpt><trkpt lat="45.0259596803128" lon="6.839524402726408"><ele>1257.6666666666667</ele><time>2026-05-02T17:50:51.999Z</time></trkpt><trkpt lat="45.02615079381867" lon="6.839477387406033"><ele>1259.0</ele><time>2026-05-02T17:50:52.999Z</time></trkpt><trkpt lat="45.02631794764344" lon="6.83942073071131"><ele>1259.0</ele><time>2026-05-02T17:50:53.999Z</time></trkpt><trkpt lat="45.02645345712538" lon="6.839357302205491"><ele>1259.0</ele><time>2026-05-02T17:50:54.999Z</time></trkpt><trkpt lat="45.02659098208838" lon="6.839406702818052"><ele>1259.0</ele><time>2026-05-02T17:50:55.999Z</time></trkpt><trkpt lat="45.02676990752607" lon="6.839468887729375"><ele>1260.25</ele><time>2026-05-02T17:50:56.999Z</time></trkpt><trkpt lat="45.026942832309125" lon="6.839533120432316"><ele>1261.5</ele><time>2026-05-02T17:50:57.999Z</time></trkpt><trkpt lat="45.02706793706544" lon="6.839589731375586"><ele>1262.75</ele><time>2026-05-02T17:50:58.999Z</time></trkpt><trkpt lat="45.027145179355934" lon="6.83962806366469"><ele>1264.0</ele><time>2026-05-02T17:50:59.999Z</time></trkpt><trkpt lat="45.02717542551193" lon="6.8397340169569505"><ele>1264.0</ele><time>2026-05-02T17:51:00.999Z</time></trkpt><trkpt lat="45.02711451196234" lon="6.839855573965303"><ele>1264.0</ele><time>2026-05-02T17:51:01.999Z</time></trkpt><trkpt lat="45.02703483784602" lon="6.839913261286274"><ele>1264.0</ele><time>2026-05-02T17:51:02.999Z</time></trkpt><trkpt lat="45.02690978445644" lon="6.839936593598381"><ele>1264.0</ele><time>2026-05-02T17:51:03.999Z</time></trkpt><trkpt lat="45.02673645226084" lon="6.839985759299604"><ele>1261.5</ele><time>2026-05-02T17:51:04.999Z</time></trkpt><trkpt lat="45.02652736124233" lon="6.840040187250669"><ele>1259.0</ele><time>2026-05-02T17:51:05.999Z</time></trkpt><trkpt lat="45.02629451274128" lon="6.840132687940983"><ele>1268.0</ele><time>2026-05-02T17:51:06.999Z</time></trkpt><trkpt lat="45.026033080363064" lon="6.8402540575913955"><ele>1277.0</ele><time>2026-05-02T17:51:07.999Z</time></trkpt><trkpt lat="45.02577365488217" lon="6.840419246446945"><ele>1277.0</ele><time>2026-05-02T17:51:08.999Z</time></trkpt><trkpt lat="45.02550731313795" lon="6.840633326888831"><ele>1277.0</ele><time>2026-05-02T17:51:09.999Z</time></trkpt><trkpt lat="45.0252766807816" lon="6.840827293640636"><ele>1283.6666666666667</ele><time>2026-05-02T17:51:10.999Z</time></trkpt><trkpt lat="45.025085634635985" lon="6.841006523306552"><ele>1290.3333333333333</ele><time>2026-05-02T17:51:11.999Z</time></trkpt><trkpt lat="45.024924402640984" lon="6.841179991201886"><ele>1297.0</ele><time>2026-05-02T17:51:12.999Z</time></trkpt><trkpt lat="45.024731162287296" lon="6.841229259510493"><ele>1297.0</ele><time>2026-05-02T17:51:13.999Z</time></trkpt><trkpt lat="45.024523595101364" lon="6.841270546605861"><ele>1297.0</ele><time>2026-05-02T17:51:14.999Z</time></trkpt><trkpt lat="45.02432172843726" lon="6.841368143326628"><ele>1297.0</ele><time>2026-05-02T17:51:15.999Z</time></trkpt><trkpt lat="45.02411068593859" lon="6.841486389052565"><ele>1295.5</ele><time>2026-05-02T17:51:16.999Z</time></trkpt><trkpt lat="45.02387877088659" lon="6.841595654646415"><ele>1294.0</ele><time>2026-05-02T17:51:17.999Z</time></trkpt><trkpt lat="45.0236623252138" lon="6.841626922553398"><ele>1294.0</ele><time>2026-05-02T17:51:18.999Z</time></trkpt><trkpt lat="45.02348212388825" lon="6.8417385817829395"><ele>1294.0</ele><time>2026-05-02T17:51:19.999Z</time></trkpt><trkpt lat="45.02331353093121" lon="6.841877512225293"><ele>1294.0</ele><time>2026-05-02T17:51:20.999Z</time></trkpt><trkpt lat="45.02315731428822" lon="6.842036817209996"><ele>1294.0</ele><time>2026-05-02T17:51:21.999Z</time></trkpt><trkpt lat="45.02304631695892" lon="6.842170522184592"><ele>1294.0</ele><time>2026-05-02T17:51:22.999Z</time></trkpt><trkpt lat="45.02298474209968" lon="6.84232510376929"><ele>1294.0</ele><time>2026-05-02T17:51:23.999Z</time></trkpt><trkpt lat="45.02295814234705" lon="6.8425304170853565"><ele>1294.0</ele><time>2026-05-02T17:51:24.999Z</time></trkpt><trkpt lat="45.0229525648366" lon="6.842783952450569"><ele>1300.3333333333333</ele><time>2026-05-02T17:51:25.999Z</time></trkpt><trkpt lat="45.022965375021805" lon="6.843069449469473"><ele>1306.6666666666667</ele><time>2026-05-02T17:51:26.999Z</time></trkpt><trkpt lat="45.022938265786536" lon="6.843347042773223"><ele>1313.0</ele><time>2026-05-02T17:51:27.999Z</time></trkpt><trkpt lat="45.02290735137634" lon="6.843569531790944"><ele>1317.0</ele><time>2026-05-02T17:51:28.999Z</time></trkpt><trkpt lat="45.022912974423335" lon="6.843725633696882"><ele>1321.0</ele><time>2026-05-02T17:51:29.999Z</time></trkpt><trkpt lat="45.02292931279799" lon="6.8438224202718985"><ele>1325.0</ele><time>2026-05-02T17:51:30.999Z</time></trkpt><trkpt lat="45.02299610749809" lon="6.843887699395267"><ele>1329.0</ele><time>2026-05-02T17:51:31.999Z</time></trkpt><trkpt lat="45.023101798024584" lon="6.843894473538961"><ele>1333.0</ele><time>2026-05-02T17:51:32.999Z</time></trkpt><trkpt lat="45.02319414689959" lon="6.8438316350300035"><ele>1333.0</ele><time>2026-05-02T17:51:33.999Z</time></trkpt><trkpt lat="45.02328284837964" lon="6.843711738929479"><ele>1333.0</ele><time>2026-05-02T17:51:34.999Z</time></trkpt><trkpt lat="45.02340349423947" lon="6.8436219704063435"><ele>1333.0</ele><time>2026-05-02T17:51:35.999Z</time></trkpt><trkpt lat="45.02357338071547" lon="6.843587962898241"><ele>1333.0</ele><time>2026-05-02T17:51:36.999Z</time></trkpt><trkpt lat="45.0237956645067" lon="6.8435288406175845"><ele>1332.3333333333333</ele><time>2026-05-02T17:51:37.999Z</time></trkpt><trkpt lat="45.024014740924265" lon="6.843501845481887"><ele>1331.6666666666667</ele><time>2026-05-02T17:51:38.999Z</time></trkpt><trkpt lat="45.024227292188684" lon="6.84352363548018"><ele>1331.0</ele><time>2026-05-02T17:51:39.999Z</time></trkpt><trkpt lat="45.024424839468345" lon="6.843598411290747"><ele>1332.75</ele><time>2026-05-02T17:51:40.999Z</time></trkpt><trkpt lat="45.02457605960383" lon="6.843647189989884"><ele>1334.5</ele><time>2026-05-02T17:51:41.999Z</time></trkpt><trkpt lat="45.02469314667084" lon="6.843706848356708"><ele>1336.25</ele><time>2026-05-02T17:51:42.999Z</time></trkpt><trkpt lat="45.02479974153098" lon="6.843821453722869"><ele>1338.0</ele><time>2026-05-02T17:51:43.999Z</time></trkpt><trkpt lat="45.02489521776006" lon="6.843988643725511"><ele>1338.0</ele><time>2026-05-02T17:51:44.999Z</time></trkpt><trkpt lat="45.02497478321566" lon="6.844224249771678"><ele>1338.0</ele><time>2026-05-02T17:51:45.999Z</time></trkpt><trkpt lat="45.02508344037246" lon="6.844497538454356"><ele>1338.0</ele><time>2026-05-02T17:51:46.999Z</time></trkpt><trkpt lat="45.02555380564506" lon="6.849265565150316"><ele>1366.6666666666667</ele><time>2026-05-02T17:52:47.999Z</time></trkpt><trkpt lat="45.025642284378605" lon="6.8493755389395305"><ele>1395.3333333333335</ele><time>2026-05-02T17:52:48.999Z</time></trkpt><trkpt lat="45.02568539213197" lon="6.849602828345779"><ele>1424.0</ele><time>2026-05-02T17:52:49.999Z</time></trkpt><trkpt lat="45.02575673758824" lon="6.849863474934742"><ele>1428.5</ele><time>2026-05-02T17:52:50.999Z</time></trkpt><trkpt lat="45.02586556898515" lon="6.850126842418544"><ele>1433.0</ele><time>2026-05-02T17:52:51.999Z</time></trkpt><trkpt lat="45.0260111828902" lon="6.850389866433718"><ele>1433.0</ele><time>2026-05-02T17:52:52.999Z</time></trkpt><trkpt lat="45.02615611151041" lon="6.850599018975897"><ele>1433.0</ele><time>2026-05-02T17:52:53.999Z</time></trkpt><trkpt lat="45.02623617861074" lon="6.850833784326805"><ele>1433.0</ele><time>2026-05-02T17:52:54.999Z</time></trkpt><trkpt lat="45.0263050483174" lon="6.851108303556254"><ele>1436.3333333333335</ele><time>2026-05-02T17:52:55.999Z</time></trkpt><trkpt lat="45.026383321708394" lon="6.851378926856576"><ele>1439.6666666666667</ele><time>2026-05-02T17:52:56.999Z</time></trkpt><trkpt lat="45.02643890960477" lon="6.85161197475284"><ele>1443.0</ele><time>2026-05-02T17:52:57.999Z</time></trkpt><trkpt lat="45.02650227238446" lon="6.851810795082478"><ele>1444.6666666666667</ele><time>2026-05-02T17:52:58.999Z</time></trkpt><trkpt lat="45.02659244798576" lon="6.851980969671213"><ele>1446.3333333333335</ele><time>2026-05-02T17:52:59.999Z</time></trkpt><trkpt lat="45.02672384082777" lon="6.852122219604867"><ele>1448.0</ele><time>2026-05-02T17:53:00.999Z</time></trkpt><trkpt lat="45.026878114884234" lon="6.852168323716363"><ele>1448.0</ele><time>2026-05-02T17:53:01.999Z</time></trkpt><trkpt lat="45.0270091635104" lon="6.852187176418463"><ele>1448.0</ele><time>2026-05-02T17:53:02.999Z</time></trkpt><trkpt lat="45.02712258529309" lon="6.852189792238816"><ele>1448.0</ele><time>2026-05-02T17:53:03.999Z</time></trkpt><trkpt lat="45.02720083642355" lon="6.8523367857952"><ele>1448.0</ele><time>2026-05-02T17:53:04.999Z</time></trkpt><trkpt lat="45.027315021432884" lon="6.852513114961118"><ele>1452.0</ele><time>2026-05-02T17:53:05.999Z</time></trkpt><trkpt lat="45.02743819020381" lon="6.852718371050712"><ele>1456.0</ele><time>2026-05-02T17:53:06.999Z</time></trkpt><trkpt lat="45.027597869953965" lon="6.8529158801151775"><ele>1460.0</ele><time>2026-05-02T17:53:07.999Z</time></trkpt><trkpt lat="45.02775297557456" lon="6.853042557335385"><ele>1460.0</ele><time>2026-05-02T17:53:08.999Z</time></trkpt><trkpt lat="45.027850832390904" lon="6.853163907913854"><ele>1460.0</ele><time>2026-05-02T17:53:09.999Z</time></trkpt><trkpt lat="45.02793074092215" lon="6.8532353848418746"><ele>1460.0</ele><time>2026-05-02T17:53:10.999Z</time></trkpt><trkpt lat="45.02798237433868" lon="6.853344087214825"><ele>1460.0</ele><time>2026-05-02T17:53:11.999Z</time></trkpt><trkpt lat="45.02803046516804" lon="6.853445111402489"><ele>1460.0</ele><time>2026-05-02T17:53:12.999Z</time></trkpt><trkpt lat="45.028087468887236" lon="6.853570812120964"><ele>1463.5</ele><time>2026-05-02T17:53:13.999Z</time></trkpt><trkpt lat="45.02813956640532" lon="6.853722054388157"><ele>1467.0</ele><time>2026-05-02T17:53:14.999Z</time></trkpt><trkpt lat="45.02814772220743" lon="6.85390542418304"><ele>1470.5</ele><time>2026-05-02T17:53:15.999Z</time></trkpt><trkpt lat="45.02813878847464" lon="6.854095201499396"><ele>1474.0</ele><time>2026-05-02T17:53:16.999Z</time></trkpt><trkpt lat="45.02813612942823" lon="6.854298819287231"><ele>1478.0</ele><time>2026-05-02T17:53:17.999Z</time></trkpt><trkpt lat="45.02815502377979" lon="6.854514086421726"><ele>1482.0</ele><time>2026-05-02T17:53:18.999Z</time></trkpt><trkpt lat="45.02818349135215" lon="6.854719340737235"><ele>1486.0</ele><time>2026-05-02T17:53:19.999Z</time></trkpt><trkpt lat="45.02826196091115" lon="6.85493188558507"><ele>1486.0</ele><time>2026-05-02T17:53:20.999Z</time></trkpt><trkpt lat="45.02837843191612" lon="6.855129399266654"><ele>1486.0</ele><time>2026-05-02T17:53:21.999Z</time></trkpt><trkpt lat="45.028525809107144" lon="6.855274830751403"><ele>1486.0</ele><time>2026-05-02T17:53:22.999Z</time></trkpt><trkpt lat="45.02868690274223" lon="6.855385766428853"><ele>1486.0</ele><time>2026-05-02T17:53:23.999Z</time></trkpt><trkpt lat="45.0288013789726" lon="6.855528171668087"><ele>1486.0</ele><time>2026-05-02T17:53:24.999Z</time></trkpt><trkpt lat="45.02889981936672" lon="6.85567993151108"><ele>1486.0</ele><time>2026-05-02T17:53:25.999Z</time></trkpt><trkpt lat="45.0289524168413" lon="6.855884982799068"><ele>1488.6666666666665</ele><time>2026-05-02T17:53:26.999Z</time></trkpt><trkpt lat="45.02904184855053" lon="6.856084906947294"><ele>1491.3333333333333</ele><time>2026-05-02T17:53:27.999Z</time></trkpt><trkpt lat="45.029090640701746" lon="6.856301339387844"><ele>1494.0</ele><time>2026-05-02T17:53:28.999Z</time></trkpt><trkpt lat="45.02914867846428" lon="6.856508645139982"><ele>1491.3333333333333</ele><time>2026-05-02T17:53:29.999Z</time></trkpt><trkpt lat="45.02920660824144" lon="6.85670752460964"><ele>1488.6666666666665</ele><time>2026-05-02T17:53:30.999Z</time></trkpt><trkpt lat="45.02924481920192" lon="6.856922440359801"><ele>1486.0</ele><time>2026-05-02T17:53:31.999Z</time></trkpt><trkpt lat="45.02931109858868" lon="6.85712899395516"><ele>1486.0</ele><time>2026-05-02T17:53:32.999Z</time></trkpt><trkpt lat="45.02937762622341" lon="6.857316510930612"><ele>1486.0</ele><time>2026-05-02T17:53:33.999Z</time></trkpt><trkpt lat="45.02945115192114" lon="6.857480056953929"><ele>1486.0</ele><time>2026-05-02T17:53:34.999Z</time></trkpt><trkpt lat="45.02950303820718" lon="6.8576570511325246"><ele>1486.0</ele><time>2026-05-02T17:53:35.999Z</time></trkpt><trkpt lat="45.02955458325797" lon="6.857833053111406"><ele>1487.25</ele><time>2026-05-02T17:53:36.999Z</time></trkpt><trkpt lat="45.02958553833811" lon="6.858008529361794"><ele>1488.5</ele><time>2026-05-02T17:53:37.999Z</time></trkpt><trkpt lat="45.02962560066557" lon="6.858154290908164"><ele>1489.75</ele><time>2026-05-02T17:53:38.999Z</time></trkpt><trkpt lat="45.02966676872869" lon="6.858296116321152"><ele>1491.0</ele><time>2026-05-02T17:53:39.999Z</time></trkpt><trkpt lat="45.02970946341033" lon="6.858443056244663"><ele>1490.75</ele><time>2026-05-02T17:53:40.999Z</time></trkpt><trkpt lat="45.02975214397009" lon="6.858595958487776"><ele>1490.5</ele><time>2026-05-02T17:53:41.999Z</time></trkpt><trkpt lat="45.02978428753204" lon="6.858753132939153"><ele>1490.25</ele><time>2026-05-02T17:53:42.999Z</time></trkpt><trkpt lat="45.029807004598645" lon="6.858910948811488"><ele>1490.0</ele><time>2026-05-02T17:53:43.999Z</time></trkpt><trkpt lat="45.02982233994291" lon="6.859069336397586"><ele>1490.0</ele><time>2026-05-02T17:53:44.999Z</time></trkpt><trkpt lat="45.02982797854937" lon="6.859210192403141"><ele>1490.0</ele><time>2026-05-02T17:53:45.999Z</time></trkpt><trkpt lat="45.02982684395085" lon="6.85933950836113"><ele>1490.0</ele><time>2026-05-02T17:53:46.999Z</time></trkpt><trkpt lat="45.02724728105977" lon="6.860354973203094"><ele>1493.25</ele><time>2026-05-02T17:54:57.999Z</time></trkpt><trkpt lat="45.02745317747784" lon="6.8601255395553435"><ele>1496.5</ele><time>2026-05-02T17:56:58Z</time></trkpt><trkpt lat="45.0274918643231" lon="6.86005352133133"><ele>1499.75</ele><time>2026-05-02T17:57:25.999Z</time></trkpt><trkpt lat="45.02752303189888" lon="6.859956644373133"><ele>1503.0</ele><time>2026-05-02T17:57:32.999Z</time></trkpt><trkpt lat="45.0275697739406" lon="6.8598745871628015"><ele>1503.0</ele><time>2026-05-02T17:57:40.999Z</time></trkpt></trkseg></trk></gpx>